<?xml version='1.0' encoding='UTF-8'?><gpx version="1.1" creator="JPX - https://github.com/jenetics/jpx" xmlns="http://www.topografix.com/GPX/1/1"><trk><trkseg><trkpt lat="46.1088517" lon="13.594765"><ele>329.0</ele><time>2026-05-02T08:27:32.595Z</time></trkpt><trkpt lat="46.108795" lon="13.5948133"><ele>329.0</ele><time>2026-05-02T08:27:37.592Z</time></trkpt><trkpt lat="46.1087083" lon="13.5949017"><ele>329.0</ele><time>2026-05-02T08:27:46.593Z</time></trkpt><trkpt lat="46.1086433" lon="13.594955"><ele>329.0</ele><time>2026-05-02T08:27:48.593Z</time></trkpt><trkpt lat="46.1085667" lon="13.5950183"><ele>329.0</ele><time>2026-05-02T08:27:50.594Z</time></trkpt><trkpt lat="46.1084167" lon="13.5950983"><ele>329.0</ele><time>2026-05-02T08:27:55.594Z</time></trkpt><trkpt lat="46.1083283" lon="13.5951117"><ele>329.0</ele><time>2026-05-02T08:27:58.594Z</time></trkpt><trkpt lat="46.108245" lon="13.59508"><ele>329.0</ele><time>2026-05-02T08:28:01.595Z</time></trkpt><trkpt lat="46.108185" lon="13.595045"><ele>329.0</ele><time>2026-05-02T08:28:03.592Z</time></trkpt><trkpt lat="46.1081133" lon="13.5950117"><ele>329.0</ele><time>2026-05-02T08:28:05.593Z</time></trkpt><trkpt lat="46.1080517" lon="13.5949667"><ele>329.0</ele><time>2026-05-02T08:28:07.593Z</time></trkpt><trkpt lat="46.10797" lon="13.5949283"><ele>323.8</ele><time>2026-05-02T08:28:09.592Z</time></trkpt><trkpt lat="46.107885" lon="13.5948833"><ele>318.59999999999997</ele><time>2026-05-02T08:28:11.594Z</time></trkpt><trkpt lat="46.1077433" lon="13.5947533"><ele>313.4</ele><time>2026-05-02T08:28:15.595Z</time></trkpt><trkpt lat="46.1076833" lon="13.594705"><ele>308.2</ele><time>2026-05-02T08:28:17.594Z</time></trkpt><trkpt lat="46.1076117" lon="13.5946717"><ele>303.0</ele><time>2026-05-02T08:28:19.594Z</time></trkpt><trkpt lat="46.1075467" lon="13.5946583"><ele>303.0</ele><time>2026-05-02T08:28:21.592Z</time></trkpt><trkpt lat="46.1074733" lon="13.5946567"><ele>303.0</ele><time>2026-05-02T08:28:23.594Z</time></trkpt><trkpt lat="46.1074117" lon="13.5946333"><ele>303.0</ele><time>2026-05-02T08:28:25.593Z</time></trkpt><trkpt lat="46.1073617" lon="13.5945767"><ele>303.0</ele><time>2026-05-02T08:28:27.594Z</time></trkpt><trkpt lat="46.1073233" lon="13.594495"><ele>303.0</ele><time>2026-05-02T08:28:29.596Z</time></trkpt><trkpt lat="46.107295" lon="13.5945967"><ele>303.0</ele><time>2026-05-02T08:28:35.593Z</time></trkpt><trkpt lat="46.107395" lon="13.59484"><ele>303.0</ele><time>2026-05-02T08:28:38.593Z</time></trkpt><trkpt lat="46.10744" lon="13.594945"><ele>303.0</ele><time>2026-05-02T08:28:39.594Z</time></trkpt><trkpt lat="46.1074833" lon="13.595045"><ele>303.0</ele><time>2026-05-02T08:28:40.593Z</time></trkpt><trkpt lat="46.1075183" lon="13.5951417"><ele>303.0</ele><time>2026-05-02T08:28:41.595Z</time></trkpt><trkpt lat="46.1075567" lon="13.5952283"><ele>303.0</ele><time>2026-05-02T08:28:42.596Z</time></trkpt><trkpt lat="46.1075917" lon="13.595315"><ele>303.0</ele><time>2026-05-02T08:28:43.594Z</time></trkpt><trkpt lat="46.10763" lon="13.5954"><ele>298.0</ele><time>2026-05-02T08:28:44.594Z</time></trkpt><trkpt lat="46.1076567" lon="13.5954983"><ele>293.0</ele><time>2026-05-02T08:28:45.594Z</time></trkpt><trkpt lat="46.10768" lon="13.595585"><ele>288.0</ele><time>2026-05-02T08:28:46.593Z</time></trkpt><trkpt lat="46.1077633" lon="13.5956933"><ele>283.0</ele><time>2026-05-02T08:28:48.593Z</time></trkpt><trkpt lat="46.107855" lon="13.595775"><ele>278.0</ele><time>2026-05-02T08:28:50.594Z</time></trkpt><trkpt lat="46.107955" lon="13.59582"><ele>278.0</ele><time>2026-05-02T08:28:52.593Z</time></trkpt><trkpt lat="46.1080383" lon="13.5958433"><ele>278.0</ele><time>2026-05-02T08:28:54.593Z</time></trkpt><trkpt lat="46.1080917" lon="13.5959167"><ele>278.0</ele><time>2026-05-02T08:28:56.593Z</time></trkpt><trkpt lat="46.10804" lon="13.5961333"><ele>278.0</ele><time>2026-05-02T08:29:30.596Z</time></trkpt><trkpt lat="46.1079783" lon="13.596105"><ele>278.0</ele><time>2026-05-02T08:29:32.595Z</time></trkpt><trkpt lat="46.1078283" lon="13.596095"><ele>278.0</ele><time>2026-05-02T08:29:38.594Z</time></trkpt><trkpt lat="46.1077483" lon="13.596065"><ele>278.0</ele><time>2026-05-02T08:29:40.594Z</time></trkpt><trkpt lat="46.1076683" lon="13.5960367"><ele>278.0</ele><time>2026-05-02T08:29:42.595Z</time></trkpt><trkpt lat="46.1075933" lon="13.59596"><ele>278.0</ele><time>2026-05-02T08:29:44.595Z</time></trkpt><trkpt lat="46.107525" lon="13.5958467"><ele>278.0</ele><time>2026-05-02T08:29:46.594Z</time></trkpt><trkpt lat="46.107455" lon="13.5957167"><ele>278.33333333333337</ele><time>2026-05-02T08:29:48.594Z</time></trkpt><trkpt lat="46.1073817" lon="13.5955833"><ele>278.6666666666667</ele><time>2026-05-02T08:29:50.594Z</time></trkpt><trkpt lat="46.1073283" lon="13.5955083"><ele>279.0</ele><time>2026-05-02T08:29:51.594Z</time></trkpt><trkpt lat="46.107275" lon="13.59543"><ele>279.3333333333333</ele><time>2026-05-02T08:29:52.594Z</time></trkpt><trkpt lat="46.1072317" lon="13.5953583"><ele>279.66666666666663</ele><time>2026-05-02T08:29:53.595Z</time></trkpt><trkpt lat="46.1071817" lon="13.5952967"><ele>280.0</ele><time>2026-05-02T08:29:54.594Z</time></trkpt><trkpt lat="46.1071233" lon="13.5952283"><ele>280.0</ele><time>2026-05-02T08:29:55.594Z</time></trkpt><trkpt lat="46.10703" lon="13.5951033"><ele>280.0</ele><time>2026-05-02T08:29:57.593Z</time></trkpt><trkpt lat="46.1069317" lon="13.5950083"><ele>280.0</ele><time>2026-05-02T08:29:59.594Z</time></trkpt><trkpt lat="46.10685" lon="13.59496"><ele>280.0</ele><time>2026-05-02T08:30:01.594Z</time></trkpt><trkpt lat="46.10677" lon="13.59492"><ele>280.0</ele><time>2026-05-02T08:30:04.593Z</time></trkpt><trkpt lat="46.1067083" lon="13.5948533"><ele>280.0</ele><time>2026-05-02T08:30:08.595Z</time></trkpt><trkpt lat="46.1066683" lon="13.5947533"><ele>280.0</ele><time>2026-05-02T08:30:10.595Z</time></trkpt><trkpt lat="46.1066433" lon="13.5946483"><ele>280.0</ele><time>2026-05-02T08:30:12.594Z</time></trkpt><trkpt lat="46.10661" lon="13.59455"><ele>280.0</ele><time>2026-05-02T08:30:15.594Z</time></trkpt><trkpt lat="46.1065683" lon="13.5944083"><ele>280.0</ele><time>2026-05-02T08:34:25.594Z</time></trkpt><trkpt lat="46.1065867" lon="13.5941767"><ele>278.66666666666663</ele><time>2026-05-02T08:35:28.593Z</time></trkpt><trkpt lat="46.1065617" lon="13.5942883"><ele>277.3333333333333</ele><time>2026-05-02T08:37:19.594Z</time></trkpt><trkpt lat="46.1064917" lon="13.594255"><ele>276.0</ele><time>2026-05-02T08:37:23.595Z</time></trkpt><trkpt lat="46.1064472" lon="13.59413"><ele>274.6666666666667</ele><time>2026-05-02T08:37:30.655Z</time></trkpt><trkpt lat="46.1064574" lon="13.5942586"><ele>273.33333333333337</ele><time>2026-05-02T08:39:17.674Z</time></trkpt><trkpt lat="46.106486" lon="13.5943423"><ele>272.0</ele><time>2026-05-02T08:44:02.639Z</time></trkpt><trkpt lat="46.1064691" lon="13.594432"><ele>271.99999999999994</ele><time>2026-05-02T08:44:07.655Z</time></trkpt><trkpt lat="46.1064997" lon="13.5945184"><ele>272.0</ele><time>2026-05-02T08:44:17.702Z</time></trkpt><trkpt lat="46.106441" lon="13.5945696"><ele>272.0</ele><time>2026-05-02T08:44:22.657Z</time></trkpt><trkpt lat="46.1064236" lon="13.5944787"><ele>272.0</ele><time>2026-05-02T08:44:59.636Z</time></trkpt><trkpt lat="46.1063708" lon="13.5943998"><ele>272.0</ele><time>2026-05-02T08:45:17.65Z</time></trkpt><trkpt lat="46.1064402" lon="13.5943788"><ele>271.99999999999994</ele><time>2026-05-02T08:45:35.666Z</time></trkpt><trkpt lat="46.1064867" lon="13.5943001"><ele>272.0</ele><time>2026-05-02T08:45:41.632Z</time></trkpt><trkpt lat="46.1065503" lon="13.5942531"><ele>272.0</ele><time>2026-05-02T08:45:48.671Z</time></trkpt><trkpt lat="46.1065981" lon="13.5943306"><ele>272.0</ele><time>2026-05-02T08:45:52.625Z</time></trkpt><trkpt lat="46.1066095" lon="13.5944296"><ele>272.0</ele><time>2026-05-02T08:45:57.648Z</time></trkpt><trkpt lat="46.1065827" lon="13.5945146"><ele>272.0</ele><time>2026-05-02T08:46:02.654Z</time></trkpt><trkpt lat="46.10659" lon="13.5944067"><ele>272.0</ele><time>2026-05-02T08:50:26.594Z</time></trkpt><trkpt lat="46.10654" lon="13.59431"><ele>272.0</ele><time>2026-05-02T08:50:28.595Z</time></trkpt><trkpt lat="46.10646" lon="13.5941983"><ele>272.0</ele><time>2026-05-02T08:50:30.593Z</time></trkpt><trkpt lat="46.10638" lon="13.5940833"><ele>272.0</ele><time>2026-05-02T08:50:32.594Z</time></trkpt><trkpt lat="46.1063067" lon="13.5939783"><ele>272.0</ele><time>2026-05-02T08:50:34.594Z</time></trkpt><trkpt lat="46.1062183" lon="13.593855"><ele>272.0</ele><time>2026-05-02T08:50:36.593Z</time></trkpt><trkpt lat="46.106145" lon="13.59381"><ele>272.0</ele><time>2026-05-02T08:50:37.596Z</time></trkpt><trkpt lat="46.10605" lon="13.5937833"><ele>272.0</ele><time>2026-05-02T08:50:38.594Z</time></trkpt><trkpt lat="46.1059483" lon="13.593745"><ele>272.0</ele><time>2026-05-02T08:50:39.594Z</time></trkpt><trkpt lat="46.1058383" lon="13.59369"><ele>272.0</ele><time>2026-05-02T08:50:40.594Z</time></trkpt><trkpt lat="46.1057267" lon="13.5936217"><ele>272.0</ele><time>2026-05-02T08:50:41.596Z</time></trkpt><trkpt lat="46.1056183" lon="13.5935383"><ele>271.6</ele><time>2026-05-02T08:50:42.594Z</time></trkpt><trkpt lat="46.1055133" lon="13.59345"><ele>271.2</ele><time>2026-05-02T08:50:43.593Z</time></trkpt><trkpt lat="46.10542" lon="13.5933633"><ele>270.8</ele><time>2026-05-02T08:50:44.594Z</time></trkpt><trkpt lat="46.10533" lon="13.5932833"><ele>270.4</ele><time>2026-05-02T08:50:45.593Z</time></trkpt><trkpt lat="46.105245" lon="13.5932033"><ele>270.0</ele><time>2026-05-02T08:50:46.593Z</time></trkpt><trkpt lat="46.1051667" lon="13.59312"><ele>270.0</ele><time>2026-05-02T08:50:47.594Z</time></trkpt><trkpt lat="46.1050883" lon="13.593045"><ele>270.0</ele><time>2026-05-02T08:50:48.593Z</time></trkpt><trkpt lat="46.10502" lon="13.5929667"><ele>270.0</ele><time>2026-05-02T08:50:49.593Z</time></trkpt><trkpt lat="46.104955" lon="13.592885"><ele>270.0</ele><time>2026-05-02T08:50:50.593Z</time></trkpt><trkpt lat="46.104895" lon="13.5927983"><ele>270.0</ele><time>2026-05-02T08:50:51.592Z</time></trkpt><trkpt lat="46.10484" lon="13.5927083"><ele>270.0</ele><time>2026-05-02T08:50:52.593Z</time></trkpt><trkpt lat="46.1047917" lon="13.5926183"><ele>268.3333333333333</ele><time>2026-05-02T08:50:53.593Z</time></trkpt><trkpt lat="46.10474" lon="13.592535"><ele>266.6666666666667</ele><time>2026-05-02T08:50:54.592Z</time></trkpt><trkpt lat="46.1046917" lon="13.5924433"><ele>265.0</ele><time>2026-05-02T08:50:55.593Z</time></trkpt><trkpt lat="46.104645" lon="13.5923483"><ele>263.33333333333337</ele><time>2026-05-02T08:50:56.594Z</time></trkpt><trkpt lat="46.1045883" lon="13.5922667"><ele>261.6666666666667</ele><time>2026-05-02T08:50:57.594Z</time></trkpt><trkpt lat="46.1045217" lon="13.5922"><ele>260.0</ele><time>2026-05-02T08:50:58.593Z</time></trkpt><trkpt lat="46.1044717" lon="13.5921183"><ele>260.0</ele><time>2026-05-02T08:50:59.594Z</time></trkpt><trkpt lat="46.1044333" lon="13.59203"><ele>260.0</ele><time>2026-05-02T08:51:00.592Z</time></trkpt><trkpt lat="46.104385" lon="13.5919467"><ele>260.0</ele><time>2026-05-02T08:51:01.593Z</time></trkpt><trkpt lat="46.1043383" lon="13.5918567"><ele>260.0</ele><time>2026-05-02T08:51:02.594Z</time></trkpt><trkpt lat="46.1042917" lon="13.5917683"><ele>260.0</ele><time>2026-05-02T08:51:03.592Z</time></trkpt><trkpt lat="46.1042517" lon="13.5916767"><ele>260.0</ele><time>2026-05-02T08:51:04.592Z</time></trkpt><trkpt lat="46.10421" lon="13.5915867"><ele>258.5</ele><time>2026-05-02T08:51:05.594Z</time></trkpt><trkpt lat="46.10418" lon="13.5914933"><ele>257.0</ele><time>2026-05-02T08:51:06.593Z</time></trkpt><trkpt lat="46.1041467" lon="13.591395"><ele>255.5</ele><time>2026-05-02T08:51:07.594Z</time></trkpt><trkpt lat="46.104115" lon="13.5912917"><ele>254.0</ele><time>2026-05-02T08:51:08.594Z</time></trkpt><trkpt lat="46.1040833" lon="13.591195"><ele>252.50000000000003</ele><time>2026-05-02T08:51:09.593Z</time></trkpt><trkpt lat="46.1040483" lon="13.5910967"><ele>251.0</ele><time>2026-05-02T08:51:10.594Z</time></trkpt><trkpt lat="46.10402" lon="13.5909967"><ele>251.00000000000003</ele><time>2026-05-02T08:51:11.595Z</time></trkpt><trkpt lat="46.1039933" lon="13.5909017"><ele>251.0</ele><time>2026-05-02T08:51:12.593Z</time></trkpt><trkpt lat="46.1039733" lon="13.5908083"><ele>251.0</ele><time>2026-05-02T08:51:13.593Z</time></trkpt><trkpt lat="46.1039417" lon="13.5907083"><ele>251.0</ele><time>2026-05-02T08:51:14.594Z</time></trkpt><trkpt lat="46.1038917" lon="13.5906"><ele>251.00000000000003</ele><time>2026-05-02T08:51:15.592Z</time></trkpt><trkpt lat="46.103845" lon="13.5904633"><ele>251.0</ele><time>2026-05-02T08:51:16.593Z</time></trkpt><trkpt lat="46.1037867" lon="13.5903233"><ele>254.20000000000002</ele><time>2026-05-02T08:51:17.593Z</time></trkpt><trkpt lat="46.1037183" lon="13.5901933"><ele>257.40000000000003</ele><time>2026-05-02T08:51:18.592Z</time></trkpt><trkpt lat="46.103645" lon="13.5900883"><ele>260.6</ele><time>2026-05-02T08:51:19.594Z</time></trkpt><trkpt lat="46.1035667" lon="13.5899883"><ele>263.8</ele><time>2026-05-02T08:51:20.598Z</time></trkpt><trkpt lat="46.1034967" lon="13.5898917"><ele>267.0</ele><time>2026-05-02T08:51:21.594Z</time></trkpt><trkpt lat="46.1034317" lon="13.589795"><ele>267.0</ele><time>2026-05-02T08:51:22.593Z</time></trkpt><trkpt lat="46.1033617" lon="13.5897067"><ele>267.0</ele><time>2026-05-02T08:51:23.593Z</time></trkpt><trkpt lat="46.1032917" lon="13.589615"><ele>267.0</ele><time>2026-05-02T08:51:24.594Z</time></trkpt><trkpt lat="46.1032183" lon="13.5895383"><ele>267.0</ele><time>2026-05-02T08:51:25.593Z</time></trkpt><trkpt lat="46.1031467" lon="13.5894633"><ele>267.0</ele><time>2026-05-02T08:51:26.593Z</time></trkpt><trkpt lat="46.1030683" lon="13.5893883"><ele>264.75</ele><time>2026-05-02T08:51:27.593Z</time></trkpt><trkpt lat="46.102975" lon="13.5893"><ele>262.5</ele><time>2026-05-02T08:51:28.596Z</time></trkpt><trkpt lat="46.102875" lon="13.5891983"><ele>260.25</ele><time>2026-05-02T08:51:29.593Z</time></trkpt><trkpt lat="46.1027667" lon="13.5890983"><ele>258.0</ele><time>2026-05-02T08:51:30.594Z</time></trkpt><trkpt lat="46.102645" lon="13.58902"><ele>258.0</ele><time>2026-05-02T08:51:31.594Z</time></trkpt><trkpt lat="46.1025183" lon="13.5889217"><ele>258.0</ele><time>2026-05-02T08:51:32.593Z</time></trkpt><trkpt lat="46.10241" lon="13.5888033"><ele>258.0</ele><time>2026-05-02T08:51:33.593Z</time></trkpt><trkpt lat="46.1023117" lon="13.58869"><ele>258.0</ele><time>2026-05-02T08:51:34.592Z</time></trkpt><trkpt lat="46.10223" lon="13.588585"><ele>254.66666666666666</ele><time>2026-05-02T08:51:35.593Z</time></trkpt><trkpt lat="46.102165" lon="13.5884783"><ele>251.33333333333331</ele><time>2026-05-02T08:51:36.595Z</time></trkpt><trkpt lat="46.10212" lon="13.588375"><ele>248.0</ele><time>2026-05-02T08:51:37.593Z</time></trkpt><trkpt lat="46.1021033" lon="13.5882683"><ele>244.66666666666666</ele><time>2026-05-02T08:51:38.593Z</time></trkpt><trkpt lat="46.1021167" lon="13.5881633"><ele>241.33333333333331</ele><time>2026-05-02T08:51:39.594Z</time></trkpt><trkpt lat="46.10215" lon="13.5880567"><ele>238.0</ele><time>2026-05-02T08:51:40.593Z</time></trkpt><trkpt lat="46.1022233" lon="13.5879417"><ele>238.4</ele><time>2026-05-02T08:51:41.594Z</time></trkpt><trkpt lat="46.10232" lon="13.5878217"><ele>238.8</ele><time>2026-05-02T08:51:42.593Z</time></trkpt><trkpt lat="46.1023933" lon="13.5877117"><ele>239.2</ele><time>2026-05-02T08:51:43.593Z</time></trkpt><trkpt lat="46.1024417" lon="13.5875917"><ele>239.6</ele><time>2026-05-02T08:51:44.594Z</time></trkpt><trkpt lat="46.1024633" lon="13.5874567"><ele>240.0</ele><time>2026-05-02T08:51:45.593Z</time></trkpt><trkpt lat="46.1024567" lon="13.587325"><ele>240.0</ele><time>2026-05-02T08:51:46.593Z</time></trkpt><trkpt lat="46.1024183" lon="13.587215"><ele>240.0</ele><time>2026-05-02T08:51:47.593Z</time></trkpt><trkpt lat="46.102365" lon="13.58713"><ele>240.0</ele><time>2026-05-02T08:51:48.593Z</time></trkpt><trkpt lat="46.10229" lon="13.58709"><ele>240.0</ele><time>2026-05-02T08:51:49.594Z</time></trkpt><trkpt lat="46.102205" lon="13.5871033"><ele>240.0</ele><time>2026-05-02T08:51:50.596Z</time></trkpt><trkpt lat="46.102125" lon="13.5871733"><ele>240.0</ele><time>2026-05-02T08:51:51.592Z</time></trkpt><trkpt lat="46.102055" lon="13.587295"><ele>240.0</ele><time>2026-05-02T08:51:52.594Z</time></trkpt><trkpt lat="46.10198" lon="13.5874483"><ele>240.0</ele><time>2026-05-02T08:51:53.593Z</time></trkpt><trkpt lat="46.101905" lon="13.5876067"><ele>240.0</ele><time>2026-05-02T08:51:54.593Z</time></trkpt><trkpt lat="46.1018333" lon="13.5877633"><ele>240.0</ele><time>2026-05-02T08:51:55.593Z</time></trkpt><trkpt lat="46.1017733" lon="13.587915"><ele>239.6</ele><time>2026-05-02T08:51:56.594Z</time></trkpt><trkpt lat="46.1017317" lon="13.58807"><ele>239.2</ele><time>2026-05-02T08:51:57.593Z</time></trkpt><trkpt lat="46.1017117" lon="13.588215"><ele>238.8</ele><time>2026-05-02T08:51:58.593Z</time></trkpt><trkpt lat="46.101705" lon="13.58834"><ele>238.4</ele><time>2026-05-02T08:51:59.593Z</time></trkpt><trkpt lat="46.1017017" lon="13.5884367"><ele>238.0</ele><time>2026-05-02T08:52:00.594Z</time></trkpt><trkpt lat="46.101705" lon="13.58855"><ele>237.99999999999997</ele><time>2026-05-02T08:52:02.593Z</time></trkpt><trkpt lat="46.1017217" lon="13.58866"><ele>238.0</ele><time>2026-05-02T08:52:04.594Z</time></trkpt><trkpt lat="46.10181" lon="13.5888017"><ele>238.0</ele><time>2026-05-02T08:52:06.593Z</time></trkpt><trkpt lat="46.1018633" lon="13.5888717"><ele>238.0</ele><time>2026-05-02T08:52:07.593Z</time></trkpt><trkpt lat="46.1019233" lon="13.5889283"><ele>237.99999999999997</ele><time>2026-05-02T08:52:08.593Z</time></trkpt><trkpt lat="46.1019883" lon="13.5889933"><ele>238.0</ele><time>2026-05-02T08:52:09.592Z</time></trkpt><trkpt lat="46.102065" lon="13.58903"><ele>237.33333333333331</ele><time>2026-05-02T08:52:10.592Z</time></trkpt><trkpt lat="46.1021383" lon="13.589085"><ele>236.66666666666666</ele><time>2026-05-02T08:52:11.593Z</time></trkpt><trkpt lat="46.10221" lon="13.5891417"><ele>236.0</ele><time>2026-05-02T08:52:12.593Z</time></trkpt><trkpt lat="46.1022817" lon="13.5891783"><ele>235.33333333333331</ele><time>2026-05-02T08:52:13.594Z</time></trkpt><trkpt lat="46.1023433" lon="13.58924"><ele>234.66666666666666</ele><time>2026-05-02T08:52:14.593Z</time></trkpt><trkpt lat="46.10241" lon="13.5893083"><ele>234.0</ele><time>2026-05-02T08:52:15.593Z</time></trkpt><trkpt lat="46.1024883" lon="13.5893783"><ele>235.25</ele><time>2026-05-02T08:52:16.594Z</time></trkpt><trkpt lat="46.102585" lon="13.5894833"><ele>236.5</ele><time>2026-05-02T08:52:17.594Z</time></trkpt><trkpt lat="46.10269" lon="13.589605"><ele>237.75</ele><time>2026-05-02T08:52:18.593Z</time></trkpt><trkpt lat="46.102805" lon="13.5897367"><ele>239.0</ele><time>2026-05-02T08:52:19.593Z</time></trkpt><trkpt lat="46.1029117" lon="13.58989"><ele>239.0</ele><time>2026-05-02T08:52:20.594Z</time></trkpt><trkpt lat="46.1030233" lon="13.5900383"><ele>239.0</ele><time>2026-05-02T08:52:21.593Z</time></trkpt><trkpt lat="46.1031283" lon="13.5901933"><ele>239.0</ele><time>2026-05-02T08:52:22.593Z</time></trkpt><trkpt lat="46.1032167" lon="13.5903517"><ele>239.0</ele><time>2026-05-02T08:52:23.594Z</time></trkpt><trkpt lat="46.1033017" lon="13.5905017"><ele>240.0</ele><time>2026-05-02T08:52:24.594Z</time></trkpt><trkpt lat="46.1033817" lon="13.5906683"><ele>241.0</ele><time>2026-05-02T08:52:25.593Z</time></trkpt><trkpt lat="46.1034467" lon="13.59084"><ele>242.0</ele><time>2026-05-02T08:52:26.597Z</time></trkpt><trkpt lat="46.1035217" lon="13.5910067"><ele>243.0</ele><time>2026-05-02T08:52:27.593Z</time></trkpt><trkpt lat="46.1035683" lon="13.5911783"><ele>243.0</ele><time>2026-05-02T08:52:28.593Z</time></trkpt><trkpt lat="46.103635" lon="13.5913433"><ele>243.0</ele><time>2026-05-02T08:52:29.594Z</time></trkpt><trkpt lat="46.1037033" lon="13.5915317"><ele>243.0</ele><time>2026-05-02T08:52:30.595Z</time></trkpt><trkpt lat="46.1037667" lon="13.5917283"><ele>243.0</ele><time>2026-05-02T08:52:31.595Z</time></trkpt><trkpt lat="46.1038367" lon="13.5919167"><ele>242.75</ele><time>2026-05-02T08:52:32.594Z</time></trkpt><trkpt lat="46.1039067" lon="13.5920817"><ele>242.5</ele><time>2026-05-02T08:52:33.593Z</time></trkpt><trkpt lat="46.104005" lon="13.5922333"><ele>242.25</ele><time>2026-05-02T08:52:34.594Z</time></trkpt><trkpt lat="46.1041" lon="13.59239"><ele>242.0</ele><time>2026-05-02T08:52:35.595Z</time></trkpt><trkpt lat="46.1041833" lon="13.5925733"><ele>242.0</ele><time>2026-05-02T08:52:36.594Z</time></trkpt><trkpt lat="46.104305" lon="13.59275"><ele>242.0</ele><time>2026-05-02T08:52:37.594Z</time></trkpt><trkpt lat="46.104425" lon="13.59295"><ele>242.0</ele><time>2026-05-02T08:52:38.595Z</time></trkpt><trkpt lat="46.10455" lon="13.5931517"><ele>242.0</ele><time>2026-05-02T08:52:39.595Z</time></trkpt><trkpt lat="46.10466" lon="13.5933667"><ele>242.0</ele><time>2026-05-02T08:52:40.594Z</time></trkpt><trkpt lat="46.104765" lon="13.593565"><ele>242.0</ele><time>2026-05-02T08:52:41.593Z</time></trkpt><trkpt lat="46.104885" lon="13.5937383"><ele>244.0</ele><time>2026-05-02T08:52:42.594Z</time></trkpt><trkpt lat="46.10502" lon="13.593895"><ele>246.0</ele><time>2026-05-02T08:52:43.595Z</time></trkpt><trkpt lat="46.1051333" lon="13.5940733"><ele>248.0</ele><time>2026-05-02T08:52:44.595Z</time></trkpt><trkpt lat="46.1052417" lon="13.5942533"><ele>248.0</ele><time>2026-05-02T08:52:45.594Z</time></trkpt><trkpt lat="46.10533" lon="13.5944817"><ele>248.0</ele><time>2026-05-02T08:52:46.595Z</time></trkpt><trkpt lat="46.1054133" lon="13.5947117"><ele>248.0</ele><time>2026-05-02T08:52:47.594Z</time></trkpt><trkpt lat="46.105495" lon="13.594925"><ele>246.0</ele><time>2026-05-02T08:52:48.594Z</time></trkpt><trkpt lat="46.1055517" lon="13.5951267"><ele>244.0</ele><time>2026-05-02T08:52:49.595Z</time></trkpt><trkpt lat="46.1055933" lon="13.59532"><ele>242.0</ele><time>2026-05-02T08:52:50.593Z</time></trkpt><trkpt lat="46.1056367" lon="13.5955133"><ele>240.0</ele><time>2026-05-02T08:52:51.593Z</time></trkpt><trkpt lat="46.1057083" lon="13.5956767"><ele>242.25</ele><time>2026-05-02T08:52:52.593Z</time></trkpt><trkpt lat="46.1057933" lon="13.5958083"><ele>244.5</ele><time>2026-05-02T08:52:53.595Z</time></trkpt><trkpt lat="46.1058817" lon="13.5959183"><ele>246.75</ele><time>2026-05-02T08:52:54.595Z</time></trkpt><trkpt lat="46.1059767" lon="13.5959833"><ele>249.0</ele><time>2026-05-02T08:52:55.595Z</time></trkpt><trkpt lat="46.1060783" lon="13.5960233"><ele>249.0</ele><time>2026-05-02T08:52:56.594Z</time></trkpt><trkpt lat="46.10618" lon="13.5960483"><ele>248.99999999999997</ele><time>2026-05-02T08:52:57.593Z</time></trkpt><trkpt lat="46.1062817" lon="13.59608"><ele>248.99999999999997</ele><time>2026-05-02T08:52:58.595Z</time></trkpt><trkpt lat="46.106385" lon="13.5961183"><ele>249.0</ele><time>2026-05-02T08:52:59.594Z</time></trkpt><trkpt lat="46.1064833" lon="13.5961483"><ele>249.0</ele><time>2026-05-02T08:53:00.594Z</time></trkpt><trkpt lat="46.1065833" lon="13.5961483"><ele>248.0</ele><time>2026-05-02T08:53:01.593Z</time></trkpt><trkpt lat="46.106685" lon="13.596135"><ele>246.99999999999997</ele><time>2026-05-02T08:53:02.594Z</time></trkpt><trkpt lat="46.1067683" lon="13.5961217"><ele>245.99999999999997</ele><time>2026-05-02T08:53:03.594Z</time></trkpt><trkpt lat="46.1068467" lon="13.5961333"><ele>245.0</ele><time>2026-05-02T08:53:04.594Z</time></trkpt><trkpt lat="46.1069283" lon="13.5961483"><ele>244.0</ele><time>2026-05-02T08:53:05.595Z</time></trkpt><trkpt lat="46.1070317" lon="13.5962467"><ele>244.0</ele><time>2026-05-02T08:53:06.595Z</time></trkpt><trkpt lat="46.1071617" lon="13.5963583"><ele>244.0</ele><time>2026-05-02T08:53:07.594Z</time></trkpt><trkpt lat="46.1072883" lon="13.5964667"><ele>244.0</ele><time>2026-05-02T08:53:08.596Z</time></trkpt><trkpt lat="46.10741" lon="13.596565"><ele>244.0</ele><time>2026-05-02T08:53:09.594Z</time></trkpt><trkpt lat="46.1075267" lon="13.5966367"><ele>243.5</ele><time>2026-05-02T08:53:10.594Z</time></trkpt><trkpt lat="46.1076317" lon="13.5967083"><ele>243.0</ele><time>2026-05-02T08:53:11.594Z</time></trkpt><trkpt lat="46.1077217" lon="13.5968083"><ele>242.5</ele><time>2026-05-02T08:53:12.594Z</time></trkpt><trkpt lat="46.1078067" lon="13.5969217"><ele>242.0</ele><time>2026-05-02T08:53:13.595Z</time></trkpt><trkpt lat="46.1079033" lon="13.5970317"><ele>242.0</ele><time>2026-05-02T08:53:14.595Z</time></trkpt><trkpt lat="46.10802" lon="13.5971417"><ele>242.0</ele><time>2026-05-02T08:53:15.594Z</time></trkpt><trkpt lat="46.1081483" lon="13.5972517"><ele>242.0</ele><time>2026-05-02T08:53:16.593Z</time></trkpt><trkpt lat="46.1082767" lon="13.5973533"><ele>242.0</ele><time>2026-05-02T08:53:17.596Z</time></trkpt><trkpt lat="46.1083983" lon="13.5974567"><ele>243.25</ele><time>2026-05-02T08:53:18.593Z</time></trkpt><trkpt lat="46.1085017" lon="13.5975567"><ele>244.5</ele><time>2026-05-02T08:53:19.595Z</time></trkpt><trkpt lat="46.1085783" lon="13.5976767"><ele>245.75</ele><time>2026-05-02T08:53:20.596Z</time></trkpt><trkpt lat="46.1086367" lon="13.59782"><ele>247.0</ele><time>2026-05-02T08:53:21.593Z</time></trkpt><trkpt lat="46.1086833" lon="13.5979983"><ele>247.0</ele><time>2026-05-02T08:53:22.593Z</time></trkpt><trkpt lat="46.1087233" lon="13.5981967"><ele>247.0</ele><time>2026-05-02T08:53:23.595Z</time></trkpt><trkpt lat="46.1087867" lon="13.5983933"><ele>247.0</ele><time>2026-05-02T08:53:24.594Z</time></trkpt><trkpt lat="46.1088733" lon="13.5985933"><ele>245.0</ele><time>2026-05-02T08:53:25.596Z</time></trkpt><trkpt lat="46.1089717" lon="13.598785"><ele>243.0</ele><time>2026-05-02T08:53:26.595Z</time></trkpt><trkpt lat="46.1090717" lon="13.598955"><ele>241.0</ele><time>2026-05-02T08:53:27.594Z</time></trkpt><trkpt lat="46.10916" lon="13.5991033"><ele>245.25</ele><time>2026-05-02T08:53:28.594Z</time></trkpt><trkpt lat="46.1092433" lon="13.5992317"><ele>249.5</ele><time>2026-05-02T08:53:29.596Z</time></trkpt><trkpt lat="46.1093267" lon="13.59933"><ele>253.75</ele><time>2026-05-02T08:53:30.594Z</time></trkpt><trkpt lat="46.109425" lon="13.5993783"><ele>258.0</ele><time>2026-05-02T08:53:31.596Z</time></trkpt><trkpt lat="46.1095417" lon="13.5994017"><ele>258.0</ele><time>2026-05-02T08:53:32.595Z</time></trkpt><trkpt lat="46.1096683" lon="13.599395"><ele>258.0</ele><time>2026-05-02T08:53:33.593Z</time></trkpt><trkpt lat="46.1098" lon="13.59938"><ele>258.0</ele><time>2026-05-02T08:53:34.592Z</time></trkpt><trkpt lat="46.1099233" lon="13.599355"><ele>258.0</ele><time>2026-05-02T08:53:35.595Z</time></trkpt><trkpt lat="46.1100317" lon="13.5993067"><ele>259.8</ele><time>2026-05-02T08:53:36.594Z</time></trkpt><trkpt lat="46.1101183" lon="13.599265"><ele>261.6</ele><time>2026-05-02T08:53:37.595Z</time></trkpt><trkpt lat="46.1102083" lon="13.5992433"><ele>263.4</ele><time>2026-05-02T08:53:38.594Z</time></trkpt><trkpt lat="46.1103133" lon="13.5992517"><ele>265.2</ele><time>2026-05-02T08:53:39.595Z</time></trkpt><trkpt lat="46.1104433" lon="13.5992717"><ele>267.0</ele><time>2026-05-02T08:53:40.594Z</time></trkpt><trkpt lat="46.110585" lon="13.59929"><ele>267.0</ele><time>2026-05-02T08:53:41.594Z</time></trkpt><trkpt lat="46.110725" lon="13.5993233"><ele>267.0</ele><time>2026-05-02T08:53:42.594Z</time></trkpt><trkpt lat="46.1108717" lon="13.5993617"><ele>267.0</ele><time>2026-05-02T08:53:43.593Z</time></trkpt><trkpt lat="46.111015" lon="13.59942"><ele>267.0</ele><time>2026-05-02T08:53:44.594Z</time></trkpt><trkpt lat="46.11115" lon="13.5994967"><ele>268.6666666666667</ele><time>2026-05-02T08:53:45.593Z</time></trkpt><trkpt lat="46.1112883" lon="13.5995817"><ele>270.33333333333337</ele><time>2026-05-02T08:53:46.593Z</time></trkpt><trkpt lat="46.11144" lon="13.5996933"><ele>272.0</ele><time>2026-05-02T08:53:47.593Z</time></trkpt><trkpt lat="46.111595" lon="13.599815"><ele>272.0</ele><time>2026-05-02T08:53:48.594Z</time></trkpt><trkpt lat="46.1117483" lon="13.5999567"><ele>272.0</ele><time>2026-05-02T08:53:49.594Z</time></trkpt><trkpt lat="46.1119033" lon="13.6000767"><ele>272.0</ele><time>2026-05-02T08:53:50.595Z</time></trkpt><trkpt lat="46.1120483" lon="13.60018"><ele>272.0</ele><time>2026-05-02T08:53:51.592Z</time></trkpt><trkpt lat="46.1121883" lon="13.6002483"><ele>272.0</ele><time>2026-05-02T08:53:52.597Z</time></trkpt><trkpt lat="46.1123267" lon="13.6002867"><ele>272.0</ele><time>2026-05-02T08:53:53.6Z</time></trkpt><trkpt lat="46.112445" lon="13.6003267"><ele>272.0</ele><time>2026-05-02T08:53:54.594Z</time></trkpt><trkpt lat="46.1125317" lon="13.600385"><ele>271.0</ele><time>2026-05-02T08:53:55.593Z</time></trkpt><trkpt lat="46.1125983" lon="13.6004517"><ele>270.0</ele><time>2026-05-02T08:53:56.593Z</time></trkpt><trkpt lat="46.112635" lon="13.6005567"><ele>269.0</ele><time>2026-05-02T08:53:57.594Z</time></trkpt><trkpt lat="46.11266" lon="13.600685"><ele>268.0</ele><time>2026-05-02T08:53:58.593Z</time></trkpt><trkpt lat="46.1127167" lon="13.6007933"><ele>267.0</ele><time>2026-05-02T08:53:59.594Z</time></trkpt><trkpt lat="46.1127883" lon="13.600895"><ele>267.0</ele><time>2026-05-02T08:54:00.594Z</time></trkpt><trkpt lat="46.1128867" lon="13.6009767"><ele>267.0</ele><time>2026-05-02T08:54:01.594Z</time></trkpt><trkpt lat="46.1129733" lon="13.601065"><ele>267.0</ele><time>2026-05-02T08:54:02.594Z</time></trkpt><trkpt lat="46.1130533" lon="13.6011483"><ele>267.0</ele><time>2026-05-02T08:54:03.594Z</time></trkpt><trkpt lat="46.1131233" lon="13.60125"><ele>267.0</ele><time>2026-05-02T08:54:04.593Z</time></trkpt><trkpt lat="46.1131683" lon="13.60137"><ele>267.5</ele><time>2026-05-02T08:54:05.594Z</time></trkpt><trkpt lat="46.1132067" lon="13.6014783"><ele>268.0</ele><time>2026-05-02T08:54:06.594Z</time></trkpt><trkpt lat="46.11328" lon="13.6015383"><ele>268.5</ele><time>2026-05-02T08:54:07.594Z</time></trkpt><trkpt lat="46.1133667" lon="13.60159"><ele>269.0</ele><time>2026-05-02T08:54:08.595Z</time></trkpt><trkpt lat="46.1134433" lon="13.6016583"><ele>269.5</ele><time>2026-05-02T08:54:09.593Z</time></trkpt><trkpt lat="46.1135167" lon="13.6017433"><ele>270.0</ele><time>2026-05-02T08:54:10.594Z</time></trkpt><trkpt lat="46.11359" lon="13.601855"><ele>268.5</ele><time>2026-05-02T08:54:11.593Z</time></trkpt><trkpt lat="46.113655" lon="13.60202"><ele>267.0</ele><time>2026-05-02T08:54:12.593Z</time></trkpt><trkpt lat="46.113735" lon="13.602195"><ele>265.5</ele><time>2026-05-02T08:54:13.594Z</time></trkpt><trkpt lat="46.11382" lon="13.6023833"><ele>264.0</ele><time>2026-05-02T08:54:14.594Z</time></trkpt><trkpt lat="46.1138983" lon="13.60257"><ele>264.0</ele><time>2026-05-02T08:54:15.594Z</time></trkpt><trkpt lat="46.11397" lon="13.6027417"><ele>264.0</ele><time>2026-05-02T08:54:16.594Z</time></trkpt><trkpt lat="46.114015" lon="13.6029217"><ele>264.0</ele><time>2026-05-02T08:54:17.595Z</time></trkpt><trkpt lat="46.114035" lon="13.6031083"><ele>264.0</ele><time>2026-05-02T08:54:18.593Z</time></trkpt><trkpt lat="46.1140533" lon="13.60327"><ele>264.6666666666667</ele><time>2026-05-02T08:54:19.594Z</time></trkpt><trkpt lat="46.1140733" lon="13.6034017"><ele>265.3333333333333</ele><time>2026-05-02T08:54:20.594Z</time></trkpt><trkpt lat="46.11409" lon="13.60352"><ele>266.0</ele><time>2026-05-02T08:54:21.593Z</time></trkpt><trkpt lat="46.1141083" lon="13.6036283"><ele>266.66666666666663</ele><time>2026-05-02T08:54:22.594Z</time></trkpt><trkpt lat="46.1141417" lon="13.603725"><ele>267.3333333333333</ele><time>2026-05-02T08:54:23.594Z</time></trkpt><trkpt lat="46.1142067" lon="13.6038083"><ele>268.0</ele><time>2026-05-02T08:54:24.593Z</time></trkpt><trkpt lat="46.1142783" lon="13.6039233"><ele>268.0</ele><time>2026-05-02T08:54:25.594Z</time></trkpt><trkpt lat="46.1143383" lon="13.6040433"><ele>268.0</ele><time>2026-05-02T08:54:26.594Z</time></trkpt><trkpt lat="46.1143933" lon="13.60415"><ele>268.0</ele><time>2026-05-02T08:54:27.595Z</time></trkpt><trkpt lat="46.1144567" lon="13.6042383"><ele>268.0</ele><time>2026-05-02T08:54:28.594Z</time></trkpt><trkpt lat="46.11453" lon="13.604305"><ele>268.0</ele><time>2026-05-02T08:54:29.594Z</time></trkpt><trkpt lat="46.1146033" lon="13.604355"><ele>268.0</ele><time>2026-05-02T08:54:30.593Z</time></trkpt><trkpt lat="46.1146817" lon="13.604385"><ele>268.0</ele><time>2026-05-02T08:54:31.594Z</time></trkpt><trkpt lat="46.11476" lon="13.6044017"><ele>268.0</ele><time>2026-05-02T08:54:32.593Z</time></trkpt><trkpt lat="46.1148267" lon="13.6044083"><ele>268.0</ele><time>2026-05-02T08:54:33.594Z</time></trkpt><trkpt lat="46.1149117" lon="13.604365"><ele>268.0</ele><time>2026-05-02T08:54:35.593Z</time></trkpt><trkpt lat="46.1148917" lon="13.6042367"><ele>268.0</ele><time>2026-05-02T08:54:37.594Z</time></trkpt><trkpt lat="46.1148567" lon="13.6041383"><ele>268.0</ele><time>2026-05-02T08:54:38.593Z</time></trkpt><trkpt lat="46.1148383" lon="13.604035"><ele>268.0</ele><time>2026-05-02T08:54:39.593Z</time></trkpt><trkpt lat="46.1148333" lon="13.6039417"><ele>268.0</ele><time>2026-05-02T08:54:40.593Z</time></trkpt><trkpt lat="46.114845" lon="13.60376"><ele>268.0</ele><time>2026-05-02T08:54:42.593Z</time></trkpt><trkpt lat="46.1148483" lon="13.6036567"><ele>268.0</ele><time>2026-05-02T08:54:43.593Z</time></trkpt><trkpt lat="46.114845" lon="13.6035517"><ele>268.0</ele><time>2026-05-02T08:54:44.595Z</time></trkpt><trkpt lat="46.11484" lon="13.6034017"><ele>269.16666666666663</ele><time>2026-05-02T08:54:46.594Z</time></trkpt><trkpt lat="46.1148717" lon="13.60332"><ele>270.3333333333333</ele><time>2026-05-02T08:54:48.595Z</time></trkpt><trkpt lat="46.1149317" lon="13.6032917"><ele>271.5</ele><time>2026-05-02T08:54:50.594Z</time></trkpt><trkpt lat="46.1149783" lon="13.60338"><ele>272.6666666666667</ele><time>2026-05-02T08:54:52.593Z</time></trkpt><trkpt lat="46.1150133" lon="13.60355"><ele>273.83333333333337</ele><time>2026-05-02T08:54:54.595Z</time></trkpt><trkpt lat="46.1150417" lon="13.6036617"><ele>275.0</ele><time>2026-05-02T08:54:55.594Z</time></trkpt><trkpt lat="46.115085" lon="13.603775"><ele>277.2</ele><time>2026-05-02T08:54:56.593Z</time></trkpt><trkpt lat="46.1151317" lon="13.6038867"><ele>279.4</ele><time>2026-05-02T08:54:57.593Z</time></trkpt><trkpt lat="46.11518" lon="13.6039917"><ele>281.6</ele><time>2026-05-02T08:54:58.595Z</time></trkpt><trkpt lat="46.1152367" lon="13.60409"><ele>283.8</ele><time>2026-05-02T08:54:59.594Z</time></trkpt><trkpt lat="46.1153017" lon="13.6041783"><ele>286.0</ele><time>2026-05-02T08:55:00.593Z</time></trkpt><trkpt lat="46.11538" lon="13.6042633"><ele>286.0</ele><time>2026-05-02T08:55:01.595Z</time></trkpt><trkpt lat="46.115465" lon="13.6043633"><ele>286.0</ele><time>2026-05-02T08:55:02.594Z</time></trkpt><trkpt lat="46.1155333" lon="13.604455"><ele>286.0</ele><time>2026-05-02T08:55:03.594Z</time></trkpt><trkpt lat="46.1155983" lon="13.60454"><ele>286.0</ele><time>2026-05-02T08:55:04.594Z</time></trkpt><trkpt lat="46.1156517" lon="13.6046033"><ele>286.0</ele><time>2026-05-02T08:55:05.593Z</time></trkpt><trkpt lat="46.1157483" lon="13.6046933"><ele>291.2</ele><time>2026-05-02T08:55:07.594Z</time></trkpt><trkpt lat="46.1158533" lon="13.6047333"><ele>296.40000000000003</ele><time>2026-05-02T08:55:09.594Z</time></trkpt><trkpt lat="46.115945" lon="13.6046917"><ele>301.6</ele><time>2026-05-02T08:55:11.595Z</time></trkpt><trkpt lat="46.1160583" lon="13.6046167"><ele>306.8</ele><time>2026-05-02T08:55:13.594Z</time></trkpt><trkpt lat="46.1161233" lon="13.60459"><ele>312.0</ele><time>2026-05-02T08:55:14.595Z</time></trkpt><trkpt lat="46.1162383" lon="13.604565"><ele>312.0</ele><time>2026-05-02T08:55:16.594Z</time></trkpt><trkpt lat="46.1163383" lon="13.6045567"><ele>312.0</ele><time>2026-05-02T08:55:18.594Z</time></trkpt><trkpt lat="46.11644" lon="13.604555"><ele>312.0</ele><time>2026-05-02T08:55:20.595Z</time></trkpt><trkpt lat="46.116555" lon="13.60455"><ele>312.0</ele><time>2026-05-02T08:55:22.596Z</time></trkpt><trkpt lat="46.1166583" lon="13.6045683"><ele>312.0</ele><time>2026-05-02T08:55:24.595Z</time></trkpt><trkpt lat="46.1167183" lon="13.604685"><ele>314.5</ele><time>2026-05-02T08:55:26.595Z</time></trkpt><trkpt lat="46.1167633" lon="13.6047583"><ele>317.0</ele><time>2026-05-02T08:55:28.594Z</time></trkpt><trkpt lat="46.1167733" lon="13.6048717"><ele>319.5</ele><time>2026-05-02T08:55:30.595Z</time></trkpt><trkpt lat="46.11674" lon="13.605045"><ele>322.0</ele><time>2026-05-02T08:55:32.595Z</time></trkpt><trkpt lat="46.1167317" lon="13.60514"><ele>324.5</ele><time>2026-05-02T08:55:33.595Z</time></trkpt><trkpt lat="46.1167333" lon="13.6052317"><ele>327.0</ele><time>2026-05-02T08:55:34.595Z</time></trkpt><trkpt lat="46.1167433" lon="13.6053317"><ele>327.0</ele><time>2026-05-02T08:55:35.595Z</time></trkpt><trkpt lat="46.1167617" lon="13.60544"><ele>327.0</ele><time>2026-05-02T08:55:36.594Z</time></trkpt><trkpt lat="46.116785" lon="13.6055467"><ele>327.0</ele><time>2026-05-02T08:55:37.595Z</time></trkpt><trkpt lat="46.116805" lon="13.60565"><ele>327.0</ele><time>2026-05-02T08:55:38.595Z</time></trkpt><trkpt lat="46.1168867" lon="13.605795"><ele>327.0</ele><time>2026-05-02T08:55:40.594Z</time></trkpt><trkpt lat="46.1169233" lon="13.60588"><ele>327.0</ele><time>2026-05-02T08:55:41.595Z</time></trkpt><trkpt lat="46.11696" lon="13.6059867"><ele>327.0</ele><time>2026-05-02T08:55:42.594Z</time></trkpt><trkpt lat="46.116995" lon="13.606085"><ele>327.0</ele><time>2026-05-02T08:55:43.596Z</time></trkpt><trkpt lat="46.1170233" lon="13.6061833"><ele>327.0</ele><time>2026-05-02T08:55:44.595Z</time></trkpt><trkpt lat="46.1170383" lon="13.6062983"><ele>327.0</ele><time>2026-05-02T08:55:45.596Z</time></trkpt><trkpt lat="46.1170533" lon="13.6064017"><ele>327.0</ele><time>2026-05-02T08:55:46.594Z</time></trkpt><trkpt lat="46.11707" lon="13.60654"><ele>327.0</ele><time>2026-05-02T08:55:48.596Z</time></trkpt><trkpt lat="46.1171517" lon="13.606665"><ele>327.1666666666667</ele><time>2026-05-02T08:55:50.596Z</time></trkpt><trkpt lat="46.117205" lon="13.606745"><ele>327.3333333333333</ele><time>2026-05-02T08:55:51.594Z</time></trkpt><trkpt lat="46.1172517" lon="13.6068383"><ele>327.5</ele><time>2026-05-02T08:55:52.594Z</time></trkpt><trkpt lat="46.11731" lon="13.6069333"><ele>327.66666666666663</ele><time>2026-05-02T08:55:53.595Z</time></trkpt><trkpt lat="46.1173517" lon="13.607015"><ele>327.8333333333333</ele><time>2026-05-02T08:55:54.595Z</time></trkpt><trkpt lat="46.1174" lon="13.6070867"><ele>328.0</ele><time>2026-05-02T08:55:55.594Z</time></trkpt><trkpt lat="46.1174483" lon="13.607165"><ele>328.0</ele><time>2026-05-02T08:55:56.595Z</time></trkpt><trkpt lat="46.117495" lon="13.607255"><ele>328.0</ele><time>2026-05-02T08:55:57.594Z</time></trkpt><trkpt lat="46.1175417" lon="13.60735"><ele>328.0</ele><time>2026-05-02T08:55:58.594Z</time></trkpt><trkpt lat="46.1175817" lon="13.6074467"><ele>328.0</ele><time>2026-05-02T08:55:59.594Z</time></trkpt><trkpt lat="46.117625" lon="13.6075233"><ele>328.0</ele><time>2026-05-02T08:56:00.595Z</time></trkpt><trkpt lat="46.1176767" lon="13.6076133"><ele>328.0</ele><time>2026-05-02T08:56:01.596Z</time></trkpt><trkpt lat="46.11771" lon="13.6077167"><ele>328.0</ele><time>2026-05-02T08:56:02.594Z</time></trkpt><trkpt lat="46.117745" lon="13.6078067"><ele>328.0</ele><time>2026-05-02T08:56:03.595Z</time></trkpt><trkpt lat="46.11777" lon="13.6079017"><ele>328.0</ele><time>2026-05-02T08:56:04.596Z</time></trkpt><trkpt lat="46.1177983" lon="13.6080033"><ele>328.0</ele><time>2026-05-02T08:56:05.594Z</time></trkpt><trkpt lat="46.1178317" lon="13.6081167"><ele>328.0</ele><time>2026-05-02T08:56:06.595Z</time></trkpt><trkpt lat="46.1178633" lon="13.6082583"><ele>328.0</ele><time>2026-05-02T08:56:07.595Z</time></trkpt><trkpt lat="46.1178983" lon="13.6084117"><ele>330.0</ele><time>2026-05-02T08:56:08.596Z</time></trkpt><trkpt lat="46.11795" lon="13.6085667"><ele>332.0</ele><time>2026-05-02T08:56:09.595Z</time></trkpt><trkpt lat="46.118" lon="13.6087317"><ele>334.0</ele><time>2026-05-02T08:56:10.595Z</time></trkpt><trkpt lat="46.1180483" lon="13.608885"><ele>336.0</ele><time>2026-05-02T08:56:11.595Z</time></trkpt><trkpt lat="46.1180867" lon="13.6090267"><ele>336.0</ele><time>2026-05-02T08:56:12.595Z</time></trkpt><trkpt lat="46.118115" lon="13.609165"><ele>336.0</ele><time>2026-05-02T08:56:13.594Z</time></trkpt><trkpt lat="46.11814" lon="13.6092883"><ele>336.0</ele><time>2026-05-02T08:56:14.595Z</time></trkpt><trkpt lat="46.118165" lon="13.6093917"><ele>336.0</ele><time>2026-05-02T08:56:15.595Z</time></trkpt><trkpt lat="46.1181933" lon="13.609485"><ele>336.0</ele><time>2026-05-02T08:56:16.595Z</time></trkpt><trkpt lat="46.1182283" lon="13.6095617"><ele>336.0</ele><time>2026-05-02T08:56:17.594Z</time></trkpt><trkpt lat="46.1182983" lon="13.6096633"><ele>338.8</ele><time>2026-05-02T08:56:19.595Z</time></trkpt><trkpt lat="46.1183816" lon="13.6096981"><ele>341.6</ele><time>2026-05-02T08:56:21.594Z</time></trkpt><trkpt lat="46.1185011" lon="13.6096993"><ele>344.4</ele><time>2026-05-02T08:56:23.595Z</time></trkpt><trkpt lat="46.1185699" lon="13.6096863"><ele>347.2</ele><time>2026-05-02T08:56:24.593Z</time></trkpt><trkpt lat="46.1186347" lon="13.6096626"><ele>350.0</ele><time>2026-05-02T08:56:25.595Z</time></trkpt><trkpt lat="46.1187436" lon="13.6095792"><ele>350.0</ele><time>2026-05-02T08:56:27.594Z</time></trkpt><trkpt lat="46.1188052" lon="13.6095222"><ele>350.0</ele><time>2026-05-02T08:56:28.593Z</time></trkpt><trkpt lat="46.1188727" lon="13.6094611"><ele>350.0</ele><time>2026-05-02T08:56:29.596Z</time></trkpt><trkpt lat="46.1189501" lon="13.6094037"><ele>350.0</ele><time>2026-05-02T08:56:30.595Z</time></trkpt><trkpt lat="46.1190301" lon="13.6093504"><ele>350.0</ele><time>2026-05-02T08:56:31.594Z</time></trkpt><trkpt lat="46.1191046" lon="13.6093043"><ele>350.0</ele><time>2026-05-02T08:56:32.594Z</time></trkpt><trkpt lat="46.1191713" lon="13.609269"><ele>351.0</ele><time>2026-05-02T08:56:33.593Z</time></trkpt><trkpt lat="46.1192827" lon="13.6092328"><ele>352.0</ele><time>2026-05-02T08:56:35.593Z</time></trkpt><trkpt lat="46.1193614" lon="13.6092667"><ele>353.0</ele><time>2026-05-02T08:56:37.593Z</time></trkpt><trkpt lat="46.1193999" lon="13.6094082"><ele>354.0</ele><time>2026-05-02T08:56:40.594Z</time></trkpt><trkpt lat="46.1193936" lon="13.609504"><ele>355.0</ele><time>2026-05-02T08:56:41.594Z</time></trkpt><trkpt lat="46.1193976" lon="13.6096303"><ele>355.0</ele><time>2026-05-02T08:56:42.595Z</time></trkpt><trkpt lat="46.1194171" lon="13.6097771"><ele>355.0</ele><time>2026-05-02T08:56:43.593Z</time></trkpt><trkpt lat="46.1194452" lon="13.6099221"><ele>355.0</ele><time>2026-05-02T08:56:44.594Z</time></trkpt><trkpt lat="46.1194758" lon="13.6100612"><ele>355.0</ele><time>2026-05-02T08:56:45.593Z</time></trkpt><trkpt lat="46.1195089" lon="13.6101931"><ele>355.0</ele><time>2026-05-02T08:56:46.593Z</time></trkpt><trkpt lat="46.1195388" lon="13.6103171"><ele>352.66666666666663</ele><time>2026-05-02T08:56:47.593Z</time></trkpt><trkpt lat="46.1195632" lon="13.6104393"><ele>350.3333333333333</ele><time>2026-05-02T08:56:48.594Z</time></trkpt><trkpt lat="46.1195819" lon="13.6105651"><ele>348.0</ele><time>2026-05-02T08:56:49.594Z</time></trkpt><trkpt lat="46.1195976" lon="13.6106924"><ele>345.6666666666667</ele><time>2026-05-02T08:56:50.594Z</time></trkpt><trkpt lat="46.1196199" lon="13.610801"><ele>343.33333333333337</ele><time>2026-05-02T08:56:51.594Z</time></trkpt><trkpt lat="46.1196399" lon="13.6108906"><ele>341.0</ele><time>2026-05-02T08:56:52.593Z</time></trkpt><trkpt lat="46.1197133" lon="13.6109981"><ele>341.0</ele><time>2026-05-02T08:56:54.593Z</time></trkpt><trkpt lat="46.1197755" lon="13.6110315"><ele>341.0</ele><time>2026-05-02T08:56:55.593Z</time></trkpt><trkpt lat="46.1198502" lon="13.6110702"><ele>341.0</ele><time>2026-05-02T08:56:56.593Z</time></trkpt><trkpt lat="46.1199241" lon="13.6111183"><ele>341.0</ele><time>2026-05-02T08:56:57.593Z</time></trkpt><trkpt lat="46.1199845" lon="13.6111828"><ele>341.0</ele><time>2026-05-02T08:56:58.593Z</time></trkpt><trkpt lat="46.120027" lon="13.6112651"><ele>341.0</ele><time>2026-05-02T08:56:59.595Z</time></trkpt><trkpt lat="46.120061" lon="13.6113578"><ele>341.0</ele><time>2026-05-02T08:57:00.593Z</time></trkpt><trkpt lat="46.1200959" lon="13.6114552"><ele>345.1666666666667</ele><time>2026-05-02T08:57:01.593Z</time></trkpt><trkpt lat="46.1201346" lon="13.6115447"><ele>349.33333333333337</ele><time>2026-05-02T08:57:02.594Z</time></trkpt><trkpt lat="46.120178" lon="13.6116276"><ele>353.5</ele><time>2026-05-02T08:57:03.594Z</time></trkpt><trkpt lat="46.1202263" lon="13.6116944"><ele>357.6666666666667</ele><time>2026-05-02T08:57:04.593Z</time></trkpt><trkpt lat="46.1203203" lon="13.6117977"><ele>361.8333333333333</ele><time>2026-05-02T08:57:06.594Z</time></trkpt><trkpt lat="46.120424" lon="13.6118715"><ele>366.0</ele><time>2026-05-02T08:57:08.593Z</time></trkpt><trkpt lat="46.1205267" lon="13.6118851"><ele>366.0</ele><time>2026-05-02T08:57:10.593Z</time></trkpt><trkpt lat="46.1206332" lon="13.611865"><ele>366.0</ele><time>2026-05-02T08:57:12.594Z</time></trkpt><trkpt lat="46.1207601" lon="13.6118263"><ele>366.0</ele><time>2026-05-02T08:57:14.593Z</time></trkpt><trkpt lat="46.120828" lon="13.611791"><ele>366.0</ele><time>2026-05-02T08:57:15.593Z</time></trkpt><trkpt lat="46.1208912" lon="13.6117494"><ele>366.0</ele><time>2026-05-02T08:57:16.593Z</time></trkpt><trkpt lat="46.1209528" lon="13.6116997"><ele>366.0</ele><time>2026-05-02T08:57:17.594Z</time></trkpt><trkpt lat="46.12101" lon="13.6116441"><ele>372.20000000000005</ele><time>2026-05-02T08:57:18.594Z</time></trkpt><trkpt lat="46.121107" lon="13.6115394"><ele>378.40000000000003</ele><time>2026-05-02T08:57:20.594Z</time></trkpt><trkpt lat="46.1211984" lon="13.611429"><ele>384.6</ele><time>2026-05-02T08:57:22.594Z</time></trkpt><trkpt lat="46.1212632" lon="13.6113645"><ele>390.8</ele><time>2026-05-02T08:57:24.594Z</time></trkpt><trkpt lat="46.1213399" lon="13.6114618"><ele>397.0</ele><time>2026-05-02T08:57:28.594Z</time></trkpt><trkpt lat="46.1214048" lon="13.6116181"><ele>397.00000000000006</ele><time>2026-05-02T08:57:30.595Z</time></trkpt><trkpt lat="46.1214374" lon="13.6117304"><ele>397.0</ele><time>2026-05-02T08:57:31.593Z</time></trkpt><trkpt lat="46.1214639" lon="13.6118461"><ele>397.0</ele><time>2026-05-02T08:57:32.595Z</time></trkpt><trkpt lat="46.1214914" lon="13.6119684"><ele>397.0</ele><time>2026-05-02T08:57:33.593Z</time></trkpt><trkpt lat="46.1215221" lon="13.6120894"><ele>397.00000000000006</ele><time>2026-05-02T08:57:34.594Z</time></trkpt><trkpt lat="46.1215528" lon="13.6122158"><ele>397.0</ele><time>2026-05-02T08:57:35.594Z</time></trkpt><trkpt lat="46.1215805" lon="13.6123491"><ele>396.6666666666667</ele><time>2026-05-02T08:57:36.594Z</time></trkpt><trkpt lat="46.1216057" lon="13.612486"><ele>396.33333333333337</ele><time>2026-05-02T08:57:37.595Z</time></trkpt><trkpt lat="46.1216272" lon="13.6126066"><ele>396.0</ele><time>2026-05-02T08:57:38.595Z</time></trkpt><trkpt lat="46.1216468" lon="13.612704"><ele>395.66666666666663</ele><time>2026-05-02T08:57:39.592Z</time></trkpt><trkpt lat="46.1216767" lon="13.6128391"><ele>395.3333333333333</ele><time>2026-05-02T08:57:41.593Z</time></trkpt><trkpt lat="46.1217417" lon="13.6128017"><ele>395.0</ele><time>2026-05-02T08:57:46.594Z</time></trkpt><trkpt lat="46.1217417" lon="13.6127083"><ele>394.99999999999994</ele><time>2026-05-02T08:57:48.594Z</time></trkpt><trkpt lat="46.1217467" lon="13.61257"><ele>395.0</ele><time>2026-05-02T08:57:50.594Z</time></trkpt><trkpt lat="46.1217633" lon="13.6124667"><ele>395.0</ele><time>2026-05-02T08:57:51.593Z</time></trkpt><trkpt lat="46.1217767" lon="13.61236"><ele>395.0</ele><time>2026-05-02T08:57:52.593Z</time></trkpt><trkpt lat="46.1217833" lon="13.6122567"><ele>394.99999999999994</ele><time>2026-05-02T08:57:53.594Z</time></trkpt><trkpt lat="46.1217967" lon="13.6121467"><ele>395.0</ele><time>2026-05-02T08:57:54.593Z</time></trkpt><trkpt lat="46.1218067" lon="13.6120433"><ele>396.8333333333333</ele><time>2026-05-02T08:57:55.594Z</time></trkpt><trkpt lat="46.1218183" lon="13.6119433"><ele>398.66666666666663</ele><time>2026-05-02T08:57:56.594Z</time></trkpt><trkpt lat="46.1218283" lon="13.6118367"><ele>400.5</ele><time>2026-05-02T08:57:57.592Z</time></trkpt><trkpt lat="46.1218367" lon="13.611735"><ele>402.33333333333337</ele><time>2026-05-02T08:57:58.592Z</time></trkpt><trkpt lat="46.1218367" lon="13.6116383"><ele>404.1666666666667</ele><time>2026-05-02T08:57:59.594Z</time></trkpt><trkpt lat="46.1218317" lon="13.6114483"><ele>406.0</ele><time>2026-05-02T08:58:01.595Z</time></trkpt><trkpt lat="46.1218267" lon="13.6112767"><ele>406.00000000000006</ele><time>2026-05-02T08:58:03.595Z</time></trkpt><trkpt lat="46.121805" lon="13.6111817"><ele>406.0</ele><time>2026-05-02T08:58:04.593Z</time></trkpt><trkpt lat="46.1217833" lon="13.6110617"><ele>406.0</ele><time>2026-05-02T08:58:06.594Z</time></trkpt><trkpt lat="46.1217017" lon="13.6109883"><ele>406.0</ele><time>2026-05-02T08:58:08.595Z</time></trkpt><trkpt lat="46.1216283" lon="13.6109583"><ele>406.00000000000006</ele><time>2026-05-02T08:58:10.593Z</time></trkpt><trkpt lat="46.12154" lon="13.610975"><ele>406.0</ele><time>2026-05-02T08:58:12.593Z</time></trkpt><trkpt lat="46.1214183" lon="13.6109933"><ele>408.85714285714283</ele><time>2026-05-02T08:58:14.595Z</time></trkpt><trkpt lat="46.1213417" lon="13.6109967"><ele>411.7142857142857</ele><time>2026-05-02T08:58:15.593Z</time></trkpt><trkpt lat="46.1212767" lon="13.6110083"><ele>414.57142857142856</ele><time>2026-05-02T08:58:16.594Z</time></trkpt><trkpt lat="46.12121" lon="13.6110117"><ele>417.42857142857144</ele><time>2026-05-02T08:58:17.593Z</time></trkpt><trkpt lat="46.1211367" lon="13.6110317"><ele>420.2857142857143</ele><time>2026-05-02T08:58:18.593Z</time></trkpt><trkpt lat="46.121065" lon="13.6110467"><ele>423.1428571428571</ele><time>2026-05-02T08:58:19.593Z</time></trkpt><trkpt lat="46.12099" lon="13.6110717"><ele>426.0</ele><time>2026-05-02T08:58:20.594Z</time></trkpt><trkpt lat="46.12087" lon="13.6110733"><ele>426.0</ele><time>2026-05-02T08:58:22.594Z</time></trkpt><trkpt lat="46.1207667" lon="13.610975"><ele>426.0</ele><time>2026-05-02T08:58:24.593Z</time></trkpt><trkpt lat="46.1207267" lon="13.6108967"><ele>426.0</ele><time>2026-05-02T08:58:25.596Z</time></trkpt><trkpt lat="46.1206983" lon="13.6108017"><ele>426.0</ele><time>2026-05-02T08:58:26.594Z</time></trkpt><trkpt lat="46.1206667" lon="13.6107017"><ele>426.0</ele><time>2026-05-02T08:58:27.594Z</time></trkpt><trkpt lat="46.1206267" lon="13.6105933"><ele>426.0</ele><time>2026-05-02T08:58:28.595Z</time></trkpt><trkpt lat="46.1205867" lon="13.6104917"><ele>420.6666666666667</ele><time>2026-05-02T08:58:29.594Z</time></trkpt><trkpt lat="46.1205533" lon="13.6103833"><ele>415.33333333333337</ele><time>2026-05-02T08:58:30.593Z</time></trkpt><trkpt lat="46.1205267" lon="13.6102917"><ele>410.0</ele><time>2026-05-02T08:58:31.594Z</time></trkpt><trkpt lat="46.1205067" lon="13.6102"><ele>404.6666666666667</ele><time>2026-05-02T08:58:32.594Z</time></trkpt><trkpt lat="46.1205033" lon="13.6101083"><ele>399.33333333333337</ele><time>2026-05-02T08:58:33.594Z</time></trkpt><trkpt lat="46.120525" lon="13.6099383"><ele>394.0</ele><time>2026-05-02T08:58:35.594Z</time></trkpt><trkpt lat="46.12055" lon="13.60978"><ele>394.00000000000006</ele><time>2026-05-02T08:58:37.593Z</time></trkpt><trkpt lat="46.1205683" lon="13.6096033"><ele>394.0</ele><time>2026-05-02T08:58:39.593Z</time></trkpt><trkpt lat="46.1205817" lon="13.60951"><ele>394.0</ele><time>2026-05-02T08:58:40.595Z</time></trkpt><trkpt lat="46.1205983" lon="13.60942"><ele>394.0</ele><time>2026-05-02T08:58:41.593Z</time></trkpt><trkpt lat="46.1206283" lon="13.6093233"><ele>394.00000000000006</ele><time>2026-05-02T08:58:42.593Z</time></trkpt><trkpt lat="46.120655" lon="13.60923"><ele>394.0</ele><time>2026-05-02T08:58:43.593Z</time></trkpt><trkpt lat="46.1206817" lon="13.6091367"><ele>395.6666666666667</ele><time>2026-05-02T08:58:44.595Z</time></trkpt><trkpt lat="46.120705" lon="13.60905"><ele>397.33333333333337</ele><time>2026-05-02T08:58:45.594Z</time></trkpt><trkpt lat="46.1207133" lon="13.6089417"><ele>399.0</ele><time>2026-05-02T08:58:46.593Z</time></trkpt><trkpt lat="46.1207167" lon="13.6088417"><ele>400.66666666666663</ele><time>2026-05-02T08:58:47.594Z</time></trkpt><trkpt lat="46.120745" lon="13.608675"><ele>402.3333333333333</ele><time>2026-05-02T08:58:49.593Z</time></trkpt><trkpt lat="46.1207817" lon="13.60853"><ele>404.0</ele><time>2026-05-02T08:58:51.592Z</time></trkpt><trkpt lat="46.120825" lon="13.6084583"><ele>411.99999999999994</ele><time>2026-05-02T08:58:52.594Z</time></trkpt><trkpt lat="46.1208717" lon="13.60837"><ele>420.0</ele><time>2026-05-02T08:58:53.594Z</time></trkpt><trkpt lat="46.12092" lon="13.6082717"><ele>428.0</ele><time>2026-05-02T08:58:54.594Z</time></trkpt><trkpt lat="46.1209617" lon="13.6081817"><ele>436.0</ele><time>2026-05-02T08:58:55.593Z</time></trkpt><trkpt lat="46.1210017" lon="13.6081"><ele>443.99999999999994</ele><time>2026-05-02T08:58:56.595Z</time></trkpt><trkpt lat="46.12108" lon="13.6079533"><ele>452.0</ele><time>2026-05-02T08:58:58.593Z</time></trkpt><trkpt lat="46.121135" lon="13.6078833"><ele>451.49999999999994</ele><time>2026-05-02T08:58:59.594Z</time></trkpt><trkpt lat="46.1211933" lon="13.607795"><ele>451.0</ele><time>2026-05-02T08:59:00.594Z</time></trkpt><trkpt lat="46.12126" lon="13.6077133"><ele>450.5</ele><time>2026-05-02T08:59:01.594Z</time></trkpt><trkpt lat="46.1213233" lon="13.6076317"><ele>450.0</ele><time>2026-05-02T08:59:02.595Z</time></trkpt><trkpt lat="46.1213783" lon="13.60755"><ele>449.49999999999994</ele><time>2026-05-02T08:59:03.594Z</time></trkpt><trkpt lat="46.121425" lon="13.6074833"><ele>449.0</ele><time>2026-05-02T08:59:04.594Z</time></trkpt><trkpt lat="46.121455" lon="13.6074017"><ele>448.99999999999994</ele><time>2026-05-02T08:59:05.594Z</time></trkpt><trkpt lat="46.1214867" lon="13.6072983"><ele>449.0</ele><time>2026-05-02T08:59:07.595Z</time></trkpt><trkpt lat="46.1214683" lon="13.6072067"><ele>449.0</ele><time>2026-05-02T08:59:10.595Z</time></trkpt><trkpt lat="46.1213833" lon="13.6071467"><ele>449.0</ele><time>2026-05-02T08:59:12.593Z</time></trkpt><trkpt lat="46.1213217" lon="13.6071067"><ele>448.99999999999994</ele><time>2026-05-02T08:59:13.594Z</time></trkpt><trkpt lat="46.1212517" lon="13.6070617"><ele>449.0</ele><time>2026-05-02T08:59:14.595Z</time></trkpt><trkpt lat="46.1211733" lon="13.60701"><ele>453.6</ele><time>2026-05-02T08:59:15.593Z</time></trkpt><trkpt lat="46.121065" lon="13.60694"><ele>458.2</ele><time>2026-05-02T08:59:16.593Z</time></trkpt><trkpt lat="46.1209617" lon="13.60688"><ele>462.80000000000007</ele><time>2026-05-02T08:59:17.593Z</time></trkpt><trkpt lat="46.1208667" lon="13.6068317"><ele>467.40000000000003</ele><time>2026-05-02T08:59:18.593Z</time></trkpt><trkpt lat="46.1207967" lon="13.6067867"><ele>472.0</ele><time>2026-05-02T08:59:19.594Z</time></trkpt><trkpt lat="46.12074" lon="13.6067267"><ele>473.40000000000003</ele><time>2026-05-02T08:59:20.596Z</time></trkpt><trkpt lat="46.1206767" lon="13.6066033"><ele>474.80000000000007</ele><time>2026-05-02T08:59:22.593Z</time></trkpt><trkpt lat="46.1206451" lon="13.606443"><ele>476.2</ele><time>2026-05-02T08:59:24.594Z</time></trkpt><trkpt lat="46.1205883" lon="13.6063361"><ele>477.6</ele><time>2026-05-02T08:59:26.593Z</time></trkpt><trkpt lat="46.1205027" lon="13.606261"><ele>479.0</ele><time>2026-05-02T08:59:28.594Z</time></trkpt><trkpt lat="46.1204257" lon="13.6062597"><ele>479.0</ele><time>2026-05-02T08:59:31.666Z</time></trkpt><trkpt lat="46.1203324" lon="13.6062776"><ele>479.0</ele><time>2026-05-02T08:59:32.594Z</time></trkpt><trkpt lat="46.1202199" lon="13.6062889"><ele>479.0</ele><time>2026-05-02T08:59:33.594Z</time></trkpt><trkpt lat="46.120099" lon="13.6063002"><ele>479.0</ele><time>2026-05-02T08:59:34.594Z</time></trkpt><trkpt lat="46.1199887" lon="13.6063096"><ele>479.0</ele><time>2026-05-02T08:59:35.593Z</time></trkpt><trkpt lat="46.1198933" lon="13.6063215"><ele>477.16666666666663</ele><time>2026-05-02T08:59:36.593Z</time></trkpt><trkpt lat="46.1198094" lon="13.6063425"><ele>475.3333333333333</ele><time>2026-05-02T08:59:37.594Z</time></trkpt><trkpt lat="46.1197411" lon="13.6063749"><ele>473.5</ele><time>2026-05-02T08:59:38.595Z</time></trkpt><trkpt lat="46.1196788" lon="13.6064117"><ele>471.66666666666663</ele><time>2026-05-02T08:59:39.594Z</time></trkpt><trkpt lat="46.119571" lon="13.6064522"><ele>469.8333333333333</ele><time>2026-05-02T08:59:41.593Z</time></trkpt><trkpt lat="46.1195135" lon="13.6063381"><ele>468.0</ele><time>2026-05-02T08:59:44.595Z</time></trkpt><trkpt lat="46.1195335" lon="13.6061825"><ele>468.5</ele><time>2026-05-02T08:59:46.594Z</time></trkpt><trkpt lat="46.1195792" lon="13.6060253"><ele>469.0</ele><time>2026-05-02T08:59:48.593Z</time></trkpt><trkpt lat="46.1195995" lon="13.6059365"><ele>469.5</ele><time>2026-05-02T08:59:49.594Z</time></trkpt><trkpt lat="46.1196213" lon="13.6058364"><ele>470.0</ele><time>2026-05-02T08:59:50.594Z</time></trkpt><trkpt lat="46.1196479" lon="13.6057248"><ele>470.5</ele><time>2026-05-02T08:59:51.594Z</time></trkpt><trkpt lat="46.1196758" lon="13.6056191"><ele>471.0</ele><time>2026-05-02T08:59:52.593Z</time></trkpt><trkpt lat="46.1197082" lon="13.6055261"><ele>471.0</ele><time>2026-05-02T08:59:53.593Z</time></trkpt><trkpt lat="46.1197787" lon="13.6053916"><ele>471.0</ele><time>2026-05-02T08:59:55.594Z</time></trkpt><trkpt lat="46.1198759" lon="13.6052775"><ele>471.0</ele><time>2026-05-02T08:59:57.593Z</time></trkpt><trkpt lat="46.1199377" lon="13.6052205"><ele>471.0</ele><time>2026-05-02T08:59:58.594Z</time></trkpt><trkpt lat="46.1200054" lon="13.6051634"><ele>471.0</ele><time>2026-05-02T08:59:59.593Z</time></trkpt><trkpt lat="46.1200714" lon="13.605104"><ele>476.6</ele><time>2026-05-02T09:00:00.593Z</time></trkpt><trkpt lat="46.1201308" lon="13.605051"><ele>482.20000000000005</ele><time>2026-05-02T09:00:01.595Z</time></trkpt><trkpt lat="46.1202329" lon="13.6049547"><ele>487.79999999999995</ele><time>2026-05-02T09:00:03.594Z</time></trkpt><trkpt lat="46.1203234" lon="13.6049069"><ele>493.4</ele><time>2026-05-02T09:00:05.593Z</time></trkpt><trkpt lat="46.1204357" lon="13.604889"><ele>499.0</ele><time>2026-05-02T09:00:07.593Z</time></trkpt><trkpt lat="46.1205025" lon="13.6048778"><ele>499.00000000000006</ele><time>2026-05-02T09:00:08.593Z</time></trkpt><trkpt lat="46.1205663" lon="13.6048559"><ele>499.0</ele><time>2026-05-02T09:00:09.593Z</time></trkpt><trkpt lat="46.1206573" lon="13.6047979"><ele>499.00000000000006</ele><time>2026-05-02T09:00:11.594Z</time></trkpt><trkpt lat="46.1207199" lon="13.6047382"><ele>499.00000000000006</ele><time>2026-05-02T09:00:13.593Z</time></trkpt><trkpt lat="46.1207855" lon="13.604707"><ele>499.0</ele><time>2026-05-02T09:00:15.593Z</time></trkpt><trkpt lat="46.1208478" lon="13.6046918"><ele>499.00000000000006</ele><time>2026-05-02T09:00:17.594Z</time></trkpt><trkpt lat="46.1208784" lon="13.604596"><ele>499.00000000000006</ele><time>2026-05-02T09:00:20.594Z</time></trkpt><trkpt lat="46.1208145" lon="13.6045358"><ele>498.83333333333337</ele><time>2026-05-02T09:00:23.593Z</time></trkpt><trkpt lat="46.1207382" lon="13.6044865"><ele>498.6666666666667</ele><time>2026-05-02T09:00:25.595Z</time></trkpt><trkpt lat="46.1206618" lon="13.6044222"><ele>498.5</ele><time>2026-05-02T09:00:27.594Z</time></trkpt><trkpt lat="46.1206193" lon="13.6042782"><ele>498.33333333333337</ele><time>2026-05-02T09:00:29.593Z</time></trkpt><trkpt lat="46.1206129" lon="13.6041663"><ele>498.1666666666667</ele><time>2026-05-02T09:00:30.594Z</time></trkpt><trkpt lat="46.1206065" lon="13.6040431"><ele>498.0</ele><time>2026-05-02T09:00:31.594Z</time></trkpt><trkpt lat="46.120596" lon="13.6039188"><ele>498.0</ele><time>2026-05-02T09:00:32.595Z</time></trkpt><trkpt lat="46.1205782" lon="13.60379"><ele>498.0</ele><time>2026-05-02T09:00:33.595Z</time></trkpt><trkpt lat="46.1205589" lon="13.6036649"><ele>498.0</ele><time>2026-05-02T09:00:34.593Z</time></trkpt><trkpt lat="46.1205477" lon="13.6035506"><ele>498.0</ele><time>2026-05-02T09:00:35.595Z</time></trkpt><trkpt lat="46.1205492" lon="13.6034422"><ele>498.0</ele><time>2026-05-02T09:00:36.593Z</time></trkpt><trkpt lat="46.1205608" lon="13.6033357"><ele>498.0</ele><time>2026-05-02T09:00:37.594Z</time></trkpt><trkpt lat="46.1205743" lon="13.6032335"><ele>499.4285714285714</ele><time>2026-05-02T09:00:38.594Z</time></trkpt><trkpt lat="46.1205945" lon="13.6031373"><ele>500.8571428571428</ele><time>2026-05-02T09:00:39.592Z</time></trkpt><trkpt lat="46.1206221" lon="13.6030467"><ele>502.2857142857143</ele><time>2026-05-02T09:00:40.593Z</time></trkpt><trkpt lat="46.1206536" lon="13.6029587"><ele>503.71428571428567</ele><time>2026-05-02T09:00:41.593Z</time></trkpt><trkpt lat="46.1206891" lon="13.6028619"><ele>505.1428571428571</ele><time>2026-05-02T09:00:42.594Z</time></trkpt><trkpt lat="46.120731" lon="13.6027653"><ele>506.57142857142856</ele><time>2026-05-02T09:00:43.593Z</time></trkpt><trkpt lat="46.1207729" lon="13.6026775"><ele>508.0</ele><time>2026-05-02T09:00:44.595Z</time></trkpt><trkpt lat="46.1208053" lon="13.6025977"><ele>517.3333333333334</ele><time>2026-05-02T09:00:45.593Z</time></trkpt><trkpt lat="46.1208362" lon="13.6024284"><ele>526.6666666666667</ele><time>2026-05-02T09:00:47.593Z</time></trkpt><trkpt lat="46.1208326" lon="13.6023329"><ele>536.0</ele><time>2026-05-02T09:00:48.594Z</time></trkpt><trkpt lat="46.1208174" lon="13.6022226"><ele>545.3333333333334</ele><time>2026-05-02T09:00:49.593Z</time></trkpt><trkpt lat="46.1208057" lon="13.6021159"><ele>554.6666666666666</ele><time>2026-05-02T09:00:50.595Z</time></trkpt><trkpt lat="46.120803" lon="13.6020168"><ele>564.0</ele><time>2026-05-02T09:00:51.594Z</time></trkpt><trkpt lat="46.1208118" lon="13.6019252"><ele>564.3333333333334</ele><time>2026-05-02T09:00:52.593Z</time></trkpt><trkpt lat="46.1208286" lon="13.601832"><ele>564.6666666666666</ele><time>2026-05-02T09:00:53.593Z</time></trkpt><trkpt lat="46.1208522" lon="13.6017396"><ele>565.0</ele><time>2026-05-02T09:00:54.594Z</time></trkpt><trkpt lat="46.1208805" lon="13.6016275"><ele>565.3333333333333</ele><time>2026-05-02T09:00:55.595Z</time></trkpt><trkpt lat="46.120909" lon="13.6015047"><ele>565.6666666666666</ele><time>2026-05-02T09:00:56.593Z</time></trkpt><trkpt lat="46.1209256" lon="13.6013751"><ele>566.0</ele><time>2026-05-02T09:00:57.594Z</time></trkpt><trkpt lat="46.1209346" lon="13.6012463"><ele>566.2</ele><time>2026-05-02T09:00:58.594Z</time></trkpt><trkpt lat="46.1209326" lon="13.6011127"><ele>566.4000000000001</ele><time>2026-05-02T09:00:59.594Z</time></trkpt><trkpt lat="46.1209327" lon="13.6009706"><ele>566.6</ele><time>2026-05-02T09:01:00.594Z</time></trkpt><trkpt lat="46.1209369" lon="13.6008126"><ele>566.8000000000001</ele><time>2026-05-02T09:01:01.594Z</time></trkpt><trkpt lat="46.1209378" lon="13.6006544"><ele>567.0</ele><time>2026-05-02T09:01:02.594Z</time></trkpt><trkpt lat="46.120935" lon="13.6005134"><ele>567.0</ele><time>2026-05-02T09:01:03.593Z</time></trkpt><trkpt lat="46.1209229" lon="13.6003843"><ele>567.0</ele><time>2026-05-02T09:01:04.594Z</time></trkpt><trkpt lat="46.1209107" lon="13.6002659"><ele>567.0</ele><time>2026-05-02T09:01:05.593Z</time></trkpt><trkpt lat="46.1209092" lon="13.6001589"><ele>567.0</ele><time>2026-05-02T09:01:06.594Z</time></trkpt><trkpt lat="46.1209216" lon="13.600067"><ele>567.0</ele><time>2026-05-02T09:01:07.594Z</time></trkpt><trkpt lat="46.1209481" lon="13.5999829"><ele>567.0</ele><time>2026-05-02T09:01:08.593Z</time></trkpt><trkpt lat="46.1210249" lon="13.5998569"><ele>566.75</ele><time>2026-05-02T09:01:10.593Z</time></trkpt><trkpt lat="46.1211434" lon="13.5998021"><ele>566.5</ele><time>2026-05-02T09:01:12.594Z</time></trkpt><trkpt lat="46.1212582" lon="13.5998223"><ele>566.25</ele><time>2026-05-02T09:01:14.593Z</time></trkpt><trkpt lat="46.121356" lon="13.5998955"><ele>566.0</ele><time>2026-05-02T09:01:16.593Z</time></trkpt><trkpt lat="46.1214602" lon="13.5999512"><ele>568.8333333333333</ele><time>2026-05-02T09:01:18.593Z</time></trkpt><trkpt lat="46.1215677" lon="13.6000261"><ele>571.6666666666666</ele><time>2026-05-02T09:01:20.595Z</time></trkpt><trkpt lat="46.1216163" lon="13.6000916"><ele>574.5</ele><time>2026-05-02T09:01:21.594Z</time></trkpt><trkpt lat="46.121651" lon="13.600177"><ele>577.3333333333334</ele><time>2026-05-02T09:01:22.594Z</time></trkpt><trkpt lat="46.121665" lon="13.6002681"><ele>580.1666666666667</ele><time>2026-05-02T09:01:23.594Z</time></trkpt><trkpt lat="46.1216633" lon="13.6003682"><ele>583.0</ele><time>2026-05-02T09:01:24.593Z</time></trkpt><trkpt lat="46.1216534" lon="13.6004809"><ele>584.25</ele><time>2026-05-02T09:01:25.594Z</time></trkpt><trkpt lat="46.1216359" lon="13.6006173"><ele>585.5</ele><time>2026-05-02T09:01:26.595Z</time></trkpt><trkpt lat="46.1216101" lon="13.6007789"><ele>586.75</ele><time>2026-05-02T09:01:27.593Z</time></trkpt><trkpt lat="46.1215835" lon="13.6009521"><ele>588.0</ele><time>2026-05-02T09:01:28.593Z</time></trkpt><trkpt lat="46.1215635" lon="13.6011217"><ele>587.75</ele><time>2026-05-02T09:01:29.594Z</time></trkpt><trkpt lat="46.1215634" lon="13.6012837"><ele>587.5</ele><time>2026-05-02T09:01:30.594Z</time></trkpt><trkpt lat="46.1215933" lon="13.6014448"><ele>587.25</ele><time>2026-05-02T09:01:31.594Z</time></trkpt><trkpt lat="46.1216561" lon="13.6016047"><ele>587.0</ele><time>2026-05-02T09:01:32.594Z</time></trkpt><trkpt lat="46.1217352" lon="13.601761"><ele>587.0</ele><time>2026-05-02T09:01:33.594Z</time></trkpt><trkpt lat="46.1218121" lon="13.6019058"><ele>587.0</ele><time>2026-05-02T09:01:34.595Z</time></trkpt><trkpt lat="46.1218996" lon="13.6020192"><ele>587.0</ele><time>2026-05-02T09:01:35.593Z</time></trkpt><trkpt lat="46.1219984" lon="13.6020972"><ele>587.0</ele><time>2026-05-02T09:01:36.593Z</time></trkpt><trkpt lat="46.1221033" lon="13.6021427"><ele>588.2</ele><time>2026-05-02T09:01:37.594Z</time></trkpt><trkpt lat="46.1222064" lon="13.6021478"><ele>589.4000000000001</ele><time>2026-05-02T09:01:38.594Z</time></trkpt><trkpt lat="46.1223095" lon="13.6021272"><ele>590.5999999999999</ele><time>2026-05-02T09:01:39.593Z</time></trkpt><trkpt lat="46.1224065" lon="13.6021082"><ele>591.8</ele><time>2026-05-02T09:01:40.593Z</time></trkpt><trkpt lat="46.1225038" lon="13.6021209"><ele>593.0</ele><time>2026-05-02T09:01:41.594Z</time></trkpt><trkpt lat="46.1226039" lon="13.6021827"><ele>594.0</ele><time>2026-05-02T09:01:42.594Z</time></trkpt><trkpt lat="46.1227036" lon="13.6022771"><ele>595.0</ele><time>2026-05-02T09:01:43.594Z</time></trkpt><trkpt lat="46.1228121" lon="13.6023875"><ele>596.0</ele><time>2026-05-02T09:01:44.594Z</time></trkpt><trkpt lat="46.1229134" lon="13.6024695"><ele>597.0</ele><time>2026-05-02T09:01:45.593Z</time></trkpt><trkpt lat="46.1229963" lon="13.6025874"><ele>597.0</ele><time>2026-05-02T09:01:46.594Z</time></trkpt><trkpt lat="46.1230677" lon="13.6027068"><ele>597.0</ele><time>2026-05-02T09:01:47.594Z</time></trkpt><trkpt lat="46.1231426" lon="13.6027957"><ele>597.0</ele><time>2026-05-02T09:01:48.594Z</time></trkpt><trkpt lat="46.123226" lon="13.602845"><ele>597.0</ele><time>2026-05-02T09:01:49.594Z</time></trkpt><trkpt lat="46.1233233" lon="13.602853"><ele>597.0</ele><time>2026-05-02T09:01:50.594Z</time></trkpt><trkpt lat="46.1234308" lon="13.6028274"><ele>595.2</ele><time>2026-05-02T09:01:51.593Z</time></trkpt><trkpt lat="46.1235395" lon="13.6027926"><ele>593.4000000000001</ele><time>2026-05-02T09:01:52.593Z</time></trkpt><trkpt lat="46.1236458" lon="13.602742"><ele>591.5999999999999</ele><time>2026-05-02T09:01:53.593Z</time></trkpt><trkpt lat="46.1237475" lon="13.6026943"><ele>589.8</ele><time>2026-05-02T09:01:54.593Z</time></trkpt><trkpt lat="46.1238538" lon="13.6026707"><ele>588.0</ele><time>2026-05-02T09:01:55.594Z</time></trkpt><trkpt lat="46.1239555" lon="13.6026754"><ele>588.0</ele><time>2026-05-02T09:01:56.594Z</time></trkpt><trkpt lat="46.1240507" lon="13.602685"><ele>588.0</ele><time>2026-05-02T09:01:57.593Z</time></trkpt><trkpt lat="46.124139" lon="13.6026737"><ele>588.0</ele><time>2026-05-02T09:01:58.593Z</time></trkpt><trkpt lat="46.1242231" lon="13.6026348"><ele>588.0</ele><time>2026-05-02T09:01:59.594Z</time></trkpt><trkpt lat="46.124296" lon="13.6025435"><ele>588.0</ele><time>2026-05-02T09:02:00.594Z</time></trkpt><trkpt lat="46.1243592" lon="13.6024093"><ele>588.75</ele><time>2026-05-02T09:02:01.593Z</time></trkpt><trkpt lat="46.1244138" lon="13.6022447"><ele>589.5</ele><time>2026-05-02T09:02:02.595Z</time></trkpt><trkpt lat="46.1244614" lon="13.6020737"><ele>590.25</ele><time>2026-05-02T09:02:03.596Z</time></trkpt><trkpt lat="46.1245088" lon="13.6019338"><ele>591.0</ele><time>2026-05-02T09:02:04.593Z</time></trkpt><trkpt lat="46.1245676" lon="13.6018362"><ele>590.3333333333334</ele><time>2026-05-02T09:02:05.593Z</time></trkpt><trkpt lat="46.1246384" lon="13.6017836"><ele>589.6666666666666</ele><time>2026-05-02T09:02:06.592Z</time></trkpt><trkpt lat="46.1247155" lon="13.6017862"><ele>589.0</ele><time>2026-05-02T09:02:07.594Z</time></trkpt><trkpt lat="46.1247927" lon="13.6018289"><ele>588.3333333333333</ele><time>2026-05-02T09:02:08.593Z</time></trkpt><trkpt lat="46.1248605" lon="13.6019478"><ele>587.6666666666666</ele><time>2026-05-02T09:02:09.594Z</time></trkpt><trkpt lat="46.1249239" lon="13.6020326"><ele>587.0</ele><time>2026-05-02T09:02:10.594Z</time></trkpt><trkpt lat="46.1250002" lon="13.6021009"><ele>587.0</ele><time>2026-05-02T09:02:11.594Z</time></trkpt><trkpt lat="46.1250532" lon="13.6022398"><ele>587.0</ele><time>2026-05-02T09:02:12.593Z</time></trkpt><trkpt lat="46.1250912" lon="13.6023845"><ele>587.0</ele><time>2026-05-02T09:02:13.595Z</time></trkpt><trkpt lat="46.1251224" lon="13.6025163"><ele>587.0</ele><time>2026-05-02T09:02:14.595Z</time></trkpt><trkpt lat="46.1251346" lon="13.6026471"><ele>587.0</ele><time>2026-05-02T09:02:15.595Z</time></trkpt><trkpt lat="46.1250814" lon="13.6028057"><ele>586.75</ele><time>2026-05-02T09:02:16.593Z</time></trkpt><trkpt lat="46.1250111" lon="13.6029716"><ele>586.5</ele><time>2026-05-02T09:02:17.594Z</time></trkpt><trkpt lat="46.1249598" lon="13.6031616"><ele>586.25</ele><time>2026-05-02T09:02:18.593Z</time></trkpt><trkpt lat="46.1249392" lon="13.603354"><ele>586.0</ele><time>2026-05-02T09:02:19.593Z</time></trkpt><trkpt lat="46.1249301" lon="13.603529"><ele>587.6</ele><time>2026-05-02T09:02:20.594Z</time></trkpt><trkpt lat="46.1249333" lon="13.6036818"><ele>589.2</ele><time>2026-05-02T09:02:21.594Z</time></trkpt><trkpt lat="46.1249695" lon="13.6038125"><ele>590.8</ele><time>2026-05-02T09:02:22.593Z</time></trkpt><trkpt lat="46.1250431" lon="13.6039193"><ele>592.4</ele><time>2026-05-02T09:02:23.594Z</time></trkpt><trkpt lat="46.1251343" lon="13.604018"><ele>594.0</ele><time>2026-05-02T09:02:24.592Z</time></trkpt><trkpt lat="46.1252144" lon="13.6041274"><ele>594.0</ele><time>2026-05-02T09:02:25.594Z</time></trkpt><trkpt lat="46.1252831" lon="13.6042487"><ele>594.0</ele><time>2026-05-02T09:02:26.594Z</time></trkpt><trkpt lat="46.1253717" lon="13.6043367"><ele>594.0</ele><time>2026-05-02T09:02:27.592Z</time></trkpt><trkpt lat="46.125475" lon="13.6043633"><ele>594.0</ele><time>2026-05-02T09:02:28.593Z</time></trkpt><trkpt lat="46.125565" lon="13.6044"><ele>594.0</ele><time>2026-05-02T09:02:29.593Z</time></trkpt><trkpt lat="46.1256383" lon="13.6044317"><ele>594.0</ele><time>2026-05-02T09:02:30.593Z</time></trkpt><trkpt lat="46.1257017" lon="13.604445"><ele>594.0</ele><time>2026-05-02T09:02:31.592Z</time></trkpt><trkpt lat="46.1257517" lon="13.6043833"><ele>594.0</ele><time>2026-05-02T09:02:33.593Z</time></trkpt><trkpt lat="46.1256967" lon="13.6043017"><ele>594.0</ele><time>2026-05-02T09:02:35.592Z</time></trkpt><trkpt lat="46.125585" lon="13.60422"><ele>594.0</ele><time>2026-05-02T09:02:37.593Z</time></trkpt><trkpt lat="46.12549" lon="13.60417"><ele>594.0</ele><time>2026-05-02T09:02:38.594Z</time></trkpt><trkpt lat="46.1253983" lon="13.6040433"><ele>594.0</ele><time>2026-05-02T09:02:39.593Z</time></trkpt><trkpt lat="46.1253267" lon="13.60389"><ele>594.0</ele><time>2026-05-02T09:02:40.594Z</time></trkpt><trkpt lat="46.1252717" lon="13.6037533"><ele>594.0</ele><time>2026-05-02T09:02:41.595Z</time></trkpt><trkpt lat="46.1252267" lon="13.6036317"><ele>594.0</ele><time>2026-05-02T09:02:42.592Z</time></trkpt><trkpt lat="46.1252283" lon="13.603495"><ele>594.0</ele><time>2026-05-02T09:02:43.592Z</time></trkpt><trkpt lat="46.12526" lon="13.603365"><ele>592.6</ele><time>2026-05-02T09:02:44.593Z</time></trkpt><trkpt lat="46.125315" lon="13.6032433"><ele>591.2</ele><time>2026-05-02T09:02:45.593Z</time></trkpt><trkpt lat="46.1253733" lon="13.6031233"><ele>589.8000000000001</ele><time>2026-05-02T09:02:46.592Z</time></trkpt><trkpt lat="46.12544" lon="13.6030183"><ele>588.4</ele><time>2026-05-02T09:02:47.592Z</time></trkpt><trkpt lat="46.1254817" lon="13.6028783"><ele>587.0</ele><time>2026-05-02T09:02:48.594Z</time></trkpt><trkpt lat="46.1254867" lon="13.60269"><ele>587.0</ele><time>2026-05-02T09:02:49.592Z</time></trkpt><trkpt lat="46.1255133" lon="13.6024983"><ele>587.0</ele><time>2026-05-02T09:02:50.594Z</time></trkpt><trkpt lat="46.1255933" lon="13.602335"><ele>587.0</ele><time>2026-05-02T09:02:51.592Z</time></trkpt><trkpt lat="46.1256633" lon="13.6021817"><ele>587.0</ele><time>2026-05-02T09:02:52.593Z</time></trkpt><trkpt lat="46.1257033" lon="13.6020417"><ele>585.6</ele><time>2026-05-02T09:02:53.592Z</time></trkpt><trkpt lat="46.1257167" lon="13.60191"><ele>584.2</ele><time>2026-05-02T09:02:54.592Z</time></trkpt><trkpt lat="46.1256967" lon="13.6017833"><ele>582.8</ele><time>2026-05-02T09:02:55.592Z</time></trkpt><trkpt lat="46.1256433" lon="13.6016733"><ele>581.4</ele><time>2026-05-02T09:02:56.593Z</time></trkpt><trkpt lat="46.1255533" lon="13.6015717"><ele>580.0</ele><time>2026-05-02T09:02:57.593Z</time></trkpt><trkpt lat="46.12548" lon="13.6014583"><ele>580.0</ele><time>2026-05-02T09:02:58.593Z</time></trkpt><trkpt lat="46.1254433" lon="13.6013333"><ele>580.0</ele><time>2026-05-02T09:02:59.593Z</time></trkpt><trkpt lat="46.125435" lon="13.6011883"><ele>580.0</ele><time>2026-05-02T09:03:00.593Z</time></trkpt><trkpt lat="46.1254617" lon="13.6010367"><ele>580.0</ele><time>2026-05-02T09:03:01.593Z</time></trkpt><trkpt lat="46.1255167" lon="13.6008833"><ele>580.0</ele><time>2026-05-02T09:03:02.593Z</time></trkpt><trkpt lat="46.125585" lon="13.6007267"><ele>575.5</ele><time>2026-05-02T09:03:03.593Z</time></trkpt><trkpt lat="46.1256633" lon="13.6005617"><ele>571.0</ele><time>2026-05-02T09:03:04.593Z</time></trkpt><trkpt lat="46.12573" lon="13.6003967"><ele>566.5</ele><time>2026-05-02T09:03:05.592Z</time></trkpt><trkpt lat="46.125795" lon="13.60024"><ele>562.0</ele><time>2026-05-02T09:03:06.593Z</time></trkpt><trkpt lat="46.125835" lon="13.6000917"><ele>559.4</ele><time>2026-05-02T09:03:07.593Z</time></trkpt><trkpt lat="46.12585" lon="13.5999633"><ele>556.8000000000001</ele><time>2026-05-02T09:03:08.593Z</time></trkpt><trkpt lat="46.12583" lon="13.599845"><ele>554.2</ele><time>2026-05-02T09:03:09.594Z</time></trkpt><trkpt lat="46.1257683" lon="13.5997367"><ele>551.6</ele><time>2026-05-02T09:03:10.593Z</time></trkpt><trkpt lat="46.1256817" lon="13.5996467"><ele>549.0</ele><time>2026-05-02T09:03:11.594Z</time></trkpt><trkpt lat="46.1256117" lon="13.5995417"><ele>546.25</ele><time>2026-05-02T09:03:12.592Z</time></trkpt><trkpt lat="46.12558" lon="13.5994133"><ele>543.5</ele><time>2026-05-02T09:03:13.593Z</time></trkpt><trkpt lat="46.1255867" lon="13.5992417"><ele>540.75</ele><time>2026-05-02T09:03:14.594Z</time></trkpt><trkpt lat="46.1256033" lon="13.599035"><ele>538.0</ele><time>2026-05-02T09:03:15.593Z</time></trkpt><trkpt lat="46.125625" lon="13.5988117"><ele>535.3333333333334</ele><time>2026-05-02T09:03:16.592Z</time></trkpt><trkpt lat="46.1256383" lon="13.5985767"><ele>532.6666666666666</ele><time>2026-05-02T09:03:17.594Z</time></trkpt><trkpt lat="46.1256483" lon="13.5983267"><ele>530.0</ele><time>2026-05-02T09:03:18.592Z</time></trkpt><trkpt lat="46.1256617" lon="13.59808"><ele>530.0</ele><time>2026-05-02T09:03:19.593Z</time></trkpt><trkpt lat="46.1256683" lon="13.5978367"><ele>530.0</ele><time>2026-05-02T09:03:20.593Z</time></trkpt><trkpt lat="46.12568" lon="13.5975833"><ele>530.0</ele><time>2026-05-02T09:03:21.593Z</time></trkpt><trkpt lat="46.1256967" lon="13.5973267"><ele>527.0</ele><time>2026-05-02T09:03:22.593Z</time></trkpt><trkpt lat="46.12573" lon="13.5970767"><ele>524.0</ele><time>2026-05-02T09:03:23.596Z</time></trkpt><trkpt lat="46.1257667" lon="13.59684"><ele>521.0</ele><time>2026-05-02T09:03:24.592Z</time></trkpt><trkpt lat="46.1257967" lon="13.5966117"><ele>521.0</ele><time>2026-05-02T09:03:25.592Z</time></trkpt><trkpt lat="46.1258333" lon="13.596395"><ele>521.0</ele><time>2026-05-02T09:03:26.593Z</time></trkpt><trkpt lat="46.125885" lon="13.59618"><ele>521.0</ele><time>2026-05-02T09:03:27.593Z</time></trkpt><trkpt lat="46.1259483" lon="13.5959833"><ele>521.2</ele><time>2026-05-02T09:03:28.594Z</time></trkpt><trkpt lat="46.1260033" lon="13.5958"><ele>521.4000000000001</ele><time>2026-05-02T09:03:29.593Z</time></trkpt><trkpt lat="46.126045" lon="13.5956367"><ele>521.6</ele><time>2026-05-02T09:03:30.592Z</time></trkpt><trkpt lat="46.1260817" lon="13.5955033"><ele>521.8000000000001</ele><time>2026-05-02T09:03:31.593Z</time></trkpt><trkpt lat="46.126115" lon="13.5953933"><ele>522.0</ele><time>2026-05-02T09:03:32.593Z</time></trkpt><trkpt lat="46.12614" lon="13.5953033"><ele>522.0</ele><time>2026-05-02T09:03:33.592Z</time></trkpt><trkpt lat="46.1261833" lon="13.5951983"><ele>522.0</ele><time>2026-05-02T09:03:35.592Z</time></trkpt><trkpt lat="46.1262433" lon="13.5952767"><ele>522.0</ele><time>2026-05-02T09:03:38.595Z</time></trkpt><trkpt lat="46.1261983" lon="13.5954217"><ele>522.0</ele><time>2026-05-02T09:03:40.593Z</time></trkpt><trkpt lat="46.1261833" lon="13.5955267"><ele>522.0</ele><time>2026-05-02T09:03:41.594Z</time></trkpt><trkpt lat="46.1261817" lon="13.59564"><ele>522.0</ele><time>2026-05-02T09:03:42.594Z</time></trkpt><trkpt lat="46.1261817" lon="13.5957583"><ele>522.0</ele><time>2026-05-02T09:03:43.593Z</time></trkpt><trkpt lat="46.12619" lon="13.59588"><ele>522.0</ele><time>2026-05-02T09:03:44.594Z</time></trkpt><trkpt lat="46.1262017" lon="13.5960083"><ele>522.0</ele><time>2026-05-02T09:03:45.593Z</time></trkpt><trkpt lat="46.1262083" lon="13.5961283"><ele>522.0</ele><time>2026-05-02T09:03:46.593Z</time></trkpt><trkpt lat="46.1262167" lon="13.596235"><ele>522.0</ele><time>2026-05-02T09:03:47.593Z</time></trkpt><trkpt lat="46.1262283" lon="13.5963417"><ele>522.0</ele><time>2026-05-02T09:03:48.593Z</time></trkpt><trkpt lat="46.12624" lon="13.59645"><ele>521.8333333333334</ele><time>2026-05-02T09:03:49.594Z</time></trkpt><trkpt lat="46.12625" lon="13.5965733"><ele>521.6666666666666</ele><time>2026-05-02T09:03:50.593Z</time></trkpt><trkpt lat="46.1262633" lon="13.5967017"><ele>521.5</ele><time>2026-05-02T09:03:51.593Z</time></trkpt><trkpt lat="46.1262683" lon="13.5968217"><ele>521.3333333333333</ele><time>2026-05-02T09:03:52.595Z</time></trkpt><trkpt lat="46.1262683" lon="13.5969333"><ele>521.1666666666666</ele><time>2026-05-02T09:03:53.594Z</time></trkpt><trkpt lat="46.1262617" lon="13.59705"><ele>521.0</ele><time>2026-05-02T09:03:54.594Z</time></trkpt><trkpt lat="46.1262417" lon="13.59717"><ele>521.0</ele><time>2026-05-02T09:03:55.594Z</time></trkpt><trkpt lat="46.12623" lon="13.597305"><ele>521.0</ele><time>2026-05-02T09:03:56.595Z</time></trkpt><trkpt lat="46.1262183" lon="13.597445"><ele>521.0</ele><time>2026-05-02T09:03:57.592Z</time></trkpt><trkpt lat="46.1262083" lon="13.597565"><ele>521.0</ele><time>2026-05-02T09:03:58.593Z</time></trkpt><trkpt lat="46.1261917" lon="13.59768"><ele>521.0</ele><time>2026-05-02T09:03:59.594Z</time></trkpt><trkpt lat="46.1261833" lon="13.5977967"><ele>521.0</ele><time>2026-05-02T09:04:00.593Z</time></trkpt><trkpt lat="46.12618" lon="13.5979083"><ele>521.8333333333333</ele><time>2026-05-02T09:04:01.593Z</time></trkpt><trkpt lat="46.126195" lon="13.5980133"><ele>522.6666666666666</ele><time>2026-05-02T09:04:02.594Z</time></trkpt><trkpt lat="46.1262167" lon="13.5981217"><ele>523.5</ele><time>2026-05-02T09:04:03.593Z</time></trkpt><trkpt lat="46.12625" lon="13.5982417"><ele>524.3333333333334</ele><time>2026-05-02T09:04:04.593Z</time></trkpt><trkpt lat="46.1262783" lon="13.5983617"><ele>525.1666666666667</ele><time>2026-05-02T09:04:05.593Z</time></trkpt><trkpt lat="46.1263067" lon="13.5984683"><ele>526.0</ele><time>2026-05-02T09:04:06.592Z</time></trkpt><trkpt lat="46.1263367" lon="13.5985483"><ele>526.0</ele><time>2026-05-02T09:04:07.595Z</time></trkpt><trkpt lat="46.1263767" lon="13.598625"><ele>526.0</ele><time>2026-05-02T09:04:08.593Z</time></trkpt><trkpt lat="46.12642" lon="13.5986983"><ele>526.0</ele><time>2026-05-02T09:04:09.594Z</time></trkpt><trkpt lat="46.1264733" lon="13.5987633"><ele>526.0</ele><time>2026-05-02T09:04:10.593Z</time></trkpt><trkpt lat="46.1265483" lon="13.5988267"><ele>526.0</ele><time>2026-05-02T09:04:11.594Z</time></trkpt><trkpt lat="46.1266183" lon="13.5988717"><ele>526.0</ele><time>2026-05-02T09:04:12.592Z</time></trkpt><trkpt lat="46.1266867" lon="13.598905"><ele>526.0</ele><time>2026-05-02T09:04:13.593Z</time></trkpt><trkpt lat="46.12676" lon="13.5989217"><ele>523.6666666666667</ele><time>2026-05-02T09:04:14.593Z</time></trkpt><trkpt lat="46.12684" lon="13.5989383"><ele>521.3333333333334</ele><time>2026-05-02T09:04:15.592Z</time></trkpt><trkpt lat="46.1269183" lon="13.59896"><ele>519.0</ele><time>2026-05-02T09:04:16.594Z</time></trkpt><trkpt lat="46.126985" lon="13.598995"><ele>516.6666666666666</ele><time>2026-05-02T09:04:17.594Z</time></trkpt><trkpt lat="46.12704" lon="13.59905"><ele>514.3333333333333</ele><time>2026-05-02T09:04:18.593Z</time></trkpt><trkpt lat="46.1270917" lon="13.5992233"><ele>512.0</ele><time>2026-05-02T09:04:20.593Z</time></trkpt><trkpt lat="46.1270983" lon="13.5994017"><ele>513.0</ele><time>2026-05-02T09:04:22.592Z</time></trkpt><trkpt lat="46.1270833" lon="13.5995017"><ele>514.0</ele><time>2026-05-02T09:04:23.594Z</time></trkpt><trkpt lat="46.1270533" lon="13.5996117"><ele>515.0</ele><time>2026-05-02T09:04:24.592Z</time></trkpt><trkpt lat="46.127015" lon="13.5997167"><ele>516.0</ele><time>2026-05-02T09:04:25.593Z</time></trkpt><trkpt lat="46.126975" lon="13.599815"><ele>517.0</ele><time>2026-05-02T09:04:26.593Z</time></trkpt><trkpt lat="46.1269367" lon="13.5999067"><ele>518.0</ele><time>2026-05-02T09:04:27.592Z</time></trkpt><trkpt lat="46.1268933" lon="13.60005"><ele>518.0</ele><time>2026-05-02T09:04:29.592Z</time></trkpt><trkpt lat="46.1268667" lon="13.60017"><ele>518.0</ele><time>2026-05-02T09:04:31.594Z</time></trkpt><trkpt lat="46.126905" lon="13.6002483"><ele>518.0</ele><time>2026-05-02T09:04:33.593Z</time></trkpt><trkpt lat="46.1270133" lon="13.60022"><ele>518.0</ele><time>2026-05-02T09:04:35.593Z</time></trkpt><trkpt lat="46.1271017" lon="13.6001817"><ele>518.0</ele><time>2026-05-02T09:04:36.593Z</time></trkpt><trkpt lat="46.1272117" lon="13.6001333"><ele>518.0</ele><time>2026-05-02T09:04:37.593Z</time></trkpt><trkpt lat="46.1273067" lon="13.6000917"><ele>518.0</ele><time>2026-05-02T09:04:38.593Z</time></trkpt><trkpt lat="46.1273983" lon="13.60006"><ele>518.0</ele><time>2026-05-02T09:04:39.592Z</time></trkpt><trkpt lat="46.1274833" lon="13.6000433"><ele>518.0</ele><time>2026-05-02T09:04:40.594Z</time></trkpt><trkpt lat="46.1275717" lon="13.6000217"><ele>518.0</ele><time>2026-05-02T09:04:41.593Z</time></trkpt><trkpt lat="46.1276567" lon="13.600005"><ele>515.8333333333333</ele><time>2026-05-02T09:04:42.594Z</time></trkpt><trkpt lat="46.1277283" lon="13.5999917"><ele>513.6666666666666</ele><time>2026-05-02T09:04:43.593Z</time></trkpt><trkpt lat="46.1277933" lon="13.59998"><ele>511.5</ele><time>2026-05-02T09:04:44.595Z</time></trkpt><trkpt lat="46.1278567" lon="13.599985"><ele>509.33333333333337</ele><time>2026-05-02T09:04:45.592Z</time></trkpt><trkpt lat="46.1279583" lon="13.60005"><ele>507.1666666666667</ele><time>2026-05-02T09:04:47.594Z</time></trkpt><trkpt lat="46.1280083" lon="13.600175"><ele>505.0</ele><time>2026-05-02T09:04:49.593Z</time></trkpt><trkpt lat="46.12799" lon="13.6003433"><ele>505.00000000000006</ele><time>2026-05-02T09:04:51.593Z</time></trkpt><trkpt lat="46.127965" lon="13.6004417"><ele>505.0</ele><time>2026-05-02T09:04:52.594Z</time></trkpt><trkpt lat="46.1279267" lon="13.6005467"><ele>505.0</ele><time>2026-05-02T09:04:53.593Z</time></trkpt><trkpt lat="46.1278917" lon="13.600645"><ele>505.0</ele><time>2026-05-02T09:04:54.594Z</time></trkpt><trkpt lat="46.127865" lon="13.6007483"><ele>505.00000000000006</ele><time>2026-05-02T09:04:55.593Z</time></trkpt><trkpt lat="46.1278283" lon="13.600855"><ele>505.0</ele><time>2026-05-02T09:04:56.594Z</time></trkpt><trkpt lat="46.1277917" lon="13.6009533"><ele>505.0</ele><time>2026-05-02T09:04:57.592Z</time></trkpt><trkpt lat="46.1277667" lon="13.6010467"><ele>504.99999999999994</ele><time>2026-05-02T09:04:58.592Z</time></trkpt><trkpt lat="46.1277483" lon="13.6011383"><ele>505.0</ele><time>2026-05-02T09:04:59.593Z</time></trkpt><trkpt lat="46.1277333" lon="13.60123"><ele>505.0</ele><time>2026-05-02T09:05:00.593Z</time></trkpt><trkpt lat="46.12772" lon="13.60133"><ele>504.99999999999994</ele><time>2026-05-02T09:05:01.593Z</time></trkpt><trkpt lat="46.12771" lon="13.6014433"><ele>505.0</ele><time>2026-05-02T09:05:02.594Z</time></trkpt><trkpt lat="46.1277117" lon="13.6015567"><ele>505.0</ele><time>2026-05-02T09:05:03.594Z</time></trkpt><trkpt lat="46.1277233" lon="13.6016517"><ele>504.8</ele><time>2026-05-02T09:05:04.592Z</time></trkpt><trkpt lat="46.1277133" lon="13.6018167"><ele>504.6</ele><time>2026-05-02T09:05:06.594Z</time></trkpt><trkpt lat="46.1276683" lon="13.6019583"><ele>504.4</ele><time>2026-05-02T09:05:08.593Z</time></trkpt><trkpt lat="46.1276267" lon="13.6020817"><ele>504.2</ele><time>2026-05-02T09:05:10.595Z</time></trkpt><trkpt lat="46.12758" lon="13.6022017"><ele>504.0</ele><time>2026-05-02T09:05:12.594Z</time></trkpt><trkpt lat="46.1276533" lon="13.602265"><ele>504.0</ele><time>2026-05-02T09:05:15.593Z</time></trkpt><trkpt lat="46.1277467" lon="13.6022883"><ele>504.0</ele><time>2026-05-02T09:05:17.594Z</time></trkpt><trkpt lat="46.12786" lon="13.6023333"><ele>504.0</ele><time>2026-05-02T09:05:19.593Z</time></trkpt><trkpt lat="46.12798" lon="13.602405"><ele>504.0</ele><time>2026-05-02T09:05:21.592Z</time></trkpt><trkpt lat="46.1280533" lon="13.6024617"><ele>504.0</ele><time>2026-05-02T09:05:22.595Z</time></trkpt><trkpt lat="46.12814" lon="13.6025117"><ele>504.0</ele><time>2026-05-02T09:05:23.594Z</time></trkpt><trkpt lat="46.128225" lon="13.6025583"><ele>504.0</ele><time>2026-05-02T09:05:24.592Z</time></trkpt><trkpt lat="46.1283417" lon="13.6025917"><ele>504.0</ele><time>2026-05-02T09:05:25.594Z</time></trkpt><trkpt lat="46.1284367" lon="13.60263"><ele>504.0</ele><time>2026-05-02T09:05:26.593Z</time></trkpt><trkpt lat="46.12854" lon="13.6026567"><ele>504.0</ele><time>2026-05-02T09:05:27.594Z</time></trkpt><trkpt lat="46.1286167" lon="13.6026583"><ele>500.8333333333333</ele><time>2026-05-02T09:05:28.594Z</time></trkpt><trkpt lat="46.1287017" lon="13.602655"><ele>497.66666666666663</ele><time>2026-05-02T09:05:29.593Z</time></trkpt><trkpt lat="46.1287933" lon="13.6026517"><ele>494.5</ele><time>2026-05-02T09:05:30.593Z</time></trkpt><trkpt lat="46.1288733" lon="13.602655"><ele>491.3333333333333</ele><time>2026-05-02T09:05:31.594Z</time></trkpt><trkpt lat="46.128955" lon="13.60267"><ele>488.16666666666663</ele><time>2026-05-02T09:05:32.593Z</time></trkpt><trkpt lat="46.1290267" lon="13.60269"><ele>485.0</ele><time>2026-05-02T09:05:33.593Z</time></trkpt><trkpt lat="46.1291383" lon="13.60274"><ele>483.4</ele><time>2026-05-02T09:05:35.594Z</time></trkpt><trkpt lat="46.1292183" lon="13.60283"><ele>481.8</ele><time>2026-05-02T09:05:37.593Z</time></trkpt><trkpt lat="46.1292974" lon="13.6029066"><ele>480.20000000000005</ele><time>2026-05-02T09:05:39.594Z</time></trkpt><trkpt lat="46.1294229" lon="13.6029779"><ele>478.6</ele><time>2026-05-02T09:05:41.593Z</time></trkpt><trkpt lat="46.1294969" lon="13.6030233"><ele>477.0</ele><time>2026-05-02T09:05:42.594Z</time></trkpt><trkpt lat="46.1295724" lon="13.6030678"><ele>478.1666666666667</ele><time>2026-05-02T09:05:43.593Z</time></trkpt><trkpt lat="46.1296605" lon="13.603103"><ele>479.33333333333337</ele><time>2026-05-02T09:05:44.593Z</time></trkpt><trkpt lat="46.1297516" lon="13.6031341"><ele>480.5</ele><time>2026-05-02T09:05:45.593Z</time></trkpt><trkpt lat="46.1298343" lon="13.6031708"><ele>481.6666666666667</ele><time>2026-05-02T09:05:46.593Z</time></trkpt><trkpt lat="46.1299073" lon="13.6032104"><ele>482.83333333333337</ele><time>2026-05-02T09:05:47.594Z</time></trkpt><trkpt lat="46.1299696" lon="13.6032493"><ele>484.0</ele><time>2026-05-02T09:05:48.593Z</time></trkpt><trkpt lat="46.1300632" lon="13.6033445"><ele>484.00000000000006</ele><time>2026-05-02T09:05:50.594Z</time></trkpt><trkpt lat="46.1300998" lon="13.6034724"><ele>484.0</ele><time>2026-05-02T09:05:52.594Z</time></trkpt><trkpt lat="46.1300758" lon="13.6036327"><ele>484.0</ele><time>2026-05-02T09:05:54.593Z</time></trkpt><trkpt lat="46.1300513" lon="13.6037278"><ele>484.0</ele><time>2026-05-02T09:05:55.594Z</time></trkpt><trkpt lat="46.1300288" lon="13.6038369"><ele>484.00000000000006</ele><time>2026-05-02T09:05:56.594Z</time></trkpt><trkpt lat="46.1300017" lon="13.6039481"><ele>484.0</ele><time>2026-05-02T09:05:57.592Z</time></trkpt><trkpt lat="46.1299742" lon="13.6040511"><ele>484.0</ele><time>2026-05-02T09:05:58.594Z</time></trkpt><trkpt lat="46.1299383" lon="13.6042101"><ele>484.0</ele><time>2026-05-02T09:06:00.593Z</time></trkpt><trkpt lat="46.1299133" lon="13.6043071"><ele>484.0</ele><time>2026-05-02T09:06:01.594Z</time></trkpt><trkpt lat="46.1298895" lon="13.6044261"><ele>484.0</ele><time>2026-05-02T09:06:02.593Z</time></trkpt><trkpt lat="46.1298618" lon="13.6045582"><ele>484.0</ele><time>2026-05-02T09:06:03.594Z</time></trkpt><trkpt lat="46.1298329" lon="13.6046833"><ele>487.1428571428571</ele><time>2026-05-02T09:06:04.594Z</time></trkpt><trkpt lat="46.1298051" lon="13.6047944"><ele>490.2857142857142</ele><time>2026-05-02T09:06:05.594Z</time></trkpt><trkpt lat="46.1297761" lon="13.6048894"><ele>493.42857142857144</ele><time>2026-05-02T09:06:06.593Z</time></trkpt><trkpt lat="46.1297431" lon="13.6049784"><ele>496.57142857142856</ele><time>2026-05-02T09:06:07.594Z</time></trkpt><trkpt lat="46.1297101" lon="13.6050692"><ele>499.7142857142857</ele><time>2026-05-02T09:06:08.593Z</time></trkpt><trkpt lat="46.1296761" lon="13.6051595"><ele>502.8571428571429</ele><time>2026-05-02T09:06:09.593Z</time></trkpt><trkpt lat="46.1296427" lon="13.6052475"><ele>506.00000000000006</ele><time>2026-05-02T09:06:10.594Z</time></trkpt><trkpt lat="46.1296053" lon="13.6053371"><ele>505.99999999999994</ele><time>2026-05-02T09:06:11.594Z</time></trkpt><trkpt lat="46.1295623" lon="13.6054392"><ele>506.0</ele><time>2026-05-02T09:06:12.594Z</time></trkpt><trkpt lat="46.1295177" lon="13.6055521"><ele>506.0</ele><time>2026-05-02T09:06:13.594Z</time></trkpt><trkpt lat="46.1294741" lon="13.6056686"><ele>506.0</ele><time>2026-05-02T09:06:14.593Z</time></trkpt><trkpt lat="46.1294313" lon="13.6057783"><ele>505.99999999999994</ele><time>2026-05-02T09:06:15.593Z</time></trkpt><trkpt lat="46.1293859" lon="13.6058863"><ele>506.0</ele><time>2026-05-02T09:06:16.593Z</time></trkpt><trkpt lat="46.1293473" lon="13.6059945"><ele>505.99999999999994</ele><time>2026-05-02T09:06:17.593Z</time></trkpt><trkpt lat="46.1293207" lon="13.6061113"><ele>506.0</ele><time>2026-05-02T09:06:18.593Z</time></trkpt><trkpt lat="46.129299" lon="13.6062343"><ele>506.0</ele><time>2026-05-02T09:06:19.593Z</time></trkpt><trkpt lat="46.1292796" lon="13.6063515"><ele>506.0</ele><time>2026-05-02T09:06:20.594Z</time></trkpt><trkpt lat="46.1292688" lon="13.6064582"><ele>505.99999999999994</ele><time>2026-05-02T09:06:21.593Z</time></trkpt><trkpt lat="46.1292689" lon="13.6065602"><ele>506.0</ele><time>2026-05-02T09:06:22.594Z</time></trkpt><trkpt lat="46.1292759" lon="13.6066512"><ele>502.8</ele><time>2026-05-02T09:06:23.594Z</time></trkpt><trkpt lat="46.1292664" lon="13.6068099"><ele>499.6</ele><time>2026-05-02T09:06:25.594Z</time></trkpt><trkpt lat="46.1292077" lon="13.6069743"><ele>496.4</ele><time>2026-05-02T09:06:27.594Z</time></trkpt><trkpt lat="46.1291797" lon="13.6070561"><ele>493.2</ele><time>2026-05-02T09:06:28.595Z</time></trkpt><trkpt lat="46.1291345" lon="13.607218"><ele>490.0</ele><time>2026-05-02T09:06:30.593Z</time></trkpt><trkpt lat="46.1290987" lon="13.6073653"><ele>490.0</ele><time>2026-05-02T09:06:32.593Z</time></trkpt><trkpt lat="46.1290736" lon="13.6074803"><ele>490.0</ele><time>2026-05-02T09:06:34.592Z</time></trkpt><trkpt lat="46.1290712" lon="13.6075755"><ele>490.0</ele><time>2026-05-02T09:06:36.594Z</time></trkpt><trkpt lat="46.1293311" lon="13.607604"><ele>490.0</ele><time>2026-05-02T09:06:42.593Z</time></trkpt><trkpt lat="46.1294405" lon="13.6076088"><ele>490.0</ele><time>2026-05-02T09:06:43.594Z</time></trkpt><trkpt lat="46.1295551" lon="13.6076185"><ele>490.0</ele><time>2026-05-02T09:06:44.594Z</time></trkpt><trkpt lat="46.1296655" lon="13.607628"><ele>490.0</ele><time>2026-05-02T09:06:45.593Z</time></trkpt><trkpt lat="46.1297719" lon="13.6076402"><ele>490.0</ele><time>2026-05-02T09:06:46.594Z</time></trkpt><trkpt lat="46.12988" lon="13.6076679"><ele>490.0</ele><time>2026-05-02T09:06:47.593Z</time></trkpt><trkpt lat="46.1299796" lon="13.6076984"><ele>491.1666666666667</ele><time>2026-05-02T09:06:48.594Z</time></trkpt><trkpt lat="46.1300683" lon="13.6077279"><ele>492.33333333333337</ele><time>2026-05-02T09:06:49.594Z</time></trkpt><trkpt lat="46.1301445" lon="13.6077636"><ele>493.5</ele><time>2026-05-02T09:06:50.593Z</time></trkpt><trkpt lat="46.1302104" lon="13.6078028"><ele>494.66666666666663</ele><time>2026-05-02T09:06:51.594Z</time></trkpt><trkpt lat="46.1302774" lon="13.6078726"><ele>495.8333333333333</ele><time>2026-05-02T09:06:53.593Z</time></trkpt><trkpt lat="46.1302874" lon="13.6079695"><ele>497.0</ele><time>2026-05-02T09:06:55.594Z</time></trkpt><trkpt lat="46.1302879" lon="13.6081274"><ele>497.0</ele><time>2026-05-02T09:06:57.594Z</time></trkpt><trkpt lat="46.1302779" lon="13.6082296"><ele>497.0</ele><time>2026-05-02T09:06:58.594Z</time></trkpt><trkpt lat="46.1302588" lon="13.6083333"><ele>497.0</ele><time>2026-05-02T09:06:59.593Z</time></trkpt><trkpt lat="46.1302425" lon="13.6084306"><ele>497.0</ele><time>2026-05-02T09:07:00.593Z</time></trkpt><trkpt lat="46.1302252" lon="13.6085337"><ele>497.0</ele><time>2026-05-02T09:07:01.594Z</time></trkpt><trkpt lat="46.1302053" lon="13.6086372"><ele>497.0</ele><time>2026-05-02T09:07:02.593Z</time></trkpt><trkpt lat="46.1301881" lon="13.6087445"><ele>497.0</ele><time>2026-05-02T09:07:03.594Z</time></trkpt><trkpt lat="46.1301617" lon="13.6088447"><ele>498.3333333333333</ele><time>2026-05-02T09:07:04.593Z</time></trkpt><trkpt lat="46.1301269" lon="13.6089412"><ele>499.66666666666663</ele><time>2026-05-02T09:07:05.593Z</time></trkpt><trkpt lat="46.1300862" lon="13.6090298"><ele>501.0</ele><time>2026-05-02T09:07:06.594Z</time></trkpt><trkpt lat="46.1300474" lon="13.6091087"><ele>502.33333333333337</ele><time>2026-05-02T09:07:07.595Z</time></trkpt><trkpt lat="46.1299986" lon="13.6092439"><ele>503.6666666666667</ele><time>2026-05-02T09:07:09.594Z</time></trkpt><trkpt lat="46.1300176" lon="13.6093428"><ele>505.0</ele><time>2026-05-02T09:07:11.594Z</time></trkpt><trkpt lat="46.1301077" lon="13.6094011"><ele>505.0</ele><time>2026-05-02T09:07:13.594Z</time></trkpt><trkpt lat="46.1301964" lon="13.6093743"><ele>505.0</ele><time>2026-05-02T09:07:14.594Z</time></trkpt><trkpt lat="46.1302863" lon="13.6093488"><ele>505.0</ele><time>2026-05-02T09:07:15.593Z</time></trkpt><trkpt lat="46.1303827" lon="13.609326"><ele>505.0</ele><time>2026-05-02T09:07:16.595Z</time></trkpt><trkpt lat="46.1304781" lon="13.6093088"><ele>505.0</ele><time>2026-05-02T09:07:17.594Z</time></trkpt><trkpt lat="46.1305715" lon="13.6092927"><ele>505.00000000000006</ele><time>2026-05-02T09:07:18.593Z</time></trkpt><trkpt lat="46.1306591" lon="13.6092791"><ele>505.0</ele><time>2026-05-02T09:07:19.595Z</time></trkpt><trkpt lat="46.1307325" lon="13.6092698"><ele>505.0</ele><time>2026-05-02T09:07:20.595Z</time></trkpt><trkpt lat="46.1307972" lon="13.6092812"><ele>505.0</ele><time>2026-05-02T09:07:21.593Z</time></trkpt><trkpt lat="46.1309142" lon="13.609343"><ele>505.00000000000006</ele><time>2026-05-02T09:07:23.595Z</time></trkpt><trkpt lat="46.1309765" lon="13.6093934"><ele>505.0</ele><time>2026-05-02T09:07:24.594Z</time></trkpt><trkpt lat="46.1310394" lon="13.6094359"><ele>501.33333333333337</ele><time>2026-05-02T09:07:25.593Z</time></trkpt><trkpt lat="46.1311004" lon="13.609465"><ele>497.6666666666667</ele><time>2026-05-02T09:07:26.593Z</time></trkpt><trkpt lat="46.1312025" lon="13.6094738"><ele>494.0</ele><time>2026-05-02T09:07:28.594Z</time></trkpt><trkpt lat="46.1312571" lon="13.6094181"><ele>490.33333333333337</ele><time>2026-05-02T09:07:30.594Z</time></trkpt><trkpt lat="46.1312908" lon="13.6092733"><ele>486.6666666666667</ele><time>2026-05-02T09:07:32.594Z</time></trkpt><trkpt lat="46.1313184" lon="13.6091498"><ele>483.0</ele><time>2026-05-02T09:07:33.594Z</time></trkpt><trkpt lat="46.131354" lon="13.609022"><ele>483.0</ele><time>2026-05-02T09:07:34.593Z</time></trkpt><trkpt lat="46.1314061" lon="13.608885"><ele>482.99999999999994</ele><time>2026-05-02T09:07:35.594Z</time></trkpt><trkpt lat="46.1314754" lon="13.6087536"><ele>482.99999999999994</ele><time>2026-05-02T09:07:36.593Z</time></trkpt><trkpt lat="46.1315485" lon="13.6086334"><ele>483.0</ele><time>2026-05-02T09:07:37.596Z</time></trkpt><trkpt lat="46.1316094" lon="13.6085345"><ele>483.0</ele><time>2026-05-02T09:07:38.594Z</time></trkpt><trkpt lat="46.1316649" lon="13.6084348"><ele>483.3333333333333</ele><time>2026-05-02T09:07:39.594Z</time></trkpt><trkpt lat="46.1317106" lon="13.6083501"><ele>483.66666666666663</ele><time>2026-05-02T09:07:40.593Z</time></trkpt><trkpt lat="46.1317533" lon="13.6082713"><ele>484.0</ele><time>2026-05-02T09:07:41.594Z</time></trkpt><trkpt lat="46.1317987" lon="13.6081876"><ele>484.3333333333333</ele><time>2026-05-02T09:07:42.594Z</time></trkpt><trkpt lat="46.1318423" lon="13.608087"><ele>484.66666666666663</ele><time>2026-05-02T09:07:43.594Z</time></trkpt><trkpt lat="46.1318931" lon="13.6079728"><ele>485.0</ele><time>2026-05-02T09:07:44.593Z</time></trkpt><trkpt lat="46.1319471" lon="13.6078691"><ele>480.8333333333333</ele><time>2026-05-02T09:07:45.596Z</time></trkpt><trkpt lat="46.1319984" lon="13.6077766"><ele>476.66666666666663</ele><time>2026-05-02T09:07:46.593Z</time></trkpt><trkpt lat="46.1320492" lon="13.6077053"><ele>472.5</ele><time>2026-05-02T09:07:47.593Z</time></trkpt><trkpt lat="46.1321004" lon="13.607649"><ele>468.33333333333337</ele><time>2026-05-02T09:07:48.593Z</time></trkpt><trkpt lat="46.132193" lon="13.6075709"><ele>464.1666666666667</ele><time>2026-05-02T09:07:50.593Z</time></trkpt><trkpt lat="46.1322671" lon="13.6075655"><ele>460.0</ele><time>2026-05-02T09:07:52.594Z</time></trkpt><trkpt lat="46.1323539" lon="13.6076334"><ele>467.4</ele><time>2026-05-02T09:07:54.593Z</time></trkpt><trkpt lat="46.132409" lon="13.6076786"><ele>474.8</ele><time>2026-05-02T09:07:55.594Z</time></trkpt><trkpt lat="46.1324696" lon="13.6077103"><ele>482.20000000000005</ele><time>2026-05-02T09:07:56.594Z</time></trkpt><trkpt lat="46.1325844" lon="13.6076901"><ele>489.6</ele><time>2026-05-02T09:07:58.594Z</time></trkpt><trkpt lat="46.1326731" lon="13.607548"><ele>497.0</ele><time>2026-05-02T09:08:00.594Z</time></trkpt><trkpt lat="46.1327243" lon="13.6074496"><ele>497.0</ele><time>2026-05-02T09:08:01.593Z</time></trkpt><trkpt lat="46.1327943" lon="13.6073284"><ele>497.00000000000006</ele><time>2026-05-02T09:08:02.593Z</time></trkpt><trkpt lat="46.1328643" lon="13.607205"><ele>497.00000000000006</ele><time>2026-05-02T09:08:03.593Z</time></trkpt><trkpt lat="46.1329253" lon="13.6071016"><ele>497.0</ele><time>2026-05-02T09:08:04.593Z</time></trkpt><trkpt lat="46.1329776" lon="13.6070147"><ele>497.0</ele><time>2026-05-02T09:08:05.594Z</time></trkpt><trkpt lat="46.1330252" lon="13.6069538"><ele>494.40000000000003</ele><time>2026-05-02T09:08:06.594Z</time></trkpt><trkpt lat="46.1331029" lon="13.606893"><ele>491.80000000000007</ele><time>2026-05-02T09:08:08.594Z</time></trkpt><trkpt lat="46.1331833" lon="13.6069225"><ele>489.2</ele><time>2026-05-02T09:08:10.594Z</time></trkpt><trkpt lat="46.1333145" lon="13.6069924"><ele>486.6</ele><time>2026-05-02T09:08:12.593Z</time></trkpt><trkpt lat="46.133401" lon="13.6070151"><ele>484.0</ele><time>2026-05-02T09:08:13.595Z</time></trkpt><trkpt lat="46.1334855" lon="13.6070337"><ele>490.33333333333337</ele><time>2026-05-02T09:08:14.594Z</time></trkpt><trkpt lat="46.1335649" lon="13.607042"><ele>496.6666666666667</ele><time>2026-05-02T09:08:15.594Z</time></trkpt><trkpt lat="46.1336333" lon="13.6070378"><ele>503.0</ele><time>2026-05-02T09:08:16.593Z</time></trkpt><trkpt lat="46.1337414" lon="13.6070491"><ele>509.33333333333337</ele><time>2026-05-02T09:08:18.594Z</time></trkpt><trkpt lat="46.1338548" lon="13.6070724"><ele>515.6666666666666</ele><time>2026-05-02T09:08:20.595Z</time></trkpt><trkpt lat="46.1339227" lon="13.6070874"><ele>522.0</ele><time>2026-05-02T09:08:21.594Z</time></trkpt><trkpt lat="46.1339886" lon="13.6071031"><ele>522.0</ele><time>2026-05-02T09:08:22.595Z</time></trkpt><trkpt lat="46.1340546" lon="13.6071155"><ele>522.0</ele><time>2026-05-02T09:08:23.593Z</time></trkpt><trkpt lat="46.1341211" lon="13.6071212"><ele>522.0</ele><time>2026-05-02T09:08:24.594Z</time></trkpt><trkpt lat="46.1341846" lon="13.6071197"><ele>522.0</ele><time>2026-05-02T09:08:25.597Z</time></trkpt><trkpt lat="46.1342476" lon="13.6071165"><ele>522.0</ele><time>2026-05-02T09:08:26.596Z</time></trkpt><trkpt lat="46.1343114" lon="13.6071178"><ele>522.0</ele><time>2026-05-02T09:08:27.594Z</time></trkpt><trkpt lat="46.1343785" lon="13.6071275"><ele>522.0</ele><time>2026-05-02T09:08:28.595Z</time></trkpt><trkpt lat="46.1344474" lon="13.6071492"><ele>521.1666666666666</ele><time>2026-05-02T09:08:29.594Z</time></trkpt><trkpt lat="46.1345178" lon="13.6071817"><ele>520.3333333333334</ele><time>2026-05-02T09:08:30.594Z</time></trkpt><trkpt lat="46.1345911" lon="13.607219"><ele>519.5</ele><time>2026-05-02T09:08:31.594Z</time></trkpt><trkpt lat="46.1346585" lon="13.6072517"><ele>518.6666666666667</ele><time>2026-05-02T09:08:32.594Z</time></trkpt><trkpt lat="46.1347454" lon="13.6073416"><ele>517.8333333333334</ele><time>2026-05-02T09:08:34.593Z</time></trkpt><trkpt lat="46.1348263" lon="13.6074422"><ele>517.0</ele><time>2026-05-02T09:08:36.593Z</time></trkpt><trkpt lat="46.1349295" lon="13.6075091"><ele>519.4</ele><time>2026-05-02T09:08:38.594Z</time></trkpt><trkpt lat="46.1350484" lon="13.6075602"><ele>521.8000000000001</ele><time>2026-05-02T09:08:40.594Z</time></trkpt><trkpt lat="46.1351495" lon="13.6076608"><ele>524.2</ele><time>2026-05-02T09:08:42.593Z</time></trkpt><trkpt lat="46.1351928" lon="13.6077393"><ele>526.6</ele><time>2026-05-02T09:08:43.594Z</time></trkpt><trkpt lat="46.1352352" lon="13.6078237"><ele>529.0</ele><time>2026-05-02T09:08:44.594Z</time></trkpt><trkpt lat="46.1352793" lon="13.6079002"><ele>529.0</ele><time>2026-05-02T09:08:45.593Z</time></trkpt><trkpt lat="46.1353252" lon="13.6079694"><ele>529.0</ele><time>2026-05-02T09:08:46.593Z</time></trkpt><trkpt lat="46.1353803" lon="13.6080219"><ele>529.0</ele><time>2026-05-02T09:08:47.593Z</time></trkpt><trkpt lat="46.1354388" lon="13.6080763"><ele>529.0</ele><time>2026-05-02T09:08:48.594Z</time></trkpt><trkpt lat="46.135497" lon="13.6081299"><ele>529.0</ele><time>2026-05-02T09:08:49.592Z</time></trkpt><trkpt lat="46.1355546" lon="13.6081754"><ele>529.0</ele><time>2026-05-02T09:08:50.593Z</time></trkpt><trkpt lat="46.1356651" lon="13.6082399"><ele>521.4</ele><time>2026-05-02T09:08:52.592Z</time></trkpt><trkpt lat="46.1357683" lon="13.6082851"><ele>513.8</ele><time>2026-05-02T09:08:54.592Z</time></trkpt><trkpt lat="46.1358327" lon="13.6083875"><ele>506.20000000000005</ele><time>2026-05-02T09:08:56.593Z</time></trkpt><trkpt lat="46.1358663" lon="13.6085316"><ele>498.6</ele><time>2026-05-02T09:08:58.592Z</time></trkpt><trkpt lat="46.1358755" lon="13.6086838"><ele>491.0</ele><time>2026-05-02T09:09:00.593Z</time></trkpt><trkpt lat="46.1358407" lon="13.6088612"><ele>490.99999999999994</ele><time>2026-05-02T09:09:02.592Z</time></trkpt><trkpt lat="46.1358109" lon="13.6089561"><ele>491.0</ele><time>2026-05-02T09:09:03.592Z</time></trkpt><trkpt lat="46.1357753" lon="13.6090563"><ele>491.0</ele><time>2026-05-02T09:09:04.593Z</time></trkpt><trkpt lat="46.1357354" lon="13.6091665"><ele>491.0</ele><time>2026-05-02T09:09:05.594Z</time></trkpt><trkpt lat="46.1357007" lon="13.6092733"><ele>490.99999999999994</ele><time>2026-05-02T09:09:06.593Z</time></trkpt><trkpt lat="46.1356692" lon="13.6093709"><ele>491.0</ele><time>2026-05-02T09:09:07.593Z</time></trkpt><trkpt lat="46.1356432" lon="13.6094726"><ele>497.66666666666663</ele><time>2026-05-02T09:09:08.593Z</time></trkpt><trkpt lat="46.1356125" lon="13.6095879"><ele>504.3333333333333</ele><time>2026-05-02T09:09:09.592Z</time></trkpt><trkpt lat="46.1355817" lon="13.609712"><ele>511.0</ele><time>2026-05-02T09:09:10.594Z</time></trkpt><trkpt lat="46.1355544" lon="13.609823"><ele>517.6666666666666</ele><time>2026-05-02T09:09:11.596Z</time></trkpt><trkpt lat="46.1355273" lon="13.6099133"><ele>524.3333333333334</ele><time>2026-05-02T09:09:12.593Z</time></trkpt><trkpt lat="46.1354908" lon="13.6100479"><ele>531.0</ele><time>2026-05-02T09:09:14.592Z</time></trkpt><trkpt lat="46.1354916" lon="13.610163"><ele>531.0</ele><time>2026-05-02T09:09:16.592Z</time></trkpt><trkpt lat="46.1355116" lon="13.610259"><ele>531.0</ele><time>2026-05-02T09:09:18.593Z</time></trkpt><trkpt lat="46.1355786" lon="13.610307"><ele>531.0</ele><time>2026-05-02T09:09:20.592Z</time></trkpt><trkpt lat="46.1357001" lon="13.6103667"><ele>531.0</ele><time>2026-05-02T09:09:22.594Z</time></trkpt><trkpt lat="46.1357767" lon="13.6104221"><ele>531.0</ele><time>2026-05-02T09:09:23.593Z</time></trkpt><trkpt lat="46.1358389" lon="13.6104841"><ele>531.0</ele><time>2026-05-02T09:09:24.592Z</time></trkpt><trkpt lat="46.135875" lon="13.6105631"><ele>528.5</ele><time>2026-05-02T09:09:25.593Z</time></trkpt><trkpt lat="46.1358915" lon="13.610654"><ele>526.0</ele><time>2026-05-02T09:09:26.594Z</time></trkpt><trkpt lat="46.1359019" lon="13.6107492"><ele>523.5</ele><time>2026-05-02T09:09:27.593Z</time></trkpt><trkpt lat="46.1359045" lon="13.6108496"><ele>521.0</ele><time>2026-05-02T09:09:28.593Z</time></trkpt><trkpt lat="46.135902" lon="13.6109498"><ele>518.5</ele><time>2026-05-02T09:09:29.592Z</time></trkpt><trkpt lat="46.1358929" lon="13.6110487"><ele>516.0</ele><time>2026-05-02T09:09:30.593Z</time></trkpt><trkpt lat="46.1358794" lon="13.6112142"><ele>516.0</ele><time>2026-05-02T09:09:32.594Z</time></trkpt><trkpt lat="46.1359189" lon="13.611342"><ele>516.0</ele><time>2026-05-02T09:09:34.592Z</time></trkpt><trkpt lat="46.1359989" lon="13.6114504"><ele>516.0</ele><time>2026-05-02T09:09:36.606Z</time></trkpt><trkpt lat="46.1360641" lon="13.611663"><ele>516.0</ele><time>2026-05-02T09:09:38.657Z</time></trkpt><trkpt lat="46.1360545" lon="13.6117536"><ele>516.0</ele><time>2026-05-02T09:09:39.673Z</time></trkpt><trkpt lat="46.1359736" lon="13.6118356"><ele>516.0</ele><time>2026-05-02T09:09:42.641Z</time></trkpt><trkpt lat="46.1358836" lon="13.6119042"><ele>516.0</ele><time>2026-05-02T09:09:44.683Z</time></trkpt><trkpt lat="46.1358055" lon="13.6120331"><ele>516.0</ele><time>2026-05-02T09:09:46.702Z</time></trkpt><trkpt lat="46.1357795" lon="13.6121755"><ele>516.0</ele><time>2026-05-02T09:09:48.669Z</time></trkpt><trkpt lat="46.1358339" lon="13.6122353"><ele>516.0</ele><time>2026-05-02T09:09:50.605Z</time></trkpt><trkpt lat="46.1358983" lon="13.6122669"><ele>517.0</ele><time>2026-05-02T09:09:53.603Z</time></trkpt><trkpt lat="46.1359678" lon="13.6123485"><ele>518.0</ele><time>2026-05-02T09:09:55.6Z</time></trkpt><trkpt lat="46.1360555" lon="13.6124602"><ele>519.0</ele><time>2026-05-02T09:09:57.633Z</time></trkpt><trkpt lat="46.136107" lon="13.6125185"><ele>520.0</ele><time>2026-05-02T09:09:58.66Z</time></trkpt><trkpt lat="46.1361515" lon="13.6125829"><ele>521.0</ele><time>2026-05-02T09:09:59.695Z</time></trkpt><trkpt lat="46.136194" lon="13.6127491"><ele>524.1666666666666</ele><time>2026-05-02T09:10:01.584Z</time></trkpt><trkpt lat="46.1362135" lon="13.6128495"><ele>527.3333333333333</ele><time>2026-05-02T09:10:02.631Z</time></trkpt><trkpt lat="46.1362342" lon="13.6129614"><ele>530.5</ele><time>2026-05-02T09:10:03.659Z</time></trkpt><trkpt lat="46.1362608" lon="13.6130667"><ele>533.6666666666666</ele><time>2026-05-02T09:10:04.672Z</time></trkpt><trkpt lat="46.1362975" lon="13.6131582"><ele>536.8333333333334</ele><time>2026-05-02T09:10:05.593Z</time></trkpt><trkpt lat="46.1363294" lon="13.6132412"><ele>540.0</ele><time>2026-05-02T09:10:06.614Z</time></trkpt><trkpt lat="46.1363796" lon="13.6133643"><ele>540.0</ele><time>2026-05-02T09:10:08.662Z</time></trkpt><trkpt lat="46.1364033" lon="13.6134538"><ele>540.0</ele><time>2026-05-02T09:10:09.592Z</time></trkpt><trkpt lat="46.1364818" lon="13.6135276"><ele>540.0</ele><time>2026-05-02T09:10:11.523Z</time></trkpt><trkpt lat="46.1365687" lon="13.6134897"><ele>540.0</ele><time>2026-05-02T09:10:13.653Z</time></trkpt><trkpt lat="46.1366596" lon="13.6133018"><ele>540.0</ele><time>2026-05-02T09:10:15.592Z</time></trkpt><trkpt lat="46.1367169" lon="13.6131524"><ele>535.6</ele><time>2026-05-02T09:10:16.593Z</time></trkpt><trkpt lat="46.1367731" lon="13.613016"><ele>531.2</ele><time>2026-05-02T09:10:17.595Z</time></trkpt><trkpt lat="46.1368181" lon="13.6128907"><ele>526.8</ele><time>2026-05-02T09:10:18.593Z</time></trkpt><trkpt lat="46.1368569" lon="13.6127694"><ele>522.4</ele><time>2026-05-02T09:10:19.593Z</time></trkpt><trkpt lat="46.1368933" lon="13.6126367"><ele>518.0</ele><time>2026-05-02T09:10:20.593Z</time></trkpt><trkpt lat="46.1369317" lon="13.6125383"><ele>515.0</ele><time>2026-05-02T09:10:21.593Z</time></trkpt><trkpt lat="46.1369767" lon="13.612445"><ele>511.99999999999994</ele><time>2026-05-02T09:10:22.592Z</time></trkpt><trkpt lat="46.1370317" lon="13.6123583"><ele>508.99999999999994</ele><time>2026-05-02T09:10:23.594Z</time></trkpt><trkpt lat="46.137085" lon="13.612295"><ele>506.0</ele><time>2026-05-02T09:10:24.594Z</time></trkpt><trkpt lat="46.13719" lon="13.612205"><ele>503.0</ele><time>2026-05-02T09:10:26.593Z</time></trkpt><trkpt lat="46.1372967" lon="13.6121733"><ele>503.0</ele><time>2026-05-02T09:10:28.592Z</time></trkpt><trkpt lat="46.13738" lon="13.6120917"><ele>502.99999999999994</ele><time>2026-05-02T09:10:30.592Z</time></trkpt><trkpt lat="46.13739" lon="13.6119717"><ele>502.99999999999994</ele><time>2026-05-02T09:10:32.593Z</time></trkpt><trkpt lat="46.13735" lon="13.61181"><ele>503.0</ele><time>2026-05-02T09:10:34.592Z</time></trkpt><trkpt lat="46.1373267" lon="13.6117083"><ele>503.0</ele><time>2026-05-02T09:10:35.593Z</time></trkpt><trkpt lat="46.1372983" lon="13.61161"><ele>501.14285714285717</ele><time>2026-05-02T09:10:36.594Z</time></trkpt><trkpt lat="46.1372733" lon="13.6115117"><ele>499.28571428571433</ele><time>2026-05-02T09:10:37.593Z</time></trkpt><trkpt lat="46.137255" lon="13.6114083"><ele>497.42857142857144</ele><time>2026-05-02T09:10:38.594Z</time></trkpt><trkpt lat="46.1372417" lon="13.6113167"><ele>495.57142857142856</ele><time>2026-05-02T09:10:39.593Z</time></trkpt><trkpt lat="46.1372367" lon="13.611225"><ele>493.7142857142857</ele><time>2026-05-02T09:10:40.594Z</time></trkpt><trkpt lat="46.1372317" lon="13.6111083"><ele>491.8571428571429</ele><time>2026-05-02T09:10:41.594Z</time></trkpt><trkpt lat="46.1372283" lon="13.6109817"><ele>490.0</ele><time>2026-05-02T09:10:42.594Z</time></trkpt><trkpt lat="46.1372233" lon="13.610835"><ele>487.33333333333337</ele><time>2026-05-02T09:10:43.593Z</time></trkpt><trkpt lat="46.137225" lon="13.61069"><ele>484.6666666666667</ele><time>2026-05-02T09:10:44.595Z</time></trkpt><trkpt lat="46.1372333" lon="13.61056"><ele>482.0</ele><time>2026-05-02T09:10:45.593Z</time></trkpt><trkpt lat="46.1372367" lon="13.6104417"><ele>479.33333333333337</ele><time>2026-05-02T09:10:46.593Z</time></trkpt><trkpt lat="46.137245" lon="13.610335"><ele>476.6666666666667</ele><time>2026-05-02T09:10:47.593Z</time></trkpt><trkpt lat="46.13726" lon="13.6102317"><ele>474.0</ele><time>2026-05-02T09:10:48.594Z</time></trkpt><trkpt lat="46.1372883" lon="13.6101167"><ele>476.0</ele><time>2026-05-02T09:10:49.594Z</time></trkpt><trkpt lat="46.137335" lon="13.6099917"><ele>478.0</ele><time>2026-05-02T09:10:50.594Z</time></trkpt><trkpt lat="46.137395" lon="13.60988"><ele>480.0</ele><time>2026-05-02T09:10:51.593Z</time></trkpt><trkpt lat="46.13747" lon="13.609785"><ele>482.0</ele><time>2026-05-02T09:10:52.593Z</time></trkpt><trkpt lat="46.1375417" lon="13.609705"><ele>484.0</ele><time>2026-05-02T09:10:53.594Z</time></trkpt><trkpt lat="46.1376117" lon="13.6096417"><ele>484.00000000000006</ele><time>2026-05-02T09:10:54.593Z</time></trkpt><trkpt lat="46.1376767" lon="13.6095767"><ele>484.0</ele><time>2026-05-02T09:10:55.593Z</time></trkpt><trkpt lat="46.1377433" lon="13.6095067"><ele>484.0</ele><time>2026-05-02T09:10:56.593Z</time></trkpt><trkpt lat="46.13781" lon="13.609425"><ele>484.0</ele><time>2026-05-02T09:10:57.594Z</time></trkpt><trkpt lat="46.1378733" lon="13.609345"><ele>484.00000000000006</ele><time>2026-05-02T09:10:58.594Z</time></trkpt><trkpt lat="46.1379333" lon="13.609275"><ele>484.0</ele><time>2026-05-02T09:10:59.593Z</time></trkpt><trkpt lat="46.13799" lon="13.6092133"><ele>486.00000000000006</ele><time>2026-05-02T09:11:00.592Z</time></trkpt><trkpt lat="46.1380317" lon="13.609135"><ele>488.0</ele><time>2026-05-02T09:11:01.594Z</time></trkpt><trkpt lat="46.1381133" lon="13.6090383"><ele>490.0</ele><time>2026-05-02T09:11:03.594Z</time></trkpt><trkpt lat="46.1381833" lon="13.609025"><ele>492.0</ele><time>2026-05-02T09:11:05.593Z</time></trkpt><trkpt lat="46.13826" lon="13.6090783"><ele>494.00000000000006</ele><time>2026-05-02T09:11:07.594Z</time></trkpt><trkpt lat="46.138335" lon="13.60918"><ele>496.0</ele><time>2026-05-02T09:11:09.593Z</time></trkpt><trkpt lat="46.13839" lon="13.6092517"><ele>496.0</ele><time>2026-05-02T09:11:10.592Z</time></trkpt><trkpt lat="46.138465" lon="13.6093417"><ele>496.0</ele><time>2026-05-02T09:11:11.593Z</time></trkpt><trkpt lat="46.138535" lon="13.6094183"><ele>496.0</ele><time>2026-05-02T09:11:12.593Z</time></trkpt><trkpt lat="46.1386083" lon="13.6095"><ele>496.0</ele><time>2026-05-02T09:11:13.594Z</time></trkpt><trkpt lat="46.1386933" lon="13.6095767"><ele>496.0</ele><time>2026-05-02T09:11:14.594Z</time></trkpt><trkpt lat="46.1387767" lon="13.6096583"><ele>496.83333333333337</ele><time>2026-05-02T09:11:15.593Z</time></trkpt><trkpt lat="46.1388517" lon="13.6097317"><ele>497.6666666666667</ele><time>2026-05-02T09:11:16.594Z</time></trkpt><trkpt lat="46.138915" lon="13.6098033"><ele>498.5</ele><time>2026-05-02T09:11:17.594Z</time></trkpt><trkpt lat="46.1389767" lon="13.60986"><ele>499.33333333333337</ele><time>2026-05-02T09:11:18.592Z</time></trkpt><trkpt lat="46.1390667" lon="13.6099617"><ele>500.1666666666667</ele><time>2026-05-02T09:11:20.593Z</time></trkpt><trkpt lat="46.1390717" lon="13.6100883"><ele>501.0</ele><time>2026-05-02T09:11:22.594Z</time></trkpt><trkpt lat="46.139025" lon="13.6102567"><ele>505.8333333333333</ele><time>2026-05-02T09:11:24.592Z</time></trkpt><trkpt lat="46.1390117" lon="13.610365"><ele>510.66666666666663</ele><time>2026-05-02T09:11:25.593Z</time></trkpt><trkpt lat="46.13899" lon="13.61048"><ele>515.5</ele><time>2026-05-02T09:11:26.593Z</time></trkpt><trkpt lat="46.138975" lon="13.610595"><ele>520.3333333333333</ele><time>2026-05-02T09:11:27.594Z</time></trkpt><trkpt lat="46.138955" lon="13.6107017"><ele>525.1666666666666</ele><time>2026-05-02T09:11:28.593Z</time></trkpt><trkpt lat="46.1389533" lon="13.6107983"><ele>530.0</ele><time>2026-05-02T09:11:29.594Z</time></trkpt><trkpt lat="46.1389283" lon="13.6109083"><ele>530.0</ele><time>2026-05-02T09:11:30.593Z</time></trkpt><trkpt lat="46.1389133" lon="13.611"><ele>530.0</ele><time>2026-05-02T09:11:31.593Z</time></trkpt><trkpt lat="46.1388733" lon="13.6111533"><ele>530.0</ele><time>2026-05-02T09:11:33.592Z</time></trkpt><trkpt lat="46.1388883" lon="13.6112917"><ele>530.0</ele><time>2026-05-02T09:11:35.593Z</time></trkpt><trkpt lat="46.1389667" lon="13.6113967"><ele>530.0</ele><time>2026-05-02T09:11:37.594Z</time></trkpt><trkpt lat="46.139075" lon="13.6114167"><ele>529.6</ele><time>2026-05-02T09:11:38.594Z</time></trkpt><trkpt lat="46.13918" lon="13.6114633"><ele>529.2</ele><time>2026-05-02T09:11:39.594Z</time></trkpt><trkpt lat="46.13928" lon="13.6114967"><ele>528.8</ele><time>2026-05-02T09:11:40.593Z</time></trkpt><trkpt lat="46.13938" lon="13.6115183"><ele>528.4</ele><time>2026-05-02T09:11:41.594Z</time></trkpt><trkpt lat="46.1394683" lon="13.6115167"><ele>528.0</ele><time>2026-05-02T09:11:42.593Z</time></trkpt><trkpt lat="46.1395467" lon="13.6115233"><ele>528.0</ele><time>2026-05-02T09:11:43.593Z</time></trkpt><trkpt lat="46.13963" lon="13.611525"><ele>528.0</ele><time>2026-05-02T09:11:44.595Z</time></trkpt><trkpt lat="46.1396983" lon="13.61155"><ele>528.0</ele><time>2026-05-02T09:11:45.592Z</time></trkpt><trkpt lat="46.13976" lon="13.6115767"><ele>528.0</ele><time>2026-05-02T09:11:46.594Z</time></trkpt><trkpt lat="46.1398583" lon="13.6116683"><ele>528.0</ele><time>2026-05-02T09:11:48.593Z</time></trkpt><trkpt lat="46.13991" lon="13.611825"><ele>528.7142857142857</ele><time>2026-05-02T09:11:50.594Z</time></trkpt><trkpt lat="46.13992" lon="13.6119217"><ele>529.4285714285714</ele><time>2026-05-02T09:11:51.595Z</time></trkpt><trkpt lat="46.1399367" lon="13.6120183"><ele>530.1428571428571</ele><time>2026-05-02T09:11:52.594Z</time></trkpt><trkpt lat="46.1399667" lon="13.61212"><ele>530.8571428571429</ele><time>2026-05-02T09:11:53.593Z</time></trkpt><trkpt lat="46.139995" lon="13.612205"><ele>531.5714285714286</ele><time>2026-05-02T09:11:54.594Z</time></trkpt><trkpt lat="46.1400267" lon="13.6122967"><ele>532.2857142857142</ele><time>2026-05-02T09:11:55.594Z</time></trkpt><trkpt lat="46.140065" lon="13.61239"><ele>533.0</ele><time>2026-05-02T09:11:56.593Z</time></trkpt><trkpt lat="46.140095" lon="13.61249"><ele>533.0</ele><time>2026-05-02T09:11:57.593Z</time></trkpt><trkpt lat="46.1401166" lon="13.6125932"><ele>533.0</ele><time>2026-05-02T09:11:58.592Z</time></trkpt><trkpt lat="46.1401433" lon="13.6126914"><ele>533.0</ele><time>2026-05-02T09:11:59.593Z</time></trkpt><trkpt lat="46.1401678" lon="13.6127828"><ele>533.0</ele><time>2026-05-02T09:12:00.594Z</time></trkpt><trkpt lat="46.1401955" lon="13.6128673"><ele>533.0</ele><time>2026-05-02T09:12:01.593Z</time></trkpt><trkpt lat="46.1402571" lon="13.6130217"><ele>533.0</ele><time>2026-05-02T09:12:03.592Z</time></trkpt><trkpt lat="46.140321" lon="13.6131715"><ele>536.0</ele><time>2026-05-02T09:12:05.593Z</time></trkpt><trkpt lat="46.1403819" lon="13.6133441"><ele>539.0</ele><time>2026-05-02T09:12:07.594Z</time></trkpt><trkpt lat="46.14042" lon="13.6134532"><ele>542.0</ele><time>2026-05-02T09:12:08.593Z</time></trkpt><trkpt lat="46.1404561" lon="13.6135675"><ele>545.0</ele><time>2026-05-02T09:12:09.594Z</time></trkpt><trkpt lat="46.1404691" lon="13.6136745"><ele>548.0</ele><time>2026-05-02T09:12:10.592Z</time></trkpt><trkpt lat="46.1404662" lon="13.6138155"><ele>550.6</ele><time>2026-05-02T09:12:12.593Z</time></trkpt><trkpt lat="46.1403772" lon="13.6137954"><ele>553.1999999999999</ele><time>2026-05-02T09:12:16.592Z</time></trkpt><trkpt lat="46.1403104" lon="13.6136813"><ele>555.8</ele><time>2026-05-02T09:12:18.593Z</time></trkpt><trkpt lat="46.1402401" lon="13.6137675"><ele>558.4</ele><time>2026-05-02T09:12:22.593Z</time></trkpt><trkpt lat="46.1402618" lon="13.6139099"><ele>561.0</ele><time>2026-05-02T09:12:24.594Z</time></trkpt><trkpt lat="46.1403003" lon="13.6139988"><ele>561.0</ele><time>2026-05-02T09:12:25.593Z</time></trkpt><trkpt lat="46.1403441" lon="13.6141122"><ele>561.0</ele><time>2026-05-02T09:12:26.593Z</time></trkpt><trkpt lat="46.1403849" lon="13.6142409"><ele>561.0</ele><time>2026-05-02T09:12:27.593Z</time></trkpt><trkpt lat="46.1404213" lon="13.6143796"><ele>561.0</ele><time>2026-05-02T09:12:28.594Z</time></trkpt><trkpt lat="46.1404446" lon="13.6145089"><ele>561.0</ele><time>2026-05-02T09:12:29.594Z</time></trkpt><trkpt lat="46.1404591" lon="13.6146157"><ele>563.6</ele><time>2026-05-02T09:12:30.593Z</time></trkpt><trkpt lat="46.140453" lon="13.6147624"><ele>566.2</ele><time>2026-05-02T09:12:32.594Z</time></trkpt><trkpt lat="46.1403555" lon="13.6147819"><ele>568.8</ele><time>2026-05-02T09:12:35.594Z</time></trkpt><trkpt lat="46.1402447" lon="13.6146828"><ele>571.4</ele><time>2026-05-02T09:12:37.594Z</time></trkpt><trkpt lat="46.140189" lon="13.6146192"><ele>574.0</ele><time>2026-05-02T09:12:38.593Z</time></trkpt><trkpt lat="46.1401372" lon="13.6145398"><ele>576.0</ele><time>2026-05-02T09:12:39.593Z</time></trkpt><trkpt lat="46.1400826" lon="13.6144497"><ele>578.0</ele><time>2026-05-02T09:12:40.593Z</time></trkpt><trkpt lat="46.1400175" lon="13.6143483"><ele>580.0</ele><time>2026-05-02T09:12:41.594Z</time></trkpt><trkpt lat="46.1399372" lon="13.6142421"><ele>582.0</ele><time>2026-05-02T09:12:42.594Z</time></trkpt><trkpt lat="46.139858" lon="13.6141457"><ele>584.0</ele><time>2026-05-02T09:12:43.594Z</time></trkpt><trkpt lat="46.139794" lon="13.6140512"><ele>584.0</ele><time>2026-05-02T09:12:44.594Z</time></trkpt><trkpt lat="46.1397409" lon="13.6139608"><ele>584.0</ele><time>2026-05-02T09:12:45.594Z</time></trkpt><trkpt lat="46.1396942" lon="13.6138937"><ele>584.0</ele><time>2026-05-02T09:12:46.593Z</time></trkpt><trkpt lat="46.1396366" lon="13.6138475"><ele>584.0</ele><time>2026-05-02T09:12:47.594Z</time></trkpt><trkpt lat="46.1395628" lon="13.6138168"><ele>584.0</ele><time>2026-05-02T09:12:48.595Z</time></trkpt><trkpt lat="46.1394921" lon="13.6137864"><ele>584.0</ele><time>2026-05-02T09:12:49.594Z</time></trkpt><trkpt lat="46.1394273" lon="13.6137441"><ele>584.0</ele><time>2026-05-02T09:12:50.595Z</time></trkpt><trkpt lat="46.1393705" lon="13.6136869"><ele>580.6666666666666</ele><time>2026-05-02T09:12:51.593Z</time></trkpt><trkpt lat="46.1393206" lon="13.6136233"><ele>577.3333333333333</ele><time>2026-05-02T09:12:52.593Z</time></trkpt><trkpt lat="46.1392744" lon="13.6135607"><ele>574.0</ele><time>2026-05-02T09:12:53.593Z</time></trkpt><trkpt lat="46.1391954" lon="13.6134766"><ele>570.6666666666666</ele><time>2026-05-02T09:12:55.594Z</time></trkpt><trkpt lat="46.1391069" lon="13.6134566"><ele>567.3333333333334</ele><time>2026-05-02T09:12:57.593Z</time></trkpt><trkpt lat="46.1390001" lon="13.6135534"><ele>564.0</ele><time>2026-05-02T09:12:59.593Z</time></trkpt><trkpt lat="46.1389315" lon="13.6136411"><ele>565.6</ele><time>2026-05-02T09:13:00.593Z</time></trkpt><trkpt lat="46.1388624" lon="13.6137481"><ele>567.2</ele><time>2026-05-02T09:13:01.595Z</time></trkpt><trkpt lat="46.1388" lon="13.6138669"><ele>568.8000000000001</ele><time>2026-05-02T09:13:02.593Z</time></trkpt><trkpt lat="46.1387375" lon="13.6139976"><ele>570.4</ele><time>2026-05-02T09:13:03.593Z</time></trkpt><trkpt lat="46.138667" lon="13.6141231"><ele>572.0</ele><time>2026-05-02T09:13:04.594Z</time></trkpt><trkpt lat="46.1385864" lon="13.6142345"><ele>572.0</ele><time>2026-05-02T09:13:05.594Z</time></trkpt><trkpt lat="46.1385" lon="13.6143299"><ele>572.0</ele><time>2026-05-02T09:13:06.594Z</time></trkpt><trkpt lat="46.1384099" lon="13.6144016"><ele>572.0</ele><time>2026-05-02T09:13:07.593Z</time></trkpt><trkpt lat="46.1383139" lon="13.6144463"><ele>572.0</ele><time>2026-05-02T09:13:08.593Z</time></trkpt><trkpt lat="46.138211" lon="13.6144642"><ele>572.0</ele><time>2026-05-02T09:13:09.593Z</time></trkpt><trkpt lat="46.1381006" lon="13.6144716"><ele>571.8000000000001</ele><time>2026-05-02T09:13:10.593Z</time></trkpt><trkpt lat="46.1379935" lon="13.6144843"><ele>571.6</ele><time>2026-05-02T09:13:11.594Z</time></trkpt><trkpt lat="46.1379021" lon="13.6144952"><ele>571.4000000000001</ele><time>2026-05-02T09:13:12.594Z</time></trkpt><trkpt lat="46.137825" lon="13.6145256"><ele>571.2</ele><time>2026-05-02T09:13:13.593Z</time></trkpt><trkpt lat="46.137761" lon="13.6146048"><ele>571.0</ele><time>2026-05-02T09:13:14.594Z</time></trkpt><trkpt lat="46.1377041" lon="13.6147195"><ele>571.0</ele><time>2026-05-02T09:13:15.594Z</time></trkpt><trkpt lat="46.1376579" lon="13.6148551"><ele>571.0</ele><time>2026-05-02T09:13:16.594Z</time></trkpt><trkpt lat="46.1376225" lon="13.6150084"><ele>571.0</ele><time>2026-05-02T09:13:17.594Z</time></trkpt><trkpt lat="46.1375901" lon="13.6151674"><ele>571.0</ele><time>2026-05-02T09:13:18.594Z</time></trkpt><trkpt lat="46.1375669" lon="13.6153355"><ele>574.8</ele><time>2026-05-02T09:13:19.594Z</time></trkpt><trkpt lat="46.1375506" lon="13.6154947"><ele>578.6</ele><time>2026-05-02T09:13:20.594Z</time></trkpt><trkpt lat="46.137531" lon="13.6156375"><ele>582.4</ele><time>2026-05-02T09:13:21.593Z</time></trkpt><trkpt lat="46.1375007" lon="13.6157563"><ele>586.2</ele><time>2026-05-02T09:13:22.593Z</time></trkpt><trkpt lat="46.1374542" lon="13.6158664"><ele>590.0</ele><time>2026-05-02T09:13:23.595Z</time></trkpt><trkpt lat="46.137383" lon="13.6159523"><ele>590.0</ele><time>2026-05-02T09:13:24.593Z</time></trkpt><trkpt lat="46.1372903" lon="13.6160207"><ele>590.0</ele><time>2026-05-02T09:13:25.594Z</time></trkpt><trkpt lat="46.1371721" lon="13.6160753"><ele>590.0</ele><time>2026-05-02T09:13:26.595Z</time></trkpt><trkpt lat="46.1370396" lon="13.6161146"><ele>590.0</ele><time>2026-05-02T09:13:27.595Z</time></trkpt><trkpt lat="46.1369179" lon="13.6161575"><ele>592.5</ele><time>2026-05-02T09:13:28.594Z</time></trkpt><trkpt lat="46.1367974" lon="13.6161834"><ele>595.0</ele><time>2026-05-02T09:13:29.594Z</time></trkpt><trkpt lat="46.1366696" lon="13.6161834"><ele>597.5</ele><time>2026-05-02T09:13:30.594Z</time></trkpt><trkpt lat="46.1365378" lon="13.6161609"><ele>600.0</ele><time>2026-05-02T09:13:31.593Z</time></trkpt><trkpt lat="46.1364004" lon="13.6161074"><ele>600.0</ele><time>2026-05-02T09:13:32.594Z</time></trkpt><trkpt lat="46.1362748" lon="13.6160441"><ele>600.0</ele><time>2026-05-02T09:13:33.594Z</time></trkpt><trkpt lat="46.136166" lon="13.6159809"><ele>600.0</ele><time>2026-05-02T09:13:34.593Z</time></trkpt><trkpt lat="46.1360787" lon="13.6159384"><ele>600.0</ele><time>2026-05-02T09:13:35.593Z</time></trkpt><trkpt lat="46.13602" lon="13.6159017"><ele>600.0</ele><time>2026-05-02T09:13:36.593Z</time></trkpt><trkpt lat="46.1359567" lon="13.6159167"><ele>600.0</ele><time>2026-05-02T09:13:37.594Z</time></trkpt><trkpt lat="46.1358917" lon="13.61598"><ele>600.0</ele><time>2026-05-02T09:13:39.593Z</time></trkpt><trkpt lat="46.1359467" lon="13.6160517"><ele>600.0</ele><time>2026-05-02T09:13:41.593Z</time></trkpt><trkpt lat="46.1360367" lon="13.6160617"><ele>600.0</ele><time>2026-05-02T09:13:42.595Z</time></trkpt><trkpt lat="46.1361417" lon="13.61609"><ele>600.0</ele><time>2026-05-02T09:13:43.593Z</time></trkpt><trkpt lat="46.13627" lon="13.6161667"><ele>607.3333333333334</ele><time>2026-05-02T09:13:44.595Z</time></trkpt><trkpt lat="46.1364033" lon="13.6162667"><ele>614.6666666666667</ele><time>2026-05-02T09:13:45.593Z</time></trkpt><trkpt lat="46.1365483" lon="13.6163317"><ele>622.0</ele><time>2026-05-02T09:13:46.594Z</time></trkpt><trkpt lat="46.1367083" lon="13.6163733"><ele>622.0</ele><time>2026-05-02T09:13:47.594Z</time></trkpt><trkpt lat="46.1368717" lon="13.6163867"><ele>622.0</ele><time>2026-05-02T09:13:48.593Z</time></trkpt><trkpt lat="46.1370333" lon="13.61638"><ele>622.0</ele><time>2026-05-02T09:13:49.594Z</time></trkpt><trkpt lat="46.137195" lon="13.6163633"><ele>622.0</ele><time>2026-05-02T09:13:50.594Z</time></trkpt><trkpt lat="46.1373467" lon="13.6163133"><ele>622.0</ele><time>2026-05-02T09:13:51.593Z</time></trkpt><trkpt lat="46.1374917" lon="13.6162667"><ele>622.0</ele><time>2026-05-02T09:13:52.593Z</time></trkpt><trkpt lat="46.1376167" lon="13.6161883"><ele>622.0</ele><time>2026-05-02T09:13:53.593Z</time></trkpt><trkpt lat="46.13772" lon="13.61606"><ele>615.25</ele><time>2026-05-02T09:13:54.593Z</time></trkpt><trkpt lat="46.1377933" lon="13.615885"><ele>608.5</ele><time>2026-05-02T09:13:55.594Z</time></trkpt><trkpt lat="46.137875" lon="13.6157083"><ele>601.75</ele><time>2026-05-02T09:13:56.593Z</time></trkpt><trkpt lat="46.137945" lon="13.6155267"><ele>595.0</ele><time>2026-05-02T09:13:57.593Z</time></trkpt><trkpt lat="46.1380117" lon="13.6153583"><ele>596.2</ele><time>2026-05-02T09:13:58.594Z</time></trkpt><trkpt lat="46.1380783" lon="13.61522"><ele>597.4</ele><time>2026-05-02T09:13:59.594Z</time></trkpt><trkpt lat="46.1381583" lon="13.615115"><ele>598.6</ele><time>2026-05-02T09:14:00.593Z</time></trkpt><trkpt lat="46.1382517" lon="13.615065"><ele>599.8</ele><time>2026-05-02T09:14:01.594Z</time></trkpt><trkpt lat="46.1383567" lon="13.6150533"><ele>601.0</ele><time>2026-05-02T09:14:02.594Z</time></trkpt><trkpt lat="46.1384717" lon="13.615055"><ele>601.0</ele><time>2026-05-02T09:14:03.593Z</time></trkpt><trkpt lat="46.138605" lon="13.6150683"><ele>601.0</ele><time>2026-05-02T09:14:04.594Z</time></trkpt><trkpt lat="46.138745" lon="13.61507"><ele>601.0</ele><time>2026-05-02T09:14:05.595Z</time></trkpt><trkpt lat="46.1388783" lon="13.615055"><ele>601.0</ele><time>2026-05-02T09:14:06.594Z</time></trkpt><trkpt lat="46.1389983" lon="13.6150233"><ele>601.0</ele><time>2026-05-02T09:14:07.594Z</time></trkpt><trkpt lat="46.1391033" lon="13.615"><ele>601.0</ele><time>2026-05-02T09:14:08.594Z</time></trkpt><trkpt lat="46.1391933" lon="13.615005"><ele>601.0</ele><time>2026-05-02T09:14:09.593Z</time></trkpt><trkpt lat="46.1392633" lon="13.6150517"><ele>601.0</ele><time>2026-05-02T09:14:10.594Z</time></trkpt><trkpt lat="46.1393167" lon="13.61513"><ele>601.0</ele><time>2026-05-02T09:14:11.593Z</time></trkpt><trkpt lat="46.1393617" lon="13.6152317"><ele>601.0</ele><time>2026-05-02T09:14:12.594Z</time></trkpt><trkpt lat="46.139375" lon="13.61539"><ele>603.6666666666667</ele><time>2026-05-02T09:14:13.595Z</time></trkpt><trkpt lat="46.1393583" lon="13.615625"><ele>606.3333333333334</ele><time>2026-05-02T09:14:14.595Z</time></trkpt><trkpt lat="46.13932" lon="13.61587"><ele>609.0</ele><time>2026-05-02T09:14:15.595Z</time></trkpt><trkpt lat="46.139325" lon="13.6160833"><ele>610.8</ele><time>2026-05-02T09:14:16.594Z</time></trkpt><trkpt lat="46.139365" lon="13.6162667"><ele>612.5999999999999</ele><time>2026-05-02T09:14:17.595Z</time></trkpt><trkpt lat="46.139395" lon="13.61642"><ele>614.4</ele><time>2026-05-02T09:14:18.593Z</time></trkpt><trkpt lat="46.13942" lon="13.6165483"><ele>616.1999999999999</ele><time>2026-05-02T09:14:19.593Z</time></trkpt><trkpt lat="46.1394783" lon="13.6166267"><ele>618.0</ele><time>2026-05-02T09:14:20.593Z</time></trkpt><trkpt lat="46.1395583" lon="13.616655"><ele>618.0</ele><time>2026-05-02T09:14:21.593Z</time></trkpt><trkpt lat="46.1396533" lon="13.6166533"><ele>618.0</ele><time>2026-05-02T09:14:22.594Z</time></trkpt><trkpt lat="46.1397783" lon="13.61661"><ele>618.0</ele><time>2026-05-02T09:14:23.595Z</time></trkpt><trkpt lat="46.1399183" lon="13.6165783"><ele>618.0</ele><time>2026-05-02T09:14:24.593Z</time></trkpt><trkpt lat="46.1400583" lon="13.6165683"><ele>615.0</ele><time>2026-05-02T09:14:25.594Z</time></trkpt><trkpt lat="46.1401817" lon="13.6165983"><ele>612.0</ele><time>2026-05-02T09:14:26.594Z</time></trkpt><trkpt lat="46.1402867" lon="13.6166383"><ele>609.0</ele><time>2026-05-02T09:14:27.595Z</time></trkpt><trkpt lat="46.1403717" lon="13.616725"><ele>606.0</ele><time>2026-05-02T09:14:28.593Z</time></trkpt><trkpt lat="46.1404533" lon="13.6168583"><ele>607.8</ele><time>2026-05-02T09:14:29.595Z</time></trkpt><trkpt lat="46.140535" lon="13.6170067"><ele>609.6</ele><time>2026-05-02T09:14:30.593Z</time></trkpt><trkpt lat="46.1405917" lon="13.61716"><ele>611.4</ele><time>2026-05-02T09:14:31.594Z</time></trkpt><trkpt lat="46.1406233" lon="13.6172967"><ele>613.2</ele><time>2026-05-02T09:14:32.595Z</time></trkpt><trkpt lat="46.1406533" lon="13.6174"><ele>615.0</ele><time>2026-05-02T09:14:33.593Z</time></trkpt><trkpt lat="46.1407583" lon="13.6174767"><ele>615.0</ele><time>2026-05-02T09:14:35.593Z</time></trkpt><trkpt lat="46.1408633" lon="13.617365"><ele>615.0</ele><time>2026-05-02T09:14:37.594Z</time></trkpt><trkpt lat="46.1409217" lon="13.6172017"><ele>615.0</ele><time>2026-05-02T09:14:38.594Z</time></trkpt><trkpt lat="46.14101" lon="13.6170883"><ele>615.0</ele><time>2026-05-02T09:14:39.595Z</time></trkpt><trkpt lat="46.1411183" lon="13.61702"><ele>615.0</ele><time>2026-05-02T09:14:40.593Z</time></trkpt><trkpt lat="46.1412367" lon="13.6170083"><ele>615.0</ele><time>2026-05-02T09:14:41.594Z</time></trkpt><trkpt lat="46.1413533" lon="13.6170417"><ele>615.0</ele><time>2026-05-02T09:14:42.593Z</time></trkpt><trkpt lat="46.1414633" lon="13.6171"><ele>615.0</ele><time>2026-05-02T09:14:43.593Z</time></trkpt><trkpt lat="46.1415583" lon="13.6170817"><ele>615.8</ele><time>2026-05-02T09:14:44.594Z</time></trkpt><trkpt lat="46.1416283" lon="13.6170117"><ele>616.6</ele><time>2026-05-02T09:14:45.594Z</time></trkpt><trkpt lat="46.14168" lon="13.616895"><ele>617.4</ele><time>2026-05-02T09:14:46.595Z</time></trkpt><trkpt lat="46.1417267" lon="13.6167217"><ele>618.2</ele><time>2026-05-02T09:14:47.593Z</time></trkpt><trkpt lat="46.14178" lon="13.616555"><ele>619.0</ele><time>2026-05-02T09:14:48.594Z</time></trkpt><trkpt lat="46.14184" lon="13.616405"><ele>615.5</ele><time>2026-05-02T09:14:49.594Z</time></trkpt><trkpt lat="46.1418833" lon="13.6162267"><ele>612.0</ele><time>2026-05-02T09:14:50.595Z</time></trkpt><trkpt lat="46.1419467" lon="13.6160733"><ele>608.5</ele><time>2026-05-02T09:14:51.593Z</time></trkpt><trkpt lat="46.1420283" lon="13.6159367"><ele>605.0</ele><time>2026-05-02T09:14:52.593Z</time></trkpt><trkpt lat="46.1421317" lon="13.6158183"><ele>606.0</ele><time>2026-05-02T09:14:53.593Z</time></trkpt><trkpt lat="46.142265" lon="13.6157183"><ele>607.0</ele><time>2026-05-02T09:14:54.594Z</time></trkpt><trkpt lat="46.1424067" lon="13.6156133"><ele>608.0</ele><time>2026-05-02T09:14:55.594Z</time></trkpt><trkpt lat="46.142545" lon="13.6154767"><ele>608.0</ele><time>2026-05-02T09:14:56.596Z</time></trkpt><trkpt lat="46.14268" lon="13.6153533"><ele>608.0</ele><time>2026-05-02T09:14:57.594Z</time></trkpt><trkpt lat="46.1427983" lon="13.61526"><ele>608.0</ele><time>2026-05-02T09:14:58.595Z</time></trkpt><trkpt lat="46.142895" lon="13.6151967"><ele>608.0</ele><time>2026-05-02T09:14:59.594Z</time></trkpt><trkpt lat="46.1429817" lon="13.61516"><ele>608.0</ele><time>2026-05-02T09:15:00.593Z</time></trkpt><trkpt lat="46.1430583" lon="13.61518"><ele>608.0</ele><time>2026-05-02T09:15:01.594Z</time></trkpt><trkpt lat="46.1431267" lon="13.615245"><ele>608.0</ele><time>2026-05-02T09:15:02.594Z</time></trkpt><trkpt lat="46.1431867" lon="13.61534"><ele>608.0</ele><time>2026-05-02T09:15:03.593Z</time></trkpt><trkpt lat="46.14324" lon="13.6154333"><ele>608.0</ele><time>2026-05-02T09:15:04.593Z</time></trkpt><trkpt lat="46.1432633" lon="13.6155583"><ele>608.0</ele><time>2026-05-02T09:15:05.593Z</time></trkpt><trkpt lat="46.1432517" lon="13.6157133"><ele>608.5</ele><time>2026-05-02T09:15:06.593Z</time></trkpt><trkpt lat="46.1432317" lon="13.61589"><ele>609.0</ele><time>2026-05-02T09:15:07.594Z</time></trkpt><trkpt lat="46.1432167" lon="13.6160633"><ele>609.5</ele><time>2026-05-02T09:15:08.594Z</time></trkpt><trkpt lat="46.1432383" lon="13.61624"><ele>610.0</ele><time>2026-05-02T09:15:09.593Z</time></trkpt><trkpt lat="46.1432767" lon="13.6164133"><ele>610.25</ele><time>2026-05-02T09:15:10.595Z</time></trkpt><trkpt lat="46.14332" lon="13.6165817"><ele>610.5</ele><time>2026-05-02T09:15:11.595Z</time></trkpt><trkpt lat="46.14338" lon="13.6167283"><ele>610.75</ele><time>2026-05-02T09:15:12.594Z</time></trkpt><trkpt lat="46.1434183" lon="13.6168783"><ele>611.0</ele><time>2026-05-02T09:15:13.594Z</time></trkpt><trkpt lat="46.1434033" lon="13.6170317"><ele>611.6666666666666</ele><time>2026-05-02T09:15:14.595Z</time></trkpt><trkpt lat="46.1433583" lon="13.6172067"><ele>612.3333333333334</ele><time>2026-05-02T09:15:15.594Z</time></trkpt><trkpt lat="46.1432767" lon="13.6173967"><ele>613.0</ele><time>2026-05-02T09:15:16.593Z</time></trkpt><trkpt lat="46.1432033" lon="13.6176167"><ele>620.6666666666667</ele><time>2026-05-02T09:15:17.594Z</time></trkpt><trkpt lat="46.1431383" lon="13.6178417"><ele>628.3333333333334</ele><time>2026-05-02T09:15:18.593Z</time></trkpt><trkpt lat="46.14308" lon="13.618045"><ele>636.0</ele><time>2026-05-02T09:15:19.593Z</time></trkpt><trkpt lat="46.1430317" lon="13.6182233"><ele>636.0</ele><time>2026-05-02T09:15:20.595Z</time></trkpt><trkpt lat="46.1429867" lon="13.6183717"><ele>636.0</ele><time>2026-05-02T09:15:21.594Z</time></trkpt><trkpt lat="46.1429883" lon="13.6185267"><ele>636.0</ele><time>2026-05-02T09:15:22.593Z</time></trkpt><trkpt lat="46.1430117" lon="13.6186867"><ele>636.0</ele><time>2026-05-02T09:15:23.595Z</time></trkpt><trkpt lat="46.1430483" lon="13.6188317"><ele>636.0</ele><time>2026-05-02T09:15:24.594Z</time></trkpt><trkpt lat="46.1431067" lon="13.618995"><ele>635.5</ele><time>2026-05-02T09:15:25.595Z</time></trkpt><trkpt lat="46.14312" lon="13.6191883"><ele>635.0</ele><time>2026-05-02T09:15:26.595Z</time></trkpt><trkpt lat="46.14314" lon="13.6194017"><ele>634.5</ele><time>2026-05-02T09:15:27.593Z</time></trkpt><trkpt lat="46.1431317" lon="13.6196217"><ele>634.0</ele><time>2026-05-02T09:15:28.594Z</time></trkpt><trkpt lat="46.1431117" lon="13.6198467"><ele>634.0</ele><time>2026-05-02T09:15:29.593Z</time></trkpt><trkpt lat="46.1430733" lon="13.6200767"><ele>634.0</ele><time>2026-05-02T09:15:30.594Z</time></trkpt><trkpt lat="46.1430117" lon="13.6203083"><ele>634.0</ele><time>2026-05-02T09:15:31.593Z</time></trkpt><trkpt lat="46.142945" lon="13.620525"><ele>631.5</ele><time>2026-05-02T09:15:32.594Z</time></trkpt><trkpt lat="46.142895" lon="13.6207383"><ele>629.0</ele><time>2026-05-02T09:15:33.594Z</time></trkpt><trkpt lat="46.1428633" lon="13.6209283"><ele>626.5</ele><time>2026-05-02T09:15:34.594Z</time></trkpt><trkpt lat="46.1428417" lon="13.6211083"><ele>624.0</ele><time>2026-05-02T09:15:35.593Z</time></trkpt><trkpt lat="46.14284" lon="13.6212717"><ele>620.0</ele><time>2026-05-02T09:15:36.592Z</time></trkpt><trkpt lat="46.1428617" lon="13.6214283"><ele>616.0</ele><time>2026-05-02T09:15:37.593Z</time></trkpt><trkpt lat="46.1429167" lon="13.6215733"><ele>612.0</ele><time>2026-05-02T09:15:38.594Z</time></trkpt><trkpt lat="46.1430067" lon="13.621705"><ele>608.0</ele><time>2026-05-02T09:15:39.594Z</time></trkpt><trkpt lat="46.1431017" lon="13.6218183"><ele>608.0</ele><time>2026-05-02T09:15:40.592Z</time></trkpt><trkpt lat="46.1431817" lon="13.6219283"><ele>608.0</ele><time>2026-05-02T09:15:41.595Z</time></trkpt><trkpt lat="46.1432567" lon="13.6220283"><ele>608.0</ele><time>2026-05-02T09:15:42.593Z</time></trkpt><trkpt lat="46.1433067" lon="13.6221433"><ele>608.0</ele><time>2026-05-02T09:15:43.592Z</time></trkpt><trkpt lat="46.1433067" lon="13.6222783"><ele>608.0</ele><time>2026-05-02T09:15:44.595Z</time></trkpt><trkpt lat="46.143265" lon="13.622435"><ele>605.75</ele><time>2026-05-02T09:15:45.592Z</time></trkpt><trkpt lat="46.143235" lon="13.6226267"><ele>603.5</ele><time>2026-05-02T09:15:46.593Z</time></trkpt><trkpt lat="46.143235" lon="13.6228283"><ele>601.25</ele><time>2026-05-02T09:15:47.592Z</time></trkpt><trkpt lat="46.1432717" lon="13.6230233"><ele>599.0</ele><time>2026-05-02T09:15:48.594Z</time></trkpt><trkpt lat="46.143315" lon="13.6231983"><ele>598.2</ele><time>2026-05-02T09:15:49.593Z</time></trkpt><trkpt lat="46.1433533" lon="13.623345"><ele>597.4</ele><time>2026-05-02T09:15:50.594Z</time></trkpt><trkpt lat="46.1434133" lon="13.623455"><ele>596.6</ele><time>2026-05-02T09:15:51.593Z</time></trkpt><trkpt lat="46.1434983" lon="13.623535"><ele>595.8</ele><time>2026-05-02T09:15:52.593Z</time></trkpt><trkpt lat="46.1435983" lon="13.6235933"><ele>595.0</ele><time>2026-05-02T09:15:53.592Z</time></trkpt><trkpt lat="46.143695" lon="13.6236717"><ele>593.75</ele><time>2026-05-02T09:15:54.592Z</time></trkpt><trkpt lat="46.14376" lon="13.6238033"><ele>592.5</ele><time>2026-05-02T09:15:55.593Z</time></trkpt><trkpt lat="46.1438267" lon="13.6239517"><ele>591.25</ele><time>2026-05-02T09:15:56.594Z</time></trkpt><trkpt lat="46.1438933" lon="13.6240967"><ele>590.0</ele><time>2026-05-02T09:15:57.593Z</time></trkpt><trkpt lat="46.1439317" lon="13.6242667"><ele>590.0</ele><time>2026-05-02T09:15:58.594Z</time></trkpt><trkpt lat="46.143955" lon="13.6244367"><ele>590.0</ele><time>2026-05-02T09:15:59.593Z</time></trkpt><trkpt lat="46.1439817" lon="13.624565"><ele>590.0</ele><time>2026-05-02T09:16:00.592Z</time></trkpt><trkpt lat="46.1440183" lon="13.6246467"><ele>590.0</ele><time>2026-05-02T09:16:01.594Z</time></trkpt><trkpt lat="46.144035" lon="13.6247583"><ele>590.0</ele><time>2026-05-02T09:16:05.594Z</time></trkpt><trkpt lat="46.1439717" lon="13.6246367"><ele>587.8</ele><time>2026-05-02T09:16:37.593Z</time></trkpt><trkpt lat="46.14388" lon="13.6245567"><ele>585.6</ele><time>2026-05-02T09:16:39.593Z</time></trkpt><trkpt lat="46.1438033" lon="13.62454"><ele>583.4</ele><time>2026-05-02T09:16:41.594Z</time></trkpt><trkpt lat="46.1437937" lon="13.6246462"><ele>581.2</ele><time>2026-05-02T09:16:46.633Z</time></trkpt><trkpt lat="46.1438891" lon="13.6247745"><ele>579.0</ele><time>2026-05-02T09:16:48.593Z</time></trkpt><trkpt lat="46.1439414" lon="13.6248521"><ele>579.0</ele><time>2026-05-02T09:16:49.593Z</time></trkpt><trkpt lat="46.1439892" lon="13.6249447"><ele>579.0</ele><time>2026-05-02T09:16:50.594Z</time></trkpt><trkpt lat="46.1440328" lon="13.6250506"><ele>579.0</ele><time>2026-05-02T09:16:51.593Z</time></trkpt><trkpt lat="46.1440719" lon="13.625158"><ele>579.0</ele><time>2026-05-02T09:16:52.593Z</time></trkpt><trkpt lat="46.1441047" lon="13.6252699"><ele>579.0</ele><time>2026-05-02T09:16:53.593Z</time></trkpt><trkpt lat="46.144132" lon="13.6253955"><ele>579.0</ele><time>2026-05-02T09:16:54.592Z</time></trkpt><trkpt lat="46.1441575" lon="13.6255269"><ele>584.2</ele><time>2026-05-02T09:16:55.593Z</time></trkpt><trkpt lat="46.1441811" lon="13.6256665"><ele>589.4</ele><time>2026-05-02T09:16:56.593Z</time></trkpt><trkpt lat="46.1442052" lon="13.6258138"><ele>594.6</ele><time>2026-05-02T09:16:57.594Z</time></trkpt><trkpt lat="46.1442297" lon="13.6259655"><ele>599.8</ele><time>2026-05-02T09:16:58.593Z</time></trkpt><trkpt lat="46.1442543" lon="13.626113"><ele>605.0</ele><time>2026-05-02T09:16:59.593Z</time></trkpt><trkpt lat="46.1442726" lon="13.6262551"><ele>605.0</ele><time>2026-05-02T09:17:00.594Z</time></trkpt><trkpt lat="46.1442884" lon="13.6263956"><ele>605.0</ele><time>2026-05-02T09:17:01.594Z</time></trkpt><trkpt lat="46.1443053" lon="13.6265313"><ele>605.0</ele><time>2026-05-02T09:17:02.594Z</time></trkpt><trkpt lat="46.1443207" lon="13.6266586"><ele>605.0</ele><time>2026-05-02T09:17:03.594Z</time></trkpt><trkpt lat="46.1443321" lon="13.6267861"><ele>605.0</ele><time>2026-05-02T09:17:04.593Z</time></trkpt><trkpt lat="46.144343" lon="13.626912"><ele>604.3333333333333</ele><time>2026-05-02T09:17:05.594Z</time></trkpt><trkpt lat="46.1443581" lon="13.627029"><ele>603.6666666666666</ele><time>2026-05-02T09:17:06.593Z</time></trkpt><trkpt lat="46.144382" lon="13.627135"><ele>603.0</ele><time>2026-05-02T09:17:07.593Z</time></trkpt><trkpt lat="46.1444143" lon="13.6272263"><ele>602.3333333333334</ele><time>2026-05-02T09:17:08.594Z</time></trkpt><trkpt lat="46.1444518" lon="13.6273082"><ele>601.6666666666667</ele><time>2026-05-02T09:17:09.593Z</time></trkpt><trkpt lat="46.1445" lon="13.6273843"><ele>601.0</ele><time>2026-05-02T09:17:10.594Z</time></trkpt><trkpt lat="46.1445583" lon="13.6274659"><ele>601.0</ele><time>2026-05-02T09:17:11.594Z</time></trkpt><trkpt lat="46.1446207" lon="13.6275471"><ele>601.0</ele><time>2026-05-02T09:17:12.594Z</time></trkpt><trkpt lat="46.1446855" lon="13.6276169"><ele>601.0</ele><time>2026-05-02T09:17:13.593Z</time></trkpt><trkpt lat="46.1447453" lon="13.6276721"><ele>601.0</ele><time>2026-05-02T09:17:14.593Z</time></trkpt><trkpt lat="46.144806" lon="13.6277124"><ele>601.0</ele><time>2026-05-02T09:17:15.593Z</time></trkpt><trkpt lat="46.1448657" lon="13.6277462"><ele>601.0</ele><time>2026-05-02T09:17:16.594Z</time></trkpt><trkpt lat="46.1449278" lon="13.6277886"><ele>601.0</ele><time>2026-05-02T09:17:17.594Z</time></trkpt><trkpt lat="46.1449945" lon="13.6278406"><ele>601.6666666666667</ele><time>2026-05-02T09:17:18.594Z</time></trkpt><trkpt lat="46.1450634" lon="13.6279066"><ele>602.3333333333334</ele><time>2026-05-02T09:17:19.594Z</time></trkpt><trkpt lat="46.1451276" lon="13.6279922"><ele>603.0</ele><time>2026-05-02T09:17:20.593Z</time></trkpt><trkpt lat="46.1451856" lon="13.6280953"><ele>603.6666666666666</ele><time>2026-05-02T09:17:21.592Z</time></trkpt><trkpt lat="46.1452399" lon="13.6282005"><ele>604.3333333333333</ele><time>2026-05-02T09:17:22.592Z</time></trkpt><trkpt lat="46.1452929" lon="13.6282967"><ele>605.0</ele><time>2026-05-02T09:17:23.593Z</time></trkpt><trkpt lat="46.1453511" lon="13.6283771"><ele>605.0</ele><time>2026-05-02T09:17:24.594Z</time></trkpt><trkpt lat="46.1454255" lon="13.6284419"><ele>605.0</ele><time>2026-05-02T09:17:25.593Z</time></trkpt><trkpt lat="46.1455109" lon="13.6285022"><ele>605.0</ele><time>2026-05-02T09:17:26.593Z</time></trkpt><trkpt lat="46.1455963" lon="13.6285593"><ele>605.0</ele><time>2026-05-02T09:17:27.594Z</time></trkpt><trkpt lat="46.1456699" lon="13.6286116"><ele>605.0</ele><time>2026-05-02T09:17:28.594Z</time></trkpt><trkpt lat="46.1457324" lon="13.6286636"><ele>605.0</ele><time>2026-05-02T09:17:29.593Z</time></trkpt><trkpt lat="46.1458043" lon="13.6287693"><ele>601.6</ele><time>2026-05-02T09:17:31.594Z</time></trkpt><trkpt lat="46.1458406" lon="13.628861"><ele>598.2</ele><time>2026-05-02T09:17:33.592Z</time></trkpt><trkpt lat="46.1458182" lon="13.6290065"><ele>594.8</ele><time>2026-05-02T09:17:35.594Z</time></trkpt><trkpt lat="46.1457857" lon="13.6291347"><ele>591.4</ele><time>2026-05-02T09:17:36.595Z</time></trkpt><trkpt lat="46.1457335" lon="13.6293133"><ele>588.0</ele><time>2026-05-02T09:17:37.594Z</time></trkpt><trkpt lat="46.1456828" lon="13.6294953"><ele>588.0</ele><time>2026-05-02T09:17:38.593Z</time></trkpt><trkpt lat="46.1456368" lon="13.6296682"><ele>588.0</ele><time>2026-05-02T09:17:39.592Z</time></trkpt><trkpt lat="46.1455887" lon="13.6298348"><ele>588.0</ele><time>2026-05-02T09:17:40.593Z</time></trkpt><trkpt lat="46.1455386" lon="13.6299916"><ele>588.0</ele><time>2026-05-02T09:17:41.594Z</time></trkpt><trkpt lat="46.1454893" lon="13.6301371"><ele>588.0</ele><time>2026-05-02T09:17:42.594Z</time></trkpt><trkpt lat="46.1454284" lon="13.6302626"><ele>588.0</ele><time>2026-05-02T09:17:43.595Z</time></trkpt><trkpt lat="46.1453685" lon="13.6303736"><ele>588.0</ele><time>2026-05-02T09:17:44.593Z</time></trkpt><trkpt lat="46.1453182" lon="13.6304784"><ele>588.0</ele><time>2026-05-02T09:17:45.593Z</time></trkpt><trkpt lat="46.1452778" lon="13.6305817"><ele>588.0</ele><time>2026-05-02T09:17:46.594Z</time></trkpt><trkpt lat="46.1452339" lon="13.6306811"><ele>587.6</ele><time>2026-05-02T09:17:47.593Z</time></trkpt><trkpt lat="46.1451987" lon="13.6307669"><ele>587.1999999999999</ele><time>2026-05-02T09:17:48.594Z</time></trkpt><trkpt lat="46.1451921" lon="13.6309103"><ele>586.8</ele><time>2026-05-02T09:17:50.593Z</time></trkpt><trkpt lat="46.1452765" lon="13.6310598"><ele>586.4</ele><time>2026-05-02T09:17:52.593Z</time></trkpt><trkpt lat="46.1453218" lon="13.6311302"><ele>586.0</ele><time>2026-05-02T09:17:53.594Z</time></trkpt><trkpt lat="46.1453982" lon="13.6312291"><ele>586.0</ele><time>2026-05-02T09:17:55.593Z</time></trkpt><trkpt lat="46.1454994" lon="13.6313356"><ele>586.0</ele><time>2026-05-02T09:17:57.593Z</time></trkpt><trkpt lat="46.1455612" lon="13.6313963"><ele>586.0</ele><time>2026-05-02T09:17:58.594Z</time></trkpt><trkpt lat="46.1456196" lon="13.6314449"><ele>586.0</ele><time>2026-05-02T09:17:59.594Z</time></trkpt><trkpt lat="46.1456792" lon="13.631488"><ele>586.0</ele><time>2026-05-02T09:18:00.594Z</time></trkpt><trkpt lat="46.14575" lon="13.6315304"><ele>586.0</ele><time>2026-05-02T09:18:01.593Z</time></trkpt><trkpt lat="46.1458303" lon="13.631571"><ele>592.0</ele><time>2026-05-02T09:18:02.595Z</time></trkpt><trkpt lat="46.1459079" lon="13.6316102"><ele>598.0</ele><time>2026-05-02T09:18:03.593Z</time></trkpt><trkpt lat="46.1459785" lon="13.6316448"><ele>604.0</ele><time>2026-05-02T09:18:04.593Z</time></trkpt><trkpt lat="46.1460413" lon="13.6316704"><ele>610.0</ele><time>2026-05-02T09:18:05.593Z</time></trkpt><trkpt lat="46.1461343" lon="13.6316892"><ele>616.0</ele><time>2026-05-02T09:18:07.594Z</time></trkpt><trkpt lat="46.1462143" lon="13.6317025"><ele>622.0</ele><time>2026-05-02T09:18:10.593Z</time></trkpt><trkpt lat="46.1461773" lon="13.6317989"><ele>622.0</ele><time>2026-05-02T09:18:14.593Z</time></trkpt><trkpt lat="46.1461307" lon="13.6319224"><ele>622.0</ele><time>2026-05-02T09:18:15.592Z</time></trkpt><trkpt lat="46.1460849" lon="13.6321033"><ele>622.0</ele><time>2026-05-02T09:18:16.593Z</time></trkpt><trkpt lat="46.1460313" lon="13.6323046"><ele>622.0</ele><time>2026-05-02T09:18:17.594Z</time></trkpt><trkpt lat="46.145983" lon="13.6324794"><ele>623.6</ele><time>2026-05-02T09:18:18.593Z</time></trkpt><trkpt lat="46.1459397" lon="13.6326368"><ele>625.2</ele><time>2026-05-02T09:18:19.593Z</time></trkpt><trkpt lat="46.1459073" lon="13.6327721"><ele>626.8</ele><time>2026-05-02T09:18:20.593Z</time></trkpt><trkpt lat="46.1458755" lon="13.63291"><ele>628.4</ele><time>2026-05-02T09:18:21.593Z</time></trkpt><trkpt lat="46.1458359" lon="13.6330458"><ele>630.0</ele><time>2026-05-02T09:18:22.594Z</time></trkpt><trkpt lat="46.1457837" lon="13.6331863"><ele>630.0</ele><time>2026-05-02T09:18:23.594Z</time></trkpt><trkpt lat="46.1457195" lon="13.6333256"><ele>630.0</ele><time>2026-05-02T09:18:24.593Z</time></trkpt><trkpt lat="46.1456525" lon="13.633462"><ele>630.0</ele><time>2026-05-02T09:18:25.594Z</time></trkpt><trkpt lat="46.1455963" lon="13.6335895"><ele>630.0</ele><time>2026-05-02T09:18:26.594Z</time></trkpt><trkpt lat="46.1455493" lon="13.6337157"><ele>630.0</ele><time>2026-05-02T09:18:27.594Z</time></trkpt><trkpt lat="46.1455047" lon="13.6338374"><ele>624.3333333333334</ele><time>2026-05-02T09:18:28.594Z</time></trkpt><trkpt lat="46.1454589" lon="13.6339394"><ele>618.6666666666666</ele><time>2026-05-02T09:18:29.593Z</time></trkpt><trkpt lat="46.1453985" lon="13.6340292"><ele>613.0</ele><time>2026-05-02T09:18:30.593Z</time></trkpt><trkpt lat="46.1453301" lon="13.6341256"><ele>607.3333333333333</ele><time>2026-05-02T09:18:31.594Z</time></trkpt><trkpt lat="46.1452657" lon="13.6342198"><ele>601.6666666666666</ele><time>2026-05-02T09:18:32.594Z</time></trkpt><trkpt lat="46.1452083" lon="13.6343084"><ele>596.0</ele><time>2026-05-02T09:18:33.594Z</time></trkpt><trkpt lat="46.1451607" lon="13.6343917"><ele>595.0</ele><time>2026-05-02T09:18:34.593Z</time></trkpt><trkpt lat="46.1451087" lon="13.634522"><ele>594.0</ele><time>2026-05-02T09:18:36.593Z</time></trkpt><trkpt lat="46.1451191" lon="13.6346343"><ele>593.0</ele><time>2026-05-02T09:18:38.594Z</time></trkpt><trkpt lat="46.1451702" lon="13.6347632"><ele>592.0</ele><time>2026-05-02T09:18:40.594Z</time></trkpt><trkpt lat="46.1452648" lon="13.6348671"><ele>591.0</ele><time>2026-05-02T09:18:42.593Z</time></trkpt><trkpt lat="46.1453228" lon="13.6349091"><ele>591.0</ele><time>2026-05-02T09:18:43.593Z</time></trkpt><trkpt lat="46.1453853" lon="13.6349483"><ele>591.0</ele><time>2026-05-02T09:18:44.594Z</time></trkpt><trkpt lat="46.1454598" lon="13.6349756"><ele>591.0</ele><time>2026-05-02T09:18:45.594Z</time></trkpt><trkpt lat="46.1455447" lon="13.6349973"><ele>591.0</ele><time>2026-05-02T09:18:46.593Z</time></trkpt><trkpt lat="46.1456346" lon="13.6350208"><ele>591.0</ele><time>2026-05-02T09:18:47.593Z</time></trkpt><trkpt lat="46.1457209" lon="13.6350475"><ele>591.0</ele><time>2026-05-02T09:18:48.594Z</time></trkpt><trkpt lat="46.1457958" lon="13.635083"><ele>593.1428571428571</ele><time>2026-05-02T09:18:49.594Z</time></trkpt><trkpt lat="46.1458619" lon="13.6351255"><ele>595.2857142857143</ele><time>2026-05-02T09:18:50.593Z</time></trkpt><trkpt lat="46.1459239" lon="13.635178"><ele>597.4285714285714</ele><time>2026-05-02T09:18:51.594Z</time></trkpt><trkpt lat="46.1459823" lon="13.6352517"><ele>599.5714285714286</ele><time>2026-05-02T09:18:52.594Z</time></trkpt><trkpt lat="46.1460368" lon="13.6353356"><ele>601.7142857142857</ele><time>2026-05-02T09:18:53.594Z</time></trkpt><trkpt lat="46.1460769" lon="13.6354254"><ele>603.8571428571429</ele><time>2026-05-02T09:18:54.594Z</time></trkpt><trkpt lat="46.1461063" lon="13.6355067"><ele>606.0</ele><time>2026-05-02T09:18:55.594Z</time></trkpt><trkpt lat="46.1461345" lon="13.635673"><ele>606.0</ele><time>2026-05-02T09:18:57.593Z</time></trkpt><trkpt lat="46.1461188" lon="13.6358311"><ele>606.0</ele><time>2026-05-02T09:18:59.593Z</time></trkpt><trkpt lat="46.1460645" lon="13.6359968"><ele>606.0</ele><time>2026-05-02T09:19:01.594Z</time></trkpt><trkpt lat="46.1460101" lon="13.6360907"><ele>606.0</ele><time>2026-05-02T09:19:02.594Z</time></trkpt><trkpt lat="46.1459557" lon="13.6361878"><ele>606.0</ele><time>2026-05-02T09:19:03.593Z</time></trkpt><trkpt lat="46.1459084" lon="13.6362937"><ele>607.8</ele><time>2026-05-02T09:19:04.594Z</time></trkpt><trkpt lat="46.1458623" lon="13.6364016"><ele>609.6</ele><time>2026-05-02T09:19:05.593Z</time></trkpt><trkpt lat="46.1458211" lon="13.6365159"><ele>611.4</ele><time>2026-05-02T09:19:06.594Z</time></trkpt><trkpt lat="46.1457768" lon="13.6366409"><ele>613.2</ele><time>2026-05-02T09:19:07.595Z</time></trkpt><trkpt lat="46.1457279" lon="13.6367677"><ele>615.0</ele><time>2026-05-02T09:19:08.595Z</time></trkpt><trkpt lat="46.1456691" lon="13.6369029"><ele>609.2</ele><time>2026-05-02T09:19:09.593Z</time></trkpt><trkpt lat="46.1456035" lon="13.6370279"><ele>603.4</ele><time>2026-05-02T09:19:10.593Z</time></trkpt><trkpt lat="46.1455439" lon="13.6371408"><ele>597.6</ele><time>2026-05-02T09:19:11.593Z</time></trkpt><trkpt lat="46.1454821" lon="13.637244"><ele>591.8</ele><time>2026-05-02T09:19:12.594Z</time></trkpt><trkpt lat="46.1454297" lon="13.6373554"><ele>586.0</ele><time>2026-05-02T09:19:13.593Z</time></trkpt><trkpt lat="46.145384" lon="13.6374811"><ele>586.0</ele><time>2026-05-02T09:19:14.593Z</time></trkpt><trkpt lat="46.1453528" lon="13.6376323"><ele>586.0</ele><time>2026-05-02T09:19:15.593Z</time></trkpt><trkpt lat="46.1453223" lon="13.6377736"><ele>586.0</ele><time>2026-05-02T09:19:16.595Z</time></trkpt><trkpt lat="46.1452952" lon="13.6379044"><ele>586.0</ele><time>2026-05-02T09:19:17.594Z</time></trkpt><trkpt lat="46.1452678" lon="13.6380187"><ele>586.0</ele><time>2026-05-02T09:19:18.593Z</time></trkpt><trkpt lat="46.1452388" lon="13.638112"><ele>587.5</ele><time>2026-05-02T09:19:19.593Z</time></trkpt><trkpt lat="46.1452048" lon="13.6381885"><ele>589.0</ele><time>2026-05-02T09:19:20.595Z</time></trkpt><trkpt lat="46.1451468" lon="13.6382827"><ele>590.5</ele><time>2026-05-02T09:19:22.594Z</time></trkpt><trkpt lat="46.1450751" lon="13.638291"><ele>592.0</ele><time>2026-05-02T09:19:27.594Z</time></trkpt><trkpt lat="46.1450074" lon="13.6382581"><ele>593.5</ele><time>2026-05-02T09:19:29.594Z</time></trkpt><trkpt lat="46.1448934" lon="13.6382239"><ele>595.0</ele><time>2026-05-02T09:19:31.594Z</time></trkpt><trkpt lat="46.1448157" lon="13.6382024"><ele>595.0</ele><time>2026-05-02T09:19:32.594Z</time></trkpt><trkpt lat="46.1447329" lon="13.6381766"><ele>595.0</ele><time>2026-05-02T09:19:33.593Z</time></trkpt><trkpt lat="46.1446397" lon="13.6381451"><ele>595.0</ele><time>2026-05-02T09:19:34.594Z</time></trkpt><trkpt lat="46.1445406" lon="13.6381176"><ele>595.0</ele><time>2026-05-02T09:19:35.595Z</time></trkpt><trkpt lat="46.1444468" lon="13.6381063"><ele>595.0</ele><time>2026-05-02T09:19:36.594Z</time></trkpt><trkpt lat="46.144354" lon="13.6380997"><ele>595.0</ele><time>2026-05-02T09:19:37.594Z</time></trkpt><trkpt lat="46.1442605" lon="13.6381089"><ele>595.0</ele><time>2026-05-02T09:19:38.595Z</time></trkpt><trkpt lat="46.1441741" lon="13.6381447"><ele>595.0</ele><time>2026-05-02T09:19:39.594Z</time></trkpt><trkpt lat="46.1440857" lon="13.638204"><ele>595.0</ele><time>2026-05-02T09:19:40.593Z</time></trkpt><trkpt lat="46.1440013" lon="13.6382857"><ele>595.0</ele><time>2026-05-02T09:19:41.594Z</time></trkpt><trkpt lat="46.1439088" lon="13.6383601"><ele>593.8333333333334</ele><time>2026-05-02T09:19:42.594Z</time></trkpt><trkpt lat="46.143821" lon="13.6384295"><ele>592.6666666666667</ele><time>2026-05-02T09:19:43.595Z</time></trkpt><trkpt lat="46.1437404" lon="13.6384933"><ele>591.5</ele><time>2026-05-02T09:19:44.593Z</time></trkpt><trkpt lat="46.1436648" lon="13.6385509"><ele>590.3333333333334</ele><time>2026-05-02T09:19:45.594Z</time></trkpt><trkpt lat="46.1435966" lon="13.6385753"><ele>589.1666666666666</ele><time>2026-05-02T09:19:46.593Z</time></trkpt><trkpt lat="46.1435302" lon="13.6385832"><ele>588.0</ele><time>2026-05-02T09:19:47.594Z</time></trkpt><trkpt lat="46.1434501" lon="13.638569"><ele>588.0</ele><time>2026-05-02T09:19:48.593Z</time></trkpt><trkpt lat="46.1433558" lon="13.6385596"><ele>588.0</ele><time>2026-05-02T09:19:49.595Z</time></trkpt><trkpt lat="46.1432385" lon="13.6385478"><ele>588.0</ele><time>2026-05-02T09:19:50.594Z</time></trkpt><trkpt lat="46.1431134" lon="13.6385401"><ele>588.0</ele><time>2026-05-02T09:19:51.594Z</time></trkpt><trkpt lat="46.1429888" lon="13.6385511"><ele>588.0</ele><time>2026-05-02T09:19:52.593Z</time></trkpt><trkpt lat="46.142881" lon="13.6385874"><ele>588.0</ele><time>2026-05-02T09:19:53.593Z</time></trkpt><trkpt lat="46.1427832" lon="13.6386207"><ele>588.0</ele><time>2026-05-02T09:19:54.594Z</time></trkpt><trkpt lat="46.1426948" lon="13.6386193"><ele>588.0</ele><time>2026-05-02T09:19:55.593Z</time></trkpt><trkpt lat="46.1426197" lon="13.6386212"><ele>588.0</ele><time>2026-05-02T09:19:56.593Z</time></trkpt><trkpt lat="46.1425181" lon="13.6386629"><ele>586.6</ele><time>2026-05-02T09:19:58.594Z</time></trkpt><trkpt lat="46.1424082" lon="13.63873"><ele>585.1999999999999</ele><time>2026-05-02T09:20:00.593Z</time></trkpt><trkpt lat="46.1423354" lon="13.638753"><ele>583.8</ele><time>2026-05-02T09:20:01.594Z</time></trkpt><trkpt lat="46.1422503" lon="13.6387618"><ele>582.4</ele><time>2026-05-02T09:20:02.594Z</time></trkpt><trkpt lat="46.1421522" lon="13.638771"><ele>581.0</ele><time>2026-05-02T09:20:03.593Z</time></trkpt><trkpt lat="46.1420546" lon="13.6387789"><ele>581.0</ele><time>2026-05-02T09:20:04.593Z</time></trkpt><trkpt lat="46.1419619" lon="13.6387854"><ele>581.0</ele><time>2026-05-02T09:20:05.594Z</time></trkpt><trkpt lat="46.1418795" lon="13.6387974"><ele>581.0</ele><time>2026-05-02T09:20:06.594Z</time></trkpt><trkpt lat="46.1418104" lon="13.6388245"><ele>581.0</ele><time>2026-05-02T09:20:07.595Z</time></trkpt><trkpt lat="46.1417467" lon="13.6388645"><ele>581.0</ele><time>2026-05-02T09:20:08.594Z</time></trkpt><trkpt lat="46.1416791" lon="13.6389088"><ele>581.0</ele><time>2026-05-02T09:20:09.593Z</time></trkpt><trkpt lat="46.1416091" lon="13.6389421"><ele>576.1666666666666</ele><time>2026-05-02T09:20:10.594Z</time></trkpt><trkpt lat="46.1415409" lon="13.638967"><ele>571.3333333333333</ele><time>2026-05-02T09:20:11.593Z</time></trkpt><trkpt lat="46.1414483" lon="13.6390087"><ele>566.5</ele><time>2026-05-02T09:20:13.594Z</time></trkpt><trkpt lat="46.1414136" lon="13.6391316"><ele>561.6666666666666</ele><time>2026-05-02T09:20:16.593Z</time></trkpt><trkpt lat="46.1414483" lon="13.63927"><ele>556.8333333333334</ele><time>2026-05-02T09:20:18.593Z</time></trkpt><trkpt lat="46.1414765" lon="13.639362"><ele>552.0</ele><time>2026-05-02T09:20:19.593Z</time></trkpt><trkpt lat="46.141508" lon="13.6394636"><ele>554.6666666666666</ele><time>2026-05-02T09:20:20.594Z</time></trkpt><trkpt lat="46.1415372" lon="13.6395684"><ele>557.3333333333334</ele><time>2026-05-02T09:20:21.593Z</time></trkpt><trkpt lat="46.1415565" lon="13.6396691"><ele>560.0</ele><time>2026-05-02T09:20:22.595Z</time></trkpt><trkpt lat="46.1415729" lon="13.6397671"><ele>562.6666666666667</ele><time>2026-05-02T09:20:23.593Z</time></trkpt><trkpt lat="46.1415983" lon="13.6398513"><ele>565.3333333333334</ele><time>2026-05-02T09:20:24.593Z</time></trkpt><trkpt lat="46.1416589" lon="13.6400055"><ele>568.0</ele><time>2026-05-02T09:20:26.593Z</time></trkpt><trkpt lat="46.1416995" lon="13.640083"><ele>568.0</ele><time>2026-05-02T09:20:27.593Z</time></trkpt><trkpt lat="46.1417424" lon="13.6401617"><ele>568.0</ele><time>2026-05-02T09:20:28.594Z</time></trkpt><trkpt lat="46.1417768" lon="13.6402382"><ele>568.0</ele><time>2026-05-02T09:20:29.593Z</time></trkpt><trkpt lat="46.1418433" lon="13.6403565"><ele>568.0</ele><time>2026-05-02T09:20:31.593Z</time></trkpt><trkpt lat="46.1418824" lon="13.6404331"><ele>568.0</ele><time>2026-05-02T09:20:33.593Z</time></trkpt><trkpt lat="46.1418302" lon="13.640488"><ele>568.0</ele><time>2026-05-02T09:20:38.594Z</time></trkpt><trkpt lat="46.1417703" lon="13.6403811"><ele>568.0</ele><time>2026-05-02T09:20:41.595Z</time></trkpt><trkpt lat="46.1416793" lon="13.6402634"><ele>568.0</ele><time>2026-05-02T09:20:43.593Z</time></trkpt><trkpt lat="46.1416221" lon="13.6402099"><ele>568.0</ele><time>2026-05-02T09:20:44.595Z</time></trkpt><trkpt lat="46.1415598" lon="13.6401698"><ele>568.0</ele><time>2026-05-02T09:20:45.593Z</time></trkpt><trkpt lat="46.1414665" lon="13.6400872"><ele>568.0</ele><time>2026-05-02T09:20:47.594Z</time></trkpt><trkpt lat="46.1414167" lon="13.6399968"><ele>568.0</ele><time>2026-05-02T09:20:49.593Z</time></trkpt><trkpt lat="46.14138" lon="13.6398717"><ele>561.6666666666667</ele><time>2026-05-02T09:20:51.593Z</time></trkpt><trkpt lat="46.1413083" lon="13.6397833"><ele>555.3333333333334</ele><time>2026-05-02T09:20:53.593Z</time></trkpt><trkpt lat="46.1412117" lon="13.6397"><ele>549.0</ele><time>2026-05-02T09:20:55.594Z</time></trkpt><trkpt lat="46.1411317" lon="13.6396817"><ele>542.6666666666666</ele><time>2026-05-02T09:20:56.594Z</time></trkpt><trkpt lat="46.1410567" lon="13.6396417"><ele>536.3333333333333</ele><time>2026-05-02T09:20:57.593Z</time></trkpt><trkpt lat="46.1409867" lon="13.6396083"><ele>530.0</ele><time>2026-05-02T09:20:58.593Z</time></trkpt><trkpt lat="46.1409117" lon="13.6395817"><ele>530.0</ele><time>2026-05-02T09:20:59.593Z</time></trkpt><trkpt lat="46.1408433" lon="13.6395483"><ele>530.0</ele><time>2026-05-02T09:21:00.593Z</time></trkpt><trkpt lat="46.1407833" lon="13.63952"><ele>530.0</ele><time>2026-05-02T09:21:01.594Z</time></trkpt><trkpt lat="46.1407233" lon="13.63949"><ele>530.0</ele><time>2026-05-02T09:21:02.595Z</time></trkpt><trkpt lat="46.1406467" lon="13.6394667"><ele>530.0</ele><time>2026-05-02T09:21:03.593Z</time></trkpt><trkpt lat="46.1405833" lon="13.6394417"><ele>530.0</ele><time>2026-05-02T09:21:04.593Z</time></trkpt><trkpt lat="46.1404733" lon="13.6394133"><ele>531.3333333333333</ele><time>2026-05-02T09:21:06.595Z</time></trkpt><trkpt lat="46.1403983" lon="13.63939"><ele>532.6666666666666</ele><time>2026-05-02T09:21:08.594Z</time></trkpt><trkpt lat="46.1403267" lon="13.6393683"><ele>534.0</ele><time>2026-05-02T09:21:10.594Z</time></trkpt><trkpt lat="46.1404083" lon="13.6394583"><ele>535.3333333333334</ele><time>2026-05-02T09:21:17.594Z</time></trkpt><trkpt lat="46.1404733" lon="13.639485"><ele>536.6666666666667</ele><time>2026-05-02T09:21:18.594Z</time></trkpt><trkpt lat="46.140535" lon="13.639525"><ele>538.0</ele><time>2026-05-02T09:21:19.593Z</time></trkpt><trkpt lat="46.1405917" lon="13.639565"><ele>536.6666666666667</ele><time>2026-05-02T09:21:20.594Z</time></trkpt><trkpt lat="46.1406467" lon="13.6396133"><ele>535.3333333333334</ele><time>2026-05-02T09:21:21.593Z</time></trkpt><trkpt lat="46.1407" lon="13.6396733"><ele>534.0</ele><time>2026-05-02T09:21:22.594Z</time></trkpt><trkpt lat="46.14079" lon="13.639765"><ele>532.6666666666666</ele><time>2026-05-02T09:21:24.594Z</time></trkpt><trkpt lat="46.14085" lon="13.63985"><ele>531.3333333333333</ele><time>2026-05-02T09:21:26.594Z</time></trkpt><trkpt lat="46.14091" lon="13.63992"><ele>530.0</ele><time>2026-05-02T09:21:28.594Z</time></trkpt><trkpt lat="46.14093" lon="13.6400383"><ele>530.0</ele><time>2026-05-02T09:21:31.593Z</time></trkpt><trkpt lat="46.1408817" lon="13.6401783"><ele>530.0</ele><time>2026-05-02T09:21:33.594Z</time></trkpt><trkpt lat="46.1408567" lon="13.6402617"><ele>530.0</ele><time>2026-05-02T09:21:34.594Z</time></trkpt><trkpt lat="46.1408533" lon="13.6404233"><ele>530.0</ele><time>2026-05-02T09:21:36.593Z</time></trkpt><trkpt lat="46.14088" lon="13.6405583"><ele>530.0</ele><time>2026-05-02T09:21:38.595Z</time></trkpt><trkpt lat="46.14093" lon="13.6406467"><ele>525.6</ele><time>2026-05-02T09:21:40.594Z</time></trkpt><trkpt lat="46.1410467" lon="13.6407"><ele>521.2</ele><time>2026-05-02T09:21:42.593Z</time></trkpt><trkpt lat="46.1411383" lon="13.6407633"><ele>516.8</ele><time>2026-05-02T09:21:44.593Z</time></trkpt><trkpt lat="46.1411883" lon="13.6408433"><ele>512.4</ele><time>2026-05-02T09:21:46.593Z</time></trkpt><trkpt lat="46.1411867" lon="13.6410167"><ele>508.0</ele><time>2026-05-02T09:21:49.594Z</time></trkpt><trkpt lat="46.1411717" lon="13.6411233"><ele>504.79999999999995</ele><time>2026-05-02T09:21:50.595Z</time></trkpt><trkpt lat="46.1411567" lon="13.6412517"><ele>501.59999999999997</ele><time>2026-05-02T09:21:51.593Z</time></trkpt><trkpt lat="46.1411567" lon="13.641375"><ele>498.40000000000003</ele><time>2026-05-02T09:21:52.594Z</time></trkpt><trkpt lat="46.1411467" lon="13.6415217"><ele>495.20000000000005</ele><time>2026-05-02T09:21:53.593Z</time></trkpt><trkpt lat="46.1411417" lon="13.641665"><ele>492.0</ele><time>2026-05-02T09:21:54.594Z</time></trkpt><trkpt lat="46.1411333" lon="13.6418033"><ele>492.0</ele><time>2026-05-02T09:21:55.594Z</time></trkpt><trkpt lat="46.1411217" lon="13.6419433"><ele>492.0</ele><time>2026-05-02T09:21:56.594Z</time></trkpt><trkpt lat="46.14111" lon="13.64206"><ele>492.0</ele><time>2026-05-02T09:21:57.593Z</time></trkpt><trkpt lat="46.1410933" lon="13.64218"><ele>492.0</ele><time>2026-05-02T09:21:58.594Z</time></trkpt><trkpt lat="46.1410767" lon="13.6422833"><ele>492.0</ele><time>2026-05-02T09:21:59.594Z</time></trkpt><trkpt lat="46.141055" lon="13.6423867"><ele>492.0</ele><time>2026-05-02T09:22:00.593Z</time></trkpt><trkpt lat="46.1410317" lon="13.642485"><ele>492.20000000000005</ele><time>2026-05-02T09:22:01.594Z</time></trkpt><trkpt lat="46.141065" lon="13.64265"><ele>492.40000000000003</ele><time>2026-05-02T09:22:03.593Z</time></trkpt><trkpt lat="46.1411283" lon="13.6427483"><ele>492.59999999999997</ele><time>2026-05-02T09:22:05.594Z</time></trkpt><trkpt lat="46.1412133" lon="13.6428017"><ele>492.79999999999995</ele><time>2026-05-02T09:22:07.595Z</time></trkpt><trkpt lat="46.141325" lon="13.642835"><ele>493.0</ele><time>2026-05-02T09:22:09.593Z</time></trkpt><trkpt lat="46.1414433" lon="13.642835"><ele>492.79999999999995</ele><time>2026-05-02T09:22:11.594Z</time></trkpt><trkpt lat="46.1415067" lon="13.6428383"><ele>492.59999999999997</ele><time>2026-05-02T09:22:12.593Z</time></trkpt><trkpt lat="46.1416317" lon="13.6428667"><ele>492.40000000000003</ele><time>2026-05-02T09:22:14.595Z</time></trkpt><trkpt lat="46.1416967" lon="13.6428867"><ele>492.20000000000005</ele><time>2026-05-02T09:22:15.594Z</time></trkpt><trkpt lat="46.1418017" lon="13.6429217"><ele>492.0</ele><time>2026-05-02T09:22:17.594Z</time></trkpt><trkpt lat="46.141895" lon="13.64294"><ele>492.0</ele><time>2026-05-02T09:22:19.594Z</time></trkpt><trkpt lat="46.141975" lon="13.6429767"><ele>492.0</ele><time>2026-05-02T09:22:21.594Z</time></trkpt><trkpt lat="46.142055" lon="13.6430333"><ele>492.0</ele><time>2026-05-02T09:22:23.595Z</time></trkpt><trkpt lat="46.14215" lon="13.643085"><ele>492.0</ele><time>2026-05-02T09:22:25.593Z</time></trkpt><trkpt lat="46.1422033" lon="13.6431667"><ele>492.0</ele><time>2026-05-02T09:22:27.593Z</time></trkpt><trkpt lat="46.1422183" lon="13.643255"><ele>492.0</ele><time>2026-05-02T09:22:29.593Z</time></trkpt><trkpt lat="46.14223" lon="13.6434183"><ele>492.0</ele><time>2026-05-02T09:22:31.595Z</time></trkpt><trkpt lat="46.14223" lon="13.6435517"><ele>492.0</ele><time>2026-05-02T09:22:32.595Z</time></trkpt><trkpt lat="46.1422317" lon="13.64372"><ele>492.0</ele><time>2026-05-02T09:22:33.593Z</time></trkpt><trkpt lat="46.1422433" lon="13.64391"><ele>492.0</ele><time>2026-05-02T09:22:34.594Z</time></trkpt><trkpt lat="46.1422433" lon="13.6440817"><ele>485.8</ele><time>2026-05-02T09:22:35.594Z</time></trkpt><trkpt lat="46.1422317" lon="13.6442383"><ele>479.6</ele><time>2026-05-02T09:22:36.592Z</time></trkpt><trkpt lat="46.1422083" lon="13.64438"><ele>473.40000000000003</ele><time>2026-05-02T09:22:37.593Z</time></trkpt><trkpt lat="46.142195" lon="13.6445017"><ele>467.20000000000005</ele><time>2026-05-02T09:22:38.594Z</time></trkpt><trkpt lat="46.1421833" lon="13.644595"><ele>461.0</ele><time>2026-05-02T09:22:39.593Z</time></trkpt><trkpt lat="46.1421683" lon="13.6447433"><ele>459.3333333333333</ele><time>2026-05-02T09:22:41.594Z</time></trkpt><trkpt lat="46.1421517" lon="13.6448733"><ele>457.66666666666663</ele><time>2026-05-02T09:22:43.593Z</time></trkpt><trkpt lat="46.1421433" lon="13.6449833"><ele>456.0</ele><time>2026-05-02T09:22:45.593Z</time></trkpt><trkpt lat="46.1421867" lon="13.645105"><ele>454.33333333333337</ele><time>2026-05-02T09:22:47.594Z</time></trkpt><trkpt lat="46.142235" lon="13.6452167"><ele>452.6666666666667</ele><time>2026-05-02T09:22:49.593Z</time></trkpt><trkpt lat="46.1423067" lon="13.6452633"><ele>451.0</ele><time>2026-05-02T09:22:51.594Z</time></trkpt><trkpt lat="46.1423967" lon="13.6452967"><ele>451.0</ele><time>2026-05-02T09:22:53.593Z</time></trkpt><trkpt lat="46.14249" lon="13.6453217"><ele>451.0</ele><time>2026-05-02T09:22:55.593Z</time></trkpt><trkpt lat="46.1425717" lon="13.645345"><ele>451.0</ele><time>2026-05-02T09:22:57.592Z</time></trkpt><trkpt lat="46.1426483" lon="13.6453833"><ele>451.0</ele><time>2026-05-02T09:22:59.593Z</time></trkpt><trkpt lat="46.1427217" lon="13.645465"><ele>451.0</ele><time>2026-05-02T09:23:01.593Z</time></trkpt><trkpt lat="46.1427633" lon="13.6456367"><ele>451.0</ele><time>2026-05-02T09:23:03.595Z</time></trkpt><trkpt lat="46.1427783" lon="13.6457317"><ele>451.0</ele><time>2026-05-02T09:23:04.592Z</time></trkpt><trkpt lat="46.1428117" lon="13.6458883"><ele>451.0</ele><time>2026-05-02T09:23:06.594Z</time></trkpt><trkpt lat="46.1428733" lon="13.64602"><ele>451.0</ele><time>2026-05-02T09:23:08.593Z</time></trkpt><trkpt lat="46.1429617" lon="13.6460883"><ele>451.0</ele><time>2026-05-02T09:23:10.592Z</time></trkpt><trkpt lat="46.1430433" lon="13.6461083"><ele>451.00000000000006</ele><time>2026-05-02T09:23:12.593Z</time></trkpt><trkpt lat="46.14311" lon="13.6461517"><ele>451.0</ele><time>2026-05-02T09:23:15.592Z</time></trkpt><trkpt lat="46.1430417" lon="13.64617"><ele>451.0</ele><time>2026-05-02T09:23:18.594Z</time></trkpt><trkpt lat="46.14296" lon="13.6461833"><ele>451.0</ele><time>2026-05-02T09:23:20.593Z</time></trkpt><trkpt lat="46.1428883" lon="13.6461483"><ele>451.00000000000006</ele><time>2026-05-02T09:23:22.594Z</time></trkpt><trkpt lat="46.1428167" lon="13.6460383"><ele>451.0</ele><time>2026-05-02T09:23:24.593Z</time></trkpt><trkpt lat="46.1427333" lon="13.645955"><ele>451.0</ele><time>2026-05-02T09:23:26.595Z</time></trkpt><trkpt lat="46.142665" lon="13.645885"><ele>451.0</ele><time>2026-05-02T09:23:28.592Z</time></trkpt><trkpt lat="46.14258" lon="13.64587"><ele>451.0</ele><time>2026-05-02T09:23:30.594Z</time></trkpt><trkpt lat="46.1424633" lon="13.6459317"><ele>451.0</ele><time>2026-05-02T09:23:32.593Z</time></trkpt><trkpt lat="46.1424017" lon="13.645965"><ele>451.0</ele><time>2026-05-02T09:23:33.592Z</time></trkpt><trkpt lat="46.1422883" lon="13.6459933"><ele>446.4</ele><time>2026-05-02T09:23:35.593Z</time></trkpt><trkpt lat="46.1422183" lon="13.6459983"><ele>441.8</ele><time>2026-05-02T09:23:36.592Z</time></trkpt><trkpt lat="46.1421533" lon="13.6459933"><ele>437.19999999999993</ele><time>2026-05-02T09:23:37.593Z</time></trkpt><trkpt lat="46.14204" lon="13.645965"><ele>432.59999999999997</ele><time>2026-05-02T09:23:39.593Z</time></trkpt><trkpt lat="46.1419333" lon="13.64592"><ele>428.0</ele><time>2026-05-02T09:23:41.594Z</time></trkpt><trkpt lat="46.141845" lon="13.6458533"><ele>427.99999999999994</ele><time>2026-05-02T09:23:43.593Z</time></trkpt><trkpt lat="46.1417683" lon="13.6457817"><ele>428.0</ele><time>2026-05-02T09:23:45.592Z</time></trkpt><trkpt lat="46.141715" lon="13.645725"><ele>428.0</ele><time>2026-05-02T09:23:47.592Z</time></trkpt><trkpt lat="46.1416583" lon="13.6457667"><ele>428.0</ele><time>2026-05-02T09:23:51.593Z</time></trkpt><trkpt lat="46.14172" lon="13.64587"><ele>427.99999999999994</ele><time>2026-05-02T09:23:54.594Z</time></trkpt><trkpt lat="46.141785" lon="13.6459833"><ele>428.0</ele><time>2026-05-02T09:23:56.594Z</time></trkpt><trkpt lat="46.1418333" lon="13.6461"><ele>428.0</ele><time>2026-05-02T09:23:58.593Z</time></trkpt><trkpt lat="46.1418917" lon="13.6461717"><ele>428.0</ele><time>2026-05-02T09:24:00.594Z</time></trkpt><trkpt lat="46.1417621" lon="13.6460348"><ele>428.0</ele><time>2026-05-02T09:24:01.607Z</time></trkpt><trkpt lat="46.1418998" lon="13.6462677"><ele>428.0</ele><time>2026-05-02T09:24:04.681Z</time></trkpt><trkpt lat="46.1419706" lon="13.6463378"><ele>423.49999999999994</ele><time>2026-05-02T09:24:06.626Z</time></trkpt><trkpt lat="46.1420543" lon="13.6463736"><ele>419.0</ele><time>2026-05-02T09:24:08.534Z</time></trkpt><trkpt lat="46.1421255" lon="13.6464598"><ele>414.5</ele><time>2026-05-02T09:24:10.608Z</time></trkpt><trkpt lat="46.1421603" lon="13.6465542"><ele>410.0</ele><time>2026-05-02T09:24:12.646Z</time></trkpt><trkpt lat="46.1421847" lon="13.6466568"><ele>405.49999999999994</ele><time>2026-05-02T09:24:14.657Z</time></trkpt><trkpt lat="46.1422337" lon="13.6467573"><ele>401.0</ele><time>2026-05-02T09:24:16.633Z</time></trkpt><trkpt lat="46.1423197" lon="13.6467935"><ele>400.8333333333333</ele><time>2026-05-02T09:24:18.676Z</time></trkpt><trkpt lat="46.1423995" lon="13.6467888"><ele>400.66666666666663</ele><time>2026-05-02T09:24:20.617Z</time></trkpt><trkpt lat="46.1424853" lon="13.6468379"><ele>400.5</ele><time>2026-05-02T09:24:22.668Z</time></trkpt><trkpt lat="46.1425874" lon="13.6468991"><ele>400.33333333333337</ele><time>2026-05-02T09:24:24.613Z</time></trkpt><trkpt lat="46.1426647" lon="13.6469354"><ele>400.1666666666667</ele><time>2026-05-02T09:24:26.219Z</time></trkpt><trkpt lat="46.1427164" lon="13.6469893"><ele>400.0</ele><time>2026-05-02T09:24:27.677Z</time></trkpt><trkpt lat="46.142758" lon="13.6471465"><ele>400.0</ele><time>2026-05-02T09:24:29.619Z</time></trkpt><trkpt lat="46.1427781" lon="13.6472755"><ele>400.0</ele><time>2026-05-02T09:24:31.673Z</time></trkpt><trkpt lat="46.1428352" lon="13.6473179"><ele>400.0</ele><time>2026-05-02T09:24:32.595Z</time></trkpt><trkpt lat="46.1429105" lon="13.6473939"><ele>400.0</ele><time>2026-05-02T09:24:34.625Z</time></trkpt><trkpt lat="46.143035" lon="13.6476517"><ele>400.0</ele><time>2026-05-02T09:24:35.593Z</time></trkpt><trkpt lat="46.1430667" lon="13.6477533"><ele>400.0</ele><time>2026-05-02T09:24:36.594Z</time></trkpt><trkpt lat="46.1431067" lon="13.6478383"><ele>400.0</ele><time>2026-05-02T09:24:37.593Z</time></trkpt><trkpt lat="46.1431917" lon="13.6479483"><ele>400.0</ele><time>2026-05-02T09:24:39.593Z</time></trkpt><trkpt lat="46.143027" lon="13.6475875"><ele>399.0</ele><time>2026-05-02T09:24:40.542Z</time></trkpt><trkpt lat="46.1431821" lon="13.64788"><ele>398.0</ele><time>2026-05-02T09:24:41.659Z</time></trkpt><trkpt lat="46.1432555" lon="13.6479737"><ele>397.0</ele><time>2026-05-02T09:24:42.64Z</time></trkpt><trkpt lat="46.1433053" lon="13.6480309"><ele>396.0</ele><time>2026-05-02T09:24:43.604Z</time></trkpt><trkpt lat="46.1433561" lon="13.6481432"><ele>396.0</ele><time>2026-05-02T09:24:45.614Z</time></trkpt><trkpt lat="46.1433605" lon="13.6482484"><ele>396.0</ele><time>2026-05-02T09:24:47.651Z</time></trkpt><trkpt lat="46.1433545" lon="13.6483836"><ele>396.0</ele><time>2026-05-02T09:24:49.701Z</time></trkpt><trkpt lat="46.1434338" lon="13.6485121"><ele>396.0</ele><time>2026-05-02T09:24:51.635Z</time></trkpt><trkpt lat="46.1435219" lon="13.6485785"><ele>396.0</ele><time>2026-05-02T09:24:53.672Z</time></trkpt><trkpt lat="46.1436019" lon="13.6486489"><ele>395.75</ele><time>2026-05-02T09:24:55.609Z</time></trkpt><trkpt lat="46.1436782" lon="13.6486923"><ele>395.5</ele><time>2026-05-02T09:24:57.65Z</time></trkpt><trkpt lat="46.1437638" lon="13.6487022"><ele>395.25</ele><time>2026-05-02T09:24:59.663Z</time></trkpt><trkpt lat="46.1440185" lon="13.6488347"><ele>395.0</ele><time>2026-05-02T09:25:00.593Z</time></trkpt><trkpt lat="46.1441995" lon="13.6489199"><ele>395.0</ele><time>2026-05-02T09:25:01.592Z</time></trkpt><trkpt lat="46.1443351" lon="13.6489823"><ele>395.0</ele><time>2026-05-02T09:25:02.593Z</time></trkpt><trkpt lat="46.1444498" lon="13.649024"><ele>395.0</ele><time>2026-05-02T09:25:03.593Z</time></trkpt><trkpt lat="46.144544" lon="13.6490541"><ele>395.0</ele><time>2026-05-02T09:25:04.593Z</time></trkpt><trkpt lat="46.1446213" lon="13.6490739"><ele>395.0</ele><time>2026-05-02T09:25:05.593Z</time></trkpt><trkpt lat="46.1446886" lon="13.6490881"><ele>395.0</ele><time>2026-05-02T09:25:06.593Z</time></trkpt><trkpt lat="46.1447795" lon="13.6491163"><ele>395.0</ele><time>2026-05-02T09:25:08.595Z</time></trkpt><trkpt lat="46.1448661" lon="13.649184"><ele>395.0</ele><time>2026-05-02T09:25:10.593Z</time></trkpt><trkpt lat="46.1449824" lon="13.6492575"><ele>395.0</ele><time>2026-05-02T09:25:12.594Z</time></trkpt><trkpt lat="46.1450463" lon="13.6492773"><ele>395.0</ele><time>2026-05-02T09:25:13.593Z</time></trkpt><trkpt lat="46.1451128" lon="13.6492879"><ele>395.16666666666663</ele><time>2026-05-02T09:25:14.594Z</time></trkpt><trkpt lat="46.1452274" lon="13.6493566"><ele>395.3333333333333</ele><time>2026-05-02T09:25:16.593Z</time></trkpt><trkpt lat="46.145288" lon="13.6494033"><ele>395.5</ele><time>2026-05-02T09:25:17.594Z</time></trkpt><trkpt lat="46.145342" lon="13.6494808"><ele>395.66666666666663</ele><time>2026-05-02T09:25:18.594Z</time></trkpt><trkpt lat="46.1453987" lon="13.6495521"><ele>395.8333333333333</ele><time>2026-05-02T09:25:19.593Z</time></trkpt><trkpt lat="46.1454555" lon="13.6496214"><ele>396.0</ele><time>2026-05-02T09:25:20.597Z</time></trkpt><trkpt lat="46.1455135" lon="13.649682"><ele>396.0</ele><time>2026-05-02T09:25:21.593Z</time></trkpt><trkpt lat="46.1455733" lon="13.6497277"><ele>396.0</ele><time>2026-05-02T09:25:22.594Z</time></trkpt><trkpt lat="46.1456354" lon="13.6497692"><ele>396.0</ele><time>2026-05-02T09:25:23.593Z</time></trkpt><trkpt lat="46.1456951" lon="13.6498167"><ele>396.0</ele><time>2026-05-02T09:25:24.593Z</time></trkpt><trkpt lat="46.1457502" lon="13.6498918"><ele>396.0</ele><time>2026-05-02T09:25:25.593Z</time></trkpt><trkpt lat="46.1458108" lon="13.6499831"><ele>396.0</ele><time>2026-05-02T09:25:26.593Z</time></trkpt><trkpt lat="46.1458816" lon="13.6500803"><ele>397.20000000000005</ele><time>2026-05-02T09:25:27.594Z</time></trkpt><trkpt lat="46.1459647" lon="13.6501673"><ele>398.40000000000003</ele><time>2026-05-02T09:25:28.594Z</time></trkpt><trkpt lat="46.1460508" lon="13.6502557"><ele>399.6</ele><time>2026-05-02T09:25:29.593Z</time></trkpt><trkpt lat="46.1461355" lon="13.650336"><ele>400.8</ele><time>2026-05-02T09:25:30.594Z</time></trkpt><trkpt lat="46.1462101" lon="13.6503931"><ele>402.0</ele><time>2026-05-02T09:25:31.593Z</time></trkpt><trkpt lat="46.1462707" lon="13.6504416"><ele>402.0</ele><time>2026-05-02T09:25:32.593Z</time></trkpt><trkpt lat="46.1463199" lon="13.6505015"><ele>402.0</ele><time>2026-05-02T09:25:33.594Z</time></trkpt><trkpt lat="46.1463614" lon="13.6505802"><ele>402.0</ele><time>2026-05-02T09:25:34.593Z</time></trkpt><trkpt lat="46.1464254" lon="13.6507267"><ele>402.0</ele><time>2026-05-02T09:25:36.593Z</time></trkpt><trkpt lat="46.1465076" lon="13.6508477"><ele>402.0</ele><time>2026-05-02T09:25:38.593Z</time></trkpt><trkpt lat="46.1465726" lon="13.6509077"><ele>402.0</ele><time>2026-05-02T09:25:39.593Z</time></trkpt><trkpt lat="46.1466573" lon="13.650954"><ele>404.40000000000003</ele><time>2026-05-02T09:25:40.594Z</time></trkpt><trkpt lat="46.1467634" lon="13.6509858"><ele>406.8</ele><time>2026-05-02T09:25:41.593Z</time></trkpt><trkpt lat="46.146857" lon="13.6510271"><ele>409.2</ele><time>2026-05-02T09:25:42.593Z</time></trkpt><trkpt lat="46.1469488" lon="13.6510794"><ele>411.6</ele><time>2026-05-02T09:25:43.595Z</time></trkpt><trkpt lat="46.1470436" lon="13.6511437"><ele>414.0</ele><time>2026-05-02T09:25:44.593Z</time></trkpt><trkpt lat="46.1471369" lon="13.6512038"><ele>414.0</ele><time>2026-05-02T09:25:45.593Z</time></trkpt><trkpt lat="46.1472216" lon="13.6512765"><ele>414.0</ele><time>2026-05-02T09:25:46.594Z</time></trkpt><trkpt lat="46.1472984" lon="13.6513558"><ele>414.0</ele><time>2026-05-02T09:25:47.594Z</time></trkpt><trkpt lat="46.1473665" lon="13.6514323"><ele>414.0</ele><time>2026-05-02T09:25:48.593Z</time></trkpt><trkpt lat="46.1474298" lon="13.6514956"><ele>414.0</ele><time>2026-05-02T09:25:49.593Z</time></trkpt><trkpt lat="46.1474916" lon="13.6515483"><ele>414.0</ele><time>2026-05-02T09:25:50.594Z</time></trkpt><trkpt lat="46.1475555" lon="13.6515972"><ele>413.8333333333333</ele><time>2026-05-02T09:25:51.593Z</time></trkpt><trkpt lat="46.1476262" lon="13.6516494"><ele>413.66666666666663</ele><time>2026-05-02T09:25:52.593Z</time></trkpt><trkpt lat="46.147696" lon="13.6517172"><ele>413.5</ele><time>2026-05-02T09:25:53.593Z</time></trkpt><trkpt lat="46.1477605" lon="13.6518004"><ele>413.3333333333333</ele><time>2026-05-02T09:25:54.593Z</time></trkpt><trkpt lat="46.1478245" lon="13.6518891"><ele>413.16666666666663</ele><time>2026-05-02T09:25:55.594Z</time></trkpt><trkpt lat="46.1478965" lon="13.6519626"><ele>413.0</ele><time>2026-05-02T09:25:56.593Z</time></trkpt><trkpt lat="46.1479736" lon="13.6520212"><ele>412.99999999999994</ele><time>2026-05-02T09:25:57.593Z</time></trkpt><trkpt lat="46.1480538" lon="13.6520599"><ele>413.0</ele><time>2026-05-02T09:25:58.594Z</time></trkpt><trkpt lat="46.1481312" lon="13.6520815"><ele>413.0</ele><time>2026-05-02T09:25:59.593Z</time></trkpt><trkpt lat="46.1482051" lon="13.6520915"><ele>413.0</ele><time>2026-05-02T09:26:00.593Z</time></trkpt><trkpt lat="46.1482784" lon="13.6520966"><ele>412.99999999999994</ele><time>2026-05-02T09:26:01.594Z</time></trkpt><trkpt lat="46.1483493" lon="13.6520925"><ele>413.0</ele><time>2026-05-02T09:26:02.594Z</time></trkpt><trkpt lat="46.1484196" lon="13.6520769"><ele>412.8333333333333</ele><time>2026-05-02T09:26:03.593Z</time></trkpt><trkpt lat="46.1484863" lon="13.652062"><ele>412.66666666666663</ele><time>2026-05-02T09:26:04.595Z</time></trkpt><trkpt lat="46.1486045" lon="13.6520288"><ele>412.5</ele><time>2026-05-02T09:26:06.593Z</time></trkpt><trkpt lat="46.148689" lon="13.6519759"><ele>412.33333333333337</ele><time>2026-05-02T09:26:08.593Z</time></trkpt><trkpt lat="46.1487407" lon="13.651889"><ele>412.1666666666667</ele><time>2026-05-02T09:26:10.593Z</time></trkpt><trkpt lat="46.1487774" lon="13.6518137"><ele>412.0</ele><time>2026-05-02T09:26:11.593Z</time></trkpt><trkpt lat="46.1488207" lon="13.6517196"><ele>414.00000000000006</ele><time>2026-05-02T09:26:12.594Z</time></trkpt><trkpt lat="46.1488755" lon="13.6516293"><ele>416.0</ele><time>2026-05-02T09:26:13.594Z</time></trkpt><trkpt lat="46.1489369" lon="13.6515528"><ele>418.0</ele><time>2026-05-02T09:26:14.594Z</time></trkpt><trkpt lat="46.1489943" lon="13.6514884"><ele>420.0</ele><time>2026-05-02T09:26:15.594Z</time></trkpt><trkpt lat="46.1490436" lon="13.6514291"><ele>422.00000000000006</ele><time>2026-05-02T09:26:16.593Z</time></trkpt><trkpt lat="46.1491445" lon="13.6513401"><ele>424.0</ele><time>2026-05-02T09:26:18.594Z</time></trkpt><trkpt lat="46.149238" lon="13.6512945"><ele>424.0</ele><time>2026-05-02T09:26:20.593Z</time></trkpt><trkpt lat="46.1493277" lon="13.6512821"><ele>424.0</ele><time>2026-05-02T09:26:22.594Z</time></trkpt><trkpt lat="46.149401" lon="13.6512788"><ele>424.0</ele><time>2026-05-02T09:26:24.593Z</time></trkpt><trkpt lat="46.1493911" lon="13.6514745"><ele>424.0</ele><time>2026-05-02T09:26:29.594Z</time></trkpt><trkpt lat="46.1493622" lon="13.651586"><ele>424.0</ele><time>2026-05-02T09:26:30.593Z</time></trkpt><trkpt lat="46.1493421" lon="13.6517019"><ele>424.00000000000006</ele><time>2026-05-02T09:26:31.594Z</time></trkpt><trkpt lat="46.1493213" lon="13.6518159"><ele>424.0</ele><time>2026-05-02T09:26:32.594Z</time></trkpt><trkpt lat="46.1493075" lon="13.6519317"><ele>424.0</ele><time>2026-05-02T09:26:33.593Z</time></trkpt><trkpt lat="46.1492968" lon="13.6520264"><ele>424.0</ele><time>2026-05-02T09:26:35.641Z</time></trkpt><trkpt lat="46.1493253" lon="13.6521335"><ele>424.00000000000006</ele><time>2026-05-02T09:26:36.588Z</time></trkpt><trkpt lat="46.149406" lon="13.652293"><ele>424.0</ele><time>2026-05-02T09:26:37.644Z</time></trkpt><trkpt lat="46.1494836" lon="13.6523636"><ele>421.2</ele><time>2026-05-02T09:26:38.709Z</time></trkpt><trkpt lat="46.1495623" lon="13.6524258"><ele>418.4</ele><time>2026-05-02T09:26:40.66Z</time></trkpt><trkpt lat="46.1496279" lon="13.6524763"><ele>415.6</ele><time>2026-05-02T09:26:41.567Z</time></trkpt><trkpt lat="46.149692" lon="13.6525332"><ele>412.8</ele><time>2026-05-02T09:26:42.269Z</time></trkpt><trkpt lat="46.1498266" lon="13.6526712"><ele>410.0</ele><time>2026-05-02T09:26:43.648Z</time></trkpt><trkpt lat="46.1499079" lon="13.6527555"><ele>413.6</ele><time>2026-05-02T09:26:44.64Z</time></trkpt><trkpt lat="46.1499943" lon="13.6528204"><ele>417.2</ele><time>2026-05-02T09:26:45.585Z</time></trkpt><trkpt lat="46.1500972" lon="13.6528773"><ele>420.79999999999995</ele><time>2026-05-02T09:26:46.594Z</time></trkpt><trkpt lat="46.150196" lon="13.6529242"><ele>424.4</ele><time>2026-05-02T09:26:47.607Z</time></trkpt><trkpt lat="46.1502949" lon="13.6529817"><ele>428.0</ele><time>2026-05-02T09:26:48.593Z</time></trkpt><trkpt lat="46.1503932" lon="13.6530415"><ele>428.0</ele><time>2026-05-02T09:26:49.594Z</time></trkpt><trkpt lat="46.1504863" lon="13.6531034"><ele>427.99999999999994</ele><time>2026-05-02T09:26:50.594Z</time></trkpt><trkpt lat="46.1505769" lon="13.6531589"><ele>427.99999999999994</ele><time>2026-05-02T09:26:51.593Z</time></trkpt><trkpt lat="46.1506576" lon="13.6532192"><ele>428.0</ele><time>2026-05-02T09:26:52.594Z</time></trkpt><trkpt lat="46.1507341" lon="13.6532834"><ele>428.0</ele><time>2026-05-02T09:26:53.593Z</time></trkpt><trkpt lat="46.1508125" lon="13.6533493"><ele>427.16666666666663</ele><time>2026-05-02T09:26:54.594Z</time></trkpt><trkpt lat="46.1508953" lon="13.6534082"><ele>426.3333333333333</ele><time>2026-05-02T09:26:55.593Z</time></trkpt><trkpt lat="46.1509813" lon="13.6534677"><ele>425.5</ele><time>2026-05-02T09:26:56.594Z</time></trkpt><trkpt lat="46.151062" lon="13.6535218"><ele>424.66666666666663</ele><time>2026-05-02T09:26:57.593Z</time></trkpt><trkpt lat="46.1511279" lon="13.653574"><ele>423.8333333333333</ele><time>2026-05-02T09:26:58.593Z</time></trkpt><trkpt lat="46.1511816" lon="13.6536243"><ele>423.0</ele><time>2026-05-02T09:26:59.594Z</time></trkpt><trkpt lat="46.1512805" lon="13.6537045"><ele>423.0</ele><time>2026-05-02T09:27:01.594Z</time></trkpt><trkpt lat="46.1513672" lon="13.6537104"><ele>423.0</ele><time>2026-05-02T09:27:03.594Z</time></trkpt><trkpt lat="46.1514745" lon="13.6536888"><ele>423.0</ele><time>2026-05-02T09:27:05.594Z</time></trkpt><trkpt lat="46.1515711" lon="13.6537169"><ele>423.0</ele><time>2026-05-02T09:27:07.594Z</time></trkpt><trkpt lat="46.1516099" lon="13.653833"><ele>423.0</ele><time>2026-05-02T09:27:09.594Z</time></trkpt><trkpt lat="46.1516451" lon="13.6539595"><ele>424.0</ele><time>2026-05-02T09:27:11.594Z</time></trkpt><trkpt lat="46.1517173" lon="13.65402"><ele>425.0</ele><time>2026-05-02T09:27:13.594Z</time></trkpt><trkpt lat="46.1518362" lon="13.6540498"><ele>425.99999999999994</ele><time>2026-05-02T09:27:15.594Z</time></trkpt><trkpt lat="46.151901" lon="13.65404"><ele>427.0</ele><time>2026-05-02T09:27:16.594Z</time></trkpt><trkpt lat="46.1520198" lon="13.6539789"><ele>428.0</ele><time>2026-05-02T09:27:18.593Z</time></trkpt><trkpt lat="46.1520813" lon="13.6539456"><ele>427.99999999999994</ele><time>2026-05-02T09:27:19.594Z</time></trkpt><trkpt lat="46.1521456" lon="13.6539269"><ele>428.0</ele><time>2026-05-02T09:27:20.594Z</time></trkpt><trkpt lat="46.1522174" lon="13.6539216"><ele>428.0</ele><time>2026-05-02T09:27:21.594Z</time></trkpt><trkpt lat="46.1522983" lon="13.6539222"><ele>428.0</ele><time>2026-05-02T09:27:22.593Z</time></trkpt><trkpt lat="46.1523874" lon="13.6539172"><ele>427.99999999999994</ele><time>2026-05-02T09:27:23.593Z</time></trkpt><trkpt lat="46.152481" lon="13.6539032"><ele>428.0</ele><time>2026-05-02T09:27:24.595Z</time></trkpt><trkpt lat="46.1525711" lon="13.653884"><ele>429.49999999999994</ele><time>2026-05-02T09:27:25.594Z</time></trkpt><trkpt lat="46.1526599" lon="13.653872"><ele>431.0</ele><time>2026-05-02T09:27:26.595Z</time></trkpt><trkpt lat="46.1527453" lon="13.6538764"><ele>432.5</ele><time>2026-05-02T09:27:27.594Z</time></trkpt><trkpt lat="46.1528274" lon="13.6538821"><ele>434.0</ele><time>2026-05-02T09:27:28.594Z</time></trkpt><trkpt lat="46.1528994" lon="13.6538946"><ele>435.49999999999994</ele><time>2026-05-02T09:27:29.594Z</time></trkpt><trkpt lat="46.1530117" lon="13.6538834"><ele>437.0</ele><time>2026-05-02T09:27:31.593Z</time></trkpt><trkpt lat="46.1531065" lon="13.6538133"><ele>436.99999999999994</ele><time>2026-05-02T09:27:33.594Z</time></trkpt><trkpt lat="46.153163" lon="13.6537581"><ele>437.0</ele><time>2026-05-02T09:27:34.593Z</time></trkpt><trkpt lat="46.1532245" lon="13.6537013"><ele>437.0</ele><time>2026-05-02T09:27:35.594Z</time></trkpt><trkpt lat="46.1532846" lon="13.6536596"><ele>437.0</ele><time>2026-05-02T09:27:36.594Z</time></trkpt><trkpt lat="46.1534029" lon="13.6536111"><ele>436.99999999999994</ele><time>2026-05-02T09:27:38.593Z</time></trkpt><trkpt lat="46.1535156" lon="13.6536421"><ele>437.0</ele><time>2026-05-02T09:27:40.593Z</time></trkpt><trkpt lat="46.1535928" lon="13.6537718"><ele>437.66666666666663</ele><time>2026-05-02T09:27:42.594Z</time></trkpt><trkpt lat="46.1536304" lon="13.653863"><ele>438.3333333333333</ele><time>2026-05-02T09:27:43.595Z</time></trkpt><trkpt lat="46.1536693" lon="13.6539515"><ele>439.0</ele><time>2026-05-02T09:27:44.594Z</time></trkpt><trkpt lat="46.1537128" lon="13.6540181"><ele>439.66666666666663</ele><time>2026-05-02T09:27:45.594Z</time></trkpt><trkpt lat="46.1538255" lon="13.6540707"><ele>440.3333333333333</ele><time>2026-05-02T09:27:47.593Z</time></trkpt><trkpt lat="46.1539015" lon="13.6540823"><ele>441.0</ele><time>2026-05-02T09:27:48.594Z</time></trkpt><trkpt lat="46.1539938" lon="13.6540964"><ele>442.6</ele><time>2026-05-02T09:27:49.594Z</time></trkpt><trkpt lat="46.154101" lon="13.6541106"><ele>444.20000000000005</ele><time>2026-05-02T09:27:50.594Z</time></trkpt><trkpt lat="46.1542007" lon="13.6541281"><ele>445.79999999999995</ele><time>2026-05-02T09:27:51.594Z</time></trkpt><trkpt lat="46.1542876" lon="13.6541527"><ele>447.4</ele><time>2026-05-02T09:27:52.594Z</time></trkpt><trkpt lat="46.1543658" lon="13.6541766"><ele>449.0</ele><time>2026-05-02T09:27:53.593Z</time></trkpt><trkpt lat="46.154437" lon="13.6541996"><ele>449.0</ele><time>2026-05-02T09:27:54.594Z</time></trkpt><trkpt lat="46.1545133" lon="13.654233"><ele>449.0</ele><time>2026-05-02T09:27:55.594Z</time></trkpt><trkpt lat="46.1545964" lon="13.6542821"><ele>449.0</ele><time>2026-05-02T09:27:56.594Z</time></trkpt><trkpt lat="46.1546834" lon="13.6543535"><ele>449.0</ele><time>2026-05-02T09:27:57.594Z</time></trkpt><trkpt lat="46.1547715" lon="13.6544323"><ele>449.0</ele><time>2026-05-02T09:27:58.593Z</time></trkpt><trkpt lat="46.1548573" lon="13.6545036"><ele>446.49999999999994</ele><time>2026-05-02T09:27:59.593Z</time></trkpt><trkpt lat="46.1549343" lon="13.654576"><ele>444.0</ele><time>2026-05-02T09:28:00.594Z</time></trkpt><trkpt lat="46.1550054" lon="13.6546463"><ele>441.5</ele><time>2026-05-02T09:28:01.594Z</time></trkpt><trkpt lat="46.1550761" lon="13.6547099"><ele>439.0</ele><time>2026-05-02T09:28:02.594Z</time></trkpt><trkpt lat="46.1551423" lon="13.6547649"><ele>436.49999999999994</ele><time>2026-05-02T09:28:03.593Z</time></trkpt><trkpt lat="46.155205" lon="13.6548044"><ele>434.0</ele><time>2026-05-02T09:28:04.594Z</time></trkpt><trkpt lat="46.1553114" lon="13.6548427"><ele>434.0</ele><time>2026-05-02T09:28:06.593Z</time></trkpt><trkpt lat="46.1553981" lon="13.6548196"><ele>434.0</ele><time>2026-05-02T09:28:08.594Z</time></trkpt><trkpt lat="46.1554644" lon="13.654737"><ele>434.0</ele><time>2026-05-02T09:28:10.593Z</time></trkpt><trkpt lat="46.1555194" lon="13.6546192"><ele>434.0</ele><time>2026-05-02T09:28:12.593Z</time></trkpt><trkpt lat="46.1555809" lon="13.6545239"><ele>434.0</ele><time>2026-05-02T09:28:14.594Z</time></trkpt><trkpt lat="46.1556682" lon="13.6545686"><ele>435.0</ele><time>2026-05-02T09:28:17.593Z</time></trkpt><trkpt lat="46.1557077" lon="13.6546499"><ele>436.0</ele><time>2026-05-02T09:28:18.593Z</time></trkpt><trkpt lat="46.1557892" lon="13.6547774"><ele>437.0</ele><time>2026-05-02T09:28:20.594Z</time></trkpt><trkpt lat="46.1558812" lon="13.6548306"><ele>438.0</ele><time>2026-05-02T09:28:22.594Z</time></trkpt><trkpt lat="46.1559927" lon="13.6547713"><ele>439.0</ele><time>2026-05-02T09:28:24.593Z</time></trkpt><trkpt lat="46.1560598" lon="13.654702"><ele>439.00000000000006</ele><time>2026-05-02T09:28:25.593Z</time></trkpt><trkpt lat="46.1561267" lon="13.6546184"><ele>439.0</ele><time>2026-05-02T09:28:26.593Z</time></trkpt><trkpt lat="46.1561884" lon="13.654537"><ele>439.0</ele><time>2026-05-02T09:28:27.594Z</time></trkpt><trkpt lat="46.1562469" lon="13.6544667"><ele>439.0</ele><time>2026-05-02T09:28:28.593Z</time></trkpt><trkpt lat="46.156309" lon="13.6544008"><ele>439.00000000000006</ele><time>2026-05-02T09:28:29.593Z</time></trkpt><trkpt lat="46.1563658" lon="13.6543531"><ele>439.0</ele><time>2026-05-02T09:28:30.593Z</time></trkpt><trkpt lat="46.1564248" lon="13.6543032"><ele>443.79999999999995</ele><time>2026-05-02T09:28:31.596Z</time></trkpt><trkpt lat="46.1565204" lon="13.6542157"><ele>448.59999999999997</ele><time>2026-05-02T09:28:33.594Z</time></trkpt><trkpt lat="46.1566133" lon="13.6541803"><ele>453.4</ele><time>2026-05-02T09:28:35.594Z</time></trkpt><trkpt lat="46.1567422" lon="13.6541774"><ele>458.2</ele><time>2026-05-02T09:28:37.594Z</time></trkpt><trkpt lat="46.1568324" lon="13.6541647"><ele>463.0</ele><time>2026-05-02T09:28:38.595Z</time></trkpt><trkpt lat="46.1569242" lon="13.654146"><ele>463.0</ele><time>2026-05-02T09:28:39.594Z</time></trkpt><trkpt lat="46.1570284" lon="13.6541035"><ele>462.99999999999994</ele><time>2026-05-02T09:28:40.593Z</time></trkpt><trkpt lat="46.1570917" lon="13.6540748"><ele>462.99999999999994</ele><time>2026-05-02T09:28:41.628Z</time></trkpt><trkpt lat="46.1572119" lon="13.6540561"><ele>463.0</ele><time>2026-05-02T09:28:43.671Z</time></trkpt><trkpt lat="46.1572966" lon="13.653909"><ele>463.0</ele><time>2026-05-02T09:28:44.595Z</time></trkpt><trkpt lat="46.1573749" lon="13.6538368"><ele>460.4</ele><time>2026-05-02T09:28:45.616Z</time></trkpt><trkpt lat="46.157441" lon="13.6538458"><ele>457.79999999999995</ele><time>2026-05-02T09:28:46.634Z</time></trkpt><trkpt lat="46.1575114" lon="13.6538958"><ele>455.2</ele><time>2026-05-02T09:28:47.657Z</time></trkpt><trkpt lat="46.1575972" lon="13.6538522"><ele>452.6</ele><time>2026-05-02T09:28:48.677Z</time></trkpt><trkpt lat="46.1576976" lon="13.6536738"><ele>450.0</ele><time>2026-05-02T09:28:49.594Z</time></trkpt><trkpt lat="46.1577884" lon="13.6535879"><ele>451.1666666666667</ele><time>2026-05-02T09:28:50.609Z</time></trkpt><trkpt lat="46.1578733" lon="13.6535259"><ele>452.33333333333337</ele><time>2026-05-02T09:28:51.516Z</time></trkpt><trkpt lat="46.1579697" lon="13.6534609"><ele>453.5</ele><time>2026-05-02T09:28:52.691Z</time></trkpt><trkpt lat="46.1580368" lon="13.6534176"><ele>454.6666666666667</ele><time>2026-05-02T09:28:53.672Z</time></trkpt><trkpt lat="46.1580998" lon="13.6533682"><ele>455.83333333333337</ele><time>2026-05-02T09:28:54.713Z</time></trkpt><trkpt lat="46.1581638" lon="13.6533076"><ele>457.0</ele><time>2026-05-02T09:28:56.595Z</time></trkpt><trkpt lat="46.1582306" lon="13.6532201"><ele>457.00000000000006</ele><time>2026-05-02T09:28:59.594Z</time></trkpt><trkpt lat="46.1582833" lon="13.65312"><ele>457.0</ele><time>2026-05-02T09:29:01.594Z</time></trkpt><trkpt lat="46.1583233" lon="13.6530317"><ele>457.00000000000006</ele><time>2026-05-02T09:29:03.593Z</time></trkpt><trkpt lat="46.1583283" lon="13.6529333"><ele>457.00000000000006</ele><time>2026-05-02T09:29:05.596Z</time></trkpt><trkpt lat="46.15834" lon="13.652825"><ele>457.0</ele><time>2026-05-02T09:29:07.594Z</time></trkpt><trkpt lat="46.1583633" lon="13.6527333"><ele>457.00000000000006</ele><time>2026-05-02T09:29:10.594Z</time></trkpt><trkpt lat="46.1584333" lon="13.65277"><ele>457.00000000000006</ele><time>2026-05-02T09:29:14.595Z</time></trkpt><trkpt lat="46.1585283" lon="13.6527867"><ele>457.0</ele><time>2026-05-02T09:29:16.593Z</time></trkpt><trkpt lat="46.15863" lon="13.6528617"><ele>457.00000000000006</ele><time>2026-05-02T09:29:18.592Z</time></trkpt><trkpt lat="46.1587183" lon="13.6529417"><ele>457.00000000000006</ele><time>2026-05-02T09:29:20.594Z</time></trkpt><trkpt lat="46.1588383" lon="13.6530083"><ele>457.0</ele><time>2026-05-02T09:29:22.592Z</time></trkpt><trkpt lat="46.1589" lon="13.6530467"><ele>457.0</ele><time>2026-05-02T09:29:23.593Z</time></trkpt><trkpt lat="46.1589617" lon="13.6530967"><ele>457.00000000000006</ele><time>2026-05-02T09:29:24.593Z</time></trkpt><trkpt lat="46.1590267" lon="13.653135"><ele>457.0</ele><time>2026-05-02T09:29:25.593Z</time></trkpt><trkpt lat="46.1590867" lon="13.65319"><ele>457.00000000000006</ele><time>2026-05-02T09:29:26.593Z</time></trkpt><trkpt lat="46.15915" lon="13.65325"><ele>457.00000000000006</ele><time>2026-05-02T09:29:27.592Z</time></trkpt><trkpt lat="46.1592033" lon="13.6533167"><ele>457.0</ele><time>2026-05-02T09:29:28.593Z</time></trkpt><trkpt lat="46.159255" lon="13.65337"><ele>457.00000000000006</ele><time>2026-05-02T09:29:29.592Z</time></trkpt><trkpt lat="46.159315" lon="13.6534"><ele>457.00000000000006</ele><time>2026-05-02T09:29:30.592Z</time></trkpt><trkpt lat="46.1593817" lon="13.6534183"><ele>456.8571428571429</ele><time>2026-05-02T09:29:31.593Z</time></trkpt><trkpt lat="46.159445" lon="13.65344"><ele>456.7142857142857</ele><time>2026-05-02T09:29:32.594Z</time></trkpt><trkpt lat="46.1595167" lon="13.65346"><ele>456.57142857142856</ele><time>2026-05-02T09:29:33.592Z</time></trkpt><trkpt lat="46.1595867" lon="13.653475"><ele>456.42857142857144</ele><time>2026-05-02T09:29:34.594Z</time></trkpt><trkpt lat="46.1596583" lon="13.653475"><ele>456.2857142857142</ele><time>2026-05-02T09:29:35.594Z</time></trkpt><trkpt lat="46.1597317" lon="13.6534717"><ele>456.1428571428571</ele><time>2026-05-02T09:29:36.593Z</time></trkpt><trkpt lat="46.15981" lon="13.6534683"><ele>456.0</ele><time>2026-05-02T09:29:37.593Z</time></trkpt><trkpt lat="46.1598917" lon="13.6534617"><ele>456.0</ele><time>2026-05-02T09:29:38.594Z</time></trkpt><trkpt lat="46.159985" lon="13.6534483"><ele>456.0</ele><time>2026-05-02T09:29:39.594Z</time></trkpt><trkpt lat="46.1600633" lon="13.653435"><ele>456.0</ele><time>2026-05-02T09:29:40.592Z</time></trkpt><trkpt lat="46.1601517" lon="13.653425"><ele>456.0</ele><time>2026-05-02T09:29:41.593Z</time></trkpt><trkpt lat="46.1602417" lon="13.6534167"><ele>456.0</ele><time>2026-05-02T09:29:42.593Z</time></trkpt><trkpt lat="46.16034" lon="13.6534133"><ele>456.0</ele><time>2026-05-02T09:29:43.593Z</time></trkpt><trkpt lat="46.1604283" lon="13.6534017"><ele>455.99999999999994</ele><time>2026-05-02T09:29:44.593Z</time></trkpt><trkpt lat="46.1604983" lon="13.6533967"><ele>456.0</ele><time>2026-05-02T09:29:45.593Z</time></trkpt><trkpt lat="46.1605633" lon="13.6533867"><ele>456.0</ele><time>2026-05-02T09:29:46.593Z</time></trkpt><trkpt lat="46.160635" lon="13.6533817"><ele>455.99999999999994</ele><time>2026-05-02T09:29:47.594Z</time></trkpt><trkpt lat="46.1607117" lon="13.6533867"><ele>456.0</ele><time>2026-05-02T09:29:48.593Z</time></trkpt><trkpt lat="46.1607833" lon="13.6534067"><ele>456.0</ele><time>2026-05-02T09:29:49.593Z</time></trkpt><trkpt lat="46.1608583" lon="13.6534233"><ele>457.6</ele><time>2026-05-02T09:29:50.594Z</time></trkpt><trkpt lat="46.1609333" lon="13.6534333"><ele>459.20000000000005</ele><time>2026-05-02T09:29:51.592Z</time></trkpt><trkpt lat="46.1610483" lon="13.6534467"><ele>460.79999999999995</ele><time>2026-05-02T09:29:53.593Z</time></trkpt><trkpt lat="46.1611683" lon="13.6534367"><ele>462.4</ele><time>2026-05-02T09:29:55.595Z</time></trkpt><trkpt lat="46.1612417" lon="13.6534233"><ele>464.0</ele><time>2026-05-02T09:29:56.593Z</time></trkpt><trkpt lat="46.16131" lon="13.65339"><ele>463.99999999999994</ele><time>2026-05-02T09:29:57.593Z</time></trkpt><trkpt lat="46.1613733" lon="13.6533567"><ele>464.0</ele><time>2026-05-02T09:29:58.593Z</time></trkpt><trkpt lat="46.1614667" lon="13.653325"><ele>464.0</ele><time>2026-05-02T09:30:00.594Z</time></trkpt><trkpt lat="46.1615467" lon="13.6533733"><ele>464.0</ele><time>2026-05-02T09:30:02.593Z</time></trkpt><trkpt lat="46.16164" lon="13.65345"><ele>463.99999999999994</ele><time>2026-05-02T09:30:04.594Z</time></trkpt><trkpt lat="46.161715" lon="13.6534417"><ele>464.0</ele><time>2026-05-02T09:30:06.593Z</time></trkpt><trkpt lat="46.1617817" lon="13.653365"><ele>464.0</ele><time>2026-05-02T09:30:08.594Z</time></trkpt><trkpt lat="46.161872" lon="13.6532394"><ele>464.0</ele><time>2026-05-02T09:30:10.592Z</time></trkpt><trkpt lat="46.1619334" lon="13.6531788"><ele>464.0</ele><time>2026-05-02T09:30:11.594Z</time></trkpt><trkpt lat="46.1620102" lon="13.6531142"><ele>464.0</ele><time>2026-05-02T09:30:12.593Z</time></trkpt><trkpt lat="46.1620904" lon="13.653042"><ele>464.0</ele><time>2026-05-02T09:30:13.594Z</time></trkpt><trkpt lat="46.1621697" lon="13.6529673"><ele>463.99999999999994</ele><time>2026-05-02T09:30:14.593Z</time></trkpt><trkpt lat="46.162244" lon="13.6528972"><ele>464.0</ele><time>2026-05-02T09:30:15.592Z</time></trkpt><trkpt lat="46.1623106" lon="13.6528306"><ele>464.0</ele><time>2026-05-02T09:30:16.595Z</time></trkpt><trkpt lat="46.1623694" lon="13.6527593"><ele>464.0</ele><time>2026-05-02T09:30:17.593Z</time></trkpt><trkpt lat="46.1624183" lon="13.6526878"><ele>463.99999999999994</ele><time>2026-05-02T09:30:18.593Z</time></trkpt><trkpt lat="46.162476" lon="13.6525845"><ele>464.0</ele><time>2026-05-02T09:30:20.594Z</time></trkpt><trkpt lat="46.1625072" lon="13.6524932"><ele>465.2</ele><time>2026-05-02T09:30:25.593Z</time></trkpt><trkpt lat="46.1625264" lon="13.6523928"><ele>466.4</ele><time>2026-05-02T09:30:28.593Z</time></trkpt><trkpt lat="46.1625644" lon="13.6522909"><ele>467.6</ele><time>2026-05-02T09:30:31.593Z</time></trkpt><trkpt lat="46.1626125" lon="13.6521739"><ele>468.8</ele><time>2026-05-02T09:30:33.594Z</time></trkpt><trkpt lat="46.1626927" lon="13.6520619"><ele>470.0</ele><time>2026-05-02T09:30:35.593Z</time></trkpt><trkpt lat="46.1627988" lon="13.6519579"><ele>473.99999999999994</ele><time>2026-05-02T09:30:37.594Z</time></trkpt><trkpt lat="46.1628518" lon="13.6518914"><ele>478.0</ele><time>2026-05-02T09:30:38.595Z</time></trkpt><trkpt lat="46.1628971" lon="13.6518195"><ele>482.0</ele><time>2026-05-02T09:30:39.593Z</time></trkpt><trkpt lat="46.1629692" lon="13.6516665"><ele>486.0</ele><time>2026-05-02T09:30:41.593Z</time></trkpt><trkpt lat="46.1630018" lon="13.6515732"><ele>489.99999999999994</ele><time>2026-05-02T09:30:42.593Z</time></trkpt><trkpt lat="46.1630264" lon="13.6514772"><ele>494.0</ele><time>2026-05-02T09:30:43.593Z</time></trkpt><trkpt lat="46.1630482" lon="13.6513855"><ele>494.0</ele><time>2026-05-02T09:30:44.593Z</time></trkpt><trkpt lat="46.1630697" lon="13.651295"><ele>494.0</ele><time>2026-05-02T09:30:45.594Z</time></trkpt><trkpt lat="46.1630916" lon="13.651207"><ele>494.0</ele><time>2026-05-02T09:30:46.593Z</time></trkpt><trkpt lat="46.1631162" lon="13.6511228"><ele>494.0</ele><time>2026-05-02T09:30:47.592Z</time></trkpt><trkpt lat="46.1631501" lon="13.6510387"><ele>494.0</ele><time>2026-05-02T09:30:48.593Z</time></trkpt><trkpt lat="46.1631882" lon="13.650955"><ele>494.0</ele><time>2026-05-02T09:30:49.594Z</time></trkpt><trkpt lat="46.1632415" lon="13.6508764"><ele>494.0</ele><time>2026-05-02T09:30:50.593Z</time></trkpt><trkpt lat="46.1633065" lon="13.6508085"><ele>493.3333333333333</ele><time>2026-05-02T09:30:51.593Z</time></trkpt><trkpt lat="46.1633821" lon="13.6507551"><ele>492.66666666666663</ele><time>2026-05-02T09:30:52.594Z</time></trkpt><trkpt lat="46.1634652" lon="13.6507094"><ele>492.0</ele><time>2026-05-02T09:30:53.593Z</time></trkpt><trkpt lat="46.1635442" lon="13.6506653"><ele>491.33333333333337</ele><time>2026-05-02T09:30:54.594Z</time></trkpt><trkpt lat="46.1636171" lon="13.6506261"><ele>490.6666666666667</ele><time>2026-05-02T09:30:55.594Z</time></trkpt><trkpt lat="46.1636872" lon="13.6505865"><ele>490.0</ele><time>2026-05-02T09:30:56.593Z</time></trkpt><trkpt lat="46.1637519" lon="13.6505481"><ele>490.00000000000006</ele><time>2026-05-02T09:30:57.594Z</time></trkpt><trkpt lat="46.1638464" lon="13.6504824"><ele>490.0</ele><time>2026-05-02T09:30:59.593Z</time></trkpt><trkpt lat="46.1639042" lon="13.6504451"><ele>490.0</ele><time>2026-05-02T09:31:02.594Z</time></trkpt><trkpt lat="46.1638567" lon="13.6503833"><ele>490.0</ele><time>2026-05-02T09:31:33.594Z</time></trkpt><trkpt lat="46.1637367" lon="13.6504033"><ele>490.00000000000006</ele><time>2026-05-02T09:31:35.594Z</time></trkpt><trkpt lat="46.1636583" lon="13.6504117"><ele>490.0</ele><time>2026-05-02T09:31:36.594Z</time></trkpt><trkpt lat="46.1635933" lon="13.6504083"><ele>490.00000000000006</ele><time>2026-05-02T09:31:37.594Z</time></trkpt><trkpt lat="46.163515" lon="13.6503983"><ele>490.0</ele><time>2026-05-02T09:31:38.596Z</time></trkpt><trkpt lat="46.1634417" lon="13.650395"><ele>490.0</ele><time>2026-05-02T09:31:39.593Z</time></trkpt><trkpt lat="46.1633683" lon="13.6504033"><ele>490.0</ele><time>2026-05-02T09:31:40.593Z</time></trkpt><trkpt lat="46.163285" lon="13.650415"><ele>490.00000000000006</ele><time>2026-05-02T09:31:41.593Z</time></trkpt><trkpt lat="46.163215" lon="13.6504433"><ele>490.0</ele><time>2026-05-02T09:31:42.594Z</time></trkpt><trkpt lat="46.1631441" lon="13.6504693"><ele>495.6666666666667</ele><time>2026-05-02T09:31:43.594Z</time></trkpt><trkpt lat="46.1630763" lon="13.6504975"><ele>501.33333333333337</ele><time>2026-05-02T09:31:44.593Z</time></trkpt><trkpt lat="46.1630053" lon="13.6505285"><ele>507.0</ele><time>2026-05-02T09:31:45.594Z</time></trkpt><trkpt lat="46.1629348" lon="13.6505626"><ele>512.6666666666666</ele><time>2026-05-02T09:31:46.594Z</time></trkpt><trkpt lat="46.1628724" lon="13.650593"><ele>518.3333333333333</ele><time>2026-05-02T09:31:47.593Z</time></trkpt><trkpt lat="46.1627557" lon="13.6506317"><ele>524.0</ele><time>2026-05-02T09:31:49.594Z</time></trkpt><trkpt lat="46.1626452" lon="13.6506439"><ele>524.0</ele><time>2026-05-02T09:31:51.593Z</time></trkpt><trkpt lat="46.1625332" lon="13.650624"><ele>524.0</ele><time>2026-05-02T09:31:53.594Z</time></trkpt><trkpt lat="46.1624195" lon="13.6505981"><ele>524.0</ele><time>2026-05-02T09:31:55.594Z</time></trkpt><trkpt lat="46.1623041" lon="13.6506045"><ele>524.0</ele><time>2026-05-02T09:31:57.594Z</time></trkpt><trkpt lat="46.1622167" lon="13.650681"><ele>524.0</ele><time>2026-05-02T09:31:59.595Z</time></trkpt><trkpt lat="46.1621544" lon="13.6508236"><ele>525.4</ele><time>2026-05-02T09:32:01.593Z</time></trkpt><trkpt lat="46.1620858" lon="13.6509596"><ele>526.8</ele><time>2026-05-02T09:32:03.593Z</time></trkpt><trkpt lat="46.1619975" lon="13.6510631"><ele>528.2</ele><time>2026-05-02T09:32:05.594Z</time></trkpt><trkpt lat="46.1618839" lon="13.6511527"><ele>529.6</ele><time>2026-05-02T09:32:07.594Z</time></trkpt><trkpt lat="46.1618208" lon="13.6511875"><ele>531.0</ele><time>2026-05-02T09:32:08.594Z</time></trkpt><trkpt lat="46.1617583" lon="13.6512158"><ele>531.0</ele><time>2026-05-02T09:32:09.594Z</time></trkpt><trkpt lat="46.1616973" lon="13.6512387"><ele>531.0</ele><time>2026-05-02T09:32:10.594Z</time></trkpt><trkpt lat="46.1616332" lon="13.6512679"><ele>531.0</ele><time>2026-05-02T09:32:11.594Z</time></trkpt><trkpt lat="46.1615722" lon="13.6513033"><ele>531.0</ele><time>2026-05-02T09:32:12.594Z</time></trkpt><trkpt lat="46.1615099" lon="13.6513361"><ele>531.0</ele><time>2026-05-02T09:32:13.594Z</time></trkpt><trkpt lat="46.1614413" lon="13.6513579"><ele>531.0</ele><time>2026-05-02T09:32:14.595Z</time></trkpt><trkpt lat="46.1613765" lon="13.6513753"><ele>531.0</ele><time>2026-05-02T09:32:15.594Z</time></trkpt><trkpt lat="46.1612628" lon="13.6514066"><ele>531.8</ele><time>2026-05-02T09:32:17.594Z</time></trkpt><trkpt lat="46.161173" lon="13.6513884"><ele>532.6</ele><time>2026-05-02T09:32:19.594Z</time></trkpt><trkpt lat="46.1610648" lon="13.6512865"><ele>533.4</ele><time>2026-05-02T09:32:21.593Z</time></trkpt><trkpt lat="46.1610072" lon="13.6512325"><ele>534.2</ele><time>2026-05-02T09:32:22.593Z</time></trkpt><trkpt lat="46.1609328" lon="13.6511123"><ele>535.0</ele><time>2026-05-02T09:32:24.593Z</time></trkpt><trkpt lat="46.1608849" lon="13.6509848"><ele>540.2</ele><time>2026-05-02T09:32:26.593Z</time></trkpt><trkpt lat="46.1608192" lon="13.650907"><ele>545.4</ele><time>2026-05-02T09:32:28.593Z</time></trkpt><trkpt lat="46.1607104" lon="13.6508671"><ele>550.6</ele><time>2026-05-02T09:32:30.593Z</time></trkpt><trkpt lat="46.1605952" lon="13.6508089"><ele>555.8</ele><time>2026-05-02T09:32:32.594Z</time></trkpt><trkpt lat="46.1605393" lon="13.6507497"><ele>561.0</ele><time>2026-05-02T09:32:33.593Z</time></trkpt><trkpt lat="46.1604787" lon="13.6506837"><ele>561.0</ele><time>2026-05-02T09:32:34.594Z</time></trkpt><trkpt lat="46.1604288" lon="13.6506118"><ele>561.0</ele><time>2026-05-02T09:32:35.594Z</time></trkpt><trkpt lat="46.1603592" lon="13.6504637"><ele>561.0</ele><time>2026-05-02T09:32:37.594Z</time></trkpt><trkpt lat="46.1603299" lon="13.6503829"><ele>561.0</ele><time>2026-05-02T09:32:38.593Z</time></trkpt><trkpt lat="46.1602829" lon="13.6502512"><ele>561.0</ele><time>2026-05-02T09:32:40.594Z</time></trkpt><trkpt lat="46.1602237" lon="13.6501973"><ele>561.0</ele><time>2026-05-02T09:32:42.593Z</time></trkpt><trkpt lat="46.1601461" lon="13.6502178"><ele>561.0</ele><time>2026-05-02T09:32:45.594Z</time></trkpt><trkpt lat="46.1600538" lon="13.6503002"><ele>561.0</ele><time>2026-05-02T09:32:47.594Z</time></trkpt><trkpt lat="46.1599982" lon="13.6503525"><ele>561.0</ele><time>2026-05-02T09:32:48.594Z</time></trkpt><trkpt lat="46.1599355" lon="13.6504053"><ele>561.0</ele><time>2026-05-02T09:32:49.594Z</time></trkpt><trkpt lat="46.1598611" lon="13.6504557"><ele>561.0</ele><time>2026-05-02T09:32:50.595Z</time></trkpt><trkpt lat="46.1597788" lon="13.6505171"><ele>561.0</ele><time>2026-05-02T09:32:51.593Z</time></trkpt><trkpt lat="46.1596843" lon="13.6505968"><ele>558.4</ele><time>2026-05-02T09:32:52.595Z</time></trkpt><trkpt lat="46.1595959" lon="13.6506716"><ele>555.8</ele><time>2026-05-02T09:32:53.593Z</time></trkpt><trkpt lat="46.1595149" lon="13.6507343"><ele>553.1999999999999</ele><time>2026-05-02T09:32:54.593Z</time></trkpt><trkpt lat="46.159441" lon="13.6507802"><ele>550.6</ele><time>2026-05-02T09:32:55.594Z</time></trkpt><trkpt lat="46.1593748" lon="13.6508017"><ele>548.0</ele><time>2026-05-02T09:32:56.595Z</time></trkpt><trkpt lat="46.1592683" lon="13.650767"><ele>548.0</ele><time>2026-05-02T09:32:58.594Z</time></trkpt><trkpt lat="46.1591986" lon="13.6506584"><ele>548.0</ele><time>2026-05-02T09:33:00.594Z</time></trkpt><trkpt lat="46.1591749" lon="13.6505061"><ele>548.0</ele><time>2026-05-02T09:33:02.594Z</time></trkpt><trkpt lat="46.1591632" lon="13.6504136"><ele>548.0</ele><time>2026-05-02T09:33:03.593Z</time></trkpt><trkpt lat="46.1591465" lon="13.6503224"><ele>548.0</ele><time>2026-05-02T09:33:04.595Z</time></trkpt><trkpt lat="46.15912" lon="13.6502359"><ele>548.0</ele><time>2026-05-02T09:33:05.594Z</time></trkpt><trkpt lat="46.1590838" lon="13.6501511"><ele>547.3333333333333</ele><time>2026-05-02T09:33:06.593Z</time></trkpt><trkpt lat="46.1590338" lon="13.6500646"><ele>546.6666666666666</ele><time>2026-05-02T09:33:07.593Z</time></trkpt><trkpt lat="46.1589847" lon="13.6499822"><ele>546.0</ele><time>2026-05-02T09:33:08.595Z</time></trkpt><trkpt lat="46.1589378" lon="13.649911"><ele>545.3333333333334</ele><time>2026-05-02T09:33:09.593Z</time></trkpt><trkpt lat="46.1588674" lon="13.6497597"><ele>544.6666666666667</ele><time>2026-05-02T09:33:11.593Z</time></trkpt><trkpt lat="46.1588363" lon="13.6496605"><ele>544.0</ele><time>2026-05-02T09:33:12.593Z</time></trkpt><trkpt lat="46.1588079" lon="13.6495518"><ele>548.0</ele><time>2026-05-02T09:33:13.596Z</time></trkpt><trkpt lat="46.1587819" lon="13.6494478"><ele>552.0</ele><time>2026-05-02T09:33:14.595Z</time></trkpt><trkpt lat="46.1587598" lon="13.6493609"><ele>556.0</ele><time>2026-05-02T09:33:15.593Z</time></trkpt><trkpt lat="46.1587376" lon="13.6492267"><ele>560.0</ele><time>2026-05-02T09:33:17.593Z</time></trkpt><trkpt lat="46.1587648" lon="13.649104"><ele>564.0</ele><time>2026-05-02T09:33:19.594Z</time></trkpt><trkpt lat="46.1587941" lon="13.6489756"><ele>568.0</ele><time>2026-05-02T09:33:21.594Z</time></trkpt><trkpt lat="46.158765" lon="13.6488514"><ele>568.0</ele><time>2026-05-02T09:33:23.594Z</time></trkpt><trkpt lat="46.1586765" lon="13.6487439"><ele>568.0</ele><time>2026-05-02T09:33:25.594Z</time></trkpt><trkpt lat="46.1586112" lon="13.6486751"><ele>568.0</ele><time>2026-05-02T09:33:26.595Z</time></trkpt><trkpt lat="46.1585375" lon="13.6486027"><ele>568.0</ele><time>2026-05-02T09:33:27.593Z</time></trkpt><trkpt lat="46.1584633" lon="13.6485353"><ele>568.0</ele><time>2026-05-02T09:33:28.593Z</time></trkpt><trkpt lat="46.1583949" lon="13.6484777"><ele>571.5</ele><time>2026-05-02T09:33:29.593Z</time></trkpt><trkpt lat="46.1583307" lon="13.6484206"><ele>575.0</ele><time>2026-05-02T09:33:30.593Z</time></trkpt><trkpt lat="46.1582697" lon="13.648354"><ele>578.5</ele><time>2026-05-02T09:33:31.593Z</time></trkpt><trkpt lat="46.1582194" lon="13.6482767"><ele>582.0</ele><time>2026-05-02T09:33:32.595Z</time></trkpt><trkpt lat="46.1581816" lon="13.6481966"><ele>585.5</ele><time>2026-05-02T09:33:33.593Z</time></trkpt><trkpt lat="46.1581438" lon="13.6480569"><ele>589.0</ele><time>2026-05-02T09:33:35.594Z</time></trkpt><trkpt lat="46.1581507" lon="13.6479265"><ele>592.4</ele><time>2026-05-02T09:33:37.595Z</time></trkpt><trkpt lat="46.1581903" lon="13.6477595"><ele>595.8</ele><time>2026-05-02T09:33:39.594Z</time></trkpt><trkpt lat="46.1582688" lon="13.64762"><ele>599.2</ele><time>2026-05-02T09:33:41.594Z</time></trkpt><trkpt lat="46.1583443" lon="13.6475008"><ele>602.6</ele><time>2026-05-02T09:33:43.593Z</time></trkpt><trkpt lat="46.1583614" lon="13.6474057"><ele>606.0</ele><time>2026-05-02T09:33:45.593Z</time></trkpt><trkpt lat="46.1582667" lon="13.64732"><ele>606.0</ele><time>2026-05-02T09:33:48.595Z</time></trkpt><trkpt lat="46.1581526" lon="13.6472483"><ele>606.0</ele><time>2026-05-02T09:33:50.595Z</time></trkpt><trkpt lat="46.1580742" lon="13.6471675"><ele>606.0</ele><time>2026-05-02T09:33:52.594Z</time></trkpt><trkpt lat="46.1580085" lon="13.6471246"><ele>606.0</ele><time>2026-05-02T09:33:54.593Z</time></trkpt><trkpt lat="46.1579417" lon="13.6471319"><ele>606.0</ele><time>2026-05-02T09:33:56.595Z</time></trkpt><trkpt lat="46.1578292" lon="13.6472594"><ele>606.0</ele><time>2026-05-02T09:33:58.594Z</time></trkpt><trkpt lat="46.1577684" lon="13.6473261"><ele>606.0</ele><time>2026-05-02T09:33:59.594Z</time></trkpt><trkpt lat="46.1577104" lon="13.6473663"><ele>606.0</ele><time>2026-05-02T09:34:00.594Z</time></trkpt><trkpt lat="46.1576058" lon="13.6473789"><ele>606.0</ele><time>2026-05-02T09:34:02.594Z</time></trkpt><trkpt lat="46.1575291" lon="13.6473004"><ele>606.0</ele><time>2026-05-02T09:34:04.594Z</time></trkpt><trkpt lat="46.157472" lon="13.6471488"><ele>606.0</ele><time>2026-05-02T09:34:06.593Z</time></trkpt><trkpt lat="46.1574215" lon="13.6469927"><ele>606.0</ele><time>2026-05-02T09:34:08.595Z</time></trkpt><trkpt lat="46.1573667" lon="13.6468376"><ele>606.0</ele><time>2026-05-02T09:34:10.595Z</time></trkpt><trkpt lat="46.1573007" lon="13.6467415"><ele>606.0</ele><time>2026-05-02T09:34:12.595Z</time></trkpt><trkpt lat="46.1572213" lon="13.6467372"><ele>606.0</ele><time>2026-05-02T09:34:14.595Z</time></trkpt><trkpt lat="46.1571533" lon="13.6467959"><ele>610.4</ele><time>2026-05-02T09:34:16.594Z</time></trkpt><trkpt lat="46.1570944" lon="13.6468693"><ele>614.8</ele><time>2026-05-02T09:34:19.595Z</time></trkpt><trkpt lat="46.1570594" lon="13.6469524"><ele>619.1999999999999</ele><time>2026-05-02T09:34:21.593Z</time></trkpt><trkpt lat="46.1569906" lon="13.6470361"><ele>623.6</ele><time>2026-05-02T09:34:23.593Z</time></trkpt><trkpt lat="46.156894" lon="13.6471287"><ele>628.0</ele><time>2026-05-02T09:34:25.593Z</time></trkpt><trkpt lat="46.1567891" lon="13.6472048"><ele>628.0</ele><time>2026-05-02T09:34:27.594Z</time></trkpt><trkpt lat="46.1566791" lon="13.6472696"><ele>628.0</ele><time>2026-05-02T09:34:29.594Z</time></trkpt><trkpt lat="46.1565927" lon="13.6473424"><ele>628.0</ele><time>2026-05-02T09:34:31.593Z</time></trkpt><trkpt lat="46.1565662" lon="13.6474265"><ele>628.0</ele><time>2026-05-02T09:34:33.593Z</time></trkpt><trkpt lat="46.1565604" lon="13.6475471"><ele>628.0</ele><time>2026-05-02T09:34:35.594Z</time></trkpt><trkpt lat="46.1565094" lon="13.6476167"><ele>628.0</ele><time>2026-05-02T09:34:39.593Z</time></trkpt><trkpt lat="46.1564761" lon="13.6475161"><ele>628.0</ele><time>2026-05-02T09:34:44.627Z</time></trkpt><trkpt lat="46.1564737" lon="13.6473673"><ele>628.0</ele><time>2026-05-02T09:34:46.661Z</time></trkpt><trkpt lat="46.1565032" lon="13.647243"><ele>628.0</ele><time>2026-05-02T09:34:49.609Z</time></trkpt><trkpt lat="46.1565373" lon="13.6471308"><ele>628.0</ele><time>2026-05-02T09:34:51.594Z</time></trkpt><trkpt lat="46.1565734" lon="13.6470195"><ele>628.0</ele><time>2026-05-02T09:34:53.685Z</time></trkpt><trkpt lat="46.1565351" lon="13.6469092"><ele>629.0</ele><time>2026-05-02T09:34:56.64Z</time></trkpt><trkpt lat="46.1565932" lon="13.6468607"><ele>630.0</ele><time>2026-05-02T09:37:19.624Z</time></trkpt><trkpt lat="46.1566532" lon="13.6467964"><ele>631.0</ele><time>2026-05-02T09:37:20.591Z</time></trkpt><trkpt lat="46.1567179" lon="13.6466816"><ele>632.0</ele><time>2026-05-02T09:37:21.592Z</time></trkpt><trkpt lat="46.1567612" lon="13.646585"><ele>633.0</ele><time>2026-05-02T09:37:22.593Z</time></trkpt><trkpt lat="46.1567958" lon="13.6464786"><ele>634.0</ele><time>2026-05-02T09:37:23.594Z</time></trkpt><trkpt lat="46.1568258" lon="13.6463622"><ele>634.0</ele><time>2026-05-02T09:37:24.594Z</time></trkpt><trkpt lat="46.1568535" lon="13.6462538"><ele>634.0</ele><time>2026-05-02T09:37:25.593Z</time></trkpt><trkpt lat="46.1568831" lon="13.6461523"><ele>634.0</ele><time>2026-05-02T09:37:26.594Z</time></trkpt><trkpt lat="46.1569106" lon="13.6460658"><ele>634.0</ele><time>2026-05-02T09:37:27.594Z</time></trkpt><trkpt lat="46.1569418" lon="13.6459804"><ele>634.0</ele><time>2026-05-02T09:37:28.594Z</time></trkpt><trkpt lat="46.1569749" lon="13.6459015"><ele>634.0</ele><time>2026-05-02T09:37:29.594Z</time></trkpt><trkpt lat="46.1570132" lon="13.645828"><ele>634.0</ele><time>2026-05-02T09:37:30.593Z</time></trkpt><trkpt lat="46.1570907" lon="13.6457195"><ele>635.8</ele><time>2026-05-02T09:37:32.594Z</time></trkpt><trkpt lat="46.1571757" lon="13.6456975"><ele>637.5999999999999</ele><time>2026-05-02T09:37:34.593Z</time></trkpt><trkpt lat="46.1572829" lon="13.6457482"><ele>639.4</ele><time>2026-05-02T09:37:36.595Z</time></trkpt><trkpt lat="46.1574042" lon="13.6458085"><ele>641.1999999999999</ele><time>2026-05-02T09:37:38.594Z</time></trkpt><trkpt lat="46.1574638" lon="13.6458425"><ele>643.0</ele><time>2026-05-02T09:37:39.593Z</time></trkpt><trkpt lat="46.1575747" lon="13.6458531"><ele>644.1666666666667</ele><time>2026-05-02T09:37:41.593Z</time></trkpt><trkpt lat="46.1576792" lon="13.6457913"><ele>645.3333333333334</ele><time>2026-05-02T09:37:43.593Z</time></trkpt><trkpt lat="46.157748" lon="13.6457344"><ele>646.5</ele><time>2026-05-02T09:37:44.595Z</time></trkpt><trkpt lat="46.1578191" lon="13.6456766"><ele>647.6666666666666</ele><time>2026-05-02T09:37:45.593Z</time></trkpt><trkpt lat="46.1578933" lon="13.645628"><ele>648.8333333333333</ele><time>2026-05-02T09:37:46.594Z</time></trkpt><trkpt lat="46.1579655" lon="13.6456014"><ele>650.0</ele><time>2026-05-02T09:37:47.593Z</time></trkpt><trkpt lat="46.1580354" lon="13.6455961"><ele>650.0</ele><time>2026-05-02T09:37:48.593Z</time></trkpt><trkpt lat="46.1581046" lon="13.6456094"><ele>650.0</ele><time>2026-05-02T09:37:49.593Z</time></trkpt><trkpt lat="46.1581709" lon="13.6456371"><ele>650.0</ele><time>2026-05-02T09:37:50.594Z</time></trkpt><trkpt lat="46.1582773" lon="13.6456948"><ele>650.0</ele><time>2026-05-02T09:37:52.593Z</time></trkpt><trkpt lat="46.1583606" lon="13.6457115"><ele>650.0</ele><time>2026-05-02T09:37:54.594Z</time></trkpt><trkpt lat="46.1583367" lon="13.64562"><ele>650.0</ele><time>2026-05-02T09:41:19.593Z</time></trkpt><trkpt lat="46.1582717" lon="13.6455767"><ele>650.0</ele><time>2026-05-02T09:41:21.593Z</time></trkpt><trkpt lat="46.1582583" lon="13.6454767"><ele>650.0</ele><time>2026-05-02T09:41:24.593Z</time></trkpt><trkpt lat="46.1583517" lon="13.6454733"><ele>650.0</ele><time>2026-05-02T09:41:28.593Z</time></trkpt><trkpt lat="46.15848" lon="13.64547"><ele>650.0</ele><time>2026-05-02T09:41:30.593Z</time></trkpt><trkpt lat="46.15857" lon="13.64546"><ele>650.0</ele><time>2026-05-02T09:41:31.593Z</time></trkpt><trkpt lat="46.1586667" lon="13.64543"><ele>650.0</ele><time>2026-05-02T09:41:32.594Z</time></trkpt><trkpt lat="46.1587533" lon="13.6453867"><ele>650.0</ele><time>2026-05-02T09:41:33.592Z</time></trkpt><trkpt lat="46.1588183" lon="13.645325"><ele>650.0</ele><time>2026-05-02T09:41:34.594Z</time></trkpt><trkpt lat="46.1588783" lon="13.645275"><ele>650.0</ele><time>2026-05-02T09:41:35.593Z</time></trkpt><trkpt lat="46.158925" lon="13.6452017"><ele>650.0</ele><time>2026-05-02T09:41:36.593Z</time></trkpt><trkpt lat="46.1589683" lon="13.64513"><ele>650.0</ele><time>2026-05-02T09:41:37.593Z</time></trkpt><trkpt lat="46.15905" lon="13.6450067"><ele>653.0</ele><time>2026-05-02T09:41:39.593Z</time></trkpt><trkpt lat="46.1591583" lon="13.6449533"><ele>656.0</ele><time>2026-05-02T09:41:41.593Z</time></trkpt><trkpt lat="46.159225" lon="13.644985"><ele>659.0</ele><time>2026-05-02T09:41:42.593Z</time></trkpt><trkpt lat="46.1592983" lon="13.6450333"><ele>662.0</ele><time>2026-05-02T09:41:43.593Z</time></trkpt><trkpt lat="46.1593867" lon="13.6450667"><ele>665.0</ele><time>2026-05-02T09:41:44.595Z</time></trkpt><trkpt lat="46.15949" lon="13.645085"><ele>665.0</ele><time>2026-05-02T09:41:45.594Z</time></trkpt><trkpt lat="46.1596033" lon="13.645095"><ele>665.0</ele><time>2026-05-02T09:41:46.593Z</time></trkpt><trkpt lat="46.1597167" lon="13.645125"><ele>665.0</ele><time>2026-05-02T09:41:47.595Z</time></trkpt><trkpt lat="46.1598233" lon="13.6451833"><ele>665.0</ele><time>2026-05-02T09:41:48.594Z</time></trkpt><trkpt lat="46.1599283" lon="13.6452333"><ele>666.75</ele><time>2026-05-02T09:41:49.594Z</time></trkpt><trkpt lat="46.1600283" lon="13.6452917"><ele>668.5</ele><time>2026-05-02T09:41:50.593Z</time></trkpt><trkpt lat="46.1601367" lon="13.6453317"><ele>670.25</ele><time>2026-05-02T09:41:51.593Z</time></trkpt><trkpt lat="46.160255" lon="13.6453533"><ele>672.0</ele><time>2026-05-02T09:41:52.594Z</time></trkpt><trkpt lat="46.160375" lon="13.64537"><ele>675.6</ele><time>2026-05-02T09:41:53.593Z</time></trkpt><trkpt lat="46.1604883" lon="13.6453567"><ele>679.2</ele><time>2026-05-02T09:41:54.594Z</time></trkpt><trkpt lat="46.1605933" lon="13.64534"><ele>682.8</ele><time>2026-05-02T09:41:55.594Z</time></trkpt><trkpt lat="46.1606883" lon="13.6453067"><ele>686.4</ele><time>2026-05-02T09:41:56.594Z</time></trkpt><trkpt lat="46.16077" lon="13.6452483"><ele>690.0</ele><time>2026-05-02T09:41:57.593Z</time></trkpt><trkpt lat="46.1608417" lon="13.6451517"><ele>690.0</ele><time>2026-05-02T09:41:58.593Z</time></trkpt><trkpt lat="46.1609033" lon="13.64505"><ele>690.0</ele><time>2026-05-02T09:41:59.593Z</time></trkpt><trkpt lat="46.1609833" lon="13.6449833"><ele>690.0</ele><time>2026-05-02T09:42:00.594Z</time></trkpt><trkpt lat="46.1610933" lon="13.644945"><ele>690.0</ele><time>2026-05-02T09:42:01.594Z</time></trkpt><trkpt lat="46.1611717" lon="13.644865"><ele>690.0</ele><time>2026-05-02T09:42:02.596Z</time></trkpt><trkpt lat="46.1612717" lon="13.6447983"><ele>690.0</ele><time>2026-05-02T09:42:03.594Z</time></trkpt><trkpt lat="46.16139" lon="13.64474"><ele>690.0</ele><time>2026-05-02T09:42:04.594Z</time></trkpt><trkpt lat="46.1614917" lon="13.6446483"><ele>690.0</ele><time>2026-05-02T09:42:05.594Z</time></trkpt><trkpt lat="46.1615933" lon="13.6445517"><ele>690.0</ele><time>2026-05-02T09:42:06.593Z</time></trkpt><trkpt lat="46.1616983" lon="13.6444567"><ele>689.75</ele><time>2026-05-02T09:42:07.594Z</time></trkpt><trkpt lat="46.16181" lon="13.6443733"><ele>689.5</ele><time>2026-05-02T09:42:08.594Z</time></trkpt><trkpt lat="46.1619283" lon="13.6442883"><ele>689.25</ele><time>2026-05-02T09:42:09.593Z</time></trkpt><trkpt lat="46.1620083" lon="13.6441667"><ele>689.0</ele><time>2026-05-02T09:42:10.593Z</time></trkpt><trkpt lat="46.1620617" lon="13.6440183"><ele>689.0</ele><time>2026-05-02T09:42:11.594Z</time></trkpt><trkpt lat="46.1621083" lon="13.6438433"><ele>689.0</ele><time>2026-05-02T09:42:12.593Z</time></trkpt><trkpt lat="46.1621417" lon="13.6436517"><ele>689.0</ele><time>2026-05-02T09:42:13.598Z</time></trkpt><trkpt lat="46.1621817" lon="13.6434733"><ele>689.0</ele><time>2026-05-02T09:42:14.594Z</time></trkpt><trkpt lat="46.1622317" lon="13.6433167"><ele>684.8000000000001</ele><time>2026-05-02T09:42:15.593Z</time></trkpt><trkpt lat="46.1622917" lon="13.64319"><ele>680.6</ele><time>2026-05-02T09:42:16.596Z</time></trkpt><trkpt lat="46.1623717" lon="13.6430917"><ele>676.4</ele><time>2026-05-02T09:42:17.596Z</time></trkpt><trkpt lat="46.162455" lon="13.643"><ele>672.2</ele><time>2026-05-02T09:42:18.594Z</time></trkpt><trkpt lat="46.1625617" lon="13.6429183"><ele>668.0</ele><time>2026-05-02T09:42:19.594Z</time></trkpt><trkpt lat="46.1626617" lon="13.6428067"><ele>674.5</ele><time>2026-05-02T09:42:20.594Z</time></trkpt><trkpt lat="46.1627583" lon="13.6426767"><ele>681.0</ele><time>2026-05-02T09:42:21.592Z</time></trkpt><trkpt lat="46.1628467" lon="13.6425183"><ele>687.5</ele><time>2026-05-02T09:42:22.593Z</time></trkpt><trkpt lat="46.1629317" lon="13.6423767"><ele>694.0</ele><time>2026-05-02T09:42:23.593Z</time></trkpt><trkpt lat="46.1630033" lon="13.64225"><ele>694.0</ele><time>2026-05-02T09:42:24.593Z</time></trkpt><trkpt lat="46.1630667" lon="13.642145"><ele>694.0</ele><time>2026-05-02T09:42:25.593Z</time></trkpt><trkpt lat="46.16312" lon="13.6420533"><ele>694.0</ele><time>2026-05-02T09:42:26.594Z</time></trkpt><trkpt lat="46.1632617" lon="13.64212"><ele>694.0</ele><time>2026-05-02T09:42:28.593Z</time></trkpt><trkpt lat="46.163345" lon="13.6421617"><ele>694.0</ele><time>2026-05-02T09:42:29.593Z</time></trkpt><trkpt lat="46.1634117" lon="13.6422617"><ele>700.0</ele><time>2026-05-02T09:42:30.593Z</time></trkpt><trkpt lat="46.1634683" lon="13.6423383"><ele>706.0</ele><time>2026-05-02T09:42:31.594Z</time></trkpt><trkpt lat="46.1635017" lon="13.6424633"><ele>712.0</ele><time>2026-05-02T09:42:32.595Z</time></trkpt><trkpt lat="46.163535" lon="13.6426133"><ele>718.0</ele><time>2026-05-02T09:42:33.593Z</time></trkpt><trkpt lat="46.1636" lon="13.6427483"><ele>724.0</ele><time>2026-05-02T09:42:34.593Z</time></trkpt><trkpt lat="46.1636817" lon="13.6428567"><ele>725.0</ele><time>2026-05-02T09:42:35.593Z</time></trkpt><trkpt lat="46.1637867" lon="13.6429183"><ele>726.0</ele><time>2026-05-02T09:42:36.594Z</time></trkpt><trkpt lat="46.1639033" lon="13.6429583"><ele>727.0</ele><time>2026-05-02T09:42:37.595Z</time></trkpt><trkpt lat="46.1640183" lon="13.6429983"><ele>728.0</ele><time>2026-05-02T09:42:38.595Z</time></trkpt><trkpt lat="46.1641567" lon="13.6429983"><ele>728.0</ele><time>2026-05-02T09:42:39.594Z</time></trkpt><trkpt lat="46.164295" lon="13.6429667"><ele>728.0</ele><time>2026-05-02T09:42:40.593Z</time></trkpt><trkpt lat="46.164445" lon="13.6429333"><ele>728.0</ele><time>2026-05-02T09:42:41.593Z</time></trkpt><trkpt lat="46.164585" lon="13.6428433"><ele>728.0</ele><time>2026-05-02T09:42:42.594Z</time></trkpt><trkpt lat="46.1647267" lon="13.64273"><ele>727.75</ele><time>2026-05-02T09:42:43.595Z</time></trkpt><trkpt lat="46.16486" lon="13.64261"><ele>727.5</ele><time>2026-05-02T09:42:44.594Z</time></trkpt><trkpt lat="46.1649733" lon="13.642495"><ele>727.25</ele><time>2026-05-02T09:42:45.594Z</time></trkpt><trkpt lat="46.1650783" lon="13.64236"><ele>727.0</ele><time>2026-05-02T09:42:46.593Z</time></trkpt><trkpt lat="46.1651583" lon="13.6422133"><ele>727.0</ele><time>2026-05-02T09:42:47.595Z</time></trkpt><trkpt lat="46.1652417" lon="13.64209"><ele>727.0</ele><time>2026-05-02T09:42:48.594Z</time></trkpt><trkpt lat="46.1653283" lon="13.642005"><ele>727.0</ele><time>2026-05-02T09:42:49.594Z</time></trkpt><trkpt lat="46.16542" lon="13.6419583"><ele>727.0</ele><time>2026-05-02T09:42:50.595Z</time></trkpt><trkpt lat="46.1655267" lon="13.6419717"><ele>727.0</ele><time>2026-05-02T09:42:51.595Z</time></trkpt><trkpt lat="46.1656467" lon="13.6420217"><ele>726.75</ele><time>2026-05-02T09:42:52.593Z</time></trkpt><trkpt lat="46.1657767" lon="13.6420833"><ele>726.5</ele><time>2026-05-02T09:42:53.594Z</time></trkpt><trkpt lat="46.1659083" lon="13.6420633"><ele>726.25</ele><time>2026-05-02T09:42:54.593Z</time></trkpt><trkpt lat="46.1660467" lon="13.6419867"><ele>726.0</ele><time>2026-05-02T09:42:55.594Z</time></trkpt><trkpt lat="46.1661783" lon="13.64191"><ele>726.75</ele><time>2026-05-02T09:42:56.595Z</time></trkpt><trkpt lat="46.16631" lon="13.6418467"><ele>727.5</ele><time>2026-05-02T09:42:57.594Z</time></trkpt><trkpt lat="46.1664367" lon="13.641775"><ele>728.25</ele><time>2026-05-02T09:42:58.594Z</time></trkpt><trkpt lat="46.1665467" lon="13.64168"><ele>729.0</ele><time>2026-05-02T09:42:59.594Z</time></trkpt><trkpt lat="46.1666433" lon="13.64158"><ele>729.0</ele><time>2026-05-02T09:43:00.594Z</time></trkpt><trkpt lat="46.1667133" lon="13.6414267"><ele>729.0</ele><time>2026-05-02T09:43:01.594Z</time></trkpt><trkpt lat="46.1667717" lon="13.6412583"><ele>729.0</ele><time>2026-05-02T09:43:02.594Z</time></trkpt><trkpt lat="46.1668183" lon="13.6410767"><ele>729.0</ele><time>2026-05-02T09:43:03.593Z</time></trkpt><trkpt lat="46.1668433" lon="13.6408733"><ele>729.0</ele><time>2026-05-02T09:43:04.593Z</time></trkpt><trkpt lat="46.166855" lon="13.6406567"><ele>729.0</ele><time>2026-05-02T09:43:05.593Z</time></trkpt><trkpt lat="46.1668817" lon="13.64044"><ele>729.0</ele><time>2026-05-02T09:43:06.593Z</time></trkpt><trkpt lat="46.1669183" lon="13.6402483"><ele>729.0</ele><time>2026-05-02T09:43:07.595Z</time></trkpt><trkpt lat="46.1669483" lon="13.6400883"><ele>727.2</ele><time>2026-05-02T09:43:08.594Z</time></trkpt><trkpt lat="46.1669933" lon="13.6399667"><ele>725.4000000000001</ele><time>2026-05-02T09:43:09.596Z</time></trkpt><trkpt lat="46.1670617" lon="13.6399033"><ele>723.6</ele><time>2026-05-02T09:43:10.593Z</time></trkpt><trkpt lat="46.1671417" lon="13.6398867"><ele>721.8</ele><time>2026-05-02T09:43:11.594Z</time></trkpt><trkpt lat="46.1672167" lon="13.63993"><ele>720.0</ele><time>2026-05-02T09:43:12.594Z</time></trkpt><trkpt lat="46.1673033" lon="13.6400317"><ele>722.5</ele><time>2026-05-02T09:43:13.594Z</time></trkpt><trkpt lat="46.1674067" lon="13.640105"><ele>725.0</ele><time>2026-05-02T09:43:14.593Z</time></trkpt><trkpt lat="46.1675217" lon="13.6401583"><ele>727.5</ele><time>2026-05-02T09:43:15.593Z</time></trkpt><trkpt lat="46.167645" lon="13.6402083"><ele>730.0</ele><time>2026-05-02T09:43:16.594Z</time></trkpt><trkpt lat="46.1677667" lon="13.6402933"><ele>736.0</ele><time>2026-05-02T09:43:17.593Z</time></trkpt><trkpt lat="46.167885" lon="13.64043"><ele>742.0</ele><time>2026-05-02T09:43:18.593Z</time></trkpt><trkpt lat="46.1680067" lon="13.6405833"><ele>748.0</ele><time>2026-05-02T09:43:19.594Z</time></trkpt><trkpt lat="46.16814" lon="13.6407133"><ele>738.0</ele><time>2026-05-02T09:43:20.594Z</time></trkpt><trkpt lat="46.1682817" lon="13.6408217"><ele>728.0</ele><time>2026-05-02T09:43:21.593Z</time></trkpt><trkpt lat="46.1684117" lon="13.640935"><ele>718.0</ele><time>2026-05-02T09:43:22.593Z</time></trkpt><trkpt lat="46.1685217" lon="13.6410633"><ele>719.25</ele><time>2026-05-02T09:43:23.593Z</time></trkpt><trkpt lat="46.1686233" lon="13.6411933"><ele>720.5</ele><time>2026-05-02T09:43:24.594Z</time></trkpt><trkpt lat="46.1687183" lon="13.6413283"><ele>721.75</ele><time>2026-05-02T09:43:25.594Z</time></trkpt><trkpt lat="46.1687967" lon="13.641475"><ele>723.0</ele><time>2026-05-02T09:43:26.594Z</time></trkpt><trkpt lat="46.168855" lon="13.6416433"><ele>723.0</ele><time>2026-05-02T09:43:27.593Z</time></trkpt><trkpt lat="46.168915" lon="13.641815"><ele>723.0</ele><time>2026-05-02T09:43:28.593Z</time></trkpt><trkpt lat="46.1689867" lon="13.6419617"><ele>723.0</ele><time>2026-05-02T09:43:29.597Z</time></trkpt><trkpt lat="46.1690817" lon="13.6420733"><ele>723.0</ele><time>2026-05-02T09:43:30.594Z</time></trkpt><trkpt lat="46.1692033" lon="13.6421533"><ele>717.25</ele><time>2026-05-02T09:43:31.597Z</time></trkpt><trkpt lat="46.1693217" lon="13.6422233"><ele>711.5</ele><time>2026-05-02T09:43:32.593Z</time></trkpt><trkpt lat="46.1694617" lon="13.6422533"><ele>705.75</ele><time>2026-05-02T09:43:33.595Z</time></trkpt><trkpt lat="46.169625" lon="13.6422483"><ele>700.0</ele><time>2026-05-02T09:43:34.593Z</time></trkpt><trkpt lat="46.1697833" lon="13.6422533"><ele>707.3333333333334</ele><time>2026-05-02T09:43:35.595Z</time></trkpt><trkpt lat="46.16995" lon="13.64224"><ele>714.6666666666666</ele><time>2026-05-02T09:43:36.594Z</time></trkpt><trkpt lat="46.1701" lon="13.6421983"><ele>722.0</ele><time>2026-05-02T09:43:37.595Z</time></trkpt><trkpt lat="46.1702333" lon="13.6421367"><ele>722.0</ele><time>2026-05-02T09:43:38.595Z</time></trkpt><trkpt lat="46.1703533" lon="13.64208"><ele>722.0</ele><time>2026-05-02T09:43:39.594Z</time></trkpt><trkpt lat="46.1704583" lon="13.6420083"><ele>722.0</ele><time>2026-05-02T09:43:40.595Z</time></trkpt><trkpt lat="46.1705633" lon="13.6419833"><ele>722.0</ele><time>2026-05-02T09:43:41.594Z</time></trkpt><trkpt lat="46.1706783" lon="13.64199"><ele>725.0</ele><time>2026-05-02T09:43:42.593Z</time></trkpt><trkpt lat="46.170795" lon="13.6420217"><ele>728.0</ele><time>2026-05-02T09:43:43.594Z</time></trkpt><trkpt lat="46.1709333" lon="13.6420367"><ele>731.0</ele><time>2026-05-02T09:43:44.594Z</time></trkpt><trkpt lat="46.171075" lon="13.642015"><ele>734.0</ele><time>2026-05-02T09:43:45.593Z</time></trkpt><trkpt lat="46.17121" lon="13.64199"><ele>734.0</ele><time>2026-05-02T09:43:46.595Z</time></trkpt><trkpt lat="46.17134" lon="13.6419667"><ele>734.0</ele><time>2026-05-02T09:43:47.593Z</time></trkpt><trkpt lat="46.1714617" lon="13.6419033"><ele>734.0</ele><time>2026-05-02T09:43:48.595Z</time></trkpt><trkpt lat="46.1715867" lon="13.64185"><ele>734.0</ele><time>2026-05-02T09:43:49.593Z</time></trkpt><trkpt lat="46.171685" lon="13.6417583"><ele>734.2</ele><time>2026-05-02T09:43:50.595Z</time></trkpt><trkpt lat="46.1717883" lon="13.641735"><ele>734.4000000000001</ele><time>2026-05-02T09:43:51.593Z</time></trkpt><trkpt lat="46.1718967" lon="13.64174"><ele>734.6</ele><time>2026-05-02T09:43:52.593Z</time></trkpt><trkpt lat="46.172" lon="13.6417733"><ele>734.8</ele><time>2026-05-02T09:43:53.594Z</time></trkpt><trkpt lat="46.1721067" lon="13.6418417"><ele>735.0</ele><time>2026-05-02T09:43:54.594Z</time></trkpt><trkpt lat="46.172205" lon="13.641875"><ele>735.0</ele><time>2026-05-02T09:43:55.596Z</time></trkpt><trkpt lat="46.1723017" lon="13.6418633"><ele>735.0</ele><time>2026-05-02T09:43:56.596Z</time></trkpt><trkpt lat="46.172415" lon="13.6418317"><ele>735.0</ele><time>2026-05-02T09:43:57.594Z</time></trkpt><trkpt lat="46.1725283" lon="13.6417317"><ele>735.0</ele><time>2026-05-02T09:43:58.594Z</time></trkpt><trkpt lat="46.1726633" lon="13.64171"><ele>737.75</ele><time>2026-05-02T09:43:59.593Z</time></trkpt><trkpt lat="46.1727933" lon="13.6416867"><ele>740.5</ele><time>2026-05-02T09:44:00.593Z</time></trkpt><trkpt lat="46.1729167" lon="13.6416583"><ele>743.25</ele><time>2026-05-02T09:44:01.594Z</time></trkpt><trkpt lat="46.1730517" lon="13.64169"><ele>746.0</ele><time>2026-05-02T09:44:02.594Z</time></trkpt><trkpt lat="46.1731933" lon="13.6417317"><ele>748.5</ele><time>2026-05-02T09:44:03.594Z</time></trkpt><trkpt lat="46.1733233" lon="13.6417133"><ele>751.0</ele><time>2026-05-02T09:44:04.593Z</time></trkpt><trkpt lat="46.1734433" lon="13.6416883"><ele>753.5</ele><time>2026-05-02T09:44:05.594Z</time></trkpt><trkpt lat="46.173575" lon="13.6416867"><ele>756.0</ele><time>2026-05-02T09:44:06.594Z</time></trkpt><trkpt lat="46.1737" lon="13.6416433"><ele>756.0</ele><time>2026-05-02T09:44:07.594Z</time></trkpt><trkpt lat="46.1738167" lon="13.6415817"><ele>756.0</ele><time>2026-05-02T09:44:08.594Z</time></trkpt><trkpt lat="46.1739067" lon="13.6415"><ele>756.0</ele><time>2026-05-02T09:44:09.594Z</time></trkpt><trkpt lat="46.17403" lon="13.641485"><ele>756.0</ele><time>2026-05-02T09:44:10.593Z</time></trkpt><trkpt lat="46.1741467" lon="13.64144"><ele>757.0</ele><time>2026-05-02T09:44:11.593Z</time></trkpt><trkpt lat="46.17424" lon="13.641415"><ele>758.0</ele><time>2026-05-02T09:44:12.593Z</time></trkpt><trkpt lat="46.1743333" lon="13.64145"><ele>759.0</ele><time>2026-05-02T09:44:13.593Z</time></trkpt><trkpt lat="46.1743917" lon="13.6415117"><ele>760.0</ele><time>2026-05-02T09:44:14.596Z</time></trkpt><trkpt lat="46.1744283" lon="13.6416017"><ele>761.0</ele><time>2026-05-02T09:44:15.593Z</time></trkpt><trkpt lat="46.1744267" lon="13.6417133"><ele>762.0</ele><time>2026-05-02T09:44:16.593Z</time></trkpt><trkpt lat="46.1744183" lon="13.64184"><ele>764.75</ele><time>2026-05-02T09:44:17.593Z</time></trkpt><trkpt lat="46.1743767" lon="13.6420033"><ele>767.5</ele><time>2026-05-02T09:44:18.595Z</time></trkpt><trkpt lat="46.17431" lon="13.642185"><ele>770.25</ele><time>2026-05-02T09:44:19.594Z</time></trkpt><trkpt lat="46.1742533" lon="13.6423667"><ele>773.0</ele><time>2026-05-02T09:44:20.595Z</time></trkpt><trkpt lat="46.1742083" lon="13.64254"><ele>773.0</ele><time>2026-05-02T09:44:21.594Z</time></trkpt><trkpt lat="46.1741583" lon="13.6427217"><ele>773.0</ele><time>2026-05-02T09:44:22.594Z</time></trkpt><trkpt lat="46.1741167" lon="13.6429033"><ele>773.0</ele><time>2026-05-02T09:44:23.593Z</time></trkpt><trkpt lat="46.1740683" lon="13.6431033"><ele>773.0</ele><time>2026-05-02T09:44:24.593Z</time></trkpt><trkpt lat="46.174025" lon="13.6433017"><ele>779.75</ele><time>2026-05-02T09:44:25.593Z</time></trkpt><trkpt lat="46.173985" lon="13.64351"><ele>786.5</ele><time>2026-05-02T09:44:26.595Z</time></trkpt><trkpt lat="46.1739617" lon="13.6437217"><ele>793.25</ele><time>2026-05-02T09:44:27.594Z</time></trkpt><trkpt lat="46.17394" lon="13.643935"><ele>800.0</ele><time>2026-05-02T09:44:28.595Z</time></trkpt><trkpt lat="46.17392" lon="13.6441567"><ele>800.0</ele><time>2026-05-02T09:44:29.594Z</time></trkpt><trkpt lat="46.173895" lon="13.6443917"><ele>800.0</ele><time>2026-05-02T09:44:30.593Z</time></trkpt><trkpt lat="46.173875" lon="13.6446367"><ele>800.0</ele><time>2026-05-02T09:44:31.594Z</time></trkpt><trkpt lat="46.173875" lon="13.6448767"><ele>791.3333333333334</ele><time>2026-05-02T09:44:32.595Z</time></trkpt><trkpt lat="46.1738717" lon="13.6451167"><ele>782.6666666666667</ele><time>2026-05-02T09:44:33.595Z</time></trkpt><trkpt lat="46.17387" lon="13.6453433"><ele>774.0</ele><time>2026-05-02T09:44:34.594Z</time></trkpt><trkpt lat="46.173885" lon="13.64556"><ele>769.75</ele><time>2026-05-02T09:44:35.595Z</time></trkpt><trkpt lat="46.1738917" lon="13.6457683"><ele>765.5</ele><time>2026-05-02T09:44:36.594Z</time></trkpt><trkpt lat="46.173915" lon="13.6459683"><ele>761.25</ele><time>2026-05-02T09:44:37.595Z</time></trkpt><trkpt lat="46.17395" lon="13.6461683"><ele>757.0</ele><time>2026-05-02T09:44:38.597Z</time></trkpt><trkpt lat="46.1740217" lon="13.6463583"><ele>757.0</ele><time>2026-05-02T09:44:39.593Z</time></trkpt><trkpt lat="46.1741183" lon="13.646555"><ele>757.0</ele><time>2026-05-02T09:44:40.595Z</time></trkpt><trkpt lat="46.1742067" lon="13.6467483"><ele>757.0</ele><time>2026-05-02T09:44:41.594Z</time></trkpt><trkpt lat="46.174285" lon="13.6469317"><ele>755.0</ele><time>2026-05-02T09:44:42.595Z</time></trkpt><trkpt lat="46.1743633" lon="13.6471083"><ele>753.0</ele><time>2026-05-02T09:44:43.595Z</time></trkpt><trkpt lat="46.1744383" lon="13.6472817"><ele>751.0</ele><time>2026-05-02T09:44:44.595Z</time></trkpt><trkpt lat="46.17451" lon="13.6474467"><ele>749.0</ele><time>2026-05-02T09:44:45.594Z</time></trkpt><trkpt lat="46.1745883" lon="13.64759"><ele>749.0</ele><time>2026-05-02T09:44:46.594Z</time></trkpt><trkpt lat="46.1746733" lon="13.6477017"><ele>749.0</ele><time>2026-05-02T09:44:47.594Z</time></trkpt><trkpt lat="46.17478" lon="13.64778"><ele>749.0</ele><time>2026-05-02T09:44:48.593Z</time></trkpt><trkpt lat="46.1748967" lon="13.6478267"><ele>749.0</ele><time>2026-05-02T09:44:49.594Z</time></trkpt><trkpt lat="46.175025" lon="13.647845"><ele>750.0</ele><time>2026-05-02T09:44:50.595Z</time></trkpt><trkpt lat="46.17516" lon="13.6478483"><ele>751.0</ele><time>2026-05-02T09:44:51.595Z</time></trkpt><trkpt lat="46.1753067" lon="13.6478333"><ele>752.0</ele><time>2026-05-02T09:44:52.594Z</time></trkpt><trkpt lat="46.1754617" lon="13.6478017"><ele>753.0</ele><time>2026-05-02T09:44:53.593Z</time></trkpt><trkpt lat="46.1756283" lon="13.647735"><ele>755.3333333333334</ele><time>2026-05-02T09:44:54.594Z</time></trkpt><trkpt lat="46.1757883" lon="13.6476517"><ele>757.6666666666667</ele><time>2026-05-02T09:44:55.593Z</time></trkpt><trkpt lat="46.1759383" lon="13.6475733"><ele>760.0</ele><time>2026-05-02T09:44:56.594Z</time></trkpt><trkpt lat="46.17608" lon="13.6475017"><ele>760.0</ele><time>2026-05-02T09:44:57.594Z</time></trkpt><trkpt lat="46.176225" lon="13.64745"><ele>760.0</ele><time>2026-05-02T09:44:58.593Z</time></trkpt><trkpt lat="46.1763633" lon="13.6474183"><ele>760.0</ele><time>2026-05-02T09:44:59.595Z</time></trkpt><trkpt lat="46.1764917" lon="13.6474117"><ele>760.0</ele><time>2026-05-02T09:45:00.593Z</time></trkpt><trkpt lat="46.1766117" lon="13.6474217"><ele>763.25</ele><time>2026-05-02T09:45:01.595Z</time></trkpt><trkpt lat="46.17674" lon="13.6474217"><ele>766.5</ele><time>2026-05-02T09:45:02.595Z</time></trkpt><trkpt lat="46.1768267" lon="13.64753"><ele>769.75</ele><time>2026-05-02T09:45:03.594Z</time></trkpt><trkpt lat="46.1769533" lon="13.647565"><ele>773.0</ele><time>2026-05-02T09:45:04.596Z</time></trkpt><trkpt lat="46.1770933" lon="13.6475967"><ele>773.0</ele><time>2026-05-02T09:45:05.594Z</time></trkpt><trkpt lat="46.1772383" lon="13.6476583"><ele>773.0</ele><time>2026-05-02T09:45:06.594Z</time></trkpt><trkpt lat="46.177395" lon="13.6476517"><ele>773.0</ele><time>2026-05-02T09:45:07.594Z</time></trkpt><trkpt lat="46.17753" lon="13.6476517"><ele>773.0</ele><time>2026-05-02T09:45:08.595Z</time></trkpt><trkpt lat="46.1776467" lon="13.6477017"><ele>774.5</ele><time>2026-05-02T09:45:09.593Z</time></trkpt><trkpt lat="46.1777717" lon="13.64768"><ele>776.0</ele><time>2026-05-02T09:45:10.594Z</time></trkpt><trkpt lat="46.1779133" lon="13.6475667"><ele>777.5</ele><time>2026-05-02T09:45:11.593Z</time></trkpt><trkpt lat="46.1780417" lon="13.647445"><ele>779.0</ele><time>2026-05-02T09:45:12.595Z</time></trkpt><trkpt lat="46.1781517" lon="13.6473583"><ele>782.0</ele><time>2026-05-02T09:45:13.593Z</time></trkpt><trkpt lat="46.178255" lon="13.6473467"><ele>785.0</ele><time>2026-05-02T09:45:14.595Z</time></trkpt><trkpt lat="46.178365" lon="13.6473767"><ele>788.0</ele><time>2026-05-02T09:45:15.593Z</time></trkpt><trkpt lat="46.1784767" lon="13.6474333"><ele>791.0</ele><time>2026-05-02T09:45:16.595Z</time></trkpt><trkpt lat="46.178595" lon="13.647445"><ele>791.0000000000001</ele><time>2026-05-02T09:45:17.595Z</time></trkpt><trkpt lat="46.1786933" lon="13.6474733"><ele>791.0</ele><time>2026-05-02T09:45:18.593Z</time></trkpt><trkpt lat="46.17877" lon="13.6475367"><ele>791.0</ele><time>2026-05-02T09:45:19.595Z</time></trkpt><trkpt lat="46.1788233" lon="13.6476233"><ele>791.0</ele><time>2026-05-02T09:45:20.596Z</time></trkpt><trkpt lat="46.1788583" lon="13.6477283"><ele>791.0000000000001</ele><time>2026-05-02T09:45:21.594Z</time></trkpt><trkpt lat="46.17888" lon="13.6478617"><ele>791.0</ele><time>2026-05-02T09:45:22.593Z</time></trkpt><trkpt lat="46.178905" lon="13.64801"><ele>794.25</ele><time>2026-05-02T09:45:23.594Z</time></trkpt><trkpt lat="46.1789217" lon="13.6481667"><ele>797.5</ele><time>2026-05-02T09:45:24.593Z</time></trkpt><trkpt lat="46.1789467" lon="13.6483217"><ele>800.75</ele><time>2026-05-02T09:45:25.593Z</time></trkpt><trkpt lat="46.1789867" lon="13.6484883"><ele>804.0</ele><time>2026-05-02T09:45:26.595Z</time></trkpt><trkpt lat="46.1790183" lon="13.64866"><ele>804.0</ele><time>2026-05-02T09:45:27.594Z</time></trkpt><trkpt lat="46.1790817" lon="13.6488417"><ele>804.0</ele><time>2026-05-02T09:45:28.594Z</time></trkpt><trkpt lat="46.17911" lon="13.6490433"><ele>804.0</ele><time>2026-05-02T09:45:29.595Z</time></trkpt><trkpt lat="46.17914" lon="13.6492433"><ele>804.0</ele><time>2026-05-02T09:45:30.594Z</time></trkpt><trkpt lat="46.1791883" lon="13.6494567"><ele>809.0</ele><time>2026-05-02T09:45:31.595Z</time></trkpt><trkpt lat="46.17922" lon="13.649675"><ele>814.0</ele><time>2026-05-02T09:45:32.595Z</time></trkpt><trkpt lat="46.179255" lon="13.6498883"><ele>819.0</ele><time>2026-05-02T09:45:33.594Z</time></trkpt><trkpt lat="46.1792917" lon="13.6500967"><ele>820.5</ele><time>2026-05-02T09:45:34.593Z</time></trkpt><trkpt lat="46.179315" lon="13.6502983"><ele>822.0</ele><time>2026-05-02T09:45:35.594Z</time></trkpt><trkpt lat="46.1793267" lon="13.6504983"><ele>823.5</ele><time>2026-05-02T09:45:36.593Z</time></trkpt><trkpt lat="46.1793283" lon="13.6506867"><ele>825.0</ele><time>2026-05-02T09:45:37.594Z</time></trkpt><trkpt lat="46.1793217" lon="13.6508633"><ele>825.0</ele><time>2026-05-02T09:45:38.595Z</time></trkpt><trkpt lat="46.179315" lon="13.6510317"><ele>825.0</ele><time>2026-05-02T09:45:39.595Z</time></trkpt><trkpt lat="46.1792883" lon="13.6511867"><ele>825.0</ele><time>2026-05-02T09:45:40.593Z</time></trkpt><trkpt lat="46.17925" lon="13.6513283"><ele>825.0</ele><time>2026-05-02T09:45:41.594Z</time></trkpt><trkpt lat="46.17922" lon="13.651475"><ele>825.0</ele><time>2026-05-02T09:45:42.596Z</time></trkpt><trkpt lat="46.1791933" lon="13.6516117"><ele>825.6</ele><time>2026-05-02T09:45:43.594Z</time></trkpt><trkpt lat="46.1791917" lon="13.651745"><ele>826.2</ele><time>2026-05-02T09:45:44.594Z</time></trkpt><trkpt lat="46.1792167" lon="13.6518783"><ele>826.8</ele><time>2026-05-02T09:45:45.593Z</time></trkpt><trkpt lat="46.179255" lon="13.652035"><ele>827.4</ele><time>2026-05-02T09:45:46.594Z</time></trkpt><trkpt lat="46.1792683" lon="13.652185"><ele>828.0</ele><time>2026-05-02T09:45:47.594Z</time></trkpt><trkpt lat="46.1793133" lon="13.6523267"><ele>830.5</ele><time>2026-05-02T09:45:48.593Z</time></trkpt><trkpt lat="46.1794017" lon="13.6524567"><ele>833.0</ele><time>2026-05-02T09:45:49.593Z</time></trkpt><trkpt lat="46.1795033" lon="13.6525783"><ele>835.5</ele><time>2026-05-02T09:45:50.594Z</time></trkpt><trkpt lat="46.1795667" lon="13.6527167"><ele>838.0</ele><time>2026-05-02T09:45:51.593Z</time></trkpt><trkpt lat="46.17961" lon="13.6528633"><ele>840.8</ele><time>2026-05-02T09:45:52.593Z</time></trkpt><trkpt lat="46.1796417" lon="13.6530117"><ele>843.5999999999999</ele><time>2026-05-02T09:45:53.594Z</time></trkpt><trkpt lat="46.1796733" lon="13.6531483"><ele>846.4000000000001</ele><time>2026-05-02T09:45:54.594Z</time></trkpt><trkpt lat="46.1797183" lon="13.6532533"><ele>849.2</ele><time>2026-05-02T09:45:55.594Z</time></trkpt><trkpt lat="46.1797817" lon="13.6533217"><ele>852.0</ele><time>2026-05-02T09:45:56.595Z</time></trkpt><trkpt lat="46.1798633" lon="13.6533467"><ele>843.5</ele><time>2026-05-02T09:45:57.592Z</time></trkpt><trkpt lat="46.1799783" lon="13.6533017"><ele>835.0</ele><time>2026-05-02T09:45:58.592Z</time></trkpt><trkpt lat="46.1800867" lon="13.6532433"><ele>826.5</ele><time>2026-05-02T09:45:59.592Z</time></trkpt><trkpt lat="46.1802" lon="13.6532467"><ele>818.0</ele><time>2026-05-02T09:46:00.593Z</time></trkpt><trkpt lat="46.1803083" lon="13.6532867"><ele>818.0</ele><time>2026-05-02T09:46:01.594Z</time></trkpt><trkpt lat="46.1804083" lon="13.6533133"><ele>818.0</ele><time>2026-05-02T09:46:02.594Z</time></trkpt><trkpt lat="46.180505" lon="13.6533017"><ele>818.0</ele><time>2026-05-02T09:46:03.592Z</time></trkpt><trkpt lat="46.1805867" lon="13.6532383"><ele>818.0</ele><time>2026-05-02T09:46:04.593Z</time></trkpt><trkpt lat="46.1806467" lon="13.6531083"><ele>818.0</ele><time>2026-05-02T09:46:05.592Z</time></trkpt><trkpt lat="46.1807017" lon="13.65296"><ele>817.75</ele><time>2026-05-02T09:46:06.593Z</time></trkpt><trkpt lat="46.180755" lon="13.6527783"><ele>817.5</ele><time>2026-05-02T09:46:07.592Z</time></trkpt><trkpt lat="46.1807967" lon="13.652575"><ele>817.25</ele><time>2026-05-02T09:46:08.593Z</time></trkpt><trkpt lat="46.18083" lon="13.65236"><ele>817.0</ele><time>2026-05-02T09:46:09.593Z</time></trkpt><trkpt lat="46.1808567" lon="13.6521433"><ele>811.6666666666666</ele><time>2026-05-02T09:46:10.594Z</time></trkpt><trkpt lat="46.180895" lon="13.6519367"><ele>806.3333333333333</ele><time>2026-05-02T09:46:11.592Z</time></trkpt><trkpt lat="46.1809367" lon="13.651725"><ele>801.0</ele><time>2026-05-02T09:46:12.594Z</time></trkpt><trkpt lat="46.1809933" lon="13.6515067"><ele>801.0</ele><time>2026-05-02T09:46:13.594Z</time></trkpt><trkpt lat="46.1810767" lon="13.6512933"><ele>801.0</ele><time>2026-05-02T09:46:14.593Z</time></trkpt><trkpt lat="46.1811483" lon="13.6510683"><ele>801.0</ele><time>2026-05-02T09:46:15.593Z</time></trkpt><trkpt lat="46.1812133" lon="13.6508283"><ele>794.3333333333333</ele><time>2026-05-02T09:46:16.592Z</time></trkpt><trkpt lat="46.1812767" lon="13.6505783"><ele>787.6666666666666</ele><time>2026-05-02T09:46:17.594Z</time></trkpt><trkpt lat="46.1813433" lon="13.6503317"><ele>781.0</ele><time>2026-05-02T09:46:18.593Z</time></trkpt><trkpt lat="46.1813933" lon="13.6500817"><ele>776.6666666666666</ele><time>2026-05-02T09:46:19.592Z</time></trkpt><trkpt lat="46.18143" lon="13.64984"><ele>772.3333333333333</ele><time>2026-05-02T09:46:20.594Z</time></trkpt><trkpt lat="46.181455" lon="13.649605"><ele>768.0</ele><time>2026-05-02T09:46:21.593Z</time></trkpt><trkpt lat="46.1814933" lon="13.6493817"><ele>781.0</ele><time>2026-05-02T09:46:22.592Z</time></trkpt><trkpt lat="46.1815417" lon="13.649165"><ele>794.0</ele><time>2026-05-02T09:46:23.593Z</time></trkpt><trkpt lat="46.1815867" lon="13.6489517"><ele>807.0</ele><time>2026-05-02T09:46:24.592Z</time></trkpt><trkpt lat="46.1816067" lon="13.6487317"><ele>800.3333333333333</ele><time>2026-05-02T09:46:25.593Z</time></trkpt><trkpt lat="46.1816367" lon="13.6485067"><ele>793.6666666666666</ele><time>2026-05-02T09:46:26.599Z</time></trkpt><trkpt lat="46.181665" lon="13.6482817"><ele>787.0</ele><time>2026-05-02T09:46:27.596Z</time></trkpt><trkpt lat="46.1816867" lon="13.6480617"><ele>787.0</ele><time>2026-05-02T09:46:28.593Z</time></trkpt><trkpt lat="46.1817033" lon="13.6478583"><ele>787.0</ele><time>2026-05-02T09:46:29.594Z</time></trkpt><trkpt lat="46.1817367" lon="13.647665"><ele>787.0</ele><time>2026-05-02T09:46:30.592Z</time></trkpt><trkpt lat="46.1817833" lon="13.6474817"><ele>787.0</ele><time>2026-05-02T09:46:31.594Z</time></trkpt><trkpt lat="46.181825" lon="13.647295"><ele>783.25</ele><time>2026-05-02T09:46:32.594Z</time></trkpt><trkpt lat="46.1818517" lon="13.647105"><ele>779.5</ele><time>2026-05-02T09:46:33.593Z</time></trkpt><trkpt lat="46.1818667" lon="13.646915"><ele>775.75</ele><time>2026-05-02T09:46:34.594Z</time></trkpt><trkpt lat="46.18188" lon="13.6467333"><ele>772.0</ele><time>2026-05-02T09:46:35.593Z</time></trkpt><trkpt lat="46.1819033" lon="13.6465667"><ele>768.75</ele><time>2026-05-02T09:46:36.594Z</time></trkpt><trkpt lat="46.1819433" lon="13.6464067"><ele>765.5</ele><time>2026-05-02T09:46:37.594Z</time></trkpt><trkpt lat="46.1819833" lon="13.646255"><ele>762.25</ele><time>2026-05-02T09:46:38.595Z</time></trkpt><trkpt lat="46.18205" lon="13.6461183"><ele>759.0</ele><time>2026-05-02T09:46:39.595Z</time></trkpt><trkpt lat="46.1821367" lon="13.6459883"><ele>760.25</ele><time>2026-05-02T09:46:40.593Z</time></trkpt><trkpt lat="46.1822133" lon="13.64583"><ele>761.5</ele><time>2026-05-02T09:46:41.594Z</time></trkpt><trkpt lat="46.1822717" lon="13.64564"><ele>762.75</ele><time>2026-05-02T09:46:42.593Z</time></trkpt><trkpt lat="46.1823167" lon="13.6454433"><ele>764.0</ele><time>2026-05-02T09:46:43.592Z</time></trkpt><trkpt lat="46.1823667" lon="13.6452567"><ele>764.0</ele><time>2026-05-02T09:46:44.596Z</time></trkpt><trkpt lat="46.1824283" lon="13.6450783"><ele>764.0</ele><time>2026-05-02T09:46:45.593Z</time></trkpt><trkpt lat="46.1825233" lon="13.64492"><ele>764.0</ele><time>2026-05-02T09:46:46.594Z</time></trkpt><trkpt lat="46.1826217" lon="13.6447833"><ele>764.0</ele><time>2026-05-02T09:46:47.595Z</time></trkpt><trkpt lat="46.1827067" lon="13.64465"><ele>764.0</ele><time>2026-05-02T09:46:48.593Z</time></trkpt><trkpt lat="46.1827817" lon="13.6445233"><ele>764.0</ele><time>2026-05-02T09:46:49.594Z</time></trkpt><trkpt lat="46.1828333" lon="13.6443817"><ele>764.0</ele><time>2026-05-02T09:46:50.594Z</time></trkpt><trkpt lat="46.1828383" lon="13.6442267"><ele>764.0</ele><time>2026-05-02T09:46:51.594Z</time></trkpt><trkpt lat="46.18281" lon="13.64404"><ele>758.25</ele><time>2026-05-02T09:46:52.593Z</time></trkpt><trkpt lat="46.182785" lon="13.6438433"><ele>752.5</ele><time>2026-05-02T09:46:53.594Z</time></trkpt><trkpt lat="46.1827433" lon="13.643655"><ele>746.75</ele><time>2026-05-02T09:46:54.593Z</time></trkpt><trkpt lat="46.1827117" lon="13.643465"><ele>741.0</ele><time>2026-05-02T09:46:55.593Z</time></trkpt><trkpt lat="46.1826983" lon="13.6432767"><ele>739.75</ele><time>2026-05-02T09:46:56.593Z</time></trkpt><trkpt lat="46.1827083" lon="13.64308"><ele>738.5</ele><time>2026-05-02T09:46:57.593Z</time></trkpt><trkpt lat="46.1827233" lon="13.6428933"><ele>737.25</ele><time>2026-05-02T09:46:58.594Z</time></trkpt><trkpt lat="46.18274" lon="13.6427283"><ele>736.0</ele><time>2026-05-02T09:46:59.592Z</time></trkpt><trkpt lat="46.182775" lon="13.6425733"><ele>736.0</ele><time>2026-05-02T09:47:00.593Z</time></trkpt><trkpt lat="46.1828217" lon="13.6424467"><ele>736.0</ele><time>2026-05-02T09:47:01.594Z</time></trkpt><trkpt lat="46.182885" lon="13.642335"><ele>736.0</ele><time>2026-05-02T09:47:02.594Z</time></trkpt><trkpt lat="46.1829817" lon="13.64225"><ele>736.0</ele><time>2026-05-02T09:47:03.592Z</time></trkpt><trkpt lat="46.1831017" lon="13.642185"><ele>736.0</ele><time>2026-05-02T09:47:04.592Z</time></trkpt><trkpt lat="46.1832167" lon="13.6421033"><ele>738.0</ele><time>2026-05-02T09:47:05.595Z</time></trkpt><trkpt lat="46.18333" lon="13.6420383"><ele>740.0</ele><time>2026-05-02T09:47:06.593Z</time></trkpt><trkpt lat="46.1834383" lon="13.6419933"><ele>742.0</ele><time>2026-05-02T09:47:07.594Z</time></trkpt><trkpt lat="46.1835267" lon="13.6419183"><ele>744.0</ele><time>2026-05-02T09:47:08.594Z</time></trkpt><trkpt lat="46.1835867" lon="13.64181"><ele>746.0</ele><time>2026-05-02T09:47:09.594Z</time></trkpt><trkpt lat="46.183605" lon="13.6416583"><ele>746.0</ele><time>2026-05-02T09:47:10.595Z</time></trkpt><trkpt lat="46.1836017" lon="13.6414867"><ele>746.0</ele><time>2026-05-02T09:47:11.596Z</time></trkpt><trkpt lat="46.1835783" lon="13.641305"><ele>746.0</ele><time>2026-05-02T09:47:12.595Z</time></trkpt><trkpt lat="46.1835733" lon="13.6411267"><ele>746.0</ele><time>2026-05-02T09:47:13.594Z</time></trkpt><trkpt lat="46.183615" lon="13.6409517"><ele>742.0</ele><time>2026-05-02T09:47:14.594Z</time></trkpt><trkpt lat="46.1836583" lon="13.6407617"><ele>738.0</ele><time>2026-05-02T09:47:15.593Z</time></trkpt><trkpt lat="46.1836717" lon="13.640565"><ele>734.0</ele><time>2026-05-02T09:47:16.594Z</time></trkpt><trkpt lat="46.183645" lon="13.6403633"><ele>730.0</ele><time>2026-05-02T09:47:17.593Z</time></trkpt><trkpt lat="46.1835967" lon="13.6401483"><ele>728.3333333333334</ele><time>2026-05-02T09:47:18.592Z</time></trkpt><trkpt lat="46.1835433" lon="13.6399283"><ele>726.6666666666666</ele><time>2026-05-02T09:47:19.594Z</time></trkpt><trkpt lat="46.1834867" lon="13.639705"><ele>725.0</ele><time>2026-05-02T09:47:20.593Z</time></trkpt><trkpt lat="46.183435" lon="13.6394833"><ele>724.0</ele><time>2026-05-02T09:47:21.593Z</time></trkpt><trkpt lat="46.183385" lon="13.6392967"><ele>723.0</ele><time>2026-05-02T09:47:22.593Z</time></trkpt><trkpt lat="46.1833567" lon="13.6391283"><ele>722.0</ele><time>2026-05-02T09:47:23.593Z</time></trkpt><trkpt lat="46.1833517" lon="13.6389733"><ele>721.0</ele><time>2026-05-02T09:47:24.594Z</time></trkpt><trkpt lat="46.183385" lon="13.6388333"><ele>721.0</ele><time>2026-05-02T09:47:25.593Z</time></trkpt><trkpt lat="46.1834517" lon="13.638735"><ele>721.0</ele><time>2026-05-02T09:47:26.593Z</time></trkpt><trkpt lat="46.1835233" lon="13.638655"><ele>721.0</ele><time>2026-05-02T09:47:27.593Z</time></trkpt><trkpt lat="46.1836083" lon="13.6386033"><ele>721.0</ele><time>2026-05-02T09:47:28.593Z</time></trkpt><trkpt lat="46.1837033" lon="13.6385683"><ele>721.0</ele><time>2026-05-02T09:47:29.593Z</time></trkpt><trkpt lat="46.1837783" lon="13.6384983"><ele>719.0</ele><time>2026-05-02T09:47:30.594Z</time></trkpt><trkpt lat="46.183825" lon="13.638395"><ele>717.0</ele><time>2026-05-02T09:47:31.593Z</time></trkpt><trkpt lat="46.18384" lon="13.638255"><ele>715.0</ele><time>2026-05-02T09:47:32.665Z</time></trkpt><trkpt lat="46.1838167" lon="13.6380483"><ele>713.0</ele><time>2026-05-02T09:47:33.593Z</time></trkpt><trkpt lat="46.1838167" lon="13.637845"><ele>711.25</ele><time>2026-05-02T09:47:34.594Z</time></trkpt><trkpt lat="46.1838267" lon="13.6376567"><ele>709.5</ele><time>2026-05-02T09:47:35.595Z</time></trkpt><trkpt lat="46.183795" lon="13.63749"><ele>707.75</ele><time>2026-05-02T09:47:36.593Z</time></trkpt><trkpt lat="46.183745" lon="13.6373367"><ele>706.0</ele><time>2026-05-02T09:47:37.592Z</time></trkpt><trkpt lat="46.1837067" lon="13.6371783"><ele>706.0</ele><time>2026-05-02T09:47:38.594Z</time></trkpt><trkpt lat="46.1837217" lon="13.6369967"><ele>706.0</ele><time>2026-05-02T09:47:39.593Z</time></trkpt><trkpt lat="46.1837083" lon="13.6368"><ele>706.0</ele><time>2026-05-02T09:47:40.593Z</time></trkpt><trkpt lat="46.1836733" lon="13.6366133"><ele>706.0</ele><time>2026-05-02T09:47:41.592Z</time></trkpt><trkpt lat="46.1836167" lon="13.6364383"><ele>707.1999999999999</ele><time>2026-05-02T09:47:42.594Z</time></trkpt><trkpt lat="46.1835667" lon="13.6362717"><ele>708.4</ele><time>2026-05-02T09:47:43.593Z</time></trkpt><trkpt lat="46.1835233" lon="13.63612"><ele>709.6</ele><time>2026-05-02T09:47:44.594Z</time></trkpt><trkpt lat="46.1835217" lon="13.63598"><ele>710.8</ele><time>2026-05-02T09:47:45.592Z</time></trkpt><trkpt lat="46.1835617" lon="13.63586"><ele>712.0</ele><time>2026-05-02T09:47:46.592Z</time></trkpt><trkpt lat="46.1836233" lon="13.6357583"><ele>714.0</ele><time>2026-05-02T09:47:47.592Z</time></trkpt><trkpt lat="46.1837117" lon="13.63568"><ele>716.0</ele><time>2026-05-02T09:47:48.595Z</time></trkpt><trkpt lat="46.1838167" lon="13.635605"><ele>718.0</ele><time>2026-05-02T09:47:49.594Z</time></trkpt><trkpt lat="46.1839317" lon="13.635535"><ele>720.0</ele><time>2026-05-02T09:47:50.593Z</time></trkpt><trkpt lat="46.1840417" lon="13.63547"><ele>722.2</ele><time>2026-05-02T09:47:51.593Z</time></trkpt><trkpt lat="46.184135" lon="13.6353917"><ele>724.4</ele><time>2026-05-02T09:47:52.593Z</time></trkpt><trkpt lat="46.1842117" lon="13.6353017"><ele>726.5999999999999</ele><time>2026-05-02T09:47:53.593Z</time></trkpt><trkpt lat="46.1842783" lon="13.6351983"><ele>728.8</ele><time>2026-05-02T09:47:54.594Z</time></trkpt><trkpt lat="46.1843483" lon="13.63509"><ele>731.0</ele><time>2026-05-02T09:47:55.593Z</time></trkpt><trkpt lat="46.1844133" lon="13.6349817"><ele>731.0</ele><time>2026-05-02T09:47:56.594Z</time></trkpt><trkpt lat="46.18446" lon="13.6348717"><ele>731.0</ele><time>2026-05-02T09:47:57.595Z</time></trkpt><trkpt lat="46.184485" lon="13.634745"><ele>731.0</ele><time>2026-05-02T09:47:58.593Z</time></trkpt><trkpt lat="46.1844783" lon="13.6346"><ele>731.0</ele><time>2026-05-02T09:47:59.594Z</time></trkpt><trkpt lat="46.1844533" lon="13.6344533"><ele>731.0</ele><time>2026-05-02T09:48:00.595Z</time></trkpt><trkpt lat="46.1844017" lon="13.6343117"><ele>729.5999999999999</ele><time>2026-05-02T09:48:01.594Z</time></trkpt><trkpt lat="46.18433" lon="13.6341783"><ele>728.2</ele><time>2026-05-02T09:48:02.594Z</time></trkpt><trkpt lat="46.1842583" lon="13.6340517"><ele>726.8</ele><time>2026-05-02T09:48:03.593Z</time></trkpt><trkpt lat="46.1842033" lon="13.6339283"><ele>725.4000000000001</ele><time>2026-05-02T09:48:04.593Z</time></trkpt><trkpt lat="46.1841783" lon="13.6337867"><ele>724.0</ele><time>2026-05-02T09:48:05.593Z</time></trkpt><trkpt lat="46.18417" lon="13.6336183"><ele>724.0</ele><time>2026-05-02T09:48:06.593Z</time></trkpt><trkpt lat="46.1841633" lon="13.6334367"><ele>724.0</ele><time>2026-05-02T09:48:07.593Z</time></trkpt><trkpt lat="46.1841433" lon="13.6332633"><ele>724.0</ele><time>2026-05-02T09:48:08.595Z</time></trkpt><trkpt lat="46.1841233" lon="13.63311"><ele>724.0</ele><time>2026-05-02T09:48:09.594Z</time></trkpt><trkpt lat="46.1841233" lon="13.63297"><ele>724.0</ele><time>2026-05-02T09:48:10.593Z</time></trkpt><trkpt lat="46.1841433" lon="13.6328367"><ele>724.0</ele><time>2026-05-02T09:48:11.593Z</time></trkpt><trkpt lat="46.184175" lon="13.6327033"><ele>724.0</ele><time>2026-05-02T09:48:12.593Z</time></trkpt><trkpt lat="46.1842167" lon="13.6325583"><ele>724.0</ele><time>2026-05-02T09:48:13.594Z</time></trkpt><trkpt lat="46.18426" lon="13.6324117"><ele>724.0</ele><time>2026-05-02T09:48:14.595Z</time></trkpt><trkpt lat="46.1842917" lon="13.6322617"><ele>724.6</ele><time>2026-05-02T09:48:15.594Z</time></trkpt><trkpt lat="46.1843067" lon="13.6321167"><ele>725.2</ele><time>2026-05-02T09:48:16.594Z</time></trkpt><trkpt lat="46.1842967" lon="13.6319867"><ele>725.8000000000001</ele><time>2026-05-02T09:48:17.593Z</time></trkpt><trkpt lat="46.18427" lon="13.6318767"><ele>726.4000000000001</ele><time>2026-05-02T09:48:18.593Z</time></trkpt><trkpt lat="46.1842183" lon="13.63178"><ele>727.0</ele><time>2026-05-02T09:48:19.593Z</time></trkpt><trkpt lat="46.1841383" lon="13.631685"><ele>727.0</ele><time>2026-05-02T09:48:20.594Z</time></trkpt><trkpt lat="46.18403" lon="13.6315917"><ele>727.0</ele><time>2026-05-02T09:48:21.594Z</time></trkpt><trkpt lat="46.1839067" lon="13.6315083"><ele>727.0</ele><time>2026-05-02T09:48:22.593Z</time></trkpt><trkpt lat="46.18378" lon="13.6314417"><ele>727.0</ele><time>2026-05-02T09:48:23.593Z</time></trkpt><trkpt lat="46.183655" lon="13.6313933"><ele>725.0</ele><time>2026-05-02T09:48:24.594Z</time></trkpt><trkpt lat="46.1835467" lon="13.6313333"><ele>723.0</ele><time>2026-05-02T09:48:25.594Z</time></trkpt><trkpt lat="46.1834583" lon="13.6312483"><ele>721.0</ele><time>2026-05-02T09:48:26.593Z</time></trkpt><trkpt lat="46.18338" lon="13.6311417"><ele>719.0</ele><time>2026-05-02T09:48:27.594Z</time></trkpt><trkpt lat="46.1833167" lon="13.6309917"><ele>719.0</ele><time>2026-05-02T09:48:28.593Z</time></trkpt><trkpt lat="46.183255" lon="13.630835"><ele>719.0</ele><time>2026-05-02T09:48:29.594Z</time></trkpt><trkpt lat="46.1832083" lon="13.6306783"><ele>719.0</ele><time>2026-05-02T09:48:30.595Z</time></trkpt><trkpt lat="46.18317" lon="13.6305233"><ele>719.0</ele><time>2026-05-02T09:48:31.593Z</time></trkpt><trkpt lat="46.1831483" lon="13.6303667"><ele>724.0</ele><time>2026-05-02T09:48:32.594Z</time></trkpt><trkpt lat="46.183145" lon="13.630215"><ele>729.0</ele><time>2026-05-02T09:48:33.594Z</time></trkpt><trkpt lat="46.1831783" lon="13.6300467"><ele>734.0</ele><time>2026-05-02T09:48:34.593Z</time></trkpt><trkpt lat="46.1832217" lon="13.6298917"><ele>739.0</ele><time>2026-05-02T09:48:35.594Z</time></trkpt><trkpt lat="46.183275" lon="13.6297367"><ele>739.0</ele><time>2026-05-02T09:48:36.593Z</time></trkpt><trkpt lat="46.1833267" lon="13.6295733"><ele>739.0</ele><time>2026-05-02T09:48:37.594Z</time></trkpt><trkpt lat="46.183355" lon="13.6293983"><ele>739.0</ele><time>2026-05-02T09:48:38.593Z</time></trkpt><trkpt lat="46.183355" lon="13.6292117"><ele>739.0</ele><time>2026-05-02T09:48:39.593Z</time></trkpt><trkpt lat="46.1833417" lon="13.6290267"><ele>739.25</ele><time>2026-05-02T09:48:40.593Z</time></trkpt><trkpt lat="46.18331" lon="13.6288467"><ele>739.5</ele><time>2026-05-02T09:48:41.595Z</time></trkpt><trkpt lat="46.1832533" lon="13.62866"><ele>739.75</ele><time>2026-05-02T09:48:42.593Z</time></trkpt><trkpt lat="46.1832033" lon="13.6284667"><ele>740.0</ele><time>2026-05-02T09:48:43.595Z</time></trkpt><trkpt lat="46.18316" lon="13.6282733"><ele>741.0</ele><time>2026-05-02T09:48:44.594Z</time></trkpt><trkpt lat="46.183105" lon="13.6280967"><ele>742.0</ele><time>2026-05-02T09:48:45.593Z</time></trkpt><trkpt lat="46.183025" lon="13.627945"><ele>743.0</ele><time>2026-05-02T09:48:46.594Z</time></trkpt><trkpt lat="46.1829517" lon="13.627805"><ele>744.0</ele><time>2026-05-02T09:48:47.594Z</time></trkpt><trkpt lat="46.1828883" lon="13.6276733"><ele>744.0</ele><time>2026-05-02T09:48:48.594Z</time></trkpt><trkpt lat="46.1828267" lon="13.627555"><ele>744.0</ele><time>2026-05-02T09:48:49.594Z</time></trkpt><trkpt lat="46.1827617" lon="13.627465"><ele>744.0</ele><time>2026-05-02T09:48:50.594Z</time></trkpt><trkpt lat="46.1826833" lon="13.627415"><ele>744.0</ele><time>2026-05-02T09:48:51.593Z</time></trkpt><trkpt lat="46.182605" lon="13.62739"><ele>744.0</ele><time>2026-05-02T09:48:52.594Z</time></trkpt><trkpt lat="46.1825167" lon="13.6274233"><ele>744.0</ele><time>2026-05-02T09:48:53.594Z</time></trkpt><trkpt lat="46.1824017" lon="13.62753"><ele>744.0</ele><time>2026-05-02T09:48:54.594Z</time></trkpt><trkpt lat="46.18229" lon="13.6276767"><ele>744.0</ele><time>2026-05-02T09:48:55.594Z</time></trkpt><trkpt lat="46.18217" lon="13.6277867"><ele>744.0</ele><time>2026-05-02T09:48:56.594Z</time></trkpt><trkpt lat="46.1820567" lon="13.627885"><ele>741.5</ele><time>2026-05-02T09:48:57.596Z</time></trkpt><trkpt lat="46.1819567" lon="13.627995"><ele>739.0</ele><time>2026-05-02T09:48:58.593Z</time></trkpt><trkpt lat="46.1818667" lon="13.6281117"><ele>736.5</ele><time>2026-05-02T09:48:59.595Z</time></trkpt><trkpt lat="46.181755" lon="13.6282033"><ele>734.0</ele><time>2026-05-02T09:49:00.594Z</time></trkpt><trkpt lat="46.1816633" lon="13.628315"><ele>734.0</ele><time>2026-05-02T09:49:01.593Z</time></trkpt><trkpt lat="46.1815817" lon="13.6284267"><ele>734.0</ele><time>2026-05-02T09:49:02.595Z</time></trkpt><trkpt lat="46.1814967" lon="13.6285383"><ele>734.0</ele><time>2026-05-02T09:49:03.594Z</time></trkpt><trkpt lat="46.181415" lon="13.6286517"><ele>734.0</ele><time>2026-05-02T09:49:04.594Z</time></trkpt><trkpt lat="46.18134" lon="13.6287483"><ele>734.0</ele><time>2026-05-02T09:49:05.594Z</time></trkpt><trkpt lat="46.1812683" lon="13.62883"><ele>733.0</ele><time>2026-05-02T09:49:06.593Z</time></trkpt><trkpt lat="46.1812017" lon="13.6288867"><ele>732.0</ele><time>2026-05-02T09:49:07.595Z</time></trkpt><trkpt lat="46.1811383" lon="13.62892"><ele>731.0</ele><time>2026-05-02T09:49:08.595Z</time></trkpt><trkpt lat="46.18103" lon="13.6288733"><ele>730.0</ele><time>2026-05-02T09:49:10.592Z</time></trkpt><trkpt lat="46.1809983" lon="13.6287833"><ele>729.0</ele><time>2026-05-02T09:49:11.594Z</time></trkpt><trkpt lat="46.18097" lon="13.6286633"><ele>728.0</ele><time>2026-05-02T09:49:12.593Z</time></trkpt><trkpt lat="46.1809267" lon="13.628535"><ele>728.0</ele><time>2026-05-02T09:49:13.593Z</time></trkpt><trkpt lat="46.1808633" lon="13.6284417"><ele>728.0</ele><time>2026-05-02T09:49:14.594Z</time></trkpt><trkpt lat="46.18079" lon="13.628365"><ele>728.0</ele><time>2026-05-02T09:49:15.593Z</time></trkpt><trkpt lat="46.180705" lon="13.6283167"><ele>728.0</ele><time>2026-05-02T09:49:16.592Z</time></trkpt><trkpt lat="46.18061" lon="13.62827"><ele>728.0</ele><time>2026-05-02T09:49:17.594Z</time></trkpt><trkpt lat="46.180515" lon="13.6282017"><ele>723.0</ele><time>2026-05-02T09:49:18.593Z</time></trkpt><trkpt lat="46.1804217" lon="13.6281317"><ele>718.0</ele><time>2026-05-02T09:49:19.594Z</time></trkpt><trkpt lat="46.1803267" lon="13.628085"><ele>713.0</ele><time>2026-05-02T09:49:20.595Z</time></trkpt><trkpt lat="46.1802267" lon="13.6280583"><ele>708.0</ele><time>2026-05-02T09:49:21.594Z</time></trkpt><trkpt lat="46.1801317" lon="13.628035"><ele>703.0</ele><time>2026-05-02T09:49:22.593Z</time></trkpt><trkpt lat="46.180045" lon="13.6279967"><ele>703.0</ele><time>2026-05-02T09:49:23.594Z</time></trkpt><trkpt lat="46.1799867" lon="13.6278967"><ele>703.0</ele><time>2026-05-02T09:49:24.593Z</time></trkpt><trkpt lat="46.17994" lon="13.627755"><ele>703.0</ele><time>2026-05-02T09:49:25.595Z</time></trkpt><trkpt lat="46.1798817" lon="13.6276017"><ele>703.0</ele><time>2026-05-02T09:49:26.594Z</time></trkpt><trkpt lat="46.1798333" lon="13.6274133"><ele>704.4</ele><time>2026-05-02T09:49:27.593Z</time></trkpt><trkpt lat="46.17978" lon="13.6272533"><ele>705.8</ele><time>2026-05-02T09:49:28.593Z</time></trkpt><trkpt lat="46.1797117" lon="13.62713"><ele>707.2</ele><time>2026-05-02T09:49:29.594Z</time></trkpt><trkpt lat="46.1796217" lon="13.6270617"><ele>708.6</ele><time>2026-05-02T09:49:30.594Z</time></trkpt><trkpt lat="46.17952" lon="13.62702"><ele>710.0</ele><time>2026-05-02T09:49:31.596Z</time></trkpt><trkpt lat="46.1794117" lon="13.6269983"><ele>710.0</ele><time>2026-05-02T09:49:32.594Z</time></trkpt><trkpt lat="46.1793067" lon="13.6269783"><ele>710.0</ele><time>2026-05-02T09:49:33.594Z</time></trkpt><trkpt lat="46.1792033" lon="13.6269917"><ele>710.0</ele><time>2026-05-02T09:49:34.593Z</time></trkpt><trkpt lat="46.1791083" lon="13.6270433"><ele>710.0</ele><time>2026-05-02T09:49:35.593Z</time></trkpt><trkpt lat="46.1790217" lon="13.6270833"><ele>710.0</ele><time>2026-05-02T09:49:36.594Z</time></trkpt><trkpt lat="46.1789383" lon="13.6270833"><ele>710.0</ele><time>2026-05-02T09:49:37.595Z</time></trkpt><trkpt lat="46.1788667" lon="13.6270633"><ele>710.0</ele><time>2026-05-02T09:49:38.595Z</time></trkpt><trkpt lat="46.17883" lon="13.6269767"><ele>710.0</ele><time>2026-05-02T09:49:39.593Z</time></trkpt><trkpt lat="46.1788467" lon="13.6268467"><ele>710.0</ele><time>2026-05-02T09:49:40.594Z</time></trkpt><trkpt lat="46.1788633" lon="13.6267033"><ele>710.0</ele><time>2026-05-02T09:49:41.594Z</time></trkpt><trkpt lat="46.1788683" lon="13.6265283"><ele>703.75</ele><time>2026-05-02T09:49:42.595Z</time></trkpt><trkpt lat="46.1789133" lon="13.626315"><ele>697.5</ele><time>2026-05-02T09:49:43.596Z</time></trkpt><trkpt lat="46.1789183" lon="13.6261167"><ele>691.25</ele><time>2026-05-02T09:49:44.596Z</time></trkpt><trkpt lat="46.1789467" lon="13.6259283"><ele>685.0</ele><time>2026-05-02T09:49:45.594Z</time></trkpt><trkpt lat="46.1789683" lon="13.6257667"><ele>685.0</ele><time>2026-05-02T09:49:46.594Z</time></trkpt><trkpt lat="46.1789817" lon="13.6256217"><ele>685.0</ele><time>2026-05-02T09:49:47.595Z</time></trkpt><trkpt lat="46.1789717" lon="13.6255017"><ele>685.0</ele><time>2026-05-02T09:49:48.594Z</time></trkpt><trkpt lat="46.17893" lon="13.6253933"><ele>685.0</ele><time>2026-05-02T09:49:49.594Z</time></trkpt><trkpt lat="46.1788467" lon="13.6252967"><ele>685.0</ele><time>2026-05-02T09:49:50.595Z</time></trkpt><trkpt lat="46.1787517" lon="13.6252383"><ele>690.0</ele><time>2026-05-02T09:49:51.594Z</time></trkpt><trkpt lat="46.1786567" lon="13.6251817"><ele>695.0</ele><time>2026-05-02T09:49:52.595Z</time></trkpt><trkpt lat="46.1785533" lon="13.6251567"><ele>700.0</ele><time>2026-05-02T09:49:53.595Z</time></trkpt><trkpt lat="46.178445" lon="13.6251783"><ele>705.0</ele><time>2026-05-02T09:49:54.594Z</time></trkpt><trkpt lat="46.1783367" lon="13.6251467"><ele>710.0</ele><time>2026-05-02T09:49:55.595Z</time></trkpt><trkpt lat="46.1782433" lon="13.6250533"><ele>704.2</ele><time>2026-05-02T09:49:56.595Z</time></trkpt><trkpt lat="46.17816" lon="13.6249917"><ele>698.4</ele><time>2026-05-02T09:49:57.594Z</time></trkpt><trkpt lat="46.1781" lon="13.62491"><ele>692.5999999999999</ele><time>2026-05-02T09:49:58.595Z</time></trkpt><trkpt lat="46.1780633" lon="13.6248"><ele>686.8</ele><time>2026-05-02T09:49:59.597Z</time></trkpt><trkpt lat="46.1780333" lon="13.6246733"><ele>681.0</ele><time>2026-05-02T09:50:00.594Z</time></trkpt><trkpt lat="46.177975" lon="13.6245567"><ele>685.8</ele><time>2026-05-02T09:50:01.594Z</time></trkpt><trkpt lat="46.1779133" lon="13.6244417"><ele>690.5999999999999</ele><time>2026-05-02T09:50:02.597Z</time></trkpt><trkpt lat="46.1778467" lon="13.624345"><ele>695.4</ele><time>2026-05-02T09:50:03.595Z</time></trkpt><trkpt lat="46.1777667" lon="13.6242817"><ele>700.2</ele><time>2026-05-02T09:50:04.595Z</time></trkpt><trkpt lat="46.1776733" lon="13.6242683"><ele>705.0</ele><time>2026-05-02T09:50:05.596Z</time></trkpt><trkpt lat="46.1775817" lon="13.6242633"><ele>705.0</ele><time>2026-05-02T09:50:06.594Z</time></trkpt><trkpt lat="46.1774883" lon="13.6242217"><ele>705.0</ele><time>2026-05-02T09:50:07.595Z</time></trkpt><trkpt lat="46.17739" lon="13.62415"><ele>705.0</ele><time>2026-05-02T09:50:08.596Z</time></trkpt><trkpt lat="46.177285" lon="13.62407"><ele>705.0</ele><time>2026-05-02T09:50:09.594Z</time></trkpt><trkpt lat="46.1771833" lon="13.6240083"><ele>705.0</ele><time>2026-05-02T09:50:10.594Z</time></trkpt><trkpt lat="46.1771017" lon="13.6238767"><ele>701.1666666666666</ele><time>2026-05-02T09:50:11.594Z</time></trkpt><trkpt lat="46.1770383" lon="13.6237517"><ele>697.3333333333334</ele><time>2026-05-02T09:50:12.594Z</time></trkpt><trkpt lat="46.1769683" lon="13.6236733"><ele>693.5</ele><time>2026-05-02T09:50:13.596Z</time></trkpt><trkpt lat="46.176895" lon="13.6236583"><ele>689.6666666666667</ele><time>2026-05-02T09:50:14.596Z</time></trkpt><trkpt lat="46.1768167" lon="13.6236717"><ele>685.8333333333334</ele><time>2026-05-02T09:50:15.594Z</time></trkpt><trkpt lat="46.1767433" lon="13.623675"><ele>682.0</ele><time>2026-05-02T09:50:16.595Z</time></trkpt><trkpt lat="46.1766733" lon="13.6236783"><ele>682.0</ele><time>2026-05-02T09:50:17.596Z</time></trkpt><trkpt lat="46.1766033" lon="13.623665"><ele>682.0</ele><time>2026-05-02T09:50:18.595Z</time></trkpt><trkpt lat="46.1765383" lon="13.6236267"><ele>682.0</ele><time>2026-05-02T09:50:19.595Z</time></trkpt><trkpt lat="46.17647" lon="13.6235617"><ele>682.0</ele><time>2026-05-02T09:50:20.595Z</time></trkpt><trkpt lat="46.176405" lon="13.6234367"><ele>682.0</ele><time>2026-05-02T09:50:21.594Z</time></trkpt><trkpt lat="46.1763367" lon="13.623295"><ele>680.8</ele><time>2026-05-02T09:50:22.594Z</time></trkpt><trkpt lat="46.1762517" lon="13.62316"><ele>679.6</ele><time>2026-05-02T09:50:23.596Z</time></trkpt><trkpt lat="46.17618" lon="13.623035"><ele>678.4</ele><time>2026-05-02T09:50:24.595Z</time></trkpt><trkpt lat="46.1761283" lon="13.6228983"><ele>677.1999999999999</ele><time>2026-05-02T09:50:25.595Z</time></trkpt><trkpt lat="46.1760583" lon="13.6228"><ele>676.0</ele><time>2026-05-02T09:50:26.595Z</time></trkpt><trkpt lat="46.1759633" lon="13.6227417"><ele>677.5999999999999</ele><time>2026-05-02T09:50:27.595Z</time></trkpt><trkpt lat="46.1758683" lon="13.6226867"><ele>679.2</ele><time>2026-05-02T09:50:28.595Z</time></trkpt><trkpt lat="46.175765" lon="13.6226567"><ele>680.8</ele><time>2026-05-02T09:50:29.596Z</time></trkpt><trkpt lat="46.17565" lon="13.6226733"><ele>682.4000000000001</ele><time>2026-05-02T09:50:30.594Z</time></trkpt><trkpt lat="46.17553" lon="13.6226933"><ele>684.0</ele><time>2026-05-02T09:50:31.596Z</time></trkpt><trkpt lat="46.1754083" lon="13.6226767"><ele>684.0</ele><time>2026-05-02T09:50:32.595Z</time></trkpt><trkpt lat="46.1752833" lon="13.6226783"><ele>684.0</ele><time>2026-05-02T09:50:33.595Z</time></trkpt><trkpt lat="46.1751733" lon="13.6227067"><ele>684.0</ele><time>2026-05-02T09:50:34.595Z</time></trkpt><trkpt lat="46.1750783" lon="13.622715"><ele>684.0</ele><time>2026-05-02T09:50:35.594Z</time></trkpt><trkpt lat="46.1750033" lon="13.6226767"><ele>684.0</ele><time>2026-05-02T09:50:36.594Z</time></trkpt><trkpt lat="46.1749583" lon="13.6226067"><ele>684.0</ele><time>2026-05-02T09:50:37.594Z</time></trkpt><trkpt lat="46.1749517" lon="13.6224317"><ele>684.0</ele><time>2026-05-02T09:50:39.595Z</time></trkpt><trkpt lat="46.1749883" lon="13.62234"><ele>684.0</ele><time>2026-05-02T09:50:40.593Z</time></trkpt><trkpt lat="46.1750483" lon="13.6222383"><ele>684.0</ele><time>2026-05-02T09:50:41.593Z</time></trkpt><trkpt lat="46.1750933" lon="13.6220933"><ele>684.0</ele><time>2026-05-02T09:50:42.593Z</time></trkpt><trkpt lat="46.1751133" lon="13.6219083"><ele>682.0</ele><time>2026-05-02T09:50:43.593Z</time></trkpt><trkpt lat="46.1751483" lon="13.6217483"><ele>680.0</ele><time>2026-05-02T09:50:44.593Z</time></trkpt><trkpt lat="46.17521" lon="13.621635"><ele>678.0</ele><time>2026-05-02T09:50:45.594Z</time></trkpt><trkpt lat="46.175285" lon="13.6215433"><ele>676.0</ele><time>2026-05-02T09:50:46.593Z</time></trkpt><trkpt lat="46.175355" lon="13.6214533"><ele>674.0</ele><time>2026-05-02T09:50:47.595Z</time></trkpt><trkpt lat="46.1753967" lon="13.6213433"><ele>674.0</ele><time>2026-05-02T09:50:48.593Z</time></trkpt><trkpt lat="46.17539" lon="13.6212367"><ele>674.0</ele><time>2026-05-02T09:50:49.595Z</time></trkpt><trkpt lat="46.175365" lon="13.62114"><ele>674.0</ele><time>2026-05-02T09:50:50.594Z</time></trkpt><trkpt lat="46.1752833" lon="13.621015"><ele>674.0</ele><time>2026-05-02T09:50:51.595Z</time></trkpt><trkpt lat="46.1751833" lon="13.6208933"><ele>674.0</ele><time>2026-05-02T09:50:52.595Z</time></trkpt><trkpt lat="46.17509" lon="13.6207717"><ele>673.8000000000001</ele><time>2026-05-02T09:50:53.597Z</time></trkpt><trkpt lat="46.1750083" lon="13.6206483"><ele>673.6</ele><time>2026-05-02T09:50:54.593Z</time></trkpt><trkpt lat="46.174915" lon="13.6205633"><ele>673.4</ele><time>2026-05-02T09:50:55.594Z</time></trkpt><trkpt lat="46.1748467" lon="13.62046"><ele>673.2</ele><time>2026-05-02T09:50:56.595Z</time></trkpt><trkpt lat="46.174795" lon="13.62033"><ele>673.0</ele><time>2026-05-02T09:50:57.595Z</time></trkpt><trkpt lat="46.1747683" lon="13.6201733"><ele>660.75</ele><time>2026-05-02T09:50:58.593Z</time></trkpt><trkpt lat="46.1747467" lon="13.620015"><ele>648.5</ele><time>2026-05-02T09:50:59.594Z</time></trkpt><trkpt lat="46.1747433" lon="13.6198417"><ele>636.25</ele><time>2026-05-02T09:51:00.595Z</time></trkpt><trkpt lat="46.1747633" lon="13.6196583"><ele>624.0</ele><time>2026-05-02T09:51:01.594Z</time></trkpt><trkpt lat="46.1747883" lon="13.619465"><ele>623.75</ele><time>2026-05-02T09:51:02.595Z</time></trkpt><trkpt lat="46.174795" lon="13.6192617"><ele>623.5</ele><time>2026-05-02T09:51:03.595Z</time></trkpt><trkpt lat="46.17481" lon="13.6190733"><ele>623.25</ele><time>2026-05-02T09:51:04.594Z</time></trkpt><trkpt lat="46.174845" lon="13.6188833"><ele>623.0</ele><time>2026-05-02T09:51:05.594Z</time></trkpt><trkpt lat="46.174885" lon="13.6187033"><ele>621.5</ele><time>2026-05-02T09:51:06.594Z</time></trkpt><trkpt lat="46.1749017" lon="13.618515"><ele>620.0</ele><time>2026-05-02T09:51:07.594Z</time></trkpt><trkpt lat="46.1749083" lon="13.6183433"><ele>618.5</ele><time>2026-05-02T09:51:08.594Z</time></trkpt><trkpt lat="46.1748867" lon="13.6181883"><ele>617.0</ele><time>2026-05-02T09:51:09.593Z</time></trkpt><trkpt lat="46.1748383" lon="13.6180517"><ele>617.0</ele><time>2026-05-02T09:51:10.594Z</time></trkpt><trkpt lat="46.1747767" lon="13.6179083"><ele>617.0</ele><time>2026-05-02T09:51:11.596Z</time></trkpt><trkpt lat="46.17473" lon="13.6177333"><ele>617.0</ele><time>2026-05-02T09:51:12.594Z</time></trkpt><trkpt lat="46.1746917" lon="13.6175433"><ele>617.0</ele><time>2026-05-02T09:51:13.595Z</time></trkpt><trkpt lat="46.1746517" lon="13.6173467"><ele>618.5</ele><time>2026-05-02T09:51:14.595Z</time></trkpt><trkpt lat="46.17461" lon="13.6171633"><ele>620.0</ele><time>2026-05-02T09:51:15.595Z</time></trkpt><trkpt lat="46.1745667" lon="13.617"><ele>621.5</ele><time>2026-05-02T09:51:16.595Z</time></trkpt><trkpt lat="46.1745117" lon="13.6168533"><ele>623.0</ele><time>2026-05-02T09:51:17.595Z</time></trkpt><trkpt lat="46.1744367" lon="13.6167183"><ele>627.5</ele><time>2026-05-02T09:51:18.594Z</time></trkpt><trkpt lat="46.1743367" lon="13.616595"><ele>632.0</ele><time>2026-05-02T09:51:19.594Z</time></trkpt><trkpt lat="46.1742383" lon="13.616475"><ele>636.5</ele><time>2026-05-02T09:51:20.594Z</time></trkpt><trkpt lat="46.17414" lon="13.6163717"><ele>641.0</ele><time>2026-05-02T09:51:21.594Z</time></trkpt><trkpt lat="46.17405" lon="13.616265"><ele>640.25</ele><time>2026-05-02T09:51:22.594Z</time></trkpt><trkpt lat="46.17396" lon="13.6161467"><ele>639.5</ele><time>2026-05-02T09:51:23.593Z</time></trkpt><trkpt lat="46.1738617" lon="13.6160267"><ele>638.75</ele><time>2026-05-02T09:51:24.594Z</time></trkpt><trkpt lat="46.173765" lon="13.6158967"><ele>638.0</ele><time>2026-05-02T09:51:25.594Z</time></trkpt><trkpt lat="46.1736567" lon="13.61578"><ele>638.0</ele><time>2026-05-02T09:51:26.595Z</time></trkpt><trkpt lat="46.173545" lon="13.6156783"><ele>638.0</ele><time>2026-05-02T09:51:27.592Z</time></trkpt><trkpt lat="46.17345" lon="13.6155617"><ele>638.0</ele><time>2026-05-02T09:51:28.594Z</time></trkpt><trkpt lat="46.1733883" lon="13.6154067"><ele>638.0</ele><time>2026-05-02T09:51:29.594Z</time></trkpt><trkpt lat="46.1733283" lon="13.6152467"><ele>635.6666666666666</ele><time>2026-05-02T09:51:30.592Z</time></trkpt><trkpt lat="46.1732817" lon="13.615055"><ele>633.3333333333334</ele><time>2026-05-02T09:51:31.594Z</time></trkpt><trkpt lat="46.1732367" lon="13.6148417"><ele>631.0</ele><time>2026-05-02T09:51:32.593Z</time></trkpt><trkpt lat="46.173185" lon="13.6146283"><ele>619.0</ele><time>2026-05-02T09:51:33.593Z</time></trkpt><trkpt lat="46.173135" lon="13.614405"><ele>607.0</ele><time>2026-05-02T09:51:34.594Z</time></trkpt><trkpt lat="46.1730717" lon="13.61418"><ele>595.0</ele><time>2026-05-02T09:51:35.593Z</time></trkpt><trkpt lat="46.1729967" lon="13.6139383"><ele>595.0</ele><time>2026-05-02T09:51:36.594Z</time></trkpt><trkpt lat="46.1729167" lon="13.6136883"><ele>595.0</ele><time>2026-05-02T09:51:37.593Z</time></trkpt><trkpt lat="46.17284" lon="13.6134517"><ele>595.0</ele><time>2026-05-02T09:51:38.593Z</time></trkpt><trkpt lat="46.1727467" lon="13.6132583"><ele>596.0</ele><time>2026-05-02T09:51:39.593Z</time></trkpt><trkpt lat="46.1727017" lon="13.6130767"><ele>597.0</ele><time>2026-05-02T09:51:40.594Z</time></trkpt><trkpt lat="46.1726383" lon="13.612935"><ele>598.0</ele><time>2026-05-02T09:51:41.594Z</time></trkpt><trkpt lat="46.1725833" lon="13.61281"><ele>599.0</ele><time>2026-05-02T09:51:42.593Z</time></trkpt><trkpt lat="46.17253" lon="13.6127067"><ele>600.0</ele><time>2026-05-02T09:51:43.594Z</time></trkpt><trkpt lat="46.1724867" lon="13.6126183"><ele>602.0</ele><time>2026-05-02T09:51:44.594Z</time></trkpt><trkpt lat="46.1724083" lon="13.612525"><ele>604.0</ele><time>2026-05-02T09:51:46.592Z</time></trkpt><trkpt lat="46.1723217" lon="13.6125433"><ele>606.0</ele><time>2026-05-02T09:51:48.592Z</time></trkpt><trkpt lat="46.172235" lon="13.6125017"><ele>608.0</ele><time>2026-05-02T09:51:50.594Z</time></trkpt><trkpt lat="46.172125" lon="13.6124583"><ele>610.0</ele><time>2026-05-02T09:51:52.593Z</time></trkpt><trkpt lat="46.1720117" lon="13.612415"><ele>610.0</ele><time>2026-05-02T09:51:54.592Z</time></trkpt><trkpt lat="46.1719467" lon="13.612405"><ele>610.0</ele><time>2026-05-02T09:51:55.593Z</time></trkpt><trkpt lat="46.17183" lon="13.6124117"><ele>610.0</ele><time>2026-05-02T09:51:57.594Z</time></trkpt><trkpt lat="46.1717083" lon="13.61246"><ele>610.0</ele><time>2026-05-02T09:51:59.594Z</time></trkpt><trkpt lat="46.1715933" lon="13.6125067"><ele>610.0</ele><time>2026-05-02T09:52:01.592Z</time></trkpt><trkpt lat="46.1714817" lon="13.61256"><ele>610.4</ele><time>2026-05-02T09:52:03.592Z</time></trkpt><trkpt lat="46.171385" lon="13.6125917"><ele>610.8</ele><time>2026-05-02T09:52:05.593Z</time></trkpt><trkpt lat="46.1713" lon="13.6126417"><ele>611.2</ele><time>2026-05-02T09:52:07.593Z</time></trkpt><trkpt lat="46.171205" lon="13.6126617"><ele>611.6</ele><time>2026-05-02T09:52:09.594Z</time></trkpt><trkpt lat="46.1711" lon="13.6126733"><ele>612.0</ele><time>2026-05-02T09:52:11.593Z</time></trkpt><trkpt lat="46.1709833" lon="13.612715"><ele>612.0</ele><time>2026-05-02T09:52:13.593Z</time></trkpt><trkpt lat="46.1708683" lon="13.6127217"><ele>612.0</ele><time>2026-05-02T09:52:15.594Z</time></trkpt><trkpt lat="46.170755" lon="13.6127283"><ele>612.0</ele><time>2026-05-02T09:52:17.594Z</time></trkpt><trkpt lat="46.170645" lon="13.6127483"><ele>612.0</ele><time>2026-05-02T09:52:19.595Z</time></trkpt><trkpt lat="46.1705817" lon="13.6127567"><ele>612.0</ele><time>2026-05-02T09:52:20.593Z</time></trkpt><trkpt lat="46.170515" lon="13.6127617"><ele>610.8000000000001</ele><time>2026-05-02T09:52:21.593Z</time></trkpt><trkpt lat="46.1703967" lon="13.612765"><ele>609.6</ele><time>2026-05-02T09:52:23.593Z</time></trkpt><trkpt lat="46.1702883" lon="13.6127033"><ele>608.4000000000001</ele><time>2026-05-02T09:52:25.592Z</time></trkpt><trkpt lat="46.1702233" lon="13.61266"><ele>607.2</ele><time>2026-05-02T09:52:26.593Z</time></trkpt><trkpt lat="46.1701533" lon="13.6126217"><ele>606.0</ele><time>2026-05-02T09:52:27.593Z</time></trkpt><trkpt lat="46.1700867" lon="13.6125933"><ele>606.0</ele><time>2026-05-02T09:52:28.593Z</time></trkpt><trkpt lat="46.1699733" lon="13.6125433"><ele>606.0</ele><time>2026-05-02T09:52:30.594Z</time></trkpt><trkpt lat="46.1698533" lon="13.6125683"><ele>606.0</ele><time>2026-05-02T09:52:32.594Z</time></trkpt><trkpt lat="46.1697883" lon="13.6125767"><ele>606.0</ele><time>2026-05-02T09:52:33.592Z</time></trkpt><trkpt lat="46.1697233" lon="13.61258"><ele>606.0</ele><time>2026-05-02T09:52:34.594Z</time></trkpt><trkpt lat="46.1696133" lon="13.612565"><ele>602.6</ele><time>2026-05-02T09:52:36.594Z</time></trkpt><trkpt lat="46.1695183" lon="13.6125567"><ele>599.2</ele><time>2026-05-02T09:52:38.594Z</time></trkpt><trkpt lat="46.1693967" lon="13.6125817"><ele>595.8</ele><time>2026-05-02T09:52:40.594Z</time></trkpt><trkpt lat="46.1692883" lon="13.61252"><ele>592.4</ele><time>2026-05-02T09:52:42.593Z</time></trkpt><trkpt lat="46.1692267" lon="13.6124983"><ele>589.0</ele><time>2026-05-02T09:52:43.593Z</time></trkpt><trkpt lat="46.1691067" lon="13.612445"><ele>589.0</ele><time>2026-05-02T09:52:45.593Z</time></trkpt><trkpt lat="46.16904" lon="13.612445"><ele>589.0</ele><time>2026-05-02T09:52:46.594Z</time></trkpt><trkpt lat="46.1689283" lon="13.6124083"><ele>589.0</ele><time>2026-05-02T09:52:48.593Z</time></trkpt><trkpt lat="46.1688267" lon="13.6123717"><ele>589.0</ele><time>2026-05-02T09:52:50.593Z</time></trkpt><trkpt lat="46.168725" lon="13.6123783"><ele>589.0</ele><time>2026-05-02T09:52:52.592Z</time></trkpt><trkpt lat="46.1686233" lon="13.6124517"><ele>589.6666666666667</ele><time>2026-05-02T09:52:54.594Z</time></trkpt><trkpt lat="46.168565" lon="13.61251"><ele>590.3333333333334</ele><time>2026-05-02T09:52:55.593Z</time></trkpt><trkpt lat="46.1685017" lon="13.612565"><ele>591.0</ele><time>2026-05-02T09:52:56.593Z</time></trkpt><trkpt lat="46.1684433" lon="13.6126333"><ele>591.6666666666666</ele><time>2026-05-02T09:52:57.594Z</time></trkpt><trkpt lat="46.168395" lon="13.6126983"><ele>592.3333333333333</ele><time>2026-05-02T09:52:58.594Z</time></trkpt><trkpt lat="46.16835" lon="13.6127667"><ele>593.0</ele><time>2026-05-02T09:52:59.593Z</time></trkpt><trkpt lat="46.1682733" lon="13.612905"><ele>588.6</ele><time>2026-05-02T09:53:01.593Z</time></trkpt><trkpt lat="46.168205" lon="13.6130367"><ele>584.1999999999999</ele><time>2026-05-02T09:53:03.594Z</time></trkpt><trkpt lat="46.168125" lon="13.6131317"><ele>579.8</ele><time>2026-05-02T09:53:05.594Z</time></trkpt><trkpt lat="46.1680267" lon="13.613215"><ele>575.4</ele><time>2026-05-02T09:53:07.594Z</time></trkpt><trkpt lat="46.1679317" lon="13.6133117"><ele>571.0</ele><time>2026-05-02T09:53:09.593Z</time></trkpt><trkpt lat="46.1678583" lon="13.613435"><ele>571.0</ele><time>2026-05-02T09:53:11.593Z</time></trkpt><trkpt lat="46.1678033" lon="13.61354"><ele>571.0</ele><time>2026-05-02T09:53:13.594Z</time></trkpt><trkpt lat="46.16773" lon="13.6135867"><ele>571.0</ele><time>2026-05-02T09:53:15.594Z</time></trkpt><trkpt lat="46.1676283" lon="13.6135717"><ele>571.0</ele><time>2026-05-02T09:53:17.593Z</time></trkpt><trkpt lat="46.1675383" lon="13.6135417"><ele>571.0</ele><time>2026-05-02T09:53:19.594Z</time></trkpt><trkpt lat="46.1674583" lon="13.6135367"><ele>571.0</ele><time>2026-05-02T09:53:21.593Z</time></trkpt><trkpt lat="46.167385" lon="13.6135667"><ele>573.2</ele><time>2026-05-02T09:53:23.593Z</time></trkpt><trkpt lat="46.1673117" lon="13.6136567"><ele>575.4000000000001</ele><time>2026-05-02T09:53:25.594Z</time></trkpt><trkpt lat="46.1672483" lon="13.6137517"><ele>577.6</ele><time>2026-05-02T09:53:27.593Z</time></trkpt><trkpt lat="46.167215" lon="13.6138767"><ele>579.8000000000001</ele><time>2026-05-02T09:53:29.594Z</time></trkpt><trkpt lat="46.1672183" lon="13.6140167"><ele>582.0</ele><time>2026-05-02T09:53:31.594Z</time></trkpt><trkpt lat="46.1671917" lon="13.6141817"><ele>582.0</ele><time>2026-05-02T09:53:33.593Z</time></trkpt><trkpt lat="46.167175" lon="13.6142767"><ele>582.0</ele><time>2026-05-02T09:53:34.593Z</time></trkpt><trkpt lat="46.1671433" lon="13.6144467"><ele>582.0</ele><time>2026-05-02T09:53:36.593Z</time></trkpt><trkpt lat="46.1671167" lon="13.61454"><ele>582.0</ele><time>2026-05-02T09:53:37.594Z</time></trkpt><trkpt lat="46.16707" lon="13.6146883"><ele>582.0</ele><time>2026-05-02T09:53:39.594Z</time></trkpt><trkpt lat="46.1670233" lon="13.614825"><ele>577.0</ele><time>2026-05-02T09:53:41.593Z</time></trkpt><trkpt lat="46.1669717" lon="13.614975"><ele>572.0</ele><time>2026-05-02T09:53:43.594Z</time></trkpt><trkpt lat="46.1669317" lon="13.6150983"><ele>567.0</ele><time>2026-05-02T09:53:45.594Z</time></trkpt><trkpt lat="46.16688" lon="13.6151633"><ele>562.0</ele><time>2026-05-02T09:53:47.593Z</time></trkpt><trkpt lat="46.166795" lon="13.615225"><ele>557.0</ele><time>2026-05-02T09:53:49.593Z</time></trkpt><trkpt lat="46.1666833" lon="13.6152717"><ele>557.0</ele><time>2026-05-02T09:53:51.593Z</time></trkpt><trkpt lat="46.166575" lon="13.615315"><ele>557.0</ele><time>2026-05-02T09:53:53.594Z</time></trkpt><trkpt lat="46.1664833" lon="13.6153967"><ele>557.0</ele><time>2026-05-02T09:53:55.593Z</time></trkpt><trkpt lat="46.1664183" lon="13.6155083"><ele>557.0</ele><time>2026-05-02T09:53:57.594Z</time></trkpt><trkpt lat="46.1663367" lon="13.6156183"><ele>557.0</ele><time>2026-05-02T09:53:59.594Z</time></trkpt><trkpt lat="46.1662917" lon="13.6156883"><ele>556.5</ele><time>2026-05-02T09:54:00.594Z</time></trkpt><trkpt lat="46.16625" lon="13.61576"><ele>556.0</ele><time>2026-05-02T09:54:01.594Z</time></trkpt><trkpt lat="46.166205" lon="13.6158367"><ele>555.5</ele><time>2026-05-02T09:54:02.595Z</time></trkpt><trkpt lat="46.1661583" lon="13.6159133"><ele>555.0</ele><time>2026-05-02T09:54:03.594Z</time></trkpt><trkpt lat="46.1661083" lon="13.615995"><ele>554.5</ele><time>2026-05-02T09:54:04.593Z</time></trkpt><trkpt lat="46.1660433" lon="13.6160883"><ele>554.0</ele><time>2026-05-02T09:54:05.593Z</time></trkpt><trkpt lat="46.1659867" lon="13.6161717"><ele>551.5</ele><time>2026-05-02T09:54:06.594Z</time></trkpt><trkpt lat="46.1659383" lon="13.6162517"><ele>549.0</ele><time>2026-05-02T09:54:07.594Z</time></trkpt><trkpt lat="46.1659017" lon="13.6163417"><ele>546.5</ele><time>2026-05-02T09:54:08.594Z</time></trkpt><trkpt lat="46.1658467" lon="13.6164433"><ele>544.0</ele><time>2026-05-02T09:54:09.594Z</time></trkpt><trkpt lat="46.165795" lon="13.6165433"><ele>541.5</ele><time>2026-05-02T09:54:10.596Z</time></trkpt><trkpt lat="46.16574" lon="13.6166417"><ele>539.0</ele><time>2026-05-02T09:54:11.596Z</time></trkpt><trkpt lat="46.1656833" lon="13.6167367"><ele>539.0</ele><time>2026-05-02T09:54:12.595Z</time></trkpt><trkpt lat="46.16564" lon="13.6168217"><ele>539.0</ele><time>2026-05-02T09:54:13.593Z</time></trkpt><trkpt lat="46.165595" lon="13.6169133"><ele>539.0</ele><time>2026-05-02T09:54:14.593Z</time></trkpt><trkpt lat="46.1655517" lon="13.61699"><ele>539.0</ele><time>2026-05-02T09:54:15.594Z</time></trkpt><trkpt lat="46.1655067" lon="13.617065"><ele>539.0</ele><time>2026-05-02T09:54:16.594Z</time></trkpt><trkpt lat="46.1654617" lon="13.6171417"><ele>539.0</ele><time>2026-05-02T09:54:17.594Z</time></trkpt><trkpt lat="46.1654317" lon="13.6172233"><ele>539.0</ele><time>2026-05-02T09:54:18.594Z</time></trkpt><trkpt lat="46.16538" lon="13.6173017"><ele>532.6</ele><time>2026-05-02T09:54:19.593Z</time></trkpt><trkpt lat="46.1653167" lon="13.61739"><ele>526.2</ele><time>2026-05-02T09:54:20.594Z</time></trkpt><trkpt lat="46.165255" lon="13.6174767"><ele>519.8000000000001</ele><time>2026-05-02T09:54:21.593Z</time></trkpt><trkpt lat="46.1651967" lon="13.6175633"><ele>513.4</ele><time>2026-05-02T09:54:22.594Z</time></trkpt><trkpt lat="46.1651433" lon="13.6176233"><ele>507.0</ele><time>2026-05-02T09:54:23.593Z</time></trkpt><trkpt lat="46.16505" lon="13.6177467"><ele>502.0</ele><time>2026-05-02T09:54:25.593Z</time></trkpt><trkpt lat="46.1649717" lon="13.6178433"><ele>497.00000000000006</ele><time>2026-05-02T09:54:27.593Z</time></trkpt><trkpt lat="46.1648917" lon="13.6178783"><ele>492.00000000000006</ele><time>2026-05-02T09:54:29.595Z</time></trkpt><trkpt lat="46.1648067" lon="13.6178467"><ele>487.0</ele><time>2026-05-02T09:54:31.594Z</time></trkpt><trkpt lat="46.164705" lon="13.6178"><ele>482.0</ele><time>2026-05-02T09:54:33.593Z</time></trkpt><trkpt lat="46.1645883" lon="13.6177683"><ele>480.16666666666663</ele><time>2026-05-02T09:54:35.596Z</time></trkpt><trkpt lat="46.1644833" lon="13.6177517"><ele>478.3333333333333</ele><time>2026-05-02T09:54:37.595Z</time></trkpt><trkpt lat="46.16442" lon="13.6177017"><ele>476.5</ele><time>2026-05-02T09:54:39.594Z</time></trkpt><trkpt lat="46.1643867" lon="13.61761"><ele>474.66666666666663</ele><time>2026-05-02T09:54:41.593Z</time></trkpt><trkpt lat="46.1643617" lon="13.6174817"><ele>472.8333333333333</ele><time>2026-05-02T09:54:43.595Z</time></trkpt><trkpt lat="46.164325" lon="13.6173417"><ele>471.0</ele><time>2026-05-02T09:54:45.593Z</time></trkpt><trkpt lat="46.1642633" lon="13.61724"><ele>471.0</ele><time>2026-05-02T09:54:47.595Z</time></trkpt><trkpt lat="46.1641783" lon="13.6171533"><ele>471.0</ele><time>2026-05-02T09:54:49.594Z</time></trkpt><trkpt lat="46.1641017" lon="13.6170717"><ele>471.0</ele><time>2026-05-02T09:54:51.594Z</time></trkpt><trkpt lat="46.164035" lon="13.616985"><ele>471.0</ele><time>2026-05-02T09:54:53.596Z</time></trkpt><trkpt lat="46.1639783" lon="13.61688"><ele>471.0</ele><time>2026-05-02T09:54:55.594Z</time></trkpt><trkpt lat="46.1638933" lon="13.6167817"><ele>469.3333333333333</ele><time>2026-05-02T09:54:57.593Z</time></trkpt><trkpt lat="46.1638433" lon="13.6167183"><ele>467.66666666666663</ele><time>2026-05-02T09:54:58.594Z</time></trkpt><trkpt lat="46.1637933" lon="13.6166583"><ele>466.0</ele><time>2026-05-02T09:54:59.594Z</time></trkpt><trkpt lat="46.1637433" lon="13.6166017"><ele>464.3333333333333</ele><time>2026-05-02T09:55:00.594Z</time></trkpt><trkpt lat="46.1636467" lon="13.6165167"><ele>462.66666666666663</ele><time>2026-05-02T09:55:02.595Z</time></trkpt><trkpt lat="46.1635417" lon="13.616485"><ele>461.0</ele><time>2026-05-02T09:55:04.594Z</time></trkpt><trkpt lat="46.163415" lon="13.61649"><ele>460.99999999999994</ele><time>2026-05-02T09:55:06.594Z</time></trkpt><trkpt lat="46.1633467" lon="13.6164783"><ele>461.0</ele><time>2026-05-02T09:55:07.594Z</time></trkpt><trkpt lat="46.16328" lon="13.61647"><ele>461.0</ele><time>2026-05-02T09:55:08.594Z</time></trkpt><trkpt lat="46.163215" lon="13.6164633"><ele>461.0</ele><time>2026-05-02T09:55:09.594Z</time></trkpt><trkpt lat="46.1630983" lon="13.6164183"><ele>460.99999999999994</ele><time>2026-05-02T09:55:11.594Z</time></trkpt><trkpt lat="46.162975" lon="13.6163983"><ele>461.0</ele><time>2026-05-02T09:55:13.593Z</time></trkpt><trkpt lat="46.1629117" lon="13.616395"><ele>454.8</ele><time>2026-05-02T09:55:14.594Z</time></trkpt><trkpt lat="46.1628483" lon="13.6163783"><ele>448.6</ele><time>2026-05-02T09:55:15.593Z</time></trkpt><trkpt lat="46.1627317" lon="13.6163233"><ele>442.4</ele><time>2026-05-02T09:55:17.593Z</time></trkpt><trkpt lat="46.1626667" lon="13.6163133"><ele>436.2</ele><time>2026-05-02T09:55:18.595Z</time></trkpt><trkpt lat="46.1625733" lon="13.6162567"><ele>430.0</ele><time>2026-05-02T09:55:20.594Z</time></trkpt><trkpt lat="46.1624867" lon="13.6161733"><ele>429.8</ele><time>2026-05-02T09:55:22.594Z</time></trkpt><trkpt lat="46.1623933" lon="13.6160967"><ele>429.6</ele><time>2026-05-02T09:55:24.594Z</time></trkpt><trkpt lat="46.1622917" lon="13.6160783"><ele>429.4</ele><time>2026-05-02T09:55:26.594Z</time></trkpt><trkpt lat="46.1622017" lon="13.6160517"><ele>429.2</ele><time>2026-05-02T09:55:28.595Z</time></trkpt><trkpt lat="46.1620983" lon="13.61598"><ele>429.0</ele><time>2026-05-02T09:55:30.593Z</time></trkpt><trkpt lat="46.1620433" lon="13.615925"><ele>429.0</ele><time>2026-05-02T09:55:31.594Z</time></trkpt><trkpt lat="46.1619867" lon="13.6158717"><ele>429.0</ele><time>2026-05-02T09:55:32.593Z</time></trkpt><trkpt lat="46.1619283" lon="13.6158233"><ele>429.0</ele><time>2026-05-02T09:55:33.594Z</time></trkpt><trkpt lat="46.1618717" lon="13.61577"><ele>429.0</ele><time>2026-05-02T09:55:34.593Z</time></trkpt><trkpt lat="46.1618067" lon="13.615725"><ele>429.0</ele><time>2026-05-02T09:55:35.594Z</time></trkpt><trkpt lat="46.1617483" lon="13.6156817"><ele>429.0</ele><time>2026-05-02T09:55:36.593Z</time></trkpt><trkpt lat="46.1616433" lon="13.61561"><ele>429.0</ele><time>2026-05-02T09:55:38.594Z</time></trkpt><trkpt lat="46.1615467" lon="13.6155183"><ele>429.0</ele><time>2026-05-02T09:55:40.594Z</time></trkpt><trkpt lat="46.1614467" lon="13.615415"><ele>429.0</ele><time>2026-05-02T09:55:42.593Z</time></trkpt><trkpt lat="46.161365" lon="13.6152867"><ele>429.0</ele><time>2026-05-02T09:55:44.595Z</time></trkpt><trkpt lat="46.16132" lon="13.615215"><ele>429.0</ele><time>2026-05-02T09:55:45.594Z</time></trkpt><trkpt lat="46.1612417" lon="13.6150883"><ele>429.0</ele><time>2026-05-02T09:55:47.593Z</time></trkpt><trkpt lat="46.16118" lon="13.614935"><ele>429.0</ele><time>2026-05-02T09:55:49.595Z</time></trkpt><trkpt lat="46.16115" lon="13.6148433"><ele>429.0</ele><time>2026-05-02T09:55:50.594Z</time></trkpt><trkpt lat="46.1611183" lon="13.6147383"><ele>429.0</ele><time>2026-05-02T09:55:51.594Z</time></trkpt><trkpt lat="46.1610917" lon="13.6146267"><ele>429.0</ele><time>2026-05-02T09:55:52.593Z</time></trkpt><trkpt lat="46.16107" lon="13.6145167"><ele>429.0</ele><time>2026-05-02T09:55:53.594Z</time></trkpt><trkpt lat="46.161045" lon="13.6144117"><ele>429.0</ele><time>2026-05-02T09:55:54.594Z</time></trkpt><trkpt lat="46.16102" lon="13.6143067"><ele>429.0</ele><time>2026-05-02T09:55:55.595Z</time></trkpt><trkpt lat="46.1609983" lon="13.6142083"><ele>429.0</ele><time>2026-05-02T09:55:56.596Z</time></trkpt><trkpt lat="46.16096" lon="13.6141267"><ele>429.0</ele><time>2026-05-02T09:55:57.594Z</time></trkpt><trkpt lat="46.1609283" lon="13.614035"><ele>429.0</ele><time>2026-05-02T09:55:58.595Z</time></trkpt><trkpt lat="46.1609033" lon="13.613945"><ele>429.0</ele><time>2026-05-02T09:55:59.594Z</time></trkpt><trkpt lat="46.160865" lon="13.6138567"><ele>429.0</ele><time>2026-05-02T09:56:00.595Z</time></trkpt><trkpt lat="46.160835" lon="13.6137717"><ele>417.79999999999995</ele><time>2026-05-02T09:56:01.595Z</time></trkpt><trkpt lat="46.1607717" lon="13.613645"><ele>406.59999999999997</ele><time>2026-05-02T09:56:03.594Z</time></trkpt><trkpt lat="46.1606983" lon="13.61351"><ele>395.4</ele><time>2026-05-02T09:56:05.595Z</time></trkpt><trkpt lat="46.1606167" lon="13.6133767"><ele>384.2</ele><time>2026-05-02T09:56:07.594Z</time></trkpt><trkpt lat="46.1605717" lon="13.613305"><ele>373.0</ele><time>2026-05-02T09:56:08.594Z</time></trkpt><trkpt lat="46.1604933" lon="13.6131783"><ele>373.0</ele><time>2026-05-02T09:56:10.595Z</time></trkpt><trkpt lat="46.1604417" lon="13.6130567"><ele>373.0</ele><time>2026-05-02T09:56:12.595Z</time></trkpt><trkpt lat="46.1603983" lon="13.61293"><ele>373.0</ele><time>2026-05-02T09:56:14.595Z</time></trkpt><trkpt lat="46.1603267" lon="13.6128"><ele>373.0</ele><time>2026-05-02T09:56:16.595Z</time></trkpt><trkpt lat="46.1603067" lon="13.6127117"><ele>373.0</ele><time>2026-05-02T09:56:17.596Z</time></trkpt><trkpt lat="46.1602767" lon="13.61255"><ele>375.66666666666663</ele><time>2026-05-02T09:56:19.595Z</time></trkpt><trkpt lat="46.1602683" lon="13.61244"><ele>378.3333333333333</ele><time>2026-05-02T09:56:21.594Z</time></trkpt><trkpt lat="46.16029" lon="13.6123517"><ele>381.0</ele><time>2026-05-02T09:56:23.595Z</time></trkpt><trkpt lat="46.160335" lon="13.61222"><ele>383.66666666666663</ele><time>2026-05-02T09:56:25.595Z</time></trkpt><trkpt lat="46.16032" lon="13.612095"><ele>386.3333333333333</ele><time>2026-05-02T09:56:27.595Z</time></trkpt><trkpt lat="46.1602417" lon="13.61201"><ele>389.0</ele><time>2026-05-02T09:56:29.595Z</time></trkpt><trkpt lat="46.1601767" lon="13.6118583"><ele>390.49999999999994</ele><time>2026-05-02T09:56:31.594Z</time></trkpt><trkpt lat="46.1601333" lon="13.61176"><ele>392.0</ele><time>2026-05-02T09:56:32.594Z</time></trkpt><trkpt lat="46.160075" lon="13.6116583"><ele>393.5</ele><time>2026-05-02T09:56:33.594Z</time></trkpt><trkpt lat="46.1600167" lon="13.6115567"><ele>395.0</ele><time>2026-05-02T09:56:34.594Z</time></trkpt><trkpt lat="46.1599633" lon="13.611455"><ele>396.49999999999994</ele><time>2026-05-02T09:56:35.596Z</time></trkpt><trkpt lat="46.159915" lon="13.6113583"><ele>398.0</ele><time>2026-05-02T09:56:36.595Z</time></trkpt><trkpt lat="46.159875" lon="13.6112583"><ele>390.0</ele><time>2026-05-02T09:56:37.596Z</time></trkpt><trkpt lat="46.1598367" lon="13.6111483"><ele>382.0</ele><time>2026-05-02T09:56:38.596Z</time></trkpt><trkpt lat="46.1598183" lon="13.6110283"><ele>374.0</ele><time>2026-05-02T09:56:39.594Z</time></trkpt><trkpt lat="46.1597917" lon="13.6108983"><ele>366.0</ele><time>2026-05-02T09:56:40.594Z</time></trkpt><trkpt lat="46.1597633" lon="13.6107567"><ele>358.0</ele><time>2026-05-02T09:56:41.595Z</time></trkpt><trkpt lat="46.1597367" lon="13.6106167"><ele>358.0</ele><time>2026-05-02T09:56:42.595Z</time></trkpt><trkpt lat="46.1597133" lon="13.610475"><ele>358.0</ele><time>2026-05-02T09:56:43.594Z</time></trkpt><trkpt lat="46.1596983" lon="13.61032"><ele>358.0</ele><time>2026-05-02T09:56:44.596Z</time></trkpt><trkpt lat="46.1596817" lon="13.6101683"><ele>358.0</ele><time>2026-05-02T09:56:45.595Z</time></trkpt><trkpt lat="46.1596667" lon="13.61004"><ele>358.0</ele><time>2026-05-02T09:56:46.595Z</time></trkpt><trkpt lat="46.1596533" lon="13.6099183"><ele>358.3333333333333</ele><time>2026-05-02T09:56:47.594Z</time></trkpt><trkpt lat="46.1596333" lon="13.6097983"><ele>358.66666666666663</ele><time>2026-05-02T09:56:48.594Z</time></trkpt><trkpt lat="46.159615" lon="13.6096817"><ele>359.0</ele><time>2026-05-02T09:56:49.594Z</time></trkpt><trkpt lat="46.1595967" lon="13.609565"><ele>359.3333333333333</ele><time>2026-05-02T09:56:50.596Z</time></trkpt><trkpt lat="46.1595783" lon="13.6094533"><ele>359.6666666666667</ele><time>2026-05-02T09:56:51.594Z</time></trkpt><trkpt lat="46.15956" lon="13.609355"><ele>360.0</ele><time>2026-05-02T09:56:52.595Z</time></trkpt><trkpt lat="46.1595228" lon="13.6091864"><ele>360.0</ele><time>2026-05-02T09:56:54.594Z</time></trkpt><trkpt lat="46.1594667" lon="13.6090287"><ele>360.0</ele><time>2026-05-02T09:56:56.595Z</time></trkpt><trkpt lat="46.1594347" lon="13.6089444"><ele>360.0</ele><time>2026-05-02T09:56:57.594Z</time></trkpt><trkpt lat="46.1594018" lon="13.6088528"><ele>360.0</ele><time>2026-05-02T09:56:58.594Z</time></trkpt><trkpt lat="46.1593731" lon="13.6087569"><ele>360.0</ele><time>2026-05-02T09:56:59.594Z</time></trkpt><trkpt lat="46.1593461" lon="13.6086611"><ele>360.0</ele><time>2026-05-02T09:57:00.595Z</time></trkpt><trkpt lat="46.1593183" lon="13.6085651"><ele>362.0</ele><time>2026-05-02T09:57:01.595Z</time></trkpt><trkpt lat="46.1592867" lon="13.6084693"><ele>364.0</ele><time>2026-05-02T09:57:02.595Z</time></trkpt><trkpt lat="46.1592559" lon="13.6083818"><ele>366.0</ele><time>2026-05-02T09:57:03.594Z</time></trkpt><trkpt lat="46.1592236" lon="13.6082934"><ele>368.0</ele><time>2026-05-02T09:57:04.594Z</time></trkpt><trkpt lat="46.1591811" lon="13.6082001"><ele>370.0</ele><time>2026-05-02T09:57:05.595Z</time></trkpt><trkpt lat="46.1591369" lon="13.6081081"><ele>372.0</ele><time>2026-05-02T09:57:06.594Z</time></trkpt><trkpt lat="46.1590932" lon="13.6080157"><ele>374.0</ele><time>2026-05-02T09:57:07.594Z</time></trkpt><trkpt lat="46.1590492" lon="13.6079234"><ele>367.1666666666667</ele><time>2026-05-02T09:57:08.595Z</time></trkpt><trkpt lat="46.1590102" lon="13.6078362"><ele>360.33333333333337</ele><time>2026-05-02T09:57:09.594Z</time></trkpt><trkpt lat="46.1589752" lon="13.6077526"><ele>353.5</ele><time>2026-05-02T09:57:10.595Z</time></trkpt><trkpt lat="46.1589414" lon="13.6076666"><ele>346.6666666666667</ele><time>2026-05-02T09:57:11.595Z</time></trkpt><trkpt lat="46.1589136" lon="13.6075748"><ele>339.8333333333333</ele><time>2026-05-02T09:57:12.594Z</time></trkpt><trkpt lat="46.1588924" lon="13.6074867"><ele>333.0</ele><time>2026-05-02T09:57:13.595Z</time></trkpt><trkpt lat="46.1588734" lon="13.6073303"><ele>333.0</ele><time>2026-05-02T09:57:15.595Z</time></trkpt><trkpt lat="46.1589027" lon="13.6071705"><ele>333.0</ele><time>2026-05-02T09:57:17.594Z</time></trkpt><trkpt lat="46.1589342" lon="13.6070902"><ele>333.0</ele><time>2026-05-02T09:57:18.593Z</time></trkpt><trkpt lat="46.1589783" lon="13.6069496"><ele>333.0</ele><time>2026-05-02T09:57:20.594Z</time></trkpt><trkpt lat="46.158959" lon="13.606856"><ele>333.0</ele><time>2026-05-02T09:57:22.593Z</time></trkpt><trkpt lat="46.1588785" lon="13.6067738"><ele>333.0</ele><time>2026-05-02T09:57:24.594Z</time></trkpt><trkpt lat="46.158788" lon="13.6066837"><ele>333.0</ele><time>2026-05-02T09:57:26.594Z</time></trkpt><trkpt lat="46.1587094" lon="13.6066329"><ele>333.0</ele><time>2026-05-02T09:57:28.593Z</time></trkpt><trkpt lat="46.1587444" lon="13.606749"><ele>333.0</ele><time>2026-05-02T09:57:40.594Z</time></trkpt><trkpt lat="46.1587828" lon="13.6068242"><ele>333.0</ele><time>2026-05-02T09:57:42.593Z</time></trkpt><trkpt lat="46.1587815" lon="13.6069381"><ele>333.0</ele><time>2026-05-02T09:57:44.595Z</time></trkpt><trkpt lat="46.158721" lon="13.6070682"><ele>333.0</ele><time>2026-05-02T09:57:46.594Z</time></trkpt><trkpt lat="46.1586454" lon="13.6072006"><ele>333.0</ele><time>2026-05-02T09:57:48.593Z</time></trkpt><trkpt lat="46.1585935" lon="13.6073527"><ele>333.0</ele><time>2026-05-02T09:57:50.594Z</time></trkpt><trkpt lat="46.1585755" lon="13.6075233"><ele>333.0</ele><time>2026-05-02T09:57:52.593Z</time></trkpt><trkpt lat="46.1585881" lon="13.6077091"><ele>333.0</ele><time>2026-05-02T09:57:54.594Z</time></trkpt><trkpt lat="46.1586002" lon="13.6078125"><ele>333.0</ele><time>2026-05-02T09:57:55.594Z</time></trkpt><trkpt lat="46.1586123" lon="13.6079147"><ele>333.0</ele><time>2026-05-02T09:57:56.595Z</time></trkpt><trkpt lat="46.1586244" lon="13.6080159"><ele>333.0</ele><time>2026-05-02T09:57:57.594Z</time></trkpt><trkpt lat="46.1586386" lon="13.6081188"><ele>333.0</ele><time>2026-05-02T09:57:58.593Z</time></trkpt><trkpt lat="46.1586546" lon="13.6082239"><ele>333.0</ele><time>2026-05-02T09:57:59.594Z</time></trkpt><trkpt lat="46.1586743" lon="13.6083357"><ele>333.0</ele><time>2026-05-02T09:58:00.593Z</time></trkpt><trkpt lat="46.1587117" lon="13.6084498"><ele>332.4</ele><time>2026-05-02T09:58:01.594Z</time></trkpt><trkpt lat="46.1587516" lon="13.6085628"><ele>331.79999999999995</ele><time>2026-05-02T09:58:02.594Z</time></trkpt><trkpt lat="46.1587816" lon="13.6086811"><ele>331.2</ele><time>2026-05-02T09:58:03.594Z</time></trkpt><trkpt lat="46.1588029" lon="13.6088126"><ele>330.6</ele><time>2026-05-02T09:58:04.595Z</time></trkpt><trkpt lat="46.1588262" lon="13.6089481"><ele>330.0</ele><time>2026-05-02T09:58:05.594Z</time></trkpt><trkpt lat="46.1588426" lon="13.6090732"><ele>328.14285714285717</ele><time>2026-05-02T09:58:06.595Z</time></trkpt><trkpt lat="46.1588571" lon="13.6091894"><ele>326.2857142857143</ele><time>2026-05-02T09:58:07.595Z</time></trkpt><trkpt lat="46.1588672" lon="13.6093001"><ele>324.42857142857144</ele><time>2026-05-02T09:58:08.594Z</time></trkpt><trkpt lat="46.1588726" lon="13.6094026"><ele>322.57142857142856</ele><time>2026-05-02T09:58:09.594Z</time></trkpt><trkpt lat="46.1588743" lon="13.6094954"><ele>320.7142857142857</ele><time>2026-05-02T09:58:10.595Z</time></trkpt><trkpt lat="46.1588738" lon="13.6095916"><ele>318.8571428571429</ele><time>2026-05-02T09:58:11.595Z</time></trkpt><trkpt lat="46.1588731" lon="13.6096921"><ele>317.0</ele><time>2026-05-02T09:58:12.594Z</time></trkpt><trkpt lat="46.1588732" lon="13.6097962"><ele>316.33333333333337</ele><time>2026-05-02T09:58:13.595Z</time></trkpt><trkpt lat="46.1588769" lon="13.6099071"><ele>315.6666666666667</ele><time>2026-05-02T09:58:14.595Z</time></trkpt><trkpt lat="46.1588812" lon="13.6100151"><ele>315.0</ele><time>2026-05-02T09:58:15.595Z</time></trkpt><trkpt lat="46.1588834" lon="13.610126"><ele>314.3333333333333</ele><time>2026-05-02T09:58:16.593Z</time></trkpt><trkpt lat="46.1588824" lon="13.6102378"><ele>313.66666666666663</ele><time>2026-05-02T09:58:17.595Z</time></trkpt><trkpt lat="46.1588779" lon="13.6103486"><ele>313.0</ele><time>2026-05-02T09:58:18.594Z</time></trkpt><trkpt lat="46.1588719" lon="13.610462"><ele>313.0</ele><time>2026-05-02T09:58:19.594Z</time></trkpt><trkpt lat="46.1588609" lon="13.6105826"><ele>313.0</ele><time>2026-05-02T09:58:20.594Z</time></trkpt><trkpt lat="46.1588563" lon="13.6106963"><ele>313.0</ele><time>2026-05-02T09:58:21.593Z</time></trkpt><trkpt lat="46.1588521" lon="13.6107976"><ele>313.0</ele><time>2026-05-02T09:58:22.593Z</time></trkpt><trkpt lat="46.1588462" lon="13.6109519"><ele>313.0</ele><time>2026-05-02T09:58:24.594Z</time></trkpt><trkpt lat="46.1588341" lon="13.6110682"><ele>313.0</ele><time>2026-05-02T09:58:26.595Z</time></trkpt><trkpt lat="46.1588251" lon="13.6111719"><ele>313.2</ele><time>2026-05-02T09:58:28.593Z</time></trkpt><trkpt lat="46.1588084" lon="13.6112786"><ele>313.4</ele><time>2026-05-02T09:58:30.595Z</time></trkpt><trkpt lat="46.1587979" lon="13.6114294"><ele>313.59999999999997</ele><time>2026-05-02T09:58:32.595Z</time></trkpt><trkpt lat="46.1587873" lon="13.6116178"><ele>313.8</ele><time>2026-05-02T09:58:34.595Z</time></trkpt><trkpt lat="46.158781" lon="13.6117303"><ele>314.0</ele><time>2026-05-02T09:58:35.594Z</time></trkpt><trkpt lat="46.158777" lon="13.6118436"><ele>314.0</ele><time>2026-05-02T09:58:36.594Z</time></trkpt><trkpt lat="46.1587748" lon="13.6119525"><ele>314.0</ele><time>2026-05-02T09:58:37.594Z</time></trkpt><trkpt lat="46.1587732" lon="13.6120601"><ele>314.0</ele><time>2026-05-02T09:58:38.594Z</time></trkpt><trkpt lat="46.1587813" lon="13.6121567"><ele>314.0</ele><time>2026-05-02T09:58:39.594Z</time></trkpt><trkpt lat="46.1588016" lon="13.6122436"><ele>314.0</ele><time>2026-05-02T09:58:40.593Z</time></trkpt><trkpt lat="46.1588651" lon="13.6123644"><ele>314.0</ele><time>2026-05-02T09:58:42.594Z</time></trkpt><trkpt lat="46.1589385" lon="13.6124249"><ele>314.0</ele><time>2026-05-02T09:58:44.594Z</time></trkpt><trkpt lat="46.1589969" lon="13.6124861"><ele>314.0</ele><time>2026-05-02T09:58:46.596Z</time></trkpt><trkpt lat="46.1590244" lon="13.6125757"><ele>314.0</ele><time>2026-05-02T09:58:48.594Z</time></trkpt><trkpt lat="46.1590285" lon="13.6127305"><ele>314.0</ele><time>2026-05-02T09:58:50.596Z</time></trkpt><trkpt lat="46.1590575" lon="13.6128933"><ele>314.0</ele><time>2026-05-02T09:58:52.594Z</time></trkpt><trkpt lat="46.159105" lon="13.6130667"><ele>315.6666666666667</ele><time>2026-05-02T09:58:54.593Z</time></trkpt><trkpt lat="46.1591442" lon="13.6131634"><ele>317.33333333333337</ele><time>2026-05-02T09:58:55.594Z</time></trkpt><trkpt lat="46.1591882" lon="13.6132632"><ele>319.0</ele><time>2026-05-02T09:58:56.595Z</time></trkpt><trkpt lat="46.1592371" lon="13.6133691"><ele>320.6666666666667</ele><time>2026-05-02T09:58:57.594Z</time></trkpt><trkpt lat="46.1592793" lon="13.6134846"><ele>322.3333333333333</ele><time>2026-05-02T09:58:58.593Z</time></trkpt><trkpt lat="46.1593172" lon="13.6135992"><ele>324.0</ele><time>2026-05-02T09:58:59.595Z</time></trkpt><trkpt lat="46.1593523" lon="13.6137048"><ele>324.0</ele><time>2026-05-02T09:59:00.595Z</time></trkpt><trkpt lat="46.1593788" lon="13.6138054"><ele>324.0</ele><time>2026-05-02T09:59:01.595Z</time></trkpt><trkpt lat="46.1594046" lon="13.6138944"><ele>324.0</ele><time>2026-05-02T09:59:02.595Z</time></trkpt><trkpt lat="46.1594512" lon="13.6140579"><ele>324.0</ele><time>2026-05-02T09:59:04.596Z</time></trkpt><trkpt lat="46.1594733" lon="13.6141517"><ele>324.0</ele><time>2026-05-02T09:59:05.594Z</time></trkpt><trkpt lat="46.1594946" lon="13.614253"><ele>324.0</ele><time>2026-05-02T09:59:06.595Z</time></trkpt><trkpt lat="46.1595173" lon="13.6143544"><ele>324.0</ele><time>2026-05-02T09:59:07.594Z</time></trkpt><trkpt lat="46.1595462" lon="13.6144481"><ele>324.0</ele><time>2026-05-02T09:59:08.594Z</time></trkpt><trkpt lat="46.1595717" lon="13.6145383"><ele>324.0</ele><time>2026-05-02T09:59:09.594Z</time></trkpt><trkpt lat="46.1595945" lon="13.6146243"><ele>324.0</ele><time>2026-05-02T09:59:10.593Z</time></trkpt><trkpt lat="46.1596084" lon="13.6147149"><ele>324.0</ele><time>2026-05-02T09:59:11.594Z</time></trkpt><trkpt lat="46.1596138" lon="13.614806"><ele>324.0</ele><time>2026-05-02T09:59:12.595Z</time></trkpt><trkpt lat="46.1596146" lon="13.6148983"><ele>324.0</ele><time>2026-05-02T09:59:13.595Z</time></trkpt><trkpt lat="46.1596112" lon="13.6150797"><ele>322.0</ele><time>2026-05-02T09:59:15.593Z</time></trkpt><trkpt lat="46.1595935" lon="13.6152506"><ele>320.0</ele><time>2026-05-02T09:59:17.594Z</time></trkpt><trkpt lat="46.1595872" lon="13.6154225"><ele>318.0</ele><time>2026-05-02T09:59:19.594Z</time></trkpt><trkpt lat="46.1596206" lon="13.6155301"><ele>316.0</ele><time>2026-05-02T09:59:21.592Z</time></trkpt><trkpt lat="46.1596345" lon="13.6156309"><ele>314.0</ele><time>2026-05-02T09:59:23.594Z</time></trkpt><trkpt lat="46.1595595" lon="13.6156516"><ele>314.0</ele><time>2026-05-02T09:59:26.594Z</time></trkpt><trkpt lat="46.1594752" lon="13.6155976"><ele>314.0</ele><time>2026-05-02T09:59:28.593Z</time></trkpt><trkpt lat="46.159382" lon="13.6155734"><ele>314.0</ele><time>2026-05-02T09:59:30.594Z</time></trkpt><trkpt lat="46.1593206" lon="13.6154866"><ele>314.0</ele><time>2026-05-02T09:59:32.593Z</time></trkpt><trkpt lat="46.1593" lon="13.6153757"><ele>314.0</ele><time>2026-05-02T09:59:33.594Z</time></trkpt><trkpt lat="46.1592868" lon="13.6152313"><ele>314.0</ele><time>2026-05-02T09:59:34.594Z</time></trkpt><trkpt lat="46.1592603" lon="13.6150979"><ele>314.0</ele><time>2026-05-02T09:59:35.593Z</time></trkpt><trkpt lat="46.1592345" lon="13.6149727"><ele>314.0</ele><time>2026-05-02T09:59:36.593Z</time></trkpt><trkpt lat="46.1592145" lon="13.6148543"><ele>314.0</ele><time>2026-05-02T09:59:37.594Z</time></trkpt><trkpt lat="46.159195" lon="13.6147383"><ele>314.0</ele><time>2026-05-02T09:59:38.593Z</time></trkpt><trkpt lat="46.1591817" lon="13.6146317"><ele>314.0</ele><time>2026-05-02T09:59:39.593Z</time></trkpt><trkpt lat="46.1591683" lon="13.6145317"><ele>313.8</ele><time>2026-05-02T09:59:40.593Z</time></trkpt><trkpt lat="46.1591483" lon="13.6144267"><ele>313.59999999999997</ele><time>2026-05-02T09:59:41.594Z</time></trkpt><trkpt lat="46.159125" lon="13.6143"><ele>313.4</ele><time>2026-05-02T09:59:42.593Z</time></trkpt><trkpt lat="46.1590667" lon="13.6141733"><ele>313.2</ele><time>2026-05-02T09:59:43.593Z</time></trkpt><trkpt lat="46.1589983" lon="13.6140317"><ele>313.0</ele><time>2026-05-02T09:59:44.595Z</time></trkpt><trkpt lat="46.15892" lon="13.6138733"><ele>313.0</ele><time>2026-05-02T09:59:45.593Z</time></trkpt><trkpt lat="46.158835" lon="13.6137083"><ele>313.0</ele><time>2026-05-02T09:59:46.593Z</time></trkpt><trkpt lat="46.1587533" lon="13.6135233"><ele>313.0</ele><time>2026-05-02T09:59:47.594Z</time></trkpt><trkpt lat="46.1586717" lon="13.61333"><ele>312.75</ele><time>2026-05-02T09:59:48.593Z</time></trkpt><trkpt lat="46.158585" lon="13.6131467"><ele>312.5</ele><time>2026-05-02T09:59:49.594Z</time></trkpt><trkpt lat="46.1584933" lon="13.61299"><ele>312.25</ele><time>2026-05-02T09:59:50.594Z</time></trkpt><trkpt lat="46.1584217" lon="13.61282"><ele>312.0</ele><time>2026-05-02T09:59:51.594Z</time></trkpt><trkpt lat="46.158355" lon="13.6126533"><ele>312.5</ele><time>2026-05-02T09:59:52.593Z</time></trkpt><trkpt lat="46.1583017" lon="13.612485"><ele>313.0</ele><time>2026-05-02T09:59:53.593Z</time></trkpt><trkpt lat="46.1582617" lon="13.61231"><ele>313.5</ele><time>2026-05-02T09:59:54.593Z</time></trkpt><trkpt lat="46.1582367" lon="13.6121217"><ele>314.0</ele><time>2026-05-02T09:59:55.593Z</time></trkpt><trkpt lat="46.1582117" lon="13.6119333"><ele>319.5</ele><time>2026-05-02T09:59:56.593Z</time></trkpt><trkpt lat="46.1581517" lon="13.6117667"><ele>325.0</ele><time>2026-05-02T09:59:57.593Z</time></trkpt><trkpt lat="46.1581367" lon="13.6116033"><ele>330.5</ele><time>2026-05-02T09:59:58.593Z</time></trkpt><trkpt lat="46.1581267" lon="13.6114333"><ele>336.0</ele><time>2026-05-02T09:59:59.593Z</time></trkpt><trkpt lat="46.158185" lon="13.611245"><ele>330.25</ele><time>2026-05-02T10:00:00.594Z</time></trkpt><trkpt lat="46.15823" lon="13.6110367"><ele>324.5</ele><time>2026-05-02T10:00:01.593Z</time></trkpt><trkpt lat="46.158265" lon="13.61082"><ele>318.75</ele><time>2026-05-02T10:00:02.594Z</time></trkpt><trkpt lat="46.1583017" lon="13.6106217"><ele>313.0</ele><time>2026-05-02T10:00:03.593Z</time></trkpt><trkpt lat="46.158325" lon="13.6104383"><ele>312.25</ele><time>2026-05-02T10:00:04.594Z</time></trkpt><trkpt lat="46.1583233" lon="13.6102683"><ele>311.5</ele><time>2026-05-02T10:00:05.594Z</time></trkpt><trkpt lat="46.1582933" lon="13.6101017"><ele>310.75</ele><time>2026-05-02T10:00:06.594Z</time></trkpt><trkpt lat="46.1582467" lon="13.6099433"><ele>310.0</ele><time>2026-05-02T10:00:07.593Z</time></trkpt><trkpt lat="46.1581717" lon="13.6098017"><ele>311.25</ele><time>2026-05-02T10:00:08.595Z</time></trkpt><trkpt lat="46.158085" lon="13.6096867"><ele>312.5</ele><time>2026-05-02T10:00:09.593Z</time></trkpt><trkpt lat="46.157955" lon="13.6096333"><ele>313.75</ele><time>2026-05-02T10:00:10.593Z</time></trkpt><trkpt lat="46.1578533" lon="13.6095667"><ele>315.0</ele><time>2026-05-02T10:00:11.594Z</time></trkpt><trkpt lat="46.15777" lon="13.6094833"><ele>315.0</ele><time>2026-05-02T10:00:12.594Z</time></trkpt><trkpt lat="46.1577133" lon="13.609365"><ele>315.0</ele><time>2026-05-02T10:00:13.594Z</time></trkpt><trkpt lat="46.1576833" lon="13.6092017"><ele>315.0</ele><time>2026-05-02T10:00:14.594Z</time></trkpt><trkpt lat="46.1576517" lon="13.6090183"><ele>315.0</ele><time>2026-05-02T10:00:15.593Z</time></trkpt><trkpt lat="46.1576217" lon="13.608835"><ele>311.75</ele><time>2026-05-02T10:00:16.596Z</time></trkpt><trkpt lat="46.1576067" lon="13.6086517"><ele>308.5</ele><time>2026-05-02T10:00:17.595Z</time></trkpt><trkpt lat="46.1576033" lon="13.60848"><ele>305.25</ele><time>2026-05-02T10:00:18.594Z</time></trkpt><trkpt lat="46.1576533" lon="13.6083317"><ele>302.0</ele><time>2026-05-02T10:00:19.593Z</time></trkpt><trkpt lat="46.1576917" lon="13.60818"><ele>302.0</ele><time>2026-05-02T10:00:20.593Z</time></trkpt><trkpt lat="46.157755" lon="13.608045"><ele>302.0</ele><time>2026-05-02T10:00:21.593Z</time></trkpt><trkpt lat="46.15776" lon="13.6078967"><ele>302.0</ele><time>2026-05-02T10:00:22.594Z</time></trkpt><trkpt lat="46.1577483" lon="13.607735"><ele>302.0</ele><time>2026-05-02T10:00:23.593Z</time></trkpt><trkpt lat="46.1577267" lon="13.6075783"><ele>302.0</ele><time>2026-05-02T10:00:24.594Z</time></trkpt><trkpt lat="46.1576767" lon="13.6074217"><ele>301.0</ele><time>2026-05-02T10:00:25.593Z</time></trkpt><trkpt lat="46.1576" lon="13.6072783"><ele>300.0</ele><time>2026-05-02T10:00:26.594Z</time></trkpt><trkpt lat="46.1574833" lon="13.6071667"><ele>299.0</ele><time>2026-05-02T10:00:27.594Z</time></trkpt><trkpt lat="46.1573667" lon="13.6070517"><ele>298.0</ele><time>2026-05-02T10:00:28.593Z</time></trkpt><trkpt lat="46.15726" lon="13.6069317"><ele>298.0</ele><time>2026-05-02T10:00:29.593Z</time></trkpt><trkpt lat="46.1572017" lon="13.6067867"><ele>298.0</ele><time>2026-05-02T10:00:30.594Z</time></trkpt><trkpt lat="46.1571517" lon="13.606635"><ele>298.0</ele><time>2026-05-02T10:00:31.594Z</time></trkpt><trkpt lat="46.1571267" lon="13.6064383"><ele>298.0</ele><time>2026-05-02T10:00:32.594Z</time></trkpt><trkpt lat="46.1571117" lon="13.60622"><ele>294.0</ele><time>2026-05-02T10:00:33.593Z</time></trkpt><trkpt lat="46.1570833" lon="13.6060033"><ele>290.0</ele><time>2026-05-02T10:00:34.593Z</time></trkpt><trkpt lat="46.157045" lon="13.6057983"><ele>286.0</ele><time>2026-05-02T10:00:35.593Z</time></trkpt><trkpt lat="46.1570333" lon="13.6055783"><ele>286.0</ele><time>2026-05-02T10:00:36.594Z</time></trkpt><trkpt lat="46.15705" lon="13.6053517"><ele>286.0</ele><time>2026-05-02T10:00:37.594Z</time></trkpt><trkpt lat="46.1570417" lon="13.6051367"><ele>286.0</ele><time>2026-05-02T10:00:38.594Z</time></trkpt><trkpt lat="46.1569867" lon="13.6049467"><ele>286.0</ele><time>2026-05-02T10:00:39.594Z</time></trkpt><trkpt lat="46.1569217" lon="13.604775"><ele>286.0</ele><time>2026-05-02T10:00:40.596Z</time></trkpt><trkpt lat="46.1568633" lon="13.6046117"><ele>286.0</ele><time>2026-05-02T10:00:41.594Z</time></trkpt><trkpt lat="46.1567983" lon="13.6044517"><ele>286.0</ele><time>2026-05-02T10:00:42.593Z</time></trkpt><trkpt lat="46.1567433" lon="13.604295"><ele>286.0</ele><time>2026-05-02T10:00:43.594Z</time></trkpt><trkpt lat="46.156695" lon="13.60415"><ele>286.0</ele><time>2026-05-02T10:00:44.595Z</time></trkpt><trkpt lat="46.1566483" lon="13.604005"><ele>286.0</ele><time>2026-05-02T10:00:45.595Z</time></trkpt><trkpt lat="46.15661" lon="13.6038483"><ele>286.0</ele><time>2026-05-02T10:00:46.593Z</time></trkpt><trkpt lat="46.1565967" lon="13.6036867"><ele>287.0</ele><time>2026-05-02T10:00:47.593Z</time></trkpt><trkpt lat="46.1565917" lon="13.6035183"><ele>288.0</ele><time>2026-05-02T10:00:48.594Z</time></trkpt><trkpt lat="46.1565833" lon="13.603345"><ele>289.0</ele><time>2026-05-02T10:00:49.595Z</time></trkpt><trkpt lat="46.1565983" lon="13.6031633"><ele>290.0</ele><time>2026-05-02T10:00:50.593Z</time></trkpt><trkpt lat="46.1565933" lon="13.60299"><ele>289.25</ele><time>2026-05-02T10:00:51.593Z</time></trkpt><trkpt lat="46.1565917" lon="13.6028167"><ele>288.5</ele><time>2026-05-02T10:00:52.593Z</time></trkpt><trkpt lat="46.1566133" lon="13.6026267"><ele>287.75</ele><time>2026-05-02T10:00:53.594Z</time></trkpt><trkpt lat="46.1566217" lon="13.6024433"><ele>287.0</ele><time>2026-05-02T10:00:54.593Z</time></trkpt><trkpt lat="46.1566317" lon="13.6022783"><ele>287.0</ele><time>2026-05-02T10:00:55.595Z</time></trkpt><trkpt lat="46.1566583" lon="13.60212"><ele>287.0</ele><time>2026-05-02T10:00:56.594Z</time></trkpt><trkpt lat="46.1566833" lon="13.6019533"><ele>287.0</ele><time>2026-05-02T10:00:57.593Z</time></trkpt><trkpt lat="46.1567117" lon="13.6017883"><ele>287.0</ele><time>2026-05-02T10:00:58.595Z</time></trkpt><trkpt lat="46.156745" lon="13.6016267"><ele>285.5</ele><time>2026-05-02T10:00:59.594Z</time></trkpt><trkpt lat="46.1568033" lon="13.60147"><ele>284.0</ele><time>2026-05-02T10:01:00.594Z</time></trkpt><trkpt lat="46.1568567" lon="13.60132"><ele>282.5</ele><time>2026-05-02T10:01:01.594Z</time></trkpt><trkpt lat="46.156895" lon="13.6011583"><ele>281.0</ele><time>2026-05-02T10:01:02.595Z</time></trkpt><trkpt lat="46.1569183" lon="13.6009883"><ele>281.0</ele><time>2026-05-02T10:01:03.593Z</time></trkpt><trkpt lat="46.1569133" lon="13.600805"><ele>281.0</ele><time>2026-05-02T10:01:04.593Z</time></trkpt><trkpt lat="46.1569067" lon="13.6006217"><ele>281.0</ele><time>2026-05-02T10:01:05.593Z</time></trkpt><trkpt lat="46.156915" lon="13.6004367"><ele>281.0</ele><time>2026-05-02T10:01:06.594Z</time></trkpt><trkpt lat="46.1568933" lon="13.600255"><ele>280.75</ele><time>2026-05-02T10:01:07.595Z</time></trkpt><trkpt lat="46.1568417" lon="13.6000933"><ele>280.5</ele><time>2026-05-02T10:01:08.593Z</time></trkpt><trkpt lat="46.1567633" lon="13.5999417"><ele>280.25</ele><time>2026-05-02T10:01:09.593Z</time></trkpt><trkpt lat="46.15667" lon="13.5998117"><ele>280.0</ele><time>2026-05-02T10:01:10.594Z</time></trkpt><trkpt lat="46.15657" lon="13.5996883"><ele>285.25</ele><time>2026-05-02T10:01:11.594Z</time></trkpt><trkpt lat="46.15648" lon="13.5995583"><ele>290.5</ele><time>2026-05-02T10:01:12.593Z</time></trkpt><trkpt lat="46.1564217" lon="13.59938"><ele>295.75</ele><time>2026-05-02T10:01:13.593Z</time></trkpt><trkpt lat="46.1563733" lon="13.5991917"><ele>301.0</ele><time>2026-05-02T10:01:14.593Z</time></trkpt><trkpt lat="46.1563217" lon="13.5989817"><ele>300.25</ele><time>2026-05-02T10:01:15.593Z</time></trkpt><trkpt lat="46.1562617" lon="13.5987783"><ele>299.5</ele><time>2026-05-02T10:01:16.594Z</time></trkpt><trkpt lat="46.1562183" lon="13.5985767"><ele>298.75</ele><time>2026-05-02T10:01:17.593Z</time></trkpt><trkpt lat="46.15618" lon="13.5983817"><ele>298.0</ele><time>2026-05-02T10:01:18.594Z</time></trkpt><trkpt lat="46.1561367" lon="13.59819"><ele>298.0</ele><time>2026-05-02T10:01:19.594Z</time></trkpt><trkpt lat="46.1561233" lon="13.59798"><ele>298.0</ele><time>2026-05-02T10:01:20.595Z</time></trkpt><trkpt lat="46.1561183" lon="13.59777"><ele>298.0</ele><time>2026-05-02T10:01:21.595Z</time></trkpt><trkpt lat="46.156095" lon="13.59757"><ele>298.0</ele><time>2026-05-02T10:01:22.595Z</time></trkpt><trkpt lat="46.15608" lon="13.5973717"><ele>295.25</ele><time>2026-05-02T10:01:23.594Z</time></trkpt><trkpt lat="46.1560783" lon="13.5971883"><ele>292.5</ele><time>2026-05-02T10:01:24.594Z</time></trkpt><trkpt lat="46.1560733" lon="13.597025"><ele>289.75</ele><time>2026-05-02T10:01:25.594Z</time></trkpt><trkpt lat="46.1560933" lon="13.5968633"><ele>287.0</ele><time>2026-05-02T10:01:26.594Z</time></trkpt><trkpt lat="46.1560783" lon="13.5967067"><ele>286.6</ele><time>2026-05-02T10:01:27.594Z</time></trkpt><trkpt lat="46.1560483" lon="13.5965517"><ele>286.2</ele><time>2026-05-02T10:01:28.594Z</time></trkpt><trkpt lat="46.1560067" lon="13.5964033"><ele>285.8</ele><time>2026-05-02T10:01:29.594Z</time></trkpt><trkpt lat="46.1559717" lon="13.5962467"><ele>285.4</ele><time>2026-05-02T10:01:30.593Z</time></trkpt><trkpt lat="46.1559283" lon="13.5960967"><ele>285.0</ele><time>2026-05-02T10:01:31.593Z</time></trkpt><trkpt lat="46.15589" lon="13.59595"><ele>284.0</ele><time>2026-05-02T10:01:32.593Z</time></trkpt><trkpt lat="46.155865" lon="13.5958133"><ele>283.0</ele><time>2026-05-02T10:01:33.593Z</time></trkpt><trkpt lat="46.1558483" lon="13.59569"><ele>282.0</ele><time>2026-05-02T10:01:34.594Z</time></trkpt><trkpt lat="46.1558383" lon="13.5955783"><ele>281.0</ele><time>2026-05-02T10:01:35.594Z</time></trkpt><trkpt lat="46.155845" lon="13.5954717"><ele>280.0</ele><time>2026-05-02T10:01:36.593Z</time></trkpt><trkpt lat="46.155855" lon="13.5953683"><ele>279.0</ele><time>2026-05-02T10:01:37.594Z</time></trkpt><trkpt lat="46.1558683" lon="13.5952683"><ele>277.8</ele><time>2026-05-02T10:01:38.594Z</time></trkpt><trkpt lat="46.1558967" lon="13.5951533"><ele>276.59999999999997</ele><time>2026-05-02T10:01:39.594Z</time></trkpt><trkpt lat="46.155925" lon="13.5950317"><ele>275.4</ele><time>2026-05-02T10:01:40.593Z</time></trkpt><trkpt lat="46.1559667" lon="13.594905"><ele>274.2</ele><time>2026-05-02T10:01:41.593Z</time></trkpt><trkpt lat="46.156015" lon="13.5947717"><ele>273.0</ele><time>2026-05-02T10:01:42.593Z</time></trkpt><trkpt lat="46.1560667" lon="13.5946483"><ele>273.0</ele><time>2026-05-02T10:01:43.593Z</time></trkpt><trkpt lat="46.1561083" lon="13.5945283"><ele>273.0</ele><time>2026-05-02T10:01:44.594Z</time></trkpt><trkpt lat="46.1561367" lon="13.5944033"><ele>273.0</ele><time>2026-05-02T10:01:45.593Z</time></trkpt><trkpt lat="46.156165" lon="13.5942833"><ele>273.0</ele><time>2026-05-02T10:01:46.593Z</time></trkpt><trkpt lat="46.156185" lon="13.5941733"><ele>273.0</ele><time>2026-05-02T10:01:47.594Z</time></trkpt><trkpt lat="46.1561483" lon="13.59402"><ele>271.8</ele><time>2026-05-02T10:01:49.593Z</time></trkpt><trkpt lat="46.1561" lon="13.593875"><ele>270.6</ele><time>2026-05-02T10:01:51.593Z</time></trkpt><trkpt lat="46.15607" lon="13.5937117"><ele>269.4</ele><time>2026-05-02T10:01:53.595Z</time></trkpt><trkpt lat="46.15602" lon="13.593535"><ele>268.2</ele><time>2026-05-02T10:01:55.596Z</time></trkpt><trkpt lat="46.155995" lon="13.5934167"><ele>267.0</ele><time>2026-05-02T10:01:56.602Z</time></trkpt><trkpt lat="46.1559617" lon="13.593275"><ele>266.4</ele><time>2026-05-02T10:01:57.594Z</time></trkpt><trkpt lat="46.15594" lon="13.59312"><ele>265.79999999999995</ele><time>2026-05-02T10:01:58.593Z</time></trkpt><trkpt lat="46.1559317" lon="13.5929567"><ele>265.2</ele><time>2026-05-02T10:01:59.596Z</time></trkpt><trkpt lat="46.15592" lon="13.5927933"><ele>264.59999999999997</ele><time>2026-05-02T10:02:00.593Z</time></trkpt><trkpt lat="46.1559033" lon="13.5926367"><ele>264.0</ele><time>2026-05-02T10:02:01.594Z</time></trkpt><trkpt lat="46.1558783" lon="13.592475"><ele>264.0</ele><time>2026-05-02T10:02:02.593Z</time></trkpt><trkpt lat="46.15583" lon="13.592315"><ele>264.0</ele><time>2026-05-02T10:02:03.593Z</time></trkpt><trkpt lat="46.1557833" lon="13.59215"><ele>264.0</ele><time>2026-05-02T10:02:04.593Z</time></trkpt><trkpt lat="46.1557383" lon="13.59199"><ele>264.0</ele><time>2026-05-02T10:02:05.594Z</time></trkpt><trkpt lat="46.1557" lon="13.5918333"><ele>262.59999999999997</ele><time>2026-05-02T10:02:06.593Z</time></trkpt><trkpt lat="46.1556683" lon="13.591685"><ele>261.2</ele><time>2026-05-02T10:02:07.595Z</time></trkpt><trkpt lat="46.1556383" lon="13.59154"><ele>259.79999999999995</ele><time>2026-05-02T10:02:08.595Z</time></trkpt><trkpt lat="46.1556233" lon="13.5913883"><ele>258.4</ele><time>2026-05-02T10:02:09.594Z</time></trkpt><trkpt lat="46.1556117" lon="13.5912333"><ele>257.0</ele><time>2026-05-02T10:02:10.595Z</time></trkpt><trkpt lat="46.1555983" lon="13.5910767"><ele>256.8</ele><time>2026-05-02T10:02:11.594Z</time></trkpt><trkpt lat="46.155595" lon="13.5909233"><ele>256.6</ele><time>2026-05-02T10:02:12.593Z</time></trkpt><trkpt lat="46.1555867" lon="13.590765"><ele>256.40000000000003</ele><time>2026-05-02T10:02:13.595Z</time></trkpt><trkpt lat="46.1555783" lon="13.5906017"><ele>256.2</ele><time>2026-05-02T10:02:14.594Z</time></trkpt><trkpt lat="46.1555733" lon="13.5904317"><ele>256.0</ele><time>2026-05-02T10:02:15.593Z</time></trkpt><trkpt lat="46.1555717" lon="13.5902483"><ele>255.5</ele><time>2026-05-02T10:02:16.595Z</time></trkpt><trkpt lat="46.1555583" lon="13.5900467"><ele>255.0</ele><time>2026-05-02T10:02:17.593Z</time></trkpt><trkpt lat="46.15553" lon="13.589835"><ele>254.5</ele><time>2026-05-02T10:02:18.593Z</time></trkpt><trkpt lat="46.15549" lon="13.5896167"><ele>254.0</ele><time>2026-05-02T10:02:19.593Z</time></trkpt><trkpt lat="46.1554367" lon="13.58939"><ele>253.33333333333334</ele><time>2026-05-02T10:02:20.595Z</time></trkpt><trkpt lat="46.1553717" lon="13.589155"><ele>252.66666666666669</ele><time>2026-05-02T10:02:21.593Z</time></trkpt><trkpt lat="46.1553233" lon="13.5889183"><ele>252.0</ele><time>2026-05-02T10:02:22.594Z</time></trkpt><trkpt lat="46.1552767" lon="13.5887017"><ele>252.25</ele><time>2026-05-02T10:02:23.595Z</time></trkpt><trkpt lat="46.155235" lon="13.5885083"><ele>252.5</ele><time>2026-05-02T10:02:24.593Z</time></trkpt><trkpt lat="46.1552133" lon="13.588315"><ele>252.75</ele><time>2026-05-02T10:02:25.594Z</time></trkpt><trkpt lat="46.1552183" lon="13.5881133"><ele>253.0</ele><time>2026-05-02T10:02:26.594Z</time></trkpt><trkpt lat="46.1552567" lon="13.5878883"><ele>256.66666666666663</ele><time>2026-05-02T10:02:27.595Z</time></trkpt><trkpt lat="46.1553" lon="13.58767"><ele>260.3333333333333</ele><time>2026-05-02T10:02:28.593Z</time></trkpt><trkpt lat="46.155345" lon="13.5874633"><ele>264.0</ele><time>2026-05-02T10:02:29.594Z</time></trkpt><trkpt lat="46.155395" lon="13.587255"><ele>264.0</ele><time>2026-05-02T10:02:30.594Z</time></trkpt><trkpt lat="46.1554667" lon="13.5870567"><ele>264.0</ele><time>2026-05-02T10:02:31.594Z</time></trkpt><trkpt lat="46.1555583" lon="13.586865"><ele>264.0</ele><time>2026-05-02T10:02:32.594Z</time></trkpt><trkpt lat="46.1556717" lon="13.5866733"><ele>260.3333333333333</ele><time>2026-05-02T10:02:33.593Z</time></trkpt><trkpt lat="46.15578" lon="13.5864833"><ele>256.66666666666663</ele><time>2026-05-02T10:02:34.593Z</time></trkpt><trkpt lat="46.15588" lon="13.5862833"><ele>253.0</ele><time>2026-05-02T10:02:35.594Z</time></trkpt><trkpt lat="46.155975" lon="13.5860917"><ele>252.0</ele><time>2026-05-02T10:02:36.593Z</time></trkpt><trkpt lat="46.1560567" lon="13.5859033"><ele>251.0</ele><time>2026-05-02T10:02:37.593Z</time></trkpt><trkpt lat="46.1561433" lon="13.585745"><ele>250.0</ele><time>2026-05-02T10:02:38.594Z</time></trkpt><trkpt lat="46.156215" lon="13.5855867"><ele>249.0</ele><time>2026-05-02T10:02:39.597Z</time></trkpt><trkpt lat="46.1562983" lon="13.5854417"><ele>249.25</ele><time>2026-05-02T10:02:40.595Z</time></trkpt><trkpt lat="46.1563767" lon="13.58528"><ele>249.5</ele><time>2026-05-02T10:02:41.595Z</time></trkpt><trkpt lat="46.156455" lon="13.585115"><ele>249.75</ele><time>2026-05-02T10:02:42.593Z</time></trkpt><trkpt lat="46.1565" lon="13.5849117"><ele>250.0</ele><time>2026-05-02T10:02:43.594Z</time></trkpt><trkpt lat="46.1565517" lon="13.5847167"><ele>252.0</ele><time>2026-05-02T10:02:44.595Z</time></trkpt><trkpt lat="46.1566133" lon="13.5845533"><ele>254.0</ele><time>2026-05-02T10:02:45.598Z</time></trkpt><trkpt lat="46.1566817" lon="13.58442"><ele>256.0</ele><time>2026-05-02T10:02:46.593Z</time></trkpt><trkpt lat="46.1567433" lon="13.5843283"><ele>258.0</ele><time>2026-05-02T10:02:47.594Z</time></trkpt><trkpt lat="46.1567817" lon="13.5842267"><ele>260.0</ele><time>2026-05-02T10:02:48.593Z</time></trkpt><trkpt lat="46.1567917" lon="13.584115"><ele>260.0</ele><time>2026-05-02T10:02:49.593Z</time></trkpt><trkpt lat="46.15679" lon="13.5839933"><ele>260.0</ele><time>2026-05-02T10:02:50.594Z</time></trkpt><trkpt lat="46.156785" lon="13.5838633"><ele>260.0</ele><time>2026-05-02T10:02:51.594Z</time></trkpt><trkpt lat="46.1567833" lon="13.58372"><ele>260.0</ele><time>2026-05-02T10:02:52.594Z</time></trkpt><trkpt lat="46.1567917" lon="13.5835633"><ele>260.0</ele><time>2026-05-02T10:02:53.593Z</time></trkpt><trkpt lat="46.1567983" lon="13.5834133"><ele>260.4</ele><time>2026-05-02T10:02:54.594Z</time></trkpt><trkpt lat="46.1567867" lon="13.58328"><ele>260.8</ele><time>2026-05-02T10:02:55.594Z</time></trkpt><trkpt lat="46.15676" lon="13.5831383"><ele>261.2</ele><time>2026-05-02T10:02:56.594Z</time></trkpt><trkpt lat="46.1567317" lon="13.5829733"><ele>261.6</ele><time>2026-05-02T10:02:57.594Z</time></trkpt><trkpt lat="46.1566983" lon="13.5827883"><ele>262.0</ele><time>2026-05-02T10:02:58.594Z</time></trkpt><trkpt lat="46.1566517" lon="13.582595"><ele>260.66666666666663</ele><time>2026-05-02T10:02:59.594Z</time></trkpt><trkpt lat="46.1565967" lon="13.5823983"><ele>259.3333333333333</ele><time>2026-05-02T10:03:00.594Z</time></trkpt><trkpt lat="46.156545" lon="13.5821883"><ele>258.0</ele><time>2026-05-02T10:03:01.592Z</time></trkpt><trkpt lat="46.1564933" lon="13.5819783"><ele>258.0</ele><time>2026-05-02T10:03:02.595Z</time></trkpt><trkpt lat="46.15644" lon="13.5817917"><ele>258.0</ele><time>2026-05-02T10:03:03.594Z</time></trkpt><trkpt lat="46.156385" lon="13.581625"><ele>258.0</ele><time>2026-05-02T10:03:04.595Z</time></trkpt><trkpt lat="46.156345" lon="13.5814783"><ele>258.0</ele><time>2026-05-02T10:03:05.594Z</time></trkpt><trkpt lat="46.15633" lon="13.5813417"><ele>258.0</ele><time>2026-05-02T10:03:06.593Z</time></trkpt><trkpt lat="46.15632" lon="13.581235"><ele>258.0</ele><time>2026-05-02T10:03:07.594Z</time></trkpt><trkpt lat="46.1563667" lon="13.5811633"><ele>258.0</ele><time>2026-05-02T10:03:08.593Z</time></trkpt><trkpt lat="46.1564333" lon="13.5811117"><ele>258.0</ele><time>2026-05-02T10:03:09.592Z</time></trkpt><trkpt lat="46.1565167" lon="13.5810567"><ele>258.0</ele><time>2026-05-02T10:03:10.594Z</time></trkpt><trkpt lat="46.1566133" lon="13.5809967"><ele>258.0</ele><time>2026-05-02T10:03:11.594Z</time></trkpt><trkpt lat="46.1567267" lon="13.5809067"><ele>265.2</ele><time>2026-05-02T10:03:12.594Z</time></trkpt><trkpt lat="46.1568367" lon="13.58083"><ele>272.4</ele><time>2026-05-02T10:03:13.593Z</time></trkpt><trkpt lat="46.1569383" lon="13.5807633"><ele>279.59999999999997</ele><time>2026-05-02T10:03:14.593Z</time></trkpt><trkpt lat="46.15703" lon="13.5806917"><ele>286.8</ele><time>2026-05-02T10:03:15.594Z</time></trkpt><trkpt lat="46.15711" lon="13.580585"><ele>294.0</ele><time>2026-05-02T10:03:16.592Z</time></trkpt><trkpt lat="46.1571767" lon="13.5804767"><ele>294.0</ele><time>2026-05-02T10:03:17.594Z</time></trkpt><trkpt lat="46.15723" lon="13.5804"><ele>294.0</ele><time>2026-05-02T10:03:18.593Z</time></trkpt><trkpt lat="46.1572567" lon="13.5802933"><ele>294.0</ele><time>2026-05-02T10:03:20.593Z</time></trkpt><trkpt lat="46.15716" lon="13.5802583"><ele>294.0</ele><time>2026-05-02T10:03:22.593Z</time></trkpt><trkpt lat="46.1570517" lon="13.5802983"><ele>294.0</ele><time>2026-05-02T10:03:23.592Z</time></trkpt><trkpt lat="46.15694" lon="13.5803417"><ele>294.0</ele><time>2026-05-02T10:03:24.595Z</time></trkpt><trkpt lat="46.1568167" lon="13.5803267"><ele>294.0</ele><time>2026-05-02T10:03:25.593Z</time></trkpt><trkpt lat="46.1566883" lon="13.5803433"><ele>294.0</ele><time>2026-05-02T10:03:26.594Z</time></trkpt><trkpt lat="46.1565717" lon="13.5803517"><ele>294.0</ele><time>2026-05-02T10:03:27.592Z</time></trkpt><trkpt lat="46.1564633" lon="13.58035"><ele>293.0</ele><time>2026-05-02T10:03:28.594Z</time></trkpt><trkpt lat="46.1563617" lon="13.580325"><ele>292.0</ele><time>2026-05-02T10:03:29.594Z</time></trkpt><trkpt lat="46.1562717" lon="13.58028"><ele>291.0</ele><time>2026-05-02T10:03:30.593Z</time></trkpt><trkpt lat="46.1561833" lon="13.580225"><ele>290.0</ele><time>2026-05-02T10:03:31.593Z</time></trkpt><trkpt lat="46.1561183" lon="13.5801433"><ele>289.0</ele><time>2026-05-02T10:03:32.593Z</time></trkpt><trkpt lat="46.1560783" lon="13.5800517"><ele>289.0</ele><time>2026-05-02T10:03:33.593Z</time></trkpt><trkpt lat="46.15606" lon="13.5799333"><ele>289.0</ele><time>2026-05-02T10:03:34.593Z</time></trkpt><trkpt lat="46.1560417" lon="13.579795"><ele>289.0</ele><time>2026-05-02T10:03:35.593Z</time></trkpt><trkpt lat="46.15606" lon="13.5796"><ele>289.0</ele><time>2026-05-02T10:03:36.593Z</time></trkpt><trkpt lat="46.15606" lon="13.5794117"><ele>289.0</ele><time>2026-05-02T10:03:37.594Z</time></trkpt><trkpt lat="46.1560483" lon="13.5792183"><ele>289.2</ele><time>2026-05-02T10:03:38.594Z</time></trkpt><trkpt lat="46.15603" lon="13.5790333"><ele>289.4</ele><time>2026-05-02T10:03:39.593Z</time></trkpt><trkpt lat="46.1560067" lon="13.5788733"><ele>289.6</ele><time>2026-05-02T10:03:40.592Z</time></trkpt><trkpt lat="46.1559883" lon="13.5787483"><ele>289.8</ele><time>2026-05-02T10:03:41.593Z</time></trkpt><trkpt lat="46.1559767" lon="13.5786483"><ele>290.0</ele><time>2026-05-02T10:03:42.592Z</time></trkpt><trkpt lat="46.1560317" lon="13.5784883"><ele>290.0</ele><time>2026-05-02T10:03:44.593Z</time></trkpt><trkpt lat="46.156105" lon="13.5784017"><ele>290.0</ele><time>2026-05-02T10:03:45.593Z</time></trkpt><trkpt lat="46.1561933" lon="13.578305"><ele>290.0</ele><time>2026-05-02T10:03:46.593Z</time></trkpt><trkpt lat="46.1563033" lon="13.5782033"><ele>290.0</ele><time>2026-05-02T10:03:47.594Z</time></trkpt><trkpt lat="46.156425" lon="13.578095"><ele>298.25</ele><time>2026-05-02T10:03:48.594Z</time></trkpt><trkpt lat="46.1565417" lon="13.5779617"><ele>306.5</ele><time>2026-05-02T10:03:49.593Z</time></trkpt><trkpt lat="46.1566583" lon="13.577825"><ele>314.75</ele><time>2026-05-02T10:03:50.594Z</time></trkpt><trkpt lat="46.156775" lon="13.57771"><ele>323.0</ele><time>2026-05-02T10:03:51.594Z</time></trkpt><trkpt lat="46.156885" lon="13.5775933"><ele>323.0</ele><time>2026-05-02T10:03:52.592Z</time></trkpt><trkpt lat="46.1569867" lon="13.5774783"><ele>323.0</ele><time>2026-05-02T10:03:53.594Z</time></trkpt><trkpt lat="46.157075" lon="13.5773667"><ele>323.0</ele><time>2026-05-02T10:03:54.593Z</time></trkpt><trkpt lat="46.1571417" lon="13.5772567"><ele>323.0</ele><time>2026-05-02T10:03:55.594Z</time></trkpt><trkpt lat="46.1571967" lon="13.5771733"><ele>323.0</ele><time>2026-05-02T10:03:56.594Z</time></trkpt><trkpt lat="46.15722" lon="13.5770683"><ele>326.2</ele><time>2026-05-02T10:03:57.594Z</time></trkpt><trkpt lat="46.1572033" lon="13.5769417"><ele>329.4</ele><time>2026-05-02T10:03:58.592Z</time></trkpt><trkpt lat="46.1571783" lon="13.57681"><ele>332.59999999999997</ele><time>2026-05-02T10:03:59.593Z</time></trkpt><trkpt lat="46.1571417" lon="13.5766817"><ele>335.79999999999995</ele><time>2026-05-02T10:04:00.592Z</time></trkpt><trkpt lat="46.1570617" lon="13.5765833"><ele>339.0</ele><time>2026-05-02T10:04:01.593Z</time></trkpt><trkpt lat="46.15697" lon="13.5765283"><ele>339.0</ele><time>2026-05-02T10:04:02.593Z</time></trkpt><trkpt lat="46.1568517" lon="13.5764867"><ele>339.0</ele><time>2026-05-02T10:04:03.592Z</time></trkpt><trkpt lat="46.1567183" lon="13.5764483"><ele>339.0</ele><time>2026-05-02T10:04:04.594Z</time></trkpt><trkpt lat="46.1565867" lon="13.5764183"><ele>339.0</ele><time>2026-05-02T10:04:05.592Z</time></trkpt><trkpt lat="46.1564683" lon="13.576395"><ele>338.6666666666667</ele><time>2026-05-02T10:04:06.593Z</time></trkpt><trkpt lat="46.1563583" lon="13.57634"><ele>338.3333333333333</ele><time>2026-05-02T10:04:07.593Z</time></trkpt><trkpt lat="46.156265" lon="13.5762717"><ele>338.0</ele><time>2026-05-02T10:04:08.593Z</time></trkpt><trkpt lat="46.15619" lon="13.576225"><ele>337.66666666666663</ele><time>2026-05-02T10:04:09.593Z</time></trkpt><trkpt lat="46.1561383" lon="13.5761467"><ele>337.3333333333333</ele><time>2026-05-02T10:04:10.593Z</time></trkpt><trkpt lat="46.1561117" lon="13.5760517"><ele>337.0</ele><time>2026-05-02T10:04:11.593Z</time></trkpt><trkpt lat="46.156135" lon="13.5759083"><ele>337.0</ele><time>2026-05-02T10:04:12.592Z</time></trkpt><trkpt lat="46.156165" lon="13.5757533"><ele>337.0</ele><time>2026-05-02T10:04:13.594Z</time></trkpt><trkpt lat="46.1561717" lon="13.575605"><ele>337.0</ele><time>2026-05-02T10:04:14.593Z</time></trkpt><trkpt lat="46.1561767" lon="13.5754783"><ele>337.0</ele><time>2026-05-02T10:04:15.592Z</time></trkpt><trkpt lat="46.1561633" lon="13.5753833"><ele>337.0</ele><time>2026-05-02T10:04:16.594Z</time></trkpt><trkpt lat="46.15613" lon="13.5753"><ele>337.0</ele><time>2026-05-02T10:04:17.593Z</time></trkpt><trkpt lat="46.1560883" lon="13.5752233"><ele>335.40000000000003</ele><time>2026-05-02T10:04:18.594Z</time></trkpt><trkpt lat="46.1560083" lon="13.5751817"><ele>333.8</ele><time>2026-05-02T10:04:19.595Z</time></trkpt><trkpt lat="46.1558817" lon="13.5751717"><ele>332.2</ele><time>2026-05-02T10:04:20.594Z</time></trkpt><trkpt lat="46.155775" lon="13.5751467"><ele>330.6</ele><time>2026-05-02T10:04:21.593Z</time></trkpt><trkpt lat="46.1556867" lon="13.57507"><ele>329.0</ele><time>2026-05-02T10:04:22.593Z</time></trkpt><trkpt lat="46.1556183" lon="13.5749367"><ele>329.0</ele><time>2026-05-02T10:04:23.594Z</time></trkpt><trkpt lat="46.1555517" lon="13.5747967"><ele>329.0</ele><time>2026-05-02T10:04:24.593Z</time></trkpt><trkpt lat="46.1555017" lon="13.5746733"><ele>329.0</ele><time>2026-05-02T10:04:25.595Z</time></trkpt><trkpt lat="46.1554883" lon="13.5745433"><ele>329.0</ele><time>2026-05-02T10:04:26.595Z</time></trkpt><trkpt lat="46.1554983" lon="13.57441"><ele>329.0</ele><time>2026-05-02T10:04:27.595Z</time></trkpt><trkpt lat="46.155525" lon="13.5742617"><ele>330.25</ele><time>2026-05-02T10:04:28.594Z</time></trkpt><trkpt lat="46.15559" lon="13.5740933"><ele>331.5</ele><time>2026-05-02T10:04:29.594Z</time></trkpt><trkpt lat="46.1556333" lon="13.573915"><ele>332.75</ele><time>2026-05-02T10:04:30.593Z</time></trkpt><trkpt lat="46.155665" lon="13.573725"><ele>334.0</ele><time>2026-05-02T10:04:31.593Z</time></trkpt><trkpt lat="46.1557067" lon="13.5735367"><ele>344.0</ele><time>2026-05-02T10:04:32.595Z</time></trkpt><trkpt lat="46.1557567" lon="13.5733567"><ele>354.0</ele><time>2026-05-02T10:04:33.593Z</time></trkpt><trkpt lat="46.1558117" lon="13.57318"><ele>364.0</ele><time>2026-05-02T10:04:34.593Z</time></trkpt><trkpt lat="46.1558617" lon="13.5729933"><ele>374.0</ele><time>2026-05-02T10:04:35.593Z</time></trkpt><trkpt lat="46.1559017" lon="13.5727883"><ele>374.0</ele><time>2026-05-02T10:04:36.593Z</time></trkpt><trkpt lat="46.1559617" lon="13.5725883"><ele>374.0</ele><time>2026-05-02T10:04:37.593Z</time></trkpt><trkpt lat="46.1560167" lon="13.5724083"><ele>374.0</ele><time>2026-05-02T10:04:38.593Z</time></trkpt><trkpt lat="46.156035" lon="13.572235"><ele>374.0</ele><time>2026-05-02T10:04:39.594Z</time></trkpt><trkpt lat="46.1560517" lon="13.5720817"><ele>378.33333333333337</ele><time>2026-05-02T10:04:40.593Z</time></trkpt><trkpt lat="46.1560733" lon="13.5719517"><ele>382.6666666666667</ele><time>2026-05-02T10:04:41.593Z</time></trkpt><trkpt lat="46.1560667" lon="13.5718433"><ele>387.0</ele><time>2026-05-02T10:04:42.594Z</time></trkpt><trkpt lat="46.1560383" lon="13.5717517"><ele>391.33333333333337</ele><time>2026-05-02T10:04:43.594Z</time></trkpt><trkpt lat="46.1559317" lon="13.5716617"><ele>395.6666666666667</ele><time>2026-05-02T10:04:45.593Z</time></trkpt><trkpt lat="46.1558433" lon="13.5716567"><ele>400.0</ele><time>2026-05-02T10:04:46.595Z</time></trkpt><trkpt lat="46.155745" lon="13.5716667"><ele>400.0</ele><time>2026-05-02T10:04:47.593Z</time></trkpt><trkpt lat="46.1556633" lon="13.5716683"><ele>400.0</ele><time>2026-05-02T10:04:48.594Z</time></trkpt><trkpt lat="46.1555983" lon="13.57166"><ele>400.0</ele><time>2026-05-02T10:04:49.593Z</time></trkpt><trkpt lat="46.1556267" lon="13.5715417"><ele>400.0</ele><time>2026-05-02T10:04:52.594Z</time></trkpt><trkpt lat="46.155765" lon="13.571545"><ele>400.0</ele><time>2026-05-02T10:04:54.594Z</time></trkpt><trkpt lat="46.1558683" lon="13.571575"><ele>400.0</ele><time>2026-05-02T10:04:55.593Z</time></trkpt><trkpt lat="46.1559567" lon="13.5715333"><ele>400.0</ele><time>2026-05-02T10:04:56.593Z</time></trkpt><trkpt lat="46.1560417" lon="13.57155"><ele>400.0</ele><time>2026-05-02T10:04:57.594Z</time></trkpt><trkpt lat="46.1561183" lon="13.5716283"><ele>400.0</ele><time>2026-05-02T10:04:58.593Z</time></trkpt><trkpt lat="46.15617" lon="13.57175"><ele>400.0</ele><time>2026-05-02T10:04:59.594Z</time></trkpt><trkpt lat="46.1562117" lon="13.571905"><ele>394.8</ele><time>2026-05-02T10:05:00.593Z</time></trkpt><trkpt lat="46.1562517" lon="13.5720567"><ele>389.6</ele><time>2026-05-02T10:05:01.593Z</time></trkpt><trkpt lat="46.1562783" lon="13.5721917"><ele>384.4</ele><time>2026-05-02T10:05:02.594Z</time></trkpt><trkpt lat="46.1562833" lon="13.5723083"><ele>379.2</ele><time>2026-05-02T10:05:03.593Z</time></trkpt><trkpt lat="46.1563367" lon="13.5724217"><ele>374.0</ele><time>2026-05-02T10:05:05.595Z</time></trkpt><trkpt lat="46.1563933" lon="13.5723583"><ele>374.0</ele><time>2026-05-02T10:05:07.594Z</time></trkpt><trkpt lat="46.1563667" lon="13.5721483"><ele>374.0</ele><time>2026-05-02T10:05:09.594Z</time></trkpt><trkpt lat="46.15635" lon="13.57201"><ele>374.0</ele><time>2026-05-02T10:05:10.593Z</time></trkpt><trkpt lat="46.15634" lon="13.5718483"><ele>374.0</ele><time>2026-05-02T10:05:11.593Z</time></trkpt><trkpt lat="46.156325" lon="13.5716733"><ele>378.33333333333337</ele><time>2026-05-02T10:05:12.593Z</time></trkpt><trkpt lat="46.1563017" lon="13.5715133"><ele>382.6666666666667</ele><time>2026-05-02T10:05:13.593Z</time></trkpt><trkpt lat="46.1562767" lon="13.5713783"><ele>387.0</ele><time>2026-05-02T10:05:14.593Z</time></trkpt><trkpt lat="46.156255" lon="13.5712717"><ele>391.33333333333337</ele><time>2026-05-02T10:05:15.593Z</time></trkpt><trkpt lat="46.15621" lon="13.5711967"><ele>395.6666666666667</ele><time>2026-05-02T10:05:16.592Z</time></trkpt><trkpt lat="46.15615" lon="13.5711433"><ele>400.0</ele><time>2026-05-02T10:05:17.595Z</time></trkpt><trkpt lat="46.1560567" lon="13.5711283"><ele>404.0</ele><time>2026-05-02T10:05:18.594Z</time></trkpt><trkpt lat="46.1559433" lon="13.5711133"><ele>408.0</ele><time>2026-05-02T10:05:19.593Z</time></trkpt><trkpt lat="46.1558383" lon="13.5710917"><ele>412.0</ele><time>2026-05-02T10:05:20.593Z</time></trkpt><trkpt lat="46.1557383" lon="13.5710667"><ele>416.0</ele><time>2026-05-02T10:05:21.593Z</time></trkpt><trkpt lat="46.1556367" lon="13.5709883"><ele>420.0</ele><time>2026-05-02T10:05:22.596Z</time></trkpt><trkpt lat="46.155525" lon="13.5708883"><ele>420.0</ele><time>2026-05-02T10:05:23.595Z</time></trkpt><trkpt lat="46.155415" lon="13.5708267"><ele>420.0</ele><time>2026-05-02T10:05:24.595Z</time></trkpt><trkpt lat="46.155305" lon="13.5707883"><ele>420.0</ele><time>2026-05-02T10:05:25.594Z</time></trkpt><trkpt lat="46.1551917" lon="13.5707817"><ele>420.0</ele><time>2026-05-02T10:05:26.593Z</time></trkpt><trkpt lat="46.1550817" lon="13.5707417"><ele>420.0</ele><time>2026-05-02T10:05:27.592Z</time></trkpt><trkpt lat="46.1549767" lon="13.57066"><ele>420.0</ele><time>2026-05-02T10:05:28.594Z</time></trkpt><trkpt lat="46.1548733" lon="13.5705633"><ele>420.0</ele><time>2026-05-02T10:05:29.596Z</time></trkpt><trkpt lat="46.1547817" lon="13.5705183"><ele>420.0</ele><time>2026-05-02T10:05:30.594Z</time></trkpt><trkpt lat="46.1547267" lon="13.570445"><ele>420.0</ele><time>2026-05-02T10:05:31.594Z</time></trkpt><trkpt lat="46.15471" lon="13.5703417"><ele>420.0</ele><time>2026-05-02T10:05:33.593Z</time></trkpt><trkpt lat="46.154815" lon="13.5703883"><ele>420.0</ele><time>2026-05-02T10:05:35.595Z</time></trkpt><trkpt lat="46.1548783" lon="13.5704783"><ele>420.0</ele><time>2026-05-02T10:05:36.592Z</time></trkpt><trkpt lat="46.1549517" lon="13.5705733"><ele>420.0</ele><time>2026-05-02T10:05:37.593Z</time></trkpt><trkpt lat="46.155045" lon="13.570635"><ele>420.0</ele><time>2026-05-02T10:05:38.593Z</time></trkpt><trkpt lat="46.1551583" lon="13.5706467"><ele>420.0</ele><time>2026-05-02T10:05:39.593Z</time></trkpt><trkpt lat="46.1552767" lon="13.57063"><ele>420.0</ele><time>2026-05-02T10:05:40.593Z</time></trkpt><trkpt lat="46.1554033" lon="13.5705867"><ele>420.0</ele><time>2026-05-02T10:05:41.593Z</time></trkpt><trkpt lat="46.1555333" lon="13.5705367"><ele>420.0</ele><time>2026-05-02T10:05:42.593Z</time></trkpt><trkpt lat="46.155675" lon="13.570525"><ele>423.25</ele><time>2026-05-02T10:05:43.593Z</time></trkpt><trkpt lat="46.1558233" lon="13.57053"><ele>426.5</ele><time>2026-05-02T10:05:44.594Z</time></trkpt><trkpt lat="46.1559583" lon="13.5705517"><ele>429.75</ele><time>2026-05-02T10:05:45.594Z</time></trkpt><trkpt lat="46.1560717" lon="13.57054"><ele>433.0</ele><time>2026-05-02T10:05:46.594Z</time></trkpt><trkpt lat="46.156165" lon="13.5705583"><ele>433.00000000000006</ele><time>2026-05-02T10:05:47.594Z</time></trkpt><trkpt lat="46.1562417" lon="13.5705783"><ele>433.0</ele><time>2026-05-02T10:05:48.593Z</time></trkpt><trkpt lat="46.1563067" lon="13.57059"><ele>433.0</ele><time>2026-05-02T10:05:49.593Z</time></trkpt><trkpt lat="46.1563667" lon="13.570535"><ele>433.0</ele><time>2026-05-02T10:05:51.593Z</time></trkpt><trkpt lat="46.1562967" lon="13.5704367"><ele>433.00000000000006</ele><time>2026-05-02T10:05:53.593Z</time></trkpt><trkpt lat="46.1562283" lon="13.570415"><ele>433.0</ele><time>2026-05-02T10:05:54.594Z</time></trkpt><trkpt lat="46.156145" lon="13.570415"><ele>433.0</ele><time>2026-05-02T10:05:55.594Z</time></trkpt><trkpt lat="46.15605" lon="13.5703983"><ele>432.99999999999994</ele><time>2026-05-02T10:05:56.593Z</time></trkpt><trkpt lat="46.1559433" lon="13.5703467"><ele>432.99999999999994</ele><time>2026-05-02T10:05:57.593Z</time></trkpt><trkpt lat="46.1558317" lon="13.5702817"><ele>433.0</ele><time>2026-05-02T10:05:58.593Z</time></trkpt><trkpt lat="46.1557183" lon="13.57023"><ele>433.0</ele><time>2026-05-02T10:05:59.595Z</time></trkpt><trkpt lat="46.1556033" lon="13.5701917"><ele>434.59999999999997</ele><time>2026-05-02T10:06:00.593Z</time></trkpt><trkpt lat="46.1554983" lon="13.570155"><ele>436.19999999999993</ele><time>2026-05-02T10:06:01.595Z</time></trkpt><trkpt lat="46.1554083" lon="13.5701233"><ele>437.8</ele><time>2026-05-02T10:06:02.593Z</time></trkpt><trkpt lat="46.15535" lon="13.5700667"><ele>439.4</ele><time>2026-05-02T10:06:03.593Z</time></trkpt><trkpt lat="46.1553133" lon="13.5699767"><ele>441.0</ele><time>2026-05-02T10:06:05.594Z</time></trkpt><trkpt lat="46.155365" lon="13.5698233"><ele>441.0</ele><time>2026-05-02T10:06:07.594Z</time></trkpt><trkpt lat="46.1554117" lon="13.5697133"><ele>441.0</ele><time>2026-05-02T10:06:08.594Z</time></trkpt><trkpt lat="46.15546" lon="13.5695983"><ele>441.0</ele><time>2026-05-02T10:06:09.593Z</time></trkpt><trkpt lat="46.15552" lon="13.5694933"><ele>441.0</ele><time>2026-05-02T10:06:10.594Z</time></trkpt><trkpt lat="46.155585" lon="13.569385"><ele>441.0</ele><time>2026-05-02T10:06:11.594Z</time></trkpt><trkpt lat="46.15567" lon="13.56928"><ele>446.25</ele><time>2026-05-02T10:06:12.592Z</time></trkpt><trkpt lat="46.1557533" lon="13.5691517"><ele>451.5</ele><time>2026-05-02T10:06:13.594Z</time></trkpt><trkpt lat="46.1558283" lon="13.5690117"><ele>456.75</ele><time>2026-05-02T10:06:14.594Z</time></trkpt><trkpt lat="46.1559067" lon="13.5688883"><ele>462.0</ele><time>2026-05-02T10:06:15.593Z</time></trkpt><trkpt lat="46.1559733" lon="13.56877"><ele>457.6</ele><time>2026-05-02T10:06:16.593Z</time></trkpt><trkpt lat="46.15604" lon="13.56866"><ele>453.20000000000005</ele><time>2026-05-02T10:06:17.593Z</time></trkpt><trkpt lat="46.1561083" lon="13.56856"><ele>448.8</ele><time>2026-05-02T10:06:18.593Z</time></trkpt><trkpt lat="46.1561817" lon="13.5684667"><ele>444.4</ele><time>2026-05-02T10:06:19.593Z</time></trkpt><trkpt lat="46.15625" lon="13.568365"><ele>440.0</ele><time>2026-05-02T10:06:20.594Z</time></trkpt><trkpt lat="46.1563033" lon="13.5682667"><ele>439.99999999999994</ele><time>2026-05-02T10:06:21.593Z</time></trkpt><trkpt lat="46.1563483" lon="13.5681817"><ele>440.0</ele><time>2026-05-02T10:06:22.592Z</time></trkpt><trkpt lat="46.1563867" lon="13.568095"><ele>440.0</ele><time>2026-05-02T10:06:23.593Z</time></trkpt><trkpt lat="46.1564283" lon="13.5680117"><ele>440.0</ele><time>2026-05-02T10:06:24.594Z</time></trkpt><trkpt lat="46.1564717" lon="13.5679333"><ele>440.0</ele><time>2026-05-02T10:06:25.593Z</time></trkpt><trkpt lat="46.1565233" lon="13.5678567"><ele>439.99999999999994</ele><time>2026-05-02T10:06:26.595Z</time></trkpt><trkpt lat="46.1565783" lon="13.5677817"><ele>440.0</ele><time>2026-05-02T10:06:27.595Z</time></trkpt><trkpt lat="46.1566333" lon="13.5676967"><ele>444.49999999999994</ele><time>2026-05-02T10:06:28.594Z</time></trkpt><trkpt lat="46.1566933" lon="13.5676133"><ele>449.0</ele><time>2026-05-02T10:06:29.595Z</time></trkpt><trkpt lat="46.1567533" lon="13.5675317"><ele>453.5</ele><time>2026-05-02T10:06:30.594Z</time></trkpt><trkpt lat="46.1568133" lon="13.56745"><ele>458.0</ele><time>2026-05-02T10:06:31.595Z</time></trkpt><trkpt lat="46.1568717" lon="13.5673667"><ele>462.49999999999994</ele><time>2026-05-02T10:06:32.594Z</time></trkpt><trkpt lat="46.1569233" lon="13.5672717"><ele>467.0</ele><time>2026-05-02T10:06:33.594Z</time></trkpt><trkpt lat="46.156975" lon="13.5671767"><ele>466.99999999999994</ele><time>2026-05-02T10:06:34.594Z</time></trkpt><trkpt lat="46.1570267" lon="13.56709"><ele>467.0</ele><time>2026-05-02T10:06:35.595Z</time></trkpt><trkpt lat="46.157085" lon="13.56701"><ele>467.0</ele><time>2026-05-02T10:06:36.594Z</time></trkpt><trkpt lat="46.157135" lon="13.566935"><ele>467.0</ele><time>2026-05-02T10:06:37.594Z</time></trkpt><trkpt lat="46.1571833" lon="13.5668733"><ele>466.99999999999994</ele><time>2026-05-02T10:06:38.594Z</time></trkpt><trkpt lat="46.157239" lon="13.5667567"><ele>467.0</ele><time>2026-05-02T10:06:40.594Z</time></trkpt><trkpt lat="46.1572763" lon="13.5666046"><ele>464.8333333333333</ele><time>2026-05-02T10:06:42.594Z</time></trkpt><trkpt lat="46.1572972" lon="13.5665056"><ele>462.66666666666663</ele><time>2026-05-02T10:06:43.595Z</time></trkpt><trkpt lat="46.1573186" lon="13.5663945"><ele>460.5</ele><time>2026-05-02T10:06:44.596Z</time></trkpt><trkpt lat="46.1573458" lon="13.566291"><ele>458.33333333333337</ele><time>2026-05-02T10:06:45.595Z</time></trkpt><trkpt lat="46.1573768" lon="13.5661998"><ele>456.1666666666667</ele><time>2026-05-02T10:06:46.594Z</time></trkpt><trkpt lat="46.1574382" lon="13.5660808"><ele>454.0</ele><time>2026-05-02T10:06:48.594Z</time></trkpt><trkpt lat="46.1574376" lon="13.5659605"><ele>457.79999999999995</ele><time>2026-05-02T10:06:51.595Z</time></trkpt><trkpt lat="46.1573498" lon="13.5658899"><ele>461.59999999999997</ele><time>2026-05-02T10:06:53.595Z</time></trkpt><trkpt lat="46.157267" lon="13.5658225"><ele>465.4</ele><time>2026-05-02T10:06:55.595Z</time></trkpt><trkpt lat="46.1572259" lon="13.5657288"><ele>469.2</ele><time>2026-05-02T10:06:57.594Z</time></trkpt><trkpt lat="46.1572041" lon="13.5655961"><ele>473.0</ele><time>2026-05-02T10:06:59.596Z</time></trkpt><trkpt lat="46.1571412" lon="13.5654634"><ele>472.99999999999994</ele><time>2026-05-02T10:07:01.595Z</time></trkpt><trkpt lat="46.157091" lon="13.5654076"><ele>473.0</ele><time>2026-05-02T10:07:02.594Z</time></trkpt><trkpt lat="46.1570284" lon="13.5653489"><ele>473.0</ele><time>2026-05-02T10:07:03.595Z</time></trkpt><trkpt lat="46.1569631" lon="13.5652836"><ele>473.0</ele><time>2026-05-02T10:07:04.595Z</time></trkpt><trkpt lat="46.1569015" lon="13.5652197"><ele>472.99999999999994</ele><time>2026-05-02T10:07:05.594Z</time></trkpt><trkpt lat="46.1568401" lon="13.5651781"><ele>473.0</ele><time>2026-05-02T10:07:06.594Z</time></trkpt><trkpt lat="46.15672" lon="13.5651503"><ele>472.99999999999994</ele><time>2026-05-02T10:07:08.594Z</time></trkpt><trkpt lat="46.1566435" lon="13.5651564"><ele>473.0</ele><time>2026-05-02T10:07:09.594Z</time></trkpt><trkpt lat="46.1565608" lon="13.5651673"><ele>473.0</ele><time>2026-05-02T10:07:10.595Z</time></trkpt><trkpt lat="46.1564759" lon="13.5651798"><ele>473.0</ele><time>2026-05-02T10:07:11.595Z</time></trkpt><trkpt lat="46.1564081" lon="13.5651722"><ele>472.99999999999994</ele><time>2026-05-02T10:07:12.594Z</time></trkpt><trkpt lat="46.156311" lon="13.5651266"><ele>473.0</ele><time>2026-05-02T10:07:14.595Z</time></trkpt><trkpt lat="46.156223" lon="13.5650435"><ele>473.0</ele><time>2026-05-02T10:07:16.593Z</time></trkpt><trkpt lat="46.1561678" lon="13.5649983"><ele>473.0</ele><time>2026-05-02T10:07:17.595Z</time></trkpt><trkpt lat="46.1561031" lon="13.5649515"><ele>473.0</ele><time>2026-05-02T10:07:18.594Z</time></trkpt><trkpt lat="46.1560358" lon="13.5649004"><ele>473.0</ele><time>2026-05-02T10:07:19.594Z</time></trkpt><trkpt lat="46.1559709" lon="13.5648464"><ele>473.0</ele><time>2026-05-02T10:07:20.596Z</time></trkpt><trkpt lat="46.1559097" lon="13.5647874"><ele>473.0</ele><time>2026-05-02T10:07:21.594Z</time></trkpt><trkpt lat="46.1558547" lon="13.5647206"><ele>473.0</ele><time>2026-05-02T10:07:22.593Z</time></trkpt><trkpt lat="46.1558072" lon="13.5646529"><ele>472.99999999999994</ele><time>2026-05-02T10:07:23.594Z</time></trkpt><trkpt lat="46.1557517" lon="13.5644913"><ele>473.0</ele><time>2026-05-02T10:07:25.594Z</time></trkpt><trkpt lat="46.155736" lon="13.5643944"><ele>473.0</ele><time>2026-05-02T10:07:26.596Z</time></trkpt><trkpt lat="46.1557275" lon="13.564287"><ele>473.0</ele><time>2026-05-02T10:07:27.596Z</time></trkpt><trkpt lat="46.1557249" lon="13.564176"><ele>472.99999999999994</ele><time>2026-05-02T10:07:28.594Z</time></trkpt><trkpt lat="46.155729" lon="13.5640604"><ele>473.0</ele><time>2026-05-02T10:07:29.594Z</time></trkpt><trkpt lat="46.1557416" lon="13.563943"><ele>472.99999999999994</ele><time>2026-05-02T10:07:30.593Z</time></trkpt><trkpt lat="46.1557569" lon="13.5638199"><ele>473.0</ele><time>2026-05-02T10:07:31.593Z</time></trkpt><trkpt lat="46.155766" lon="13.5636949"><ele>473.0</ele><time>2026-05-02T10:07:32.596Z</time></trkpt><trkpt lat="46.1557696" lon="13.563572"><ele>473.0</ele><time>2026-05-02T10:07:33.594Z</time></trkpt><trkpt lat="46.1557674" lon="13.5634492"><ele>472.99999999999994</ele><time>2026-05-02T10:07:34.593Z</time></trkpt><trkpt lat="46.1557607" lon="13.5633334"><ele>473.0</ele><time>2026-05-02T10:07:35.593Z</time></trkpt><trkpt lat="46.155752" lon="13.5632314"><ele>473.0</ele><time>2026-05-02T10:07:36.594Z</time></trkpt><trkpt lat="46.1557444" lon="13.5631391"><ele>472.99999999999994</ele><time>2026-05-02T10:07:37.594Z</time></trkpt><trkpt lat="46.1557596" lon="13.5629577"><ele>472.99999999999994</ele><time>2026-05-02T10:07:39.593Z</time></trkpt><trkpt lat="46.1557709" lon="13.5628646"><ele>473.0</ele><time>2026-05-02T10:07:40.594Z</time></trkpt><trkpt lat="46.1557731" lon="13.5626888"><ele>473.0</ele><time>2026-05-02T10:07:42.594Z</time></trkpt><trkpt lat="46.1557585" lon="13.5625836"><ele>478.14285714285717</ele><time>2026-05-02T10:07:43.593Z</time></trkpt><trkpt lat="46.1557363" lon="13.5624785"><ele>483.2857142857142</ele><time>2026-05-02T10:07:44.596Z</time></trkpt><trkpt lat="46.1557151" lon="13.5623765"><ele>488.4285714285714</ele><time>2026-05-02T10:07:45.593Z</time></trkpt><trkpt lat="46.1556948" lon="13.5622729"><ele>493.57142857142856</ele><time>2026-05-02T10:07:46.593Z</time></trkpt><trkpt lat="46.1556753" lon="13.5621736"><ele>498.71428571428567</ele><time>2026-05-02T10:07:47.593Z</time></trkpt><trkpt lat="46.1556609" lon="13.56208"><ele>503.8571428571428</ele><time>2026-05-02T10:07:48.593Z</time></trkpt><trkpt lat="46.1556556" lon="13.561983"><ele>508.99999999999994</ele><time>2026-05-02T10:07:49.593Z</time></trkpt><trkpt lat="46.1556543" lon="13.5618775"><ele>508.99999999999994</ele><time>2026-05-02T10:07:50.593Z</time></trkpt><trkpt lat="46.1556481" lon="13.5617627"><ele>509.0</ele><time>2026-05-02T10:07:51.594Z</time></trkpt><trkpt lat="46.1556373" lon="13.5616478"><ele>509.0</ele><time>2026-05-02T10:07:52.593Z</time></trkpt><trkpt lat="46.1556219" lon="13.5615416"><ele>509.0</ele><time>2026-05-02T10:07:53.594Z</time></trkpt><trkpt lat="46.1556079" lon="13.5614478"><ele>508.99999999999994</ele><time>2026-05-02T10:07:54.594Z</time></trkpt><trkpt lat="46.1556022" lon="13.5612997"><ele>509.0</ele><time>2026-05-02T10:07:56.594Z</time></trkpt><trkpt lat="46.1555943" lon="13.5611952"><ele>509.0</ele><time>2026-05-02T10:07:59.594Z</time></trkpt><trkpt lat="46.155514" lon="13.5611754"><ele>509.0</ele><time>2026-05-02T10:08:02.594Z</time></trkpt><trkpt lat="46.1554434" lon="13.5612037"><ele>509.0</ele><time>2026-05-02T10:08:04.595Z</time></trkpt><trkpt lat="46.1553635" lon="13.5612757"><ele>509.0</ele><time>2026-05-02T10:08:06.593Z</time></trkpt><trkpt lat="46.1552732" lon="13.5613653"><ele>509.0</ele><time>2026-05-02T10:08:08.594Z</time></trkpt><trkpt lat="46.1551674" lon="13.5614541"><ele>509.0</ele><time>2026-05-02T10:08:10.593Z</time></trkpt><trkpt lat="46.1550646" lon="13.5615203"><ele>509.0</ele><time>2026-05-02T10:08:12.594Z</time></trkpt><trkpt lat="46.1549588" lon="13.5615622"><ele>509.0</ele><time>2026-05-02T10:08:14.595Z</time></trkpt><trkpt lat="46.1548482" lon="13.5615883"><ele>509.0</ele><time>2026-05-02T10:08:16.596Z</time></trkpt><trkpt lat="46.1547282" lon="13.5616384"><ele>509.8333333333333</ele><time>2026-05-02T10:08:18.593Z</time></trkpt><trkpt lat="46.1546694" lon="13.5616764"><ele>510.66666666666663</ele><time>2026-05-02T10:08:19.594Z</time></trkpt><trkpt lat="46.1546057" lon="13.5617186"><ele>511.5</ele><time>2026-05-02T10:08:20.595Z</time></trkpt><trkpt lat="46.1545283" lon="13.56177"><ele>512.3333333333334</ele><time>2026-05-02T10:08:21.595Z</time></trkpt><trkpt lat="46.15446" lon="13.5618033"><ele>513.1666666666667</ele><time>2026-05-02T10:08:22.596Z</time></trkpt><trkpt lat="46.154395" lon="13.5618383"><ele>514.0</ele><time>2026-05-02T10:08:23.596Z</time></trkpt><trkpt lat="46.154275" lon="13.5619117"><ele>514.0</ele><time>2026-05-02T10:08:25.595Z</time></trkpt><trkpt lat="46.1542183" lon="13.5619517"><ele>514.0</ele><time>2026-05-02T10:08:26.595Z</time></trkpt><trkpt lat="46.1541233" lon="13.5620083"><ele>514.0</ele><time>2026-05-02T10:08:28.592Z</time></trkpt><trkpt lat="46.154025" lon="13.56209"><ele>514.0</ele><time>2026-05-02T10:08:30.592Z</time></trkpt><trkpt lat="46.15392" lon="13.5621567"><ele>514.0</ele><time>2026-05-02T10:08:32.593Z</time></trkpt><trkpt lat="46.1538133" lon="13.5622167"><ele>507.4</ele><time>2026-05-02T10:08:34.593Z</time></trkpt><trkpt lat="46.1537117" lon="13.5622667"><ele>500.79999999999995</ele><time>2026-05-02T10:08:36.594Z</time></trkpt><trkpt lat="46.1536217" lon="13.562315"><ele>494.20000000000005</ele><time>2026-05-02T10:08:38.594Z</time></trkpt><trkpt lat="46.153545" lon="13.5623483"><ele>487.6</ele><time>2026-05-02T10:08:40.593Z</time></trkpt><trkpt lat="46.1534367" lon="13.5623683"><ele>481.0</ele><time>2026-05-02T10:08:42.594Z</time></trkpt><trkpt lat="46.1533633" lon="13.562375"><ele>480.99999999999994</ele><time>2026-05-02T10:08:43.593Z</time></trkpt><trkpt lat="46.1532933" lon="13.5623767"><ele>481.0</ele><time>2026-05-02T10:08:44.594Z</time></trkpt><trkpt lat="46.1532283" lon="13.562375"><ele>480.99999999999994</ele><time>2026-05-02T10:08:45.592Z</time></trkpt><trkpt lat="46.1531517" lon="13.562385"><ele>480.99999999999994</ele><time>2026-05-02T10:08:46.592Z</time></trkpt><trkpt lat="46.1530783" lon="13.5623917"><ele>481.0</ele><time>2026-05-02T10:08:47.595Z</time></trkpt><trkpt lat="46.1530117" lon="13.5623933"><ele>480.99999999999994</ele><time>2026-05-02T10:08:48.593Z</time></trkpt><trkpt lat="46.1529483" lon="13.5623933"><ele>480.99999999999994</ele><time>2026-05-02T10:08:49.596Z</time></trkpt><trkpt lat="46.1528317" lon="13.5623283"><ele>454.14285714285705</ele><time>2026-05-02T10:08:51.593Z</time></trkpt><trkpt lat="46.152765" lon="13.5622883"><ele>427.2857142857143</ele><time>2026-05-02T10:08:52.594Z</time></trkpt><trkpt lat="46.1526933" lon="13.5622467"><ele>400.4285714285714</ele><time>2026-05-02T10:08:53.593Z</time></trkpt><trkpt lat="46.15263" lon="13.562185"><ele>373.57142857142856</ele><time>2026-05-02T10:08:54.592Z</time></trkpt><trkpt lat="46.1525717" lon="13.5621133"><ele>346.71428571428567</ele><time>2026-05-02T10:08:55.593Z</time></trkpt><trkpt lat="46.152515" lon="13.5620367"><ele>319.85714285714283</ele><time>2026-05-02T10:08:56.594Z</time></trkpt><trkpt lat="46.152465" lon="13.56197"><ele>293.0</ele><time>2026-05-02T10:08:57.593Z</time></trkpt><trkpt lat="46.1524017" lon="13.56184"><ele>290.0</ele><time>2026-05-02T10:08:59.594Z</time></trkpt><trkpt lat="46.152345" lon="13.561665"><ele>287.0</ele><time>2026-05-02T10:09:01.593Z</time></trkpt><trkpt lat="46.1523133" lon="13.5615567"><ele>284.0</ele><time>2026-05-02T10:09:02.593Z</time></trkpt><trkpt lat="46.1522833" lon="13.56144"><ele>281.0</ele><time>2026-05-02T10:09:03.593Z</time></trkpt><trkpt lat="46.1522617" lon="13.5613233"><ele>278.0</ele><time>2026-05-02T10:09:04.593Z</time></trkpt><trkpt lat="46.1522383" lon="13.5612233"><ele>288.2</ele><time>2026-05-02T10:09:05.595Z</time></trkpt><trkpt lat="46.1522183" lon="13.5610533"><ele>298.4</ele><time>2026-05-02T10:09:07.593Z</time></trkpt><trkpt lat="46.1521983" lon="13.5608767"><ele>308.59999999999997</ele><time>2026-05-02T10:09:09.592Z</time></trkpt><trkpt lat="46.1521817" lon="13.5607033"><ele>318.8</ele><time>2026-05-02T10:09:11.593Z</time></trkpt><trkpt lat="46.1521817" lon="13.5606067"><ele>329.0</ele><time>2026-05-02T10:09:12.593Z</time></trkpt><trkpt lat="46.152175" lon="13.560505"><ele>329.0</ele><time>2026-05-02T10:09:13.593Z</time></trkpt><trkpt lat="46.1521667" lon="13.560405"><ele>329.0</ele><time>2026-05-02T10:09:14.594Z</time></trkpt><trkpt lat="46.1521617" lon="13.5603017"><ele>329.0</ele><time>2026-05-02T10:09:15.594Z</time></trkpt><trkpt lat="46.1521483" lon="13.5601867"><ele>329.0</ele><time>2026-05-02T10:09:16.592Z</time></trkpt><trkpt lat="46.1521367" lon="13.5600767"><ele>329.0</ele><time>2026-05-02T10:09:17.593Z</time></trkpt><trkpt lat="46.152125" lon="13.55998"><ele>329.0</ele><time>2026-05-02T10:09:18.595Z</time></trkpt><trkpt lat="46.15211" lon="13.5598817"><ele>329.0</ele><time>2026-05-02T10:09:19.594Z</time></trkpt><trkpt lat="46.15209" lon="13.5597667"><ele>335.0</ele><time>2026-05-02T10:09:20.594Z</time></trkpt><trkpt lat="46.1520733" lon="13.559665"><ele>341.0</ele><time>2026-05-02T10:09:21.593Z</time></trkpt><trkpt lat="46.15207" lon="13.5595633"><ele>347.0</ele><time>2026-05-02T10:09:22.595Z</time></trkpt><trkpt lat="46.1520533" lon="13.55945"><ele>353.0</ele><time>2026-05-02T10:09:23.596Z</time></trkpt><trkpt lat="46.1520433" lon="13.559335"><ele>359.0</ele><time>2026-05-02T10:09:24.594Z</time></trkpt><trkpt lat="46.1520367" lon="13.5592233"><ele>365.0</ele><time>2026-05-02T10:09:25.593Z</time></trkpt><trkpt lat="46.1520417" lon="13.5591283"><ele>371.0</ele><time>2026-05-02T10:09:26.595Z</time></trkpt><trkpt lat="46.1520617" lon="13.55904"><ele>379.6</ele><time>2026-05-02T10:09:27.593Z</time></trkpt><trkpt lat="46.1520883" lon="13.5589367"><ele>388.20000000000005</ele><time>2026-05-02T10:09:28.593Z</time></trkpt><trkpt lat="46.1521283" lon="13.558815"><ele>396.79999999999995</ele><time>2026-05-02T10:09:29.594Z</time></trkpt><trkpt lat="46.1521767" lon="13.5586767"><ele>405.4</ele><time>2026-05-02T10:09:30.594Z</time></trkpt><trkpt lat="46.1522167" lon="13.5585283"><ele>414.0</ele><time>2026-05-02T10:09:31.594Z</time></trkpt><trkpt lat="46.1522567" lon="13.55839"><ele>414.0</ele><time>2026-05-02T10:09:32.593Z</time></trkpt><trkpt lat="46.1522983" lon="13.5582667"><ele>414.0</ele><time>2026-05-02T10:09:33.592Z</time></trkpt><trkpt lat="46.1523317" lon="13.5581533"><ele>414.0</ele><time>2026-05-02T10:09:34.596Z</time></trkpt><trkpt lat="46.1523617" lon="13.5580583"><ele>414.0</ele><time>2026-05-02T10:09:35.594Z</time></trkpt><trkpt lat="46.15238" lon="13.557915"><ele>414.0</ele><time>2026-05-02T10:09:37.594Z</time></trkpt><trkpt lat="46.15236" lon="13.5577867"><ele>414.0</ele><time>2026-05-02T10:09:39.594Z</time></trkpt><trkpt lat="46.15232" lon="13.5577017"><ele>414.0</ele><time>2026-05-02T10:09:40.593Z</time></trkpt><trkpt lat="46.152265" lon="13.5576067"><ele>414.0</ele><time>2026-05-02T10:09:41.593Z</time></trkpt><trkpt lat="46.1522067" lon="13.5575217"><ele>414.0</ele><time>2026-05-02T10:09:42.593Z</time></trkpt><trkpt lat="46.1521517" lon="13.55744"><ele>414.0</ele><time>2026-05-02T10:09:43.593Z</time></trkpt><trkpt lat="46.1520983" lon="13.5573633"><ele>414.0</ele><time>2026-05-02T10:09:44.596Z</time></trkpt><trkpt lat="46.1520517" lon="13.5572817"><ele>414.0</ele><time>2026-05-02T10:09:45.593Z</time></trkpt><trkpt lat="46.1520067" lon="13.5572"><ele>418.8571428571429</ele><time>2026-05-02T10:09:46.592Z</time></trkpt><trkpt lat="46.1519617" lon="13.5571217"><ele>423.7142857142857</ele><time>2026-05-02T10:09:47.594Z</time></trkpt><trkpt lat="46.15192" lon="13.557045"><ele>428.57142857142856</ele><time>2026-05-02T10:09:48.592Z</time></trkpt><trkpt lat="46.1518867" lon="13.55696"><ele>433.42857142857144</ele><time>2026-05-02T10:09:49.593Z</time></trkpt><trkpt lat="46.15186" lon="13.5568683"><ele>438.2857142857143</ele><time>2026-05-02T10:09:50.595Z</time></trkpt><trkpt lat="46.1518383" lon="13.5567667"><ele>443.14285714285717</ele><time>2026-05-02T10:09:51.594Z</time></trkpt><trkpt lat="46.1518183" lon="13.5566633"><ele>448.0</ele><time>2026-05-02T10:09:52.593Z</time></trkpt><trkpt lat="46.1518033" lon="13.5565617"><ele>448.00000000000006</ele><time>2026-05-02T10:09:53.594Z</time></trkpt><trkpt lat="46.1517917" lon="13.55645"><ele>448.0</ele><time>2026-05-02T10:09:54.593Z</time></trkpt><trkpt lat="46.15177" lon="13.5563333"><ele>448.0</ele><time>2026-05-02T10:09:55.593Z</time></trkpt><trkpt lat="46.1517483" lon="13.55621"><ele>448.0</ele><time>2026-05-02T10:09:56.594Z</time></trkpt><trkpt lat="46.1517283" lon="13.5560917"><ele>448.00000000000006</ele><time>2026-05-02T10:09:57.593Z</time></trkpt><trkpt lat="46.1517133" lon="13.555985"><ele>448.0</ele><time>2026-05-02T10:09:58.593Z</time></trkpt><trkpt lat="46.1517" lon="13.55589"><ele>445.4</ele><time>2026-05-02T10:09:59.593Z</time></trkpt><trkpt lat="46.1516833" lon="13.555735"><ele>442.79999999999995</ele><time>2026-05-02T10:10:01.594Z</time></trkpt><trkpt lat="46.1516867" lon="13.5555583"><ele>440.2</ele><time>2026-05-02T10:10:03.593Z</time></trkpt><trkpt lat="46.1517117" lon="13.5554667"><ele>437.6</ele><time>2026-05-02T10:10:04.593Z</time></trkpt><trkpt lat="46.15175" lon="13.55538"><ele>435.0</ele><time>2026-05-02T10:10:05.593Z</time></trkpt><trkpt lat="46.1518067" lon="13.555285"><ele>433.8</ele><time>2026-05-02T10:10:06.593Z</time></trkpt><trkpt lat="46.151875" lon="13.55518"><ele>432.6</ele><time>2026-05-02T10:10:07.595Z</time></trkpt><trkpt lat="46.1519367" lon="13.5550717"><ele>431.4</ele><time>2026-05-02T10:10:08.594Z</time></trkpt><trkpt lat="46.15198" lon="13.554935"><ele>430.2</ele><time>2026-05-02T10:10:09.593Z</time></trkpt><trkpt lat="46.1520217" lon="13.554785"><ele>429.0</ele><time>2026-05-02T10:10:10.593Z</time></trkpt><trkpt lat="46.1520633" lon="13.5546467"><ele>426.0</ele><time>2026-05-02T10:10:11.595Z</time></trkpt><trkpt lat="46.152095" lon="13.5545117"><ele>423.0</ele><time>2026-05-02T10:10:12.593Z</time></trkpt><trkpt lat="46.152125" lon="13.5543867"><ele>420.0</ele><time>2026-05-02T10:10:13.593Z</time></trkpt><trkpt lat="46.1521567" lon="13.55428"><ele>417.0</ele><time>2026-05-02T10:10:14.593Z</time></trkpt><trkpt lat="46.1521967" lon="13.5541833"><ele>414.0</ele><time>2026-05-02T10:10:15.593Z</time></trkpt><trkpt lat="46.1522283" lon="13.55408"><ele>411.0</ele><time>2026-05-02T10:10:16.594Z</time></trkpt><trkpt lat="46.1522633" lon="13.553975"><ele>411.0</ele><time>2026-05-02T10:10:17.594Z</time></trkpt><trkpt lat="46.1523067" lon="13.5538617"><ele>411.0</ele><time>2026-05-02T10:10:18.593Z</time></trkpt><trkpt lat="46.1523583" lon="13.5537467"><ele>411.0</ele><time>2026-05-02T10:10:19.594Z</time></trkpt><trkpt lat="46.15241" lon="13.5536383"><ele>411.0</ele><time>2026-05-02T10:10:20.595Z</time></trkpt><trkpt lat="46.1524583" lon="13.5535367"><ele>411.0</ele><time>2026-05-02T10:10:21.593Z</time></trkpt><trkpt lat="46.1525083" lon="13.553465"><ele>411.0</ele><time>2026-05-02T10:10:22.594Z</time></trkpt><trkpt lat="46.1525967" lon="13.5533617"><ele>413.20000000000005</ele><time>2026-05-02T10:10:24.594Z</time></trkpt><trkpt lat="46.1526817" lon="13.55329"><ele>415.40000000000003</ele><time>2026-05-02T10:10:26.595Z</time></trkpt><trkpt lat="46.1527083" lon="13.5532067"><ele>417.6</ele><time>2026-05-02T10:10:28.594Z</time></trkpt><trkpt lat="46.1526733" lon="13.5530483"><ele>419.8</ele><time>2026-05-02T10:10:30.593Z</time></trkpt><trkpt lat="46.152645" lon="13.5529633"><ele>422.0</ele><time>2026-05-02T10:10:31.593Z</time></trkpt><trkpt lat="46.15262" lon="13.5528033"><ele>422.0</ele><time>2026-05-02T10:10:33.594Z</time></trkpt><trkpt lat="46.1526567" lon="13.5526383"><ele>422.0</ele><time>2026-05-02T10:10:35.595Z</time></trkpt><trkpt lat="46.1526883" lon="13.552555"><ele>422.0</ele><time>2026-05-02T10:10:36.594Z</time></trkpt><trkpt lat="46.1527359" lon="13.5523987"><ele>422.0</ele><time>2026-05-02T10:10:38.593Z</time></trkpt><trkpt lat="46.1527294" lon="13.5522407"><ele>422.0</ele><time>2026-05-02T10:10:40.593Z</time></trkpt><trkpt lat="46.1526913" lon="13.5521495"><ele>421.99999999999994</ele><time>2026-05-02T10:10:41.593Z</time></trkpt><trkpt lat="46.1526524" lon="13.5520594"><ele>422.0</ele><time>2026-05-02T10:10:42.593Z</time></trkpt><trkpt lat="46.1526123" lon="13.5519715"><ele>422.0</ele><time>2026-05-02T10:10:43.593Z</time></trkpt><trkpt lat="46.1525706" lon="13.5518873"><ele>422.0</ele><time>2026-05-02T10:10:44.596Z</time></trkpt><trkpt lat="46.1525411" lon="13.5518059"><ele>421.99999999999994</ele><time>2026-05-02T10:10:45.593Z</time></trkpt><trkpt lat="46.1525128" lon="13.5517228"><ele>422.0</ele><time>2026-05-02T10:10:46.594Z</time></trkpt><trkpt lat="46.15245" lon="13.5515856"><ele>421.3333333333333</ele><time>2026-05-02T10:10:48.594Z</time></trkpt><trkpt lat="46.1523728" lon="13.5515269"><ele>420.66666666666663</ele><time>2026-05-02T10:10:50.593Z</time></trkpt><trkpt lat="46.1522818" lon="13.5514617"><ele>420.0</ele><time>2026-05-02T10:10:52.594Z</time></trkpt><trkpt lat="46.1521885" lon="13.5513487"><ele>419.33333333333337</ele><time>2026-05-02T10:10:54.593Z</time></trkpt><trkpt lat="46.1521372" lon="13.5512877"><ele>418.6666666666667</ele><time>2026-05-02T10:10:55.595Z</time></trkpt><trkpt lat="46.152084" lon="13.5512193"><ele>418.0</ele><time>2026-05-02T10:10:56.593Z</time></trkpt><trkpt lat="46.1520328" lon="13.5511487"><ele>418.0</ele><time>2026-05-02T10:10:57.593Z</time></trkpt><trkpt lat="46.151993" lon="13.5510761"><ele>418.0</ele><time>2026-05-02T10:10:58.594Z</time></trkpt><trkpt lat="46.1519337" lon="13.5509514"><ele>418.0</ele><time>2026-05-02T10:11:00.594Z</time></trkpt><trkpt lat="46.1518767" lon="13.5508762"><ele>418.0</ele><time>2026-05-02T10:11:02.593Z</time></trkpt><trkpt lat="46.1517799" lon="13.5508836"><ele>418.0</ele><time>2026-05-02T10:11:04.593Z</time></trkpt><trkpt lat="46.1516615" lon="13.5509252"><ele>414.50000000000006</ele><time>2026-05-02T10:11:06.594Z</time></trkpt><trkpt lat="46.1515387" lon="13.5509145"><ele>411.0</ele><time>2026-05-02T10:11:08.593Z</time></trkpt><trkpt lat="46.1514621" lon="13.5508806"><ele>407.5</ele><time>2026-05-02T10:11:09.595Z</time></trkpt><trkpt lat="46.1513823" lon="13.5508339"><ele>404.0</ele><time>2026-05-02T10:11:10.593Z</time></trkpt><trkpt lat="46.1513089" lon="13.55079"><ele>400.50000000000006</ele><time>2026-05-02T10:11:11.594Z</time></trkpt><trkpt lat="46.151239" lon="13.5507559"><ele>397.0</ele><time>2026-05-02T10:11:12.594Z</time></trkpt><trkpt lat="46.1511706" lon="13.5507337"><ele>397.00000000000006</ele><time>2026-05-02T10:11:13.594Z</time></trkpt><trkpt lat="46.1511062" lon="13.5507211"><ele>397.0</ele><time>2026-05-02T10:11:14.593Z</time></trkpt><trkpt lat="46.1510421" lon="13.5507146"><ele>397.0</ele><time>2026-05-02T10:11:15.594Z</time></trkpt><trkpt lat="46.1509749" lon="13.5507083"><ele>397.0</ele><time>2026-05-02T10:11:16.593Z</time></trkpt><trkpt lat="46.1509052" lon="13.5506948"><ele>397.00000000000006</ele><time>2026-05-02T10:11:17.594Z</time></trkpt><trkpt lat="46.1508376" lon="13.5506727"><ele>397.0</ele><time>2026-05-02T10:11:18.593Z</time></trkpt><trkpt lat="46.1507309" lon="13.5505958"><ele>391.20000000000005</ele><time>2026-05-02T10:11:20.595Z</time></trkpt><trkpt lat="46.150657" lon="13.5504701"><ele>385.4</ele><time>2026-05-02T10:11:22.593Z</time></trkpt><trkpt lat="46.1506222" lon="13.5503112"><ele>379.6</ele><time>2026-05-02T10:11:24.592Z</time></trkpt><trkpt lat="46.1506151" lon="13.5501396"><ele>373.79999999999995</ele><time>2026-05-02T10:11:26.594Z</time></trkpt><trkpt lat="46.1506344" lon="13.5500374"><ele>368.0</ele><time>2026-05-02T10:11:27.594Z</time></trkpt><trkpt lat="46.1506619" lon="13.5499245"><ele>368.0</ele><time>2026-05-02T10:11:28.594Z</time></trkpt><trkpt lat="46.1506984" lon="13.5498029"><ele>368.0</ele><time>2026-05-02T10:11:29.594Z</time></trkpt><trkpt lat="46.1507338" lon="13.5496787"><ele>368.0</ele><time>2026-05-02T10:11:30.593Z</time></trkpt><trkpt lat="46.150768" lon="13.5495596"><ele>368.0</ele><time>2026-05-02T10:11:31.593Z</time></trkpt><trkpt lat="46.1508026" lon="13.5494438"><ele>368.0</ele><time>2026-05-02T10:11:32.594Z</time></trkpt><trkpt lat="46.1508384" lon="13.5493313"><ele>368.0</ele><time>2026-05-02T10:11:33.594Z</time></trkpt><trkpt lat="46.1508787" lon="13.5492271"><ele>373.79999999999995</ele><time>2026-05-02T10:11:34.594Z</time></trkpt><trkpt lat="46.1509153" lon="13.54913"><ele>379.6</ele><time>2026-05-02T10:11:35.594Z</time></trkpt><trkpt lat="46.1509473" lon="13.5490448"><ele>385.4</ele><time>2026-05-02T10:11:36.595Z</time></trkpt><trkpt lat="46.1509965" lon="13.5489108"><ele>391.20000000000005</ele><time>2026-05-02T10:11:38.594Z</time></trkpt><trkpt lat="46.1510156" lon="13.5487902"><ele>397.0</ele><time>2026-05-02T10:11:40.594Z</time></trkpt><trkpt lat="46.1509447" lon="13.5486142"><ele>397.0</ele><time>2026-05-02T10:11:42.594Z</time></trkpt><trkpt lat="46.1508993" lon="13.5484833"><ele>397.0</ele><time>2026-05-02T10:11:43.594Z</time></trkpt><trkpt lat="46.1508568" lon="13.5483565"><ele>397.0</ele><time>2026-05-02T10:11:44.593Z</time></trkpt><trkpt lat="46.1508223" lon="13.5482378"><ele>397.0</ele><time>2026-05-02T10:11:45.593Z</time></trkpt><trkpt lat="46.1508012" lon="13.5481212"><ele>397.0</ele><time>2026-05-02T10:11:46.594Z</time></trkpt><trkpt lat="46.1508009" lon="13.5479999"><ele>397.0</ele><time>2026-05-02T10:11:47.594Z</time></trkpt><trkpt lat="46.150822" lon="13.5478802"><ele>397.0</ele><time>2026-05-02T10:11:48.593Z</time></trkpt><trkpt lat="46.1508573" lon="13.5477578"><ele>397.0</ele><time>2026-05-02T10:11:49.596Z</time></trkpt><trkpt lat="46.1508999" lon="13.5476326"><ele>397.0</ele><time>2026-05-02T10:11:50.597Z</time></trkpt><trkpt lat="46.1509497" lon="13.5475123"><ele>397.0</ele><time>2026-05-02T10:11:51.594Z</time></trkpt><trkpt lat="46.1510075" lon="13.5473833"><ele>397.40000000000003</ele><time>2026-05-02T10:11:52.594Z</time></trkpt><trkpt lat="46.1510667" lon="13.5472518"><ele>397.8</ele><time>2026-05-02T10:11:53.594Z</time></trkpt><trkpt lat="46.1511207" lon="13.5471276"><ele>398.2</ele><time>2026-05-02T10:11:54.593Z</time></trkpt><trkpt lat="46.1511595" lon="13.5470052"><ele>398.6</ele><time>2026-05-02T10:11:55.595Z</time></trkpt><trkpt lat="46.1511868" lon="13.5468879"><ele>399.0</ele><time>2026-05-02T10:11:56.595Z</time></trkpt><trkpt lat="46.1512109" lon="13.5467842"><ele>399.6</ele><time>2026-05-02T10:11:57.594Z</time></trkpt><trkpt lat="46.1511921" lon="13.546627"><ele>400.2</ele><time>2026-05-02T10:11:59.594Z</time></trkpt><trkpt lat="46.1510967" lon="13.5465711"><ele>400.8</ele><time>2026-05-02T10:12:01.593Z</time></trkpt><trkpt lat="46.1510064" lon="13.5465858"><ele>401.40000000000003</ele><time>2026-05-02T10:12:02.595Z</time></trkpt><trkpt lat="46.1508925" lon="13.5466192"><ele>402.0</ele><time>2026-05-02T10:12:03.595Z</time></trkpt><trkpt lat="46.1507497" lon="13.5466667"><ele>400.6</ele><time>2026-05-02T10:12:04.594Z</time></trkpt><trkpt lat="46.1506076" lon="13.5466988"><ele>399.20000000000005</ele><time>2026-05-02T10:12:05.593Z</time></trkpt><trkpt lat="46.1504868" lon="13.5467128"><ele>397.8</ele><time>2026-05-02T10:12:06.594Z</time></trkpt><trkpt lat="46.1503875" lon="13.5467147"><ele>396.4</ele><time>2026-05-02T10:12:07.593Z</time></trkpt><trkpt lat="46.1503085" lon="13.5467113"><ele>395.0</ele><time>2026-05-02T10:12:08.594Z</time></trkpt><trkpt lat="46.1502203" lon="13.5466548"><ele>394.99999999999994</ele><time>2026-05-02T10:12:10.594Z</time></trkpt><trkpt lat="46.1501983" lon="13.5465439"><ele>395.0</ele><time>2026-05-02T10:12:12.594Z</time></trkpt><trkpt lat="46.1502104" lon="13.5463563"><ele>395.0</ele><time>2026-05-02T10:12:14.594Z</time></trkpt><trkpt lat="46.1502103" lon="13.5462414"><ele>395.0</ele><time>2026-05-02T10:12:15.593Z</time></trkpt><trkpt lat="46.1502055" lon="13.5461309"><ele>394.99999999999994</ele><time>2026-05-02T10:12:16.593Z</time></trkpt><trkpt lat="46.1501988" lon="13.5460352"><ele>395.0</ele><time>2026-05-02T10:12:17.594Z</time></trkpt><trkpt lat="46.150171" lon="13.5459153"><ele>398.99999999999994</ele><time>2026-05-02T10:12:19.595Z</time></trkpt><trkpt lat="46.1500976" lon="13.5458662"><ele>403.0</ele><time>2026-05-02T10:12:22.593Z</time></trkpt><trkpt lat="46.1500123" lon="13.5459116"><ele>407.0</ele><time>2026-05-02T10:12:24.593Z</time></trkpt><trkpt lat="46.1499524" lon="13.5459695"><ele>411.0</ele><time>2026-05-02T10:12:25.594Z</time></trkpt><trkpt lat="46.1498791" lon="13.5460607"><ele>414.99999999999994</ele><time>2026-05-02T10:12:26.594Z</time></trkpt><trkpt lat="46.1498038" lon="13.5461624"><ele>419.0</ele><time>2026-05-02T10:12:27.593Z</time></trkpt><trkpt lat="46.1497324" lon="13.546253"><ele>419.79999999999995</ele><time>2026-05-02T10:12:28.594Z</time></trkpt><trkpt lat="46.1496664" lon="13.5463265"><ele>420.59999999999997</ele><time>2026-05-02T10:12:29.596Z</time></trkpt><trkpt lat="46.1496015" lon="13.5463863"><ele>421.4</ele><time>2026-05-02T10:12:30.594Z</time></trkpt><trkpt lat="46.1495475" lon="13.5464455"><ele>422.2</ele><time>2026-05-02T10:12:31.593Z</time></trkpt><trkpt lat="46.1494828" lon="13.5465693"><ele>423.0</ele><time>2026-05-02T10:12:33.593Z</time></trkpt><trkpt lat="46.1494455" lon="13.5467291"><ele>423.0</ele><time>2026-05-02T10:12:35.593Z</time></trkpt><trkpt lat="46.1494112" lon="13.5468207"><ele>423.0</ele><time>2026-05-02T10:12:36.594Z</time></trkpt><trkpt lat="46.1493647" lon="13.546915"><ele>423.0</ele><time>2026-05-02T10:12:37.593Z</time></trkpt><trkpt lat="46.1493177" lon="13.547008"><ele>423.0</ele><time>2026-05-02T10:12:38.595Z</time></trkpt><trkpt lat="46.149262" lon="13.5470969"><ele>423.0</ele><time>2026-05-02T10:12:39.593Z</time></trkpt><trkpt lat="46.1492041" lon="13.54719"><ele>423.0</ele><time>2026-05-02T10:12:40.594Z</time></trkpt><trkpt lat="46.1491465" lon="13.5472872"><ele>420.59999999999997</ele><time>2026-05-02T10:12:41.594Z</time></trkpt><trkpt lat="46.1490897" lon="13.5473772"><ele>418.2</ele><time>2026-05-02T10:12:42.593Z</time></trkpt><trkpt lat="46.1490362" lon="13.5474543"><ele>415.8</ele><time>2026-05-02T10:12:43.594Z</time></trkpt><trkpt lat="46.1489347" lon="13.5475404"><ele>413.4</ele><time>2026-05-02T10:12:45.593Z</time></trkpt><trkpt lat="46.1488231" lon="13.5475572"><ele>411.0</ele><time>2026-05-02T10:12:47.594Z</time></trkpt><trkpt lat="46.1487592" lon="13.5475423"><ele>411.0</ele><time>2026-05-02T10:12:48.594Z</time></trkpt><trkpt lat="46.1486876" lon="13.5475115"><ele>411.0</ele><time>2026-05-02T10:12:49.593Z</time></trkpt><trkpt lat="46.1486104" lon="13.5474724"><ele>411.0</ele><time>2026-05-02T10:12:50.593Z</time></trkpt><trkpt lat="46.1485353" lon="13.5474305"><ele>411.0</ele><time>2026-05-02T10:12:51.594Z</time></trkpt><trkpt lat="46.1484589" lon="13.5474024"><ele>411.0</ele><time>2026-05-02T10:12:52.593Z</time></trkpt><trkpt lat="46.1483816" lon="13.547396"><ele>411.0</ele><time>2026-05-02T10:12:53.595Z</time></trkpt><trkpt lat="46.1483047" lon="13.547415"><ele>411.0</ele><time>2026-05-02T10:12:54.594Z</time></trkpt><trkpt lat="46.1482255" lon="13.5474572"><ele>411.0</ele><time>2026-05-02T10:12:55.594Z</time></trkpt><trkpt lat="46.148147" lon="13.5474991"><ele>411.0</ele><time>2026-05-02T10:12:56.594Z</time></trkpt><trkpt lat="46.1480704" lon="13.5475311"><ele>411.0</ele><time>2026-05-02T10:12:57.593Z</time></trkpt><trkpt lat="46.1479903" lon="13.5475429"><ele>411.0</ele><time>2026-05-02T10:12:58.594Z</time></trkpt><trkpt lat="46.1479089" lon="13.5475532"><ele>411.0</ele><time>2026-05-02T10:12:59.593Z</time></trkpt><trkpt lat="46.1478338" lon="13.5475697"><ele>407.8333333333333</ele><time>2026-05-02T10:13:00.594Z</time></trkpt><trkpt lat="46.1477629" lon="13.5475763"><ele>404.66666666666663</ele><time>2026-05-02T10:13:01.594Z</time></trkpt><trkpt lat="46.1476936" lon="13.5475565"><ele>401.5</ele><time>2026-05-02T10:13:02.595Z</time></trkpt><trkpt lat="46.1476324" lon="13.5475163"><ele>398.3333333333333</ele><time>2026-05-02T10:13:03.595Z</time></trkpt><trkpt lat="46.1475506" lon="13.5473953"><ele>395.16666666666663</ele><time>2026-05-02T10:13:05.594Z</time></trkpt><trkpt lat="46.1475177" lon="13.5473105"><ele>392.0</ele><time>2026-05-02T10:13:06.593Z</time></trkpt><trkpt lat="46.1474769" lon="13.5472328"><ele>392.0</ele><time>2026-05-02T10:13:07.594Z</time></trkpt><trkpt lat="46.1473786" lon="13.5471251"><ele>392.0</ele><time>2026-05-02T10:13:09.593Z</time></trkpt><trkpt lat="46.1473105" lon="13.5470893"><ele>392.0</ele><time>2026-05-02T10:13:10.594Z</time></trkpt><trkpt lat="46.1472408" lon="13.5470553"><ele>392.0</ele><time>2026-05-02T10:13:11.595Z</time></trkpt><trkpt lat="46.1471362" lon="13.5469749"><ele>392.0</ele><time>2026-05-02T10:13:13.595Z</time></trkpt><trkpt lat="46.1470672" lon="13.5468478"><ele>385.66666666666663</ele><time>2026-05-02T10:13:15.594Z</time></trkpt><trkpt lat="46.1470521" lon="13.5466956"><ele>379.3333333333333</ele><time>2026-05-02T10:13:17.593Z</time></trkpt><trkpt lat="46.1470625" lon="13.5466033"><ele>373.0</ele><time>2026-05-02T10:13:18.594Z</time></trkpt><trkpt lat="46.1470807" lon="13.5465086"><ele>366.66666666666663</ele><time>2026-05-02T10:13:19.595Z</time></trkpt><trkpt lat="46.1471023" lon="13.5464119"><ele>360.3333333333333</ele><time>2026-05-02T10:13:20.594Z</time></trkpt><trkpt lat="46.1471154" lon="13.5463205"><ele>354.0</ele><time>2026-05-02T10:13:21.594Z</time></trkpt><trkpt lat="46.1471093" lon="13.5461809"><ele>354.0</ele><time>2026-05-02T10:13:23.594Z</time></trkpt><trkpt lat="46.1470636" lon="13.5460867"><ele>354.0</ele><time>2026-05-02T10:13:25.594Z</time></trkpt><trkpt lat="46.1469547" lon="13.5460043"><ele>354.0</ele><time>2026-05-02T10:13:27.594Z</time></trkpt><trkpt lat="46.1468802" lon="13.5459366"><ele>354.0</ele><time>2026-05-02T10:13:28.593Z</time></trkpt><trkpt lat="46.1467909" lon="13.5458638"><ele>354.0</ele><time>2026-05-02T10:13:29.593Z</time></trkpt><trkpt lat="46.1467004" lon="13.5457946"><ele>354.0</ele><time>2026-05-02T10:13:30.593Z</time></trkpt><trkpt lat="46.1466185" lon="13.5457276"><ele>354.0</ele><time>2026-05-02T10:13:31.593Z</time></trkpt><trkpt lat="46.1465465" lon="13.5456586"><ele>354.0</ele><time>2026-05-02T10:13:32.594Z</time></trkpt><trkpt lat="46.1464961" lon="13.5455846"><ele>354.0</ele><time>2026-05-02T10:13:33.593Z</time></trkpt><trkpt lat="46.1464637" lon="13.5454988"><ele>354.0</ele><time>2026-05-02T10:13:34.593Z</time></trkpt><trkpt lat="46.1464433" lon="13.545405"><ele>354.0</ele><time>2026-05-02T10:13:35.594Z</time></trkpt><trkpt lat="46.1464324" lon="13.5452975"><ele>354.0</ele><time>2026-05-02T10:13:36.593Z</time></trkpt><trkpt lat="46.146421" lon="13.5451855"><ele>354.0</ele><time>2026-05-02T10:13:37.593Z</time></trkpt><trkpt lat="46.1464046" lon="13.5450797"><ele>354.0</ele><time>2026-05-02T10:13:38.594Z</time></trkpt><trkpt lat="46.146384" lon="13.5449792"><ele>354.0</ele><time>2026-05-02T10:13:39.593Z</time></trkpt><trkpt lat="46.1463545" lon="13.5448863"><ele>354.0</ele><time>2026-05-02T10:13:40.594Z</time></trkpt><trkpt lat="46.1463131" lon="13.5448036"><ele>354.0</ele><time>2026-05-02T10:13:41.595Z</time></trkpt><trkpt lat="46.1462592" lon="13.5447278"><ele>354.0</ele><time>2026-05-02T10:13:42.594Z</time></trkpt><trkpt lat="46.146204" lon="13.5446485"><ele>357.8571428571429</ele><time>2026-05-02T10:13:43.596Z</time></trkpt><trkpt lat="46.146157" lon="13.5445654"><ele>361.71428571428567</ele><time>2026-05-02T10:13:44.594Z</time></trkpt><trkpt lat="46.1461185" lon="13.5444785"><ele>365.57142857142856</ele><time>2026-05-02T10:13:45.594Z</time></trkpt><trkpt lat="46.1460869" lon="13.5443853"><ele>369.42857142857144</ele><time>2026-05-02T10:13:46.594Z</time></trkpt><trkpt lat="46.1460548" lon="13.5442889"><ele>373.28571428571433</ele><time>2026-05-02T10:13:47.594Z</time></trkpt><trkpt lat="46.1460206" lon="13.5441989"><ele>377.1428571428571</ele><time>2026-05-02T10:13:48.595Z</time></trkpt><trkpt lat="46.1459846" lon="13.5441168"><ele>381.0</ele><time>2026-05-02T10:13:49.593Z</time></trkpt><trkpt lat="46.145943" lon="13.5440405"><ele>381.0</ele><time>2026-05-02T10:13:50.594Z</time></trkpt><trkpt lat="46.1458962" lon="13.5439564"><ele>381.0</ele><time>2026-05-02T10:13:51.595Z</time></trkpt><trkpt lat="46.1458452" lon="13.5438593"><ele>381.0</ele><time>2026-05-02T10:13:52.595Z</time></trkpt><trkpt lat="46.145788" lon="13.5437446"><ele>381.0</ele><time>2026-05-02T10:13:53.594Z</time></trkpt><trkpt lat="46.1457351" lon="13.5436236"><ele>381.0</ele><time>2026-05-02T10:13:54.594Z</time></trkpt><trkpt lat="46.1456841" lon="13.5435098"><ele>371.20000000000005</ele><time>2026-05-02T10:13:55.596Z</time></trkpt><trkpt lat="46.1456358" lon="13.5434074"><ele>361.40000000000003</ele><time>2026-05-02T10:13:56.597Z</time></trkpt><trkpt lat="46.1456005" lon="13.5433168"><ele>351.6</ele><time>2026-05-02T10:13:57.594Z</time></trkpt><trkpt lat="46.1455648" lon="13.5431539"><ele>341.8</ele><time>2026-05-02T10:13:59.593Z</time></trkpt><trkpt lat="46.145566" lon="13.5429851"><ele>332.0</ele><time>2026-05-02T10:14:01.595Z</time></trkpt><trkpt lat="46.1455781" lon="13.5428951"><ele>331.85714285714283</ele><time>2026-05-02T10:14:02.595Z</time></trkpt><trkpt lat="46.1456027" lon="13.5428104"><ele>331.7142857142857</ele><time>2026-05-02T10:14:03.593Z</time></trkpt><trkpt lat="46.1456386" lon="13.5427306"><ele>331.57142857142856</ele><time>2026-05-02T10:14:04.593Z</time></trkpt><trkpt lat="46.1456848" lon="13.5426603"><ele>331.42857142857144</ele><time>2026-05-02T10:14:05.594Z</time></trkpt><trkpt lat="46.1457345" lon="13.5425998"><ele>331.2857142857143</ele><time>2026-05-02T10:14:06.594Z</time></trkpt><trkpt lat="46.1458159" lon="13.5424916"><ele>331.14285714285717</ele><time>2026-05-02T10:14:08.594Z</time></trkpt><trkpt lat="46.1458489" lon="13.5423948"><ele>331.0</ele><time>2026-05-02T10:14:10.595Z</time></trkpt><trkpt lat="46.1458091" lon="13.5422891"><ele>340.16666666666663</ele><time>2026-05-02T10:14:12.592Z</time></trkpt><trkpt lat="46.1457842" lon="13.5421316"><ele>349.3333333333333</ele><time>2026-05-02T10:14:14.592Z</time></trkpt><trkpt lat="46.1457873" lon="13.542032"><ele>358.5</ele><time>2026-05-02T10:14:15.592Z</time></trkpt><trkpt lat="46.1457867" lon="13.5419291"><ele>367.66666666666663</ele><time>2026-05-02T10:14:16.595Z</time></trkpt><trkpt lat="46.1457767" lon="13.5418228"><ele>376.8333333333333</ele><time>2026-05-02T10:14:17.594Z</time></trkpt><trkpt lat="46.1457538" lon="13.541719"><ele>386.0</ele><time>2026-05-02T10:14:18.594Z</time></trkpt><trkpt lat="46.1457153" lon="13.5416208"><ele>378.16666666666663</ele><time>2026-05-02T10:14:19.593Z</time></trkpt><trkpt lat="46.1456707" lon="13.5415244"><ele>370.3333333333333</ele><time>2026-05-02T10:14:20.595Z</time></trkpt><trkpt lat="46.1456261" lon="13.5414352"><ele>362.5</ele><time>2026-05-02T10:14:21.593Z</time></trkpt><trkpt lat="46.1455877" lon="13.5413477"><ele>354.66666666666663</ele><time>2026-05-02T10:14:22.594Z</time></trkpt><trkpt lat="46.1455508" lon="13.5412662"><ele>346.8333333333333</ele><time>2026-05-02T10:14:23.596Z</time></trkpt><trkpt lat="46.1454844" lon="13.5411437"><ele>339.0</ele><time>2026-05-02T10:14:25.594Z</time></trkpt><trkpt lat="46.1453811" lon="13.5410776"><ele>339.0</ele><time>2026-05-02T10:14:27.593Z</time></trkpt><trkpt lat="46.1452902" lon="13.5410224"><ele>339.0</ele><time>2026-05-02T10:14:29.593Z</time></trkpt><trkpt lat="46.1452491" lon="13.5409049"><ele>339.0</ele><time>2026-05-02T10:14:31.593Z</time></trkpt><trkpt lat="46.1451965" lon="13.5407759"><ele>339.0</ele><time>2026-05-02T10:14:33.593Z</time></trkpt><trkpt lat="46.1451314" lon="13.5407324"><ele>339.0</ele><time>2026-05-02T10:14:46.593Z</time></trkpt><trkpt lat="46.1450992" lon="13.5406424"><ele>339.0</ele><time>2026-05-02T10:14:47.592Z</time></trkpt><trkpt lat="46.1450641" lon="13.5405172"><ele>339.0</ele><time>2026-05-02T10:14:48.594Z</time></trkpt><trkpt lat="46.1450213" lon="13.5403845"><ele>339.0</ele><time>2026-05-02T10:14:49.593Z</time></trkpt><trkpt lat="46.1449878" lon="13.5402494"><ele>339.0</ele><time>2026-05-02T10:14:50.594Z</time></trkpt><trkpt lat="46.1449629" lon="13.540108"><ele>339.0</ele><time>2026-05-02T10:14:51.593Z</time></trkpt><trkpt lat="46.1449479" lon="13.5399456"><ele>339.0</ele><time>2026-05-02T10:14:52.593Z</time></trkpt><trkpt lat="46.1449231" lon="13.5397713"><ele>339.0</ele><time>2026-05-02T10:14:53.593Z</time></trkpt><trkpt lat="46.1448883" lon="13.5395717"><ele>339.0</ele><time>2026-05-02T10:14:54.593Z</time></trkpt><trkpt lat="46.1448383" lon="13.539415"><ele>339.0</ele><time>2026-05-02T10:14:55.595Z</time></trkpt><trkpt lat="46.144795" lon="13.53926"><ele>339.0</ele><time>2026-05-02T10:14:56.594Z</time></trkpt><trkpt lat="46.1447567" lon="13.5391133"><ele>339.0</ele><time>2026-05-02T10:14:57.593Z</time></trkpt><trkpt lat="46.1447217" lon="13.5389717"><ele>339.0</ele><time>2026-05-02T10:14:58.594Z</time></trkpt><trkpt lat="46.1446867" lon="13.5388367"><ele>339.0</ele><time>2026-05-02T10:14:59.593Z</time></trkpt><trkpt lat="46.1446367" lon="13.53872"><ele>339.0</ele><time>2026-05-02T10:15:00.592Z</time></trkpt><trkpt lat="46.1445617" lon="13.5386283"><ele>339.0</ele><time>2026-05-02T10:15:01.593Z</time></trkpt><trkpt lat="46.144465" lon="13.538575"><ele>346.4</ele><time>2026-05-02T10:15:02.593Z</time></trkpt><trkpt lat="46.1443733" lon="13.5385233"><ele>353.79999999999995</ele><time>2026-05-02T10:15:03.594Z</time></trkpt><trkpt lat="46.1442733" lon="13.5384917"><ele>361.20000000000005</ele><time>2026-05-02T10:15:04.594Z</time></trkpt><trkpt lat="46.1441717" lon="13.5384667"><ele>368.6</ele><time>2026-05-02T10:15:05.594Z</time></trkpt><trkpt lat="46.1440733" lon="13.53843"><ele>376.0</ele><time>2026-05-02T10:15:06.593Z</time></trkpt><trkpt lat="46.1439717" lon="13.538405"><ele>376.0</ele><time>2026-05-02T10:15:07.594Z</time></trkpt><trkpt lat="46.1438817" lon="13.53836"><ele>376.0</ele><time>2026-05-02T10:15:08.594Z</time></trkpt><trkpt lat="46.1437983" lon="13.5383067"><ele>376.0</ele><time>2026-05-02T10:15:09.593Z</time></trkpt><trkpt lat="46.1437133" lon="13.53826"><ele>376.0</ele><time>2026-05-02T10:15:10.593Z</time></trkpt><trkpt lat="46.14363" lon="13.5382"><ele>376.0</ele><time>2026-05-02T10:15:11.593Z</time></trkpt><trkpt lat="46.1435467" lon="13.5381417"><ele>376.0</ele><time>2026-05-02T10:15:12.594Z</time></trkpt><trkpt lat="46.1434567" lon="13.5381"><ele>376.0</ele><time>2026-05-02T10:15:13.594Z</time></trkpt><trkpt lat="46.1433633" lon="13.5380783"><ele>376.0</ele><time>2026-05-02T10:15:14.593Z</time></trkpt><trkpt lat="46.1432867" lon="13.5380283"><ele>376.0</ele><time>2026-05-02T10:15:15.593Z</time></trkpt><trkpt lat="46.14322" lon="13.5379533"><ele>376.0</ele><time>2026-05-02T10:15:16.593Z</time></trkpt><trkpt lat="46.14316" lon="13.537875"><ele>376.0</ele><time>2026-05-02T10:15:17.594Z</time></trkpt><trkpt lat="46.143125" lon="13.537775"><ele>376.0</ele><time>2026-05-02T10:15:18.593Z</time></trkpt><trkpt lat="46.1431033" lon="13.5376683"><ele>376.0</ele><time>2026-05-02T10:15:19.594Z</time></trkpt><trkpt lat="46.1431033" lon="13.5375467"><ele>376.0</ele><time>2026-05-02T10:15:20.594Z</time></trkpt><trkpt lat="46.143105" lon="13.537445"><ele>376.0</ele><time>2026-05-02T10:15:21.593Z</time></trkpt><trkpt lat="46.1431133" lon="13.5372967"><ele>376.0</ele><time>2026-05-02T10:15:23.593Z</time></trkpt><trkpt lat="46.14318" lon="13.5373167"><ele>376.0</ele><time>2026-05-02T10:15:25.594Z</time></trkpt><trkpt lat="46.143235" lon="13.5374533"><ele>376.0</ele><time>2026-05-02T10:15:27.592Z</time></trkpt><trkpt lat="46.1432517" lon="13.5375517"><ele>376.0</ele><time>2026-05-02T10:15:28.596Z</time></trkpt><trkpt lat="46.143315" lon="13.537645"><ele>376.0</ele><time>2026-05-02T10:15:30.594Z</time></trkpt><trkpt lat="46.1433283" lon="13.53747"><ele>376.0</ele><time>2026-05-02T10:15:33.593Z</time></trkpt><trkpt lat="46.1432933" lon="13.5373333"><ele>376.0</ele><time>2026-05-02T10:15:34.594Z</time></trkpt><trkpt lat="46.1432933" lon="13.5371933"><ele>385.20000000000005</ele><time>2026-05-02T10:15:35.596Z</time></trkpt><trkpt lat="46.1432917" lon="13.5370917"><ele>394.40000000000003</ele><time>2026-05-02T10:15:36.593Z</time></trkpt><trkpt lat="46.1432417" lon="13.5369917"><ele>403.6</ele><time>2026-05-02T10:15:37.596Z</time></trkpt><trkpt lat="46.1431783" lon="13.5369033"><ele>412.8</ele><time>2026-05-02T10:15:38.594Z</time></trkpt><trkpt lat="46.1430833" lon="13.5368133"><ele>422.0</ele><time>2026-05-02T10:15:39.592Z</time></trkpt><trkpt lat="46.14296" lon="13.5367317"><ele>422.0</ele><time>2026-05-02T10:15:40.593Z</time></trkpt><trkpt lat="46.142835" lon="13.5366467"><ele>422.0</ele><time>2026-05-02T10:15:41.593Z</time></trkpt><trkpt lat="46.1427133" lon="13.5365633"><ele>422.0</ele><time>2026-05-02T10:15:42.594Z</time></trkpt><trkpt lat="46.1426067" lon="13.5364833"><ele>422.0</ele><time>2026-05-02T10:15:43.593Z</time></trkpt><trkpt lat="46.1425267" lon="13.536385"><ele>422.0</ele><time>2026-05-02T10:15:44.594Z</time></trkpt><trkpt lat="46.1424633" lon="13.5362467"><ele>422.0</ele><time>2026-05-02T10:15:45.593Z</time></trkpt><trkpt lat="46.14241" lon="13.5360917"><ele>422.0</ele><time>2026-05-02T10:15:46.594Z</time></trkpt><trkpt lat="46.14235" lon="13.5359467"><ele>422.0</ele><time>2026-05-02T10:15:47.593Z</time></trkpt><trkpt lat="46.142295" lon="13.5358017"><ele>423.25</ele><time>2026-05-02T10:15:48.594Z</time></trkpt><trkpt lat="46.1422433" lon="13.53566"><ele>424.5</ele><time>2026-05-02T10:15:49.594Z</time></trkpt><trkpt lat="46.1422067" lon="13.5355067"><ele>425.75</ele><time>2026-05-02T10:15:50.594Z</time></trkpt><trkpt lat="46.14219" lon="13.5353367"><ele>427.0</ele><time>2026-05-02T10:15:51.593Z</time></trkpt><trkpt lat="46.14218" lon="13.53517"><ele>427.0</ele><time>2026-05-02T10:15:52.593Z</time></trkpt><trkpt lat="46.1421717" lon="13.5350217"><ele>427.00000000000006</ele><time>2026-05-02T10:15:53.594Z</time></trkpt><trkpt lat="46.1421667" lon="13.5348767"><ele>427.00000000000006</ele><time>2026-05-02T10:15:54.593Z</time></trkpt><trkpt lat="46.1421617" lon="13.5347317"><ele>427.0</ele><time>2026-05-02T10:15:55.593Z</time></trkpt><trkpt lat="46.14215" lon="13.5345883"><ele>427.0</ele><time>2026-05-02T10:15:56.594Z</time></trkpt><trkpt lat="46.1421383" lon="13.5344517"><ele>429.33333333333337</ele><time>2026-05-02T10:15:57.594Z</time></trkpt><trkpt lat="46.1421233" lon="13.5343267"><ele>431.6666666666667</ele><time>2026-05-02T10:15:58.594Z</time></trkpt><trkpt lat="46.14209" lon="13.53422"><ele>434.0</ele><time>2026-05-02T10:15:59.594Z</time></trkpt><trkpt lat="46.142025" lon="13.5341483"><ele>436.33333333333337</ele><time>2026-05-02T10:16:00.593Z</time></trkpt><trkpt lat="46.1419367" lon="13.5341033"><ele>438.6666666666667</ele><time>2026-05-02T10:16:01.594Z</time></trkpt><trkpt lat="46.1418467" lon="13.53407"><ele>441.0</ele><time>2026-05-02T10:16:02.594Z</time></trkpt><trkpt lat="46.1417767" lon="13.534015"><ele>441.0</ele><time>2026-05-02T10:16:03.594Z</time></trkpt><trkpt lat="46.1417067" lon="13.5339633"><ele>441.0</ele><time>2026-05-02T10:16:04.593Z</time></trkpt><trkpt lat="46.141635" lon="13.5339067"><ele>441.0</ele><time>2026-05-02T10:16:05.594Z</time></trkpt><trkpt lat="46.14157" lon="13.5338483"><ele>441.0</ele><time>2026-05-02T10:16:06.593Z</time></trkpt><trkpt lat="46.1415183" lon="13.533785"><ele>441.0</ele><time>2026-05-02T10:16:07.595Z</time></trkpt><trkpt lat="46.1414717" lon="13.5337183"><ele>441.0</ele><time>2026-05-02T10:16:08.595Z</time></trkpt><trkpt lat="46.1414283" lon="13.533635"><ele>441.0</ele><time>2026-05-02T10:16:09.594Z</time></trkpt><trkpt lat="46.1413883" lon="13.5335417"><ele>441.0</ele><time>2026-05-02T10:16:10.594Z</time></trkpt><trkpt lat="46.141355" lon="13.5334517"><ele>441.0</ele><time>2026-05-02T10:16:11.595Z</time></trkpt><trkpt lat="46.141325" lon="13.5333567"><ele>441.0</ele><time>2026-05-02T10:16:12.594Z</time></trkpt><trkpt lat="46.141295" lon="13.53326"><ele>441.0</ele><time>2026-05-02T10:16:13.596Z</time></trkpt><trkpt lat="46.141255" lon="13.5331767"><ele>441.0</ele><time>2026-05-02T10:16:14.595Z</time></trkpt><trkpt lat="46.1412" lon="13.5330983"><ele>441.0</ele><time>2026-05-02T10:16:15.594Z</time></trkpt><trkpt lat="46.1411433" lon="13.5330167"><ele>441.0</ele><time>2026-05-02T10:16:16.594Z</time></trkpt><trkpt lat="46.1410867" lon="13.5329367"><ele>441.0</ele><time>2026-05-02T10:16:17.594Z</time></trkpt><trkpt lat="46.1410333" lon="13.5328583"><ele>441.0</ele><time>2026-05-02T10:16:18.594Z</time></trkpt><trkpt lat="46.1409833" lon="13.53278"><ele>441.0</ele><time>2026-05-02T10:16:19.595Z</time></trkpt><trkpt lat="46.1409383" lon="13.5327017"><ele>441.0</ele><time>2026-05-02T10:16:20.594Z</time></trkpt><trkpt lat="46.1409017" lon="13.532615"><ele>441.0</ele><time>2026-05-02T10:16:21.594Z</time></trkpt><trkpt lat="46.1408683" lon="13.5325283"><ele>441.0</ele><time>2026-05-02T10:16:22.594Z</time></trkpt><trkpt lat="46.14083" lon="13.5324217"><ele>441.0</ele><time>2026-05-02T10:16:23.594Z</time></trkpt><trkpt lat="46.1407867" lon="13.5323033"><ele>441.0</ele><time>2026-05-02T10:16:24.596Z</time></trkpt><trkpt lat="46.140745" lon="13.532175"><ele>441.0</ele><time>2026-05-02T10:16:25.594Z</time></trkpt><trkpt lat="46.1407083" lon="13.5320467"><ele>441.0</ele><time>2026-05-02T10:16:26.596Z</time></trkpt><trkpt lat="46.14068" lon="13.5319233"><ele>441.0</ele><time>2026-05-02T10:16:27.594Z</time></trkpt><trkpt lat="46.1406483" lon="13.5318083"><ele>441.0</ele><time>2026-05-02T10:16:28.593Z</time></trkpt><trkpt lat="46.1406283" lon="13.531705"><ele>441.0</ele><time>2026-05-02T10:16:29.593Z</time></trkpt><trkpt lat="46.1405933" lon="13.5315517"><ele>441.0</ele><time>2026-05-02T10:16:31.594Z</time></trkpt><trkpt lat="46.14052" lon="13.531445"><ele>441.0</ele><time>2026-05-02T10:16:33.593Z</time></trkpt><trkpt lat="46.1404683" lon="13.531385"><ele>441.0</ele><time>2026-05-02T10:16:34.595Z</time></trkpt><trkpt lat="46.1404167" lon="13.5313183"><ele>441.0</ele><time>2026-05-02T10:16:35.595Z</time></trkpt><trkpt lat="46.1403667" lon="13.5312383"><ele>441.0</ele><time>2026-05-02T10:16:36.593Z</time></trkpt><trkpt lat="46.140315" lon="13.5311517"><ele>441.0</ele><time>2026-05-02T10:16:37.593Z</time></trkpt><trkpt lat="46.1402583" lon="13.5310667"><ele>441.0</ele><time>2026-05-02T10:16:38.593Z</time></trkpt><trkpt lat="46.1402033" lon="13.530975"><ele>441.0</ele><time>2026-05-02T10:16:39.593Z</time></trkpt><trkpt lat="46.14015" lon="13.530875"><ele>441.0</ele><time>2026-05-02T10:16:40.594Z</time></trkpt><trkpt lat="46.1401017" lon="13.53077"><ele>441.0</ele><time>2026-05-02T10:16:41.594Z</time></trkpt><trkpt lat="46.1400533" lon="13.5306583"><ele>441.0</ele><time>2026-05-02T10:16:42.594Z</time></trkpt><trkpt lat="46.1400117" lon="13.5305467"><ele>441.0</ele><time>2026-05-02T10:16:43.593Z</time></trkpt><trkpt lat="46.139985" lon="13.5304267"><ele>446.6666666666667</ele><time>2026-05-02T10:16:44.594Z</time></trkpt><trkpt lat="46.1399583" lon="13.5303183"><ele>452.33333333333337</ele><time>2026-05-02T10:16:45.594Z</time></trkpt><trkpt lat="46.139935" lon="13.5302167"><ele>458.0</ele><time>2026-05-02T10:16:46.593Z</time></trkpt><trkpt lat="46.1399083" lon="13.5301167"><ele>463.6666666666667</ele><time>2026-05-02T10:16:47.594Z</time></trkpt><trkpt lat="46.139875" lon="13.5300367"><ele>469.33333333333337</ele><time>2026-05-02T10:16:48.593Z</time></trkpt><trkpt lat="46.1397867" lon="13.52995"><ele>475.0</ele><time>2026-05-02T10:16:50.595Z</time></trkpt><trkpt lat="46.1397117" lon="13.5299483"><ele>475.00000000000006</ele><time>2026-05-02T10:16:51.593Z</time></trkpt><trkpt lat="46.1396233" lon="13.5299583"><ele>475.0</ele><time>2026-05-02T10:16:52.593Z</time></trkpt><trkpt lat="46.1395283" lon="13.52997"><ele>475.0</ele><time>2026-05-02T10:16:53.594Z</time></trkpt><trkpt lat="46.1394283" lon="13.5299683"><ele>475.0</ele><time>2026-05-02T10:16:54.594Z</time></trkpt><trkpt lat="46.1393383" lon="13.5299583"><ele>475.00000000000006</ele><time>2026-05-02T10:16:55.594Z</time></trkpt><trkpt lat="46.1392633" lon="13.529955"><ele>475.0</ele><time>2026-05-02T10:16:56.597Z</time></trkpt><trkpt lat="46.1391967" lon="13.529955"><ele>475.0</ele><time>2026-05-02T10:16:57.594Z</time></trkpt><trkpt lat="46.1390617" lon="13.5299717"><ele>475.0</ele><time>2026-05-02T10:16:59.594Z</time></trkpt><trkpt lat="46.13898" lon="13.5299983"><ele>475.0</ele><time>2026-05-02T10:17:00.595Z</time></trkpt><trkpt lat="46.1388983" lon="13.53003"><ele>475.0</ele><time>2026-05-02T10:17:01.593Z</time></trkpt><trkpt lat="46.1388167" lon="13.530055"><ele>475.0</ele><time>2026-05-02T10:17:02.593Z</time></trkpt><trkpt lat="46.1387317" lon="13.53009"><ele>476.4</ele><time>2026-05-02T10:17:03.593Z</time></trkpt><trkpt lat="46.1386417" lon="13.5301267"><ele>477.8</ele><time>2026-05-02T10:17:04.594Z</time></trkpt><trkpt lat="46.138555" lon="13.5301583"><ele>479.20000000000005</ele><time>2026-05-02T10:17:05.597Z</time></trkpt><trkpt lat="46.13847" lon="13.530185"><ele>480.6</ele><time>2026-05-02T10:17:06.594Z</time></trkpt><trkpt lat="46.1383817" lon="13.5302133"><ele>482.0</ele><time>2026-05-02T10:17:07.595Z</time></trkpt><trkpt lat="46.1382917" lon="13.530235"><ele>484.16666666666663</ele><time>2026-05-02T10:17:08.594Z</time></trkpt><trkpt lat="46.1382017" lon="13.5302567"><ele>486.3333333333333</ele><time>2026-05-02T10:17:09.593Z</time></trkpt><trkpt lat="46.138115" lon="13.5302767"><ele>488.5</ele><time>2026-05-02T10:17:10.594Z</time></trkpt><trkpt lat="46.1380365" lon="13.5302943"><ele>490.66666666666663</ele><time>2026-05-02T10:17:11.593Z</time></trkpt><trkpt lat="46.1379645" lon="13.5303146"><ele>492.8333333333333</ele><time>2026-05-02T10:17:12.593Z</time></trkpt><trkpt lat="46.1378894" lon="13.5303465"><ele>495.0</ele><time>2026-05-02T10:17:13.593Z</time></trkpt><trkpt lat="46.1378156" lon="13.5303718"><ele>495.0</ele><time>2026-05-02T10:17:14.594Z</time></trkpt><trkpt lat="46.1377443" lon="13.5303799"><ele>495.0</ele><time>2026-05-02T10:17:15.593Z</time></trkpt><trkpt lat="46.137672" lon="13.5303741"><ele>495.0</ele><time>2026-05-02T10:17:16.594Z</time></trkpt><trkpt lat="46.1375948" lon="13.5303511"><ele>495.0</ele><time>2026-05-02T10:17:17.594Z</time></trkpt><trkpt lat="46.1375154" lon="13.5303116"><ele>495.0</ele><time>2026-05-02T10:17:18.594Z</time></trkpt><trkpt lat="46.1374299" lon="13.5302585"><ele>495.0</ele><time>2026-05-02T10:17:19.593Z</time></trkpt><trkpt lat="46.137346" lon="13.5301968"><ele>495.0</ele><time>2026-05-02T10:17:20.594Z</time></trkpt><trkpt lat="46.1372688" lon="13.5301442"><ele>495.0</ele><time>2026-05-02T10:17:21.594Z</time></trkpt><trkpt lat="46.1371981" lon="13.5300994"><ele>495.0</ele><time>2026-05-02T10:17:22.594Z</time></trkpt><trkpt lat="46.1371218" lon="13.5300667"><ele>495.0</ele><time>2026-05-02T10:17:23.596Z</time></trkpt><trkpt lat="46.1370413" lon="13.5300459"><ele>495.0</ele><time>2026-05-02T10:17:24.594Z</time></trkpt><trkpt lat="46.136958" lon="13.5300373"><ele>495.0</ele><time>2026-05-02T10:17:25.593Z</time></trkpt><trkpt lat="46.1368746" lon="13.5300333"><ele>494.99999999999994</ele><time>2026-05-02T10:17:26.593Z</time></trkpt><trkpt lat="46.1367979" lon="13.5300186"><ele>495.0</ele><time>2026-05-02T10:17:27.593Z</time></trkpt><trkpt lat="46.1367271" lon="13.5299967"><ele>494.99999999999994</ele><time>2026-05-02T10:17:28.593Z</time></trkpt><trkpt lat="46.1366595" lon="13.5299672"><ele>494.99999999999994</ele><time>2026-05-02T10:17:29.593Z</time></trkpt><trkpt lat="46.1365941" lon="13.5299265"><ele>495.0</ele><time>2026-05-02T10:17:30.593Z</time></trkpt><trkpt lat="46.136535" lon="13.5298802"><ele>494.99999999999994</ele><time>2026-05-02T10:17:31.593Z</time></trkpt><trkpt lat="46.1364815" lon="13.5298267"><ele>494.99999999999994</ele><time>2026-05-02T10:17:32.594Z</time></trkpt><trkpt lat="46.1364325" lon="13.5297602"><ele>495.0</ele><time>2026-05-02T10:17:33.595Z</time></trkpt><trkpt lat="46.1363806" lon="13.5296861"><ele>495.0</ele><time>2026-05-02T10:17:34.593Z</time></trkpt><trkpt lat="46.1363316" lon="13.5296114"><ele>495.0</ele><time>2026-05-02T10:17:35.593Z</time></trkpt><trkpt lat="46.1362891" lon="13.5295432"><ele>495.0</ele><time>2026-05-02T10:17:36.594Z</time></trkpt><trkpt lat="46.1362455" lon="13.5294771"><ele>495.0</ele><time>2026-05-02T10:17:37.595Z</time></trkpt><trkpt lat="46.1361645" lon="13.5293525"><ele>495.0</ele><time>2026-05-02T10:17:39.593Z</time></trkpt><trkpt lat="46.136119" lon="13.5292039"><ele>487.6</ele><time>2026-05-02T10:17:41.593Z</time></trkpt><trkpt lat="46.1361131" lon="13.5290296"><ele>480.2</ele><time>2026-05-02T10:17:43.593Z</time></trkpt><trkpt lat="46.1361194" lon="13.5288839"><ele>472.79999999999995</ele><time>2026-05-02T10:17:45.593Z</time></trkpt><trkpt lat="46.1361073" lon="13.5287511"><ele>465.4</ele><time>2026-05-02T10:17:47.593Z</time></trkpt><trkpt lat="46.1360617" lon="13.5286055"><ele>458.0</ele><time>2026-05-02T10:17:49.593Z</time></trkpt><trkpt lat="46.1360009" lon="13.5284392"><ele>458.0</ele><time>2026-05-02T10:17:51.595Z</time></trkpt><trkpt lat="46.1359655" lon="13.5283567"><ele>458.0</ele><time>2026-05-02T10:17:52.594Z</time></trkpt><trkpt lat="46.1359237" lon="13.5282851"><ele>458.0</ele><time>2026-05-02T10:17:53.594Z</time></trkpt><trkpt lat="46.1358752" lon="13.5282191"><ele>458.0</ele><time>2026-05-02T10:17:54.594Z</time></trkpt><trkpt lat="46.1358228" lon="13.5281468"><ele>458.0</ele><time>2026-05-02T10:17:55.593Z</time></trkpt><trkpt lat="46.1357647" lon="13.5280732"><ele>458.0</ele><time>2026-05-02T10:17:56.594Z</time></trkpt><trkpt lat="46.1357134" lon="13.5280015"><ele>458.0</ele><time>2026-05-02T10:17:57.593Z</time></trkpt><trkpt lat="46.1356622" lon="13.527933"><ele>453.57142857142856</ele><time>2026-05-02T10:17:58.594Z</time></trkpt><trkpt lat="46.1356165" lon="13.5278654"><ele>449.14285714285717</ele><time>2026-05-02T10:17:59.595Z</time></trkpt><trkpt lat="46.135567" lon="13.5277907"><ele>444.7142857142857</ele><time>2026-05-02T10:18:00.593Z</time></trkpt><trkpt lat="46.135517" lon="13.5277117"><ele>440.2857142857143</ele><time>2026-05-02T10:18:01.593Z</time></trkpt><trkpt lat="46.1354664" lon="13.5276371"><ele>435.8571428571429</ele><time>2026-05-02T10:18:02.594Z</time></trkpt><trkpt lat="46.1354124" lon="13.5275592"><ele>431.42857142857144</ele><time>2026-05-02T10:18:03.593Z</time></trkpt><trkpt lat="46.1353572" lon="13.5274752"><ele>427.0</ele><time>2026-05-02T10:18:04.594Z</time></trkpt><trkpt lat="46.1353" lon="13.5273951"><ele>427.00000000000006</ele><time>2026-05-02T10:18:05.593Z</time></trkpt><trkpt lat="46.1352422" lon="13.5273281"><ele>427.0</ele><time>2026-05-02T10:18:06.593Z</time></trkpt><trkpt lat="46.1351931" lon="13.5272668"><ele>427.0</ele><time>2026-05-02T10:18:07.596Z</time></trkpt><trkpt lat="46.1351181" lon="13.5271486"><ele>427.0</ele><time>2026-05-02T10:18:09.593Z</time></trkpt><trkpt lat="46.1350609" lon="13.5270057"><ele>427.00000000000006</ele><time>2026-05-02T10:18:11.595Z</time></trkpt><trkpt lat="46.1350293" lon="13.526918"><ele>427.0</ele><time>2026-05-02T10:18:12.593Z</time></trkpt><trkpt lat="46.1349906" lon="13.5268406"><ele>428.20000000000005</ele><time>2026-05-02T10:18:13.595Z</time></trkpt><trkpt lat="46.1349054" lon="13.5267325"><ele>429.40000000000003</ele><time>2026-05-02T10:18:15.595Z</time></trkpt><trkpt lat="46.1347905" lon="13.526724"><ele>430.59999999999997</ele><time>2026-05-02T10:18:17.594Z</time></trkpt><trkpt lat="46.1347192" lon="13.5267618"><ele>431.79999999999995</ele><time>2026-05-02T10:18:18.594Z</time></trkpt><trkpt lat="46.134647" lon="13.5268151"><ele>433.0</ele><time>2026-05-02T10:18:19.593Z</time></trkpt><trkpt lat="46.1345724" lon="13.5268668"><ele>433.00000000000006</ele><time>2026-05-02T10:18:20.594Z</time></trkpt><trkpt lat="46.1344965" lon="13.5269141"><ele>433.0</ele><time>2026-05-02T10:18:21.594Z</time></trkpt><trkpt lat="46.1344232" lon="13.5269548"><ele>433.0</ele><time>2026-05-02T10:18:22.594Z</time></trkpt><trkpt lat="46.1343513" lon="13.5269897"><ele>433.0</ele><time>2026-05-02T10:18:23.593Z</time></trkpt><trkpt lat="46.1342806" lon="13.5270244"><ele>433.00000000000006</ele><time>2026-05-02T10:18:24.594Z</time></trkpt><trkpt lat="46.1342116" lon="13.5270641"><ele>433.0</ele><time>2026-05-02T10:18:25.595Z</time></trkpt><trkpt lat="46.1341485" lon="13.5270984"><ele>431.59999999999997</ele><time>2026-05-02T10:18:26.594Z</time></trkpt><trkpt lat="46.1340874" lon="13.5271274"><ele>430.19999999999993</ele><time>2026-05-02T10:18:27.593Z</time></trkpt><trkpt lat="46.1339911" lon="13.5271113"><ele>428.8</ele><time>2026-05-02T10:18:29.593Z</time></trkpt><trkpt lat="46.1339113" lon="13.5270254"><ele>427.4</ele><time>2026-05-02T10:18:31.594Z</time></trkpt><trkpt lat="46.1338222" lon="13.5269033"><ele>426.0</ele><time>2026-05-02T10:18:33.594Z</time></trkpt><trkpt lat="46.1337713" lon="13.5268138"><ele>426.0</ele><time>2026-05-02T10:18:34.595Z</time></trkpt><trkpt lat="46.133717" lon="13.5267049"><ele>426.0</ele><time>2026-05-02T10:18:35.594Z</time></trkpt><trkpt lat="46.1336619" lon="13.5265864"><ele>426.0</ele><time>2026-05-02T10:18:36.594Z</time></trkpt><trkpt lat="46.1336077" lon="13.5264674"><ele>426.0</ele><time>2026-05-02T10:18:37.595Z</time></trkpt><trkpt lat="46.1335607" lon="13.5263496"><ele>426.0</ele><time>2026-05-02T10:18:38.595Z</time></trkpt><trkpt lat="46.1335132" lon="13.5262338"><ele>425.6</ele><time>2026-05-02T10:18:39.594Z</time></trkpt><trkpt lat="46.133465" lon="13.5261193"><ele>425.20000000000005</ele><time>2026-05-02T10:18:40.595Z</time></trkpt><trkpt lat="46.1334133" lon="13.5259974"><ele>424.79999999999995</ele><time>2026-05-02T10:18:41.595Z</time></trkpt><trkpt lat="46.1333522" lon="13.5258744"><ele>424.4</ele><time>2026-05-02T10:18:42.594Z</time></trkpt><trkpt lat="46.1332883" lon="13.5257572"><ele>424.0</ele><time>2026-05-02T10:18:43.595Z</time></trkpt><trkpt lat="46.1332255" lon="13.5256481"><ele>420.79999999999995</ele><time>2026-05-02T10:18:44.595Z</time></trkpt><trkpt lat="46.1331613" lon="13.5255427"><ele>417.59999999999997</ele><time>2026-05-02T10:18:45.594Z</time></trkpt><trkpt lat="46.1330959" lon="13.5254371"><ele>414.4</ele><time>2026-05-02T10:18:46.593Z</time></trkpt><trkpt lat="46.1330343" lon="13.5253372"><ele>411.2</ele><time>2026-05-02T10:18:47.594Z</time></trkpt><trkpt lat="46.1329788" lon="13.5252421"><ele>408.0</ele><time>2026-05-02T10:18:48.594Z</time></trkpt><trkpt lat="46.1329289" lon="13.5251581"><ele>408.0</ele><time>2026-05-02T10:18:49.594Z</time></trkpt><trkpt lat="46.1328869" lon="13.5250778"><ele>408.0</ele><time>2026-05-02T10:18:50.595Z</time></trkpt><trkpt lat="46.1328611" lon="13.5249922"><ele>408.0</ele><time>2026-05-02T10:18:51.594Z</time></trkpt><trkpt lat="46.1328392" lon="13.5249033"><ele>408.0</ele><time>2026-05-02T10:18:52.593Z</time></trkpt><trkpt lat="46.1328191" lon="13.5248088"><ele>408.0</ele><time>2026-05-02T10:18:53.595Z</time></trkpt><trkpt lat="46.1327945" lon="13.5247086"><ele>408.0</ele><time>2026-05-02T10:18:54.593Z</time></trkpt><trkpt lat="46.1327755" lon="13.524607"><ele>408.0</ele><time>2026-05-02T10:18:55.595Z</time></trkpt><trkpt lat="46.1327702" lon="13.5245026"><ele>409.8333333333333</ele><time>2026-05-02T10:18:56.593Z</time></trkpt><trkpt lat="46.1327674" lon="13.5243987"><ele>411.66666666666663</ele><time>2026-05-02T10:18:57.593Z</time></trkpt><trkpt lat="46.1327632" lon="13.5242919"><ele>413.5</ele><time>2026-05-02T10:18:58.593Z</time></trkpt><trkpt lat="46.1327546" lon="13.5241923"><ele>415.3333333333333</ele><time>2026-05-02T10:18:59.595Z</time></trkpt><trkpt lat="46.1327513" lon="13.5240301"><ele>417.16666666666663</ele><time>2026-05-02T10:19:01.594Z</time></trkpt><trkpt lat="46.1328052" lon="13.5238876"><ele>419.0</ele><time>2026-05-02T10:19:03.593Z</time></trkpt><trkpt lat="46.1328466" lon="13.5237467"><ele>417.75</ele><time>2026-05-02T10:19:05.595Z</time></trkpt><trkpt lat="46.1327843" lon="13.5236037"><ele>416.5</ele><time>2026-05-02T10:19:07.595Z</time></trkpt><trkpt lat="46.1327115" lon="13.5235174"><ele>415.25</ele><time>2026-05-02T10:19:08.594Z</time></trkpt><trkpt lat="46.1326362" lon="13.5233988"><ele>414.0</ele><time>2026-05-02T10:19:09.593Z</time></trkpt><trkpt lat="46.1325607" lon="13.5232515"><ele>414.0</ele><time>2026-05-02T10:19:10.593Z</time></trkpt><trkpt lat="46.1324923" lon="13.5230907"><ele>414.0</ele><time>2026-05-02T10:19:11.593Z</time></trkpt><trkpt lat="46.1324215" lon="13.5229328"><ele>414.0</ele><time>2026-05-02T10:19:12.594Z</time></trkpt><trkpt lat="46.1323378" lon="13.5227759"><ele>414.0</ele><time>2026-05-02T10:19:13.594Z</time></trkpt><trkpt lat="46.1322469" lon="13.5226225"><ele>409.25</ele><time>2026-05-02T10:19:14.594Z</time></trkpt><trkpt lat="46.1321583" lon="13.5224707"><ele>404.5</ele><time>2026-05-02T10:19:15.593Z</time></trkpt><trkpt lat="46.1320741" lon="13.5223211"><ele>399.75</ele><time>2026-05-02T10:19:16.594Z</time></trkpt><trkpt lat="46.131991" lon="13.5221695"><ele>395.0</ele><time>2026-05-02T10:19:17.594Z</time></trkpt><trkpt lat="46.1319185" lon="13.5220176"><ele>393.4</ele><time>2026-05-02T10:19:18.593Z</time></trkpt><trkpt lat="46.1318623" lon="13.5218741"><ele>391.8</ele><time>2026-05-02T10:19:19.593Z</time></trkpt><trkpt lat="46.1318234" lon="13.521745"><ele>390.20000000000005</ele><time>2026-05-02T10:19:20.596Z</time></trkpt><trkpt lat="46.1317916" lon="13.5216386"><ele>388.6</ele><time>2026-05-02T10:19:21.594Z</time></trkpt><trkpt lat="46.1317633" lon="13.5215571"><ele>387.0</ele><time>2026-05-02T10:19:22.593Z</time></trkpt><trkpt lat="46.1316496" lon="13.5214499"><ele>386.5</ele><time>2026-05-02T10:19:24.595Z</time></trkpt><trkpt lat="46.1315452" lon="13.5214189"><ele>386.0</ele><time>2026-05-02T10:19:25.594Z</time></trkpt><trkpt lat="46.1314233" lon="13.5213883"><ele>385.5</ele><time>2026-05-02T10:19:26.595Z</time></trkpt><trkpt lat="46.131295" lon="13.5213833"><ele>385.0</ele><time>2026-05-02T10:19:27.594Z</time></trkpt><trkpt lat="46.1311717" lon="13.5213717"><ele>385.0</ele><time>2026-05-02T10:19:28.593Z</time></trkpt><trkpt lat="46.1310383" lon="13.521405"><ele>385.0</ele><time>2026-05-02T10:19:29.594Z</time></trkpt><trkpt lat="46.1309033" lon="13.5214467"><ele>385.0</ele><time>2026-05-02T10:19:30.593Z</time></trkpt><trkpt lat="46.130765" lon="13.52147"><ele>385.0</ele><time>2026-05-02T10:19:31.594Z</time></trkpt><trkpt lat="46.1306267" lon="13.5214717"><ele>381.25</ele><time>2026-05-02T10:19:32.594Z</time></trkpt><trkpt lat="46.1304967" lon="13.52143"><ele>377.5</ele><time>2026-05-02T10:19:33.593Z</time></trkpt><trkpt lat="46.13038" lon="13.5213517"><ele>373.75</ele><time>2026-05-02T10:19:34.594Z</time></trkpt><trkpt lat="46.13027" lon="13.5212983"><ele>370.0</ele><time>2026-05-02T10:19:35.593Z</time></trkpt><trkpt lat="46.1301683" lon="13.5212517"><ele>370.8</ele><time>2026-05-02T10:19:36.593Z</time></trkpt><trkpt lat="46.13008" lon="13.5211983"><ele>371.6</ele><time>2026-05-02T10:19:37.593Z</time></trkpt><trkpt lat="46.130005" lon="13.5211267"><ele>372.4</ele><time>2026-05-02T10:19:38.594Z</time></trkpt><trkpt lat="46.1299367" lon="13.5210467"><ele>373.2</ele><time>2026-05-02T10:19:39.593Z</time></trkpt><trkpt lat="46.12988" lon="13.52097"><ele>374.0</ele><time>2026-05-02T10:19:40.594Z</time></trkpt><trkpt lat="46.1298433" lon="13.520825"><ele>374.0</ele><time>2026-05-02T10:19:42.593Z</time></trkpt><trkpt lat="46.129905" lon="13.5207133"><ele>374.0</ele><time>2026-05-02T10:19:44.595Z</time></trkpt><trkpt lat="46.13001" lon="13.520635"><ele>374.0</ele><time>2026-05-02T10:19:46.592Z</time></trkpt><trkpt lat="46.130105" lon="13.520575"><ele>374.0</ele><time>2026-05-02T10:19:48.594Z</time></trkpt><trkpt lat="46.1301717" lon="13.5205383"><ele>374.0</ele><time>2026-05-02T10:19:50.593Z</time></trkpt><trkpt lat="46.1302367" lon="13.5205233"><ele>374.0</ele><time>2026-05-02T10:19:53.593Z</time></trkpt><trkpt lat="46.1303117" lon="13.5205233"><ele>374.0</ele><time>2026-05-02T10:20:16.594Z</time></trkpt><trkpt lat="46.1303867" lon="13.5205783"><ele>374.0</ele><time>2026-05-02T10:20:19.593Z</time></trkpt><trkpt lat="46.13044" lon="13.520645"><ele>374.0</ele><time>2026-05-02T10:20:21.593Z</time></trkpt></trkseg><trkseg><trkpt lat="46.1302571" lon="13.5205688"><ele>374.0</ele><time>2026-05-02T11:17:05.594Z</time></trkpt><trkpt lat="46.130115" lon="13.5205867"><ele>374.0</ele><time>2026-05-02T11:17:06.594Z</time></trkpt><trkpt lat="46.130035" lon="13.5206283"><ele>374.0</ele><time>2026-05-02T11:17:07.593Z</time></trkpt><trkpt lat="46.1299583" lon="13.5206883"><ele>374.0</ele><time>2026-05-02T11:17:08.594Z</time></trkpt><trkpt lat="46.1298983" lon="13.5207417"><ele>374.0</ele><time>2026-05-02T11:17:09.593Z</time></trkpt><trkpt lat="46.1298" lon="13.5207817"><ele>373.0</ele><time>2026-05-02T11:17:11.595Z</time></trkpt><trkpt lat="46.1297117" lon="13.5207233"><ele>372.0</ele><time>2026-05-02T11:17:13.594Z</time></trkpt><trkpt lat="46.12965" lon="13.5206783"><ele>371.0</ele><time>2026-05-02T11:17:14.595Z</time></trkpt><trkpt lat="46.1295733" lon="13.52062"><ele>370.0</ele><time>2026-05-02T11:17:15.594Z</time></trkpt><trkpt lat="46.12949" lon="13.5205467"><ele>369.0</ele><time>2026-05-02T11:17:16.594Z</time></trkpt><trkpt lat="46.1294133" lon="13.5204633"><ele>368.0</ele><time>2026-05-02T11:17:17.595Z</time></trkpt><trkpt lat="46.1293483" lon="13.5203867"><ele>368.0</ele><time>2026-05-02T11:17:18.594Z</time></trkpt><trkpt lat="46.1292883" lon="13.520315"><ele>368.0</ele><time>2026-05-02T11:17:19.594Z</time></trkpt><trkpt lat="46.1292367" lon="13.5202517"><ele>368.0</ele><time>2026-05-02T11:17:20.596Z</time></trkpt><trkpt lat="46.1291517" lon="13.5201317"><ele>368.0</ele><time>2026-05-02T11:17:22.595Z</time></trkpt><trkpt lat="46.1290867" lon="13.5200133"><ele>368.0</ele><time>2026-05-02T11:17:24.595Z</time></trkpt><trkpt lat="46.1290167" lon="13.5198867"><ele>367.33333333333337</ele><time>2026-05-02T11:17:26.595Z</time></trkpt><trkpt lat="46.1289317" lon="13.5197767"><ele>366.6666666666667</ele><time>2026-05-02T11:17:28.595Z</time></trkpt><trkpt lat="46.128835" lon="13.5196967"><ele>366.0</ele><time>2026-05-02T11:17:30.595Z</time></trkpt><trkpt lat="46.1287683" lon="13.5196667"><ele>365.3333333333333</ele><time>2026-05-02T11:17:31.594Z</time></trkpt><trkpt lat="46.1286983" lon="13.5196567"><ele>364.66666666666663</ele><time>2026-05-02T11:17:32.596Z</time></trkpt><trkpt lat="46.1286283" lon="13.5196467"><ele>364.0</ele><time>2026-05-02T11:17:33.594Z</time></trkpt><trkpt lat="46.1285533" lon="13.5196367"><ele>364.0</ele><time>2026-05-02T11:17:34.593Z</time></trkpt><trkpt lat="46.1284783" lon="13.5196317"><ele>364.0</ele><time>2026-05-02T11:17:35.595Z</time></trkpt><trkpt lat="46.1283967" lon="13.519625"><ele>364.0</ele><time>2026-05-02T11:17:36.594Z</time></trkpt><trkpt lat="46.1283117" lon="13.51962"><ele>364.0</ele><time>2026-05-02T11:17:37.595Z</time></trkpt><trkpt lat="46.1282283" lon="13.5196117"><ele>364.0</ele><time>2026-05-02T11:17:38.595Z</time></trkpt><trkpt lat="46.1281417" lon="13.5196033"><ele>364.0</ele><time>2026-05-02T11:17:39.593Z</time></trkpt><trkpt lat="46.1280567" lon="13.5195867"><ele>362.6</ele><time>2026-05-02T11:17:40.594Z</time></trkpt><trkpt lat="46.1279617" lon="13.519555"><ele>361.2</ele><time>2026-05-02T11:17:41.595Z</time></trkpt><trkpt lat="46.1278717" lon="13.5195033"><ele>359.8</ele><time>2026-05-02T11:17:42.595Z</time></trkpt><trkpt lat="46.1277817" lon="13.51943"><ele>358.40000000000003</ele><time>2026-05-02T11:17:43.594Z</time></trkpt><trkpt lat="46.1276933" lon="13.519335"><ele>357.0</ele><time>2026-05-02T11:17:44.594Z</time></trkpt><trkpt lat="46.1276067" lon="13.519255"><ele>357.0</ele><time>2026-05-02T11:17:45.594Z</time></trkpt><trkpt lat="46.12753" lon="13.519175"><ele>357.0</ele><time>2026-05-02T11:17:46.594Z</time></trkpt><trkpt lat="46.1274517" lon="13.519095"><ele>357.0</ele><time>2026-05-02T11:17:47.595Z</time></trkpt><trkpt lat="46.1273733" lon="13.5190233"><ele>357.0</ele><time>2026-05-02T11:17:48.593Z</time></trkpt><trkpt lat="46.1272833" lon="13.51892"><ele>357.0</ele><time>2026-05-02T11:17:49.594Z</time></trkpt><trkpt lat="46.127195" lon="13.51881"><ele>356.40000000000003</ele><time>2026-05-02T11:17:50.595Z</time></trkpt><trkpt lat="46.12711" lon="13.5187017"><ele>355.8</ele><time>2026-05-02T11:17:51.594Z</time></trkpt><trkpt lat="46.1270333" lon="13.5185967"><ele>355.2</ele><time>2026-05-02T11:17:52.594Z</time></trkpt><trkpt lat="46.1269767" lon="13.5184867"><ele>354.6</ele><time>2026-05-02T11:17:53.596Z</time></trkpt><trkpt lat="46.1269233" lon="13.518375"><ele>354.0</ele><time>2026-05-02T11:17:54.596Z</time></trkpt><trkpt lat="46.1268617" lon="13.51827"><ele>354.0</ele><time>2026-05-02T11:17:55.595Z</time></trkpt><trkpt lat="46.126785" lon="13.5181983"><ele>354.0</ele><time>2026-05-02T11:17:56.595Z</time></trkpt><trkpt lat="46.1266833" lon="13.5181633"><ele>354.0</ele><time>2026-05-02T11:17:57.594Z</time></trkpt><trkpt lat="46.1265717" lon="13.5181317"><ele>354.0</ele><time>2026-05-02T11:17:58.595Z</time></trkpt><trkpt lat="46.1264633" lon="13.5180883"><ele>354.0</ele><time>2026-05-02T11:17:59.594Z</time></trkpt><trkpt lat="46.1263583" lon="13.5180433"><ele>351.75</ele><time>2026-05-02T11:18:00.595Z</time></trkpt><trkpt lat="46.126245" lon="13.51804"><ele>349.5</ele><time>2026-05-02T11:18:01.595Z</time></trkpt><trkpt lat="46.1261383" lon="13.5180883"><ele>347.25</ele><time>2026-05-02T11:18:02.595Z</time></trkpt><trkpt lat="46.12604" lon="13.51819"><ele>345.0</ele><time>2026-05-02T11:18:03.594Z</time></trkpt><trkpt lat="46.12594" lon="13.518335"><ele>345.0</ele><time>2026-05-02T11:18:04.596Z</time></trkpt><trkpt lat="46.1258267" lon="13.5184367"><ele>345.0</ele><time>2026-05-02T11:18:05.595Z</time></trkpt><trkpt lat="46.1257217" lon="13.51854"><ele>345.0</ele><time>2026-05-02T11:18:06.597Z</time></trkpt><trkpt lat="46.12561" lon="13.518635"><ele>345.0</ele><time>2026-05-02T11:18:07.595Z</time></trkpt><trkpt lat="46.1254767" lon="13.5186833"><ele>345.6666666666667</ele><time>2026-05-02T11:18:08.595Z</time></trkpt><trkpt lat="46.1253333" lon="13.518715"><ele>346.33333333333337</ele><time>2026-05-02T11:18:09.595Z</time></trkpt><trkpt lat="46.1251817" lon="13.518735"><ele>347.0</ele><time>2026-05-02T11:18:10.595Z</time></trkpt><trkpt lat="46.1250283" lon="13.5187817"><ele>337.0</ele><time>2026-05-02T11:18:11.595Z</time></trkpt><trkpt lat="46.1248767" lon="13.5188383"><ele>327.0</ele><time>2026-05-02T11:18:12.595Z</time></trkpt><trkpt lat="46.124725" lon="13.5188767"><ele>317.0</ele><time>2026-05-02T11:18:13.595Z</time></trkpt><trkpt lat="46.1245683" lon="13.5189083"><ele>317.0</ele><time>2026-05-02T11:18:14.594Z</time></trkpt><trkpt lat="46.1244083" lon="13.5189433"><ele>317.0</ele><time>2026-05-02T11:18:15.595Z</time></trkpt><trkpt lat="46.1242467" lon="13.5189833"><ele>317.0</ele><time>2026-05-02T11:18:16.596Z</time></trkpt><trkpt lat="46.1240783" lon="13.5190233"><ele>314.33333333333337</ele><time>2026-05-02T11:18:17.594Z</time></trkpt><trkpt lat="46.1239067" lon="13.5190333"><ele>311.6666666666667</ele><time>2026-05-02T11:18:18.594Z</time></trkpt><trkpt lat="46.1237333" lon="13.5190183"><ele>309.0</ele><time>2026-05-02T11:18:19.594Z</time></trkpt><trkpt lat="46.1235667" lon="13.5190183"><ele>309.0</ele><time>2026-05-02T11:18:20.598Z</time></trkpt><trkpt lat="46.123405" lon="13.5190067"><ele>309.0</ele><time>2026-05-02T11:18:21.595Z</time></trkpt><trkpt lat="46.123255" lon="13.518945"><ele>309.0</ele><time>2026-05-02T11:18:22.595Z</time></trkpt><trkpt lat="46.1231283" lon="13.51881"><ele>308.0</ele><time>2026-05-02T11:18:23.596Z</time></trkpt><trkpt lat="46.1229933" lon="13.5187233"><ele>307.0</ele><time>2026-05-02T11:18:24.596Z</time></trkpt><trkpt lat="46.1228533" lon="13.518635"><ele>306.0</ele><time>2026-05-02T11:18:25.595Z</time></trkpt><trkpt lat="46.12272" lon="13.5185233"><ele>306.0</ele><time>2026-05-02T11:18:26.595Z</time></trkpt><trkpt lat="46.1225683" lon="13.5184333"><ele>306.0</ele><time>2026-05-02T11:18:27.595Z</time></trkpt><trkpt lat="46.1224267" lon="13.518345"><ele>306.0</ele><time>2026-05-02T11:18:28.595Z</time></trkpt><trkpt lat="46.1223017" lon="13.5182383"><ele>303.25</ele><time>2026-05-02T11:18:29.595Z</time></trkpt><trkpt lat="46.1221967" lon="13.5181067"><ele>300.5</ele><time>2026-05-02T11:18:30.595Z</time></trkpt><trkpt lat="46.1220933" lon="13.5179667"><ele>297.75</ele><time>2026-05-02T11:18:31.596Z</time></trkpt><trkpt lat="46.1219733" lon="13.51783"><ele>295.0</ele><time>2026-05-02T11:18:32.596Z</time></trkpt><trkpt lat="46.1218767" lon="13.5176567"><ele>295.0</ele><time>2026-05-02T11:18:33.595Z</time></trkpt><trkpt lat="46.121785" lon="13.5174617"><ele>295.0</ele><time>2026-05-02T11:18:34.594Z</time></trkpt><trkpt lat="46.1216933" lon="13.5172667"><ele>295.0</ele><time>2026-05-02T11:18:35.595Z</time></trkpt><trkpt lat="46.12161" lon="13.5170817"><ele>283.0</ele><time>2026-05-02T11:18:36.594Z</time></trkpt><trkpt lat="46.1215467" lon="13.5169133"><ele>271.0</ele><time>2026-05-02T11:18:37.595Z</time></trkpt><trkpt lat="46.12146" lon="13.5167617"><ele>259.0</ele><time>2026-05-02T11:18:38.595Z</time></trkpt><trkpt lat="46.12142" lon="13.5165867"><ele>247.0</ele><time>2026-05-02T11:18:39.598Z</time></trkpt><trkpt lat="46.1214267" lon="13.516385"><ele>247.0</ele><time>2026-05-02T11:18:40.594Z</time></trkpt><trkpt lat="46.121425" lon="13.5161683"><ele>247.0</ele><time>2026-05-02T11:18:41.596Z</time></trkpt><trkpt lat="46.121435" lon="13.515935"><ele>247.0</ele><time>2026-05-02T11:18:42.595Z</time></trkpt><trkpt lat="46.1214667" lon="13.5156867"><ele>247.0</ele><time>2026-05-02T11:18:43.595Z</time></trkpt><trkpt lat="46.12147" lon="13.5154267"><ele>247.0</ele><time>2026-05-02T11:18:44.596Z</time></trkpt><trkpt lat="46.121485" lon="13.5151817"><ele>247.0</ele><time>2026-05-02T11:18:45.595Z</time></trkpt><trkpt lat="46.121495" lon="13.5149317"><ele>246.25</ele><time>2026-05-02T11:18:46.594Z</time></trkpt><trkpt lat="46.1214717" lon="13.5146967"><ele>245.5</ele><time>2026-05-02T11:18:47.594Z</time></trkpt><trkpt lat="46.1214517" lon="13.5144917"><ele>244.75</ele><time>2026-05-02T11:18:48.595Z</time></trkpt><trkpt lat="46.12145" lon="13.5143033"><ele>244.0</ele><time>2026-05-02T11:18:49.595Z</time></trkpt><trkpt lat="46.1214417" lon="13.5141383"><ele>244.0</ele><time>2026-05-02T11:18:50.597Z</time></trkpt><trkpt lat="46.1213933" lon="13.5140067"><ele>244.0</ele><time>2026-05-02T11:18:51.595Z</time></trkpt><trkpt lat="46.1213133" lon="13.5138917"><ele>244.0</ele><time>2026-05-02T11:18:52.597Z</time></trkpt><trkpt lat="46.1212017" lon="13.5137917"><ele>244.0</ele><time>2026-05-02T11:18:53.595Z</time></trkpt><trkpt lat="46.12111" lon="13.5136783"><ele>247.25</ele><time>2026-05-02T11:18:54.595Z</time></trkpt><trkpt lat="46.1210333" lon="13.51354"><ele>250.5</ele><time>2026-05-02T11:18:55.595Z</time></trkpt><trkpt lat="46.120975" lon="13.5133733"><ele>253.75</ele><time>2026-05-02T11:18:56.597Z</time></trkpt><trkpt lat="46.12091" lon="13.5131833"><ele>257.0</ele><time>2026-05-02T11:18:57.595Z</time></trkpt><trkpt lat="46.120865" lon="13.51294"><ele>258.0</ele><time>2026-05-02T11:18:58.595Z</time></trkpt><trkpt lat="46.1208317" lon="13.512675"><ele>259.0</ele><time>2026-05-02T11:18:59.595Z</time></trkpt><trkpt lat="46.1208067" lon="13.51241"><ele>260.0</ele><time>2026-05-02T11:19:00.595Z</time></trkpt><trkpt lat="46.120775" lon="13.5121483"><ele>244.66666666666669</ele><time>2026-05-02T11:19:01.594Z</time></trkpt><trkpt lat="46.12072" lon="13.5118917"><ele>229.33333333333331</ele><time>2026-05-02T11:19:02.595Z</time></trkpt><trkpt lat="46.1206517" lon="13.5116417"><ele>214.0</ele><time>2026-05-02T11:19:03.594Z</time></trkpt><trkpt lat="46.1205883" lon="13.5114017"><ele>214.66666666666666</ele><time>2026-05-02T11:19:04.595Z</time></trkpt><trkpt lat="46.1205217" lon="13.5111783"><ele>215.33333333333331</ele><time>2026-05-02T11:19:05.596Z</time></trkpt><trkpt lat="46.1204417" lon="13.510975"><ele>216.0</ele><time>2026-05-02T11:19:06.594Z</time></trkpt><trkpt lat="46.1203433" lon="13.5107933"><ele>216.0</ele><time>2026-05-02T11:19:07.595Z</time></trkpt><trkpt lat="46.1202433" lon="13.5106167"><ele>216.0</ele><time>2026-05-02T11:19:08.596Z</time></trkpt><trkpt lat="46.12015" lon="13.51045"><ele>216.0</ele><time>2026-05-02T11:19:09.595Z</time></trkpt><trkpt lat="46.120065" lon="13.5102833"><ele>216.8</ele><time>2026-05-02T11:19:10.594Z</time></trkpt><trkpt lat="46.1199883" lon="13.5101317"><ele>217.60000000000002</ele><time>2026-05-02T11:19:11.595Z</time></trkpt><trkpt lat="46.1199233" lon="13.5100017"><ele>218.4</ele><time>2026-05-02T11:19:12.596Z</time></trkpt><trkpt lat="46.1198833" lon="13.5098867"><ele>219.2</ele><time>2026-05-02T11:19:13.595Z</time></trkpt><trkpt lat="46.1198383" lon="13.5097983"><ele>220.0</ele><time>2026-05-02T11:19:14.596Z</time></trkpt><trkpt lat="46.1197617" lon="13.50984"><ele>220.0</ele><time>2026-05-02T11:19:16.595Z</time></trkpt><trkpt lat="46.119765" lon="13.5099367"><ele>220.0</ele><time>2026-05-02T11:19:17.596Z</time></trkpt><trkpt lat="46.119795" lon="13.5100483"><ele>220.0</ele><time>2026-05-02T11:19:18.595Z</time></trkpt><trkpt lat="46.119855" lon="13.5102133"><ele>220.0</ele><time>2026-05-02T11:19:19.595Z</time></trkpt><trkpt lat="46.1199067" lon="13.51042"><ele>220.0</ele><time>2026-05-02T11:19:20.595Z</time></trkpt><trkpt lat="46.1199517" lon="13.510645"><ele>219.0</ele><time>2026-05-02T11:19:21.595Z</time></trkpt><trkpt lat="46.119985" lon="13.5108667"><ele>218.0</ele><time>2026-05-02T11:19:22.593Z</time></trkpt><trkpt lat="46.120015" lon="13.5110817"><ele>217.0</ele><time>2026-05-02T11:19:23.594Z</time></trkpt><trkpt lat="46.1200383" lon="13.5112717"><ele>216.0</ele><time>2026-05-02T11:19:24.594Z</time></trkpt><trkpt lat="46.12005" lon="13.5114517"><ele>215.5</ele><time>2026-05-02T11:19:25.595Z</time></trkpt><trkpt lat="46.12004" lon="13.5116167"><ele>215.0</ele><time>2026-05-02T11:19:26.595Z</time></trkpt><trkpt lat="46.1200117" lon="13.51178"><ele>214.5</ele><time>2026-05-02T11:19:27.595Z</time></trkpt><trkpt lat="46.1199567" lon="13.5119367"><ele>214.0</ele><time>2026-05-02T11:19:28.594Z</time></trkpt><trkpt lat="46.1198983" lon="13.5121"><ele>205.75</ele><time>2026-05-02T11:19:29.595Z</time></trkpt><trkpt lat="46.1198617" lon="13.5122817"><ele>197.5</ele><time>2026-05-02T11:19:30.596Z</time></trkpt><trkpt lat="46.1198433" lon="13.5124633"><ele>189.25</ele><time>2026-05-02T11:19:31.595Z</time></trkpt><trkpt lat="46.1198283" lon="13.5126433"><ele>181.0</ele><time>2026-05-02T11:19:32.595Z</time></trkpt><trkpt lat="46.11981" lon="13.5128033"><ele>181.0</ele><time>2026-05-02T11:19:33.595Z</time></trkpt><trkpt lat="46.1197867" lon="13.5129417"><ele>181.0</ele><time>2026-05-02T11:19:34.594Z</time></trkpt><trkpt lat="46.1197533" lon="13.51304"><ele>181.0</ele><time>2026-05-02T11:19:35.594Z</time></trkpt><trkpt lat="46.1196733" lon="13.5130967"><ele>181.0</ele><time>2026-05-02T11:19:37.594Z</time></trkpt><trkpt lat="46.119635" lon="13.51291"><ele>181.0</ele><time>2026-05-02T11:19:39.596Z</time></trkpt><trkpt lat="46.1196467" lon="13.5127533"><ele>181.0</ele><time>2026-05-02T11:19:40.594Z</time></trkpt><trkpt lat="46.1196417" lon="13.5125467"><ele>181.0</ele><time>2026-05-02T11:19:41.596Z</time></trkpt><trkpt lat="46.11963" lon="13.5123167"><ele>181.0</ele><time>2026-05-02T11:19:42.594Z</time></trkpt><trkpt lat="46.1196183" lon="13.5120833"><ele>181.0</ele><time>2026-05-02T11:19:43.594Z</time></trkpt><trkpt lat="46.1196067" lon="13.511875"><ele>181.0</ele><time>2026-05-02T11:19:44.594Z</time></trkpt><trkpt lat="46.1195783" lon="13.5116833"><ele>181.0</ele><time>2026-05-02T11:19:45.595Z</time></trkpt><trkpt lat="46.119525" lon="13.5114933"><ele>181.0</ele><time>2026-05-02T11:19:46.594Z</time></trkpt><trkpt lat="46.1194667" lon="13.511315"><ele>180.20000000000002</ele><time>2026-05-02T11:19:47.595Z</time></trkpt><trkpt lat="46.1193983" lon="13.5111633"><ele>179.4</ele><time>2026-05-02T11:19:48.594Z</time></trkpt><trkpt lat="46.119325" lon="13.511045"><ele>178.6</ele><time>2026-05-02T11:19:49.596Z</time></trkpt><trkpt lat="46.1192433" lon="13.5109717"><ele>177.8</ele><time>2026-05-02T11:19:50.599Z</time></trkpt><trkpt lat="46.11914" lon="13.51094"><ele>177.0</ele><time>2026-05-02T11:19:51.593Z</time></trkpt><trkpt lat="46.1190233" lon="13.5109417"><ele>177.0</ele><time>2026-05-02T11:19:52.593Z</time></trkpt><trkpt lat="46.1188833" lon="13.510975"><ele>177.0</ele><time>2026-05-02T11:19:53.593Z</time></trkpt><trkpt lat="46.1187367" lon="13.51103"><ele>177.0</ele><time>2026-05-02T11:19:54.593Z</time></trkpt><trkpt lat="46.11859" lon="13.51109"><ele>177.0</ele><time>2026-05-02T11:19:55.595Z</time></trkpt><trkpt lat="46.118445" lon="13.5111467"><ele>177.0</ele><time>2026-05-02T11:19:56.594Z</time></trkpt><trkpt lat="46.1183083" lon="13.511205"><ele>177.0</ele><time>2026-05-02T11:19:57.594Z</time></trkpt><trkpt lat="46.1181733" lon="13.5111983"><ele>177.0</ele><time>2026-05-02T11:19:58.598Z</time></trkpt><trkpt lat="46.1180467" lon="13.5111833"><ele>177.0</ele><time>2026-05-02T11:19:59.593Z</time></trkpt><trkpt lat="46.1179283" lon="13.5111767"><ele>174.39999999999998</ele><time>2026-05-02T11:20:00.594Z</time></trkpt><trkpt lat="46.11782" lon="13.511155"><ele>171.79999999999998</ele><time>2026-05-02T11:20:01.594Z</time></trkpt><trkpt lat="46.11772" lon="13.51114"><ele>169.2</ele><time>2026-05-02T11:20:02.593Z</time></trkpt><trkpt lat="46.1176317" lon="13.5111233"><ele>166.6</ele><time>2026-05-02T11:20:03.594Z</time></trkpt><trkpt lat="46.1175617" lon="13.5111"><ele>164.0</ele><time>2026-05-02T11:20:04.593Z</time></trkpt><trkpt lat="46.1174767" lon="13.511055"><ele>164.0</ele><time>2026-05-02T11:20:06.595Z</time></trkpt><trkpt lat="46.1174233" lon="13.510855"><ele>164.0</ele><time>2026-05-02T11:20:08.595Z</time></trkpt><trkpt lat="46.117385" lon="13.5106817"><ele>164.0</ele><time>2026-05-02T11:20:09.594Z</time></trkpt><trkpt lat="46.117335" lon="13.5104817"><ele>164.0</ele><time>2026-05-02T11:20:10.593Z</time></trkpt><trkpt lat="46.1172767" lon="13.51027"><ele>161.0</ele><time>2026-05-02T11:20:11.594Z</time></trkpt><trkpt lat="46.1172133" lon="13.5100467"><ele>158.0</ele><time>2026-05-02T11:20:12.593Z</time></trkpt><trkpt lat="46.1171417" lon="13.5098033"><ele>155.0</ele><time>2026-05-02T11:20:13.594Z</time></trkpt><trkpt lat="46.1170717" lon="13.509555"><ele>154.66666666666666</ele><time>2026-05-02T11:20:14.597Z</time></trkpt><trkpt lat="46.1170017" lon="13.5093117"><ele>154.33333333333334</ele><time>2026-05-02T11:20:15.595Z</time></trkpt><trkpt lat="46.1169283" lon="13.5090617"><ele>154.0</ele><time>2026-05-02T11:20:16.597Z</time></trkpt><trkpt lat="46.1168617" lon="13.5088083"><ele>153.66666666666669</ele><time>2026-05-02T11:20:17.596Z</time></trkpt><trkpt lat="46.1168017" lon="13.5085467"><ele>153.33333333333334</ele><time>2026-05-02T11:20:18.594Z</time></trkpt><trkpt lat="46.1167433" lon="13.5082817"><ele>153.0</ele><time>2026-05-02T11:20:19.595Z</time></trkpt><trkpt lat="46.1166833" lon="13.50803"><ele>152.0</ele><time>2026-05-02T11:20:20.597Z</time></trkpt><trkpt lat="46.1166133" lon="13.507795"><ele>151.0</ele><time>2026-05-02T11:20:21.593Z</time></trkpt><trkpt lat="46.1165283" lon="13.5075683"><ele>150.0</ele><time>2026-05-02T11:20:22.595Z</time></trkpt><trkpt lat="46.1164267" lon="13.5073517"><ele>149.0</ele><time>2026-05-02T11:20:23.593Z</time></trkpt><trkpt lat="46.1163067" lon="13.50715"><ele>148.0</ele><time>2026-05-02T11:20:24.593Z</time></trkpt><trkpt lat="46.11618" lon="13.506965"><ele>147.0</ele><time>2026-05-02T11:20:25.593Z</time></trkpt><trkpt lat="46.11606" lon="13.50679"><ele>147.0</ele><time>2026-05-02T11:20:26.594Z</time></trkpt><trkpt lat="46.115925" lon="13.506645"><ele>147.0</ele><time>2026-05-02T11:20:27.593Z</time></trkpt><trkpt lat="46.1158283" lon="13.5064833"><ele>147.0</ele><time>2026-05-02T11:20:28.593Z</time></trkpt><trkpt lat="46.1157433" lon="13.5063117"><ele>146.25</ele><time>2026-05-02T11:20:29.594Z</time></trkpt><trkpt lat="46.1156633" lon="13.5061367"><ele>145.5</ele><time>2026-05-02T11:20:30.593Z</time></trkpt><trkpt lat="46.115595" lon="13.50595"><ele>144.75</ele><time>2026-05-02T11:20:31.593Z</time></trkpt><trkpt lat="46.11554" lon="13.505755"><ele>144.0</ele><time>2026-05-02T11:20:32.594Z</time></trkpt><trkpt lat="46.1155167" lon="13.5055517"><ele>144.33333333333334</ele><time>2026-05-02T11:20:33.595Z</time></trkpt><trkpt lat="46.1155167" lon="13.5053367"><ele>144.66666666666669</ele><time>2026-05-02T11:20:34.594Z</time></trkpt><trkpt lat="46.1154933" lon="13.5051167"><ele>145.0</ele><time>2026-05-02T11:20:35.595Z</time></trkpt><trkpt lat="46.1154767" lon="13.5048833"><ele>145.0</ele><time>2026-05-02T11:20:36.594Z</time></trkpt><trkpt lat="46.1154617" lon="13.50464"><ele>145.0</ele><time>2026-05-02T11:20:37.594Z</time></trkpt><trkpt lat="46.1154467" lon="13.504385"><ele>145.0</ele><time>2026-05-02T11:20:38.596Z</time></trkpt><trkpt lat="46.115425" lon="13.50412"><ele>144.33333333333334</ele><time>2026-05-02T11:20:39.593Z</time></trkpt><trkpt lat="46.115385" lon="13.503855"><ele>143.66666666666666</ele><time>2026-05-02T11:20:40.595Z</time></trkpt><trkpt lat="46.115335" lon="13.503585"><ele>143.0</ele><time>2026-05-02T11:20:41.593Z</time></trkpt><trkpt lat="46.115275" lon="13.50331"><ele>143.0</ele><time>2026-05-02T11:20:42.594Z</time></trkpt><trkpt lat="46.1152083" lon="13.5030417"><ele>143.0</ele><time>2026-05-02T11:20:43.594Z</time></trkpt><trkpt lat="46.115145" lon="13.502775"><ele>143.0</ele><time>2026-05-02T11:20:44.595Z</time></trkpt><trkpt lat="46.1150883" lon="13.5025183"><ele>143.33333333333331</ele><time>2026-05-02T11:20:45.594Z</time></trkpt><trkpt lat="46.1150233" lon="13.5022767"><ele>143.66666666666666</ele><time>2026-05-02T11:20:46.595Z</time></trkpt><trkpt lat="46.1149633" lon="13.502045"><ele>144.0</ele><time>2026-05-02T11:20:47.594Z</time></trkpt><trkpt lat="46.1149133" lon="13.5018117"><ele>144.0</ele><time>2026-05-02T11:20:48.594Z</time></trkpt><trkpt lat="46.1149083" lon="13.5015767"><ele>144.0</ele><time>2026-05-02T11:20:49.594Z</time></trkpt><trkpt lat="46.1149233" lon="13.5013417"><ele>144.0</ele><time>2026-05-02T11:20:50.594Z</time></trkpt><trkpt lat="46.11497" lon="13.5011167"><ele>144.33333333333334</ele><time>2026-05-02T11:20:51.593Z</time></trkpt><trkpt lat="46.1150367" lon="13.50089"><ele>144.66666666666669</ele><time>2026-05-02T11:20:52.595Z</time></trkpt><trkpt lat="46.1151267" lon="13.50067"><ele>145.0</ele><time>2026-05-02T11:20:53.595Z</time></trkpt><trkpt lat="46.1152417" lon="13.50045"><ele>145.33333333333334</ele><time>2026-05-02T11:20:54.594Z</time></trkpt><trkpt lat="46.11534" lon="13.50022"><ele>145.66666666666666</ele><time>2026-05-02T11:20:55.594Z</time></trkpt><trkpt lat="46.115445" lon="13.4999933"><ele>146.0</ele><time>2026-05-02T11:20:56.594Z</time></trkpt><trkpt lat="46.115535" lon="13.4997517"><ele>146.33333333333331</ele><time>2026-05-02T11:20:57.593Z</time></trkpt><trkpt lat="46.11561" lon="13.4994967"><ele>146.66666666666666</ele><time>2026-05-02T11:20:58.594Z</time></trkpt><trkpt lat="46.1156867" lon="13.4992383"><ele>147.0</ele><time>2026-05-02T11:20:59.594Z</time></trkpt><trkpt lat="46.1157567" lon="13.4989767"><ele>145.33333333333334</ele><time>2026-05-02T11:21:00.595Z</time></trkpt><trkpt lat="46.1158367" lon="13.49873"><ele>143.66666666666669</ele><time>2026-05-02T11:21:01.595Z</time></trkpt><trkpt lat="46.1159017" lon="13.4984917"><ele>142.0</ele><time>2026-05-02T11:21:02.595Z</time></trkpt><trkpt lat="46.11596" lon="13.4982567"><ele>142.0</ele><time>2026-05-02T11:21:03.593Z</time></trkpt><trkpt lat="46.11603" lon="13.498035"><ele>142.0</ele><time>2026-05-02T11:21:04.594Z</time></trkpt><trkpt lat="46.1161083" lon="13.497815"><ele>142.0</ele><time>2026-05-02T11:21:05.595Z</time></trkpt><trkpt lat="46.1162067" lon="13.497605"><ele>140.66666666666669</ele><time>2026-05-02T11:21:06.595Z</time></trkpt><trkpt lat="46.11631" lon="13.4973883"><ele>139.33333333333334</ele><time>2026-05-02T11:21:07.595Z</time></trkpt><trkpt lat="46.11644" lon="13.4971967"><ele>138.0</ele><time>2026-05-02T11:21:08.595Z</time></trkpt><trkpt lat="46.1165933" lon="13.4970317"><ele>138.0</ele><time>2026-05-02T11:21:09.594Z</time></trkpt><trkpt lat="46.1167217" lon="13.49684"><ele>138.0</ele><time>2026-05-02T11:21:10.594Z</time></trkpt><trkpt lat="46.116865" lon="13.496665"><ele>138.0</ele><time>2026-05-02T11:21:11.595Z</time></trkpt><trkpt lat="46.11701" lon="13.4964867"><ele>138.0</ele><time>2026-05-02T11:21:12.594Z</time></trkpt><trkpt lat="46.1171517" lon="13.4963033"><ele>138.0</ele><time>2026-05-02T11:21:13.594Z</time></trkpt><trkpt lat="46.1172933" lon="13.496115"><ele>138.0</ele><time>2026-05-02T11:21:14.594Z</time></trkpt><trkpt lat="46.117435" lon="13.4959333"><ele>139.0</ele><time>2026-05-02T11:21:15.594Z</time></trkpt><trkpt lat="46.1175733" lon="13.4957533"><ele>140.0</ele><time>2026-05-02T11:21:16.595Z</time></trkpt><trkpt lat="46.1177083" lon="13.49557"><ele>141.0</ele><time>2026-05-02T11:21:17.593Z</time></trkpt><trkpt lat="46.11785" lon="13.4953983"><ele>141.66666666666666</ele><time>2026-05-02T11:21:18.594Z</time></trkpt><trkpt lat="46.1179867" lon="13.49522"><ele>142.33333333333331</ele><time>2026-05-02T11:21:19.594Z</time></trkpt><trkpt lat="46.1181183" lon="13.495045"><ele>143.0</ele><time>2026-05-02T11:21:20.595Z</time></trkpt><trkpt lat="46.1182483" lon="13.4948783"><ele>143.33333333333331</ele><time>2026-05-02T11:21:21.596Z</time></trkpt><trkpt lat="46.118365" lon="13.494715"><ele>143.66666666666666</ele><time>2026-05-02T11:21:22.594Z</time></trkpt><trkpt lat="46.11848" lon="13.4945733"><ele>144.0</ele><time>2026-05-02T11:21:23.594Z</time></trkpt><trkpt lat="46.11859" lon="13.4944317"><ele>144.25</ele><time>2026-05-02T11:21:24.594Z</time></trkpt><trkpt lat="46.1186917" lon="13.494295"><ele>144.5</ele><time>2026-05-02T11:21:25.595Z</time></trkpt><trkpt lat="46.11878" lon="13.4941717"><ele>144.75</ele><time>2026-05-02T11:21:26.596Z</time></trkpt><trkpt lat="46.1188617" lon="13.4940617"><ele>145.0</ele><time>2026-05-02T11:21:27.596Z</time></trkpt><trkpt lat="46.1189367" lon="13.4939567"><ele>145.0</ele><time>2026-05-02T11:21:28.595Z</time></trkpt><trkpt lat="46.1190083" lon="13.4938583"><ele>145.0</ele><time>2026-05-02T11:21:29.595Z</time></trkpt><trkpt lat="46.119075" lon="13.493765"><ele>145.0</ele><time>2026-05-02T11:21:30.596Z</time></trkpt><trkpt lat="46.1191533" lon="13.493695"><ele>145.0</ele><time>2026-05-02T11:21:31.596Z</time></trkpt><trkpt lat="46.1192467" lon="13.49365"><ele>145.0</ele><time>2026-05-02T11:21:32.596Z</time></trkpt><trkpt lat="46.1193583" lon="13.4936333"><ele>145.0</ele><time>2026-05-02T11:21:33.596Z</time></trkpt><trkpt lat="46.119485" lon="13.4936717"><ele>145.0</ele><time>2026-05-02T11:21:34.595Z</time></trkpt><trkpt lat="46.1196283" lon="13.4937267"><ele>145.0</ele><time>2026-05-02T11:21:35.596Z</time></trkpt><trkpt lat="46.1197867" lon="13.4937917"><ele>145.0</ele><time>2026-05-02T11:21:36.596Z</time></trkpt><trkpt lat="46.119955" lon="13.493865"><ele>146.0</ele><time>2026-05-02T11:21:37.597Z</time></trkpt><trkpt lat="46.1201333" lon="13.493945"><ele>147.0</ele><time>2026-05-02T11:21:38.595Z</time></trkpt><trkpt lat="46.12032" lon="13.4940233"><ele>148.0</ele><time>2026-05-02T11:21:39.596Z</time></trkpt><trkpt lat="46.120515" lon="13.4941033"><ele>148.0</ele><time>2026-05-02T11:21:40.593Z</time></trkpt><trkpt lat="46.1207083" lon="13.4941817"><ele>148.0</ele><time>2026-05-02T11:21:41.595Z</time></trkpt><trkpt lat="46.1208933" lon="13.4942633"><ele>148.0</ele><time>2026-05-02T11:21:42.595Z</time></trkpt><trkpt lat="46.1210617" lon="13.4943467"><ele>148.33333333333334</ele><time>2026-05-02T11:21:43.593Z</time></trkpt><trkpt lat="46.12122" lon="13.4944233"><ele>148.66666666666666</ele><time>2026-05-02T11:21:44.595Z</time></trkpt><trkpt lat="46.1213683" lon="13.4945083"><ele>149.0</ele><time>2026-05-02T11:21:45.594Z</time></trkpt><trkpt lat="46.1215117" lon="13.4945983"><ele>151.0</ele><time>2026-05-02T11:21:46.593Z</time></trkpt><trkpt lat="46.1216483" lon="13.4946933"><ele>153.0</ele><time>2026-05-02T11:21:47.594Z</time></trkpt><trkpt lat="46.1217783" lon="13.4947983"><ele>155.0</ele><time>2026-05-02T11:21:48.594Z</time></trkpt><trkpt lat="46.1219083" lon="13.494905"><ele>155.0</ele><time>2026-05-02T11:21:49.593Z</time></trkpt><trkpt lat="46.1220433" lon="13.4950133"><ele>155.0</ele><time>2026-05-02T11:21:50.594Z</time></trkpt><trkpt lat="46.1221817" lon="13.49512"><ele>155.0</ele><time>2026-05-02T11:21:51.595Z</time></trkpt><trkpt lat="46.12232" lon="13.4952217"><ele>156.33333333333331</ele><time>2026-05-02T11:21:52.594Z</time></trkpt><trkpt lat="46.12246" lon="13.49532"><ele>157.66666666666666</ele><time>2026-05-02T11:21:53.595Z</time></trkpt><trkpt lat="46.1225967" lon="13.495425"><ele>159.0</ele><time>2026-05-02T11:21:54.594Z</time></trkpt><trkpt lat="46.12274" lon="13.495535"><ele>156.33333333333334</ele><time>2026-05-02T11:21:55.594Z</time></trkpt><trkpt lat="46.122895" lon="13.4956417"><ele>153.66666666666669</ele><time>2026-05-02T11:21:56.594Z</time></trkpt><trkpt lat="46.1230533" lon="13.495755"><ele>151.0</ele><time>2026-05-02T11:21:57.594Z</time></trkpt><trkpt lat="46.12322" lon="13.49586"><ele>153.0</ele><time>2026-05-02T11:21:58.594Z</time></trkpt><trkpt lat="46.1234033" lon="13.495945"><ele>155.0</ele><time>2026-05-02T11:21:59.594Z</time></trkpt><trkpt lat="46.12359" lon="13.49602"><ele>157.0</ele><time>2026-05-02T11:22:00.594Z</time></trkpt><trkpt lat="46.1237783" lon="13.49609"><ele>157.0</ele><time>2026-05-02T11:22:01.596Z</time></trkpt><trkpt lat="46.1239617" lon="13.496165"><ele>157.0</ele><time>2026-05-02T11:22:02.594Z</time></trkpt><trkpt lat="46.1241383" lon="13.4962367"><ele>157.0</ele><time>2026-05-02T11:22:03.595Z</time></trkpt><trkpt lat="46.1243167" lon="13.4963017"><ele>156.33333333333334</ele><time>2026-05-02T11:22:04.595Z</time></trkpt><trkpt lat="46.124505" lon="13.4963217"><ele>155.66666666666666</ele><time>2026-05-02T11:22:05.595Z</time></trkpt><trkpt lat="46.1247033" lon="13.4963183"><ele>155.0</ele><time>2026-05-02T11:22:06.595Z</time></trkpt><trkpt lat="46.1249067" lon="13.4962983"><ele>161.0</ele><time>2026-05-02T11:22:07.595Z</time></trkpt><trkpt lat="46.1251083" lon="13.4962517"><ele>167.0</ele><time>2026-05-02T11:22:08.595Z</time></trkpt><trkpt lat="46.1253033" lon="13.4962183"><ele>173.0</ele><time>2026-05-02T11:22:09.594Z</time></trkpt><trkpt lat="46.1254933" lon="13.4962033"><ele>173.0</ele><time>2026-05-02T11:22:10.594Z</time></trkpt><trkpt lat="46.1256783" lon="13.4962217"><ele>173.0</ele><time>2026-05-02T11:22:11.595Z</time></trkpt><trkpt lat="46.12585" lon="13.4962317"><ele>173.0</ele><time>2026-05-02T11:22:12.593Z</time></trkpt><trkpt lat="46.1260017" lon="13.4962983"><ele>168.6</ele><time>2026-05-02T11:22:13.594Z</time></trkpt><trkpt lat="46.1261367" lon="13.4963817"><ele>164.20000000000002</ele><time>2026-05-02T11:22:14.594Z</time></trkpt><trkpt lat="46.12626" lon="13.496435"><ele>159.8</ele><time>2026-05-02T11:22:15.593Z</time></trkpt><trkpt lat="46.12635" lon="13.4964867"><ele>155.4</ele><time>2026-05-02T11:22:16.593Z</time></trkpt><trkpt lat="46.126415" lon="13.496525"><ele>151.0</ele><time>2026-05-02T11:22:17.593Z</time></trkpt><trkpt lat="46.126495" lon="13.49659"><ele>152.6</ele><time>2026-05-02T11:22:19.595Z</time></trkpt><trkpt lat="46.1265617" lon="13.4966333"><ele>154.2</ele><time>2026-05-02T11:22:21.594Z</time></trkpt><trkpt lat="46.12665" lon="13.4966383"><ele>155.8</ele><time>2026-05-02T11:22:23.595Z</time></trkpt><trkpt lat="46.12674" lon="13.4965367"><ele>157.4</ele><time>2026-05-02T11:22:25.594Z</time></trkpt><trkpt lat="46.1268017" lon="13.496455"><ele>159.0</ele><time>2026-05-02T11:22:26.594Z</time></trkpt><trkpt lat="46.1268783" lon="13.496375"><ele>159.0</ele><time>2026-05-02T11:22:27.594Z</time></trkpt><trkpt lat="46.12697" lon="13.49629"><ele>159.0</ele><time>2026-05-02T11:22:28.593Z</time></trkpt><trkpt lat="46.127065" lon="13.496205"><ele>159.0</ele><time>2026-05-02T11:22:29.594Z</time></trkpt><trkpt lat="46.1271583" lon="13.4961167"><ele>159.0</ele><time>2026-05-02T11:22:30.594Z</time></trkpt><trkpt lat="46.1272417" lon="13.4960383"><ele>159.0</ele><time>2026-05-02T11:22:31.595Z</time></trkpt><trkpt lat="46.1273183" lon="13.4959667"><ele>159.66666666666666</ele><time>2026-05-02T11:22:32.596Z</time></trkpt><trkpt lat="46.1273967" lon="13.4959017"><ele>160.33333333333334</ele><time>2026-05-02T11:22:33.595Z</time></trkpt><trkpt lat="46.127475" lon="13.4958483"><ele>161.0</ele><time>2026-05-02T11:22:34.594Z</time></trkpt><trkpt lat="46.12755" lon="13.4958117"><ele>161.66666666666669</ele><time>2026-05-02T11:22:35.595Z</time></trkpt><trkpt lat="46.127635" lon="13.4957833"><ele>162.33333333333334</ele><time>2026-05-02T11:22:36.595Z</time></trkpt><trkpt lat="46.1277217" lon="13.4957633"><ele>163.0</ele><time>2026-05-02T11:22:37.596Z</time></trkpt><trkpt lat="46.1278067" lon="13.4957533"><ele>163.0</ele><time>2026-05-02T11:22:38.596Z</time></trkpt><trkpt lat="46.127895" lon="13.4957417"><ele>163.0</ele><time>2026-05-02T11:22:39.594Z</time></trkpt><trkpt lat="46.127985" lon="13.49573"><ele>163.0</ele><time>2026-05-02T11:22:40.593Z</time></trkpt><trkpt lat="46.1280783" lon="13.4957117"><ele>163.0</ele><time>2026-05-02T11:22:41.595Z</time></trkpt><trkpt lat="46.1281683" lon="13.4956783"><ele>163.0</ele><time>2026-05-02T11:22:42.594Z</time></trkpt><trkpt lat="46.12826" lon="13.4956417"><ele>163.8</ele><time>2026-05-02T11:22:43.595Z</time></trkpt><trkpt lat="46.1283567" lon="13.4956067"><ele>164.60000000000002</ele><time>2026-05-02T11:22:44.595Z</time></trkpt><trkpt lat="46.1284567" lon="13.4955767"><ele>165.39999999999998</ele><time>2026-05-02T11:22:45.595Z</time></trkpt><trkpt lat="46.1285567" lon="13.4955533"><ele>166.2</ele><time>2026-05-02T11:22:46.595Z</time></trkpt><trkpt lat="46.12866" lon="13.4955333"><ele>167.0</ele><time>2026-05-02T11:22:47.594Z</time></trkpt><trkpt lat="46.1287667" lon="13.49552"><ele>167.0</ele><time>2026-05-02T11:22:48.595Z</time></trkpt><trkpt lat="46.1288717" lon="13.4955117"><ele>167.0</ele><time>2026-05-02T11:22:49.594Z</time></trkpt><trkpt lat="46.1289767" lon="13.4955133"><ele>167.0</ele><time>2026-05-02T11:22:50.594Z</time></trkpt><trkpt lat="46.1290767" lon="13.4955217"><ele>167.0</ele><time>2026-05-02T11:22:51.594Z</time></trkpt><trkpt lat="46.129175" lon="13.495525"><ele>167.0</ele><time>2026-05-02T11:22:52.594Z</time></trkpt><trkpt lat="46.1292683" lon="13.4955383"><ele>167.16666666666666</ele><time>2026-05-02T11:22:53.594Z</time></trkpt><trkpt lat="46.1293517" lon="13.49556"><ele>167.33333333333331</ele><time>2026-05-02T11:22:54.594Z</time></trkpt><trkpt lat="46.1294283" lon="13.4955883"><ele>167.5</ele><time>2026-05-02T11:22:55.595Z</time></trkpt><trkpt lat="46.1295117" lon="13.49563"><ele>167.66666666666666</ele><time>2026-05-02T11:22:56.598Z</time></trkpt><trkpt lat="46.1295833" lon="13.4956717"><ele>167.83333333333334</ele><time>2026-05-02T11:22:57.595Z</time></trkpt><trkpt lat="46.1296583" lon="13.4957183"><ele>168.0</ele><time>2026-05-02T11:22:58.594Z</time></trkpt><trkpt lat="46.1297317" lon="13.49575"><ele>168.0</ele><time>2026-05-02T11:22:59.594Z</time></trkpt><trkpt lat="46.1298067" lon="13.49577"><ele>168.0</ele><time>2026-05-02T11:23:00.595Z</time></trkpt><trkpt lat="46.1298783" lon="13.4957667"><ele>168.0</ele><time>2026-05-02T11:23:01.595Z</time></trkpt><trkpt lat="46.1299483" lon="13.4957367"><ele>168.0</ele><time>2026-05-02T11:23:02.594Z</time></trkpt><trkpt lat="46.1300117" lon="13.4956833"><ele>168.0</ele><time>2026-05-02T11:23:03.595Z</time></trkpt><trkpt lat="46.130075" lon="13.4956133"><ele>168.0</ele><time>2026-05-02T11:23:04.593Z</time></trkpt><trkpt lat="46.1301383" lon="13.4955417"><ele>168.66666666666666</ele><time>2026-05-02T11:23:05.594Z</time></trkpt><trkpt lat="46.1302133" lon="13.4954883"><ele>169.33333333333334</ele><time>2026-05-02T11:23:06.595Z</time></trkpt><trkpt lat="46.13029" lon="13.4954533"><ele>170.0</ele><time>2026-05-02T11:23:07.595Z</time></trkpt><trkpt lat="46.130375" lon="13.4954317"><ele>170.66666666666669</ele><time>2026-05-02T11:23:08.595Z</time></trkpt><trkpt lat="46.1304667" lon="13.4954417"><ele>171.33333333333334</ele><time>2026-05-02T11:23:09.595Z</time></trkpt><trkpt lat="46.1305567" lon="13.49545"><ele>172.0</ele><time>2026-05-02T11:23:10.595Z</time></trkpt><trkpt lat="46.130635" lon="13.49546"><ele>172.0</ele><time>2026-05-02T11:23:11.595Z</time></trkpt><trkpt lat="46.1307067" lon="13.4954933"><ele>172.0</ele><time>2026-05-02T11:23:12.594Z</time></trkpt><trkpt lat="46.1307667" lon="13.49554"><ele>172.0</ele><time>2026-05-02T11:23:13.594Z</time></trkpt><trkpt lat="46.1308267" lon="13.4956133"><ele>172.0</ele><time>2026-05-02T11:23:14.595Z</time></trkpt><trkpt lat="46.1308883" lon="13.4956933"><ele>172.0</ele><time>2026-05-02T11:23:15.595Z</time></trkpt><trkpt lat="46.1309483" lon="13.49577"><ele>172.0</ele><time>2026-05-02T11:23:16.594Z</time></trkpt><trkpt lat="46.1309983" lon="13.4958483"><ele>172.83333333333334</ele><time>2026-05-02T11:23:17.594Z</time></trkpt><trkpt lat="46.1310417" lon="13.4959233"><ele>173.66666666666669</ele><time>2026-05-02T11:23:18.594Z</time></trkpt><trkpt lat="46.1310883" lon="13.495985"><ele>174.5</ele><time>2026-05-02T11:23:19.594Z</time></trkpt><trkpt lat="46.131155" lon="13.496035"><ele>175.33333333333334</ele><time>2026-05-02T11:23:20.595Z</time></trkpt><trkpt lat="46.1312317" lon="13.496075"><ele>176.16666666666666</ele><time>2026-05-02T11:23:21.594Z</time></trkpt><trkpt lat="46.1313167" lon="13.4961083"><ele>177.0</ele><time>2026-05-02T11:23:22.595Z</time></trkpt><trkpt lat="46.13141" lon="13.4961217"><ele>177.0</ele><time>2026-05-02T11:23:23.594Z</time></trkpt><trkpt lat="46.1315033" lon="13.49612"><ele>177.0</ele><time>2026-05-02T11:23:24.594Z</time></trkpt><trkpt lat="46.1315933" lon="13.4961133"><ele>177.0</ele><time>2026-05-02T11:23:25.595Z</time></trkpt><trkpt lat="46.1316767" lon="13.4960917"><ele>177.0</ele><time>2026-05-02T11:23:26.596Z</time></trkpt><trkpt lat="46.1317567" lon="13.4960367"><ele>177.0</ele><time>2026-05-02T11:23:27.595Z</time></trkpt><trkpt lat="46.131825" lon="13.495955"><ele>177.0</ele><time>2026-05-02T11:23:28.594Z</time></trkpt><trkpt lat="46.13188" lon="13.4958517"><ele>177.39999999999998</ele><time>2026-05-02T11:23:29.594Z</time></trkpt><trkpt lat="46.1319383" lon="13.4957183"><ele>177.79999999999998</ele><time>2026-05-02T11:23:30.596Z</time></trkpt><trkpt lat="46.1319833" lon="13.4955917"><ele>178.2</ele><time>2026-05-02T11:23:31.595Z</time></trkpt><trkpt lat="46.1320133" lon="13.49549"><ele>178.6</ele><time>2026-05-02T11:23:32.594Z</time></trkpt><trkpt lat="46.1319767" lon="13.4953767"><ele>179.0</ele><time>2026-05-02T11:23:34.595Z</time></trkpt><trkpt lat="46.1318933" lon="13.4953667"><ele>182.75</ele><time>2026-05-02T11:23:35.596Z</time></trkpt><trkpt lat="46.1318033" lon="13.495335"><ele>186.5</ele><time>2026-05-02T11:23:36.594Z</time></trkpt><trkpt lat="46.1316933" lon="13.4953117"><ele>190.25</ele><time>2026-05-02T11:23:37.596Z</time></trkpt><trkpt lat="46.1315383" lon="13.495315"><ele>194.0</ele><time>2026-05-02T11:23:38.598Z</time></trkpt><trkpt lat="46.131415" lon="13.495315"><ele>194.0</ele><time>2026-05-02T11:23:39.594Z</time></trkpt><trkpt lat="46.1313033" lon="13.49532"><ele>194.0</ele><time>2026-05-02T11:23:40.596Z</time></trkpt><trkpt lat="46.1312117" lon="13.495295"><ele>194.0</ele><time>2026-05-02T11:23:41.593Z</time></trkpt><trkpt lat="46.1311283" lon="13.495255"><ele>194.0</ele><time>2026-05-02T11:23:42.594Z</time></trkpt><trkpt lat="46.131045" lon="13.49519"><ele>194.0</ele><time>2026-05-02T11:23:43.595Z</time></trkpt><trkpt lat="46.13097" lon="13.4950717"><ele>194.0</ele><time>2026-05-02T11:23:44.593Z</time></trkpt><trkpt lat="46.1309033" lon="13.4949617"><ele>194.0</ele><time>2026-05-02T11:23:45.594Z</time></trkpt><trkpt lat="46.1308317" lon="13.4948683"><ele>194.0</ele><time>2026-05-02T11:23:46.593Z</time></trkpt><trkpt lat="46.1307417" lon="13.49482"><ele>194.0</ele><time>2026-05-02T11:23:47.593Z</time></trkpt><trkpt lat="46.1306367" lon="13.4948083"><ele>194.0</ele><time>2026-05-02T11:23:48.593Z</time></trkpt><trkpt lat="46.1305183" lon="13.494815"><ele>193.0</ele><time>2026-05-02T11:23:49.594Z</time></trkpt><trkpt lat="46.1304183" lon="13.4948167"><ele>192.0</ele><time>2026-05-02T11:23:50.593Z</time></trkpt><trkpt lat="46.1303433" lon="13.4947933"><ele>191.0</ele><time>2026-05-02T11:23:51.593Z</time></trkpt><trkpt lat="46.130255" lon="13.4946817"><ele>190.0</ele><time>2026-05-02T11:23:53.594Z</time></trkpt><trkpt lat="46.130235" lon="13.494585"><ele>189.0</ele><time>2026-05-02T11:23:54.593Z</time></trkpt><trkpt lat="46.13022" lon="13.4944617"><ele>192.33333333333334</ele><time>2026-05-02T11:23:55.593Z</time></trkpt><trkpt lat="46.1301967" lon="13.4943467"><ele>195.66666666666669</ele><time>2026-05-02T11:23:56.593Z</time></trkpt><trkpt lat="46.1301583" lon="13.4942483"><ele>199.0</ele><time>2026-05-02T11:23:57.594Z</time></trkpt><trkpt lat="46.130115" lon="13.4941667"><ele>202.33333333333334</ele><time>2026-05-02T11:23:58.593Z</time></trkpt><trkpt lat="46.1300467" lon="13.494125"><ele>205.66666666666669</ele><time>2026-05-02T11:23:59.594Z</time></trkpt><trkpt lat="46.129935" lon="13.4941367"><ele>209.0</ele><time>2026-05-02T11:24:00.595Z</time></trkpt><trkpt lat="46.129825" lon="13.4941533"><ele>209.00000000000003</ele><time>2026-05-02T11:24:01.593Z</time></trkpt><trkpt lat="46.1297267" lon="13.4941667"><ele>209.0</ele><time>2026-05-02T11:24:02.594Z</time></trkpt><trkpt lat="46.1296567" lon="13.4941517"><ele>209.0</ele><time>2026-05-02T11:24:03.593Z</time></trkpt><trkpt lat="46.129625" lon="13.49406"><ele>209.0</ele><time>2026-05-02T11:24:05.593Z</time></trkpt><trkpt lat="46.1297183" lon="13.4939633"><ele>209.00000000000003</ele><time>2026-05-02T11:24:07.596Z</time></trkpt><trkpt lat="46.1298017" lon="13.4939083"><ele>209.0</ele><time>2026-05-02T11:24:08.594Z</time></trkpt><trkpt lat="46.1298967" lon="13.4938433"><ele>209.0</ele><time>2026-05-02T11:24:09.593Z</time></trkpt><trkpt lat="46.13" lon="13.49378"><ele>209.0</ele><time>2026-05-02T11:24:10.594Z</time></trkpt><trkpt lat="46.13011" lon="13.49372"><ele>209.0</ele><time>2026-05-02T11:24:11.597Z</time></trkpt><trkpt lat="46.13021" lon="13.49369"><ele>209.0</ele><time>2026-05-02T11:24:12.594Z</time></trkpt><trkpt lat="46.1302933" lon="13.493675"><ele>209.0</ele><time>2026-05-02T11:24:13.594Z</time></trkpt><trkpt lat="46.1303667" lon="13.4936917"><ele>212.50000000000003</ele><time>2026-05-02T11:24:14.594Z</time></trkpt><trkpt lat="46.1304383" lon="13.493685"><ele>216.0</ele><time>2026-05-02T11:24:15.593Z</time></trkpt><trkpt lat="46.13051" lon="13.49365"><ele>219.5</ele><time>2026-05-02T11:24:16.593Z</time></trkpt><trkpt lat="46.1305617" lon="13.4935467"><ele>223.0</ele><time>2026-05-02T11:24:17.593Z</time></trkpt><trkpt lat="46.1306033" lon="13.4934267"><ele>226.50000000000003</ele><time>2026-05-02T11:24:18.593Z</time></trkpt><trkpt lat="46.130635" lon="13.49331"><ele>230.0</ele><time>2026-05-02T11:24:19.593Z</time></trkpt><trkpt lat="46.130665" lon="13.4931933"><ele>230.00000000000003</ele><time>2026-05-02T11:24:20.597Z</time></trkpt><trkpt lat="46.130705" lon="13.493075"><ele>230.0</ele><time>2026-05-02T11:24:21.593Z</time></trkpt><trkpt lat="46.1307417" lon="13.492955"><ele>230.0</ele><time>2026-05-02T11:24:22.597Z</time></trkpt><trkpt lat="46.13078" lon="13.49286"><ele>230.0</ele><time>2026-05-02T11:24:23.594Z</time></trkpt><trkpt lat="46.13084" lon="13.4927983"><ele>230.00000000000003</ele><time>2026-05-02T11:24:25.594Z</time></trkpt><trkpt lat="46.1309083" lon="13.4927933"><ele>230.0</ele><time>2026-05-02T11:24:27.593Z</time></trkpt><trkpt lat="46.1310267" lon="13.4927767"><ele>229.16666666666669</ele><time>2026-05-02T11:24:29.594Z</time></trkpt><trkpt lat="46.1310867" lon="13.4927367"><ele>228.33333333333334</ele><time>2026-05-02T11:24:30.594Z</time></trkpt><trkpt lat="46.1311467" lon="13.4926783"><ele>227.5</ele><time>2026-05-02T11:24:31.594Z</time></trkpt><trkpt lat="46.1312083" lon="13.492615"><ele>226.66666666666669</ele><time>2026-05-02T11:24:32.593Z</time></trkpt><trkpt lat="46.1312667" lon="13.492565"><ele>225.83333333333334</ele><time>2026-05-02T11:24:33.594Z</time></trkpt><trkpt lat="46.1313767" lon="13.4925667"><ele>225.0</ele><time>2026-05-02T11:24:35.595Z</time></trkpt><trkpt lat="46.131485" lon="13.4926767"><ele>225.0</ele><time>2026-05-02T11:24:37.594Z</time></trkpt><trkpt lat="46.1315433" lon="13.492755"><ele>225.0</ele><time>2026-05-02T11:24:38.595Z</time></trkpt><trkpt lat="46.1316067" lon="13.4928367"><ele>225.0</ele><time>2026-05-02T11:24:39.593Z</time></trkpt><trkpt lat="46.1316683" lon="13.4929233"><ele>225.0</ele><time>2026-05-02T11:24:40.594Z</time></trkpt><trkpt lat="46.1317183" lon="13.493"><ele>225.0</ele><time>2026-05-02T11:24:41.594Z</time></trkpt><trkpt lat="46.1317717" lon="13.4930667"><ele>225.0</ele><time>2026-05-02T11:24:42.593Z</time></trkpt><trkpt lat="46.131835" lon="13.4931283"><ele>227.83333333333334</ele><time>2026-05-02T11:24:43.594Z</time></trkpt><trkpt lat="46.1319067" lon="13.4931783"><ele>230.66666666666669</ele><time>2026-05-02T11:24:44.593Z</time></trkpt><trkpt lat="46.1319833" lon="13.4932183"><ele>233.5</ele><time>2026-05-02T11:24:45.593Z</time></trkpt><trkpt lat="46.13206" lon="13.49324"><ele>236.33333333333334</ele><time>2026-05-02T11:24:46.593Z</time></trkpt><trkpt lat="46.1321333" lon="13.493255"><ele>239.16666666666669</ele><time>2026-05-02T11:24:47.593Z</time></trkpt><trkpt lat="46.1321967" lon="13.4932783"><ele>242.0</ele><time>2026-05-02T11:24:48.594Z</time></trkpt><trkpt lat="46.1323083" lon="13.4933717"><ele>242.0</ele><time>2026-05-02T11:24:50.598Z</time></trkpt><trkpt lat="46.1323617" lon="13.4934483"><ele>242.0</ele><time>2026-05-02T11:24:51.594Z</time></trkpt><trkpt lat="46.13243" lon="13.4935417"><ele>242.0</ele><time>2026-05-02T11:24:52.595Z</time></trkpt><trkpt lat="46.1325033" lon="13.493645"><ele>242.0</ele><time>2026-05-02T11:24:53.593Z</time></trkpt><trkpt lat="46.1325817" lon="13.4937617"><ele>242.0</ele><time>2026-05-02T11:24:54.594Z</time></trkpt><trkpt lat="46.1326733" lon="13.4938817"><ele>239.0</ele><time>2026-05-02T11:24:55.595Z</time></trkpt><trkpt lat="46.1327633" lon="13.4939967"><ele>236.0</ele><time>2026-05-02T11:24:56.593Z</time></trkpt><trkpt lat="46.1328433" lon="13.4941"><ele>233.0</ele><time>2026-05-02T11:24:57.594Z</time></trkpt><trkpt lat="46.132915" lon="13.4941933"><ele>230.0</ele><time>2026-05-02T11:24:58.594Z</time></trkpt><trkpt lat="46.132965" lon="13.4943033"><ele>227.0</ele><time>2026-05-02T11:24:59.594Z</time></trkpt><trkpt lat="46.1330367" lon="13.4943667"><ele>227.00000000000003</ele><time>2026-05-02T11:25:00.593Z</time></trkpt><trkpt lat="46.133115" lon="13.494405"><ele>227.0</ele><time>2026-05-02T11:25:01.594Z</time></trkpt><trkpt lat="46.1331633" lon="13.494475"><ele>227.0</ele><time>2026-05-02T11:25:02.594Z</time></trkpt><trkpt lat="46.13321" lon="13.49454"><ele>227.0</ele><time>2026-05-02T11:25:03.594Z</time></trkpt><trkpt lat="46.1332467" lon="13.4946167"><ele>227.00000000000003</ele><time>2026-05-02T11:25:04.594Z</time></trkpt><trkpt lat="46.1332717" lon="13.4947033"><ele>227.0</ele><time>2026-05-02T11:25:05.594Z</time></trkpt><trkpt lat="46.133295" lon="13.4948783"><ele>230.66666666666669</ele><time>2026-05-02T11:25:07.594Z</time></trkpt><trkpt lat="46.133325" lon="13.49497"><ele>234.33333333333334</ele><time>2026-05-02T11:25:08.595Z</time></trkpt><trkpt lat="46.1333667" lon="13.4950517"><ele>238.0</ele><time>2026-05-02T11:25:09.597Z</time></trkpt><trkpt lat="46.1334217" lon="13.495125"><ele>241.66666666666669</ele><time>2026-05-02T11:25:10.594Z</time></trkpt><trkpt lat="46.1334817" lon="13.495205"><ele>245.33333333333334</ele><time>2026-05-02T11:25:11.594Z</time></trkpt><trkpt lat="46.133545" lon="13.4952967"><ele>249.0</ele><time>2026-05-02T11:25:12.594Z</time></trkpt><trkpt lat="46.133605" lon="13.495395"><ele>247.5</ele><time>2026-05-02T11:25:13.594Z</time></trkpt><trkpt lat="46.1336433" lon="13.4954967"><ele>246.0</ele><time>2026-05-02T11:25:14.596Z</time></trkpt><trkpt lat="46.1336583" lon="13.4956017"><ele>244.5</ele><time>2026-05-02T11:25:15.593Z</time></trkpt><trkpt lat="46.133675" lon="13.4957183"><ele>243.0</ele><time>2026-05-02T11:25:16.594Z</time></trkpt><trkpt lat="46.1336883" lon="13.49585"><ele>241.5</ele><time>2026-05-02T11:25:17.595Z</time></trkpt><trkpt lat="46.1337117" lon="13.4959683"><ele>240.0</ele><time>2026-05-02T11:25:18.595Z</time></trkpt><trkpt lat="46.1337383" lon="13.49609"><ele>240.0</ele><time>2026-05-02T11:25:19.595Z</time></trkpt><trkpt lat="46.1337633" lon="13.496215"><ele>240.0</ele><time>2026-05-02T11:25:20.595Z</time></trkpt><trkpt lat="46.133795" lon="13.4963467"><ele>240.0</ele><time>2026-05-02T11:25:21.594Z</time></trkpt><trkpt lat="46.13382" lon="13.4964767"><ele>240.0</ele><time>2026-05-02T11:25:22.594Z</time></trkpt><trkpt lat="46.1338383" lon="13.49659"><ele>240.0</ele><time>2026-05-02T11:25:23.595Z</time></trkpt><trkpt lat="46.1338433" lon="13.4966883"><ele>240.0</ele><time>2026-05-02T11:25:24.594Z</time></trkpt><trkpt lat="46.1338467" lon="13.4967883"><ele>238.4</ele><time>2026-05-02T11:25:25.594Z</time></trkpt><trkpt lat="46.1338633" lon="13.4968917"><ele>236.8</ele><time>2026-05-02T11:25:26.594Z</time></trkpt><trkpt lat="46.1338883" lon="13.4970083"><ele>235.2</ele><time>2026-05-02T11:25:27.593Z</time></trkpt><trkpt lat="46.13392" lon="13.4971283"><ele>233.6</ele><time>2026-05-02T11:25:28.595Z</time></trkpt><trkpt lat="46.1339717" lon="13.497255"><ele>232.0</ele><time>2026-05-02T11:25:29.594Z</time></trkpt><trkpt lat="46.1340417" lon="13.4973917"><ele>232.39999999999998</ele><time>2026-05-02T11:25:30.593Z</time></trkpt><trkpt lat="46.1341183" lon="13.4975283"><ele>232.79999999999998</ele><time>2026-05-02T11:25:31.594Z</time></trkpt><trkpt lat="46.1341933" lon="13.4976567"><ele>233.2</ele><time>2026-05-02T11:25:32.595Z</time></trkpt><trkpt lat="46.134265" lon="13.497765"><ele>233.6</ele><time>2026-05-02T11:25:33.595Z</time></trkpt><trkpt lat="46.134335" lon="13.497865"><ele>234.0</ele><time>2026-05-02T11:25:34.593Z</time></trkpt><trkpt lat="46.1344" lon="13.4979583"><ele>234.0</ele><time>2026-05-02T11:25:35.595Z</time></trkpt><trkpt lat="46.13447" lon="13.4980433"><ele>233.99999999999997</ele><time>2026-05-02T11:25:36.594Z</time></trkpt><trkpt lat="46.1345433" lon="13.4981183"><ele>233.99999999999997</ele><time>2026-05-02T11:25:37.594Z</time></trkpt><trkpt lat="46.1346317" lon="13.4981817"><ele>234.0</ele><time>2026-05-02T11:25:38.595Z</time></trkpt><trkpt lat="46.134715" lon="13.4982267"><ele>234.0</ele><time>2026-05-02T11:25:39.593Z</time></trkpt><trkpt lat="46.1347967" lon="13.498255"><ele>237.0</ele><time>2026-05-02T11:25:40.593Z</time></trkpt><trkpt lat="46.1348883" lon="13.49827"><ele>240.0</ele><time>2026-05-02T11:25:41.595Z</time></trkpt><trkpt lat="46.1349733" lon="13.4982817"><ele>243.0</ele><time>2026-05-02T11:25:42.595Z</time></trkpt><trkpt lat="46.13506" lon="13.49829"><ele>246.0</ele><time>2026-05-02T11:25:43.594Z</time></trkpt><trkpt lat="46.1351383" lon="13.4983083"><ele>249.0</ele><time>2026-05-02T11:25:44.595Z</time></trkpt><trkpt lat="46.1352067" lon="13.4983367"><ele>252.0</ele><time>2026-05-02T11:25:45.595Z</time></trkpt><trkpt lat="46.135265" lon="13.4983933"><ele>252.0</ele><time>2026-05-02T11:25:46.593Z</time></trkpt><trkpt lat="46.135335" lon="13.4985167"><ele>252.0</ele><time>2026-05-02T11:25:48.593Z</time></trkpt><trkpt lat="46.1353583" lon="13.4986117"><ele>252.0</ele><time>2026-05-02T11:25:49.593Z</time></trkpt><trkpt lat="46.1353867" lon="13.4987867"><ele>252.0</ele><time>2026-05-02T11:25:51.593Z</time></trkpt><trkpt lat="46.1354167" lon="13.498885"><ele>252.0</ele><time>2026-05-02T11:25:52.595Z</time></trkpt><trkpt lat="46.135465" lon="13.49899"><ele>252.6</ele><time>2026-05-02T11:25:53.595Z</time></trkpt><trkpt lat="46.1355267" lon="13.4991017"><ele>253.2</ele><time>2026-05-02T11:25:54.594Z</time></trkpt><trkpt lat="46.1356017" lon="13.4992117"><ele>253.8</ele><time>2026-05-02T11:25:55.595Z</time></trkpt><trkpt lat="46.1356767" lon="13.4993267"><ele>254.4</ele><time>2026-05-02T11:25:56.594Z</time></trkpt><trkpt lat="46.1357583" lon="13.4994333"><ele>255.0</ele><time>2026-05-02T11:25:57.594Z</time></trkpt><trkpt lat="46.1358283" lon="13.4995217"><ele>255.0</ele><time>2026-05-02T11:25:58.595Z</time></trkpt><trkpt lat="46.1358917" lon="13.4995767"><ele>255.00000000000003</ele><time>2026-05-02T11:25:59.595Z</time></trkpt><trkpt lat="46.1359567" lon="13.4996133"><ele>255.0</ele><time>2026-05-02T11:26:00.595Z</time></trkpt><trkpt lat="46.13602" lon="13.4996383"><ele>255.0</ele><time>2026-05-02T11:26:01.596Z</time></trkpt><trkpt lat="46.1360933" lon="13.499645"><ele>255.00000000000003</ele><time>2026-05-02T11:26:02.595Z</time></trkpt><trkpt lat="46.13617" lon="13.499635"><ele>255.0</ele><time>2026-05-02T11:26:03.595Z</time></trkpt><trkpt lat="46.1362517" lon="13.4996233"><ele>255.0</ele><time>2026-05-02T11:26:04.595Z</time></trkpt><trkpt lat="46.136325" lon="13.4996033"><ele>255.0</ele><time>2026-05-02T11:26:05.594Z</time></trkpt><trkpt lat="46.136415" lon="13.49957"><ele>255.0</ele><time>2026-05-02T11:26:07.595Z</time></trkpt><trkpt lat="46.1365" lon="13.4996083"><ele>255.0</ele><time>2026-05-02T11:26:09.594Z</time></trkpt><trkpt lat="46.1366083" lon="13.4996717"><ele>255.0</ele><time>2026-05-02T11:26:11.595Z</time></trkpt><trkpt lat="46.136685" lon="13.4996883"><ele>255.0</ele><time>2026-05-02T11:26:12.593Z</time></trkpt><trkpt lat="46.1367617" lon="13.4997017"><ele>251.6</ele><time>2026-05-02T11:26:13.595Z</time></trkpt><trkpt lat="46.1368467" lon="13.499725"><ele>248.2</ele><time>2026-05-02T11:26:14.595Z</time></trkpt><trkpt lat="46.136925" lon="13.4997617"><ele>244.8</ele><time>2026-05-02T11:26:15.594Z</time></trkpt><trkpt lat="46.13702" lon="13.4998083"><ele>241.4</ele><time>2026-05-02T11:26:16.595Z</time></trkpt><trkpt lat="46.1371133" lon="13.499875"><ele>238.0</ele><time>2026-05-02T11:26:17.597Z</time></trkpt><trkpt lat="46.1372167" lon="13.49994"><ele>238.0</ele><time>2026-05-02T11:26:18.595Z</time></trkpt><trkpt lat="46.1373267" lon="13.5000083"><ele>238.0</ele><time>2026-05-02T11:26:19.594Z</time></trkpt><trkpt lat="46.1374317" lon="13.5000817"><ele>238.0</ele><time>2026-05-02T11:26:20.594Z</time></trkpt><trkpt lat="46.13752" lon="13.5001517"><ele>238.0</ele><time>2026-05-02T11:26:21.596Z</time></trkpt><trkpt lat="46.137585" lon="13.50021"><ele>238.0</ele><time>2026-05-02T11:26:22.596Z</time></trkpt><trkpt lat="46.1376417" lon="13.5002733"><ele>237.99999999999997</ele><time>2026-05-02T11:26:23.595Z</time></trkpt><trkpt lat="46.1376767" lon="13.500365"><ele>238.0</ele><time>2026-05-02T11:26:24.598Z</time></trkpt><trkpt lat="46.1377067" lon="13.500475"><ele>238.0</ele><time>2026-05-02T11:26:25.594Z</time></trkpt><trkpt lat="46.13774" lon="13.5005883"><ele>238.0</ele><time>2026-05-02T11:26:26.594Z</time></trkpt><trkpt lat="46.1377783" lon="13.5007083"><ele>237.99999999999997</ele><time>2026-05-02T11:26:27.594Z</time></trkpt><trkpt lat="46.1378183" lon="13.50081"><ele>238.0</ele><time>2026-05-02T11:26:28.594Z</time></trkpt><trkpt lat="46.13786" lon="13.5008933"><ele>237.99999999999997</ele><time>2026-05-02T11:26:29.595Z</time></trkpt><trkpt lat="46.13791" lon="13.5009783"><ele>238.0</ele><time>2026-05-02T11:26:30.594Z</time></trkpt><trkpt lat="46.1379717" lon="13.501075"><ele>238.0</ele><time>2026-05-02T11:26:31.593Z</time></trkpt><trkpt lat="46.1380317" lon="13.5011717"><ele>238.0</ele><time>2026-05-02T11:26:32.597Z</time></trkpt><trkpt lat="46.1380867" lon="13.501255"><ele>237.99999999999997</ele><time>2026-05-02T11:26:33.593Z</time></trkpt><trkpt lat="46.1381417" lon="13.501325"><ele>238.0</ele><time>2026-05-02T11:26:34.594Z</time></trkpt><trkpt lat="46.1381933" lon="13.5013817"><ele>241.42857142857144</ele><time>2026-05-02T11:26:35.594Z</time></trkpt><trkpt lat="46.1382533" lon="13.501425"><ele>244.85714285714286</ele><time>2026-05-02T11:26:36.595Z</time></trkpt><trkpt lat="46.1383217" lon="13.50146"><ele>248.28571428571428</ele><time>2026-05-02T11:26:37.594Z</time></trkpt><trkpt lat="46.138395" lon="13.5014967"><ele>251.71428571428572</ele><time>2026-05-02T11:26:38.594Z</time></trkpt><trkpt lat="46.1384617" lon="13.501525"><ele>255.14285714285717</ele><time>2026-05-02T11:26:39.594Z</time></trkpt><trkpt lat="46.138525" lon="13.5015517"><ele>258.57142857142856</ele><time>2026-05-02T11:26:40.594Z</time></trkpt><trkpt lat="46.1385833" lon="13.5015933"><ele>262.0</ele><time>2026-05-02T11:26:41.594Z</time></trkpt><trkpt lat="46.1386467" lon="13.5016533"><ele>262.0</ele><time>2026-05-02T11:26:42.595Z</time></trkpt><trkpt lat="46.1387083" lon="13.501725"><ele>262.0</ele><time>2026-05-02T11:26:43.594Z</time></trkpt><trkpt lat="46.138765" lon="13.5018"><ele>262.0</ele><time>2026-05-02T11:26:44.594Z</time></trkpt><trkpt lat="46.1388167" lon="13.5018817"><ele>262.0</ele><time>2026-05-02T11:26:45.594Z</time></trkpt><trkpt lat="46.138865" lon="13.501965"><ele>262.0</ele><time>2026-05-02T11:26:46.594Z</time></trkpt><trkpt lat="46.1389167" lon="13.5020667"><ele>262.0</ele><time>2026-05-02T11:26:47.595Z</time></trkpt><trkpt lat="46.138965" lon="13.5021683"><ele>260.14285714285717</ele><time>2026-05-02T11:26:48.595Z</time></trkpt><trkpt lat="46.1390033" lon="13.50226"><ele>258.28571428571433</ele><time>2026-05-02T11:26:49.594Z</time></trkpt><trkpt lat="46.13903" lon="13.502345"><ele>256.42857142857144</ele><time>2026-05-02T11:26:50.596Z</time></trkpt><trkpt lat="46.1390583" lon="13.5024317"><ele>254.57142857142856</ele><time>2026-05-02T11:26:51.594Z</time></trkpt><trkpt lat="46.1390967" lon="13.502515"><ele>252.7142857142857</ele><time>2026-05-02T11:26:52.595Z</time></trkpt><trkpt lat="46.13914" lon="13.5025867"><ele>250.85714285714283</ele><time>2026-05-02T11:26:53.594Z</time></trkpt><trkpt lat="46.1391867" lon="13.5026533"><ele>249.0</ele><time>2026-05-02T11:26:54.594Z</time></trkpt><trkpt lat="46.1393067" lon="13.5027233"><ele>254.39999999999998</ele><time>2026-05-02T11:26:56.594Z</time></trkpt><trkpt lat="46.1393833" lon="13.5027417"><ele>259.79999999999995</ele><time>2026-05-02T11:26:57.594Z</time></trkpt><trkpt lat="46.1394733" lon="13.5027433"><ele>265.20000000000005</ele><time>2026-05-02T11:26:58.595Z</time></trkpt><trkpt lat="46.1395717" lon="13.5027417"><ele>270.6</ele><time>2026-05-02T11:26:59.597Z</time></trkpt><trkpt lat="46.1396917" lon="13.50274"><ele>276.0</ele><time>2026-05-02T11:27:00.594Z</time></trkpt><trkpt lat="46.139805" lon="13.50273"><ele>280.0</ele><time>2026-05-02T11:27:01.595Z</time></trkpt><trkpt lat="46.13991" lon="13.5027267"><ele>284.0</ele><time>2026-05-02T11:27:02.596Z</time></trkpt><trkpt lat="46.1400217" lon="13.5027233"><ele>288.0</ele><time>2026-05-02T11:27:03.595Z</time></trkpt><trkpt lat="46.1401367" lon="13.50272"><ele>292.0</ele><time>2026-05-02T11:27:04.595Z</time></trkpt><trkpt lat="46.1402517" lon="13.50271"><ele>296.0</ele><time>2026-05-02T11:27:05.595Z</time></trkpt><trkpt lat="46.1403567" lon="13.5027"><ele>296.0</ele><time>2026-05-02T11:27:06.593Z</time></trkpt><trkpt lat="46.140465" lon="13.50268"><ele>296.0</ele><time>2026-05-02T11:27:07.595Z</time></trkpt><trkpt lat="46.1405667" lon="13.5026517"><ele>296.0</ele><time>2026-05-02T11:27:08.595Z</time></trkpt><trkpt lat="46.1406583" lon="13.50263"><ele>296.0</ele><time>2026-05-02T11:27:09.594Z</time></trkpt><trkpt lat="46.1407383" lon="13.5026067"><ele>296.0</ele><time>2026-05-02T11:27:10.595Z</time></trkpt><trkpt lat="46.1408067" lon="13.5025817"><ele>296.33333333333337</ele><time>2026-05-02T11:27:11.595Z</time></trkpt><trkpt lat="46.1408717" lon="13.50254"><ele>296.6666666666667</ele><time>2026-05-02T11:27:12.595Z</time></trkpt><trkpt lat="46.1409333" lon="13.5024917"><ele>297.0</ele><time>2026-05-02T11:27:13.594Z</time></trkpt><trkpt lat="46.140995" lon="13.5024633"><ele>297.3333333333333</ele><time>2026-05-02T11:27:14.595Z</time></trkpt><trkpt lat="46.14111" lon="13.5024517"><ele>297.66666666666663</ele><time>2026-05-02T11:27:16.595Z</time></trkpt><trkpt lat="46.141225" lon="13.5025117"><ele>298.0</ele><time>2026-05-02T11:27:18.594Z</time></trkpt><trkpt lat="46.1413" lon="13.5025317"><ele>298.0</ele><time>2026-05-02T11:27:19.594Z</time></trkpt><trkpt lat="46.1413933" lon="13.5025367"><ele>298.0</ele><time>2026-05-02T11:27:20.594Z</time></trkpt><trkpt lat="46.1415017" lon="13.5025433"><ele>298.0</ele><time>2026-05-02T11:27:21.595Z</time></trkpt><trkpt lat="46.14161" lon="13.5025583"><ele>298.0</ele><time>2026-05-02T11:27:22.596Z</time></trkpt><trkpt lat="46.1417167" lon="13.5025617"><ele>298.0</ele><time>2026-05-02T11:27:23.594Z</time></trkpt><trkpt lat="46.1418217" lon="13.50258"><ele>300.0</ele><time>2026-05-02T11:27:24.593Z</time></trkpt><trkpt lat="46.1419283" lon="13.5025717"><ele>302.0</ele><time>2026-05-02T11:27:25.593Z</time></trkpt><trkpt lat="46.1420333" lon="13.5025683"><ele>304.0</ele><time>2026-05-02T11:27:26.595Z</time></trkpt><trkpt lat="46.1421333" lon="13.502555"><ele>306.0</ele><time>2026-05-02T11:27:27.594Z</time></trkpt><trkpt lat="46.142225" lon="13.502545"><ele>308.0</ele><time>2026-05-02T11:27:28.594Z</time></trkpt><trkpt lat="46.14233" lon="13.50254"><ele>309.5</ele><time>2026-05-02T11:27:29.595Z</time></trkpt><trkpt lat="46.1424283" lon="13.5025117"><ele>311.0</ele><time>2026-05-02T11:27:30.592Z</time></trkpt><trkpt lat="46.14252" lon="13.5024867"><ele>312.5</ele><time>2026-05-02T11:27:31.594Z</time></trkpt><trkpt lat="46.1425933" lon="13.50247"><ele>314.0</ele><time>2026-05-02T11:27:32.596Z</time></trkpt><trkpt lat="46.1426567" lon="13.50246"><ele>315.5</ele><time>2026-05-02T11:27:33.593Z</time></trkpt><trkpt lat="46.1427467" lon="13.50245"><ele>317.0</ele><time>2026-05-02T11:27:35.593Z</time></trkpt><trkpt lat="46.1427333" lon="13.502345"><ele>317.0</ele><time>2026-05-02T11:27:39.593Z</time></trkpt><trkpt lat="46.142665" lon="13.502225"><ele>317.0</ele><time>2026-05-02T11:27:41.594Z</time></trkpt><trkpt lat="46.1426033" lon="13.50211"><ele>317.0</ele><time>2026-05-02T11:27:43.594Z</time></trkpt><trkpt lat="46.1426617" lon="13.5020583"><ele>317.0</ele><time>2026-05-02T11:27:54.598Z</time></trkpt><trkpt lat="46.1427267" lon="13.50207"><ele>317.0</ele><time>2026-05-02T11:27:56.597Z</time></trkpt><trkpt lat="46.1428567" lon="13.5020117"><ele>318.1666666666667</ele><time>2026-05-02T11:27:58.595Z</time></trkpt><trkpt lat="46.1429267" lon="13.5019917"><ele>319.33333333333337</ele><time>2026-05-02T11:27:59.594Z</time></trkpt><trkpt lat="46.1429983" lon="13.5019883"><ele>320.5</ele><time>2026-05-02T11:28:00.594Z</time></trkpt><trkpt lat="46.1430717" lon="13.50201"><ele>321.6666666666667</ele><time>2026-05-02T11:28:01.594Z</time></trkpt><trkpt lat="46.14314" lon="13.5020517"><ele>322.8333333333333</ele><time>2026-05-02T11:28:02.595Z</time></trkpt><trkpt lat="46.143225" lon="13.50216"><ele>324.0</ele><time>2026-05-02T11:28:04.594Z</time></trkpt><trkpt lat="46.1432983" lon="13.5023433"><ele>326.0</ele><time>2026-05-02T11:28:06.596Z</time></trkpt><trkpt lat="46.1433383" lon="13.5024483"><ele>328.0</ele><time>2026-05-02T11:28:07.594Z</time></trkpt><trkpt lat="46.143385" lon="13.5025483"><ele>330.0</ele><time>2026-05-02T11:28:08.594Z</time></trkpt><trkpt lat="46.1434333" lon="13.502655"><ele>332.0</ele><time>2026-05-02T11:28:09.596Z</time></trkpt><trkpt lat="46.1434867" lon="13.5027767"><ele>334.0</ele><time>2026-05-02T11:28:10.596Z</time></trkpt><trkpt lat="46.1435383" lon="13.5029033"><ele>332.8333333333333</ele><time>2026-05-02T11:28:11.598Z</time></trkpt><trkpt lat="46.1435933" lon="13.5030133"><ele>331.66666666666663</ele><time>2026-05-02T11:28:12.595Z</time></trkpt><trkpt lat="46.1436517" lon="13.5031133"><ele>330.5</ele><time>2026-05-02T11:28:13.593Z</time></trkpt><trkpt lat="46.14371" lon="13.5031983"><ele>329.3333333333333</ele><time>2026-05-02T11:28:14.595Z</time></trkpt><trkpt lat="46.143765" lon="13.5032717"><ele>328.1666666666667</ele><time>2026-05-02T11:28:15.594Z</time></trkpt><trkpt lat="46.1438167" lon="13.5033333"><ele>327.0</ele><time>2026-05-02T11:28:16.594Z</time></trkpt><trkpt lat="46.1439117" lon="13.50343"><ele>327.0</ele><time>2026-05-02T11:28:18.598Z</time></trkpt><trkpt lat="46.1439617" lon="13.503495"><ele>327.0</ele><time>2026-05-02T11:28:20.595Z</time></trkpt><trkpt lat="46.1440033" lon="13.5033917"><ele>327.0</ele><time>2026-05-02T11:28:24.595Z</time></trkpt><trkpt lat="46.1439883" lon="13.5032933"><ele>327.0</ele><time>2026-05-02T11:28:25.595Z</time></trkpt><trkpt lat="46.14398" lon="13.5031933"><ele>327.0</ele><time>2026-05-02T11:28:26.595Z</time></trkpt><trkpt lat="46.1439733" lon="13.5030867"><ele>327.0</ele><time>2026-05-02T11:28:27.594Z</time></trkpt><trkpt lat="46.143975" lon="13.502965"><ele>327.0</ele><time>2026-05-02T11:28:28.594Z</time></trkpt><trkpt lat="46.14399" lon="13.50284"><ele>328.1666666666667</ele><time>2026-05-02T11:28:29.596Z</time></trkpt><trkpt lat="46.1440217" lon="13.502725"><ele>329.3333333333333</ele><time>2026-05-02T11:28:30.594Z</time></trkpt><trkpt lat="46.1440633" lon="13.502605"><ele>330.5</ele><time>2026-05-02T11:28:31.596Z</time></trkpt><trkpt lat="46.1441033" lon="13.5024867"><ele>331.66666666666663</ele><time>2026-05-02T11:28:32.594Z</time></trkpt><trkpt lat="46.1441417" lon="13.5023917"><ele>332.8333333333333</ele><time>2026-05-02T11:28:33.594Z</time></trkpt><trkpt lat="46.1441883" lon="13.5023117"><ele>334.0</ele><time>2026-05-02T11:28:34.595Z</time></trkpt><trkpt lat="46.1442433" lon="13.5022517"><ele>338.2</ele><time>2026-05-02T11:28:35.595Z</time></trkpt><trkpt lat="46.1443517" lon="13.50219"><ele>342.4</ele><time>2026-05-02T11:28:37.594Z</time></trkpt><trkpt lat="46.14447" lon="13.5022067"><ele>346.6</ele><time>2026-05-02T11:28:39.595Z</time></trkpt><trkpt lat="46.1445683" lon="13.5022583"><ele>350.8</ele><time>2026-05-02T11:28:41.595Z</time></trkpt><trkpt lat="46.1446333" lon="13.50235"><ele>355.0</ele><time>2026-05-02T11:28:43.594Z</time></trkpt><trkpt lat="46.1447517" lon="13.5024133"><ele>355.0</ele><time>2026-05-02T11:28:45.593Z</time></trkpt><trkpt lat="46.1448233" lon="13.5024317"><ele>355.0</ele><time>2026-05-02T11:28:46.595Z</time></trkpt><trkpt lat="46.1449" lon="13.5024467"><ele>355.0</ele><time>2026-05-02T11:28:47.596Z</time></trkpt><trkpt lat="46.1449633" lon="13.502455"><ele>355.0</ele><time>2026-05-02T11:28:48.593Z</time></trkpt><trkpt lat="46.145055" lon="13.5024033"><ele>355.0</ele><time>2026-05-02T11:28:50.593Z</time></trkpt><trkpt lat="46.145155" lon="13.5022833"><ele>355.0</ele><time>2026-05-02T11:28:52.594Z</time></trkpt><trkpt lat="46.14522" lon="13.5022133"><ele>354.3333333333333</ele><time>2026-05-02T11:28:53.593Z</time></trkpt><trkpt lat="46.1452767" lon="13.5021533"><ele>353.66666666666663</ele><time>2026-05-02T11:28:54.594Z</time></trkpt><trkpt lat="46.1453317" lon="13.5021033"><ele>353.0</ele><time>2026-05-02T11:28:55.593Z</time></trkpt><trkpt lat="46.1454417" lon="13.5020367"><ele>352.3333333333333</ele><time>2026-05-02T11:28:57.595Z</time></trkpt><trkpt lat="46.1455233" lon="13.5020217"><ele>351.6666666666667</ele><time>2026-05-02T11:28:58.593Z</time></trkpt><trkpt lat="46.1456133" lon="13.5020133"><ele>351.0</ele><time>2026-05-02T11:28:59.594Z</time></trkpt><trkpt lat="46.1456933" lon="13.50201"><ele>353.8333333333333</ele><time>2026-05-02T11:29:00.595Z</time></trkpt><trkpt lat="46.1457683" lon="13.5020017"><ele>356.6666666666667</ele><time>2026-05-02T11:29:01.594Z</time></trkpt><trkpt lat="46.14585" lon="13.5019933"><ele>359.5</ele><time>2026-05-02T11:29:02.593Z</time></trkpt><trkpt lat="46.14592" lon="13.501995"><ele>362.33333333333337</ele><time>2026-05-02T11:29:03.593Z</time></trkpt><trkpt lat="46.146045" lon="13.5020567"><ele>365.1666666666667</ele><time>2026-05-02T11:29:05.594Z</time></trkpt><trkpt lat="46.1461133" lon="13.502105"><ele>368.0</ele><time>2026-05-02T11:29:06.593Z</time></trkpt><trkpt lat="46.146175" lon="13.50216"><ele>370.14285714285717</ele><time>2026-05-02T11:29:07.593Z</time></trkpt><trkpt lat="46.1462317" lon="13.5022167"><ele>372.2857142857143</ele><time>2026-05-02T11:29:08.593Z</time></trkpt><trkpt lat="46.1462933" lon="13.502265"><ele>374.42857142857144</ele><time>2026-05-02T11:29:09.593Z</time></trkpt><trkpt lat="46.1463583" lon="13.5023017"><ele>376.57142857142856</ele><time>2026-05-02T11:29:10.594Z</time></trkpt><trkpt lat="46.14643" lon="13.502315"><ele>378.71428571428567</ele><time>2026-05-02T11:29:11.594Z</time></trkpt><trkpt lat="46.1465033" lon="13.5023017"><ele>380.85714285714283</ele><time>2026-05-02T11:29:12.594Z</time></trkpt><trkpt lat="46.1465667" lon="13.5022883"><ele>383.0</ele><time>2026-05-02T11:29:13.594Z</time></trkpt><trkpt lat="46.14663" lon="13.502295"><ele>384.1666666666667</ele><time>2026-05-02T11:29:14.595Z</time></trkpt><trkpt lat="46.1466967" lon="13.5023233"><ele>385.33333333333337</ele><time>2026-05-02T11:29:15.593Z</time></trkpt><trkpt lat="46.14677" lon="13.50236"><ele>386.5</ele><time>2026-05-02T11:29:16.595Z</time></trkpt><trkpt lat="46.1468417" lon="13.50241"><ele>387.6666666666667</ele><time>2026-05-02T11:29:17.596Z</time></trkpt><trkpt lat="46.146915" lon="13.5024683"><ele>388.8333333333333</ele><time>2026-05-02T11:29:18.593Z</time></trkpt><trkpt lat="46.14698" lon="13.5025183"><ele>390.0</ele><time>2026-05-02T11:29:19.593Z</time></trkpt><trkpt lat="46.1470383" lon="13.5025733"><ele>390.0</ele><time>2026-05-02T11:29:20.595Z</time></trkpt><trkpt lat="46.1471" lon="13.5026433"><ele>390.0</ele><time>2026-05-02T11:29:21.594Z</time></trkpt><trkpt lat="46.1471517" lon="13.5027183"><ele>390.0</ele><time>2026-05-02T11:29:22.593Z</time></trkpt><trkpt lat="46.1472367" lon="13.5028167"><ele>390.0</ele><time>2026-05-02T11:29:24.594Z</time></trkpt><trkpt lat="46.1473483" lon="13.5028333"><ele>390.0</ele><time>2026-05-02T11:29:26.593Z</time></trkpt><trkpt lat="46.147415" lon="13.5028333"><ele>390.0</ele><time>2026-05-02T11:29:27.595Z</time></trkpt><trkpt lat="46.14748" lon="13.50284"><ele>390.6666666666667</ele><time>2026-05-02T11:29:28.593Z</time></trkpt><trkpt lat="46.1475467" lon="13.50285"><ele>391.33333333333337</ele><time>2026-05-02T11:29:29.594Z</time></trkpt><trkpt lat="46.1476117" lon="13.50284"><ele>392.0</ele><time>2026-05-02T11:29:30.594Z</time></trkpt><trkpt lat="46.1476733" lon="13.5028067"><ele>392.6666666666667</ele><time>2026-05-02T11:29:31.593Z</time></trkpt><trkpt lat="46.1477317" lon="13.5027417"><ele>393.33333333333337</ele><time>2026-05-02T11:29:32.595Z</time></trkpt><trkpt lat="46.1477933" lon="13.50266"><ele>394.0</ele><time>2026-05-02T11:29:33.595Z</time></trkpt><trkpt lat="46.1478767" lon="13.5025817"><ele>394.00000000000006</ele><time>2026-05-02T11:29:34.594Z</time></trkpt><trkpt lat="46.1479567" lon="13.5025017"><ele>394.0</ele><time>2026-05-02T11:29:35.593Z</time></trkpt><trkpt lat="46.1480567" lon="13.5024367"><ele>394.0</ele><time>2026-05-02T11:29:36.594Z</time></trkpt><trkpt lat="46.1481467" lon="13.5023867"><ele>394.0</ele><time>2026-05-02T11:29:37.593Z</time></trkpt><trkpt lat="46.1482217" lon="13.5023467"><ele>394.00000000000006</ele><time>2026-05-02T11:29:38.594Z</time></trkpt><trkpt lat="46.1482817" lon="13.50231"><ele>394.0</ele><time>2026-05-02T11:29:39.593Z</time></trkpt><trkpt lat="46.1483467" lon="13.5022683"><ele>394.33333333333337</ele><time>2026-05-02T11:29:40.593Z</time></trkpt><trkpt lat="46.1484017" lon="13.502215"><ele>394.6666666666667</ele><time>2026-05-02T11:29:41.594Z</time></trkpt><trkpt lat="46.1484517" lon="13.5021417"><ele>395.0</ele><time>2026-05-02T11:29:42.593Z</time></trkpt><trkpt lat="46.1485167" lon="13.5020567"><ele>395.33333333333337</ele><time>2026-05-02T11:29:43.594Z</time></trkpt><trkpt lat="46.1485833" lon="13.501975"><ele>395.6666666666667</ele><time>2026-05-02T11:29:44.594Z</time></trkpt><trkpt lat="46.148655" lon="13.5019"><ele>396.0</ele><time>2026-05-02T11:29:45.597Z</time></trkpt><trkpt lat="46.1487317" lon="13.5018383"><ele>396.0</ele><time>2026-05-02T11:29:46.596Z</time></trkpt><trkpt lat="46.1487967" lon="13.50178"><ele>396.0</ele><time>2026-05-02T11:29:47.595Z</time></trkpt><trkpt lat="46.1488567" lon="13.5017317"><ele>396.0</ele><time>2026-05-02T11:29:48.593Z</time></trkpt><trkpt lat="46.14892" lon="13.501685"><ele>396.0</ele><time>2026-05-02T11:29:49.593Z</time></trkpt><trkpt lat="46.1489867" lon="13.5016333"><ele>396.0</ele><time>2026-05-02T11:29:50.595Z</time></trkpt><trkpt lat="46.1490617" lon="13.501605"><ele>396.0</ele><time>2026-05-02T11:29:51.593Z</time></trkpt><trkpt lat="46.149125" lon="13.50158"><ele>396.0</ele><time>2026-05-02T11:29:52.593Z</time></trkpt><trkpt lat="46.1491917" lon="13.501565"><ele>399.0</ele><time>2026-05-02T11:29:53.594Z</time></trkpt><trkpt lat="46.149265" lon="13.5015583"><ele>402.0</ele><time>2026-05-02T11:29:54.594Z</time></trkpt><trkpt lat="46.1493433" lon="13.501565"><ele>405.0</ele><time>2026-05-02T11:29:55.594Z</time></trkpt><trkpt lat="46.1494167" lon="13.5015883"><ele>408.0</ele><time>2026-05-02T11:29:56.595Z</time></trkpt><trkpt lat="46.1494883" lon="13.50163"><ele>411.0</ele><time>2026-05-02T11:29:57.594Z</time></trkpt><trkpt lat="46.1495933" lon="13.5017033"><ele>414.0</ele><time>2026-05-02T11:29:59.593Z</time></trkpt><trkpt lat="46.1497117" lon="13.501755"><ele>414.0</ele><time>2026-05-02T11:30:01.594Z</time></trkpt><trkpt lat="46.149775" lon="13.5017717"><ele>414.0</ele><time>2026-05-02T11:30:02.594Z</time></trkpt><trkpt lat="46.1498433" lon="13.501795"><ele>414.0</ele><time>2026-05-02T11:30:03.594Z</time></trkpt><trkpt lat="46.14992" lon="13.5018283"><ele>414.0</ele><time>2026-05-02T11:30:04.595Z</time></trkpt><trkpt lat="46.149995" lon="13.5018633"><ele>414.0</ele><time>2026-05-02T11:30:05.594Z</time></trkpt><trkpt lat="46.1500767" lon="13.5019033"><ele>414.0</ele><time>2026-05-02T11:30:06.594Z</time></trkpt><trkpt lat="46.1501617" lon="13.5019333"><ele>415.3333333333333</ele><time>2026-05-02T11:30:07.593Z</time></trkpt><trkpt lat="46.150255" lon="13.5019617"><ele>416.66666666666663</ele><time>2026-05-02T11:30:08.594Z</time></trkpt><trkpt lat="46.1503483" lon="13.5019933"><ele>418.0</ele><time>2026-05-02T11:30:09.594Z</time></trkpt><trkpt lat="46.1504383" lon="13.5020067"><ele>419.3333333333333</ele><time>2026-05-02T11:30:10.594Z</time></trkpt><trkpt lat="46.1505117" lon="13.5020167"><ele>420.66666666666663</ele><time>2026-05-02T11:30:11.595Z</time></trkpt><trkpt lat="46.1505883" lon="13.5020283"><ele>422.0</ele><time>2026-05-02T11:30:12.594Z</time></trkpt><trkpt lat="46.15066" lon="13.5020117"><ele>424.16666666666663</ele><time>2026-05-02T11:30:13.593Z</time></trkpt><trkpt lat="46.1507283" lon="13.5019833"><ele>426.3333333333333</ele><time>2026-05-02T11:30:14.595Z</time></trkpt><trkpt lat="46.150815" lon="13.5018817"><ele>428.5</ele><time>2026-05-02T11:30:16.594Z</time></trkpt><trkpt lat="46.150835" lon="13.5017917"><ele>430.66666666666663</ele><time>2026-05-02T11:30:17.594Z</time></trkpt><trkpt lat="46.15086" lon="13.5016867"><ele>432.8333333333333</ele><time>2026-05-02T11:30:18.594Z</time></trkpt><trkpt lat="46.1508817" lon="13.501575"><ele>435.0</ele><time>2026-05-02T11:30:19.595Z</time></trkpt><trkpt lat="46.150895" lon="13.5014617"><ele>435.0</ele><time>2026-05-02T11:30:20.597Z</time></trkpt><trkpt lat="46.15093" lon="13.5013817"><ele>435.0</ele><time>2026-05-02T11:30:21.594Z</time></trkpt><trkpt lat="46.1510017" lon="13.5012767"><ele>435.0</ele><time>2026-05-02T11:30:23.594Z</time></trkpt><trkpt lat="46.1510733" lon="13.5012533"><ele>435.0</ele><time>2026-05-02T11:30:25.593Z</time></trkpt><trkpt lat="46.1511617" lon="13.5012733"><ele>435.0</ele><time>2026-05-02T11:30:27.594Z</time></trkpt><trkpt lat="46.1512533" lon="13.5012833"><ele>435.0</ele><time>2026-05-02T11:30:29.594Z</time></trkpt><trkpt lat="46.151335" lon="13.50121"><ele>437.0</ele><time>2026-05-02T11:30:31.593Z</time></trkpt><trkpt lat="46.1513917" lon="13.501085"><ele>439.0</ele><time>2026-05-02T11:30:33.593Z</time></trkpt><trkpt lat="46.15142" lon="13.501"><ele>441.0</ele><time>2026-05-02T11:30:34.593Z</time></trkpt><trkpt lat="46.15145" lon="13.5009183"><ele>443.0</ele><time>2026-05-02T11:30:35.594Z</time></trkpt><trkpt lat="46.1514883" lon="13.5008417"><ele>445.0</ele><time>2026-05-02T11:30:36.596Z</time></trkpt><trkpt lat="46.1515667" lon="13.5007633"><ele>447.0</ele><time>2026-05-02T11:30:38.593Z</time></trkpt><trkpt lat="46.1516767" lon="13.5007533"><ele>447.0</ele><time>2026-05-02T11:30:40.594Z</time></trkpt><trkpt lat="46.1517983" lon="13.5007717"><ele>447.0</ele><time>2026-05-02T11:30:42.593Z</time></trkpt><trkpt lat="46.1519183" lon="13.50077"><ele>447.0</ele><time>2026-05-02T11:30:44.595Z</time></trkpt><trkpt lat="46.1520367" lon="13.5007383"><ele>447.0</ele><time>2026-05-02T11:30:46.594Z</time></trkpt><trkpt lat="46.1521383" lon="13.5007133"><ele>447.0</ele><time>2026-05-02T11:30:48.593Z</time></trkpt><trkpt lat="46.1522383" lon="13.5007233"><ele>447.0</ele><time>2026-05-02T11:30:50.595Z</time></trkpt><trkpt lat="46.1523017" lon="13.500725"><ele>447.0</ele><time>2026-05-02T11:30:51.595Z</time></trkpt><trkpt lat="46.1523733" lon="13.5007217"><ele>447.0</ele><time>2026-05-02T11:30:52.593Z</time></trkpt><trkpt lat="46.1524467" lon="13.5007233"><ele>447.0</ele><time>2026-05-02T11:30:53.594Z</time></trkpt><trkpt lat="46.15252" lon="13.5007383"><ele>447.0</ele><time>2026-05-02T11:30:54.594Z</time></trkpt><trkpt lat="46.152595" lon="13.5007567"><ele>449.3333333333333</ele><time>2026-05-02T11:30:55.595Z</time></trkpt><trkpt lat="46.1526717" lon="13.5007883"><ele>451.66666666666663</ele><time>2026-05-02T11:30:56.595Z</time></trkpt><trkpt lat="46.15274" lon="13.5008217"><ele>454.0</ele><time>2026-05-02T11:30:57.594Z</time></trkpt><trkpt lat="46.1528067" lon="13.5009017"><ele>456.3333333333333</ele><time>2026-05-02T11:30:58.594Z</time></trkpt><trkpt lat="46.15287" lon="13.50099"><ele>458.66666666666663</ele><time>2026-05-02T11:30:59.594Z</time></trkpt><trkpt lat="46.152935" lon="13.50107"><ele>461.0</ele><time>2026-05-02T11:31:00.594Z</time></trkpt><trkpt lat="46.152995" lon="13.50114"><ele>461.0</ele><time>2026-05-02T11:31:01.595Z</time></trkpt><trkpt lat="46.1530567" lon="13.5011917"><ele>461.0</ele><time>2026-05-02T11:31:02.594Z</time></trkpt><trkpt lat="46.1531983" lon="13.5012417"><ele>461.0</ele><time>2026-05-02T11:31:04.596Z</time></trkpt><trkpt lat="46.15328" lon="13.50124"><ele>461.0</ele><time>2026-05-02T11:31:05.595Z</time></trkpt><trkpt lat="46.1533717" lon="13.5012167"><ele>461.0</ele><time>2026-05-02T11:31:06.595Z</time></trkpt><trkpt lat="46.1534683" lon="13.5011783"><ele>459.16666666666663</ele><time>2026-05-02T11:31:07.594Z</time></trkpt><trkpt lat="46.1535633" lon="13.501145"><ele>457.3333333333333</ele><time>2026-05-02T11:31:08.595Z</time></trkpt><trkpt lat="46.1536467" lon="13.501125"><ele>455.5</ele><time>2026-05-02T11:31:09.593Z</time></trkpt><trkpt lat="46.153725" lon="13.5011083"><ele>453.66666666666663</ele><time>2026-05-02T11:31:10.594Z</time></trkpt><trkpt lat="46.1538083" lon="13.50109"><ele>451.8333333333333</ele><time>2026-05-02T11:31:11.595Z</time></trkpt><trkpt lat="46.1538933" lon="13.5010517"><ele>450.0</ele><time>2026-05-02T11:31:12.596Z</time></trkpt><trkpt lat="46.1539767" lon="13.5009983"><ele>449.5</ele><time>2026-05-02T11:31:13.594Z</time></trkpt><trkpt lat="46.1540517" lon="13.5009433"><ele>449.0</ele><time>2026-05-02T11:31:14.594Z</time></trkpt><trkpt lat="46.154125" lon="13.5009"><ele>448.5</ele><time>2026-05-02T11:31:15.594Z</time></trkpt><trkpt lat="46.154195" lon="13.5008617"><ele>448.0</ele><time>2026-05-02T11:31:16.594Z</time></trkpt><trkpt lat="46.154255" lon="13.5008283"><ele>447.5</ele><time>2026-05-02T11:31:17.593Z</time></trkpt><trkpt lat="46.15436" lon="13.50076"><ele>447.0</ele><time>2026-05-02T11:31:19.596Z</time></trkpt><trkpt lat="46.154485" lon="13.5007583"><ele>447.0</ele><time>2026-05-02T11:31:21.593Z</time></trkpt><trkpt lat="46.154595" lon="13.5008217"><ele>447.00000000000006</ele><time>2026-05-02T11:31:23.595Z</time></trkpt><trkpt lat="46.15468" lon="13.5009317"><ele>447.00000000000006</ele><time>2026-05-02T11:31:25.594Z</time></trkpt><trkpt lat="46.15474" lon="13.5010817"><ele>447.0</ele><time>2026-05-02T11:31:27.595Z</time></trkpt><trkpt lat="46.1547767" lon="13.50118"><ele>447.0</ele><time>2026-05-02T11:31:28.596Z</time></trkpt><trkpt lat="46.1548133" lon="13.50129"><ele>447.3333333333333</ele><time>2026-05-02T11:31:29.595Z</time></trkpt><trkpt lat="46.1548533" lon="13.5013983"><ele>447.66666666666663</ele><time>2026-05-02T11:31:30.596Z</time></trkpt><trkpt lat="46.1549" lon="13.501505"><ele>448.0</ele><time>2026-05-02T11:31:31.594Z</time></trkpt><trkpt lat="46.15494" lon="13.5016067"><ele>448.3333333333333</ele><time>2026-05-02T11:31:32.596Z</time></trkpt><trkpt lat="46.1549783" lon="13.5016967"><ele>448.66666666666663</ele><time>2026-05-02T11:31:33.595Z</time></trkpt><trkpt lat="46.15502" lon="13.50177"><ele>449.0</ele><time>2026-05-02T11:31:34.594Z</time></trkpt><trkpt lat="46.1550733" lon="13.5018283"><ele>448.99999999999994</ele><time>2026-05-02T11:31:35.595Z</time></trkpt><trkpt lat="46.1551683" lon="13.50187"><ele>449.0</ele><time>2026-05-02T11:31:37.595Z</time></trkpt><trkpt lat="46.1552583" lon="13.501835"><ele>449.0</ele><time>2026-05-02T11:31:39.595Z</time></trkpt><trkpt lat="46.1553233" lon="13.501805"><ele>449.0</ele><time>2026-05-02T11:31:40.595Z</time></trkpt><trkpt lat="46.1553933" lon="13.5017817"><ele>448.99999999999994</ele><time>2026-05-02T11:31:41.595Z</time></trkpt><trkpt lat="46.1554783" lon="13.50175"><ele>449.0</ele><time>2026-05-02T11:31:42.594Z</time></trkpt><trkpt lat="46.1555717" lon="13.5017033"><ele>448.99999999999994</ele><time>2026-05-02T11:31:43.594Z</time></trkpt><trkpt lat="46.155645" lon="13.50166"><ele>449.0</ele><time>2026-05-02T11:31:44.596Z</time></trkpt><trkpt lat="46.15571" lon="13.5016383"><ele>449.0</ele><time>2026-05-02T11:31:45.593Z</time></trkpt><trkpt lat="46.1558267" lon="13.501655"><ele>449.0</ele><time>2026-05-02T11:31:47.595Z</time></trkpt><trkpt lat="46.1558883" lon="13.50168"><ele>448.99999999999994</ele><time>2026-05-02T11:31:48.595Z</time></trkpt><trkpt lat="46.15596" lon="13.5017133"><ele>449.0</ele><time>2026-05-02T11:31:49.595Z</time></trkpt><trkpt lat="46.1560367" lon="13.5017567"><ele>446.99999999999994</ele><time>2026-05-02T11:31:50.595Z</time></trkpt><trkpt lat="46.1561167" lon="13.501815"><ele>445.0</ele><time>2026-05-02T11:31:51.594Z</time></trkpt><trkpt lat="46.15619" lon="13.50187"><ele>443.0</ele><time>2026-05-02T11:31:52.595Z</time></trkpt><trkpt lat="46.156255" lon="13.501925"><ele>441.0</ele><time>2026-05-02T11:31:53.594Z</time></trkpt><trkpt lat="46.1563133" lon="13.5019683"><ele>438.99999999999994</ele><time>2026-05-02T11:31:54.595Z</time></trkpt><trkpt lat="46.15638" lon="13.5020083"><ele>437.0</ele><time>2026-05-02T11:31:55.594Z</time></trkpt><trkpt lat="46.156445" lon="13.5020267"><ele>436.99999999999994</ele><time>2026-05-02T11:31:56.595Z</time></trkpt><trkpt lat="46.15652" lon="13.5020317"><ele>437.0</ele><time>2026-05-02T11:31:57.594Z</time></trkpt><trkpt lat="46.1566" lon="13.5020133"><ele>437.0</ele><time>2026-05-02T11:31:58.595Z</time></trkpt><trkpt lat="46.1566717" lon="13.50197"><ele>437.0</ele><time>2026-05-02T11:31:59.595Z</time></trkpt><trkpt lat="46.15673" lon="13.5019083"><ele>436.99999999999994</ele><time>2026-05-02T11:32:00.595Z</time></trkpt><trkpt lat="46.1567867" lon="13.5018267"><ele>437.0</ele><time>2026-05-02T11:32:01.594Z</time></trkpt><trkpt lat="46.1568617" lon="13.5017417"><ele>437.0</ele><time>2026-05-02T11:32:02.596Z</time></trkpt><trkpt lat="46.1569367" lon="13.5016467"><ele>437.0</ele><time>2026-05-02T11:32:03.594Z</time></trkpt><trkpt lat="46.1570333" lon="13.5015383"><ele>437.0</ele><time>2026-05-02T11:32:04.594Z</time></trkpt><trkpt lat="46.1571417" lon="13.50144"><ele>437.0</ele><time>2026-05-02T11:32:05.594Z</time></trkpt><trkpt lat="46.1572533" lon="13.50135"><ele>437.0</ele><time>2026-05-02T11:32:06.597Z</time></trkpt><trkpt lat="46.1573683" lon="13.5012617"><ele>437.0</ele><time>2026-05-02T11:32:07.594Z</time></trkpt><trkpt lat="46.1574833" lon="13.50117"><ele>437.0</ele><time>2026-05-02T11:32:08.595Z</time></trkpt><trkpt lat="46.1575833" lon="13.50109"><ele>437.0</ele><time>2026-05-02T11:32:09.595Z</time></trkpt><trkpt lat="46.1576667" lon="13.5010317"><ele>438.3333333333333</ele><time>2026-05-02T11:32:10.594Z</time></trkpt><trkpt lat="46.157745" lon="13.5009967"><ele>439.66666666666663</ele><time>2026-05-02T11:32:11.594Z</time></trkpt><trkpt lat="46.15781" lon="13.5010433"><ele>441.0</ele><time>2026-05-02T11:32:12.595Z</time></trkpt><trkpt lat="46.1578617" lon="13.5011367"><ele>442.33333333333337</ele><time>2026-05-02T11:32:13.594Z</time></trkpt><trkpt lat="46.1578917" lon="13.5012817"><ele>443.6666666666667</ele><time>2026-05-02T11:32:14.594Z</time></trkpt><trkpt lat="46.157935" lon="13.5013933"><ele>445.0</ele><time>2026-05-02T11:32:15.594Z</time></trkpt><trkpt lat="46.15797" lon="13.5014933"><ele>447.50000000000006</ele><time>2026-05-02T11:32:16.594Z</time></trkpt><trkpt lat="46.1580117" lon="13.5016217"><ele>450.0</ele><time>2026-05-02T11:32:18.593Z</time></trkpt><trkpt lat="46.15811" lon="13.5016017"><ele>452.5</ele><time>2026-05-02T11:32:21.596Z</time></trkpt><trkpt lat="46.1581717" lon="13.5015683"><ele>455.0</ele><time>2026-05-02T11:32:22.596Z</time></trkpt><trkpt lat="46.1582483" lon="13.5015167"><ele>457.50000000000006</ele><time>2026-05-02T11:32:23.596Z</time></trkpt><trkpt lat="46.15832" lon="13.5014533"><ele>460.0</ele><time>2026-05-02T11:32:24.597Z</time></trkpt><trkpt lat="46.1583917" lon="13.5014983"><ele>461.0</ele><time>2026-05-02T11:32:25.595Z</time></trkpt><trkpt lat="46.158485" lon="13.50153"><ele>462.0</ele><time>2026-05-02T11:32:26.603Z</time></trkpt><trkpt lat="46.1585733" lon="13.5015483"><ele>463.0</ele><time>2026-05-02T11:32:27.595Z</time></trkpt><trkpt lat="46.15866" lon="13.5016117"><ele>464.0</ele><time>2026-05-02T11:32:28.596Z</time></trkpt><trkpt lat="46.1587467" lon="13.501625"><ele>465.0</ele><time>2026-05-02T11:32:29.596Z</time></trkpt><trkpt lat="46.15883" lon="13.5016033"><ele>465.0</ele><time>2026-05-02T11:32:30.596Z</time></trkpt><trkpt lat="46.1589117" lon="13.501585"><ele>465.0</ele><time>2026-05-02T11:32:31.596Z</time></trkpt><trkpt lat="46.158985" lon="13.5015517"><ele>465.0</ele><time>2026-05-02T11:32:32.599Z</time></trkpt><trkpt lat="46.1590483" lon="13.501505"><ele>465.0</ele><time>2026-05-02T11:32:33.596Z</time></trkpt><trkpt lat="46.1591067" lon="13.5014383"><ele>465.0</ele><time>2026-05-02T11:32:34.596Z</time></trkpt><trkpt lat="46.159165" lon="13.5013483"><ele>465.0</ele><time>2026-05-02T11:32:35.595Z</time></trkpt><trkpt lat="46.159235" lon="13.501255"><ele>465.4</ele><time>2026-05-02T11:32:36.594Z</time></trkpt><trkpt lat="46.1593083" lon="13.5011617"><ele>465.8</ele><time>2026-05-02T11:32:37.595Z</time></trkpt><trkpt lat="46.15939" lon="13.5010717"><ele>466.20000000000005</ele><time>2026-05-02T11:32:38.594Z</time></trkpt><trkpt lat="46.1594717" lon="13.5009783"><ele>466.6</ele><time>2026-05-02T11:32:39.595Z</time></trkpt><trkpt lat="46.15956" lon="13.500895"><ele>467.0</ele><time>2026-05-02T11:32:40.594Z</time></trkpt><trkpt lat="46.15965" lon="13.500815"><ele>467.0</ele><time>2026-05-02T11:32:41.599Z</time></trkpt><trkpt lat="46.1597483" lon="13.5007367"><ele>467.00000000000006</ele><time>2026-05-02T11:32:42.595Z</time></trkpt><trkpt lat="46.159835" lon="13.5006583"><ele>467.00000000000006</ele><time>2026-05-02T11:32:43.595Z</time></trkpt><trkpt lat="46.1599283" lon="13.5005917"><ele>467.0</ele><time>2026-05-02T11:32:44.594Z</time></trkpt><trkpt lat="46.1600217" lon="13.50053"><ele>467.0</ele><time>2026-05-02T11:32:45.594Z</time></trkpt><trkpt lat="46.1601117" lon="13.5004733"><ele>467.99999999999994</ele><time>2026-05-02T11:32:46.594Z</time></trkpt><trkpt lat="46.1601867" lon="13.500425"><ele>469.0</ele><time>2026-05-02T11:32:47.594Z</time></trkpt><trkpt lat="46.1602617" lon="13.5003717"><ele>470.0</ele><time>2026-05-02T11:32:48.596Z</time></trkpt><trkpt lat="46.160335" lon="13.50031"><ele>471.0</ele><time>2026-05-02T11:32:49.594Z</time></trkpt><trkpt lat="46.1603983" lon="13.50023"><ele>471.99999999999994</ele><time>2026-05-02T11:32:50.594Z</time></trkpt><trkpt lat="46.16046" lon="13.50014"><ele>473.0</ele><time>2026-05-02T11:32:51.594Z</time></trkpt><trkpt lat="46.1605267" lon="13.5000217"><ele>473.0</ele><time>2026-05-02T11:32:52.595Z</time></trkpt><trkpt lat="46.1605933" lon="13.4999017"><ele>472.99999999999994</ele><time>2026-05-02T11:32:53.595Z</time></trkpt><trkpt lat="46.1606567" lon="13.49978"><ele>472.99999999999994</ele><time>2026-05-02T11:32:54.596Z</time></trkpt><trkpt lat="46.16072" lon="13.4996683"><ele>473.0</ele><time>2026-05-02T11:32:55.596Z</time></trkpt><trkpt lat="46.1607867" lon="13.4995517"><ele>473.0</ele><time>2026-05-02T11:32:56.595Z</time></trkpt><trkpt lat="46.1608533" lon="13.499435"><ele>475.2</ele><time>2026-05-02T11:32:57.594Z</time></trkpt><trkpt lat="46.1609217" lon="13.4993217"><ele>477.4</ele><time>2026-05-02T11:32:58.595Z</time></trkpt><trkpt lat="46.1609917" lon="13.4992067"><ele>479.59999999999997</ele><time>2026-05-02T11:32:59.597Z</time></trkpt><trkpt lat="46.16106" lon="13.49909"><ele>481.79999999999995</ele><time>2026-05-02T11:33:00.595Z</time></trkpt><trkpt lat="46.16113" lon="13.4989883"><ele>484.0</ele><time>2026-05-02T11:33:01.594Z</time></trkpt><trkpt lat="46.1611983" lon="13.498895"><ele>484.0</ele><time>2026-05-02T11:33:02.595Z</time></trkpt><trkpt lat="46.1612733" lon="13.4988017"><ele>484.0</ele><time>2026-05-02T11:33:03.594Z</time></trkpt><trkpt lat="46.161345" lon="13.4987117"><ele>484.0</ele><time>2026-05-02T11:33:04.596Z</time></trkpt><trkpt lat="46.1614267" lon="13.4986283"><ele>484.0</ele><time>2026-05-02T11:33:05.596Z</time></trkpt><trkpt lat="46.1615117" lon="13.4985533"><ele>484.0</ele><time>2026-05-02T11:33:06.594Z</time></trkpt><trkpt lat="46.1615833" lon="13.4984733"><ele>485.83333333333337</ele><time>2026-05-02T11:33:07.595Z</time></trkpt><trkpt lat="46.1616517" lon="13.4984"><ele>487.6666666666667</ele><time>2026-05-02T11:33:08.596Z</time></trkpt><trkpt lat="46.1617183" lon="13.4983333"><ele>489.5</ele><time>2026-05-02T11:33:09.597Z</time></trkpt><trkpt lat="46.1617883" lon="13.4982817"><ele>491.33333333333337</ele><time>2026-05-02T11:33:10.594Z</time></trkpt><trkpt lat="46.1618583" lon="13.498245"><ele>493.1666666666667</ele><time>2026-05-02T11:33:11.596Z</time></trkpt><trkpt lat="46.1619283" lon="13.49822"><ele>495.0</ele><time>2026-05-02T11:33:12.593Z</time></trkpt><trkpt lat="46.1619917" lon="13.4982033"><ele>495.0</ele><time>2026-05-02T11:33:13.594Z</time></trkpt><trkpt lat="46.1621117" lon="13.4981767"><ele>495.0</ele><time>2026-05-02T11:33:15.594Z</time></trkpt><trkpt lat="46.1621833" lon="13.4981617"><ele>495.0</ele><time>2026-05-02T11:33:16.595Z</time></trkpt><trkpt lat="46.1622583" lon="13.4981433"><ele>495.0</ele><time>2026-05-02T11:33:17.593Z</time></trkpt><trkpt lat="46.1623417" lon="13.4981133"><ele>495.0</ele><time>2026-05-02T11:33:18.593Z</time></trkpt><trkpt lat="46.1624333" lon="13.49806"><ele>494.3333333333333</ele><time>2026-05-02T11:33:19.593Z</time></trkpt><trkpt lat="46.1625167" lon="13.4979967"><ele>493.66666666666663</ele><time>2026-05-02T11:33:20.595Z</time></trkpt><trkpt lat="46.162595" lon="13.49793"><ele>493.0</ele><time>2026-05-02T11:33:21.593Z</time></trkpt><trkpt lat="46.1626667" lon="13.4978667"><ele>492.3333333333333</ele><time>2026-05-02T11:33:22.593Z</time></trkpt><trkpt lat="46.1627367" lon="13.4978"><ele>491.66666666666663</ele><time>2026-05-02T11:33:23.595Z</time></trkpt><trkpt lat="46.162815" lon="13.497735"><ele>491.0</ele><time>2026-05-02T11:33:24.597Z</time></trkpt><trkpt lat="46.1628967" lon="13.4976583"><ele>491.0</ele><time>2026-05-02T11:33:25.596Z</time></trkpt><trkpt lat="46.162985" lon="13.4975833"><ele>491.0</ele><time>2026-05-02T11:33:26.595Z</time></trkpt><trkpt lat="46.1630617" lon="13.4975067"><ele>491.0</ele><time>2026-05-02T11:33:27.593Z</time></trkpt><trkpt lat="46.16314" lon="13.4974267"><ele>491.0</ele><time>2026-05-02T11:33:28.594Z</time></trkpt><trkpt lat="46.1632217" lon="13.4973467"><ele>491.0</ele><time>2026-05-02T11:33:29.594Z</time></trkpt><trkpt lat="46.1633033" lon="13.4972633"><ele>493.4</ele><time>2026-05-02T11:33:30.594Z</time></trkpt><trkpt lat="46.1633967" lon="13.4971867"><ele>495.8</ele><time>2026-05-02T11:33:31.593Z</time></trkpt><trkpt lat="46.1634783" lon="13.4970967"><ele>498.19999999999993</ele><time>2026-05-02T11:33:32.595Z</time></trkpt><trkpt lat="46.1635633" lon="13.4970167"><ele>500.59999999999997</ele><time>2026-05-02T11:33:33.593Z</time></trkpt><trkpt lat="46.1636383" lon="13.4969417"><ele>503.0</ele><time>2026-05-02T11:33:34.594Z</time></trkpt><trkpt lat="46.1636967" lon="13.496885"><ele>503.0</ele><time>2026-05-02T11:33:35.594Z</time></trkpt><trkpt lat="46.1637917" lon="13.496835"><ele>502.99999999999994</ele><time>2026-05-02T11:33:37.595Z</time></trkpt><trkpt lat="46.1637817" lon="13.4969483"><ele>502.99999999999994</ele><time>2026-05-02T11:33:39.594Z</time></trkpt><trkpt lat="46.1637133" lon="13.497085"><ele>503.0</ele><time>2026-05-02T11:33:41.597Z</time></trkpt><trkpt lat="46.1636417" lon="13.4972183"><ele>503.0</ele><time>2026-05-02T11:33:43.595Z</time></trkpt><trkpt lat="46.1635683" lon="13.4973683"><ele>506.42857142857144</ele><time>2026-05-02T11:33:45.593Z</time></trkpt><trkpt lat="46.163535" lon="13.4974517"><ele>509.8571428571429</ele><time>2026-05-02T11:33:46.593Z</time></trkpt><trkpt lat="46.1635083" lon="13.4975533"><ele>513.2857142857143</ele><time>2026-05-02T11:33:47.593Z</time></trkpt><trkpt lat="46.16348" lon="13.4976483"><ele>516.7142857142858</ele><time>2026-05-02T11:33:48.594Z</time></trkpt><trkpt lat="46.163455" lon="13.4977383"><ele>520.1428571428571</ele><time>2026-05-02T11:33:49.593Z</time></trkpt><trkpt lat="46.16343" lon="13.4978383"><ele>523.5714285714287</ele><time>2026-05-02T11:33:50.595Z</time></trkpt><trkpt lat="46.1634" lon="13.49795"><ele>527.0</ele><time>2026-05-02T11:33:51.594Z</time></trkpt><trkpt lat="46.1633683" lon="13.49807"><ele>530.5</ele><time>2026-05-02T11:33:52.593Z</time></trkpt><trkpt lat="46.1633367" lon="13.49819"><ele>534.0</ele><time>2026-05-02T11:33:53.593Z</time></trkpt><trkpt lat="46.163305" lon="13.4983117"><ele>537.5</ele><time>2026-05-02T11:33:54.594Z</time></trkpt><trkpt lat="46.1632733" lon="13.4984267"><ele>541.0</ele><time>2026-05-02T11:33:55.593Z</time></trkpt><trkpt lat="46.1632433" lon="13.4985283"><ele>544.5</ele><time>2026-05-02T11:33:56.595Z</time></trkpt><trkpt lat="46.1632033" lon="13.4986633"><ele>548.0</ele><time>2026-05-02T11:33:58.593Z</time></trkpt><trkpt lat="46.1632517" lon="13.4987333"><ele>548.0</ele><time>2026-05-02T11:34:02.594Z</time></trkpt><trkpt lat="46.16332" lon="13.4986317"><ele>548.0</ele><time>2026-05-02T11:34:04.594Z</time></trkpt><trkpt lat="46.16338" lon="13.49856"><ele>548.0</ele><time>2026-05-02T11:34:05.594Z</time></trkpt><trkpt lat="46.1634517" lon="13.4984717"><ele>548.0</ele><time>2026-05-02T11:34:06.593Z</time></trkpt><trkpt lat="46.1635283" lon="13.4983867"><ele>548.0</ele><time>2026-05-02T11:34:07.594Z</time></trkpt><trkpt lat="46.1636133" lon="13.498295"><ele>548.0</ele><time>2026-05-02T11:34:08.593Z</time></trkpt><trkpt lat="46.1636917" lon="13.4982017"><ele>548.0</ele><time>2026-05-02T11:34:09.594Z</time></trkpt><trkpt lat="46.1637633" lon="13.4981217"><ele>548.0</ele><time>2026-05-02T11:34:10.595Z</time></trkpt><trkpt lat="46.1638367" lon="13.4980533"><ele>548.0</ele><time>2026-05-02T11:34:11.595Z</time></trkpt><trkpt lat="46.16391" lon="13.4980033"><ele>548.0</ele><time>2026-05-02T11:34:12.593Z</time></trkpt><trkpt lat="46.163985" lon="13.4979583"><ele>548.0</ele><time>2026-05-02T11:34:13.596Z</time></trkpt><trkpt lat="46.1640583" lon="13.4979117"><ele>548.3333333333333</ele><time>2026-05-02T11:34:14.595Z</time></trkpt><trkpt lat="46.1641333" lon="13.4978683"><ele>548.6666666666666</ele><time>2026-05-02T11:34:15.594Z</time></trkpt><trkpt lat="46.1642067" lon="13.4978317"><ele>549.0</ele><time>2026-05-02T11:34:16.594Z</time></trkpt><trkpt lat="46.16428" lon="13.4978183"><ele>549.3333333333334</ele><time>2026-05-02T11:34:17.594Z</time></trkpt><trkpt lat="46.1643917" lon="13.4978367"><ele>549.6666666666667</ele><time>2026-05-02T11:34:19.595Z</time></trkpt><trkpt lat="46.1644717" lon="13.4978867"><ele>550.0</ele><time>2026-05-02T11:34:21.593Z</time></trkpt><trkpt lat="46.1645067" lon="13.4980033"><ele>553.3333333333334</ele><time>2026-05-02T11:34:23.594Z</time></trkpt><trkpt lat="46.1645283" lon="13.4981783"><ele>556.6666666666667</ele><time>2026-05-02T11:34:25.594Z</time></trkpt><trkpt lat="46.1645217" lon="13.4982783"><ele>560.0</ele><time>2026-05-02T11:34:26.595Z</time></trkpt><trkpt lat="46.1645067" lon="13.4983883"><ele>563.3333333333334</ele><time>2026-05-02T11:34:27.593Z</time></trkpt><trkpt lat="46.1644883" lon="13.4985083"><ele>566.6666666666666</ele><time>2026-05-02T11:34:28.595Z</time></trkpt><trkpt lat="46.1644767" lon="13.49862"><ele>570.0</ele><time>2026-05-02T11:34:29.594Z</time></trkpt><trkpt lat="46.1644433" lon="13.4987117"><ele>570.3333333333334</ele><time>2026-05-02T11:34:30.593Z</time></trkpt><trkpt lat="46.164415" lon="13.4987983"><ele>570.6666666666666</ele><time>2026-05-02T11:34:31.594Z</time></trkpt><trkpt lat="46.1643167" lon="13.4989267"><ele>571.0</ele><time>2026-05-02T11:34:33.594Z</time></trkpt><trkpt lat="46.1642433" lon="13.49899"><ele>571.3333333333333</ele><time>2026-05-02T11:34:34.593Z</time></trkpt><trkpt lat="46.1641717" lon="13.4990517"><ele>571.6666666666666</ele><time>2026-05-02T11:34:35.593Z</time></trkpt><trkpt lat="46.16411" lon="13.49911"><ele>572.0</ele><time>2026-05-02T11:34:36.594Z</time></trkpt><trkpt lat="46.16406" lon="13.499175"><ele>571.3333333333333</ele><time>2026-05-02T11:34:37.593Z</time></trkpt><trkpt lat="46.1639867" lon="13.4993183"><ele>570.6666666666666</ele><time>2026-05-02T11:34:39.594Z</time></trkpt><trkpt lat="46.1639583" lon="13.4994333"><ele>570.0</ele><time>2026-05-02T11:34:40.594Z</time></trkpt><trkpt lat="46.16394" lon="13.499535"><ele>569.3333333333334</ele><time>2026-05-02T11:34:41.593Z</time></trkpt><trkpt lat="46.16392" lon="13.4996467"><ele>568.6666666666667</ele><time>2026-05-02T11:34:42.593Z</time></trkpt><trkpt lat="46.1638917" lon="13.499765"><ele>568.0</ele><time>2026-05-02T11:34:43.596Z</time></trkpt><trkpt lat="46.163855" lon="13.4998783"><ele>570.8333333333334</ele><time>2026-05-02T11:34:44.596Z</time></trkpt><trkpt lat="46.1638167" lon="13.49999"><ele>573.6666666666667</ele><time>2026-05-02T11:34:45.594Z</time></trkpt><trkpt lat="46.1637817" lon="13.5000967"><ele>576.5</ele><time>2026-05-02T11:34:46.595Z</time></trkpt><trkpt lat="46.1637467" lon="13.5002033"><ele>579.3333333333334</ele><time>2026-05-02T11:34:47.595Z</time></trkpt><trkpt lat="46.163715" lon="13.50031"><ele>582.1666666666666</ele><time>2026-05-02T11:34:48.593Z</time></trkpt><trkpt lat="46.163685" lon="13.5004117"><ele>585.0</ele><time>2026-05-02T11:34:49.595Z</time></trkpt><trkpt lat="46.163655" lon="13.50051"><ele>585.0</ele><time>2026-05-02T11:34:50.594Z</time></trkpt><trkpt lat="46.1636233" lon="13.5006117"><ele>585.0</ele><time>2026-05-02T11:34:51.593Z</time></trkpt><trkpt lat="46.1635933" lon="13.5007217"><ele>585.0</ele><time>2026-05-02T11:34:52.596Z</time></trkpt><trkpt lat="46.1635633" lon="13.500835"><ele>585.0</ele><time>2026-05-02T11:34:53.593Z</time></trkpt><trkpt lat="46.16353" lon="13.5009517"><ele>585.0</ele><time>2026-05-02T11:34:54.595Z</time></trkpt><trkpt lat="46.1635083" lon="13.5010717"><ele>585.0</ele><time>2026-05-02T11:34:55.594Z</time></trkpt><trkpt lat="46.1634917" lon="13.501175"><ele>585.1666666666666</ele><time>2026-05-02T11:34:56.594Z</time></trkpt><trkpt lat="46.163485" lon="13.50128"><ele>585.3333333333334</ele><time>2026-05-02T11:34:57.595Z</time></trkpt><trkpt lat="46.163485" lon="13.501395"><ele>585.5</ele><time>2026-05-02T11:34:58.593Z</time></trkpt><trkpt lat="46.1634917" lon="13.501515"><ele>585.6666666666667</ele><time>2026-05-02T11:34:59.594Z</time></trkpt><trkpt lat="46.1635033" lon="13.5016383"><ele>585.8333333333334</ele><time>2026-05-02T11:35:00.594Z</time></trkpt><trkpt lat="46.163515" lon="13.5017583"><ele>586.0</ele><time>2026-05-02T11:35:01.595Z</time></trkpt><trkpt lat="46.1635167" lon="13.50187"><ele>586.0</ele><time>2026-05-02T11:35:02.594Z</time></trkpt><trkpt lat="46.1635233" lon="13.50198"><ele>586.0</ele><time>2026-05-02T11:35:03.594Z</time></trkpt><trkpt lat="46.1635233" lon="13.502105"><ele>586.0</ele><time>2026-05-02T11:35:04.594Z</time></trkpt><trkpt lat="46.16351" lon="13.5022383"><ele>586.0</ele><time>2026-05-02T11:35:05.593Z</time></trkpt><trkpt lat="46.16349" lon="13.5023783"><ele>586.0</ele><time>2026-05-02T11:35:06.593Z</time></trkpt><trkpt lat="46.16347" lon="13.5025233"><ele>585.4</ele><time>2026-05-02T11:35:07.594Z</time></trkpt><trkpt lat="46.1634483" lon="13.5026567"><ele>584.8</ele><time>2026-05-02T11:35:08.595Z</time></trkpt><trkpt lat="46.1634283" lon="13.502795"><ele>584.1999999999999</ele><time>2026-05-02T11:35:09.594Z</time></trkpt><trkpt lat="46.1634233" lon="13.5029483"><ele>583.6</ele><time>2026-05-02T11:35:10.594Z</time></trkpt><trkpt lat="46.16342" lon="13.503095"><ele>583.0</ele><time>2026-05-02T11:35:11.593Z</time></trkpt><trkpt lat="46.163425" lon="13.503245"><ele>583.0</ele><time>2026-05-02T11:35:12.593Z</time></trkpt><trkpt lat="46.1634383" lon="13.503415"><ele>583.0</ele><time>2026-05-02T11:35:13.593Z</time></trkpt><trkpt lat="46.1634517" lon="13.503575"><ele>583.0</ele><time>2026-05-02T11:35:14.595Z</time></trkpt><trkpt lat="46.16345" lon="13.503745"><ele>583.0</ele><time>2026-05-02T11:35:15.594Z</time></trkpt><trkpt lat="46.16345" lon="13.5039083"><ele>583.0</ele><time>2026-05-02T11:35:16.594Z</time></trkpt><trkpt lat="46.1634467" lon="13.5040567"><ele>583.0</ele><time>2026-05-02T11:35:17.593Z</time></trkpt><trkpt lat="46.1634383" lon="13.5042033"><ele>583.0</ele><time>2026-05-02T11:35:18.593Z</time></trkpt><trkpt lat="46.163425" lon="13.5043483"><ele>583.0</ele><time>2026-05-02T11:35:19.594Z</time></trkpt><trkpt lat="46.1634133" lon="13.5044883"><ele>583.0</ele><time>2026-05-02T11:35:20.594Z</time></trkpt><trkpt lat="46.1633983" lon="13.504635"><ele>582.6</ele><time>2026-05-02T11:35:21.595Z</time></trkpt><trkpt lat="46.1633733" lon="13.504795"><ele>582.1999999999999</ele><time>2026-05-02T11:35:22.594Z</time></trkpt><trkpt lat="46.1633517" lon="13.5049433"><ele>581.8</ele><time>2026-05-02T11:35:23.595Z</time></trkpt><trkpt lat="46.1633333" lon="13.5051017"><ele>581.4</ele><time>2026-05-02T11:35:24.594Z</time></trkpt><trkpt lat="46.1633317" lon="13.5052483"><ele>581.0</ele><time>2026-05-02T11:35:25.596Z</time></trkpt><trkpt lat="46.16334" lon="13.5053883"><ele>581.6</ele><time>2026-05-02T11:35:26.594Z</time></trkpt><trkpt lat="46.163365" lon="13.5055417"><ele>582.2</ele><time>2026-05-02T11:35:27.595Z</time></trkpt><trkpt lat="46.1634067" lon="13.5056983"><ele>582.8</ele><time>2026-05-02T11:35:28.594Z</time></trkpt><trkpt lat="46.1634333" lon="13.5058467"><ele>583.4</ele><time>2026-05-02T11:35:29.593Z</time></trkpt><trkpt lat="46.163465" lon="13.506005"><ele>584.0</ele><time>2026-05-02T11:35:30.594Z</time></trkpt><trkpt lat="46.163515" lon="13.5061767"><ele>586.0</ele><time>2026-05-02T11:35:31.594Z</time></trkpt><trkpt lat="46.1635517" lon="13.506355"><ele>588.0</ele><time>2026-05-02T11:35:32.595Z</time></trkpt><trkpt lat="46.1635933" lon="13.5065367"><ele>590.0</ele><time>2026-05-02T11:35:33.594Z</time></trkpt><trkpt lat="46.1636283" lon="13.5067117"><ele>592.0</ele><time>2026-05-02T11:35:34.595Z</time></trkpt><trkpt lat="46.1636633" lon="13.50688"><ele>592.0</ele><time>2026-05-02T11:35:35.594Z</time></trkpt><trkpt lat="46.1636917" lon="13.507025"><ele>592.0</ele><time>2026-05-02T11:35:36.593Z</time></trkpt><trkpt lat="46.163705" lon="13.507145"><ele>592.0</ele><time>2026-05-02T11:35:37.593Z</time></trkpt><trkpt lat="46.1637383" lon="13.5073"><ele>592.0</ele><time>2026-05-02T11:35:39.593Z</time></trkpt><trkpt lat="46.1637817" lon="13.5073667"><ele>592.0</ele><time>2026-05-02T11:35:40.594Z</time></trkpt><trkpt lat="46.1638433" lon="13.5074317"><ele>592.0</ele><time>2026-05-02T11:35:41.593Z</time></trkpt><trkpt lat="46.1639317" lon="13.5075"><ele>589.4</ele><time>2026-05-02T11:35:42.595Z</time></trkpt><trkpt lat="46.16401" lon="13.5075683"><ele>586.8000000000001</ele><time>2026-05-02T11:35:43.593Z</time></trkpt><trkpt lat="46.164105" lon="13.5076283"><ele>584.2</ele><time>2026-05-02T11:35:44.596Z</time></trkpt><trkpt lat="46.1641983" lon="13.5076817"><ele>581.6</ele><time>2026-05-02T11:35:45.594Z</time></trkpt><trkpt lat="46.16429" lon="13.5077217"><ele>579.0</ele><time>2026-05-02T11:35:46.594Z</time></trkpt><trkpt lat="46.1643817" lon="13.507755"><ele>579.0</ele><time>2026-05-02T11:35:47.594Z</time></trkpt><trkpt lat="46.16447" lon="13.5077833"><ele>579.0</ele><time>2026-05-02T11:35:48.593Z</time></trkpt><trkpt lat="46.1645533" lon="13.5078217"><ele>579.0</ele><time>2026-05-02T11:35:49.595Z</time></trkpt><trkpt lat="46.1646367" lon="13.50787"><ele>579.0</ele><time>2026-05-02T11:35:50.594Z</time></trkpt><trkpt lat="46.1647083" lon="13.50793"><ele>579.0</ele><time>2026-05-02T11:35:51.594Z</time></trkpt><trkpt lat="46.1647733" lon="13.5079717"><ele>579.0</ele><time>2026-05-02T11:35:52.594Z</time></trkpt><trkpt lat="46.1648383" lon="13.5079867"><ele>579.3333333333334</ele><time>2026-05-02T11:35:53.594Z</time></trkpt><trkpt lat="46.1649733" lon="13.5079617"><ele>579.6666666666666</ele><time>2026-05-02T11:35:55.594Z</time></trkpt><trkpt lat="46.1650383" lon="13.5079367"><ele>580.0</ele><time>2026-05-02T11:35:56.595Z</time></trkpt><trkpt lat="46.1651133" lon="13.507905"><ele>580.3333333333333</ele><time>2026-05-02T11:35:57.596Z</time></trkpt><trkpt lat="46.16519" lon="13.50787"><ele>580.6666666666666</ele><time>2026-05-02T11:35:58.595Z</time></trkpt><trkpt lat="46.16525" lon="13.5078283"><ele>581.0</ele><time>2026-05-02T11:35:59.594Z</time></trkpt><trkpt lat="46.1653233" lon="13.5078233"><ele>581.0</ele><time>2026-05-02T11:36:00.596Z</time></trkpt><trkpt lat="46.1654" lon="13.507855"><ele>581.0</ele><time>2026-05-02T11:36:02.597Z</time></trkpt><trkpt lat="46.1654317" lon="13.50798"><ele>581.0</ele><time>2026-05-02T11:36:04.595Z</time></trkpt><trkpt lat="46.16545" lon="13.50807"><ele>581.0</ele><time>2026-05-02T11:36:05.594Z</time></trkpt><trkpt lat="46.1654667" lon="13.5081917"><ele>581.0</ele><time>2026-05-02T11:36:06.594Z</time></trkpt><trkpt lat="46.1654733" lon="13.5083217"><ele>581.0</ele><time>2026-05-02T11:36:07.596Z</time></trkpt><trkpt lat="46.165475" lon="13.5084717"><ele>588.6</ele><time>2026-05-02T11:36:08.595Z</time></trkpt><trkpt lat="46.16549" lon="13.508615"><ele>596.2</ele><time>2026-05-02T11:36:09.594Z</time></trkpt><trkpt lat="46.1654983" lon="13.50873"><ele>603.8</ele><time>2026-05-02T11:36:10.596Z</time></trkpt><trkpt lat="46.1655083" lon="13.5088717"><ele>611.4</ele><time>2026-05-02T11:36:12.595Z</time></trkpt><trkpt lat="46.1655783" lon="13.5089417"><ele>619.0</ele><time>2026-05-02T11:36:14.595Z</time></trkpt><trkpt lat="46.1656833" lon="13.5089383"><ele>621.8</ele><time>2026-05-02T11:36:16.594Z</time></trkpt><trkpt lat="46.1657617" lon="13.5088667"><ele>624.5999999999999</ele><time>2026-05-02T11:36:18.594Z</time></trkpt><trkpt lat="46.165855" lon="13.5087917"><ele>627.4</ele><time>2026-05-02T11:36:20.595Z</time></trkpt><trkpt lat="46.1659633" lon="13.5087483"><ele>630.1999999999999</ele><time>2026-05-02T11:36:22.595Z</time></trkpt><trkpt lat="46.1660767" lon="13.5087117"><ele>633.0</ele><time>2026-05-02T11:36:24.598Z</time></trkpt><trkpt lat="46.1661833" lon="13.5086817"><ele>624.25</ele><time>2026-05-02T11:36:26.594Z</time></trkpt><trkpt lat="46.1662967" lon="13.5086617"><ele>615.5</ele><time>2026-05-02T11:36:28.594Z</time></trkpt><trkpt lat="46.1664183" lon="13.5086083"><ele>606.75</ele><time>2026-05-02T11:36:30.593Z</time></trkpt><trkpt lat="46.1665267" lon="13.5085467"><ele>598.0</ele><time>2026-05-02T11:36:32.594Z</time></trkpt><trkpt lat="46.1666267" lon="13.5085017"><ele>601.6</ele><time>2026-05-02T11:36:34.595Z</time></trkpt><trkpt lat="46.1667183" lon="13.5084717"><ele>605.1999999999999</ele><time>2026-05-02T11:36:36.594Z</time></trkpt><trkpt lat="46.166795" lon="13.5085033"><ele>608.8</ele><time>2026-05-02T11:36:38.595Z</time></trkpt><trkpt lat="46.1668933" lon="13.5086783"><ele>612.4</ele><time>2026-05-02T11:36:40.594Z</time></trkpt><trkpt lat="46.16694" lon="13.50876"><ele>616.0</ele><time>2026-05-02T11:36:41.594Z</time></trkpt><trkpt lat="46.1669867" lon="13.5088367"><ele>616.0</ele><time>2026-05-02T11:36:42.593Z</time></trkpt><trkpt lat="46.1670733" lon="13.5089317"><ele>616.0</ele><time>2026-05-02T11:36:44.594Z</time></trkpt><trkpt lat="46.1671583" lon="13.5089617"><ele>616.0</ele><time>2026-05-02T11:36:46.594Z</time></trkpt><trkpt lat="46.167285" lon="13.50895"><ele>616.0</ele><time>2026-05-02T11:36:48.596Z</time></trkpt><trkpt lat="46.1673567" lon="13.5089467"><ele>616.0</ele><time>2026-05-02T11:36:49.595Z</time></trkpt><trkpt lat="46.1674217" lon="13.5089383"><ele>613.6666666666667</ele><time>2026-05-02T11:36:50.594Z</time></trkpt><trkpt lat="46.167505" lon="13.5089517"><ele>611.3333333333334</ele><time>2026-05-02T11:36:51.593Z</time></trkpt><trkpt lat="46.1675983" lon="13.5089517"><ele>609.0</ele><time>2026-05-02T11:36:52.594Z</time></trkpt><trkpt lat="46.1676867" lon="13.5089317"><ele>606.6666666666666</ele><time>2026-05-02T11:36:53.594Z</time></trkpt><trkpt lat="46.1677717" lon="13.508905"><ele>604.3333333333333</ele><time>2026-05-02T11:36:54.595Z</time></trkpt><trkpt lat="46.1678617" lon="13.508875"><ele>602.0</ele><time>2026-05-02T11:36:55.594Z</time></trkpt><trkpt lat="46.1679467" lon="13.50883"><ele>602.0</ele><time>2026-05-02T11:36:56.594Z</time></trkpt><trkpt lat="46.168035" lon="13.5087583"><ele>602.0</ele><time>2026-05-02T11:36:57.593Z</time></trkpt><trkpt lat="46.16812" lon="13.50868"><ele>602.0</ele><time>2026-05-02T11:36:58.593Z</time></trkpt><trkpt lat="46.168215" lon="13.5086067"><ele>602.0</ele><time>2026-05-02T11:36:59.594Z</time></trkpt><trkpt lat="46.1683067" lon="13.508515"><ele>602.0</ele><time>2026-05-02T11:37:00.593Z</time></trkpt><trkpt lat="46.1684" lon="13.5084083"><ele>597.6</ele><time>2026-05-02T11:37:01.595Z</time></trkpt><trkpt lat="46.1684883" lon="13.5083"><ele>593.2</ele><time>2026-05-02T11:37:02.597Z</time></trkpt><trkpt lat="46.16857" lon="13.508195"><ele>588.8</ele><time>2026-05-02T11:37:03.593Z</time></trkpt><trkpt lat="46.1686533" lon="13.508115"><ele>584.4</ele><time>2026-05-02T11:37:04.594Z</time></trkpt><trkpt lat="46.168745" lon="13.50804"><ele>580.0</ele><time>2026-05-02T11:37:05.594Z</time></trkpt><trkpt lat="46.1688317" lon="13.5079767"><ele>580.0</ele><time>2026-05-02T11:37:06.593Z</time></trkpt><trkpt lat="46.1689117" lon="13.5079217"><ele>580.0</ele><time>2026-05-02T11:37:07.594Z</time></trkpt><trkpt lat="46.168985" lon="13.5078783"><ele>580.0</ele><time>2026-05-02T11:37:08.596Z</time></trkpt><trkpt lat="46.1690533" lon="13.5078383"><ele>580.0</ele><time>2026-05-02T11:37:09.594Z</time></trkpt><trkpt lat="46.1691617" lon="13.5077883"><ele>580.0</ele><time>2026-05-02T11:37:11.595Z</time></trkpt><trkpt lat="46.169225" lon="13.5078"><ele>580.0</ele><time>2026-05-02T11:37:13.595Z</time></trkpt><trkpt lat="46.169265" lon="13.5079267"><ele>580.1666666666667</ele><time>2026-05-02T11:37:16.594Z</time></trkpt><trkpt lat="46.1692617" lon="13.508085"><ele>580.3333333333334</ele><time>2026-05-02T11:37:18.595Z</time></trkpt><trkpt lat="46.1692483" lon="13.5081767"><ele>580.5</ele><time>2026-05-02T11:37:19.596Z</time></trkpt><trkpt lat="46.1692283" lon="13.508275"><ele>580.6666666666666</ele><time>2026-05-02T11:37:20.595Z</time></trkpt><trkpt lat="46.1692217" lon="13.5083917"><ele>580.8333333333333</ele><time>2026-05-02T11:37:21.594Z</time></trkpt><trkpt lat="46.1692283" lon="13.5085167"><ele>581.0</ele><time>2026-05-02T11:37:22.594Z</time></trkpt><trkpt lat="46.169235" lon="13.5086283"><ele>586.8</ele><time>2026-05-02T11:37:23.594Z</time></trkpt><trkpt lat="46.1692567" lon="13.5087883"><ele>592.6</ele><time>2026-05-02T11:37:25.594Z</time></trkpt><trkpt lat="46.16929" lon="13.508935"><ele>598.4</ele><time>2026-05-02T11:37:27.594Z</time></trkpt><trkpt lat="46.169385" lon="13.509005"><ele>604.2</ele><time>2026-05-02T11:37:28.595Z</time></trkpt><trkpt lat="46.1694483" lon="13.5090733"><ele>610.0</ele><time>2026-05-02T11:37:29.594Z</time></trkpt><trkpt lat="46.1695333" lon="13.5091333"><ele>610.0</ele><time>2026-05-02T11:37:30.595Z</time></trkpt><trkpt lat="46.1696267" lon="13.509185"><ele>610.0</ele><time>2026-05-02T11:37:31.595Z</time></trkpt><trkpt lat="46.1697033" lon="13.509235"><ele>610.0</ele><time>2026-05-02T11:37:32.595Z</time></trkpt><trkpt lat="46.1697867" lon="13.5092833"><ele>610.0</ele><time>2026-05-02T11:37:33.594Z</time></trkpt><trkpt lat="46.169865" lon="13.5093317"><ele>610.0</ele><time>2026-05-02T11:37:34.595Z</time></trkpt><trkpt lat="46.1699317" lon="13.509365"><ele>610.0</ele><time>2026-05-02T11:37:35.594Z</time></trkpt><trkpt lat="46.1700083" lon="13.509385"><ele>609.0</ele><time>2026-05-02T11:37:36.594Z</time></trkpt><trkpt lat="46.170105" lon="13.5093933"><ele>608.0</ele><time>2026-05-02T11:37:37.593Z</time></trkpt><trkpt lat="46.1702017" lon="13.509415"><ele>607.0</ele><time>2026-05-02T11:37:38.593Z</time></trkpt><trkpt lat="46.1702867" lon="13.509435"><ele>606.0</ele><time>2026-05-02T11:37:39.592Z</time></trkpt><trkpt lat="46.1703633" lon="13.509465"><ele>605.0</ele><time>2026-05-02T11:37:40.592Z</time></trkpt><trkpt lat="46.170435" lon="13.5095133"><ele>604.0</ele><time>2026-05-02T11:37:41.593Z</time></trkpt><trkpt lat="46.1705067" lon="13.5095833"><ele>604.0</ele><time>2026-05-02T11:37:42.593Z</time></trkpt><trkpt lat="46.1705633" lon="13.5096667"><ele>604.0</ele><time>2026-05-02T11:37:43.593Z</time></trkpt><trkpt lat="46.1706083" lon="13.509745"><ele>604.0</ele><time>2026-05-02T11:37:44.593Z</time></trkpt><trkpt lat="46.170675" lon="13.5098417"><ele>604.0</ele><time>2026-05-02T11:37:46.593Z</time></trkpt><trkpt lat="46.17075" lon="13.509875"><ele>604.0</ele><time>2026-05-02T11:37:48.592Z</time></trkpt><trkpt lat="46.1708133" lon="13.5098817"><ele>604.0</ele><time>2026-05-02T11:37:49.593Z</time></trkpt><trkpt lat="46.1708933" lon="13.509925"><ele>596.5</ele><time>2026-05-02T11:37:50.593Z</time></trkpt><trkpt lat="46.1709867" lon="13.509995"><ele>589.0</ele><time>2026-05-02T11:37:51.592Z</time></trkpt><trkpt lat="46.17109" lon="13.5100867"><ele>581.5</ele><time>2026-05-02T11:37:52.594Z</time></trkpt><trkpt lat="46.1711817" lon="13.510175"><ele>574.0</ele><time>2026-05-02T11:37:53.593Z</time></trkpt><trkpt lat="46.1712783" lon="13.510265"><ele>574.0</ele><time>2026-05-02T11:37:54.594Z</time></trkpt><trkpt lat="46.17137" lon="13.5103367"><ele>574.0</ele><time>2026-05-02T11:37:55.594Z</time></trkpt><trkpt lat="46.171445" lon="13.5103833"><ele>574.0</ele><time>2026-05-02T11:37:56.594Z</time></trkpt><trkpt lat="46.1715217" lon="13.510415"><ele>574.0</ele><time>2026-05-02T11:37:57.593Z</time></trkpt><trkpt lat="46.171605" lon="13.5104233"><ele>574.0</ele><time>2026-05-02T11:37:58.594Z</time></trkpt><trkpt lat="46.1716867" lon="13.5104133"><ele>574.0</ele><time>2026-05-02T11:37:59.593Z</time></trkpt><trkpt lat="46.1717817" lon="13.51039"><ele>571.0</ele><time>2026-05-02T11:38:00.593Z</time></trkpt><trkpt lat="46.1718733" lon="13.5103483"><ele>568.0</ele><time>2026-05-02T11:38:01.593Z</time></trkpt><trkpt lat="46.1719633" lon="13.51029"><ele>565.0</ele><time>2026-05-02T11:38:02.594Z</time></trkpt><trkpt lat="46.17205" lon="13.510235"><ele>562.0</ele><time>2026-05-02T11:38:03.593Z</time></trkpt><trkpt lat="46.17214" lon="13.510175"><ele>559.0</ele><time>2026-05-02T11:38:04.595Z</time></trkpt><trkpt lat="46.17223" lon="13.5101017"><ele>559.0</ele><time>2026-05-02T11:38:05.594Z</time></trkpt><trkpt lat="46.172325" lon="13.510025"><ele>559.0</ele><time>2026-05-02T11:38:06.593Z</time></trkpt><trkpt lat="46.1724183" lon="13.5099467"><ele>559.0</ele><time>2026-05-02T11:38:07.595Z</time></trkpt><trkpt lat="46.172505" lon="13.509865"><ele>559.0</ele><time>2026-05-02T11:38:08.598Z</time></trkpt><trkpt lat="46.17258" lon="13.5098033"><ele>559.0</ele><time>2026-05-02T11:38:09.593Z</time></trkpt><trkpt lat="46.1726533" lon="13.5097683"><ele>560.8</ele><time>2026-05-02T11:38:10.594Z</time></trkpt><trkpt lat="46.1727367" lon="13.509765"><ele>562.5999999999999</ele><time>2026-05-02T11:38:11.593Z</time></trkpt><trkpt lat="46.1728283" lon="13.50977"><ele>564.4</ele><time>2026-05-02T11:38:12.593Z</time></trkpt><trkpt lat="46.1729267" lon="13.5097683"><ele>566.1999999999999</ele><time>2026-05-02T11:38:13.593Z</time></trkpt><trkpt lat="46.1730267" lon="13.5097467"><ele>568.0</ele><time>2026-05-02T11:38:14.596Z</time></trkpt><trkpt lat="46.1731167" lon="13.509715"><ele>567.0</ele><time>2026-05-02T11:38:15.594Z</time></trkpt><trkpt lat="46.173195" lon="13.5096817"><ele>566.0</ele><time>2026-05-02T11:38:16.593Z</time></trkpt><trkpt lat="46.1732583" lon="13.509655"><ele>565.0</ele><time>2026-05-02T11:38:17.593Z</time></trkpt><trkpt lat="46.1733417" lon="13.5096067"><ele>564.0</ele><time>2026-05-02T11:38:19.593Z</time></trkpt><trkpt lat="46.17341" lon="13.509535"><ele>563.0</ele><time>2026-05-02T11:38:21.594Z</time></trkpt><trkpt lat="46.1734783" lon="13.5094583"><ele>562.0</ele><time>2026-05-02T11:38:23.594Z</time></trkpt><trkpt lat="46.1735633" lon="13.5094083"><ele>562.0</ele><time>2026-05-02T11:38:25.594Z</time></trkpt><trkpt lat="46.1736533" lon="13.5094"><ele>562.0</ele><time>2026-05-02T11:38:27.593Z</time></trkpt><trkpt lat="46.1737317" lon="13.5094083"><ele>562.0</ele><time>2026-05-02T11:38:29.594Z</time></trkpt><trkpt lat="46.1738183" lon="13.50941"><ele>562.0</ele><time>2026-05-02T11:38:31.593Z</time></trkpt><trkpt lat="46.173895" lon="13.5093867"><ele>562.0</ele><time>2026-05-02T11:38:33.593Z</time></trkpt><trkpt lat="46.1739617" lon="13.5093633"><ele>562.0</ele><time>2026-05-02T11:38:35.594Z</time></trkpt><trkpt lat="46.17404" lon="13.5093033"><ele>563.6</ele><time>2026-05-02T11:38:37.593Z</time></trkpt><trkpt lat="46.1741433" lon="13.509235"><ele>565.2</ele><time>2026-05-02T11:38:39.594Z</time></trkpt><trkpt lat="46.1742233" lon="13.5092033"><ele>566.8</ele><time>2026-05-02T11:38:40.593Z</time></trkpt><trkpt lat="46.174315" lon="13.5091917"><ele>568.4</ele><time>2026-05-02T11:38:41.594Z</time></trkpt><trkpt lat="46.1744067" lon="13.5092"><ele>570.0</ele><time>2026-05-02T11:38:42.593Z</time></trkpt><trkpt lat="46.174495" lon="13.5092267"><ele>570.0</ele><time>2026-05-02T11:38:43.595Z</time></trkpt><trkpt lat="46.1745733" lon="13.5092767"><ele>570.0</ele><time>2026-05-02T11:38:44.594Z</time></trkpt><trkpt lat="46.1746483" lon="13.5093633"><ele>570.0</ele><time>2026-05-02T11:38:45.593Z</time></trkpt><trkpt lat="46.1747317" lon="13.5094433"><ele>570.0</ele><time>2026-05-02T11:38:46.594Z</time></trkpt><trkpt lat="46.17482" lon="13.5094983"><ele>570.0</ele><time>2026-05-02T11:38:47.594Z</time></trkpt><trkpt lat="46.174895" lon="13.50955"><ele>570.3333333333334</ele><time>2026-05-02T11:38:48.593Z</time></trkpt><trkpt lat="46.1749583" lon="13.5095967"><ele>570.6666666666666</ele><time>2026-05-02T11:38:49.594Z</time></trkpt><trkpt lat="46.1750217" lon="13.5096267"><ele>571.0</ele><time>2026-05-02T11:38:50.593Z</time></trkpt><trkpt lat="46.1750917" lon="13.5096283"><ele>571.3333333333333</ele><time>2026-05-02T11:38:51.594Z</time></trkpt><trkpt lat="46.1751583" lon="13.509575"><ele>571.6666666666666</ele><time>2026-05-02T11:38:52.597Z</time></trkpt><trkpt lat="46.1752283" lon="13.5094967"><ele>572.0</ele><time>2026-05-02T11:38:53.594Z</time></trkpt><trkpt lat="46.1752817" lon="13.5093583"><ele>572.0</ele><time>2026-05-02T11:38:54.593Z</time></trkpt><trkpt lat="46.1753267" lon="13.5091917"><ele>572.0</ele><time>2026-05-02T11:38:55.593Z</time></trkpt><trkpt lat="46.175355" lon="13.50902"><ele>572.0</ele><time>2026-05-02T11:38:56.596Z</time></trkpt><trkpt lat="46.1753917" lon="13.5088683"><ele>572.0</ele><time>2026-05-02T11:38:57.594Z</time></trkpt><trkpt lat="46.17543" lon="13.5087317"><ele>572.6</ele><time>2026-05-02T11:38:58.594Z</time></trkpt><trkpt lat="46.1754883" lon="13.5086217"><ele>573.2</ele><time>2026-05-02T11:38:59.593Z</time></trkpt><trkpt lat="46.1755483" lon="13.5085183"><ele>573.8</ele><time>2026-05-02T11:39:00.594Z</time></trkpt><trkpt lat="46.1756367" lon="13.508455"><ele>574.4</ele><time>2026-05-02T11:39:01.594Z</time></trkpt><trkpt lat="46.175725" lon="13.50836"><ele>575.0</ele><time>2026-05-02T11:39:02.594Z</time></trkpt><trkpt lat="46.1758133" lon="13.5082317"><ele>575.0</ele><time>2026-05-02T11:39:03.594Z</time></trkpt><trkpt lat="46.1758967" lon="13.5080867"><ele>575.0</ele><time>2026-05-02T11:39:04.594Z</time></trkpt><trkpt lat="46.1759733" lon="13.5079383"><ele>575.0</ele><time>2026-05-02T11:39:05.594Z</time></trkpt><trkpt lat="46.1760467" lon="13.5077883"><ele>575.0</ele><time>2026-05-02T11:39:06.593Z</time></trkpt><trkpt lat="46.1760983" lon="13.5076383"><ele>570.8</ele><time>2026-05-02T11:39:07.594Z</time></trkpt><trkpt lat="46.1761433" lon="13.5074967"><ele>566.6</ele><time>2026-05-02T11:39:08.593Z</time></trkpt><trkpt lat="46.1761883" lon="13.507365"><ele>562.4</ele><time>2026-05-02T11:39:09.593Z</time></trkpt><trkpt lat="46.1762433" lon="13.507255"><ele>558.2</ele><time>2026-05-02T11:39:10.594Z</time></trkpt><trkpt lat="46.1763067" lon="13.5071583"><ele>554.0</ele><time>2026-05-02T11:39:11.594Z</time></trkpt><trkpt lat="46.1763883" lon="13.5070783"><ele>554.5</ele><time>2026-05-02T11:39:12.593Z</time></trkpt><trkpt lat="46.1764917" lon="13.507005"><ele>555.0</ele><time>2026-05-02T11:39:13.593Z</time></trkpt><trkpt lat="46.1766033" lon="13.5069167"><ele>555.5</ele><time>2026-05-02T11:39:14.594Z</time></trkpt><trkpt lat="46.176715" lon="13.50681"><ele>556.0</ele><time>2026-05-02T11:39:15.594Z</time></trkpt><trkpt lat="46.1768167" lon="13.5066917"><ele>556.0</ele><time>2026-05-02T11:39:16.594Z</time></trkpt><trkpt lat="46.1769117" lon="13.5065767"><ele>556.0</ele><time>2026-05-02T11:39:17.593Z</time></trkpt><trkpt lat="46.1770117" lon="13.5064817"><ele>556.0</ele><time>2026-05-02T11:39:18.594Z</time></trkpt><trkpt lat="46.1771233" lon="13.5064167"><ele>556.0</ele><time>2026-05-02T11:39:19.593Z</time></trkpt><trkpt lat="46.1772167" lon="13.506325"><ele>556.0</ele><time>2026-05-02T11:39:20.595Z</time></trkpt><trkpt lat="46.17732" lon="13.5062683"><ele>556.0</ele><time>2026-05-02T11:39:21.594Z</time></trkpt><trkpt lat="46.17742" lon="13.5062183"><ele>556.0</ele><time>2026-05-02T11:39:22.595Z</time></trkpt><trkpt lat="46.1774933" lon="13.506135"><ele>556.0</ele><time>2026-05-02T11:39:23.593Z</time></trkpt><trkpt lat="46.177535" lon="13.5060183"><ele>556.0</ele><time>2026-05-02T11:39:24.594Z</time></trkpt><trkpt lat="46.1775567" lon="13.5058717"><ele>555.6</ele><time>2026-05-02T11:39:25.594Z</time></trkpt><trkpt lat="46.1775817" lon="13.505725"><ele>555.2</ele><time>2026-05-02T11:39:26.594Z</time></trkpt><trkpt lat="46.1776233" lon="13.5055967"><ele>554.8</ele><time>2026-05-02T11:39:27.593Z</time></trkpt><trkpt lat="46.1776183" lon="13.505485"><ele>554.4</ele><time>2026-05-02T11:39:28.595Z</time></trkpt><trkpt lat="46.1776033" lon="13.5053717"><ele>554.0</ele><time>2026-05-02T11:39:29.594Z</time></trkpt><trkpt lat="46.1775483" lon="13.5052617"><ele>554.0</ele><time>2026-05-02T11:39:30.594Z</time></trkpt><trkpt lat="46.1775367" lon="13.5051533"><ele>554.0</ele><time>2026-05-02T11:39:31.594Z</time></trkpt><trkpt lat="46.177555" lon="13.50503"><ele>554.0</ele><time>2026-05-02T11:39:32.593Z</time></trkpt><trkpt lat="46.1775833" lon="13.50489"><ele>554.0</ele><time>2026-05-02T11:39:33.596Z</time></trkpt><trkpt lat="46.1776567" lon="13.504745"><ele>554.0</ele><time>2026-05-02T11:39:34.594Z</time></trkpt><trkpt lat="46.177765" lon="13.5046283"><ele>554.5</ele><time>2026-05-02T11:39:35.594Z</time></trkpt><trkpt lat="46.1778383" lon="13.5045017"><ele>555.0</ele><time>2026-05-02T11:39:36.594Z</time></trkpt><trkpt lat="46.1778817" lon="13.5043483"><ele>555.5</ele><time>2026-05-02T11:39:37.594Z</time></trkpt><trkpt lat="46.17792" lon="13.5041767"><ele>556.0</ele><time>2026-05-02T11:39:38.594Z</time></trkpt><trkpt lat="46.1779267" lon="13.5039733"><ele>556.0</ele><time>2026-05-02T11:39:39.594Z</time></trkpt><trkpt lat="46.1779517" lon="13.5037667"><ele>556.0</ele><time>2026-05-02T11:39:40.595Z</time></trkpt><trkpt lat="46.1779783" lon="13.50357"><ele>556.0</ele><time>2026-05-02T11:39:41.593Z</time></trkpt><trkpt lat="46.177985" lon="13.5033883"><ele>556.0</ele><time>2026-05-02T11:39:42.594Z</time></trkpt><trkpt lat="46.1780033" lon="13.503245"><ele>556.5</ele><time>2026-05-02T11:39:43.593Z</time></trkpt><trkpt lat="46.1780433" lon="13.5031167"><ele>557.0</ele><time>2026-05-02T11:39:44.594Z</time></trkpt><trkpt lat="46.178135" lon="13.5030067"><ele>557.5</ele><time>2026-05-02T11:39:45.594Z</time></trkpt><trkpt lat="46.1782233" lon="13.50287"><ele>558.0</ele><time>2026-05-02T11:39:46.594Z</time></trkpt><trkpt lat="46.1783017" lon="13.5027233"><ele>561.5</ele><time>2026-05-02T11:39:47.594Z</time></trkpt><trkpt lat="46.1783583" lon="13.5026017"><ele>565.0</ele><time>2026-05-02T11:39:48.594Z</time></trkpt><trkpt lat="46.1783983" lon="13.5025017"><ele>568.5</ele><time>2026-05-02T11:39:49.593Z</time></trkpt><trkpt lat="46.178435" lon="13.50237"><ele>572.0</ele><time>2026-05-02T11:39:51.593Z</time></trkpt><trkpt lat="46.1784667" lon="13.5022783"><ele>575.5</ele><time>2026-05-02T11:39:54.595Z</time></trkpt><trkpt lat="46.1784967" lon="13.5023633"><ele>579.0</ele><time>2026-05-02T11:39:58.593Z</time></trkpt><trkpt lat="46.1785083" lon="13.5024783"><ele>579.0</ele><time>2026-05-02T11:40:00.594Z</time></trkpt><trkpt lat="46.1785683" lon="13.5025633"><ele>579.0</ele><time>2026-05-02T11:40:02.595Z</time></trkpt><trkpt lat="46.1786767" lon="13.50263"><ele>579.0</ele><time>2026-05-02T11:40:04.593Z</time></trkpt><trkpt lat="46.1787367" lon="13.502755"><ele>579.0</ele><time>2026-05-02T11:40:06.594Z</time></trkpt><trkpt lat="46.1787567" lon="13.502955"><ele>579.0</ele><time>2026-05-02T11:40:08.595Z</time></trkpt><trkpt lat="46.1787433" lon="13.5030733"><ele>579.8333333333334</ele><time>2026-05-02T11:40:09.593Z</time></trkpt><trkpt lat="46.17873" lon="13.5031883"><ele>580.6666666666666</ele><time>2026-05-02T11:40:10.594Z</time></trkpt><trkpt lat="46.17871" lon="13.5032967"><ele>581.5</ele><time>2026-05-02T11:40:11.594Z</time></trkpt><trkpt lat="46.1786817" lon="13.5033983"><ele>582.3333333333333</ele><time>2026-05-02T11:40:12.595Z</time></trkpt><trkpt lat="46.1786433" lon="13.5034967"><ele>583.1666666666666</ele><time>2026-05-02T11:40:13.593Z</time></trkpt><trkpt lat="46.1785967" lon="13.5036033"><ele>584.0</ele><time>2026-05-02T11:40:14.593Z</time></trkpt><trkpt lat="46.178545" lon="13.5037233"><ele>585.3333333333333</ele><time>2026-05-02T11:40:15.594Z</time></trkpt><trkpt lat="46.1785017" lon="13.5038533"><ele>586.6666666666666</ele><time>2026-05-02T11:40:16.593Z</time></trkpt><trkpt lat="46.1784617" lon="13.5039783"><ele>588.0</ele><time>2026-05-02T11:40:17.594Z</time></trkpt><trkpt lat="46.1784317" lon="13.5040983"><ele>589.3333333333334</ele><time>2026-05-02T11:40:18.594Z</time></trkpt><trkpt lat="46.1784217" lon="13.5042133"><ele>590.6666666666667</ele><time>2026-05-02T11:40:19.594Z</time></trkpt><trkpt lat="46.1784217" lon="13.50432"><ele>592.0</ele><time>2026-05-02T11:40:20.594Z</time></trkpt><trkpt lat="46.1784283" lon="13.5044283"><ele>592.0</ele><time>2026-05-02T11:40:21.594Z</time></trkpt><trkpt lat="46.1784333" lon="13.504535"><ele>592.0</ele><time>2026-05-02T11:40:22.596Z</time></trkpt><trkpt lat="46.1784433" lon="13.5046467"><ele>592.0</ele><time>2026-05-02T11:40:23.595Z</time></trkpt><trkpt lat="46.1784517" lon="13.5047533"><ele>592.0</ele><time>2026-05-02T11:40:24.595Z</time></trkpt><trkpt lat="46.178455" lon="13.5048683"><ele>592.0</ele><time>2026-05-02T11:40:25.595Z</time></trkpt><trkpt lat="46.178445" lon="13.5049833"><ele>592.0</ele><time>2026-05-02T11:40:26.596Z</time></trkpt><trkpt lat="46.1784283" lon="13.5050917"><ele>593.2</ele><time>2026-05-02T11:40:27.595Z</time></trkpt><trkpt lat="46.1784167" lon="13.505215"><ele>594.4000000000001</ele><time>2026-05-02T11:40:28.594Z</time></trkpt><trkpt lat="46.178405" lon="13.5053483"><ele>595.5999999999999</ele><time>2026-05-02T11:40:29.594Z</time></trkpt><trkpt lat="46.178385" lon="13.5054967"><ele>596.8</ele><time>2026-05-02T11:40:30.594Z</time></trkpt><trkpt lat="46.178365" lon="13.5056383"><ele>598.0</ele><time>2026-05-02T11:40:31.594Z</time></trkpt><trkpt lat="46.1783467" lon="13.5057717"><ele>599.4</ele><time>2026-05-02T11:40:32.596Z</time></trkpt><trkpt lat="46.17833" lon="13.5059017"><ele>600.8</ele><time>2026-05-02T11:40:33.594Z</time></trkpt><trkpt lat="46.1783117" lon="13.5060217"><ele>602.2</ele><time>2026-05-02T11:40:34.595Z</time></trkpt><trkpt lat="46.178295" lon="13.5061233"><ele>603.6</ele><time>2026-05-02T11:40:35.595Z</time></trkpt><trkpt lat="46.1782933" lon="13.5062817"><ele>605.0</ele><time>2026-05-02T11:40:37.594Z</time></trkpt><trkpt lat="46.1783017" lon="13.506425"><ele>607.0</ele><time>2026-05-02T11:40:39.594Z</time></trkpt><trkpt lat="46.1782967" lon="13.506555"><ele>609.0</ele><time>2026-05-02T11:40:41.595Z</time></trkpt><trkpt lat="46.1782283" lon="13.5066583"><ele>611.0</ele><time>2026-05-02T11:40:43.599Z</time></trkpt><trkpt lat="46.17817" lon="13.50673"><ele>613.0</ele><time>2026-05-02T11:40:44.595Z</time></trkpt><trkpt lat="46.17812" lon="13.506805"><ele>615.0</ele><time>2026-05-02T11:40:45.594Z</time></trkpt><trkpt lat="46.1780717" lon="13.5068767"><ele>617.0</ele><time>2026-05-02T11:40:46.594Z</time></trkpt><trkpt lat="46.17803" lon="13.5069633"><ele>615.8000000000001</ele><time>2026-05-02T11:40:47.595Z</time></trkpt><trkpt lat="46.1779833" lon="13.50706"><ele>614.6</ele><time>2026-05-02T11:40:48.595Z</time></trkpt><trkpt lat="46.1779567" lon="13.5071617"><ele>613.4000000000001</ele><time>2026-05-02T11:40:49.595Z</time></trkpt><trkpt lat="46.1779117" lon="13.507315"><ele>612.2</ele><time>2026-05-02T11:40:51.594Z</time></trkpt><trkpt lat="46.1778917" lon="13.5074367"><ele>611.0</ele><time>2026-05-02T11:40:53.595Z</time></trkpt><trkpt lat="46.1779617" lon="13.5073317"><ele>611.0</ele><time>2026-05-02T11:40:56.594Z</time></trkpt><trkpt lat="46.1780267" lon="13.5072517"><ele>611.0</ele><time>2026-05-02T11:40:57.594Z</time></trkpt><trkpt lat="46.1780867" lon="13.5071833"><ele>611.0</ele><time>2026-05-02T11:40:58.594Z</time></trkpt><trkpt lat="46.1781483" lon="13.5071383"><ele>611.0</ele><time>2026-05-02T11:40:59.595Z</time></trkpt><trkpt lat="46.1782117" lon="13.5071283"><ele>611.0</ele><time>2026-05-02T11:41:00.594Z</time></trkpt><trkpt lat="46.1782917" lon="13.50715"><ele>611.0</ele><time>2026-05-02T11:41:01.597Z</time></trkpt><trkpt lat="46.1783583" lon="13.5072067"><ele>612.0</ele><time>2026-05-02T11:41:02.596Z</time></trkpt><trkpt lat="46.1784517" lon="13.50728"><ele>613.0</ele><time>2026-05-02T11:41:04.596Z</time></trkpt><trkpt lat="46.178535" lon="13.50725"><ele>614.0</ele><time>2026-05-02T11:41:06.596Z</time></trkpt><trkpt lat="46.1786133" lon="13.5071667"><ele>615.0</ele><time>2026-05-02T11:41:08.596Z</time></trkpt><trkpt lat="46.178665" lon="13.50711"><ele>616.0</ele><time>2026-05-02T11:41:09.596Z</time></trkpt><trkpt lat="46.1787117" lon="13.507025"><ele>617.0</ele><time>2026-05-02T11:41:10.595Z</time></trkpt><trkpt lat="46.1787483" lon="13.506915"><ele>617.0</ele><time>2026-05-02T11:41:11.595Z</time></trkpt><trkpt lat="46.178765" lon="13.506775"><ele>617.0</ele><time>2026-05-02T11:41:12.595Z</time></trkpt><trkpt lat="46.17879" lon="13.50663"><ele>617.0</ele><time>2026-05-02T11:41:13.595Z</time></trkpt><trkpt lat="46.1788283" lon="13.5064783"><ele>617.0</ele><time>2026-05-02T11:41:14.596Z</time></trkpt><trkpt lat="46.1788667" lon="13.5063283"><ele>617.0</ele><time>2026-05-02T11:41:15.594Z</time></trkpt><trkpt lat="46.1788983" lon="13.5061733"><ele>614.6</ele><time>2026-05-02T11:41:16.594Z</time></trkpt><trkpt lat="46.1789317" lon="13.5060333"><ele>612.2</ele><time>2026-05-02T11:41:17.595Z</time></trkpt><trkpt lat="46.1789717" lon="13.5059083"><ele>609.8</ele><time>2026-05-02T11:41:18.594Z</time></trkpt><trkpt lat="46.179015" lon="13.505795"><ele>607.4</ele><time>2026-05-02T11:41:19.596Z</time></trkpt><trkpt lat="46.17906" lon="13.5056817"><ele>605.0</ele><time>2026-05-02T11:41:20.596Z</time></trkpt><trkpt lat="46.1791133" lon="13.5055667"><ele>611.8</ele><time>2026-05-02T11:41:21.594Z</time></trkpt><trkpt lat="46.179155" lon="13.5054317"><ele>618.6</ele><time>2026-05-02T11:41:22.596Z</time></trkpt><trkpt lat="46.1792" lon="13.50529"><ele>625.4</ele><time>2026-05-02T11:41:23.594Z</time></trkpt><trkpt lat="46.1792633" lon="13.5051617"><ele>632.2</ele><time>2026-05-02T11:41:24.595Z</time></trkpt><trkpt lat="46.1793267" lon="13.5050467"><ele>639.0</ele><time>2026-05-02T11:41:25.595Z</time></trkpt><trkpt lat="46.179375" lon="13.5049467"><ele>639.0</ele><time>2026-05-02T11:41:26.596Z</time></trkpt><trkpt lat="46.17942" lon="13.504845"><ele>639.0</ele><time>2026-05-02T11:41:27.596Z</time></trkpt><trkpt lat="46.179475" lon="13.50473"><ele>639.0</ele><time>2026-05-02T11:41:28.597Z</time></trkpt><trkpt lat="46.179535" lon="13.5046083"><ele>639.0</ele><time>2026-05-02T11:41:29.595Z</time></trkpt><trkpt lat="46.179595" lon="13.5044917"><ele>639.0</ele><time>2026-05-02T11:41:30.595Z</time></trkpt><trkpt lat="46.1796433" lon="13.504385"><ele>637.0</ele><time>2026-05-02T11:41:31.595Z</time></trkpt><trkpt lat="46.1796917" lon="13.5042983"><ele>635.0</ele><time>2026-05-02T11:41:32.596Z</time></trkpt><trkpt lat="46.17974" lon="13.5041967"><ele>633.0</ele><time>2026-05-02T11:41:33.594Z</time></trkpt><trkpt lat="46.179785" lon="13.5040783"><ele>631.0</ele><time>2026-05-02T11:41:34.595Z</time></trkpt><trkpt lat="46.1798317" lon="13.5039583"><ele>629.0</ele><time>2026-05-02T11:41:35.596Z</time></trkpt><trkpt lat="46.1798783" lon="13.5038417"><ele>627.0</ele><time>2026-05-02T11:41:36.596Z</time></trkpt><trkpt lat="46.1799217" lon="13.5037367"><ele>630.7142857142858</ele><time>2026-05-02T11:41:37.595Z</time></trkpt><trkpt lat="46.1799583" lon="13.50365"><ele>634.4285714285714</ele><time>2026-05-02T11:41:38.596Z</time></trkpt><trkpt lat="46.179995" lon="13.5035717"><ele>638.1428571428571</ele><time>2026-05-02T11:41:39.595Z</time></trkpt><trkpt lat="46.1800367" lon="13.503495"><ele>641.8571428571429</ele><time>2026-05-02T11:41:40.594Z</time></trkpt><trkpt lat="46.1800817" lon="13.5034133"><ele>645.5714285714286</ele><time>2026-05-02T11:41:41.595Z</time></trkpt><trkpt lat="46.18014" lon="13.5033283"><ele>649.2857142857143</ele><time>2026-05-02T11:41:42.595Z</time></trkpt><trkpt lat="46.180195" lon="13.503235"><ele>653.0</ele><time>2026-05-02T11:41:43.596Z</time></trkpt><trkpt lat="46.1802533" lon="13.5031433"><ele>653.0</ele><time>2026-05-02T11:41:44.596Z</time></trkpt><trkpt lat="46.1803067" lon="13.5030567"><ele>653.0</ele><time>2026-05-02T11:41:45.595Z</time></trkpt><trkpt lat="46.1803517" lon="13.5029383"><ele>653.0</ele><time>2026-05-02T11:41:47.597Z</time></trkpt><trkpt lat="46.1804067" lon="13.50285"><ele>653.0</ele><time>2026-05-02T11:41:50.596Z</time></trkpt><trkpt lat="46.1804583" lon="13.5027833"><ele>653.0</ele><time>2026-05-02T11:41:54.597Z</time></trkpt><trkpt lat="46.1805233" lon="13.5026867"><ele>653.0</ele><time>2026-05-02T11:41:56.597Z</time></trkpt><trkpt lat="46.1806083" lon="13.5025417"><ele>654.2857142857143</ele><time>2026-05-02T11:41:58.595Z</time></trkpt><trkpt lat="46.1806567" lon="13.5024717"><ele>655.5714285714286</ele><time>2026-05-02T11:41:59.597Z</time></trkpt><trkpt lat="46.1807117" lon="13.5024067"><ele>656.8571428571429</ele><time>2026-05-02T11:42:00.596Z</time></trkpt><trkpt lat="46.18077" lon="13.50235"><ele>658.1428571428571</ele><time>2026-05-02T11:42:01.596Z</time></trkpt><trkpt lat="46.1808383" lon="13.5022933"><ele>659.4285714285714</ele><time>2026-05-02T11:42:02.597Z</time></trkpt><trkpt lat="46.1809067" lon="13.5022367"><ele>660.7142857142858</ele><time>2026-05-02T11:42:03.594Z</time></trkpt><trkpt lat="46.180975" lon="13.5021717"><ele>662.0</ele><time>2026-05-02T11:42:04.596Z</time></trkpt><trkpt lat="46.1810483" lon="13.50211"><ele>660.2</ele><time>2026-05-02T11:42:05.595Z</time></trkpt><trkpt lat="46.1811283" lon="13.5020417"><ele>658.4000000000001</ele><time>2026-05-02T11:42:06.596Z</time></trkpt><trkpt lat="46.1811767" lon="13.5019467"><ele>656.5999999999999</ele><time>2026-05-02T11:42:07.609Z</time></trkpt><trkpt lat="46.1812467" lon="13.5018567"><ele>654.8</ele><time>2026-05-02T11:42:08.597Z</time></trkpt><trkpt lat="46.1813167" lon="13.5017517"><ele>653.0</ele><time>2026-05-02T11:42:09.594Z</time></trkpt><trkpt lat="46.18139" lon="13.5016517"><ele>653.0</ele><time>2026-05-02T11:42:10.595Z</time></trkpt><trkpt lat="46.181455" lon="13.5015517"><ele>653.0</ele><time>2026-05-02T11:42:11.597Z</time></trkpt><trkpt lat="46.18152" lon="13.5014417"><ele>653.0</ele><time>2026-05-02T11:42:12.596Z</time></trkpt><trkpt lat="46.1815783" lon="13.50134"><ele>653.0</ele><time>2026-05-02T11:42:13.595Z</time></trkpt><trkpt lat="46.1816483" lon="13.50123"><ele>653.0</ele><time>2026-05-02T11:42:14.596Z</time></trkpt><trkpt lat="46.1817067" lon="13.5011117"><ele>655.8</ele><time>2026-05-02T11:42:15.596Z</time></trkpt><trkpt lat="46.18178" lon="13.5009883"><ele>658.5999999999999</ele><time>2026-05-02T11:42:16.596Z</time></trkpt><trkpt lat="46.1818483" lon="13.5008617"><ele>661.4000000000001</ele><time>2026-05-02T11:42:17.595Z</time></trkpt><trkpt lat="46.1819117" lon="13.5007433"><ele>664.2</ele><time>2026-05-02T11:42:18.597Z</time></trkpt><trkpt lat="46.18196" lon="13.500635"><ele>667.0</ele><time>2026-05-02T11:42:19.598Z</time></trkpt><trkpt lat="46.1820167" lon="13.500535"><ele>667.0</ele><time>2026-05-02T11:42:20.597Z</time></trkpt><trkpt lat="46.18208" lon="13.500435"><ele>667.0</ele><time>2026-05-02T11:42:21.6Z</time></trkpt><trkpt lat="46.1821617" lon="13.500335"><ele>667.0</ele><time>2026-05-02T11:42:22.595Z</time></trkpt><trkpt lat="46.1822583" lon="13.50024"><ele>667.0</ele><time>2026-05-02T11:42:23.595Z</time></trkpt><trkpt lat="46.1823567" lon="13.50014"><ele>667.0</ele><time>2026-05-02T11:42:24.595Z</time></trkpt><trkpt lat="46.1824433" lon="13.500045"><ele>667.6666666666667</ele><time>2026-05-02T11:42:25.595Z</time></trkpt><trkpt lat="46.182525" lon="13.4999583"><ele>668.3333333333334</ele><time>2026-05-02T11:42:26.595Z</time></trkpt><trkpt lat="46.1826033" lon="13.4998783"><ele>669.0</ele><time>2026-05-02T11:42:27.593Z</time></trkpt><trkpt lat="46.18268" lon="13.4998083"><ele>669.6666666666666</ele><time>2026-05-02T11:42:28.596Z</time></trkpt><trkpt lat="46.1827533" lon="13.4997483"><ele>670.3333333333333</ele><time>2026-05-02T11:42:29.594Z</time></trkpt><trkpt lat="46.1828183" lon="13.499695"><ele>671.0</ele><time>2026-05-02T11:42:30.596Z</time></trkpt><trkpt lat="46.1828933" lon="13.4996567"><ele>671.0</ele><time>2026-05-02T11:42:31.593Z</time></trkpt><trkpt lat="46.1829717" lon="13.49963"><ele>671.0</ele><time>2026-05-02T11:42:32.595Z</time></trkpt><trkpt lat="46.1830367" lon="13.4995983"><ele>671.0</ele><time>2026-05-02T11:42:33.593Z</time></trkpt><trkpt lat="46.1831017" lon="13.4995633"><ele>671.0</ele><time>2026-05-02T11:42:34.595Z</time></trkpt><trkpt lat="46.1831667" lon="13.4995217"><ele>671.0</ele><time>2026-05-02T11:42:35.594Z</time></trkpt><trkpt lat="46.183235" lon="13.4994767"><ele>671.0</ele><time>2026-05-02T11:42:36.593Z</time></trkpt><trkpt lat="46.1833017" lon="13.499415"><ele>671.0</ele><time>2026-05-02T11:42:37.593Z</time></trkpt><trkpt lat="46.1833583" lon="13.49934"><ele>670.0</ele><time>2026-05-02T11:42:38.594Z</time></trkpt><trkpt lat="46.18339" lon="13.4992417"><ele>669.0</ele><time>2026-05-02T11:42:39.593Z</time></trkpt><trkpt lat="46.1834367" lon="13.4991367"><ele>668.0</ele><time>2026-05-02T11:42:40.594Z</time></trkpt><trkpt lat="46.1834917" lon="13.499035"><ele>667.0</ele><time>2026-05-02T11:42:41.595Z</time></trkpt><trkpt lat="46.18355" lon="13.4989433"><ele>666.0</ele><time>2026-05-02T11:42:42.593Z</time></trkpt><trkpt lat="46.1836017" lon="13.49886"><ele>665.0</ele><time>2026-05-02T11:42:43.596Z</time></trkpt><trkpt lat="46.18367" lon="13.4987933"><ele>663.4</ele><time>2026-05-02T11:42:44.595Z</time></trkpt><trkpt lat="46.183745" lon="13.4987233"><ele>661.8</ele><time>2026-05-02T11:42:45.594Z</time></trkpt><trkpt lat="46.1838317" lon="13.4986533"><ele>660.2</ele><time>2026-05-02T11:42:46.594Z</time></trkpt><trkpt lat="46.18392" lon="13.4985833"><ele>658.6</ele><time>2026-05-02T11:42:47.594Z</time></trkpt><trkpt lat="46.1839917" lon="13.49851"><ele>657.0</ele><time>2026-05-02T11:42:48.593Z</time></trkpt><trkpt lat="46.1840667" lon="13.4984433"><ele>657.0</ele><time>2026-05-02T11:42:49.596Z</time></trkpt><trkpt lat="46.1841217" lon="13.498365"><ele>657.0</ele><time>2026-05-02T11:42:50.593Z</time></trkpt><trkpt lat="46.184185" lon="13.4982983"><ele>657.0</ele><time>2026-05-02T11:42:51.594Z</time></trkpt><trkpt lat="46.1842467" lon="13.4982117"><ele>657.0</ele><time>2026-05-02T11:42:52.593Z</time></trkpt><trkpt lat="46.1843067" lon="13.4981167"><ele>657.0</ele><time>2026-05-02T11:42:53.593Z</time></trkpt><trkpt lat="46.1843583" lon="13.49803"><ele>657.0</ele><time>2026-05-02T11:42:54.593Z</time></trkpt><trkpt lat="46.184415" lon="13.4979617"><ele>658.1666666666666</ele><time>2026-05-02T11:42:55.594Z</time></trkpt><trkpt lat="46.1844767" lon="13.4979133"><ele>659.3333333333334</ele><time>2026-05-02T11:42:56.593Z</time></trkpt><trkpt lat="46.1845717" lon="13.4978767"><ele>660.5</ele><time>2026-05-02T11:42:58.593Z</time></trkpt><trkpt lat="46.1846867" lon="13.49789"><ele>661.6666666666667</ele><time>2026-05-02T11:43:00.593Z</time></trkpt><trkpt lat="46.1847617" lon="13.4978867"><ele>662.8333333333334</ele><time>2026-05-02T11:43:01.595Z</time></trkpt><trkpt lat="46.184835" lon="13.497875"><ele>664.0</ele><time>2026-05-02T11:43:02.595Z</time></trkpt><trkpt lat="46.1849017" lon="13.4978483"><ele>664.0</ele><time>2026-05-02T11:43:03.593Z</time></trkpt><trkpt lat="46.184955" lon="13.4977983"><ele>664.0</ele><time>2026-05-02T11:43:04.596Z</time></trkpt><trkpt lat="46.185" lon="13.4977283"><ele>664.0</ele><time>2026-05-02T11:43:05.595Z</time></trkpt><trkpt lat="46.1850567" lon="13.4976583"><ele>664.0</ele><time>2026-05-02T11:43:06.594Z</time></trkpt><trkpt lat="46.1851117" lon="13.4975767"><ele>664.0</ele><time>2026-05-02T11:43:07.594Z</time></trkpt><trkpt lat="46.18517" lon="13.4975017"><ele>664.0</ele><time>2026-05-02T11:43:08.595Z</time></trkpt><trkpt lat="46.1852317" lon="13.4974217"><ele>664.0</ele><time>2026-05-02T11:43:09.594Z</time></trkpt><trkpt lat="46.1852883" lon="13.4973433"><ele>664.0</ele><time>2026-05-02T11:43:10.594Z</time></trkpt><trkpt lat="46.1853133" lon="13.497245"><ele>664.0</ele><time>2026-05-02T11:43:11.593Z</time></trkpt><trkpt lat="46.18535" lon="13.4971483"><ele>664.0</ele><time>2026-05-02T11:43:12.593Z</time></trkpt><trkpt lat="46.1853817" lon="13.4970383"><ele>664.0</ele><time>2026-05-02T11:43:13.594Z</time></trkpt><trkpt lat="46.18541" lon="13.4969233"><ele>664.0</ele><time>2026-05-02T11:43:14.593Z</time></trkpt><trkpt lat="46.185435" lon="13.4967933"><ele>664.0</ele><time>2026-05-02T11:43:15.593Z</time></trkpt><trkpt lat="46.1854717" lon="13.4966583"><ele>661.6</ele><time>2026-05-02T11:43:16.594Z</time></trkpt><trkpt lat="46.185515" lon="13.4965417"><ele>659.2</ele><time>2026-05-02T11:43:17.595Z</time></trkpt><trkpt lat="46.18556" lon="13.496425"><ele>656.8000000000001</ele><time>2026-05-02T11:43:18.593Z</time></trkpt><trkpt lat="46.1856233" lon="13.4963083"><ele>654.4000000000001</ele><time>2026-05-02T11:43:19.593Z</time></trkpt><trkpt lat="46.18568" lon="13.4961767"><ele>652.0</ele><time>2026-05-02T11:43:20.594Z</time></trkpt><trkpt lat="46.1857417" lon="13.4960583"><ele>656.1666666666667</ele><time>2026-05-02T11:43:21.594Z</time></trkpt><trkpt lat="46.1857933" lon="13.495955"><ele>660.3333333333334</ele><time>2026-05-02T11:43:22.593Z</time></trkpt><trkpt lat="46.18586" lon="13.4958817"><ele>664.5</ele><time>2026-05-02T11:43:23.593Z</time></trkpt><trkpt lat="46.185925" lon="13.4958183"><ele>668.6666666666666</ele><time>2026-05-02T11:43:24.593Z</time></trkpt><trkpt lat="46.185995" lon="13.4957617"><ele>672.8333333333333</ele><time>2026-05-02T11:43:25.594Z</time></trkpt><trkpt lat="46.186065" lon="13.4957067"><ele>677.0</ele><time>2026-05-02T11:43:26.593Z</time></trkpt><trkpt lat="46.186125" lon="13.49567"><ele>677.0</ele><time>2026-05-02T11:43:27.592Z</time></trkpt><trkpt lat="46.1861883" lon="13.4956583"><ele>677.0</ele><time>2026-05-02T11:43:28.596Z</time></trkpt><trkpt lat="46.1862517" lon="13.4956683"><ele>677.0</ele><time>2026-05-02T11:43:29.594Z</time></trkpt><trkpt lat="46.1863217" lon="13.4956983"><ele>677.0</ele><time>2026-05-02T11:43:30.593Z</time></trkpt><trkpt lat="46.1864067" lon="13.4957633"><ele>677.0</ele><time>2026-05-02T11:43:31.593Z</time></trkpt><trkpt lat="46.1864867" lon="13.4958417"><ele>677.0</ele><time>2026-05-02T11:43:32.595Z</time></trkpt><trkpt lat="46.18656" lon="13.495925"><ele>679.4000000000001</ele><time>2026-05-02T11:43:33.593Z</time></trkpt><trkpt lat="46.1866467" lon="13.4960267"><ele>681.8000000000001</ele><time>2026-05-02T11:43:34.593Z</time></trkpt><trkpt lat="46.1867267" lon="13.4961283"><ele>684.2</ele><time>2026-05-02T11:43:35.593Z</time></trkpt><trkpt lat="46.18681" lon="13.4962367"><ele>686.6</ele><time>2026-05-02T11:43:36.593Z</time></trkpt><trkpt lat="46.1868933" lon="13.4963317"><ele>689.0</ele><time>2026-05-02T11:43:37.593Z</time></trkpt><trkpt lat="46.186975" lon="13.4964133"><ele>690.2</ele><time>2026-05-02T11:43:38.595Z</time></trkpt><trkpt lat="46.1870617" lon="13.4964867"><ele>691.4000000000001</ele><time>2026-05-02T11:43:39.593Z</time></trkpt><trkpt lat="46.18714" lon="13.4965517"><ele>692.6</ele><time>2026-05-02T11:43:40.593Z</time></trkpt><trkpt lat="46.1872217" lon="13.4966117"><ele>693.8</ele><time>2026-05-02T11:43:41.595Z</time></trkpt><trkpt lat="46.1873017" lon="13.49667"><ele>695.0</ele><time>2026-05-02T11:43:42.593Z</time></trkpt><trkpt lat="46.1873883" lon="13.4967283"><ele>695.0000000000001</ele><time>2026-05-02T11:43:43.593Z</time></trkpt><trkpt lat="46.18747" lon="13.49678"><ele>695.0</ele><time>2026-05-02T11:43:44.594Z</time></trkpt><trkpt lat="46.1875467" lon="13.4968233"><ele>695.0</ele><time>2026-05-02T11:43:45.594Z</time></trkpt><trkpt lat="46.1876083" lon="13.4968517"><ele>695.0</ele><time>2026-05-02T11:43:46.593Z</time></trkpt><trkpt lat="46.1876733" lon="13.4968733"><ele>695.0</ele><time>2026-05-02T11:43:47.595Z</time></trkpt><trkpt lat="46.1877417" lon="13.4968833"><ele>695.0000000000001</ele><time>2026-05-02T11:43:48.594Z</time></trkpt><trkpt lat="46.187815" lon="13.496905"><ele>695.0</ele><time>2026-05-02T11:43:49.596Z</time></trkpt><trkpt lat="46.1879033" lon="13.49695"><ele>695.0</ele><time>2026-05-02T11:43:50.593Z</time></trkpt><trkpt lat="46.1879933" lon="13.4970083"><ele>695.0</ele><time>2026-05-02T11:43:51.594Z</time></trkpt><trkpt lat="46.18809" lon="13.497065"><ele>695.0</ele><time>2026-05-02T11:43:52.593Z</time></trkpt><trkpt lat="46.1881883" lon="13.497095"><ele>695.0</ele><time>2026-05-02T11:43:53.594Z</time></trkpt><trkpt lat="46.18828" lon="13.497115"><ele>695.0</ele><time>2026-05-02T11:43:54.594Z</time></trkpt><trkpt lat="46.188365" lon="13.49716"><ele>700.0</ele><time>2026-05-02T11:43:55.594Z</time></trkpt><trkpt lat="46.1884483" lon="13.4972033"><ele>705.0</ele><time>2026-05-02T11:43:56.596Z</time></trkpt><trkpt lat="46.188525" lon="13.4972333"><ele>710.0</ele><time>2026-05-02T11:43:57.594Z</time></trkpt><trkpt lat="46.1886133" lon="13.497245"><ele>715.0</ele><time>2026-05-02T11:43:58.594Z</time></trkpt><trkpt lat="46.1886983" lon="13.4972567"><ele>720.0</ele><time>2026-05-02T11:43:59.594Z</time></trkpt><trkpt lat="46.1887833" lon="13.4972583"><ele>725.0</ele><time>2026-05-02T11:44:00.593Z</time></trkpt><trkpt lat="46.1888667" lon="13.49724"><ele>725.0</ele><time>2026-05-02T11:44:01.593Z</time></trkpt><trkpt lat="46.1889467" lon="13.497205"><ele>725.0</ele><time>2026-05-02T11:44:02.594Z</time></trkpt><trkpt lat="46.1890317" lon="13.497135"><ele>725.0</ele><time>2026-05-02T11:44:03.594Z</time></trkpt><trkpt lat="46.1891133" lon="13.4970783"><ele>725.0</ele><time>2026-05-02T11:44:04.593Z</time></trkpt><trkpt lat="46.1891867" lon="13.497005"><ele>725.0</ele><time>2026-05-02T11:44:05.594Z</time></trkpt><trkpt lat="46.1892733" lon="13.496945"><ele>718.2</ele><time>2026-05-02T11:44:06.594Z</time></trkpt><trkpt lat="46.189365" lon="13.49688"><ele>711.4</ele><time>2026-05-02T11:44:07.594Z</time></trkpt><trkpt lat="46.1894617" lon="13.4968117"><ele>704.5999999999999</ele><time>2026-05-02T11:44:08.593Z</time></trkpt><trkpt lat="46.1895467" lon="13.4967433"><ele>697.8</ele><time>2026-05-02T11:44:09.593Z</time></trkpt><trkpt lat="46.1896267" lon="13.496675"><ele>691.0</ele><time>2026-05-02T11:44:10.593Z</time></trkpt><trkpt lat="46.1897067" lon="13.49662"><ele>691.0</ele><time>2026-05-02T11:44:11.593Z</time></trkpt><trkpt lat="46.1897867" lon="13.49657"><ele>691.0</ele><time>2026-05-02T11:44:12.593Z</time></trkpt><trkpt lat="46.189865" lon="13.4965217"><ele>691.0</ele><time>2026-05-02T11:44:13.596Z</time></trkpt><trkpt lat="46.189945" lon="13.4964683"><ele>691.0</ele><time>2026-05-02T11:44:14.593Z</time></trkpt><trkpt lat="46.1900117" lon="13.49645"><ele>691.0</ele><time>2026-05-02T11:44:15.597Z</time></trkpt><trkpt lat="46.1899883" lon="13.49663"><ele>693.5999999999999</ele><time>2026-05-02T11:44:24.595Z</time></trkpt><trkpt lat="46.18996" lon="13.4967467"><ele>696.2</ele><time>2026-05-02T11:44:25.595Z</time></trkpt><trkpt lat="46.19005" lon="13.4969833"><ele>698.8</ele><time>2026-05-02T11:44:29.596Z</time></trkpt><trkpt lat="46.1900917" lon="13.4970783"><ele>701.4000000000001</ele><time>2026-05-02T11:45:27.595Z</time></trkpt><trkpt lat="46.1901483" lon="13.497135"><ele>704.0</ele><time>2026-05-02T11:45:29.595Z</time></trkpt><trkpt lat="46.1901883" lon="13.4972067"><ele>713.8000000000001</ele><time>2026-05-02T11:45:31.594Z</time></trkpt><trkpt lat="46.19024" lon="13.4972983"><ele>723.6</ele><time>2026-05-02T11:45:33.593Z</time></trkpt><trkpt lat="46.1903033" lon="13.4973683"><ele>733.4</ele><time>2026-05-02T11:45:35.593Z</time></trkpt><trkpt lat="46.1903883" lon="13.497435"><ele>743.2</ele><time>2026-05-02T11:45:37.593Z</time></trkpt><trkpt lat="46.190485" lon="13.4975"><ele>753.0</ele><time>2026-05-02T11:45:39.594Z</time></trkpt><trkpt lat="46.190565" lon="13.4976033"><ele>753.0</ele><time>2026-05-02T11:45:41.594Z</time></trkpt><trkpt lat="46.1906283" lon="13.49768"><ele>753.0</ele><time>2026-05-02T11:45:42.595Z</time></trkpt><trkpt lat="46.1906967" lon="13.49775"><ele>753.0</ele><time>2026-05-02T11:45:43.594Z</time></trkpt><trkpt lat="46.19077" lon="13.4978017"><ele>753.0</ele><time>2026-05-02T11:45:44.595Z</time></trkpt><trkpt lat="46.1908467" lon="13.4978433"><ele>753.0</ele><time>2026-05-02T11:45:45.593Z</time></trkpt><trkpt lat="46.1909117" lon="13.4978867"><ele>753.0</ele><time>2026-05-02T11:45:46.594Z</time></trkpt><trkpt lat="46.1909683" lon="13.4979317"><ele>760.6666666666666</ele><time>2026-05-02T11:45:47.593Z</time></trkpt><trkpt lat="46.1910517" lon="13.4980117"><ele>768.3333333333333</ele><time>2026-05-02T11:45:49.594Z</time></trkpt><trkpt lat="46.19113" lon="13.4980217"><ele>776.0</ele><time>2026-05-02T11:45:50.594Z</time></trkpt><trkpt lat="46.1912167" lon="13.49803"><ele>783.6666666666666</ele><time>2026-05-02T11:45:51.594Z</time></trkpt><trkpt lat="46.1913033" lon="13.4980233"><ele>791.3333333333333</ele><time>2026-05-02T11:45:52.594Z</time></trkpt><trkpt lat="46.1913867" lon="13.4980017"><ele>799.0</ele><time>2026-05-02T11:45:53.594Z</time></trkpt><trkpt lat="46.1914567" lon="13.497955"><ele>785.8333333333333</ele><time>2026-05-02T11:45:54.593Z</time></trkpt><trkpt lat="46.19152" lon="13.4978917"><ele>772.6666666666666</ele><time>2026-05-02T11:45:55.594Z</time></trkpt><trkpt lat="46.19159" lon="13.4978367"><ele>759.5</ele><time>2026-05-02T11:45:56.595Z</time></trkpt><trkpt lat="46.1916617" lon="13.4978"><ele>746.3333333333333</ele><time>2026-05-02T11:45:57.594Z</time></trkpt><trkpt lat="46.1917433" lon="13.4977733"><ele>733.1666666666666</ele><time>2026-05-02T11:45:58.594Z</time></trkpt><trkpt lat="46.1918217" lon="13.4977567"><ele>720.0</ele><time>2026-05-02T11:45:59.593Z</time></trkpt><trkpt lat="46.1918967" lon="13.4977517"><ele>720.0</ele><time>2026-05-02T11:46:00.595Z</time></trkpt><trkpt lat="46.1919633" lon="13.49776"><ele>720.0</ele><time>2026-05-02T11:46:01.595Z</time></trkpt><trkpt lat="46.1920267" lon="13.49778"><ele>720.0</ele><time>2026-05-02T11:46:02.595Z</time></trkpt><trkpt lat="46.1921" lon="13.4977933"><ele>720.0</ele><time>2026-05-02T11:46:03.594Z</time></trkpt><trkpt lat="46.1921783" lon="13.4978"><ele>720.0</ele><time>2026-05-02T11:46:04.594Z</time></trkpt><trkpt lat="46.19225" lon="13.4978017"><ele>720.0</ele><time>2026-05-02T11:46:05.594Z</time></trkpt><trkpt lat="46.19236" lon="13.4978317"><ele>718.2</ele><time>2026-05-02T11:46:07.593Z</time></trkpt><trkpt lat="46.1924283" lon="13.4979133"><ele>716.4</ele><time>2026-05-02T11:46:09.594Z</time></trkpt><trkpt lat="46.1924583" lon="13.4980183"><ele>714.5999999999999</ele><time>2026-05-02T11:46:11.593Z</time></trkpt><trkpt lat="46.1924817" lon="13.4981433"><ele>712.8</ele><time>2026-05-02T11:46:13.594Z</time></trkpt><trkpt lat="46.1925033" lon="13.4982867"><ele>711.0</ele><time>2026-05-02T11:46:15.594Z</time></trkpt><trkpt lat="46.19251" lon="13.49843"><ele>714.2857142857143</ele><time>2026-05-02T11:46:17.596Z</time></trkpt><trkpt lat="46.1925133" lon="13.49853"><ele>717.5714285714286</ele><time>2026-05-02T11:46:18.594Z</time></trkpt><trkpt lat="46.19251" lon="13.4986433"><ele>720.8571428571429</ele><time>2026-05-02T11:46:19.594Z</time></trkpt><trkpt lat="46.1925017" lon="13.49876"><ele>724.1428571428571</ele><time>2026-05-02T11:46:20.594Z</time></trkpt><trkpt lat="46.192485" lon="13.4988617"><ele>727.4285714285714</ele><time>2026-05-02T11:46:21.594Z</time></trkpt><trkpt lat="46.1924817" lon="13.4989633"><ele>730.7142857142857</ele><time>2026-05-02T11:46:22.593Z</time></trkpt><trkpt lat="46.1924833" lon="13.499055"><ele>734.0</ele><time>2026-05-02T11:46:23.594Z</time></trkpt><trkpt lat="46.1925033" lon="13.4992333"><ele>735.0</ele><time>2026-05-02T11:46:25.595Z</time></trkpt><trkpt lat="46.1925383" lon="13.499355"><ele>736.0</ele><time>2026-05-02T11:46:27.594Z</time></trkpt><trkpt lat="46.19258" lon="13.4994367"><ele>737.0</ele><time>2026-05-02T11:46:29.594Z</time></trkpt><trkpt lat="46.1926987" lon="13.4996207"><ele>738.0</ele><time>2026-05-02T11:46:30.646Z</time></trkpt><trkpt lat="46.1926815" lon="13.4997291"><ele>739.0</ele><time>2026-05-02T11:46:32.249Z</time></trkpt><trkpt lat="46.1926332" lon="13.4998334"><ele>740.1666666666667</ele><time>2026-05-02T11:46:33.607Z</time></trkpt><trkpt lat="46.1925972" lon="13.4999106"><ele>741.3333333333334</ele><time>2026-05-02T11:46:34.626Z</time></trkpt><trkpt lat="46.1925712" lon="13.5000254"><ele>742.5</ele><time>2026-05-02T11:46:36.594Z</time></trkpt><trkpt lat="46.1925683" lon="13.500148"><ele>743.6666666666666</ele><time>2026-05-02T11:46:38.594Z</time></trkpt><trkpt lat="46.1925882" lon="13.5002444"><ele>744.8333333333333</ele><time>2026-05-02T11:46:40.595Z</time></trkpt><trkpt lat="46.1926671" lon="13.5002936"><ele>746.0</ele><time>2026-05-02T11:46:42.594Z</time></trkpt><trkpt lat="46.1927543" lon="13.5002959"><ele>746.0</ele><time>2026-05-02T11:46:43.595Z</time></trkpt><trkpt lat="46.1929363" lon="13.5002717"><ele>746.0</ele><time>2026-05-02T11:46:44.593Z</time></trkpt><trkpt lat="46.1930907" lon="13.5002352"><ele>746.0</ele><time>2026-05-02T11:46:45.594Z</time></trkpt><trkpt lat="46.1932072" lon="13.5001932"><ele>740.3333333333333</ele><time>2026-05-02T11:46:46.593Z</time></trkpt><trkpt lat="46.1932952" lon="13.5001601"><ele>734.6666666666666</ele><time>2026-05-02T11:46:47.594Z</time></trkpt><trkpt lat="46.1933642" lon="13.5001457"><ele>729.0</ele><time>2026-05-02T11:46:48.594Z</time></trkpt><trkpt lat="46.1934637" lon="13.5001613"><ele>723.3333333333334</ele><time>2026-05-02T11:46:50.596Z</time></trkpt><trkpt lat="46.1935431" lon="13.5002089"><ele>717.6666666666667</ele><time>2026-05-02T11:46:52.593Z</time></trkpt><trkpt lat="46.1936203" lon="13.5002845"><ele>712.0</ele><time>2026-05-02T11:46:54.593Z</time></trkpt><trkpt lat="46.1936543" lon="13.5003869"><ele>719.0</ele><time>2026-05-02T11:46:56.595Z</time></trkpt><trkpt lat="46.1936371" lon="13.5005126"><ele>726.0</ele><time>2026-05-02T11:46:58.594Z</time></trkpt><trkpt lat="46.1935957" lon="13.5006478"><ele>733.0</ele><time>2026-05-02T11:47:00.596Z</time></trkpt><trkpt lat="46.1935906" lon="13.5008388"><ele>740.0</ele><time>2026-05-02T11:47:02.594Z</time></trkpt><trkpt lat="46.1935997" lon="13.500942"><ele>747.0</ele><time>2026-05-02T11:47:03.593Z</time></trkpt><trkpt lat="46.1936128" lon="13.5010336"><ele>747.0</ele><time>2026-05-02T11:47:04.595Z</time></trkpt><trkpt lat="46.1936434" lon="13.5011617"><ele>747.0</ele><time>2026-05-02T11:47:06.594Z</time></trkpt><trkpt lat="46.1937186" lon="13.5012752"><ele>747.0</ele><time>2026-05-02T11:47:08.596Z</time></trkpt><trkpt lat="46.1937731" lon="13.501332"><ele>747.0</ele><time>2026-05-02T11:47:09.594Z</time></trkpt><trkpt lat="46.1938394" lon="13.5013806"><ele>747.0</ele><time>2026-05-02T11:47:10.593Z</time></trkpt><trkpt lat="46.1939241" lon="13.5014163"><ele>747.0</ele><time>2026-05-02T11:47:11.595Z</time></trkpt><trkpt lat="46.1940106" lon="13.5014571"><ele>747.0</ele><time>2026-05-02T11:47:12.594Z</time></trkpt><trkpt lat="46.1940954" lon="13.501512"><ele>747.0</ele><time>2026-05-02T11:47:13.594Z</time></trkpt><trkpt lat="46.1941787" lon="13.501571"><ele>747.0</ele><time>2026-05-02T11:47:14.595Z</time></trkpt><trkpt lat="46.1942605" lon="13.5016414"><ele>747.0</ele><time>2026-05-02T11:47:15.596Z</time></trkpt><trkpt lat="46.1943397" lon="13.5017203"><ele>747.0</ele><time>2026-05-02T11:47:16.596Z</time></trkpt><trkpt lat="46.1944156" lon="13.5018063"><ele>747.0</ele><time>2026-05-02T11:47:17.595Z</time></trkpt><trkpt lat="46.1944974" lon="13.5019028"><ele>747.0</ele><time>2026-05-02T11:47:18.594Z</time></trkpt><trkpt lat="46.1945829" lon="13.5020024"><ele>747.0</ele><time>2026-05-02T11:47:19.594Z</time></trkpt><trkpt lat="46.1946642" lon="13.5020967"><ele>747.0</ele><time>2026-05-02T11:47:20.595Z</time></trkpt><trkpt lat="46.1947367" lon="13.5021767"><ele>747.0</ele><time>2026-05-02T11:47:21.593Z</time></trkpt><trkpt lat="46.1948059" lon="13.5022488"><ele>747.0</ele><time>2026-05-02T11:47:22.593Z</time></trkpt><trkpt lat="46.1948688" lon="13.5023218"><ele>747.0</ele><time>2026-05-02T11:47:23.593Z</time></trkpt><trkpt lat="46.1949275" lon="13.5023984"><ele>747.0</ele><time>2026-05-02T11:47:24.594Z</time></trkpt><trkpt lat="46.1949813" lon="13.5024799"><ele>747.0</ele><time>2026-05-02T11:47:25.594Z</time></trkpt><trkpt lat="46.1950377" lon="13.5025659"><ele>747.0</ele><time>2026-05-02T11:47:26.594Z</time></trkpt><trkpt lat="46.1950892" lon="13.5026549"><ele>747.0</ele><time>2026-05-02T11:47:27.592Z</time></trkpt><trkpt lat="46.1951331" lon="13.502735"><ele>747.0</ele><time>2026-05-02T11:47:28.595Z</time></trkpt><trkpt lat="46.1952196" lon="13.5028278"><ele>747.0</ele><time>2026-05-02T11:47:30.594Z</time></trkpt><trkpt lat="46.1952927" lon="13.5029357"><ele>747.0</ele><time>2026-05-02T11:47:32.593Z</time></trkpt><trkpt lat="46.1953587" lon="13.5030795"><ele>747.0</ele><time>2026-05-02T11:47:34.593Z</time></trkpt><trkpt lat="46.1954098" lon="13.5032008"><ele>747.0</ele><time>2026-05-02T11:47:36.593Z</time></trkpt><trkpt lat="46.1954622" lon="13.5032894"><ele>747.0</ele><time>2026-05-02T11:47:38.595Z</time></trkpt><trkpt lat="46.1955393" lon="13.5034253"><ele>747.0</ele><time>2026-05-02T11:47:40.593Z</time></trkpt><trkpt lat="46.195571" lon="13.5035086"><ele>747.0</ele><time>2026-05-02T11:47:41.593Z</time></trkpt><trkpt lat="46.1956075" lon="13.5035876"><ele>747.0</ele><time>2026-05-02T11:47:42.592Z</time></trkpt><trkpt lat="46.1956948" lon="13.5037189"><ele>747.0</ele><time>2026-05-02T11:47:44.594Z</time></trkpt><trkpt lat="46.1957454" lon="13.5037862"><ele>747.0</ele><time>2026-05-02T11:47:45.593Z</time></trkpt><trkpt lat="46.1958063" lon="13.5038629"><ele>746.9999999999999</ele><time>2026-05-02T11:47:46.593Z</time></trkpt><trkpt lat="46.1958656" lon="13.5039403"><ele>747.0</ele><time>2026-05-02T11:47:47.593Z</time></trkpt><trkpt lat="46.1959256" lon="13.5040139"><ele>747.0</ele><time>2026-05-02T11:47:48.593Z</time></trkpt><trkpt lat="46.19598" lon="13.504088"><ele>747.0</ele><time>2026-05-02T11:47:49.593Z</time></trkpt><trkpt lat="46.1960235" lon="13.5041648"><ele>747.0</ele><time>2026-05-02T11:47:50.593Z</time></trkpt><trkpt lat="46.1960619" lon="13.5042411"><ele>746.9999999999999</ele><time>2026-05-02T11:47:51.592Z</time></trkpt><trkpt lat="46.1960939" lon="13.5043205"><ele>747.0</ele><time>2026-05-02T11:47:52.595Z</time></trkpt><trkpt lat="46.1961229" lon="13.5044035"><ele>746.9999999999999</ele><time>2026-05-02T11:47:53.593Z</time></trkpt><trkpt lat="46.1961625" lon="13.5044812"><ele>747.0</ele><time>2026-05-02T11:47:54.592Z</time></trkpt><trkpt lat="46.1961873" lon="13.5045668"><ele>747.0</ele><time>2026-05-02T11:47:55.593Z</time></trkpt><trkpt lat="46.1962246" lon="13.5046494"><ele>747.0</ele><time>2026-05-02T11:47:56.594Z</time></trkpt><trkpt lat="46.1962426" lon="13.5047463"><ele>747.0</ele><time>2026-05-02T11:47:57.594Z</time></trkpt><trkpt lat="46.1962525" lon="13.504847"><ele>746.9999999999999</ele><time>2026-05-02T11:47:58.595Z</time></trkpt><trkpt lat="46.1962675" lon="13.5049524"><ele>747.0</ele><time>2026-05-02T11:47:59.593Z</time></trkpt><trkpt lat="46.1962927" lon="13.5050568"><ele>747.0</ele><time>2026-05-02T11:48:00.594Z</time></trkpt><trkpt lat="46.1963296" lon="13.5051568"><ele>747.0</ele><time>2026-05-02T11:48:01.593Z</time></trkpt><trkpt lat="46.1963662" lon="13.5052461"><ele>747.0</ele><time>2026-05-02T11:48:02.594Z</time></trkpt><trkpt lat="46.1963926" lon="13.5053316"><ele>747.0</ele><time>2026-05-02T11:48:03.594Z</time></trkpt><trkpt lat="46.1964099" lon="13.5054802"><ele>747.0</ele><time>2026-05-02T11:48:05.592Z</time></trkpt><trkpt lat="46.1964304" lon="13.5055862"><ele>747.0</ele><time>2026-05-02T11:48:07.594Z</time></trkpt><trkpt lat="46.1964961" lon="13.5056523"><ele>747.0</ele><time>2026-05-02T11:48:12.594Z</time></trkpt><trkpt lat="46.1965821" lon="13.5056671"><ele>747.0</ele><time>2026-05-02T11:48:14.593Z</time></trkpt><trkpt lat="46.1966553" lon="13.5057001"><ele>747.0</ele><time>2026-05-02T11:48:16.651Z</time></trkpt><trkpt lat="46.1967153" lon="13.5058048"><ele>747.0</ele><time>2026-05-02T11:48:19.609Z</time></trkpt><trkpt lat="46.1967511" lon="13.5059195"><ele>747.0</ele><time>2026-05-02T11:48:21.644Z</time></trkpt><trkpt lat="46.1967824" lon="13.5060593"><ele>747.0</ele><time>2026-05-02T11:48:23.678Z</time></trkpt><trkpt lat="46.1968248" lon="13.5061592"><ele>747.0</ele><time>2026-05-02T11:48:25.612Z</time></trkpt><trkpt lat="46.196853" lon="13.5062659"><ele>747.0</ele><time>2026-05-02T11:48:27.65Z</time></trkpt><trkpt lat="46.1968852" lon="13.5063718"><ele>747.0</ele><time>2026-05-02T11:48:29.605Z</time></trkpt><trkpt lat="46.1969873" lon="13.5067159"><ele>747.0</ele><time>2026-05-02T11:48:30.594Z</time></trkpt><trkpt lat="46.1970317" lon="13.5068933"><ele>747.0</ele><time>2026-05-02T11:48:31.593Z</time></trkpt><trkpt lat="46.1970546" lon="13.5070223"><ele>747.0</ele><time>2026-05-02T11:48:32.595Z</time></trkpt><trkpt lat="46.1970705" lon="13.5071325"><ele>747.0</ele><time>2026-05-02T11:48:33.594Z</time></trkpt><trkpt lat="46.1970795" lon="13.5072291"><ele>747.0</ele><time>2026-05-02T11:48:34.594Z</time></trkpt><trkpt lat="46.1970807" lon="13.5073993"><ele>747.0</ele><time>2026-05-02T11:48:36.594Z</time></trkpt><trkpt lat="46.1970852" lon="13.5075669"><ele>747.0</ele><time>2026-05-02T11:48:38.595Z</time></trkpt><trkpt lat="46.1971172" lon="13.5076884"><ele>747.0</ele><time>2026-05-02T11:48:40.594Z</time></trkpt><trkpt lat="46.1972148" lon="13.507749"><ele>747.0</ele><time>2026-05-02T11:48:42.594Z</time></trkpt><trkpt lat="46.197333" lon="13.5077129"><ele>747.0</ele><time>2026-05-02T11:48:44.594Z</time></trkpt><trkpt lat="46.1973998" lon="13.5076554"><ele>747.0</ele><time>2026-05-02T11:48:45.593Z</time></trkpt><trkpt lat="46.19746" lon="13.5075576"><ele>747.0</ele><time>2026-05-02T11:48:46.593Z</time></trkpt><trkpt lat="46.1975145" lon="13.5074299"><ele>747.0</ele><time>2026-05-02T11:48:47.593Z</time></trkpt><trkpt lat="46.1975688" lon="13.5072983"><ele>747.0</ele><time>2026-05-02T11:48:48.594Z</time></trkpt><trkpt lat="46.197619" lon="13.507177"><ele>747.0</ele><time>2026-05-02T11:48:49.593Z</time></trkpt><trkpt lat="46.1976622" lon="13.5070722"><ele>747.0</ele><time>2026-05-02T11:48:50.595Z</time></trkpt><trkpt lat="46.1976899" lon="13.5069863"><ele>747.0</ele><time>2026-05-02T11:48:51.594Z</time></trkpt><trkpt lat="46.197727" lon="13.5068379"><ele>747.0</ele><time>2026-05-02T11:48:53.594Z</time></trkpt><trkpt lat="46.1977556" lon="13.5067454"><ele>747.0</ele><time>2026-05-02T11:48:54.595Z</time></trkpt><trkpt lat="46.1978094" lon="13.5066398"><ele>747.0</ele><time>2026-05-02T11:48:55.593Z</time></trkpt><trkpt lat="46.1978528" lon="13.5065062"><ele>747.0</ele><time>2026-05-02T11:48:56.594Z</time></trkpt><trkpt lat="46.1979015" lon="13.506372"><ele>747.0</ele><time>2026-05-02T11:48:57.593Z</time></trkpt><trkpt lat="46.1979342" lon="13.5062378"><ele>747.0</ele><time>2026-05-02T11:48:58.594Z</time></trkpt><trkpt lat="46.1979622" lon="13.5061116"><ele>747.0</ele><time>2026-05-02T11:48:59.593Z</time></trkpt><trkpt lat="46.1979927" lon="13.5059871"><ele>747.0</ele><time>2026-05-02T11:49:00.593Z</time></trkpt><trkpt lat="46.1980395" lon="13.5058815"><ele>747.0</ele><time>2026-05-02T11:49:01.593Z</time></trkpt><trkpt lat="46.1980755" lon="13.5057829"><ele>747.0</ele><time>2026-05-02T11:49:02.595Z</time></trkpt><trkpt lat="46.1981116" lon="13.5056916"><ele>751.0</ele><time>2026-05-02T11:49:03.594Z</time></trkpt><trkpt lat="46.1981311" lon="13.5055876"><ele>755.0</ele><time>2026-05-02T11:49:04.594Z</time></trkpt><trkpt lat="46.1981448" lon="13.5054717"><ele>759.0</ele><time>2026-05-02T11:49:05.593Z</time></trkpt><trkpt lat="46.1981691" lon="13.505344"><ele>763.0</ele><time>2026-05-02T11:49:06.594Z</time></trkpt><trkpt lat="46.1981931" lon="13.5052095"><ele>767.0</ele><time>2026-05-02T11:49:07.595Z</time></trkpt><trkpt lat="46.1982271" lon="13.5050752"><ele>771.0</ele><time>2026-05-02T11:49:08.596Z</time></trkpt><trkpt lat="46.1982623" lon="13.5049419"><ele>771.0</ele><time>2026-05-02T11:49:09.592Z</time></trkpt><trkpt lat="46.1982917" lon="13.5048025"><ele>771.0</ele><time>2026-05-02T11:49:10.594Z</time></trkpt><trkpt lat="46.1983273" lon="13.5046634"><ele>771.0</ele><time>2026-05-02T11:49:11.595Z</time></trkpt><trkpt lat="46.1983538" lon="13.5045113"><ele>771.0</ele><time>2026-05-02T11:49:12.593Z</time></trkpt><trkpt lat="46.19837" lon="13.5043511"><ele>771.0</ele><time>2026-05-02T11:49:13.593Z</time></trkpt><trkpt lat="46.1983885" lon="13.5041931"><ele>769.25</ele><time>2026-05-02T11:49:14.595Z</time></trkpt><trkpt lat="46.1984094" lon="13.5040308"><ele>767.5</ele><time>2026-05-02T11:49:15.592Z</time></trkpt><trkpt lat="46.1984302" lon="13.5038579"><ele>765.75</ele><time>2026-05-02T11:49:16.594Z</time></trkpt><trkpt lat="46.1984402" lon="13.5036743"><ele>764.0</ele><time>2026-05-02T11:49:17.593Z</time></trkpt><trkpt lat="46.1984444" lon="13.5034894"><ele>763.6</ele><time>2026-05-02T11:49:18.593Z</time></trkpt><trkpt lat="46.1984593" lon="13.5033187"><ele>763.2</ele><time>2026-05-02T11:49:19.593Z</time></trkpt><trkpt lat="46.1984861" lon="13.5031687"><ele>762.8000000000001</ele><time>2026-05-02T11:49:20.594Z</time></trkpt><trkpt lat="46.1985137" lon="13.5030267"><ele>762.4000000000001</ele><time>2026-05-02T11:49:21.593Z</time></trkpt><trkpt lat="46.1985309" lon="13.5028829"><ele>762.0</ele><time>2026-05-02T11:49:22.594Z</time></trkpt><trkpt lat="46.198543" lon="13.5027404"><ele>760.8</ele><time>2026-05-02T11:49:23.593Z</time></trkpt><trkpt lat="46.198572" lon="13.5026048"><ele>759.6</ele><time>2026-05-02T11:49:24.595Z</time></trkpt><trkpt lat="46.198617" lon="13.5024739"><ele>758.4</ele><time>2026-05-02T11:49:25.593Z</time></trkpt><trkpt lat="46.1986522" lon="13.5023238"><ele>757.1999999999999</ele><time>2026-05-02T11:49:26.596Z</time></trkpt><trkpt lat="46.1986812" lon="13.5021667"><ele>756.0</ele><time>2026-05-02T11:49:27.594Z</time></trkpt><trkpt lat="46.1987044" lon="13.5020025"><ele>754.8</ele><time>2026-05-02T11:49:28.593Z</time></trkpt><trkpt lat="46.1987266" lon="13.5018312"><ele>753.5999999999999</ele><time>2026-05-02T11:49:29.595Z</time></trkpt><trkpt lat="46.1987381" lon="13.5016649"><ele>752.4</ele><time>2026-05-02T11:49:30.595Z</time></trkpt><trkpt lat="46.1987473" lon="13.5015137"><ele>751.2</ele><time>2026-05-02T11:49:31.594Z</time></trkpt><trkpt lat="46.1987618" lon="13.5013685"><ele>750.0</ele><time>2026-05-02T11:49:32.593Z</time></trkpt><trkpt lat="46.1987798" lon="13.5012228"><ele>749.8</ele><time>2026-05-02T11:49:33.594Z</time></trkpt><trkpt lat="46.1988" lon="13.5010694"><ele>749.6</ele><time>2026-05-02T11:49:34.594Z</time></trkpt><trkpt lat="46.1988311" lon="13.5009286"><ele>749.4000000000001</ele><time>2026-05-02T11:49:35.594Z</time></trkpt><trkpt lat="46.1988456" lon="13.5007808"><ele>749.2</ele><time>2026-05-02T11:49:36.593Z</time></trkpt><trkpt lat="46.1988484" lon="13.5006469"><ele>749.0</ele><time>2026-05-02T11:49:37.594Z</time></trkpt><trkpt lat="46.1988417" lon="13.5005305"><ele>749.0</ele><time>2026-05-02T11:49:38.595Z</time></trkpt><trkpt lat="46.198831" lon="13.5004227"><ele>749.0</ele><time>2026-05-02T11:49:39.593Z</time></trkpt><trkpt lat="46.1988139" lon="13.5003194"><ele>749.0</ele><time>2026-05-02T11:49:40.595Z</time></trkpt><trkpt lat="46.1988042" lon="13.5002213"><ele>749.0</ele><time>2026-05-02T11:49:41.593Z</time></trkpt><trkpt lat="46.1988034" lon="13.5001207"><ele>749.0</ele><time>2026-05-02T11:49:42.594Z</time></trkpt><trkpt lat="46.1988112" lon="13.5000121"><ele>749.0</ele><time>2026-05-02T11:49:43.594Z</time></trkpt><trkpt lat="46.19882" lon="13.499885"><ele>748.4000000000001</ele><time>2026-05-02T11:49:44.594Z</time></trkpt><trkpt lat="46.1988356" lon="13.4997441"><ele>747.8</ele><time>2026-05-02T11:49:45.593Z</time></trkpt><trkpt lat="46.1988433" lon="13.4995939"><ele>747.2</ele><time>2026-05-02T11:49:46.595Z</time></trkpt><trkpt lat="46.198853" lon="13.4994565"><ele>746.5999999999999</ele><time>2026-05-02T11:49:47.593Z</time></trkpt><trkpt lat="46.1988542" lon="13.4993263"><ele>746.0</ele><time>2026-05-02T11:49:48.596Z</time></trkpt><trkpt lat="46.1988523" lon="13.4992143"><ele>745.3333333333333</ele><time>2026-05-02T11:49:49.594Z</time></trkpt><trkpt lat="46.1988465" lon="13.499113"><ele>744.6666666666666</ele><time>2026-05-02T11:49:50.596Z</time></trkpt><trkpt lat="46.1988317" lon="13.4990173"><ele>744.0</ele><time>2026-05-02T11:49:51.594Z</time></trkpt><trkpt lat="46.1988103" lon="13.4989115"><ele>743.3333333333334</ele><time>2026-05-02T11:49:52.594Z</time></trkpt><trkpt lat="46.1987862" lon="13.4987892"><ele>742.6666666666667</ele><time>2026-05-02T11:49:53.594Z</time></trkpt><trkpt lat="46.198763" lon="13.4986506"><ele>742.0</ele><time>2026-05-02T11:49:54.593Z</time></trkpt><trkpt lat="46.1987487" lon="13.4985035"><ele>743.6</ele><time>2026-05-02T11:49:55.593Z</time></trkpt><trkpt lat="46.1987393" lon="13.498349"><ele>745.2</ele><time>2026-05-02T11:49:56.593Z</time></trkpt><trkpt lat="46.19873" lon="13.4981919"><ele>746.8</ele><time>2026-05-02T11:49:57.594Z</time></trkpt><trkpt lat="46.1987293" lon="13.4980354"><ele>748.4</ele><time>2026-05-02T11:49:58.593Z</time></trkpt><trkpt lat="46.198734" lon="13.4978772"><ele>750.0</ele><time>2026-05-02T11:49:59.593Z</time></trkpt><trkpt lat="46.1987466" lon="13.4977207"><ele>750.4</ele><time>2026-05-02T11:50:00.594Z</time></trkpt><trkpt lat="46.1987644" lon="13.4975672"><ele>750.8</ele><time>2026-05-02T11:50:01.593Z</time></trkpt><trkpt lat="46.1987912" lon="13.4974133"><ele>751.2</ele><time>2026-05-02T11:50:02.594Z</time></trkpt><trkpt lat="46.1988246" lon="13.4972624"><ele>751.6</ele><time>2026-05-02T11:50:03.594Z</time></trkpt><trkpt lat="46.1988699" lon="13.4971155"><ele>752.0</ele><time>2026-05-02T11:50:04.593Z</time></trkpt><trkpt lat="46.1989059" lon="13.4969674"><ele>751.2</ele><time>2026-05-02T11:50:05.594Z</time></trkpt><trkpt lat="46.1989258" lon="13.4968246"><ele>750.4000000000001</ele><time>2026-05-02T11:50:06.593Z</time></trkpt><trkpt lat="46.1989287" lon="13.4966846"><ele>749.5999999999999</ele><time>2026-05-02T11:50:07.593Z</time></trkpt><trkpt lat="46.1989169" lon="13.4965489"><ele>748.8</ele><time>2026-05-02T11:50:08.595Z</time></trkpt><trkpt lat="46.1988898" lon="13.4964142"><ele>748.0</ele><time>2026-05-02T11:50:09.594Z</time></trkpt><trkpt lat="46.1988552" lon="13.4962732"><ele>749.0</ele><time>2026-05-02T11:50:10.593Z</time></trkpt><trkpt lat="46.1988333" lon="13.4961316"><ele>750.0</ele><time>2026-05-02T11:50:11.593Z</time></trkpt><trkpt lat="46.1988341" lon="13.4959804"><ele>751.0</ele><time>2026-05-02T11:50:12.593Z</time></trkpt><trkpt lat="46.1987997" lon="13.4958432"><ele>752.0</ele><time>2026-05-02T11:50:13.595Z</time></trkpt><trkpt lat="46.1987778" lon="13.4957235"><ele>753.0</ele><time>2026-05-02T11:50:14.595Z</time></trkpt><trkpt lat="46.198758" lon="13.4956252"><ele>753.0</ele><time>2026-05-02T11:50:15.593Z</time></trkpt><trkpt lat="46.198725" lon="13.495495"><ele>753.0</ele><time>2026-05-02T11:50:17.594Z</time></trkpt><trkpt lat="46.198705" lon="13.4954083"><ele>753.0</ele><time>2026-05-02T11:50:19.593Z</time></trkpt><trkpt lat="46.1986883" lon="13.4953067"><ele>753.0</ele><time>2026-05-02T11:50:32.594Z</time></trkpt><trkpt lat="46.1986767" lon="13.4952133"><ele>753.0</ele><time>2026-05-02T11:50:33.597Z</time></trkpt><trkpt lat="46.198665" lon="13.4951167"><ele>753.0</ele><time>2026-05-02T11:50:34.594Z</time></trkpt><trkpt lat="46.1986467" lon="13.4949517"><ele>754.2</ele><time>2026-05-02T11:50:36.594Z</time></trkpt><trkpt lat="46.1986317" lon="13.4948367"><ele>755.4</ele><time>2026-05-02T11:50:38.595Z</time></trkpt><trkpt lat="46.1986117" lon="13.4947"><ele>756.6</ele><time>2026-05-02T11:50:41.593Z</time></trkpt><trkpt lat="46.1986" lon="13.494545"><ele>757.8000000000001</ele><time>2026-05-02T11:50:43.593Z</time></trkpt><trkpt lat="46.19859" lon="13.49438"><ele>759.0</ele><time>2026-05-02T11:50:45.594Z</time></trkpt><trkpt lat="46.1985917" lon="13.4941983"><ele>759.6666666666666</ele><time>2026-05-02T11:50:47.594Z</time></trkpt><trkpt lat="46.1986067" lon="13.4940967"><ele>760.3333333333334</ele><time>2026-05-02T11:50:48.594Z</time></trkpt><trkpt lat="46.1986133" lon="13.4939917"><ele>761.0</ele><time>2026-05-02T11:50:49.594Z</time></trkpt><trkpt lat="46.1986167" lon="13.493875"><ele>761.6666666666667</ele><time>2026-05-02T11:50:50.594Z</time></trkpt><trkpt lat="46.1986117" lon="13.4937483"><ele>762.3333333333334</ele><time>2026-05-02T11:50:51.594Z</time></trkpt><trkpt lat="46.1985733" lon="13.493615"><ele>763.0</ele><time>2026-05-02T11:50:52.595Z</time></trkpt><trkpt lat="46.198535" lon="13.4934833"><ele>763.3333333333334</ele><time>2026-05-02T11:50:53.594Z</time></trkpt><trkpt lat="46.1985083" lon="13.4933583"><ele>763.6666666666667</ele><time>2026-05-02T11:50:54.594Z</time></trkpt><trkpt lat="46.1984717" lon="13.4932383"><ele>764.0</ele><time>2026-05-02T11:50:55.594Z</time></trkpt><trkpt lat="46.198455" lon="13.4931117"><ele>764.3333333333334</ele><time>2026-05-02T11:50:56.596Z</time></trkpt><trkpt lat="46.1984417" lon="13.4929917"><ele>764.6666666666666</ele><time>2026-05-02T11:50:57.594Z</time></trkpt><trkpt lat="46.1984333" lon="13.4928583"><ele>765.0</ele><time>2026-05-02T11:50:58.594Z</time></trkpt><trkpt lat="46.1984217" lon="13.4927167"><ele>765.8</ele><time>2026-05-02T11:50:59.594Z</time></trkpt><trkpt lat="46.1983967" lon="13.4925767"><ele>766.6</ele><time>2026-05-02T11:51:00.593Z</time></trkpt><trkpt lat="46.1983667" lon="13.49244"><ele>767.4000000000001</ele><time>2026-05-02T11:51:01.593Z</time></trkpt><trkpt lat="46.1983117" lon="13.4923"><ele>768.2</ele><time>2026-05-02T11:51:02.594Z</time></trkpt><trkpt lat="46.1982517" lon="13.4921633"><ele>769.0</ele><time>2026-05-02T11:51:03.594Z</time></trkpt><trkpt lat="46.198215" lon="13.4920267"><ele>771.2</ele><time>2026-05-02T11:51:04.594Z</time></trkpt><trkpt lat="46.19818" lon="13.49189"><ele>773.4000000000001</ele><time>2026-05-02T11:51:05.594Z</time></trkpt><trkpt lat="46.1981317" lon="13.4917567"><ele>775.6</ele><time>2026-05-02T11:51:06.593Z</time></trkpt><trkpt lat="46.1980933" lon="13.4916"><ele>777.8</ele><time>2026-05-02T11:51:07.594Z</time></trkpt><trkpt lat="46.198055" lon="13.491445"><ele>780.0</ele><time>2026-05-02T11:51:08.594Z</time></trkpt><trkpt lat="46.1980183" lon="13.4913017"><ele>776.4</ele><time>2026-05-02T11:51:09.593Z</time></trkpt><trkpt lat="46.1979733" lon="13.49116"><ele>772.8</ele><time>2026-05-02T11:51:10.596Z</time></trkpt><trkpt lat="46.1979133" lon="13.4910283"><ele>769.2</ele><time>2026-05-02T11:51:11.594Z</time></trkpt><trkpt lat="46.197835" lon="13.4909333"><ele>765.6</ele><time>2026-05-02T11:51:12.594Z</time></trkpt><trkpt lat="46.19777" lon="13.4908533"><ele>762.0</ele><time>2026-05-02T11:51:13.593Z</time></trkpt><trkpt lat="46.197715" lon="13.4907967"><ele>762.0</ele><time>2026-05-02T11:51:14.596Z</time></trkpt><trkpt lat="46.1976267" lon="13.4907883"><ele>762.0</ele><time>2026-05-02T11:51:16.594Z</time></trkpt><trkpt lat="46.197595" lon="13.4909033"><ele>762.0</ele><time>2026-05-02T11:51:18.594Z</time></trkpt><trkpt lat="46.1976433" lon="13.4909767"><ele>762.0</ele><time>2026-05-02T11:51:19.594Z</time></trkpt><trkpt lat="46.1976983" lon="13.4910533"><ele>762.0</ele><time>2026-05-02T11:51:20.593Z</time></trkpt><trkpt lat="46.1977283" lon="13.49116"><ele>762.0</ele><time>2026-05-02T11:51:21.594Z</time></trkpt><trkpt lat="46.197755" lon="13.49129"><ele>758.75</ele><time>2026-05-02T11:51:22.594Z</time></trkpt><trkpt lat="46.19775" lon="13.4914533"><ele>755.5</ele><time>2026-05-02T11:51:23.594Z</time></trkpt><trkpt lat="46.1977333" lon="13.4916233"><ele>752.25</ele><time>2026-05-02T11:51:24.594Z</time></trkpt><trkpt lat="46.1977133" lon="13.4917833"><ele>749.0</ele><time>2026-05-02T11:51:25.595Z</time></trkpt><trkpt lat="46.197695" lon="13.4919367"><ele>749.0</ele><time>2026-05-02T11:51:26.595Z</time></trkpt><trkpt lat="46.197695" lon="13.4920717"><ele>749.0</ele><time>2026-05-02T11:51:27.593Z</time></trkpt><trkpt lat="46.19771" lon="13.4921917"><ele>749.0</ele><time>2026-05-02T11:51:28.593Z</time></trkpt><trkpt lat="46.1977367" lon="13.49229"><ele>749.0</ele><time>2026-05-02T11:51:29.593Z</time></trkpt><trkpt lat="46.1977833" lon="13.492425"><ele>749.0</ele><time>2026-05-02T11:51:31.594Z</time></trkpt><trkpt lat="46.1977183" lon="13.492455"><ele>749.0</ele><time>2026-05-02T11:51:33.593Z</time></trkpt><trkpt lat="46.1976667" lon="13.492375"><ele>749.0</ele><time>2026-05-02T11:51:34.594Z</time></trkpt><trkpt lat="46.1976067" lon="13.4922517"><ele>749.0</ele><time>2026-05-02T11:51:35.594Z</time></trkpt><trkpt lat="46.1975417" lon="13.4921317"><ele>749.0</ele><time>2026-05-02T11:51:36.594Z</time></trkpt><trkpt lat="46.1974683" lon="13.492015"><ele>749.0</ele><time>2026-05-02T11:51:37.595Z</time></trkpt><trkpt lat="46.1974083" lon="13.49188"><ele>749.0</ele><time>2026-05-02T11:51:38.595Z</time></trkpt><trkpt lat="46.1973683" lon="13.491745"><ele>742.0</ele><time>2026-05-02T11:51:39.594Z</time></trkpt><trkpt lat="46.197325" lon="13.4916233"><ele>735.0</ele><time>2026-05-02T11:51:40.594Z</time></trkpt><trkpt lat="46.1972483" lon="13.4915467"><ele>728.0</ele><time>2026-05-02T11:51:41.595Z</time></trkpt><trkpt lat="46.1971383" lon="13.4914983"><ele>721.0</ele><time>2026-05-02T11:51:42.594Z</time></trkpt><trkpt lat="46.1970167" lon="13.4914467"><ele>714.0</ele><time>2026-05-02T11:51:43.593Z</time></trkpt><trkpt lat="46.196905" lon="13.49136"><ele>711.5</ele><time>2026-05-02T11:51:44.595Z</time></trkpt><trkpt lat="46.1968" lon="13.4912483"><ele>709.0</ele><time>2026-05-02T11:51:45.593Z</time></trkpt><trkpt lat="46.196695" lon="13.4911517"><ele>706.5</ele><time>2026-05-02T11:51:46.595Z</time></trkpt><trkpt lat="46.196585" lon="13.491065"><ele>704.0</ele><time>2026-05-02T11:51:47.593Z</time></trkpt><trkpt lat="46.19647" lon="13.4909883"><ele>704.0</ele><time>2026-05-02T11:51:48.593Z</time></trkpt><trkpt lat="46.1963483" lon="13.4909217"><ele>704.0</ele><time>2026-05-02T11:51:49.595Z</time></trkpt><trkpt lat="46.19627" lon="13.4908033"><ele>704.0</ele><time>2026-05-02T11:51:50.594Z</time></trkpt><trkpt lat="46.1961783" lon="13.490735"><ele>704.0</ele><time>2026-05-02T11:51:51.594Z</time></trkpt><trkpt lat="46.1960867" lon="13.4906767"><ele>704.0</ele><time>2026-05-02T11:51:52.595Z</time></trkpt><trkpt lat="46.1960283" lon="13.490575"><ele>704.0</ele><time>2026-05-02T11:51:53.594Z</time></trkpt><trkpt lat="46.196015" lon="13.4904383"><ele>704.0</ele><time>2026-05-02T11:51:54.593Z</time></trkpt><trkpt lat="46.1959867" lon="13.49027"><ele>704.0</ele><time>2026-05-02T11:51:55.594Z</time></trkpt><trkpt lat="46.1959417" lon="13.4900933"><ele>704.0</ele><time>2026-05-02T11:51:56.596Z</time></trkpt><trkpt lat="46.1958733" lon="13.48991"><ele>707.25</ele><time>2026-05-02T11:51:57.593Z</time></trkpt><trkpt lat="46.1958183" lon="13.4897367"><ele>710.5</ele><time>2026-05-02T11:51:58.594Z</time></trkpt><trkpt lat="46.1957633" lon="13.489585"><ele>713.75</ele><time>2026-05-02T11:51:59.595Z</time></trkpt><trkpt lat="46.1957033" lon="13.4894483"><ele>717.0</ele><time>2026-05-02T11:52:00.594Z</time></trkpt><trkpt lat="46.1956717" lon="13.4893033"><ele>707.0</ele><time>2026-05-02T11:52:01.595Z</time></trkpt><trkpt lat="46.1956517" lon="13.489145"><ele>697.0</ele><time>2026-05-02T11:52:02.597Z</time></trkpt><trkpt lat="46.1956183" lon="13.48895"><ele>687.0</ele><time>2026-05-02T11:52:03.594Z</time></trkpt><trkpt lat="46.1955933" lon="13.4887333"><ele>677.0</ele><time>2026-05-02T11:52:04.594Z</time></trkpt><trkpt lat="46.195575" lon="13.4885117"><ele>677.0</ele><time>2026-05-02T11:52:05.594Z</time></trkpt><trkpt lat="46.1955567" lon="13.48829"><ele>677.0</ele><time>2026-05-02T11:52:06.597Z</time></trkpt><trkpt lat="46.1955333" lon="13.4880683"><ele>677.0</ele><time>2026-05-02T11:52:07.595Z</time></trkpt><trkpt lat="46.19551" lon="13.4878583"><ele>676.75</ele><time>2026-05-02T11:52:08.595Z</time></trkpt><trkpt lat="46.195485" lon="13.4876583"><ele>676.5</ele><time>2026-05-02T11:52:09.593Z</time></trkpt><trkpt lat="46.1954433" lon="13.487455"><ele>676.25</ele><time>2026-05-02T11:52:10.594Z</time></trkpt><trkpt lat="46.1954017" lon="13.487255"><ele>676.0</ele><time>2026-05-02T11:52:11.594Z</time></trkpt><trkpt lat="46.1953583" lon="13.4870617"><ele>678.5</ele><time>2026-05-02T11:52:12.593Z</time></trkpt><trkpt lat="46.1953317" lon="13.4868667"><ele>681.0</ele><time>2026-05-02T11:52:13.595Z</time></trkpt><trkpt lat="46.1953" lon="13.4866767"><ele>683.5</ele><time>2026-05-02T11:52:14.595Z</time></trkpt><trkpt lat="46.1952483" lon="13.4865017"><ele>686.0</ele><time>2026-05-02T11:52:15.595Z</time></trkpt><trkpt lat="46.195175" lon="13.4863467"><ele>687.5</ele><time>2026-05-02T11:52:16.594Z</time></trkpt><trkpt lat="46.1950883" lon="13.4862167"><ele>689.0</ele><time>2026-05-02T11:52:17.594Z</time></trkpt><trkpt lat="46.1949967" lon="13.486095"><ele>690.5</ele><time>2026-05-02T11:52:18.594Z</time></trkpt><trkpt lat="46.1949033" lon="13.485985"><ele>692.0</ele><time>2026-05-02T11:52:19.594Z</time></trkpt><trkpt lat="46.1948183" lon="13.48588"><ele>681.75</ele><time>2026-05-02T11:52:20.594Z</time></trkpt><trkpt lat="46.1947633" lon="13.4857467"><ele>671.5</ele><time>2026-05-02T11:52:21.596Z</time></trkpt><trkpt lat="46.194725" lon="13.485585"><ele>661.25</ele><time>2026-05-02T11:52:22.594Z</time></trkpt><trkpt lat="46.194665" lon="13.4854467"><ele>651.0</ele><time>2026-05-02T11:52:23.595Z</time></trkpt><trkpt lat="46.1946417" lon="13.4852517"><ele>651.0</ele><time>2026-05-02T11:52:24.595Z</time></trkpt><trkpt lat="46.19463" lon="13.48504"><ele>651.0</ele><time>2026-05-02T11:52:25.593Z</time></trkpt><trkpt lat="46.1946183" lon="13.4848233"><ele>651.0</ele><time>2026-05-02T11:52:26.595Z</time></trkpt><trkpt lat="46.1946067" lon="13.4846117"><ele>651.0</ele><time>2026-05-02T11:52:27.594Z</time></trkpt><trkpt lat="46.1945817" lon="13.4844317"><ele>652.75</ele><time>2026-05-02T11:52:28.594Z</time></trkpt><trkpt lat="46.1945517" lon="13.48425"><ele>654.5</ele><time>2026-05-02T11:52:29.595Z</time></trkpt><trkpt lat="46.1945033" lon="13.4840733"><ele>656.25</ele><time>2026-05-02T11:52:30.596Z</time></trkpt><trkpt lat="46.1944183" lon="13.4839533"><ele>658.0</ele><time>2026-05-02T11:52:31.595Z</time></trkpt><trkpt lat="46.19436" lon="13.4838283"><ele>658.0</ele><time>2026-05-02T11:52:32.596Z</time></trkpt><trkpt lat="46.19431" lon="13.4837317"><ele>658.0</ele><time>2026-05-02T11:52:33.594Z</time></trkpt><trkpt lat="46.1942" lon="13.4837233"><ele>658.0</ele><time>2026-05-02T11:52:35.594Z</time></trkpt><trkpt lat="46.1941683" lon="13.4839033"><ele>658.0</ele><time>2026-05-02T11:52:37.593Z</time></trkpt><trkpt lat="46.1941917" lon="13.4840433"><ele>658.0</ele><time>2026-05-02T11:52:38.595Z</time></trkpt><trkpt lat="46.194215" lon="13.484235"><ele>658.0</ele><time>2026-05-02T11:52:39.594Z</time></trkpt><trkpt lat="46.194235" lon="13.48446"><ele>658.0</ele><time>2026-05-02T11:52:40.593Z</time></trkpt><trkpt lat="46.1942533" lon="13.4846917"><ele>658.0</ele><time>2026-05-02T11:52:41.594Z</time></trkpt><trkpt lat="46.1942617" lon="13.484925"><ele>655.6666666666667</ele><time>2026-05-02T11:52:42.592Z</time></trkpt><trkpt lat="46.1942533" lon="13.4851617"><ele>653.3333333333334</ele><time>2026-05-02T11:52:43.594Z</time></trkpt><trkpt lat="46.1942267" lon="13.4853983"><ele>651.0</ele><time>2026-05-02T11:52:44.593Z</time></trkpt><trkpt lat="46.1942" lon="13.485635"><ele>650.0</ele><time>2026-05-02T11:52:45.592Z</time></trkpt><trkpt lat="46.1941717" lon="13.4858733"><ele>649.0</ele><time>2026-05-02T11:52:46.593Z</time></trkpt><trkpt lat="46.19414" lon="13.4861267"><ele>648.0</ele><time>2026-05-02T11:52:47.593Z</time></trkpt><trkpt lat="46.1941233" lon="13.486385"><ele>648.0</ele><time>2026-05-02T11:52:48.594Z</time></trkpt><trkpt lat="46.1941017" lon="13.486645"><ele>648.0</ele><time>2026-05-02T11:52:49.593Z</time></trkpt><trkpt lat="46.1940733" lon="13.486895"><ele>648.0</ele><time>2026-05-02T11:52:50.594Z</time></trkpt><trkpt lat="46.1940533" lon="13.4871267"><ele>646.75</ele><time>2026-05-02T11:52:51.593Z</time></trkpt><trkpt lat="46.19403" lon="13.4873367"><ele>645.5</ele><time>2026-05-02T11:52:52.593Z</time></trkpt><trkpt lat="46.194005" lon="13.48753"><ele>644.25</ele><time>2026-05-02T11:52:53.592Z</time></trkpt><trkpt lat="46.1939933" lon="13.4877067"><ele>643.0</ele><time>2026-05-02T11:52:54.594Z</time></trkpt><trkpt lat="46.19399" lon="13.4878567"><ele>641.1666666666667</ele><time>2026-05-02T11:52:55.593Z</time></trkpt><trkpt lat="46.1939967" lon="13.4879883"><ele>639.3333333333334</ele><time>2026-05-02T11:52:56.593Z</time></trkpt><trkpt lat="46.194005" lon="13.4880983"><ele>637.5</ele><time>2026-05-02T11:52:57.593Z</time></trkpt><trkpt lat="46.19396" lon="13.488195"><ele>635.6666666666666</ele><time>2026-05-02T11:52:59.593Z</time></trkpt><trkpt lat="46.1938933" lon="13.4880717"><ele>633.8333333333333</ele><time>2026-05-02T11:53:01.593Z</time></trkpt><trkpt lat="46.1938933" lon="13.4879483"><ele>632.0</ele><time>2026-05-02T11:53:02.594Z</time></trkpt><trkpt lat="46.1938933" lon="13.4877933"><ele>625.75</ele><time>2026-05-02T11:53:03.592Z</time></trkpt><trkpt lat="46.1938583" lon="13.4876333"><ele>619.5</ele><time>2026-05-02T11:53:04.593Z</time></trkpt><trkpt lat="46.1938467" lon="13.4874467"><ele>613.25</ele><time>2026-05-02T11:53:05.594Z</time></trkpt><trkpt lat="46.1938333" lon="13.4872583"><ele>607.0</ele><time>2026-05-02T11:53:06.593Z</time></trkpt><trkpt lat="46.1938233" lon="13.4870767"><ele>607.0</ele><time>2026-05-02T11:53:07.594Z</time></trkpt><trkpt lat="46.19379" lon="13.4868917"><ele>607.0</ele><time>2026-05-02T11:53:08.595Z</time></trkpt><trkpt lat="46.19377" lon="13.4867317"><ele>607.0</ele><time>2026-05-02T11:53:09.593Z</time></trkpt><trkpt lat="46.1937333" lon="13.48658"><ele>607.0</ele><time>2026-05-02T11:53:10.594Z</time></trkpt><trkpt lat="46.19369" lon="13.48643"><ele>607.0</ele><time>2026-05-02T11:53:11.594Z</time></trkpt><trkpt lat="46.1936617" lon="13.4863133"><ele>607.0</ele><time>2026-05-02T11:53:12.594Z</time></trkpt><trkpt lat="46.1936433" lon="13.4862233"><ele>607.0</ele><time>2026-05-02T11:53:13.593Z</time></trkpt><trkpt lat="46.193585" lon="13.4861833"><ele>607.0</ele><time>2026-05-02T11:53:14.594Z</time></trkpt><trkpt lat="46.1935133" lon="13.48619"><ele>607.0</ele><time>2026-05-02T11:53:15.594Z</time></trkpt><trkpt lat="46.193435" lon="13.4862483"><ele>607.0</ele><time>2026-05-02T11:53:16.593Z</time></trkpt><trkpt lat="46.1933567" lon="13.486355"><ele>607.0</ele><time>2026-05-02T11:53:17.594Z</time></trkpt><trkpt lat="46.1932833" lon="13.4864383"><ele>607.0</ele><time>2026-05-02T11:53:18.593Z</time></trkpt><trkpt lat="46.1931917" lon="13.4864883"><ele>607.0</ele><time>2026-05-02T11:53:19.594Z</time></trkpt><trkpt lat="46.1930917" lon="13.4864717"><ele>607.0</ele><time>2026-05-02T11:53:20.593Z</time></trkpt><trkpt lat="46.1929567" lon="13.4864183"><ele>607.0</ele><time>2026-05-02T11:53:21.593Z</time></trkpt><trkpt lat="46.19279" lon="13.4863767"><ele>601.6666666666667</ele><time>2026-05-02T11:53:22.592Z</time></trkpt><trkpt lat="46.19262" lon="13.4863433"><ele>596.3333333333334</ele><time>2026-05-02T11:53:23.592Z</time></trkpt><trkpt lat="46.1924617" lon="13.4862933"><ele>591.0</ele><time>2026-05-02T11:53:24.592Z</time></trkpt><trkpt lat="46.1923117" lon="13.486255"><ele>589.4</ele><time>2026-05-02T11:53:25.593Z</time></trkpt><trkpt lat="46.1921717" lon="13.4862383"><ele>587.8</ele><time>2026-05-02T11:53:26.594Z</time></trkpt><trkpt lat="46.19206" lon="13.4862033"><ele>586.1999999999999</ele><time>2026-05-02T11:53:27.593Z</time></trkpt><trkpt lat="46.19196" lon="13.4861767"><ele>584.6</ele><time>2026-05-02T11:53:28.594Z</time></trkpt><trkpt lat="46.19189" lon="13.4860967"><ele>583.0</ele><time>2026-05-02T11:53:29.592Z</time></trkpt><trkpt lat="46.1918433" lon="13.4859733"><ele>583.0</ele><time>2026-05-02T11:53:30.592Z</time></trkpt><trkpt lat="46.1917883" lon="13.4858467"><ele>583.0</ele><time>2026-05-02T11:53:31.594Z</time></trkpt><trkpt lat="46.1916933" lon="13.4857567"><ele>583.0</ele><time>2026-05-02T11:53:32.593Z</time></trkpt><trkpt lat="46.1915733" lon="13.4857033"><ele>583.0</ele><time>2026-05-02T11:53:33.593Z</time></trkpt><trkpt lat="46.1914667" lon="13.4856417"><ele>582.0</ele><time>2026-05-02T11:53:34.594Z</time></trkpt><trkpt lat="46.19136" lon="13.4855817"><ele>581.0</ele><time>2026-05-02T11:53:35.593Z</time></trkpt><trkpt lat="46.19127" lon="13.485505"><ele>580.0</ele><time>2026-05-02T11:53:36.594Z</time></trkpt><trkpt lat="46.1911817" lon="13.48543"><ele>579.0</ele><time>2026-05-02T11:53:37.593Z</time></trkpt><trkpt lat="46.19109" lon="13.48537"><ele>578.0</ele><time>2026-05-02T11:53:38.595Z</time></trkpt><trkpt lat="46.1909983" lon="13.48533"><ele>578.0</ele><time>2026-05-02T11:53:39.593Z</time></trkpt><trkpt lat="46.19091" lon="13.4853183"><ele>578.0</ele><time>2026-05-02T11:53:40.594Z</time></trkpt><trkpt lat="46.19083" lon="13.4852933"><ele>578.0</ele><time>2026-05-02T11:53:41.596Z</time></trkpt><trkpt lat="46.1907567" lon="13.48525"><ele>578.0</ele><time>2026-05-02T11:53:42.592Z</time></trkpt><trkpt lat="46.1907033" lon="13.48517"><ele>578.0</ele><time>2026-05-02T11:53:43.592Z</time></trkpt><trkpt lat="46.1906617" lon="13.4850683"><ele>578.0</ele><time>2026-05-02T11:53:44.595Z</time></trkpt><trkpt lat="46.1906367" lon="13.4849467"><ele>575.1666666666666</ele><time>2026-05-02T11:53:45.593Z</time></trkpt><trkpt lat="46.19061" lon="13.4848233"><ele>572.3333333333333</ele><time>2026-05-02T11:53:46.594Z</time></trkpt><trkpt lat="46.19059" lon="13.4847033"><ele>569.5</ele><time>2026-05-02T11:53:47.593Z</time></trkpt><trkpt lat="46.190585" lon="13.4845967"><ele>566.6666666666666</ele><time>2026-05-02T11:53:48.593Z</time></trkpt><trkpt lat="46.1905" lon="13.48447"><ele>563.8333333333334</ele><time>2026-05-02T11:53:50.594Z</time></trkpt><trkpt lat="46.19045" lon="13.4844083"><ele>561.0</ele><time>2026-05-02T11:53:51.592Z</time></trkpt><trkpt lat="46.1904117" lon="13.4843217"><ele>561.0</ele><time>2026-05-02T11:53:52.592Z</time></trkpt><trkpt lat="46.19038" lon="13.4842183"><ele>561.0</ele><time>2026-05-02T11:53:53.594Z</time></trkpt><trkpt lat="46.190325" lon="13.4841217"><ele>561.0</ele><time>2026-05-02T11:53:54.594Z</time></trkpt><trkpt lat="46.1902817" lon="13.4840067"><ele>561.0</ele><time>2026-05-02T11:53:55.594Z</time></trkpt><trkpt lat="46.1902317" lon="13.4838967"><ele>561.0</ele><time>2026-05-02T11:53:56.594Z</time></trkpt><trkpt lat="46.190165" lon="13.4838117"><ele>561.0</ele><time>2026-05-02T11:53:57.592Z</time></trkpt><trkpt lat="46.1900933" lon="13.4837433"><ele>561.6666666666666</ele><time>2026-05-02T11:53:58.594Z</time></trkpt><trkpt lat="46.1900333" lon="13.4836733"><ele>562.3333333333334</ele><time>2026-05-02T11:53:59.593Z</time></trkpt><trkpt lat="46.189985" lon="13.4835933"><ele>563.0</ele><time>2026-05-02T11:54:00.592Z</time></trkpt><trkpt lat="46.1899467" lon="13.4835083"><ele>563.6666666666667</ele><time>2026-05-02T11:54:01.593Z</time></trkpt><trkpt lat="46.1899333" lon="13.4833983"><ele>564.3333333333334</ele><time>2026-05-02T11:54:02.594Z</time></trkpt><trkpt lat="46.189945" lon="13.4832733"><ele>565.0</ele><time>2026-05-02T11:54:03.594Z</time></trkpt><trkpt lat="46.1899683" lon="13.4831217"><ele>565.0</ele><time>2026-05-02T11:54:04.593Z</time></trkpt><trkpt lat="46.1899867" lon="13.4829483"><ele>565.0</ele><time>2026-05-02T11:54:05.593Z</time></trkpt><trkpt lat="46.18999" lon="13.4827817"><ele>565.0</ele><time>2026-05-02T11:54:06.593Z</time></trkpt><trkpt lat="46.1899917" lon="13.4826283"><ele>565.0</ele><time>2026-05-02T11:54:07.593Z</time></trkpt><trkpt lat="46.189995" lon="13.4825017"><ele>565.0</ele><time>2026-05-02T11:54:08.595Z</time></trkpt><trkpt lat="46.1900083" lon="13.4824067"><ele>563.8</ele><time>2026-05-02T11:54:09.594Z</time></trkpt><trkpt lat="46.1899717" lon="13.4823117"><ele>562.6</ele><time>2026-05-02T11:54:11.594Z</time></trkpt><trkpt lat="46.189905" lon="13.48246"><ele>561.4</ele><time>2026-05-02T11:54:13.594Z</time></trkpt><trkpt lat="46.1898983" lon="13.48257"><ele>560.2</ele><time>2026-05-02T11:54:14.595Z</time></trkpt><trkpt lat="46.189915" lon="13.4827067"><ele>559.0</ele><time>2026-05-02T11:54:15.594Z</time></trkpt><trkpt lat="46.1899067" lon="13.4828333"><ele>560.2</ele><time>2026-05-02T11:54:16.594Z</time></trkpt><trkpt lat="46.1898717" lon="13.4829717"><ele>561.4</ele><time>2026-05-02T11:54:17.594Z</time></trkpt><trkpt lat="46.1898283" lon="13.4831033"><ele>562.6</ele><time>2026-05-02T11:54:18.593Z</time></trkpt><trkpt lat="46.1897617" lon="13.48322"><ele>563.8</ele><time>2026-05-02T11:54:19.594Z</time></trkpt><trkpt lat="46.1897" lon="13.4833233"><ele>565.0</ele><time>2026-05-02T11:54:20.593Z</time></trkpt><trkpt lat="46.1896433" lon="13.4834367"><ele>560.0</ele><time>2026-05-02T11:54:21.593Z</time></trkpt><trkpt lat="46.1895983" lon="13.483555"><ele>555.0</ele><time>2026-05-02T11:54:22.593Z</time></trkpt><trkpt lat="46.1895733" lon="13.4836817"><ele>550.0</ele><time>2026-05-02T11:54:23.593Z</time></trkpt><trkpt lat="46.1895633" lon="13.4838183"><ele>545.0</ele><time>2026-05-02T11:54:24.595Z</time></trkpt><trkpt lat="46.189565" lon="13.4839467"><ele>540.0</ele><time>2026-05-02T11:54:25.594Z</time></trkpt><trkpt lat="46.189575" lon="13.4840617"><ele>535.0</ele><time>2026-05-02T11:54:26.597Z</time></trkpt><trkpt lat="46.1895767" lon="13.4841683"><ele>534.5</ele><time>2026-05-02T11:54:27.593Z</time></trkpt><trkpt lat="46.18959" lon="13.4843233"><ele>534.0</ele><time>2026-05-02T11:54:29.593Z</time></trkpt><trkpt lat="46.1895667" lon="13.4844383"><ele>533.5</ele><time>2026-05-02T11:54:31.594Z</time></trkpt><trkpt lat="46.1894867" lon="13.4844167"><ele>533.0</ele><time>2026-05-02T11:54:33.594Z</time></trkpt><trkpt lat="46.1894667" lon="13.48432"><ele>532.5</ele><time>2026-05-02T11:54:34.593Z</time></trkpt><trkpt lat="46.1894617" lon="13.48418"><ele>532.0</ele><time>2026-05-02T11:54:35.593Z</time></trkpt><trkpt lat="46.189435" lon="13.4840617"><ele>532.0</ele><time>2026-05-02T11:54:36.593Z</time></trkpt><trkpt lat="46.189395" lon="13.4839317"><ele>532.0</ele><time>2026-05-02T11:54:37.594Z</time></trkpt><trkpt lat="46.1893483" lon="13.4837917"><ele>532.0</ele><time>2026-05-02T11:54:38.593Z</time></trkpt><trkpt lat="46.1893" lon="13.4836633"><ele>532.0</ele><time>2026-05-02T11:54:39.593Z</time></trkpt><trkpt lat="46.189275" lon="13.4835333"><ele>532.0</ele><time>2026-05-02T11:54:40.593Z</time></trkpt><trkpt lat="46.1892583" lon="13.4834017"><ele>532.5</ele><time>2026-05-02T11:54:41.593Z</time></trkpt><trkpt lat="46.1892567" lon="13.4832717"><ele>533.0</ele><time>2026-05-02T11:54:42.593Z</time></trkpt><trkpt lat="46.1892467" lon="13.4831733"><ele>533.5</ele><time>2026-05-02T11:54:43.594Z</time></trkpt><trkpt lat="46.1892133" lon="13.4830817"><ele>534.0</ele><time>2026-05-02T11:54:44.594Z</time></trkpt><trkpt lat="46.1891567" lon="13.483005"><ele>534.5</ele><time>2026-05-02T11:54:45.593Z</time></trkpt><trkpt lat="46.18909" lon="13.482945"><ele>535.0</ele><time>2026-05-02T11:54:46.593Z</time></trkpt><trkpt lat="46.1890067" lon="13.4829117"><ele>531.4</ele><time>2026-05-02T11:54:47.594Z</time></trkpt><trkpt lat="46.18891" lon="13.4829117"><ele>527.8</ele><time>2026-05-02T11:54:48.593Z</time></trkpt><trkpt lat="46.1888217" lon="13.4829417"><ele>524.2</ele><time>2026-05-02T11:54:49.594Z</time></trkpt><trkpt lat="46.1887417" lon="13.4829383"><ele>520.6</ele><time>2026-05-02T11:54:50.595Z</time></trkpt><trkpt lat="46.1886567" lon="13.4829083"><ele>517.0</ele><time>2026-05-02T11:54:51.593Z</time></trkpt><trkpt lat="46.188565" lon="13.4828183"><ele>517.0</ele><time>2026-05-02T11:54:52.593Z</time></trkpt><trkpt lat="46.1884733" lon="13.4827367"><ele>517.0</ele><time>2026-05-02T11:54:53.594Z</time></trkpt><trkpt lat="46.1883917" lon="13.482645"><ele>517.0</ele><time>2026-05-02T11:54:54.595Z</time></trkpt><trkpt lat="46.1883067" lon="13.4825833"><ele>517.0</ele><time>2026-05-02T11:54:55.595Z</time></trkpt><trkpt lat="46.1882233" lon="13.482505"><ele>517.0</ele><time>2026-05-02T11:54:56.594Z</time></trkpt><trkpt lat="46.1881433" lon="13.4824017"><ele>512.4</ele><time>2026-05-02T11:54:57.593Z</time></trkpt><trkpt lat="46.188085" lon="13.4822567"><ele>507.80000000000007</ele><time>2026-05-02T11:54:58.594Z</time></trkpt><trkpt lat="46.1880283" lon="13.4821133"><ele>503.2</ele><time>2026-05-02T11:54:59.594Z</time></trkpt><trkpt lat="46.187965" lon="13.482005"><ele>498.6</ele><time>2026-05-02T11:55:00.594Z</time></trkpt><trkpt lat="46.18795" lon="13.4818783"><ele>494.0</ele><time>2026-05-02T11:55:01.594Z</time></trkpt><trkpt lat="46.1879583" lon="13.4817567"><ele>493.6</ele><time>2026-05-02T11:55:02.594Z</time></trkpt><trkpt lat="46.1879817" lon="13.4816383"><ele>493.2</ele><time>2026-05-02T11:55:03.593Z</time></trkpt><trkpt lat="46.1880433" lon="13.4815233"><ele>492.80000000000007</ele><time>2026-05-02T11:55:04.594Z</time></trkpt><trkpt lat="46.18813" lon="13.4814067"><ele>492.40000000000003</ele><time>2026-05-02T11:55:05.594Z</time></trkpt><trkpt lat="46.1882117" lon="13.4812867"><ele>492.0</ele><time>2026-05-02T11:55:06.593Z</time></trkpt><trkpt lat="46.188285" lon="13.4811667"><ele>495.6</ele><time>2026-05-02T11:55:07.595Z</time></trkpt><trkpt lat="46.1883317" lon="13.4810283"><ele>499.20000000000005</ele><time>2026-05-02T11:55:08.594Z</time></trkpt><trkpt lat="46.1883567" lon="13.4808767"><ele>502.8</ele><time>2026-05-02T11:55:09.593Z</time></trkpt><trkpt lat="46.1883617" lon="13.480725"><ele>506.4</ele><time>2026-05-02T11:55:10.593Z</time></trkpt><trkpt lat="46.1883367" lon="13.4805817"><ele>510.0</ele><time>2026-05-02T11:55:11.593Z</time></trkpt><trkpt lat="46.1882983" lon="13.4804583"><ele>506.4</ele><time>2026-05-02T11:55:12.594Z</time></trkpt><trkpt lat="46.1882617" lon="13.4803483"><ele>502.8</ele><time>2026-05-02T11:55:13.594Z</time></trkpt><trkpt lat="46.1881917" lon="13.4802717"><ele>499.20000000000005</ele><time>2026-05-02T11:55:14.594Z</time></trkpt><trkpt lat="46.1880967" lon="13.48023"><ele>495.6</ele><time>2026-05-02T11:55:15.593Z</time></trkpt><trkpt lat="46.187985" lon="13.4802567"><ele>492.0</ele><time>2026-05-02T11:55:16.594Z</time></trkpt><trkpt lat="46.1878833" lon="13.4803317"><ele>490.40000000000003</ele><time>2026-05-02T11:55:17.595Z</time></trkpt><trkpt lat="46.1877933" lon="13.4804133"><ele>488.80000000000007</ele><time>2026-05-02T11:55:18.595Z</time></trkpt><trkpt lat="46.1877333" lon="13.4805383"><ele>487.2</ele><time>2026-05-02T11:55:19.594Z</time></trkpt><trkpt lat="46.1876883" lon="13.48066"><ele>485.6</ele><time>2026-05-02T11:55:20.595Z</time></trkpt><trkpt lat="46.1876717" lon="13.4808117"><ele>484.0</ele><time>2026-05-02T11:55:21.594Z</time></trkpt><trkpt lat="46.1876583" lon="13.4809667"><ele>484.0</ele><time>2026-05-02T11:55:22.596Z</time></trkpt><trkpt lat="46.1876217" lon="13.481115"><ele>484.0</ele><time>2026-05-02T11:55:23.593Z</time></trkpt><trkpt lat="46.1875483" lon="13.4812417"><ele>484.0</ele><time>2026-05-02T11:55:24.595Z</time></trkpt><trkpt lat="46.1874467" lon="13.4813617"><ele>484.0</ele><time>2026-05-02T11:55:25.593Z</time></trkpt><trkpt lat="46.1873817" lon="13.4815333"><ele>477.0</ele><time>2026-05-02T11:55:26.595Z</time></trkpt><trkpt lat="46.1873233" lon="13.4817017"><ele>470.0</ele><time>2026-05-02T11:55:27.594Z</time></trkpt><trkpt lat="46.1872667" lon="13.4818617"><ele>463.0</ele><time>2026-05-02T11:55:28.594Z</time></trkpt><trkpt lat="46.1872367" lon="13.482045"><ele>456.0</ele><time>2026-05-02T11:55:29.594Z</time></trkpt><trkpt lat="46.18722" lon="13.4822467"><ele>455.0</ele><time>2026-05-02T11:55:30.594Z</time></trkpt><trkpt lat="46.187205" lon="13.4824517"><ele>454.0</ele><time>2026-05-02T11:55:31.593Z</time></trkpt><trkpt lat="46.1871917" lon="13.482645"><ele>453.0</ele><time>2026-05-02T11:55:32.595Z</time></trkpt><trkpt lat="46.1871667" lon="13.48284"><ele>452.0</ele><time>2026-05-02T11:55:33.594Z</time></trkpt><trkpt lat="46.187135" lon="13.4830167"><ele>451.0</ele><time>2026-05-02T11:55:34.593Z</time></trkpt><trkpt lat="46.18716" lon="13.4832033"><ele>450.0</ele><time>2026-05-02T11:55:35.594Z</time></trkpt><trkpt lat="46.1871867" lon="13.4833817"><ele>449.0</ele><time>2026-05-02T11:55:36.593Z</time></trkpt><trkpt lat="46.1872183" lon="13.4835617"><ele>448.0</ele><time>2026-05-02T11:55:37.594Z</time></trkpt><trkpt lat="46.1872533" lon="13.4837583"><ele>446.75</ele><time>2026-05-02T11:55:38.595Z</time></trkpt><trkpt lat="46.1872717" lon="13.4839517"><ele>445.5</ele><time>2026-05-02T11:55:39.594Z</time></trkpt><trkpt lat="46.1872667" lon="13.48414"><ele>444.25</ele><time>2026-05-02T11:55:40.594Z</time></trkpt><trkpt lat="46.18727" lon="13.48433"><ele>443.0</ele><time>2026-05-02T11:55:41.595Z</time></trkpt><trkpt lat="46.1872883" lon="13.484525"><ele>439.75</ele><time>2026-05-02T11:55:42.593Z</time></trkpt><trkpt lat="46.1873" lon="13.484705"><ele>436.5</ele><time>2026-05-02T11:55:43.593Z</time></trkpt><trkpt lat="46.18733" lon="13.484895"><ele>433.25</ele><time>2026-05-02T11:55:44.595Z</time></trkpt><trkpt lat="46.1873267" lon="13.4850633"><ele>430.0</ele><time>2026-05-02T11:55:45.593Z</time></trkpt><trkpt lat="46.18733" lon="13.4852183"><ele>430.00000000000006</ele><time>2026-05-02T11:55:46.594Z</time></trkpt><trkpt lat="46.1873217" lon="13.4853583"><ele>430.0</ele><time>2026-05-02T11:55:47.593Z</time></trkpt><trkpt lat="46.1873217" lon="13.4854833"><ele>430.0</ele><time>2026-05-02T11:55:48.595Z</time></trkpt><trkpt lat="46.1873483" lon="13.4855883"><ele>430.0</ele><time>2026-05-02T11:55:49.594Z</time></trkpt><trkpt lat="46.1873867" lon="13.4857417"><ele>430.00000000000006</ele><time>2026-05-02T11:55:51.593Z</time></trkpt><trkpt lat="46.187335" lon="13.485805"><ele>430.0</ele><time>2026-05-02T11:55:53.593Z</time></trkpt><trkpt lat="46.1872717" lon="13.485645"><ele>430.0</ele><time>2026-05-02T11:55:55.594Z</time></trkpt><trkpt lat="46.18725" lon="13.4854967"><ele>430.0</ele><time>2026-05-02T11:55:56.593Z</time></trkpt><trkpt lat="46.1872" lon="13.4853783"><ele>430.0</ele><time>2026-05-02T11:55:57.593Z</time></trkpt><trkpt lat="46.187165" lon="13.4852417"><ele>430.0</ele><time>2026-05-02T11:55:58.594Z</time></trkpt><trkpt lat="46.187105" lon="13.4851267"><ele>430.0</ele><time>2026-05-02T11:55:59.595Z</time></trkpt><trkpt lat="46.1870367" lon="13.4850133"><ele>430.0</ele><time>2026-05-02T11:56:00.594Z</time></trkpt><trkpt lat="46.1869417" lon="13.4848983"><ele>430.0</ele><time>2026-05-02T11:56:01.594Z</time></trkpt><trkpt lat="46.1868533" lon="13.4847667"><ele>430.0</ele><time>2026-05-02T11:56:02.596Z</time></trkpt><trkpt lat="46.1867733" lon="13.4846233"><ele>430.0</ele><time>2026-05-02T11:56:03.593Z</time></trkpt><trkpt lat="46.1866967" lon="13.48447"><ele>433.25</ele><time>2026-05-02T11:56:04.594Z</time></trkpt><trkpt lat="46.1866233" lon="13.4843233"><ele>436.5</ele><time>2026-05-02T11:56:05.593Z</time></trkpt><trkpt lat="46.1865517" lon="13.48416"><ele>439.75</ele><time>2026-05-02T11:56:06.594Z</time></trkpt><trkpt lat="46.1864833" lon="13.4839833"><ele>443.0</ele><time>2026-05-02T11:56:07.594Z</time></trkpt><trkpt lat="46.186435" lon="13.48379"><ele>431.3333333333333</ele><time>2026-05-02T11:56:08.594Z</time></trkpt><trkpt lat="46.1863767" lon="13.483595"><ele>419.66666666666663</ele><time>2026-05-02T11:56:09.594Z</time></trkpt><trkpt lat="46.18629" lon="13.483415"><ele>408.0</ele><time>2026-05-02T11:56:10.595Z</time></trkpt><trkpt lat="46.18621" lon="13.4832233"><ele>408.0</ele><time>2026-05-02T11:56:11.595Z</time></trkpt><trkpt lat="46.1861283" lon="13.4830333"><ele>408.0</ele><time>2026-05-02T11:56:12.595Z</time></trkpt><trkpt lat="46.1860617" lon="13.482835"><ele>408.0</ele><time>2026-05-02T11:56:13.593Z</time></trkpt><trkpt lat="46.185965" lon="13.4826767"><ele>410.75</ele><time>2026-05-02T11:56:14.595Z</time></trkpt><trkpt lat="46.185885" lon="13.48252"><ele>413.5</ele><time>2026-05-02T11:56:15.593Z</time></trkpt><trkpt lat="46.18581" lon="13.4823617"><ele>416.25</ele><time>2026-05-02T11:56:16.593Z</time></trkpt><trkpt lat="46.1857783" lon="13.4821933"><ele>419.0</ele><time>2026-05-02T11:56:17.594Z</time></trkpt><trkpt lat="46.1857267" lon="13.4820483"><ele>414.5</ele><time>2026-05-02T11:56:18.594Z</time></trkpt><trkpt lat="46.1856667" lon="13.481915"><ele>410.0</ele><time>2026-05-02T11:56:19.594Z</time></trkpt><trkpt lat="46.1855683" lon="13.48182"><ele>405.5</ele><time>2026-05-02T11:56:20.595Z</time></trkpt><trkpt lat="46.1854433" lon="13.4817467"><ele>401.0</ele><time>2026-05-02T11:56:21.594Z</time></trkpt><trkpt lat="46.1853333" lon="13.48167"><ele>401.0</ele><time>2026-05-02T11:56:22.594Z</time></trkpt><trkpt lat="46.185225" lon="13.4816217"><ele>401.0</ele><time>2026-05-02T11:56:23.593Z</time></trkpt><trkpt lat="46.185125" lon="13.4815933"><ele>401.0</ele><time>2026-05-02T11:56:24.595Z</time></trkpt><trkpt lat="46.1850333" lon="13.4816167"><ele>401.0</ele><time>2026-05-02T11:56:25.595Z</time></trkpt><trkpt lat="46.1849517" lon="13.4816933"><ele>401.0</ele><time>2026-05-02T11:56:26.593Z</time></trkpt><trkpt lat="46.1849017" lon="13.481815"><ele>401.0</ele><time>2026-05-02T11:56:27.594Z</time></trkpt><trkpt lat="46.1848833" lon="13.481975"><ele>401.0</ele><time>2026-05-02T11:56:28.596Z</time></trkpt><trkpt lat="46.184895" lon="13.48217"><ele>401.0</ele><time>2026-05-02T11:56:29.594Z</time></trkpt><trkpt lat="46.1849183" lon="13.4823717"><ele>401.0</ele><time>2026-05-02T11:56:30.594Z</time></trkpt><trkpt lat="46.1849133" lon="13.482565"><ele>399.0</ele><time>2026-05-02T11:56:31.596Z</time></trkpt><trkpt lat="46.1849217" lon="13.4827767"><ele>397.0</ele><time>2026-05-02T11:56:32.595Z</time></trkpt><trkpt lat="46.184955" lon="13.483"><ele>395.0</ele><time>2026-05-02T11:56:33.595Z</time></trkpt><trkpt lat="46.185" lon="13.4832167"><ele>393.5</ele><time>2026-05-02T11:56:34.594Z</time></trkpt><trkpt lat="46.185045" lon="13.4834233"><ele>392.0</ele><time>2026-05-02T11:56:35.594Z</time></trkpt><trkpt lat="46.185095" lon="13.4836033"><ele>390.5</ele><time>2026-05-02T11:56:36.594Z</time></trkpt><trkpt lat="46.1851383" lon="13.4837917"><ele>389.0</ele><time>2026-05-02T11:56:37.594Z</time></trkpt><trkpt lat="46.1852017" lon="13.483925"><ele>386.79999999999995</ele><time>2026-05-02T11:56:38.595Z</time></trkpt><trkpt lat="46.1852517" lon="13.4840617"><ele>384.59999999999997</ele><time>2026-05-02T11:56:39.594Z</time></trkpt><trkpt lat="46.1853017" lon="13.4841717"><ele>382.4</ele><time>2026-05-02T11:56:40.595Z</time></trkpt><trkpt lat="46.1853583" lon="13.4842517"><ele>380.2</ele><time>2026-05-02T11:56:41.593Z</time></trkpt><trkpt lat="46.1854133" lon="13.4843617"><ele>378.0</ele><time>2026-05-02T11:56:43.594Z</time></trkpt><trkpt lat="46.1852683" lon="13.4844017"><ele>378.0</ele><time>2026-05-02T11:56:45.594Z</time></trkpt><trkpt lat="46.1851717" lon="13.4844"><ele>378.0</ele><time>2026-05-02T11:56:46.594Z</time></trkpt><trkpt lat="46.1850317" lon="13.4844167"><ele>378.0</ele><time>2026-05-02T11:56:47.595Z</time></trkpt><trkpt lat="46.1848667" lon="13.484405"><ele>378.0</ele><time>2026-05-02T11:56:48.593Z</time></trkpt><trkpt lat="46.1847317" lon="13.4844617"><ele>372.25</ele><time>2026-05-02T11:56:49.594Z</time></trkpt><trkpt lat="46.184595" lon="13.4844817"><ele>366.5</ele><time>2026-05-02T11:56:50.595Z</time></trkpt><trkpt lat="46.184465" lon="13.4844833"><ele>360.75</ele><time>2026-05-02T11:56:51.593Z</time></trkpt><trkpt lat="46.1843383" lon="13.48445"><ele>355.0</ele><time>2026-05-02T11:56:52.595Z</time></trkpt><trkpt lat="46.18423" lon="13.484375"><ele>355.0</ele><time>2026-05-02T11:56:53.594Z</time></trkpt><trkpt lat="46.1841483" lon="13.48425"><ele>355.0</ele><time>2026-05-02T11:56:54.594Z</time></trkpt><trkpt lat="46.18408" lon="13.4840833"><ele>355.0</ele><time>2026-05-02T11:56:55.597Z</time></trkpt><trkpt lat="46.1840233" lon="13.483915"><ele>355.0</ele><time>2026-05-02T11:56:56.594Z</time></trkpt><trkpt lat="46.1840033" lon="13.48371"><ele>345.5</ele><time>2026-05-02T11:56:57.594Z</time></trkpt><trkpt lat="46.183975" lon="13.483525"><ele>336.0</ele><time>2026-05-02T11:56:58.594Z</time></trkpt><trkpt lat="46.1839617" lon="13.4833567"><ele>326.5</ele><time>2026-05-02T11:56:59.595Z</time></trkpt><trkpt lat="46.18397" lon="13.4832033"><ele>317.0</ele><time>2026-05-02T11:57:00.594Z</time></trkpt><trkpt lat="46.1839933" lon="13.4830483"><ele>316.25</ele><time>2026-05-02T11:57:01.594Z</time></trkpt><trkpt lat="46.18396" lon="13.4829017"><ele>315.5</ele><time>2026-05-02T11:57:02.594Z</time></trkpt><trkpt lat="46.1838983" lon="13.48274"><ele>314.75</ele><time>2026-05-02T11:57:03.594Z</time></trkpt><trkpt lat="46.183835" lon="13.482565"><ele>314.0</ele><time>2026-05-02T11:57:04.593Z</time></trkpt><trkpt lat="46.18379" lon="13.482375"><ele>314.0</ele><time>2026-05-02T11:57:05.594Z</time></trkpt><trkpt lat="46.1837533" lon="13.48218"><ele>314.0</ele><time>2026-05-02T11:57:06.595Z</time></trkpt><trkpt lat="46.1837133" lon="13.4819833"><ele>314.0</ele><time>2026-05-02T11:57:07.594Z</time></trkpt><trkpt lat="46.1837" lon="13.48176"><ele>314.0</ele><time>2026-05-02T11:57:08.597Z</time></trkpt><trkpt lat="46.1836867" lon="13.4815367"><ele>315.75</ele><time>2026-05-02T11:57:09.593Z</time></trkpt><trkpt lat="46.1836583" lon="13.4813283"><ele>317.5</ele><time>2026-05-02T11:57:10.593Z</time></trkpt><trkpt lat="46.1836083" lon="13.481135"><ele>319.25</ele><time>2026-05-02T11:57:11.594Z</time></trkpt><trkpt lat="46.183545" lon="13.480965"><ele>321.0</ele><time>2026-05-02T11:57:12.596Z</time></trkpt><trkpt lat="46.183475" lon="13.4808167"><ele>321.0</ele><time>2026-05-02T11:57:13.594Z</time></trkpt><trkpt lat="46.1834183" lon="13.4806683"><ele>321.0</ele><time>2026-05-02T11:57:14.594Z</time></trkpt><trkpt lat="46.183405" lon="13.48048"><ele>321.0</ele><time>2026-05-02T11:57:15.593Z</time></trkpt><trkpt lat="46.1833667" lon="13.4803283"><ele>321.0</ele><time>2026-05-02T11:57:16.595Z</time></trkpt><trkpt lat="46.1833667" lon="13.4801767"><ele>321.0</ele><time>2026-05-02T11:57:17.593Z</time></trkpt><trkpt lat="46.1833783" lon="13.4800483"><ele>321.0</ele><time>2026-05-02T11:57:18.593Z</time></trkpt><trkpt lat="46.1834017" lon="13.47994"><ele>321.0</ele><time>2026-05-02T11:57:19.594Z</time></trkpt><trkpt lat="46.18341" lon="13.4798417"><ele>321.0</ele><time>2026-05-02T11:57:20.595Z</time></trkpt><trkpt lat="46.1833617" lon="13.4797633"><ele>321.0</ele><time>2026-05-02T11:57:22.594Z</time></trkpt><trkpt lat="46.183295" lon="13.4799333"><ele>321.0</ele><time>2026-05-02T11:57:24.594Z</time></trkpt><trkpt lat="46.1832767" lon="13.4800817"><ele>321.0</ele><time>2026-05-02T11:57:25.594Z</time></trkpt><trkpt lat="46.1832617" lon="13.4802867"><ele>321.0</ele><time>2026-05-02T11:57:26.595Z</time></trkpt><trkpt lat="46.1832433" lon="13.480515"><ele>321.0</ele><time>2026-05-02T11:57:27.594Z</time></trkpt><trkpt lat="46.183215" lon="13.48075"><ele>323.0</ele><time>2026-05-02T11:57:28.594Z</time></trkpt><trkpt lat="46.1831867" lon="13.4809833"><ele>325.0</ele><time>2026-05-02T11:57:29.596Z</time></trkpt><trkpt lat="46.1831817" lon="13.4812067"><ele>327.0</ele><time>2026-05-02T11:57:30.594Z</time></trkpt><trkpt lat="46.1831767" lon="13.4814167"><ele>316.25</ele><time>2026-05-02T11:57:31.593Z</time></trkpt><trkpt lat="46.1831583" lon="13.4816183"><ele>305.5</ele><time>2026-05-02T11:57:32.594Z</time></trkpt><trkpt lat="46.1831383" lon="13.4818083"><ele>294.75</ele><time>2026-05-02T11:57:33.593Z</time></trkpt><trkpt lat="46.1831183" lon="13.481985"><ele>284.0</ele><time>2026-05-02T11:57:34.596Z</time></trkpt><trkpt lat="46.1831133" lon="13.48215"><ele>284.0</ele><time>2026-05-02T11:57:35.594Z</time></trkpt><trkpt lat="46.1831317" lon="13.4823017"><ele>284.0</ele><time>2026-05-02T11:57:36.594Z</time></trkpt><trkpt lat="46.1831683" lon="13.4824383"><ele>284.0</ele><time>2026-05-02T11:57:37.594Z</time></trkpt><trkpt lat="46.18323" lon="13.48254"><ele>284.0</ele><time>2026-05-02T11:57:38.595Z</time></trkpt><trkpt lat="46.1832617" lon="13.48264"><ele>284.0</ele><time>2026-05-02T11:57:39.596Z</time></trkpt><trkpt lat="46.183285" lon="13.4827317"><ele>284.0</ele><time>2026-05-02T11:57:40.595Z</time></trkpt><trkpt lat="46.1832083" lon="13.4828817"><ele>284.4</ele><time>2026-05-02T11:57:42.594Z</time></trkpt><trkpt lat="46.1831417" lon="13.4829733"><ele>284.79999999999995</ele><time>2026-05-02T11:57:43.594Z</time></trkpt><trkpt lat="46.18311" lon="13.4831017"><ele>285.20000000000005</ele><time>2026-05-02T11:57:44.595Z</time></trkpt><trkpt lat="46.1830783" lon="13.483245"><ele>285.6</ele><time>2026-05-02T11:57:45.594Z</time></trkpt><trkpt lat="46.1830467" lon="13.4834067"><ele>286.0</ele><time>2026-05-02T11:57:46.595Z</time></trkpt><trkpt lat="46.1830683" lon="13.483595"><ele>282.5</ele><time>2026-05-02T11:57:47.595Z</time></trkpt><trkpt lat="46.1830733" lon="13.4837967"><ele>279.0</ele><time>2026-05-02T11:57:48.593Z</time></trkpt><trkpt lat="46.183095" lon="13.4839983"><ele>275.5</ele><time>2026-05-02T11:57:49.596Z</time></trkpt><trkpt lat="46.1831067" lon="13.4842067"><ele>272.0</ele><time>2026-05-02T11:57:50.595Z</time></trkpt><trkpt lat="46.18314" lon="13.48439"><ele>272.0</ele><time>2026-05-02T11:57:51.595Z</time></trkpt><trkpt lat="46.183155" lon="13.4845667"><ele>272.0</ele><time>2026-05-02T11:57:52.593Z</time></trkpt><trkpt lat="46.1831867" lon="13.48471"><ele>272.0</ele><time>2026-05-02T11:57:53.595Z</time></trkpt><trkpt lat="46.1832233" lon="13.4848283"><ele>272.0</ele><time>2026-05-02T11:57:54.593Z</time></trkpt><trkpt lat="46.183255" lon="13.48493"><ele>272.0</ele><time>2026-05-02T11:57:55.594Z</time></trkpt><trkpt lat="46.1832933" lon="13.4850117"><ele>272.0</ele><time>2026-05-02T11:57:56.594Z</time></trkpt><trkpt lat="46.18324" lon="13.48508"><ele>272.0</ele><time>2026-05-02T11:57:58.595Z</time></trkpt><trkpt lat="46.1831817" lon="13.48497"><ele>272.0</ele><time>2026-05-02T11:58:00.595Z</time></trkpt><trkpt lat="46.183155" lon="13.48482"><ele>272.0</ele><time>2026-05-02T11:58:01.592Z</time></trkpt><trkpt lat="46.1830917" lon="13.4847183"><ele>272.0</ele><time>2026-05-02T11:58:02.595Z</time></trkpt><trkpt lat="46.1830267" lon="13.484595"><ele>272.0</ele><time>2026-05-02T11:58:03.593Z</time></trkpt><trkpt lat="46.1829833" lon="13.48441"><ele>272.0</ele><time>2026-05-02T11:58:04.593Z</time></trkpt><trkpt lat="46.1829683" lon="13.484215"><ele>272.0</ele><time>2026-05-02T11:58:05.593Z</time></trkpt><trkpt lat="46.182945" lon="13.4840283"><ele>272.0</ele><time>2026-05-02T11:58:06.594Z</time></trkpt><trkpt lat="46.1828933" lon="13.483875"><ele>274.8</ele><time>2026-05-02T11:58:07.593Z</time></trkpt><trkpt lat="46.1828183" lon="13.4837533"><ele>277.6</ele><time>2026-05-02T11:58:08.594Z</time></trkpt><trkpt lat="46.182765" lon="13.4836333"><ele>280.40000000000003</ele><time>2026-05-02T11:58:09.593Z</time></trkpt><trkpt lat="46.1827333" lon="13.483505"><ele>283.2</ele><time>2026-05-02T11:58:10.594Z</time></trkpt><trkpt lat="46.18272" lon="13.483385"><ele>286.0</ele><time>2026-05-02T11:58:11.594Z</time></trkpt><trkpt lat="46.1827267" lon="13.4832633"><ele>286.0</ele><time>2026-05-02T11:58:12.593Z</time></trkpt><trkpt lat="46.1827433" lon="13.4831467"><ele>286.0</ele><time>2026-05-02T11:58:13.593Z</time></trkpt><trkpt lat="46.18276" lon="13.483035"><ele>286.0</ele><time>2026-05-02T11:58:14.595Z</time></trkpt><trkpt lat="46.1827667" lon="13.4829333"><ele>286.0</ele><time>2026-05-02T11:58:15.594Z</time></trkpt><trkpt lat="46.182765" lon="13.4828367"><ele>286.0</ele><time>2026-05-02T11:58:16.593Z</time></trkpt><trkpt lat="46.182715" lon="13.4827417"><ele>286.0</ele><time>2026-05-02T11:58:17.593Z</time></trkpt><trkpt lat="46.1826467" lon="13.4826383"><ele>285.5</ele><time>2026-05-02T11:58:18.594Z</time></trkpt><trkpt lat="46.1825583" lon="13.482525"><ele>285.0</ele><time>2026-05-02T11:58:19.594Z</time></trkpt><trkpt lat="46.18247" lon="13.4823867"><ele>284.5</ele><time>2026-05-02T11:58:20.594Z</time></trkpt><trkpt lat="46.1823967" lon="13.4822383"><ele>284.0</ele><time>2026-05-02T11:58:21.592Z</time></trkpt><trkpt lat="46.1823367" lon="13.4820867"><ele>274.25</ele><time>2026-05-02T11:58:22.594Z</time></trkpt><trkpt lat="46.1822883" lon="13.481925"><ele>264.5</ele><time>2026-05-02T11:58:23.593Z</time></trkpt><trkpt lat="46.1822583" lon="13.481735"><ele>254.75</ele><time>2026-05-02T11:58:24.593Z</time></trkpt><trkpt lat="46.18223" lon="13.4815383"><ele>245.0</ele><time>2026-05-02T11:58:25.594Z</time></trkpt><trkpt lat="46.1822133" lon="13.4813317"><ele>244.25</ele><time>2026-05-02T11:58:26.593Z</time></trkpt><trkpt lat="46.18219" lon="13.4811383"><ele>243.5</ele><time>2026-05-02T11:58:27.592Z</time></trkpt><trkpt lat="46.1821367" lon="13.480965"><ele>242.75</ele><time>2026-05-02T11:58:28.593Z</time></trkpt><trkpt lat="46.1820783" lon="13.4808067"><ele>242.0</ele><time>2026-05-02T11:58:29.592Z</time></trkpt><trkpt lat="46.1819833" lon="13.4806783"><ele>242.0</ele><time>2026-05-02T11:58:30.593Z</time></trkpt><trkpt lat="46.1819283" lon="13.4805467"><ele>242.0</ele><time>2026-05-02T11:58:31.593Z</time></trkpt><trkpt lat="46.1818767" lon="13.4804167"><ele>242.0</ele><time>2026-05-02T11:58:32.594Z</time></trkpt><trkpt lat="46.18184" lon="13.48027"><ele>242.0</ele><time>2026-05-02T11:58:33.592Z</time></trkpt><trkpt lat="46.18186" lon="13.4801033"><ele>242.0</ele><time>2026-05-02T11:58:34.595Z</time></trkpt><trkpt lat="46.1818617" lon="13.479935"><ele>240.8</ele><time>2026-05-02T11:58:35.592Z</time></trkpt><trkpt lat="46.1818517" lon="13.4797717"><ele>239.6</ele><time>2026-05-02T11:58:36.593Z</time></trkpt><trkpt lat="46.1818733" lon="13.4796317"><ele>238.40000000000003</ele><time>2026-05-02T11:58:37.592Z</time></trkpt><trkpt lat="46.18191" lon="13.47951"><ele>237.20000000000002</ele><time>2026-05-02T11:58:38.593Z</time></trkpt><trkpt lat="46.1819767" lon="13.479425"><ele>236.0</ele><time>2026-05-02T11:58:39.593Z</time></trkpt><trkpt lat="46.1820717" lon="13.4793517"><ele>240.0</ele><time>2026-05-02T11:58:40.593Z</time></trkpt><trkpt lat="46.1821833" lon="13.479235"><ele>244.0</ele><time>2026-05-02T11:58:41.594Z</time></trkpt><trkpt lat="46.1823033" lon="13.479095"><ele>248.0</ele><time>2026-05-02T11:58:42.593Z</time></trkpt><trkpt lat="46.182435" lon="13.4790117"><ele>252.0</ele><time>2026-05-02T11:58:43.594Z</time></trkpt><trkpt lat="46.1825633" lon="13.4789033"><ele>252.0</ele><time>2026-05-02T11:58:44.596Z</time></trkpt><trkpt lat="46.1826783" lon="13.4787983"><ele>252.0</ele><time>2026-05-02T11:58:45.592Z</time></trkpt><trkpt lat="46.1827883" lon="13.478675"><ele>252.0</ele><time>2026-05-02T11:58:46.594Z</time></trkpt><trkpt lat="46.182905" lon="13.4785433"><ele>252.0</ele><time>2026-05-02T11:58:47.595Z</time></trkpt><trkpt lat="46.1830133" lon="13.4784"><ele>249.25</ele><time>2026-05-02T11:58:48.593Z</time></trkpt><trkpt lat="46.1831233" lon="13.4783033"><ele>246.5</ele><time>2026-05-02T11:58:49.593Z</time></trkpt><trkpt lat="46.1832367" lon="13.4782167"><ele>243.75</ele><time>2026-05-02T11:58:50.594Z</time></trkpt><trkpt lat="46.18337" lon="13.4781983"><ele>241.0</ele><time>2026-05-02T11:58:51.594Z</time></trkpt><trkpt lat="46.1835017" lon="13.4781533"><ele>241.0</ele><time>2026-05-02T11:58:52.593Z</time></trkpt><trkpt lat="46.1836417" lon="13.4781333"><ele>241.0</ele><time>2026-05-02T11:58:53.593Z</time></trkpt><trkpt lat="46.1837767" lon="13.4780883"><ele>241.0</ele><time>2026-05-02T11:58:54.595Z</time></trkpt><trkpt lat="46.1838967" lon="13.4780583"><ele>241.0</ele><time>2026-05-02T11:58:55.594Z</time></trkpt><trkpt lat="46.1840033" lon="13.4780117"><ele>245.25</ele><time>2026-05-02T11:58:56.594Z</time></trkpt><trkpt lat="46.184105" lon="13.4779433"><ele>249.5</ele><time>2026-05-02T11:58:57.594Z</time></trkpt><trkpt lat="46.1842033" lon="13.4778633"><ele>253.75</ele><time>2026-05-02T11:58:58.594Z</time></trkpt><trkpt lat="46.1842917" lon="13.4777567"><ele>258.0</ele><time>2026-05-02T11:58:59.593Z</time></trkpt><trkpt lat="46.1843717" lon="13.477635"><ele>250.60000000000002</ele><time>2026-05-02T11:59:00.593Z</time></trkpt><trkpt lat="46.1844317" lon="13.47747"><ele>243.20000000000002</ele><time>2026-05-02T11:59:01.593Z</time></trkpt><trkpt lat="46.1844983" lon="13.477335"><ele>235.8</ele><time>2026-05-02T11:59:02.594Z</time></trkpt><trkpt lat="46.1845667" lon="13.477245"><ele>228.4</ele><time>2026-05-02T11:59:03.593Z</time></trkpt><trkpt lat="46.1846217" lon="13.4771733"><ele>221.0</ele><time>2026-05-02T11:59:04.593Z</time></trkpt><trkpt lat="46.1846717" lon="13.477045"><ele>221.0</ele><time>2026-05-02T11:59:06.594Z</time></trkpt><trkpt lat="46.1845783" lon="13.4770067"><ele>221.00000000000003</ele><time>2026-05-02T11:59:09.594Z</time></trkpt><trkpt lat="46.1845333" lon="13.4770933"><ele>221.00000000000003</ele><time>2026-05-02T11:59:10.594Z</time></trkpt><trkpt lat="46.1844833" lon="13.477205"><ele>221.0</ele><time>2026-05-02T11:59:11.594Z</time></trkpt><trkpt lat="46.1844133" lon="13.4773117"><ele>221.0</ele><time>2026-05-02T11:59:12.594Z</time></trkpt><trkpt lat="46.18433" lon="13.4774283"><ele>221.0</ele><time>2026-05-02T11:59:13.594Z</time></trkpt><trkpt lat="46.18421" lon="13.4774867"><ele>221.0</ele><time>2026-05-02T11:59:14.594Z</time></trkpt><trkpt lat="46.184095" lon="13.477565"><ele>221.0</ele><time>2026-05-02T11:59:15.593Z</time></trkpt><trkpt lat="46.1839817" lon="13.477655"><ele>221.0</ele><time>2026-05-02T11:59:16.593Z</time></trkpt><trkpt lat="46.1838333" lon="13.477695"><ele>216.75</ele><time>2026-05-02T11:59:17.594Z</time></trkpt><trkpt lat="46.183695" lon="13.4777433"><ele>212.5</ele><time>2026-05-02T11:59:18.593Z</time></trkpt><trkpt lat="46.18355" lon="13.47779"><ele>208.25</ele><time>2026-05-02T11:59:19.594Z</time></trkpt><trkpt lat="46.1833967" lon="13.47781"><ele>204.0</ele><time>2026-05-02T11:59:20.595Z</time></trkpt><trkpt lat="46.1832467" lon="13.4778117"><ele>201.5</ele><time>2026-05-02T11:59:21.594Z</time></trkpt><trkpt lat="46.1830967" lon="13.4778167"><ele>199.0</ele><time>2026-05-02T11:59:22.594Z</time></trkpt><trkpt lat="46.182955" lon="13.4778283"><ele>196.5</ele><time>2026-05-02T11:59:23.594Z</time></trkpt><trkpt lat="46.1828267" lon="13.47785"><ele>194.0</ele><time>2026-05-02T11:59:24.593Z</time></trkpt><trkpt lat="46.1826983" lon="13.47787"><ele>194.0</ele><time>2026-05-02T11:59:25.594Z</time></trkpt><trkpt lat="46.1825683" lon="13.4779133"><ele>194.0</ele><time>2026-05-02T11:59:26.595Z</time></trkpt><trkpt lat="46.1824417" lon="13.477905"><ele>194.0</ele><time>2026-05-02T11:59:27.593Z</time></trkpt><trkpt lat="46.18232" lon="13.47792"><ele>194.0</ele><time>2026-05-02T11:59:28.594Z</time></trkpt><trkpt lat="46.1822033" lon="13.4779433"><ele>194.16666666666669</ele><time>2026-05-02T11:59:29.594Z</time></trkpt><trkpt lat="46.1820983" lon="13.47796"><ele>194.33333333333334</ele><time>2026-05-02T11:59:30.594Z</time></trkpt><trkpt lat="46.1820117" lon="13.4779483"><ele>194.5</ele><time>2026-05-02T11:59:31.593Z</time></trkpt><trkpt lat="46.1819367" lon="13.4779333"><ele>194.66666666666669</ele><time>2026-05-02T11:59:32.594Z</time></trkpt><trkpt lat="46.18187" lon="13.47791"><ele>194.83333333333334</ele><time>2026-05-02T11:59:33.593Z</time></trkpt><trkpt lat="46.1818183" lon="13.4778517"><ele>195.0</ele><time>2026-05-02T11:59:34.593Z</time></trkpt><trkpt lat="46.1817633" lon="13.47778"><ele>193.8</ele><time>2026-05-02T11:59:35.594Z</time></trkpt><trkpt lat="46.1816883" lon="13.4777383"><ele>192.6</ele><time>2026-05-02T11:59:36.594Z</time></trkpt><trkpt lat="46.1815933" lon="13.477695"><ele>191.39999999999998</ele><time>2026-05-02T11:59:37.595Z</time></trkpt><trkpt lat="46.1814883" lon="13.47766"><ele>190.2</ele><time>2026-05-02T11:59:38.593Z</time></trkpt><trkpt lat="46.181385" lon="13.4776333"><ele>189.0</ele><time>2026-05-02T11:59:39.594Z</time></trkpt><trkpt lat="46.1812917" lon="13.47761"><ele>189.0</ele><time>2026-05-02T11:59:40.593Z</time></trkpt><trkpt lat="46.1812067" lon="13.4775967"><ele>189.0</ele><time>2026-05-02T11:59:41.594Z</time></trkpt><trkpt lat="46.18113" lon="13.4775767"><ele>189.0</ele><time>2026-05-02T11:59:42.593Z</time></trkpt><trkpt lat="46.1810583" lon="13.4775583"><ele>189.0</ele><time>2026-05-02T11:59:43.594Z</time></trkpt><trkpt lat="46.180985" lon="13.4775467"><ele>189.0</ele><time>2026-05-02T11:59:44.596Z</time></trkpt><trkpt lat="46.1809117" lon="13.4775417"><ele>189.0</ele><time>2026-05-02T11:59:45.594Z</time></trkpt><trkpt lat="46.180845" lon="13.477535"><ele>189.0</ele><time>2026-05-02T11:59:46.595Z</time></trkpt><trkpt lat="46.1807383" lon="13.4775283"><ele>189.0</ele><time>2026-05-02T11:59:48.593Z</time></trkpt><trkpt lat="46.180645" lon="13.4775367"><ele>189.0</ele><time>2026-05-02T11:59:50.595Z</time></trkpt><trkpt lat="46.1805567" lon="13.4775667"><ele>189.0</ele><time>2026-05-02T11:59:52.593Z</time></trkpt><trkpt lat="46.1804717" lon="13.477565"><ele>189.0</ele><time>2026-05-02T11:59:54.593Z</time></trkpt><trkpt lat="46.18041" lon="13.4774783"><ele>188.79999999999998</ele><time>2026-05-02T11:59:56.594Z</time></trkpt><trkpt lat="46.1803783" lon="13.4773067"><ele>188.6</ele><time>2026-05-02T11:59:58.595Z</time></trkpt><trkpt lat="46.1803583" lon="13.4771967"><ele>188.4</ele><time>2026-05-02T11:59:59.593Z</time></trkpt><trkpt lat="46.18034" lon="13.4770783"><ele>188.2</ele><time>2026-05-02T12:00:00.594Z</time></trkpt><trkpt lat="46.1803167" lon="13.47695"><ele>188.0</ele><time>2026-05-02T12:00:01.594Z</time></trkpt><trkpt lat="46.1802933" lon="13.4768233"><ele>188.0</ele><time>2026-05-02T12:00:02.593Z</time></trkpt><trkpt lat="46.1802717" lon="13.476695"><ele>188.0</ele><time>2026-05-02T12:00:03.594Z</time></trkpt><trkpt lat="46.1802567" lon="13.4765717"><ele>188.0</ele><time>2026-05-02T12:00:04.595Z</time></trkpt><trkpt lat="46.1802433" lon="13.4764583"><ele>188.0</ele><time>2026-05-02T12:00:05.594Z</time></trkpt><trkpt lat="46.180235" lon="13.47636"><ele>188.0</ele><time>2026-05-02T12:00:06.594Z</time></trkpt><trkpt lat="46.180215" lon="13.4761867"><ele>188.0</ele><time>2026-05-02T12:00:08.595Z</time></trkpt><trkpt lat="46.1802" lon="13.4760983"><ele>188.33333333333331</ele><time>2026-05-02T12:00:09.594Z</time></trkpt><trkpt lat="46.180185" lon="13.4760067"><ele>188.66666666666666</ele><time>2026-05-02T12:00:10.595Z</time></trkpt><trkpt lat="46.18017" lon="13.4759167"><ele>189.0</ele><time>2026-05-02T12:00:11.594Z</time></trkpt><trkpt lat="46.1801117" lon="13.4757667"><ele>189.33333333333334</ele><time>2026-05-02T12:00:13.593Z</time></trkpt><trkpt lat="46.1800417" lon="13.4756233"><ele>189.66666666666669</ele><time>2026-05-02T12:00:15.593Z</time></trkpt><trkpt lat="46.1800283" lon="13.4755333"><ele>190.0</ele><time>2026-05-02T12:00:16.594Z</time></trkpt><trkpt lat="46.1800383" lon="13.4754183"><ele>191.6</ele><time>2026-05-02T12:00:17.593Z</time></trkpt><trkpt lat="46.1800583" lon="13.47528"><ele>193.2</ele><time>2026-05-02T12:00:18.593Z</time></trkpt><trkpt lat="46.180085" lon="13.475135"><ele>194.8</ele><time>2026-05-02T12:00:19.594Z</time></trkpt><trkpt lat="46.1800983" lon="13.4749917"><ele>196.4</ele><time>2026-05-02T12:00:20.595Z</time></trkpt><trkpt lat="46.1800867" lon="13.4748483"><ele>198.0</ele><time>2026-05-02T12:00:21.594Z</time></trkpt><trkpt lat="46.1800783" lon="13.474695"><ele>199.0</ele><time>2026-05-02T12:00:22.598Z</time></trkpt><trkpt lat="46.18006" lon="13.4745467"><ele>200.0</ele><time>2026-05-02T12:00:23.593Z</time></trkpt><trkpt lat="46.18004" lon="13.47441"><ele>201.0</ele><time>2026-05-02T12:00:24.594Z</time></trkpt><trkpt lat="46.1800217" lon="13.4742767"><ele>202.0</ele><time>2026-05-02T12:00:25.594Z</time></trkpt><trkpt lat="46.1800033" lon="13.474145"><ele>203.0</ele><time>2026-05-02T12:00:26.594Z</time></trkpt><trkpt lat="46.1799983" lon="13.4740167"><ele>203.0</ele><time>2026-05-02T12:00:27.593Z</time></trkpt><trkpt lat="46.1799983" lon="13.473885"><ele>203.0</ele><time>2026-05-02T12:00:28.594Z</time></trkpt><trkpt lat="46.18" lon="13.4737483"><ele>203.0</ele><time>2026-05-02T12:00:29.594Z</time></trkpt><trkpt lat="46.1799917" lon="13.473615"><ele>203.0</ele><time>2026-05-02T12:00:30.593Z</time></trkpt><trkpt lat="46.179975" lon="13.4734867"><ele>203.0</ele><time>2026-05-02T12:00:31.595Z</time></trkpt><trkpt lat="46.1799417" lon="13.4733617"><ele>204.16666666666669</ele><time>2026-05-02T12:00:32.594Z</time></trkpt><trkpt lat="46.1798967" lon="13.473245"><ele>205.33333333333334</ele><time>2026-05-02T12:00:33.594Z</time></trkpt><trkpt lat="46.1798367" lon="13.4731433"><ele>206.5</ele><time>2026-05-02T12:00:34.594Z</time></trkpt><trkpt lat="46.1797717" lon="13.4730633"><ele>207.66666666666669</ele><time>2026-05-02T12:00:35.594Z</time></trkpt><trkpt lat="46.179715" lon="13.4729983"><ele>208.83333333333334</ele><time>2026-05-02T12:00:36.594Z</time></trkpt><trkpt lat="46.17966" lon="13.47287"><ele>210.0</ele><time>2026-05-02T12:00:38.595Z</time></trkpt><trkpt lat="46.179705" lon="13.47277"><ele>210.0</ele><time>2026-05-02T12:00:40.595Z</time></trkpt><trkpt lat="46.1797733" lon="13.472765"><ele>210.0</ele><time>2026-05-02T12:00:41.598Z</time></trkpt><trkpt lat="46.17986" lon="13.472815"><ele>210.0</ele><time>2026-05-02T12:00:42.594Z</time></trkpt><trkpt lat="46.17993" lon="13.47286"><ele>210.0</ele><time>2026-05-02T12:00:43.593Z</time></trkpt><trkpt lat="46.1799883" lon="13.4729367"><ele>210.0</ele><time>2026-05-02T12:00:44.593Z</time></trkpt><trkpt lat="46.1800233" lon="13.473045"><ele>210.0</ele><time>2026-05-02T12:00:45.593Z</time></trkpt><trkpt lat="46.18005" lon="13.4731933"><ele>210.0</ele><time>2026-05-02T12:00:46.593Z</time></trkpt><trkpt lat="46.1801167" lon="13.473305"><ele>210.0</ele><time>2026-05-02T12:00:47.594Z</time></trkpt><trkpt lat="46.1801967" lon="13.4733933"><ele>210.0</ele><time>2026-05-02T12:00:48.594Z</time></trkpt><trkpt lat="46.1802983" lon="13.47343"><ele>210.0</ele><time>2026-05-02T12:00:49.593Z</time></trkpt><trkpt lat="46.180375" lon="13.4735"><ele>210.0</ele><time>2026-05-02T12:00:50.595Z</time></trkpt><trkpt lat="46.180435" lon="13.4735983"><ele>210.0</ele><time>2026-05-02T12:00:51.593Z</time></trkpt><trkpt lat="46.1804483" lon="13.4737483"><ele>210.0</ele><time>2026-05-02T12:00:52.594Z</time></trkpt><trkpt lat="46.1804933" lon="13.4739017"><ele>210.0</ele><time>2026-05-02T12:00:53.593Z</time></trkpt><trkpt lat="46.180515" lon="13.4740783"><ele>210.0</ele><time>2026-05-02T12:00:54.594Z</time></trkpt><trkpt lat="46.1805383" lon="13.4742533"><ele>208.6</ele><time>2026-05-02T12:00:55.593Z</time></trkpt><trkpt lat="46.1805617" lon="13.4744233"><ele>207.2</ele><time>2026-05-02T12:00:56.594Z</time></trkpt><trkpt lat="46.1805783" lon="13.47458"><ele>205.8</ele><time>2026-05-02T12:00:57.594Z</time></trkpt><trkpt lat="46.180595" lon="13.4747217"><ele>204.4</ele><time>2026-05-02T12:00:58.594Z</time></trkpt><trkpt lat="46.1806117" lon="13.4748383"><ele>203.0</ele><time>2026-05-02T12:00:59.593Z</time></trkpt><trkpt lat="46.180625" lon="13.47493"><ele>205.2</ele><time>2026-05-02T12:01:00.595Z</time></trkpt><trkpt lat="46.1807483" lon="13.47493"><ele>207.4</ele><time>2026-05-02T12:01:02.595Z</time></trkpt><trkpt lat="46.18083" lon="13.4748767"><ele>209.59999999999997</ele><time>2026-05-02T12:01:03.593Z</time></trkpt><trkpt lat="46.1809383" lon="13.474835"><ele>211.79999999999998</ele><time>2026-05-02T12:01:04.595Z</time></trkpt><trkpt lat="46.1810483" lon="13.4748133"><ele>214.0</ele><time>2026-05-02T12:01:05.594Z</time></trkpt><trkpt lat="46.18114" lon="13.47478"><ele>213.99999999999997</ele><time>2026-05-02T12:01:06.594Z</time></trkpt><trkpt lat="46.1812167" lon="13.4747617"><ele>214.0</ele><time>2026-05-02T12:01:07.594Z</time></trkpt><trkpt lat="46.18128" lon="13.474745"><ele>214.0</ele><time>2026-05-02T12:01:08.596Z</time></trkpt><trkpt lat="46.18131" lon="13.4746317"><ele>214.0</ele><time>2026-05-02T12:01:10.596Z</time></trkpt><trkpt lat="46.1812167" lon="13.47462"><ele>213.99999999999997</ele><time>2026-05-02T12:01:12.594Z</time></trkpt><trkpt lat="46.18115" lon="13.4746683"><ele>214.0</ele><time>2026-05-02T12:01:13.594Z</time></trkpt><trkpt lat="46.1810817" lon="13.474685"><ele>214.0</ele><time>2026-05-02T12:01:14.595Z</time></trkpt><trkpt lat="46.1810017" lon="13.474675"><ele>213.99999999999997</ele><time>2026-05-02T12:01:15.593Z</time></trkpt><trkpt lat="46.1809167" lon="13.4746417"><ele>213.99999999999997</ele><time>2026-05-02T12:01:16.596Z</time></trkpt><trkpt lat="46.1808533" lon="13.4745367"><ele>214.0</ele><time>2026-05-02T12:01:17.594Z</time></trkpt><trkpt lat="46.18081" lon="13.4744233"><ele>214.0</ele><time>2026-05-02T12:01:18.593Z</time></trkpt><trkpt lat="46.1807883" lon="13.4742733"><ele>219.2</ele><time>2026-05-02T12:01:19.594Z</time></trkpt><trkpt lat="46.1807683" lon="13.4741233"><ele>224.39999999999998</ele><time>2026-05-02T12:01:20.594Z</time></trkpt><trkpt lat="46.1807583" lon="13.4739617"><ele>229.6</ele><time>2026-05-02T12:01:21.593Z</time></trkpt><trkpt lat="46.1807517" lon="13.4738"><ele>234.8</ele><time>2026-05-02T12:01:22.595Z</time></trkpt><trkpt lat="46.1807667" lon="13.4736467"><ele>240.0</ele><time>2026-05-02T12:01:23.595Z</time></trkpt><trkpt lat="46.180815" lon="13.4735083"><ele>240.25</ele><time>2026-05-02T12:01:24.593Z</time></trkpt><trkpt lat="46.1808817" lon="13.4733817"><ele>240.5</ele><time>2026-05-02T12:01:25.593Z</time></trkpt><trkpt lat="46.180935" lon="13.473245"><ele>240.75</ele><time>2026-05-02T12:01:26.595Z</time></trkpt><trkpt lat="46.1809433" lon="13.473085"><ele>241.0</ele><time>2026-05-02T12:01:27.593Z</time></trkpt><trkpt lat="46.18092" lon="13.4729133"><ele>243.25</ele><time>2026-05-02T12:01:28.593Z</time></trkpt><trkpt lat="46.1808933" lon="13.472745"><ele>245.5</ele><time>2026-05-02T12:01:29.597Z</time></trkpt><trkpt lat="46.18086" lon="13.4725667"><ele>247.75</ele><time>2026-05-02T12:01:30.594Z</time></trkpt><trkpt lat="46.1808117" lon="13.4723917"><ele>250.0</ele><time>2026-05-02T12:01:31.594Z</time></trkpt><trkpt lat="46.1807667" lon="13.4722333"><ele>253.0</ele><time>2026-05-02T12:01:32.594Z</time></trkpt><trkpt lat="46.1807617" lon="13.4720983"><ele>256.0</ele><time>2026-05-02T12:01:33.593Z</time></trkpt><trkpt lat="46.1807817" lon="13.4719683"><ele>259.0</ele><time>2026-05-02T12:01:34.594Z</time></trkpt><trkpt lat="46.1808083" lon="13.4718383"><ele>262.0</ele><time>2026-05-02T12:01:35.594Z</time></trkpt><trkpt lat="46.1808433" lon="13.4717417"><ele>265.0</ele><time>2026-05-02T12:01:36.593Z</time></trkpt><trkpt lat="46.1807933" lon="13.4716067"><ele>265.0</ele><time>2026-05-02T12:01:38.595Z</time></trkpt><trkpt lat="46.1807383" lon="13.4715567"><ele>265.0</ele><time>2026-05-02T12:01:39.594Z</time></trkpt><trkpt lat="46.1806733" lon="13.4715"><ele>265.0</ele><time>2026-05-02T12:01:40.594Z</time></trkpt><trkpt lat="46.1806383" lon="13.4714033"><ele>265.0</ele><time>2026-05-02T12:01:41.594Z</time></trkpt><trkpt lat="46.1805817" lon="13.4712933"><ele>265.0</ele><time>2026-05-02T12:01:42.594Z</time></trkpt><trkpt lat="46.180535" lon="13.47116"><ele>265.0</ele><time>2026-05-02T12:01:43.596Z</time></trkpt><trkpt lat="46.1804733" lon="13.4710717"><ele>263.5</ele><time>2026-05-02T12:01:44.595Z</time></trkpt><trkpt lat="46.1804067" lon="13.47101"><ele>262.0</ele><time>2026-05-02T12:01:45.593Z</time></trkpt><trkpt lat="46.1803183" lon="13.470955"><ele>260.5</ele><time>2026-05-02T12:01:46.593Z</time></trkpt><trkpt lat="46.1802633" lon="13.4708783"><ele>259.0</ele><time>2026-05-02T12:01:47.594Z</time></trkpt><trkpt lat="46.1802233" lon="13.4707683"><ele>257.5</ele><time>2026-05-02T12:01:48.596Z</time></trkpt><trkpt lat="46.1802033" lon="13.4706183"><ele>256.0</ele><time>2026-05-02T12:01:49.594Z</time></trkpt><trkpt lat="46.1801833" lon="13.4704517"><ele>260.0</ele><time>2026-05-02T12:01:50.595Z</time></trkpt><trkpt lat="46.180165" lon="13.4702817"><ele>264.0</ele><time>2026-05-02T12:01:51.594Z</time></trkpt><trkpt lat="46.1801533" lon="13.4701217"><ele>268.0</ele><time>2026-05-02T12:01:52.595Z</time></trkpt><trkpt lat="46.18016" lon="13.4699717"><ele>272.0</ele><time>2026-05-02T12:01:53.593Z</time></trkpt><trkpt lat="46.18013" lon="13.4698333"><ele>276.0</ele><time>2026-05-02T12:01:54.593Z</time></trkpt><trkpt lat="46.1800767" lon="13.4696883"><ele>277.0</ele><time>2026-05-02T12:01:55.595Z</time></trkpt><trkpt lat="46.180075" lon="13.469555"><ele>278.0</ele><time>2026-05-02T12:01:56.599Z</time></trkpt><trkpt lat="46.1800683" lon="13.4694367"><ele>279.0</ele><time>2026-05-02T12:01:57.594Z</time></trkpt><trkpt lat="46.1800333" lon="13.4693417"><ele>280.0</ele><time>2026-05-02T12:01:58.593Z</time></trkpt><trkpt lat="46.1799767" lon="13.4692833"><ele>281.0</ele><time>2026-05-02T12:01:59.593Z</time></trkpt><trkpt lat="46.1799067" lon="13.4693083"><ele>282.0</ele><time>2026-05-02T12:02:00.593Z</time></trkpt><trkpt lat="46.1798267" lon="13.46939"><ele>282.0</ele><time>2026-05-02T12:02:01.594Z</time></trkpt><trkpt lat="46.1797433" lon="13.4694533"><ele>282.0</ele><time>2026-05-02T12:02:02.595Z</time></trkpt><trkpt lat="46.1796533" lon="13.46947"><ele>282.0</ele><time>2026-05-02T12:02:03.593Z</time></trkpt><trkpt lat="46.1795733" lon="13.469435"><ele>282.0</ele><time>2026-05-02T12:02:04.594Z</time></trkpt><trkpt lat="46.1795183" lon="13.4693167"><ele>282.0</ele><time>2026-05-02T12:02:05.595Z</time></trkpt><trkpt lat="46.1794583" lon="13.46921"><ele>282.0</ele><time>2026-05-02T12:02:06.594Z</time></trkpt><trkpt lat="46.1794" lon="13.4690533"><ele>282.0</ele><time>2026-05-02T12:02:07.594Z</time></trkpt><trkpt lat="46.1793683" lon="13.46889"><ele>282.0</ele><time>2026-05-02T12:02:08.596Z</time></trkpt><trkpt lat="46.1793433" lon="13.4687417"><ele>282.0</ele><time>2026-05-02T12:02:09.593Z</time></trkpt><trkpt lat="46.1793017" lon="13.468655"><ele>282.0</ele><time>2026-05-02T12:02:10.594Z</time></trkpt><trkpt lat="46.1792367" lon="13.4686067"><ele>283.4</ele><time>2026-05-02T12:02:11.594Z</time></trkpt><trkpt lat="46.1791433" lon="13.4685683"><ele>284.79999999999995</ele><time>2026-05-02T12:02:12.594Z</time></trkpt><trkpt lat="46.1790333" lon="13.4685517"><ele>286.2</ele><time>2026-05-02T12:02:13.593Z</time></trkpt><trkpt lat="46.178925" lon="13.4685033"><ele>287.59999999999997</ele><time>2026-05-02T12:02:14.594Z</time></trkpt><trkpt lat="46.1788233" lon="13.46841"><ele>289.0</ele><time>2026-05-02T12:02:15.593Z</time></trkpt><trkpt lat="46.1787417" lon="13.4683183"><ele>289.0</ele><time>2026-05-02T12:02:16.594Z</time></trkpt><trkpt lat="46.178665" lon="13.4681983"><ele>289.0</ele><time>2026-05-02T12:02:17.595Z</time></trkpt><trkpt lat="46.1785867" lon="13.46808"><ele>289.0</ele><time>2026-05-02T12:02:18.595Z</time></trkpt><trkpt lat="46.1785083" lon="13.467985"><ele>289.0</ele><time>2026-05-02T12:02:19.594Z</time></trkpt><trkpt lat="46.1784583" lon="13.4678833"><ele>289.0</ele><time>2026-05-02T12:02:20.596Z</time></trkpt><trkpt lat="46.1784333" lon="13.46779"><ele>290.4</ele><time>2026-05-02T12:02:21.593Z</time></trkpt><trkpt lat="46.17844" lon="13.4676633"><ele>291.79999999999995</ele><time>2026-05-02T12:02:22.595Z</time></trkpt><trkpt lat="46.1784833" lon="13.4675233"><ele>293.20000000000005</ele><time>2026-05-02T12:02:23.595Z</time></trkpt><trkpt lat="46.1785467" lon="13.467385"><ele>294.6</ele><time>2026-05-02T12:02:24.595Z</time></trkpt><trkpt lat="46.1785833" lon="13.4672567"><ele>296.0</ele><time>2026-05-02T12:02:25.595Z</time></trkpt><trkpt lat="46.17863" lon="13.4671617"><ele>300.0</ele><time>2026-05-02T12:02:26.596Z</time></trkpt><trkpt lat="46.1786333" lon="13.4670667"><ele>304.0</ele><time>2026-05-02T12:02:27.594Z</time></trkpt><trkpt lat="46.1785933" lon="13.4669067"><ele>308.0</ele><time>2026-05-02T12:02:29.594Z</time></trkpt><trkpt lat="46.178515" lon="13.466825"><ele>312.0</ele><time>2026-05-02T12:02:30.594Z</time></trkpt><trkpt lat="46.178395" lon="13.4667633"><ele>316.0</ele><time>2026-05-02T12:02:31.595Z</time></trkpt><trkpt lat="46.1783017" lon="13.46671"><ele>316.0</ele><time>2026-05-02T12:02:32.596Z</time></trkpt><trkpt lat="46.1782117" lon="13.466655"><ele>316.0</ele><time>2026-05-02T12:02:33.594Z</time></trkpt><trkpt lat="46.1781383" lon="13.4665783"><ele>316.0</ele><time>2026-05-02T12:02:34.594Z</time></trkpt><trkpt lat="46.1781117" lon="13.4664883"><ele>316.0</ele><time>2026-05-02T12:02:36.594Z</time></trkpt><trkpt lat="46.1781683" lon="13.4664467"><ele>316.0</ele><time>2026-05-02T12:02:38.595Z</time></trkpt><trkpt lat="46.1782967" lon="13.4665083"><ele>316.0</ele><time>2026-05-02T12:02:40.681Z</time></trkpt><trkpt lat="46.1783967" lon="13.4665633"><ele>316.0</ele><time>2026-05-02T12:02:41.595Z</time></trkpt><trkpt lat="46.1784783" lon="13.4666217"><ele>316.0</ele><time>2026-05-02T12:02:42.593Z</time></trkpt><trkpt lat="46.1785467" lon="13.466665"><ele>316.0</ele><time>2026-05-02T12:02:43.593Z</time></trkpt><trkpt lat="46.17863" lon="13.4666167"><ele>316.0</ele><time>2026-05-02T12:02:45.593Z</time></trkpt><trkpt lat="46.1785633" lon="13.4664683"><ele>316.0</ele><time>2026-05-02T12:02:47.595Z</time></trkpt><trkpt lat="46.1784433" lon="13.4663683"><ele>316.0</ele><time>2026-05-02T12:02:48.594Z</time></trkpt><trkpt lat="46.1783583" lon="13.4662767"><ele>316.0</ele><time>2026-05-02T12:02:49.595Z</time></trkpt><trkpt lat="46.178275" lon="13.466155"><ele>316.0</ele><time>2026-05-02T12:02:50.595Z</time></trkpt><trkpt lat="46.1781783" lon="13.4660667"><ele>319.8</ele><time>2026-05-02T12:02:51.596Z</time></trkpt><trkpt lat="46.1781167" lon="13.465955"><ele>323.6</ele><time>2026-05-02T12:02:52.594Z</time></trkpt><trkpt lat="46.1780883" lon="13.4658183"><ele>327.4</ele><time>2026-05-02T12:02:53.594Z</time></trkpt><trkpt lat="46.1780967" lon="13.4656783"><ele>331.2</ele><time>2026-05-02T12:02:54.593Z</time></trkpt><trkpt lat="46.1780933" lon="13.4655133"><ele>335.0</ele><time>2026-05-02T12:02:55.594Z</time></trkpt><trkpt lat="46.1781283" lon="13.4653433"><ele>337.25</ele><time>2026-05-02T12:02:56.596Z</time></trkpt><trkpt lat="46.1781683" lon="13.4651733"><ele>339.5</ele><time>2026-05-02T12:02:57.594Z</time></trkpt><trkpt lat="46.1781583" lon="13.464975"><ele>341.75</ele><time>2026-05-02T12:02:58.594Z</time></trkpt><trkpt lat="46.1781517" lon="13.4647717"><ele>344.0</ele><time>2026-05-02T12:02:59.595Z</time></trkpt><trkpt lat="46.1781433" lon="13.4645883"><ele>343.0</ele><time>2026-05-02T12:03:00.594Z</time></trkpt><trkpt lat="46.1781417" lon="13.464435"><ele>342.0</ele><time>2026-05-02T12:03:01.596Z</time></trkpt><trkpt lat="46.17815" lon="13.4643167"><ele>341.0</ele><time>2026-05-02T12:03:02.593Z</time></trkpt><trkpt lat="46.17818" lon="13.46423"><ele>340.0</ele><time>2026-05-02T12:03:03.593Z</time></trkpt><trkpt lat="46.17827" lon="13.4642083"><ele>339.0</ele><time>2026-05-02T12:03:05.594Z</time></trkpt><trkpt lat="46.1783417" lon="13.4643617"><ele>339.0</ele><time>2026-05-02T12:03:07.593Z</time></trkpt><trkpt lat="46.1783667" lon="13.4645367"><ele>339.0</ele><time>2026-05-02T12:03:08.594Z</time></trkpt><trkpt lat="46.1784033" lon="13.4647233"><ele>339.0</ele><time>2026-05-02T12:03:09.593Z</time></trkpt><trkpt lat="46.17847" lon="13.4649"><ele>339.0</ele><time>2026-05-02T12:03:10.593Z</time></trkpt><trkpt lat="46.1785667" lon="13.46507"><ele>339.5</ele><time>2026-05-02T12:03:11.593Z</time></trkpt><trkpt lat="46.1786633" lon="13.46522"><ele>340.0</ele><time>2026-05-02T12:03:12.595Z</time></trkpt><trkpt lat="46.178735" lon="13.4653583"><ele>340.5</ele><time>2026-05-02T12:03:13.593Z</time></trkpt><trkpt lat="46.1788567" lon="13.46547"><ele>341.0</ele><time>2026-05-02T12:03:14.595Z</time></trkpt><trkpt lat="46.1789733" lon="13.4655617"><ele>343.6</ele><time>2026-05-02T12:03:15.592Z</time></trkpt><trkpt lat="46.1790917" lon="13.4655917"><ele>346.20000000000005</ele><time>2026-05-02T12:03:16.593Z</time></trkpt><trkpt lat="46.1792" lon="13.4656083"><ele>348.79999999999995</ele><time>2026-05-02T12:03:17.593Z</time></trkpt><trkpt lat="46.17929" lon="13.4656867"><ele>351.4</ele><time>2026-05-02T12:03:18.592Z</time></trkpt><trkpt lat="46.1793333" lon="13.46582"><ele>354.0</ele><time>2026-05-02T12:03:19.596Z</time></trkpt><trkpt lat="46.1794333" lon="13.465965"><ele>354.0</ele><time>2026-05-02T12:03:20.594Z</time></trkpt><trkpt lat="46.1795333" lon="13.466105"><ele>354.0</ele><time>2026-05-02T12:03:21.593Z</time></trkpt><trkpt lat="46.179615" lon="13.4662233"><ele>354.0</ele><time>2026-05-02T12:03:22.593Z</time></trkpt><trkpt lat="46.1796783" lon="13.466315"><ele>354.0</ele><time>2026-05-02T12:03:23.594Z</time></trkpt><trkpt lat="46.1797283" lon="13.4663783"><ele>354.0</ele><time>2026-05-02T12:03:24.593Z</time></trkpt><trkpt lat="46.1797717" lon="13.46626"><ele>354.0</ele><time>2026-05-02T12:03:26.595Z</time></trkpt><trkpt lat="46.1797283" lon="13.466155"><ele>354.0</ele><time>2026-05-02T12:03:27.593Z</time></trkpt><trkpt lat="46.1796483" lon="13.4660267"><ele>354.0</ele><time>2026-05-02T12:03:28.594Z</time></trkpt><trkpt lat="46.179575" lon="13.4658733"><ele>354.0</ele><time>2026-05-02T12:03:29.595Z</time></trkpt><trkpt lat="46.1795383" lon="13.4656767"><ele>354.0</ele><time>2026-05-02T12:03:30.594Z</time></trkpt><trkpt lat="46.179515" lon="13.4654483"><ele>354.0</ele><time>2026-05-02T12:03:31.593Z</time></trkpt><trkpt lat="46.1794933" lon="13.46521"><ele>354.0</ele><time>2026-05-02T12:03:32.595Z</time></trkpt><trkpt lat="46.179465" lon="13.464975"><ele>357.75</ele><time>2026-05-02T12:03:33.592Z</time></trkpt><trkpt lat="46.1794367" lon="13.46476"><ele>361.5</ele><time>2026-05-02T12:03:34.594Z</time></trkpt><trkpt lat="46.1793933" lon="13.464585"><ele>365.25</ele><time>2026-05-02T12:03:35.593Z</time></trkpt><trkpt lat="46.179335" lon="13.4644283"><ele>369.0</ele><time>2026-05-02T12:03:36.595Z</time></trkpt><trkpt lat="46.179255" lon="13.46428"><ele>371.0</ele><time>2026-05-02T12:03:37.593Z</time></trkpt><trkpt lat="46.17923" lon="13.4641183"><ele>373.0</ele><time>2026-05-02T12:03:38.594Z</time></trkpt><trkpt lat="46.1792167" lon="13.4639717"><ele>375.0</ele><time>2026-05-02T12:03:39.593Z</time></trkpt><trkpt lat="46.1792233" lon="13.46381"><ele>377.0</ele><time>2026-05-02T12:03:40.594Z</time></trkpt><trkpt lat="46.1791967" lon="13.4636567"><ele>379.0</ele><time>2026-05-02T12:03:41.593Z</time></trkpt><trkpt lat="46.1792283" lon="13.4634667"><ele>380.25</ele><time>2026-05-02T12:03:42.593Z</time></trkpt><trkpt lat="46.179235" lon="13.46327"><ele>381.5</ele><time>2026-05-02T12:03:43.595Z</time></trkpt><trkpt lat="46.1792217" lon="13.4630617"><ele>382.75</ele><time>2026-05-02T12:03:44.594Z</time></trkpt><trkpt lat="46.17919" lon="13.4628633"><ele>384.0</ele><time>2026-05-02T12:03:45.592Z</time></trkpt><trkpt lat="46.1791617" lon="13.4626817"><ele>386.25</ele><time>2026-05-02T12:03:46.593Z</time></trkpt><trkpt lat="46.17914" lon="13.46252"><ele>388.5</ele><time>2026-05-02T12:03:47.593Z</time></trkpt><trkpt lat="46.17913" lon="13.4623733"><ele>390.75</ele><time>2026-05-02T12:03:48.594Z</time></trkpt><trkpt lat="46.1791417" lon="13.4622133"><ele>393.0</ele><time>2026-05-02T12:03:49.595Z</time></trkpt><trkpt lat="46.179175" lon="13.4620333"><ele>394.0</ele><time>2026-05-02T12:03:50.594Z</time></trkpt><trkpt lat="46.1791967" lon="13.4618533"><ele>395.0</ele><time>2026-05-02T12:03:51.594Z</time></trkpt><trkpt lat="46.1792017" lon="13.46169"><ele>396.0</ele><time>2026-05-02T12:03:52.594Z</time></trkpt><trkpt lat="46.179185" lon="13.461525"><ele>397.0</ele><time>2026-05-02T12:03:53.595Z</time></trkpt><trkpt lat="46.1791483" lon="13.4613533"><ele>395.75</ele><time>2026-05-02T12:03:54.593Z</time></trkpt><trkpt lat="46.179095" lon="13.46118"><ele>394.5</ele><time>2026-05-02T12:03:55.593Z</time></trkpt><trkpt lat="46.1790467" lon="13.4610017"><ele>393.25</ele><time>2026-05-02T12:03:56.595Z</time></trkpt><trkpt lat="46.1790117" lon="13.4608317"><ele>392.0</ele><time>2026-05-02T12:03:57.593Z</time></trkpt><trkpt lat="46.178975" lon="13.4606733"><ele>392.0</ele><time>2026-05-02T12:03:58.593Z</time></trkpt><trkpt lat="46.1789183" lon="13.4605417"><ele>392.0</ele><time>2026-05-02T12:03:59.594Z</time></trkpt><trkpt lat="46.1788383" lon="13.4604167"><ele>392.0</ele><time>2026-05-02T12:04:00.593Z</time></trkpt><trkpt lat="46.1787583" lon="13.4602783"><ele>392.0</ele><time>2026-05-02T12:04:01.593Z</time></trkpt><trkpt lat="46.178685" lon="13.4601267"><ele>394.5</ele><time>2026-05-02T12:04:02.595Z</time></trkpt><trkpt lat="46.17861" lon="13.4599767"><ele>397.0</ele><time>2026-05-02T12:04:03.593Z</time></trkpt><trkpt lat="46.17853" lon="13.45981"><ele>399.5</ele><time>2026-05-02T12:04:04.594Z</time></trkpt><trkpt lat="46.17847" lon="13.4596317"><ele>402.0</ele><time>2026-05-02T12:04:05.594Z</time></trkpt><trkpt lat="46.178435" lon="13.4594617"><ele>404.8</ele><time>2026-05-02T12:04:06.594Z</time></trkpt><trkpt lat="46.17842" lon="13.4593"><ele>407.6</ele><time>2026-05-02T12:04:07.594Z</time></trkpt><trkpt lat="46.1784" lon="13.4591667"><ele>410.40000000000003</ele><time>2026-05-02T12:04:08.594Z</time></trkpt><trkpt lat="46.1784133" lon="13.459075"><ele>413.20000000000005</ele><time>2026-05-02T12:04:09.594Z</time></trkpt><trkpt lat="46.1785117" lon="13.459025"><ele>416.0</ele><time>2026-05-02T12:04:11.593Z</time></trkpt><trkpt lat="46.178575" lon="13.4591267"><ele>416.0</ele><time>2026-05-02T12:04:13.594Z</time></trkpt><trkpt lat="46.1786133" lon="13.4593433"><ele>416.0</ele><time>2026-05-02T12:04:14.595Z</time></trkpt><trkpt lat="46.1786817" lon="13.4594967"><ele>416.0</ele><time>2026-05-02T12:04:15.593Z</time></trkpt><trkpt lat="46.178765" lon="13.45962"><ele>416.0</ele><time>2026-05-02T12:04:16.594Z</time></trkpt><trkpt lat="46.1788783" lon="13.459735"><ele>418.75</ele><time>2026-05-02T12:04:17.595Z</time></trkpt><trkpt lat="46.1790033" lon="13.459795"><ele>421.5</ele><time>2026-05-02T12:04:18.593Z</time></trkpt><trkpt lat="46.179125" lon="13.4598717"><ele>424.25</ele><time>2026-05-02T12:04:19.594Z</time></trkpt><trkpt lat="46.179225" lon="13.4599517"><ele>427.0</ele><time>2026-05-02T12:04:20.594Z</time></trkpt><trkpt lat="46.179305" lon="13.4600117"><ele>427.0</ele><time>2026-05-02T12:04:21.593Z</time></trkpt><trkpt lat="46.1793767" lon="13.4600417"><ele>427.00000000000006</ele><time>2026-05-02T12:04:22.594Z</time></trkpt><trkpt lat="46.17945" lon="13.4599867"><ele>427.00000000000006</ele><time>2026-05-02T12:04:24.593Z</time></trkpt><trkpt lat="46.1794283" lon="13.459815"><ele>427.0</ele><time>2026-05-02T12:04:26.595Z</time></trkpt><trkpt lat="46.17935" lon="13.4596467"><ele>427.0</ele><time>2026-05-02T12:04:27.593Z</time></trkpt><trkpt lat="46.1792633" lon="13.4594333"><ele>430.75</ele><time>2026-05-02T12:04:28.596Z</time></trkpt><trkpt lat="46.1792033" lon="13.459225"><ele>434.5</ele><time>2026-05-02T12:04:29.593Z</time></trkpt><trkpt lat="46.1791317" lon="13.4590317"><ele>438.25</ele><time>2026-05-02T12:04:30.593Z</time></trkpt><trkpt lat="46.1790867" lon="13.4588467"><ele>442.0</ele><time>2026-05-02T12:04:31.594Z</time></trkpt><trkpt lat="46.1790567" lon="13.4586833"><ele>440.8</ele><time>2026-05-02T12:04:32.594Z</time></trkpt><trkpt lat="46.1789833" lon="13.4585617"><ele>439.6</ele><time>2026-05-02T12:04:33.592Z</time></trkpt><trkpt lat="46.17888" lon="13.4584833"><ele>438.40000000000003</ele><time>2026-05-02T12:04:34.595Z</time></trkpt><trkpt lat="46.17877" lon="13.4584317"><ele>437.20000000000005</ele><time>2026-05-02T12:04:35.593Z</time></trkpt><trkpt lat="46.178675" lon="13.45837"><ele>436.0</ele><time>2026-05-02T12:04:36.593Z</time></trkpt><trkpt lat="46.1785983" lon="13.4583033"><ele>436.0</ele><time>2026-05-02T12:04:37.594Z</time></trkpt><trkpt lat="46.1785567" lon="13.4582283"><ele>436.0</ele><time>2026-05-02T12:04:38.594Z</time></trkpt><trkpt lat="46.17864" lon="13.4581933"><ele>436.0</ele><time>2026-05-02T12:04:41.595Z</time></trkpt><trkpt lat="46.1787033" lon="13.4582267"><ele>436.0</ele><time>2026-05-02T12:04:42.593Z</time></trkpt><trkpt lat="46.17883" lon="13.4583017"><ele>436.0</ele><time>2026-05-02T12:04:43.593Z</time></trkpt><trkpt lat="46.1789617" lon="13.4583983"><ele>437.5</ele><time>2026-05-02T12:04:44.594Z</time></trkpt><trkpt lat="46.1790867" lon="13.4584767"><ele>439.0</ele><time>2026-05-02T12:04:45.595Z</time></trkpt><trkpt lat="46.1792" lon="13.45859"><ele>440.5</ele><time>2026-05-02T12:04:46.593Z</time></trkpt><trkpt lat="46.1792983" lon="13.4587433"><ele>442.0</ele><time>2026-05-02T12:04:47.593Z</time></trkpt><trkpt lat="46.1794033" lon="13.4588833"><ele>442.0</ele><time>2026-05-02T12:04:48.594Z</time></trkpt><trkpt lat="46.1795233" lon="13.458995"><ele>442.0</ele><time>2026-05-02T12:04:49.595Z</time></trkpt><trkpt lat="46.1796433" lon="13.4591217"><ele>442.0</ele><time>2026-05-02T12:04:50.594Z</time></trkpt><trkpt lat="46.1797517" lon="13.4592583"><ele>442.0</ele><time>2026-05-02T12:04:51.593Z</time></trkpt><trkpt lat="46.1798383" lon="13.459415"><ele>445.0</ele><time>2026-05-02T12:04:52.597Z</time></trkpt><trkpt lat="46.1798967" lon="13.459565"><ele>448.00000000000006</ele><time>2026-05-02T12:04:53.595Z</time></trkpt><trkpt lat="46.1799267" lon="13.4597033"><ele>451.00000000000006</ele><time>2026-05-02T12:04:54.593Z</time></trkpt><trkpt lat="46.1799867" lon="13.4598183"><ele>454.0</ele><time>2026-05-02T12:04:55.594Z</time></trkpt><trkpt lat="46.1800667" lon="13.4599133"><ele>457.0</ele><time>2026-05-02T12:04:56.593Z</time></trkpt><trkpt lat="46.1801583" lon="13.4599967"><ele>457.0</ele><time>2026-05-02T12:04:57.594Z</time></trkpt><trkpt lat="46.1802567" lon="13.4600767"><ele>457.0</ele><time>2026-05-02T12:04:58.595Z</time></trkpt><trkpt lat="46.1803717" lon="13.46012"><ele>457.0</ele><time>2026-05-02T12:04:59.594Z</time></trkpt><trkpt lat="46.18047" lon="13.4601983"><ele>457.0</ele><time>2026-05-02T12:05:00.593Z</time></trkpt><trkpt lat="46.18055" lon="13.460305"><ele>457.0</ele><time>2026-05-02T12:05:01.593Z</time></trkpt><trkpt lat="46.1806117" lon="13.460445"><ele>457.0</ele><time>2026-05-02T12:05:02.593Z</time></trkpt><trkpt lat="46.1806833" lon="13.4606"><ele>457.0</ele><time>2026-05-02T12:05:03.594Z</time></trkpt><trkpt lat="46.18075" lon="13.4607533"><ele>457.0</ele><time>2026-05-02T12:05:04.593Z</time></trkpt><trkpt lat="46.1808183" lon="13.4608967"><ele>459.8</ele><time>2026-05-02T12:05:05.593Z</time></trkpt><trkpt lat="46.1808783" lon="13.4610117"><ele>462.6</ele><time>2026-05-02T12:05:06.594Z</time></trkpt><trkpt lat="46.1809633" lon="13.4610983"><ele>465.40000000000003</ele><time>2026-05-02T12:05:07.593Z</time></trkpt><trkpt lat="46.181055" lon="13.46117"><ele>468.20000000000005</ele><time>2026-05-02T12:05:08.595Z</time></trkpt><trkpt lat="46.1811083" lon="13.461245"><ele>471.0</ele><time>2026-05-02T12:05:09.593Z</time></trkpt><trkpt lat="46.18118" lon="13.46128"><ele>471.0</ele><time>2026-05-02T12:05:10.594Z</time></trkpt><trkpt lat="46.181265" lon="13.4612383"><ele>471.0</ele><time>2026-05-02T12:05:11.601Z</time></trkpt><trkpt lat="46.1813717" lon="13.461145"><ele>471.0</ele><time>2026-05-02T12:05:12.593Z</time></trkpt><trkpt lat="46.1814633" lon="13.4611033"><ele>471.0</ele><time>2026-05-02T12:05:13.593Z</time></trkpt><trkpt lat="46.1815583" lon="13.4610917"><ele>471.0</ele><time>2026-05-02T12:05:14.594Z</time></trkpt><trkpt lat="46.181665" lon="13.4610883"><ele>471.0</ele><time>2026-05-02T12:05:15.593Z</time></trkpt><trkpt lat="46.1817683" lon="13.4611117"><ele>471.0</ele><time>2026-05-02T12:05:16.595Z</time></trkpt><trkpt lat="46.18187" lon="13.4611517"><ele>471.0</ele><time>2026-05-02T12:05:17.593Z</time></trkpt><trkpt lat="46.1819667" lon="13.46121"><ele>471.0</ele><time>2026-05-02T12:05:18.594Z</time></trkpt><trkpt lat="46.18205" lon="13.4612967"><ele>471.0</ele><time>2026-05-02T12:05:19.593Z</time></trkpt><trkpt lat="46.18212" lon="13.4614067"><ele>471.0</ele><time>2026-05-02T12:05:20.593Z</time></trkpt><trkpt lat="46.1821733" lon="13.4615333"><ele>471.0</ele><time>2026-05-02T12:05:21.593Z</time></trkpt><trkpt lat="46.1822133" lon="13.4616717"><ele>471.0</ele><time>2026-05-02T12:05:22.594Z</time></trkpt><trkpt lat="46.18227" lon="13.4617917"><ele>471.0</ele><time>2026-05-02T12:05:23.593Z</time></trkpt><trkpt lat="46.182295" lon="13.461925"><ele>471.0</ele><time>2026-05-02T12:05:24.595Z</time></trkpt><trkpt lat="46.1823317" lon="13.46207"><ele>469.1666666666667</ele><time>2026-05-02T12:05:25.593Z</time></trkpt><trkpt lat="46.1823433" lon="13.4622167"><ele>467.33333333333337</ele><time>2026-05-02T12:05:26.595Z</time></trkpt><trkpt lat="46.182345" lon="13.4623533"><ele>465.5</ele><time>2026-05-02T12:05:27.593Z</time></trkpt><trkpt lat="46.1823267" lon="13.46247"><ele>463.6666666666667</ele><time>2026-05-02T12:05:28.595Z</time></trkpt><trkpt lat="46.1822983" lon="13.4625733"><ele>461.83333333333337</ele><time>2026-05-02T12:05:29.593Z</time></trkpt><trkpt lat="46.1822917" lon="13.4626783"><ele>460.0</ele><time>2026-05-02T12:05:30.595Z</time></trkpt><trkpt lat="46.1823117" lon="13.4627867"><ele>465.33333333333337</ele><time>2026-05-02T12:05:31.594Z</time></trkpt><trkpt lat="46.1823717" lon="13.4628717"><ele>470.6666666666667</ele><time>2026-05-02T12:05:32.594Z</time></trkpt><trkpt lat="46.18243" lon="13.4629133"><ele>476.0</ele><time>2026-05-02T12:05:33.593Z</time></trkpt><trkpt lat="46.1824783" lon="13.46279"><ele>481.33333333333337</ele><time>2026-05-02T12:05:36.593Z</time></trkpt><trkpt lat="46.1824383" lon="13.462665"><ele>486.6666666666667</ele><time>2026-05-02T12:05:37.594Z</time></trkpt><trkpt lat="46.1824033" lon="13.4625383"><ele>492.0</ele><time>2026-05-02T12:05:38.594Z</time></trkpt><trkpt lat="46.182405" lon="13.46242"><ele>492.0</ele><time>2026-05-02T12:05:39.594Z</time></trkpt><trkpt lat="46.18239" lon="13.4622483"><ele>492.0</ele><time>2026-05-02T12:05:40.595Z</time></trkpt><trkpt lat="46.18238" lon="13.46207"><ele>492.0</ele><time>2026-05-02T12:05:41.594Z</time></trkpt><trkpt lat="46.1824" lon="13.4618983"><ele>492.0</ele><time>2026-05-02T12:05:42.594Z</time></trkpt><trkpt lat="46.1824183" lon="13.4617417"><ele>491.8333333333333</ele><time>2026-05-02T12:05:43.593Z</time></trkpt><trkpt lat="46.1824533" lon="13.4616233"><ele>491.66666666666663</ele><time>2026-05-02T12:05:44.595Z</time></trkpt><trkpt lat="46.182465" lon="13.4615117"><ele>491.5</ele><time>2026-05-02T12:05:45.593Z</time></trkpt><trkpt lat="46.182455" lon="13.461405"><ele>491.3333333333333</ele><time>2026-05-02T12:05:46.593Z</time></trkpt><trkpt lat="46.18241" lon="13.4612967"><ele>491.16666666666663</ele><time>2026-05-02T12:05:47.595Z</time></trkpt><trkpt lat="46.1823333" lon="13.4611767"><ele>491.0</ele><time>2026-05-02T12:05:48.593Z</time></trkpt><trkpt lat="46.1822767" lon="13.4610517"><ele>491.0</ele><time>2026-05-02T12:05:49.593Z</time></trkpt><trkpt lat="46.1822333" lon="13.4609167"><ele>491.0</ele><time>2026-05-02T12:05:50.593Z</time></trkpt><trkpt lat="46.1821633" lon="13.4608"><ele>491.0</ele><time>2026-05-02T12:05:51.594Z</time></trkpt><trkpt lat="46.18208" lon="13.4606933"><ele>491.0</ele><time>2026-05-02T12:05:52.593Z</time></trkpt><trkpt lat="46.181985" lon="13.4605933"><ele>491.0</ele><time>2026-05-02T12:05:53.594Z</time></trkpt><trkpt lat="46.18188" lon="13.4604983"><ele>489.25</ele><time>2026-05-02T12:05:54.595Z</time></trkpt><trkpt lat="46.181785" lon="13.460415"><ele>487.5</ele><time>2026-05-02T12:05:55.593Z</time></trkpt><trkpt lat="46.18168" lon="13.460355"><ele>485.75</ele><time>2026-05-02T12:05:56.595Z</time></trkpt><trkpt lat="46.1815683" lon="13.4602983"><ele>484.0</ele><time>2026-05-02T12:05:57.594Z</time></trkpt><trkpt lat="46.18148" lon="13.4601933"><ele>484.0</ele><time>2026-05-02T12:05:58.594Z</time></trkpt><trkpt lat="46.1814183" lon="13.460075"><ele>484.0</ele><time>2026-05-02T12:05:59.593Z</time></trkpt><trkpt lat="46.1813783" lon="13.459925"><ele>484.0</ele><time>2026-05-02T12:06:00.593Z</time></trkpt><trkpt lat="46.1813583" lon="13.4597683"><ele>484.0</ele><time>2026-05-02T12:06:01.594Z</time></trkpt><trkpt lat="46.18135" lon="13.4596"><ele>484.0</ele><time>2026-05-02T12:06:02.596Z</time></trkpt><trkpt lat="46.1812983" lon="13.45945"><ele>487.0</ele><time>2026-05-02T12:06:03.593Z</time></trkpt><trkpt lat="46.1812183" lon="13.4593117"><ele>490.0</ele><time>2026-05-02T12:06:04.594Z</time></trkpt><trkpt lat="46.1811433" lon="13.459165"><ele>493.0</ele><time>2026-05-02T12:06:05.594Z</time></trkpt><trkpt lat="46.1810717" lon="13.4590217"><ele>496.0</ele><time>2026-05-02T12:06:06.594Z</time></trkpt><trkpt lat="46.18102" lon="13.4588833"><ele>498.75</ele><time>2026-05-02T12:06:07.597Z</time></trkpt><trkpt lat="46.1809917" lon="13.4587217"><ele>501.5</ele><time>2026-05-02T12:06:08.595Z</time></trkpt><trkpt lat="46.1809717" lon="13.4585483"><ele>504.25</ele><time>2026-05-02T12:06:09.593Z</time></trkpt><trkpt lat="46.1809433" lon="13.4583733"><ele>507.0</ele><time>2026-05-02T12:06:10.594Z</time></trkpt><trkpt lat="46.1809067" lon="13.4582033"><ele>507.0</ele><time>2026-05-02T12:06:11.594Z</time></trkpt><trkpt lat="46.1808617" lon="13.458045"><ele>507.0</ele><time>2026-05-02T12:06:12.594Z</time></trkpt><trkpt lat="46.180795" lon="13.4579"><ele>507.0</ele><time>2026-05-02T12:06:13.595Z</time></trkpt><trkpt lat="46.180705" lon="13.4577817"><ele>507.0</ele><time>2026-05-02T12:06:14.596Z</time></trkpt><trkpt lat="46.18061" lon="13.4576633"><ele>506.5</ele><time>2026-05-02T12:06:15.594Z</time></trkpt><trkpt lat="46.18054" lon="13.457525"><ele>506.0</ele><time>2026-05-02T12:06:16.594Z</time></trkpt><trkpt lat="46.1804767" lon="13.457365"><ele>505.5</ele><time>2026-05-02T12:06:17.594Z</time></trkpt><trkpt lat="46.1804117" lon="13.4572133"><ele>505.0</ele><time>2026-05-02T12:06:18.593Z</time></trkpt><trkpt lat="46.1803533" lon="13.45705"><ele>509.75</ele><time>2026-05-02T12:06:19.593Z</time></trkpt><trkpt lat="46.18028" lon="13.456895"><ele>514.5</ele><time>2026-05-02T12:06:20.595Z</time></trkpt><trkpt lat="46.1801967" lon="13.4567517"><ele>519.25</ele><time>2026-05-02T12:06:21.593Z</time></trkpt><trkpt lat="46.180125" lon="13.4566117"><ele>524.0</ele><time>2026-05-02T12:06:22.594Z</time></trkpt><trkpt lat="46.180065" lon="13.4564683"><ele>524.0</ele><time>2026-05-02T12:06:23.594Z</time></trkpt><trkpt lat="46.18002" lon="13.456315"><ele>524.0</ele><time>2026-05-02T12:06:24.596Z</time></trkpt><trkpt lat="46.1800017" lon="13.4561333"><ele>524.0</ele><time>2026-05-02T12:06:25.593Z</time></trkpt><trkpt lat="46.1799683" lon="13.455965"><ele>524.0</ele><time>2026-05-02T12:06:26.595Z</time></trkpt><trkpt lat="46.1799467" lon="13.45582"><ele>526.5</ele><time>2026-05-02T12:06:27.593Z</time></trkpt><trkpt lat="46.1799467" lon="13.4557017"><ele>529.0</ele><time>2026-05-02T12:06:28.595Z</time></trkpt><trkpt lat="46.1799683" lon="13.4556033"><ele>531.5</ele><time>2026-05-02T12:06:29.594Z</time></trkpt><trkpt lat="46.1799983" lon="13.4555017"><ele>534.0</ele><time>2026-05-02T12:06:30.593Z</time></trkpt><trkpt lat="46.1800183" lon="13.4553917"><ele>536.5</ele><time>2026-05-02T12:06:31.594Z</time></trkpt><trkpt lat="46.180015" lon="13.4552817"><ele>539.0</ele><time>2026-05-02T12:06:32.595Z</time></trkpt><trkpt lat="46.17998" lon="13.4551883"><ele>540.3333333333333</ele><time>2026-05-02T12:06:33.593Z</time></trkpt><trkpt lat="46.179915" lon="13.45512"><ele>541.6666666666666</ele><time>2026-05-02T12:06:34.593Z</time></trkpt><trkpt lat="46.179815" lon="13.4551017"><ele>543.0</ele><time>2026-05-02T12:06:35.593Z</time></trkpt><trkpt lat="46.1797217" lon="13.4551033"><ele>544.3333333333334</ele><time>2026-05-02T12:06:36.595Z</time></trkpt><trkpt lat="46.1796433" lon="13.4551017"><ele>545.6666666666667</ele><time>2026-05-02T12:06:37.595Z</time></trkpt><trkpt lat="46.1795767" lon="13.4550817"><ele>547.0</ele><time>2026-05-02T12:06:38.594Z</time></trkpt><trkpt lat="46.1794933" lon="13.4549617"><ele>543.4</ele><time>2026-05-02T12:06:40.594Z</time></trkpt><trkpt lat="46.1794683" lon="13.454855"><ele>539.8000000000001</ele><time>2026-05-02T12:06:41.596Z</time></trkpt><trkpt lat="46.1794583" lon="13.454715"><ele>536.2</ele><time>2026-05-02T12:06:42.594Z</time></trkpt><trkpt lat="46.1794533" lon="13.4545567"><ele>532.6</ele><time>2026-05-02T12:06:43.595Z</time></trkpt><trkpt lat="46.1794567" lon="13.45441"><ele>529.0</ele><time>2026-05-02T12:06:44.596Z</time></trkpt><trkpt lat="46.17946" lon="13.45428"><ele>529.0</ele><time>2026-05-02T12:06:45.593Z</time></trkpt><trkpt lat="46.179455" lon="13.4541467"><ele>529.0</ele><time>2026-05-02T12:06:46.595Z</time></trkpt><trkpt lat="46.179455" lon="13.4540033"><ele>529.0</ele><time>2026-05-02T12:06:47.595Z</time></trkpt><trkpt lat="46.1794567" lon="13.453855"><ele>529.0</ele><time>2026-05-02T12:06:48.593Z</time></trkpt><trkpt lat="46.1794367" lon="13.4537083"><ele>529.0</ele><time>2026-05-02T12:06:49.593Z</time></trkpt><trkpt lat="46.1793783" lon="13.4535733"><ele>532.75</ele><time>2026-05-02T12:06:50.594Z</time></trkpt><trkpt lat="46.179295" lon="13.453445"><ele>536.5</ele><time>2026-05-02T12:06:51.594Z</time></trkpt><trkpt lat="46.1792267" lon="13.45331"><ele>540.25</ele><time>2026-05-02T12:06:52.596Z</time></trkpt><trkpt lat="46.1791633" lon="13.4531717"><ele>544.0</ele><time>2026-05-02T12:06:53.595Z</time></trkpt><trkpt lat="46.17912" lon="13.4530133"><ele>547.75</ele><time>2026-05-02T12:06:54.594Z</time></trkpt><trkpt lat="46.179095" lon="13.4528433"><ele>551.5</ele><time>2026-05-02T12:06:55.594Z</time></trkpt><trkpt lat="46.1790933" lon="13.45266"><ele>555.25</ele><time>2026-05-02T12:06:56.596Z</time></trkpt><trkpt lat="46.17909" lon="13.4524833"><ele>559.0</ele><time>2026-05-02T12:06:57.595Z</time></trkpt><trkpt lat="46.17906" lon="13.45233"><ele>560.6</ele><time>2026-05-02T12:06:58.594Z</time></trkpt><trkpt lat="46.1790033" lon="13.4522083"><ele>562.2</ele><time>2026-05-02T12:06:59.593Z</time></trkpt><trkpt lat="46.1789517" lon="13.452105"><ele>563.8000000000001</ele><time>2026-05-02T12:07:00.593Z</time></trkpt><trkpt lat="46.1789133" lon="13.452015"><ele>565.4</ele><time>2026-05-02T12:07:01.594Z</time></trkpt><trkpt lat="46.1789567" lon="13.451905"><ele>567.0</ele><time>2026-05-02T12:07:03.595Z</time></trkpt><trkpt lat="46.17904" lon="13.4519883"><ele>567.0</ele><time>2026-05-02T12:07:05.593Z</time></trkpt><trkpt lat="46.1790833" lon="13.4520633"><ele>567.0</ele><time>2026-05-02T12:07:06.593Z</time></trkpt><trkpt lat="46.1791417" lon="13.4522017"><ele>567.0</ele><time>2026-05-02T12:07:07.594Z</time></trkpt><trkpt lat="46.179205" lon="13.4523717"><ele>567.0</ele><time>2026-05-02T12:07:08.594Z</time></trkpt><trkpt lat="46.1792817" lon="13.452545"><ele>564.3333333333334</ele><time>2026-05-02T12:07:09.593Z</time></trkpt><trkpt lat="46.1793667" lon="13.4527317"><ele>561.6666666666667</ele><time>2026-05-02T12:07:10.595Z</time></trkpt><trkpt lat="46.1794483" lon="13.452925"><ele>559.0</ele><time>2026-05-02T12:07:11.595Z</time></trkpt><trkpt lat="46.1795383" lon="13.4531067"><ele>555.25</ele><time>2026-05-02T12:07:12.594Z</time></trkpt><trkpt lat="46.1796333" lon="13.453275"><ele>551.5</ele><time>2026-05-02T12:07:13.593Z</time></trkpt><trkpt lat="46.1797317" lon="13.453425"><ele>547.75</ele><time>2026-05-02T12:07:14.594Z</time></trkpt><trkpt lat="46.1798233" lon="13.4535567"><ele>544.0</ele><time>2026-05-02T12:07:15.594Z</time></trkpt><trkpt lat="46.1799033" lon="13.4536767"><ele>546.2</ele><time>2026-05-02T12:07:16.594Z</time></trkpt><trkpt lat="46.1799617" lon="13.4538017"><ele>548.4</ele><time>2026-05-02T12:07:17.595Z</time></trkpt><trkpt lat="46.1799917" lon="13.4539317"><ele>550.6</ele><time>2026-05-02T12:07:18.594Z</time></trkpt><trkpt lat="46.1800117" lon="13.45404"><ele>552.8</ele><time>2026-05-02T12:07:19.594Z</time></trkpt><trkpt lat="46.1800583" lon="13.4541833"><ele>555.0</ele><time>2026-05-02T12:07:21.593Z</time></trkpt><trkpt lat="46.1801267" lon="13.4540683"><ele>555.0</ele><time>2026-05-02T12:07:23.594Z</time></trkpt><trkpt lat="46.18011" lon="13.4539733"><ele>555.0</ele><time>2026-05-02T12:07:24.594Z</time></trkpt><trkpt lat="46.180065" lon="13.45386"><ele>555.0</ele><time>2026-05-02T12:07:25.593Z</time></trkpt><trkpt lat="46.18002" lon="13.4537333"><ele>555.0</ele><time>2026-05-02T12:07:26.595Z</time></trkpt><trkpt lat="46.1799683" lon="13.4535833"><ele>555.0</ele><time>2026-05-02T12:07:27.594Z</time></trkpt><trkpt lat="46.179925" lon="13.45342"><ele>556.0</ele><time>2026-05-02T12:07:28.594Z</time></trkpt><trkpt lat="46.1798783" lon="13.4532483"><ele>557.0</ele><time>2026-05-02T12:07:29.594Z</time></trkpt><trkpt lat="46.17983" lon="13.45306"><ele>558.0</ele><time>2026-05-02T12:07:30.594Z</time></trkpt><trkpt lat="46.179775" lon="13.4528883"><ele>559.0</ele><time>2026-05-02T12:07:31.594Z</time></trkpt><trkpt lat="46.17973" lon="13.4527167"><ele>559.0</ele><time>2026-05-02T12:07:32.594Z</time></trkpt><trkpt lat="46.1796983" lon="13.452555"><ele>559.0</ele><time>2026-05-02T12:07:33.594Z</time></trkpt><trkpt lat="46.179675" lon="13.4524"><ele>559.0</ele><time>2026-05-02T12:07:34.594Z</time></trkpt><trkpt lat="46.1796717" lon="13.4522383"><ele>559.0</ele><time>2026-05-02T12:07:35.595Z</time></trkpt><trkpt lat="46.1796833" lon="13.452065"><ele>560.6</ele><time>2026-05-02T12:07:36.594Z</time></trkpt><trkpt lat="46.17971" lon="13.4519067"><ele>562.2</ele><time>2026-05-02T12:07:37.595Z</time></trkpt><trkpt lat="46.179745" lon="13.4517733"><ele>563.8000000000001</ele><time>2026-05-02T12:07:38.594Z</time></trkpt><trkpt lat="46.1797533" lon="13.4516617"><ele>565.4</ele><time>2026-05-02T12:07:39.594Z</time></trkpt><trkpt lat="46.179765" lon="13.4515167"><ele>567.0</ele><time>2026-05-02T12:07:41.595Z</time></trkpt><trkpt lat="46.179775" lon="13.45142"><ele>567.0</ele><time>2026-05-02T12:07:43.595Z</time></trkpt><trkpt lat="46.1797817" lon="13.45131"><ele>567.0</ele><time>2026-05-02T12:07:45.595Z</time></trkpt><trkpt lat="46.179775" lon="13.45121"><ele>567.0</ele><time>2026-05-02T12:07:47.594Z</time></trkpt><trkpt lat="46.1797367" lon="13.451075"><ele>567.0</ele><time>2026-05-02T12:07:50.595Z</time></trkpt><trkpt lat="46.179675" lon="13.4509317"><ele>567.0</ele><time>2026-05-02T12:07:52.595Z</time></trkpt><trkpt lat="46.17962" lon="13.4507817"><ele>567.0</ele><time>2026-05-02T12:07:54.594Z</time></trkpt><trkpt lat="46.1795817" lon="13.4507017"><ele>567.0</ele><time>2026-05-02T12:07:55.595Z</time></trkpt><trkpt lat="46.1795233" lon="13.4505667"><ele>567.0</ele><time>2026-05-02T12:07:57.594Z</time></trkpt><trkpt lat="46.1794767" lon="13.4504067"><ele>567.0</ele><time>2026-05-02T12:07:59.596Z</time></trkpt><trkpt lat="46.1794517" lon="13.4503083"><ele>567.0</ele><time>2026-05-02T12:08:00.595Z</time></trkpt><trkpt lat="46.1794433" lon="13.4502"><ele>567.0</ele><time>2026-05-02T12:08:01.596Z</time></trkpt><trkpt lat="46.1794417" lon="13.450095"><ele>569.8000000000001</ele><time>2026-05-02T12:08:02.594Z</time></trkpt><trkpt lat="46.179435" lon="13.4499283"><ele>572.6</ele><time>2026-05-02T12:08:04.594Z</time></trkpt><trkpt lat="46.17942" lon="13.44979"><ele>575.4000000000001</ele><time>2026-05-02T12:08:06.592Z</time></trkpt><trkpt lat="46.1793933" lon="13.449645"><ele>578.2</ele><time>2026-05-02T12:08:08.593Z</time></trkpt><trkpt lat="46.1793717" lon="13.4495583"><ele>581.0</ele><time>2026-05-02T12:08:09.593Z</time></trkpt><trkpt lat="46.1793333" lon="13.4494133"><ele>581.5</ele><time>2026-05-02T12:08:11.594Z</time></trkpt><trkpt lat="46.179285" lon="13.4493217"><ele>582.0</ele><time>2026-05-02T12:08:13.593Z</time></trkpt><trkpt lat="46.179225" lon="13.4492833"><ele>582.5</ele><time>2026-05-02T12:08:16.595Z</time></trkpt><trkpt lat="46.1791567" lon="13.44932"><ele>583.0</ele><time>2026-05-02T12:08:19.593Z</time></trkpt><trkpt lat="46.17911" lon="13.4494117"><ele>583.5</ele><time>2026-05-02T12:08:21.593Z</time></trkpt><trkpt lat="46.1790183" lon="13.449545"><ele>584.0</ele><time>2026-05-02T12:08:23.594Z</time></trkpt><trkpt lat="46.1789633" lon="13.44964"><ele>584.0</ele><time>2026-05-02T12:08:24.593Z</time></trkpt><trkpt lat="46.178905" lon="13.449735"><ele>584.0</ele><time>2026-05-02T12:08:25.594Z</time></trkpt><trkpt lat="46.17885" lon="13.4498383"><ele>584.0</ele><time>2026-05-02T12:08:26.595Z</time></trkpt><trkpt lat="46.1787917" lon="13.44992"><ele>584.0</ele><time>2026-05-02T12:08:27.595Z</time></trkpt><trkpt lat="46.1787017" lon="13.450015"><ele>584.0</ele><time>2026-05-02T12:08:29.593Z</time></trkpt><trkpt lat="46.1785874" lon="13.4499972"><ele>584.0</ele><time>2026-05-02T12:08:31.594Z</time></trkpt><trkpt lat="46.1785247" lon="13.4499556"><ele>584.0</ele><time>2026-05-02T12:08:32.594Z</time></trkpt><trkpt lat="46.1784518" lon="13.4499031"><ele>584.0</ele><time>2026-05-02T12:08:33.592Z</time></trkpt><trkpt lat="46.1783769" lon="13.4498506"><ele>584.0</ele><time>2026-05-02T12:08:34.593Z</time></trkpt><trkpt lat="46.1783115" lon="13.4498031"><ele>584.0</ele><time>2026-05-02T12:08:35.593Z</time></trkpt><trkpt lat="46.1782541" lon="13.449749"><ele>584.0</ele><time>2026-05-02T12:08:36.594Z</time></trkpt><trkpt lat="46.1781829" lon="13.4496279"><ele>587.4</ele><time>2026-05-02T12:08:38.593Z</time></trkpt><trkpt lat="46.178169" lon="13.4494953"><ele>590.8</ele><time>2026-05-02T12:08:40.593Z</time></trkpt><trkpt lat="46.1782015" lon="13.4493593"><ele>594.2</ele><time>2026-05-02T12:08:42.593Z</time></trkpt><trkpt lat="46.1782568" lon="13.449228"><ele>597.6</ele><time>2026-05-02T12:08:44.594Z</time></trkpt><trkpt lat="46.1783101" lon="13.4490811"><ele>601.0</ele><time>2026-05-02T12:08:46.593Z</time></trkpt><trkpt lat="46.1783211" lon="13.448928"><ele>601.0</ele><time>2026-05-02T12:08:48.593Z</time></trkpt><trkpt lat="46.1783064" lon="13.4488001"><ele>601.0</ele><time>2026-05-02T12:08:50.593Z</time></trkpt><trkpt lat="46.178235" lon="13.4487007"><ele>601.0</ele><time>2026-05-02T12:08:52.593Z</time></trkpt><trkpt lat="46.1781329" lon="13.4486591"><ele>601.0</ele><time>2026-05-02T12:08:54.593Z</time></trkpt><trkpt lat="46.1780459" lon="13.4486917"><ele>601.0</ele><time>2026-05-02T12:08:56.594Z</time></trkpt><trkpt lat="46.1780101" lon="13.448807"><ele>602.3333333333334</ele><time>2026-05-02T12:08:58.593Z</time></trkpt><trkpt lat="46.1779869" lon="13.4489497"><ele>603.6666666666667</ele><time>2026-05-02T12:09:00.594Z</time></trkpt><trkpt lat="46.1779712" lon="13.4490385"><ele>605.0</ele><time>2026-05-02T12:09:01.593Z</time></trkpt><trkpt lat="46.1779513" lon="13.4491273"><ele>606.3333333333334</ele><time>2026-05-02T12:09:02.595Z</time></trkpt><trkpt lat="46.1778671" lon="13.449264"><ele>607.6666666666666</ele><time>2026-05-02T12:09:04.594Z</time></trkpt><trkpt lat="46.1778127" lon="13.4493225"><ele>609.0</ele><time>2026-05-02T12:09:05.593Z</time></trkpt><trkpt lat="46.1777573" lon="13.4493775"><ele>609.0</ele><time>2026-05-02T12:09:06.592Z</time></trkpt><trkpt lat="46.1777042" lon="13.4494379"><ele>609.0</ele><time>2026-05-02T12:09:07.594Z</time></trkpt><trkpt lat="46.1776487" lon="13.4494836"><ele>609.0</ele><time>2026-05-02T12:09:08.595Z</time></trkpt><trkpt lat="46.1775281" lon="13.4495325"><ele>609.0</ele><time>2026-05-02T12:09:10.594Z</time></trkpt><trkpt lat="46.17746" lon="13.4495423"><ele>609.0</ele><time>2026-05-02T12:09:11.593Z</time></trkpt><trkpt lat="46.1773947" lon="13.4495477"><ele>609.0</ele><time>2026-05-02T12:09:12.594Z</time></trkpt><trkpt lat="46.1772773" lon="13.44956"><ele>612.2</ele><time>2026-05-02T12:09:14.596Z</time></trkpt><trkpt lat="46.1771713" lon="13.4495777"><ele>615.4</ele><time>2026-05-02T12:09:16.594Z</time></trkpt><trkpt lat="46.1770793" lon="13.4496253"><ele>618.6</ele><time>2026-05-02T12:09:18.593Z</time></trkpt><trkpt lat="46.1770308" lon="13.4497064"><ele>621.8</ele><time>2026-05-02T12:09:20.596Z</time></trkpt><trkpt lat="46.1770563" lon="13.4498706"><ele>625.0</ele><time>2026-05-02T12:09:22.594Z</time></trkpt><trkpt lat="46.1770652" lon="13.4500412"><ele>625.0</ele><time>2026-05-02T12:09:24.592Z</time></trkpt><trkpt lat="46.177049" lon="13.4501964"><ele>625.0</ele><time>2026-05-02T12:09:26.595Z</time></trkpt><trkpt lat="46.1770176" lon="13.4503664"><ele>625.0</ele><time>2026-05-02T12:09:28.594Z</time></trkpt><trkpt lat="46.1769937" lon="13.4504765"><ele>625.0</ele><time>2026-05-02T12:09:29.593Z</time></trkpt><trkpt lat="46.1769513" lon="13.4505778"><ele>625.0</ele><time>2026-05-02T12:09:30.593Z</time></trkpt><trkpt lat="46.1769058" lon="13.4506771"><ele>622.5</ele><time>2026-05-02T12:09:31.593Z</time></trkpt><trkpt lat="46.1768551" lon="13.4507817"><ele>620.0</ele><time>2026-05-02T12:09:32.594Z</time></trkpt><trkpt lat="46.1768065" lon="13.4508931"><ele>617.5</ele><time>2026-05-02T12:09:33.593Z</time></trkpt><trkpt lat="46.1767615" lon="13.4510166"><ele>615.0</ele><time>2026-05-02T12:09:34.593Z</time></trkpt><trkpt lat="46.1767304" lon="13.451135"><ele>612.5</ele><time>2026-05-02T12:09:35.593Z</time></trkpt><trkpt lat="46.176711" lon="13.4512495"><ele>610.0</ele><time>2026-05-02T12:09:36.593Z</time></trkpt><trkpt lat="46.1766945" lon="13.4513548"><ele>608.2</ele><time>2026-05-02T12:09:37.593Z</time></trkpt><trkpt lat="46.1766759" lon="13.4514464"><ele>606.4</ele><time>2026-05-02T12:09:38.595Z</time></trkpt><trkpt lat="46.1766256" lon="13.4515888"><ele>604.6</ele><time>2026-05-02T12:09:40.595Z</time></trkpt><trkpt lat="46.1765388" lon="13.4516962"><ele>602.8</ele><time>2026-05-02T12:09:42.593Z</time></trkpt><trkpt lat="46.1764503" lon="13.4517481"><ele>601.0</ele><time>2026-05-02T12:09:44.594Z</time></trkpt><trkpt lat="46.17636" lon="13.451802"><ele>601.0</ele><time>2026-05-02T12:09:46.593Z</time></trkpt><trkpt lat="46.176252" lon="13.4518738"><ele>601.0</ele><time>2026-05-02T12:09:48.594Z</time></trkpt><trkpt lat="46.1761928" lon="13.4519105"><ele>601.0</ele><time>2026-05-02T12:09:49.594Z</time></trkpt><trkpt lat="46.1760837" lon="13.4519511"><ele>601.0</ele><time>2026-05-02T12:09:51.594Z</time></trkpt><trkpt lat="46.1759913" lon="13.4519445"><ele>601.0</ele><time>2026-05-02T12:09:53.595Z</time></trkpt><trkpt lat="46.1759004" lon="13.4519056"><ele>601.0</ele><time>2026-05-02T12:09:55.595Z</time></trkpt><trkpt lat="46.1757823" lon="13.4518681"><ele>601.0</ele><time>2026-05-02T12:09:57.593Z</time></trkpt><trkpt lat="46.1756602" lon="13.4518268"><ele>601.0</ele><time>2026-05-02T12:09:59.594Z</time></trkpt><trkpt lat="46.1755441" lon="13.451758"><ele>601.0</ele><time>2026-05-02T12:10:01.593Z</time></trkpt><trkpt lat="46.1754826" lon="13.4517335"><ele>601.0</ele><time>2026-05-02T12:10:02.595Z</time></trkpt><trkpt lat="46.1753612" lon="13.4516926"><ele>602.2</ele><time>2026-05-02T12:10:04.593Z</time></trkpt><trkpt lat="46.1752472" lon="13.4516829"><ele>603.4000000000001</ele><time>2026-05-02T12:10:06.594Z</time></trkpt><trkpt lat="46.175155" lon="13.4517119"><ele>604.6</ele><time>2026-05-02T12:10:08.594Z</time></trkpt><trkpt lat="46.1750959" lon="13.4517892"><ele>605.8000000000001</ele><time>2026-05-02T12:10:10.595Z</time></trkpt><trkpt lat="46.1750898" lon="13.451931"><ele>607.0</ele><time>2026-05-02T12:10:12.595Z</time></trkpt><trkpt lat="46.1751271" lon="13.4521058"><ele>607.3333333333334</ele><time>2026-05-02T12:10:14.595Z</time></trkpt><trkpt lat="46.1751489" lon="13.4521931"><ele>607.6666666666667</ele><time>2026-05-02T12:10:15.594Z</time></trkpt><trkpt lat="46.1751719" lon="13.4522858"><ele>608.0</ele><time>2026-05-02T12:10:16.593Z</time></trkpt><trkpt lat="46.1751987" lon="13.452395"><ele>608.3333333333334</ele><time>2026-05-02T12:10:17.594Z</time></trkpt><trkpt lat="46.1752217" lon="13.4525117"><ele>608.6666666666666</ele><time>2026-05-02T12:10:18.593Z</time></trkpt><trkpt lat="46.1752396" lon="13.4526176"><ele>609.0</ele><time>2026-05-02T12:10:19.596Z</time></trkpt><trkpt lat="46.17526" lon="13.4527269"><ele>609.0</ele><time>2026-05-02T12:10:20.594Z</time></trkpt><trkpt lat="46.1752904" lon="13.4528392"><ele>609.0</ele><time>2026-05-02T12:10:21.592Z</time></trkpt><trkpt lat="46.1753289" lon="13.4529632"><ele>609.0</ele><time>2026-05-02T12:10:22.594Z</time></trkpt><trkpt lat="46.1753709" lon="13.4530907"><ele>609.0</ele><time>2026-05-02T12:10:23.593Z</time></trkpt><trkpt lat="46.1754145" lon="13.4532157"><ele>609.0</ele><time>2026-05-02T12:10:24.593Z</time></trkpt><trkpt lat="46.1754591" lon="13.4533419"><ele>608.0</ele><time>2026-05-02T12:10:25.594Z</time></trkpt><trkpt lat="46.1754986" lon="13.4534733"><ele>607.0</ele><time>2026-05-02T12:10:26.594Z</time></trkpt><trkpt lat="46.175532" lon="13.4536082"><ele>606.0</ele><time>2026-05-02T12:10:27.594Z</time></trkpt><trkpt lat="46.1755656" lon="13.4537416"><ele>605.0</ele><time>2026-05-02T12:10:28.595Z</time></trkpt><trkpt lat="46.1755886" lon="13.4538738"><ele>604.0</ele><time>2026-05-02T12:10:29.594Z</time></trkpt><trkpt lat="46.1756173" lon="13.4540023"><ele>604.0</ele><time>2026-05-02T12:10:30.593Z</time></trkpt><trkpt lat="46.1756485" lon="13.4541242"><ele>604.0</ele><time>2026-05-02T12:10:31.594Z</time></trkpt><trkpt lat="46.1756791" lon="13.4542388"><ele>604.0</ele><time>2026-05-02T12:10:32.594Z</time></trkpt><trkpt lat="46.1757092" lon="13.4543377"><ele>604.0</ele><time>2026-05-02T12:10:33.594Z</time></trkpt><trkpt lat="46.175748" lon="13.4544984"><ele>604.0</ele><time>2026-05-02T12:10:35.594Z</time></trkpt><trkpt lat="46.1757424" lon="13.4546524"><ele>601.8333333333334</ele><time>2026-05-02T12:10:37.594Z</time></trkpt><trkpt lat="46.1756887" lon="13.4548038"><ele>599.6666666666667</ele><time>2026-05-02T12:10:39.594Z</time></trkpt><trkpt lat="46.1756443" lon="13.4548697"><ele>597.5</ele><time>2026-05-02T12:10:40.594Z</time></trkpt><trkpt lat="46.1755404" lon="13.4549399"><ele>595.3333333333334</ele><time>2026-05-02T12:10:42.594Z</time></trkpt><trkpt lat="46.1754782" lon="13.4549639"><ele>593.1666666666666</ele><time>2026-05-02T12:10:43.594Z</time></trkpt><trkpt lat="46.1754085" lon="13.4549729"><ele>591.0</ele><time>2026-05-02T12:10:44.595Z</time></trkpt><trkpt lat="46.1753326" lon="13.4549761"><ele>591.0</ele><time>2026-05-02T12:10:45.594Z</time></trkpt><trkpt lat="46.1752562" lon="13.4549895"><ele>591.0</ele><time>2026-05-02T12:10:46.595Z</time></trkpt><trkpt lat="46.1751864" lon="13.455008"><ele>591.0</ele><time>2026-05-02T12:10:47.594Z</time></trkpt><trkpt lat="46.1751226" lon="13.455035"><ele>591.0</ele><time>2026-05-02T12:10:48.595Z</time></trkpt><trkpt lat="46.1749984" lon="13.4550822"><ele>591.0</ele><time>2026-05-02T12:10:50.597Z</time></trkpt><trkpt lat="46.1749269" lon="13.4550974"><ele>591.0</ele><time>2026-05-02T12:10:51.594Z</time></trkpt><trkpt lat="46.1748616" lon="13.4550921"><ele>596.8</ele><time>2026-05-02T12:10:52.594Z</time></trkpt><trkpt lat="46.17475" lon="13.4550102"><ele>602.6</ele><time>2026-05-02T12:10:54.594Z</time></trkpt><trkpt lat="46.1746954" lon="13.4549474"><ele>608.4</ele><time>2026-05-02T12:10:55.594Z</time></trkpt><trkpt lat="46.1746397" lon="13.4548961"><ele>614.2</ele><time>2026-05-02T12:10:56.595Z</time></trkpt><trkpt lat="46.174532" lon="13.4548663"><ele>620.0</ele><time>2026-05-02T12:10:58.594Z</time></trkpt><trkpt lat="46.1744193" lon="13.4549137"><ele>620.0</ele><time>2026-05-02T12:11:00.594Z</time></trkpt><trkpt lat="46.1743594" lon="13.4549588"><ele>620.0</ele><time>2026-05-02T12:11:01.594Z</time></trkpt><trkpt lat="46.1742626" lon="13.4550514"><ele>620.0</ele><time>2026-05-02T12:11:03.595Z</time></trkpt><trkpt lat="46.1742044" lon="13.4551554"><ele>620.0</ele><time>2026-05-02T12:11:05.595Z</time></trkpt><trkpt lat="46.174176" lon="13.4552927"><ele>620.0</ele><time>2026-05-02T12:11:07.593Z</time></trkpt><trkpt lat="46.1741783" lon="13.4554741"><ele>619.1666666666666</ele><time>2026-05-02T12:11:09.594Z</time></trkpt><trkpt lat="46.1741783" lon="13.4555778"><ele>618.3333333333333</ele><time>2026-05-02T12:11:10.594Z</time></trkpt><trkpt lat="46.1741824" lon="13.4556723"><ele>617.5</ele><time>2026-05-02T12:11:11.593Z</time></trkpt><trkpt lat="46.1742002" lon="13.4557648"><ele>616.6666666666666</ele><time>2026-05-02T12:11:12.594Z</time></trkpt><trkpt lat="46.1742423" lon="13.4558761"><ele>615.8333333333334</ele><time>2026-05-02T12:11:13.593Z</time></trkpt><trkpt lat="46.1742901" lon="13.455998"><ele>615.0</ele><time>2026-05-02T12:11:14.594Z</time></trkpt><trkpt lat="46.1743376" lon="13.4561266"><ele>615.0</ele><time>2026-05-02T12:11:15.594Z</time></trkpt><trkpt lat="46.1743847" lon="13.4562683"><ele>615.0</ele><time>2026-05-02T12:11:16.593Z</time></trkpt><trkpt lat="46.1744294" lon="13.4564081"><ele>615.0</ele><time>2026-05-02T12:11:17.595Z</time></trkpt><trkpt lat="46.1744677" lon="13.4565367"><ele>615.0</ele><time>2026-05-02T12:11:18.595Z</time></trkpt><trkpt lat="46.174504" lon="13.4566578"><ele>615.0</ele><time>2026-05-02T12:11:19.595Z</time></trkpt><trkpt lat="46.1745437" lon="13.4567762"><ele>617.0</ele><time>2026-05-02T12:11:20.595Z</time></trkpt><trkpt lat="46.1745884" lon="13.4568974"><ele>619.0</ele><time>2026-05-02T12:11:21.594Z</time></trkpt><trkpt lat="46.1746333" lon="13.4570215"><ele>621.0</ele><time>2026-05-02T12:11:22.596Z</time></trkpt><trkpt lat="46.1746743" lon="13.4571478"><ele>623.0</ele><time>2026-05-02T12:11:23.594Z</time></trkpt><trkpt lat="46.1747054" lon="13.4572793"><ele>625.0</ele><time>2026-05-02T12:11:24.595Z</time></trkpt><trkpt lat="46.1747297" lon="13.4574114"><ele>628.0</ele><time>2026-05-02T12:11:25.595Z</time></trkpt><trkpt lat="46.1747534" lon="13.4575468"><ele>631.0</ele><time>2026-05-02T12:11:26.594Z</time></trkpt><trkpt lat="46.1747745" lon="13.4576853"><ele>634.0</ele><time>2026-05-02T12:11:27.593Z</time></trkpt><trkpt lat="46.1747942" lon="13.4578182"><ele>637.0</ele><time>2026-05-02T12:11:28.593Z</time></trkpt><trkpt lat="46.1748133" lon="13.4579441"><ele>640.0</ele><time>2026-05-02T12:11:29.594Z</time></trkpt><trkpt lat="46.1748359" lon="13.4580775"><ele>640.0</ele><time>2026-05-02T12:11:30.594Z</time></trkpt><trkpt lat="46.1748532" lon="13.4582097"><ele>640.0</ele><time>2026-05-02T12:11:31.594Z</time></trkpt><trkpt lat="46.1748586" lon="13.4583392"><ele>640.0</ele><time>2026-05-02T12:11:32.596Z</time></trkpt><trkpt lat="46.174859" lon="13.4584685"><ele>640.0</ele><time>2026-05-02T12:11:33.593Z</time></trkpt><trkpt lat="46.174858" lon="13.4586019"><ele>640.0</ele><time>2026-05-02T12:11:34.594Z</time></trkpt><trkpt lat="46.1748551" lon="13.4587457"><ele>637.6</ele><time>2026-05-02T12:11:35.595Z</time></trkpt><trkpt lat="46.1748482" lon="13.4588982"><ele>635.2</ele><time>2026-05-02T12:11:36.594Z</time></trkpt><trkpt lat="46.1748377" lon="13.4590519"><ele>632.8</ele><time>2026-05-02T12:11:37.594Z</time></trkpt><trkpt lat="46.1748297" lon="13.4591969"><ele>630.4</ele><time>2026-05-02T12:11:38.595Z</time></trkpt><trkpt lat="46.1748186" lon="13.4593308"><ele>628.0</ele><time>2026-05-02T12:11:39.593Z</time></trkpt><trkpt lat="46.1748123" lon="13.4594617"><ele>628.0</ele><time>2026-05-02T12:11:40.595Z</time></trkpt><trkpt lat="46.1748114" lon="13.4595908"><ele>628.0</ele><time>2026-05-02T12:11:41.593Z</time></trkpt><trkpt lat="46.1748162" lon="13.4597147"><ele>628.0</ele><time>2026-05-02T12:11:42.595Z</time></trkpt><trkpt lat="46.1748304" lon="13.4598429"><ele>628.0</ele><time>2026-05-02T12:11:43.595Z</time></trkpt><trkpt lat="46.1748485" lon="13.4599642"><ele>628.0</ele><time>2026-05-02T12:11:44.594Z</time></trkpt><trkpt lat="46.1748677" lon="13.4600856"><ele>628.0</ele><time>2026-05-02T12:11:45.594Z</time></trkpt><trkpt lat="46.1748859" lon="13.4601959"><ele>624.8333333333334</ele><time>2026-05-02T12:11:46.593Z</time></trkpt><trkpt lat="46.1748977" lon="13.4602941"><ele>621.6666666666667</ele><time>2026-05-02T12:11:47.595Z</time></trkpt><trkpt lat="46.1748935" lon="13.4604587"><ele>618.5</ele><time>2026-05-02T12:11:49.595Z</time></trkpt><trkpt lat="46.1748357" lon="13.4605709"><ele>615.3333333333334</ele><time>2026-05-02T12:11:51.594Z</time></trkpt><trkpt lat="46.1747321" lon="13.4605999"><ele>612.1666666666666</ele><time>2026-05-02T12:11:53.594Z</time></trkpt><trkpt lat="46.1746694" lon="13.4605868"><ele>609.0</ele><time>2026-05-02T12:11:54.595Z</time></trkpt><trkpt lat="46.1745937" lon="13.4605705"><ele>607.3333333333334</ele><time>2026-05-02T12:11:55.594Z</time></trkpt><trkpt lat="46.1745145" lon="13.4605574"><ele>605.6666666666666</ele><time>2026-05-02T12:11:56.595Z</time></trkpt><trkpt lat="46.1744395" lon="13.4605644"><ele>604.0</ele><time>2026-05-02T12:11:57.593Z</time></trkpt><trkpt lat="46.1743647" lon="13.4605843"><ele>602.3333333333333</ele><time>2026-05-02T12:11:58.594Z</time></trkpt><trkpt lat="46.1742935" lon="13.460612"><ele>600.6666666666666</ele><time>2026-05-02T12:11:59.593Z</time></trkpt><trkpt lat="46.174229" lon="13.4606504"><ele>599.0</ele><time>2026-05-02T12:12:00.595Z</time></trkpt><trkpt lat="46.1741235" lon="13.460714"><ele>599.0</ele><time>2026-05-02T12:12:02.595Z</time></trkpt><trkpt lat="46.1740222" lon="13.4607308"><ele>599.0</ele><time>2026-05-02T12:12:04.595Z</time></trkpt><trkpt lat="46.1739186" lon="13.4607428"><ele>599.0</ele><time>2026-05-02T12:12:06.594Z</time></trkpt><trkpt lat="46.1738274" lon="13.4608017"><ele>599.0</ele><time>2026-05-02T12:12:08.594Z</time></trkpt><trkpt lat="46.173736" lon="13.4609239"><ele>599.0</ele><time>2026-05-02T12:12:10.595Z</time></trkpt><trkpt lat="46.1736408" lon="13.4610077"><ele>598.4</ele><time>2026-05-02T12:12:12.595Z</time></trkpt><trkpt lat="46.1735104" lon="13.4610251"><ele>597.8</ele><time>2026-05-02T12:12:14.595Z</time></trkpt><trkpt lat="46.1734389" lon="13.4610184"><ele>597.2</ele><time>2026-05-02T12:12:15.593Z</time></trkpt><trkpt lat="46.1733731" lon="13.4610109"><ele>596.6</ele><time>2026-05-02T12:12:16.595Z</time></trkpt><trkpt lat="46.173265" lon="13.4609664"><ele>596.0</ele><time>2026-05-02T12:12:18.594Z</time></trkpt><trkpt lat="46.173171" lon="13.4608715"><ele>596.0</ele><time>2026-05-02T12:12:20.595Z</time></trkpt><trkpt lat="46.1730778" lon="13.4607796"><ele>596.0</ele><time>2026-05-02T12:12:22.596Z</time></trkpt><trkpt lat="46.1729912" lon="13.4607123"><ele>596.0</ele><time>2026-05-02T12:12:24.595Z</time></trkpt><trkpt lat="46.172897" lon="13.4606884"><ele>596.0</ele><time>2026-05-02T12:12:26.596Z</time></trkpt><trkpt lat="46.1727957" lon="13.4607454"><ele>596.0</ele><time>2026-05-02T12:12:28.593Z</time></trkpt><trkpt lat="46.1727449" lon="13.4607998"><ele>596.0</ele><time>2026-05-02T12:12:29.594Z</time></trkpt><trkpt lat="46.1726983" lon="13.4608648"><ele>596.0</ele><time>2026-05-02T12:12:30.593Z</time></trkpt><trkpt lat="46.1726534" lon="13.4609404"><ele>596.0</ele><time>2026-05-02T12:12:31.597Z</time></trkpt><trkpt lat="46.1726052" lon="13.461023"><ele>596.0</ele><time>2026-05-02T12:12:32.595Z</time></trkpt><trkpt lat="46.1725572" lon="13.4611163"><ele>596.0</ele><time>2026-05-02T12:12:33.595Z</time></trkpt><trkpt lat="46.1725063" lon="13.4612282"><ele>596.0</ele><time>2026-05-02T12:12:34.595Z</time></trkpt><trkpt lat="46.1724547" lon="13.4613445"><ele>596.8</ele><time>2026-05-02T12:12:35.594Z</time></trkpt><trkpt lat="46.1724026" lon="13.461452"><ele>597.6</ele><time>2026-05-02T12:12:36.594Z</time></trkpt><trkpt lat="46.1723519" lon="13.4615533"><ele>598.4</ele><time>2026-05-02T12:12:37.594Z</time></trkpt><trkpt lat="46.1722999" lon="13.4616531"><ele>599.2</ele><time>2026-05-02T12:12:38.596Z</time></trkpt><trkpt lat="46.1722433" lon="13.4617568"><ele>600.0</ele><time>2026-05-02T12:12:39.594Z</time></trkpt><trkpt lat="46.1721837" lon="13.4618657"><ele>600.0</ele><time>2026-05-02T12:12:40.593Z</time></trkpt><trkpt lat="46.1721252" lon="13.4619721"><ele>600.0</ele><time>2026-05-02T12:12:41.593Z</time></trkpt><trkpt lat="46.1720643" lon="13.4620739"><ele>600.0</ele><time>2026-05-02T12:12:42.594Z</time></trkpt><trkpt lat="46.1719996" lon="13.4621711"><ele>600.0</ele><time>2026-05-02T12:12:43.594Z</time></trkpt><trkpt lat="46.1719227" lon="13.462261"><ele>600.0</ele><time>2026-05-02T12:12:44.595Z</time></trkpt><trkpt lat="46.1718289" lon="13.4623505"><ele>602.0</ele><time>2026-05-02T12:12:45.594Z</time></trkpt><trkpt lat="46.1717272" lon="13.4624441"><ele>604.0</ele><time>2026-05-02T12:12:46.593Z</time></trkpt><trkpt lat="46.1716275" lon="13.462555"><ele>606.0</ele><time>2026-05-02T12:12:47.594Z</time></trkpt><trkpt lat="46.1715315" lon="13.4626626"><ele>608.0</ele><time>2026-05-02T12:12:48.593Z</time></trkpt><trkpt lat="46.1714319" lon="13.4627581"><ele>608.0</ele><time>2026-05-02T12:12:49.594Z</time></trkpt><trkpt lat="46.1713272" lon="13.4628572"><ele>608.0</ele><time>2026-05-02T12:12:50.597Z</time></trkpt><trkpt lat="46.1712272" lon="13.4629458"><ele>608.0</ele><time>2026-05-02T12:12:51.593Z</time></trkpt><trkpt lat="46.1711252" lon="13.4630405"><ele>608.0</ele><time>2026-05-02T12:12:52.594Z</time></trkpt><trkpt lat="46.1710208" lon="13.4631417"><ele>610.4</ele><time>2026-05-02T12:12:53.595Z</time></trkpt><trkpt lat="46.1709118" lon="13.4632402"><ele>612.8</ele><time>2026-05-02T12:12:54.594Z</time></trkpt><trkpt lat="46.1708116" lon="13.4633297"><ele>615.2</ele><time>2026-05-02T12:12:55.593Z</time></trkpt><trkpt lat="46.1707259" lon="13.4634179"><ele>617.6</ele><time>2026-05-02T12:12:56.594Z</time></trkpt><trkpt lat="46.1706561" lon="13.4635119"><ele>620.0</ele><time>2026-05-02T12:12:57.593Z</time></trkpt><trkpt lat="46.1705951" lon="13.4636173"><ele>620.0</ele><time>2026-05-02T12:12:58.594Z</time></trkpt><trkpt lat="46.1705407" lon="13.4637374"><ele>620.0</ele><time>2026-05-02T12:12:59.595Z</time></trkpt><trkpt lat="46.1704885" lon="13.46386"><ele>620.0</ele><time>2026-05-02T12:13:00.595Z</time></trkpt><trkpt lat="46.1704376" lon="13.4639838"><ele>620.0</ele><time>2026-05-02T12:13:01.595Z</time></trkpt><trkpt lat="46.1703846" lon="13.4641199"><ele>620.0</ele><time>2026-05-02T12:13:02.595Z</time></trkpt><trkpt lat="46.1703231" lon="13.464267"><ele>616.2</ele><time>2026-05-02T12:13:03.593Z</time></trkpt><trkpt lat="46.1702568" lon="13.4643985"><ele>612.4</ele><time>2026-05-02T12:13:04.595Z</time></trkpt><trkpt lat="46.1701915" lon="13.4645106"><ele>608.6</ele><time>2026-05-02T12:13:05.594Z</time></trkpt><trkpt lat="46.1701275" lon="13.4646158"><ele>604.8</ele><time>2026-05-02T12:13:06.595Z</time></trkpt><trkpt lat="46.170061" lon="13.464714"><ele>601.0</ele><time>2026-05-02T12:13:07.595Z</time></trkpt><trkpt lat="46.1699989" lon="13.4647898"><ele>598.6666666666667</ele><time>2026-05-02T12:13:08.596Z</time></trkpt><trkpt lat="46.1699417" lon="13.4648667"><ele>596.3333333333334</ele><time>2026-05-02T12:13:09.593Z</time></trkpt><trkpt lat="46.1698862" lon="13.4649525"><ele>594.0</ele><time>2026-05-02T12:13:10.594Z</time></trkpt><trkpt lat="46.169835" lon="13.4650458"><ele>591.6666666666666</ele><time>2026-05-02T12:13:11.594Z</time></trkpt><trkpt lat="46.1697885" lon="13.4651521"><ele>589.3333333333333</ele><time>2026-05-02T12:13:12.595Z</time></trkpt><trkpt lat="46.1697504" lon="13.4652744"><ele>587.0</ele><time>2026-05-02T12:13:13.594Z</time></trkpt><trkpt lat="46.1697249" lon="13.4654128"><ele>584.0</ele><time>2026-05-02T12:13:14.595Z</time></trkpt><trkpt lat="46.1697034" lon="13.4655282"><ele>581.0</ele><time>2026-05-02T12:13:15.593Z</time></trkpt><trkpt lat="46.169675" lon="13.4656246"><ele>578.0</ele><time>2026-05-02T12:13:16.594Z</time></trkpt><trkpt lat="46.1696329" lon="13.4656985"><ele>575.0</ele><time>2026-05-02T12:13:17.593Z</time></trkpt><trkpt lat="46.1695748" lon="13.4657424"><ele>572.0</ele><time>2026-05-02T12:13:18.593Z</time></trkpt><trkpt lat="46.169494" lon="13.465768"><ele>569.0</ele><time>2026-05-02T12:13:19.593Z</time></trkpt><trkpt lat="46.1693877" lon="13.465775"><ele>569.0</ele><time>2026-05-02T12:13:20.594Z</time></trkpt><trkpt lat="46.1692503" lon="13.4657661"><ele>569.0</ele><time>2026-05-02T12:13:21.592Z</time></trkpt><trkpt lat="46.1691111" lon="13.465749"><ele>569.0</ele><time>2026-05-02T12:13:22.593Z</time></trkpt><trkpt lat="46.1689878" lon="13.4657429"><ele>569.0</ele><time>2026-05-02T12:13:23.592Z</time></trkpt><trkpt lat="46.1688781" lon="13.4657365"><ele>567.3333333333333</ele><time>2026-05-02T12:13:24.594Z</time></trkpt><trkpt lat="46.1687728" lon="13.4657252"><ele>565.6666666666666</ele><time>2026-05-02T12:13:25.593Z</time></trkpt><trkpt lat="46.1686742" lon="13.4657083"><ele>564.0</ele><time>2026-05-02T12:13:26.594Z</time></trkpt><trkpt lat="46.1685869" lon="13.4656834"><ele>562.3333333333334</ele><time>2026-05-02T12:13:27.592Z</time></trkpt><trkpt lat="46.1685107" lon="13.465655"><ele>560.6666666666667</ele><time>2026-05-02T12:13:28.592Z</time></trkpt><trkpt lat="46.1684386" lon="13.4656287"><ele>559.0</ele><time>2026-05-02T12:13:29.593Z</time></trkpt><trkpt lat="46.1683694" lon="13.4655872"><ele>559.0</ele><time>2026-05-02T12:13:30.594Z</time></trkpt><trkpt lat="46.1683059" lon="13.4655147"><ele>559.0</ele><time>2026-05-02T12:13:31.594Z</time></trkpt><trkpt lat="46.1682493" lon="13.4654235"><ele>559.0</ele><time>2026-05-02T12:13:32.594Z</time></trkpt><trkpt lat="46.1681971" lon="13.4653274"><ele>559.0</ele><time>2026-05-02T12:13:33.594Z</time></trkpt><trkpt lat="46.1681474" lon="13.4652252"><ele>559.0</ele><time>2026-05-02T12:13:34.595Z</time></trkpt><trkpt lat="46.1681018" lon="13.4651206"><ele>559.0</ele><time>2026-05-02T12:13:35.594Z</time></trkpt><trkpt lat="46.1680631" lon="13.4650117"><ele>557.3333333333334</ele><time>2026-05-02T12:13:36.594Z</time></trkpt><trkpt lat="46.1680349" lon="13.4649002"><ele>555.6666666666667</ele><time>2026-05-02T12:13:37.595Z</time></trkpt><trkpt lat="46.1680122" lon="13.4647841"><ele>554.0</ele><time>2026-05-02T12:13:38.596Z</time></trkpt><trkpt lat="46.1679936" lon="13.4646631"><ele>552.3333333333334</ele><time>2026-05-02T12:13:39.593Z</time></trkpt><trkpt lat="46.1679716" lon="13.4645454"><ele>550.6666666666666</ele><time>2026-05-02T12:13:40.595Z</time></trkpt><trkpt lat="46.1679525" lon="13.4644447"><ele>549.0</ele><time>2026-05-02T12:13:41.594Z</time></trkpt><trkpt lat="46.1679418" lon="13.4642612"><ele>549.0</ele><time>2026-05-02T12:13:43.595Z</time></trkpt><trkpt lat="46.1679536" lon="13.464159"><ele>549.0</ele><time>2026-05-02T12:13:44.594Z</time></trkpt><trkpt lat="46.1679754" lon="13.4640463"><ele>549.0</ele><time>2026-05-02T12:13:45.594Z</time></trkpt><trkpt lat="46.1680001" lon="13.4639344"><ele>549.0</ele><time>2026-05-02T12:13:46.595Z</time></trkpt><trkpt lat="46.1680169" lon="13.4638265"><ele>549.0</ele><time>2026-05-02T12:13:47.593Z</time></trkpt><trkpt lat="46.1680139" lon="13.4637214"><ele>549.0</ele><time>2026-05-02T12:13:48.595Z</time></trkpt><trkpt lat="46.1679953" lon="13.4636171"><ele>551.0</ele><time>2026-05-02T12:13:49.594Z</time></trkpt><trkpt lat="46.1679704" lon="13.4635034"><ele>553.0</ele><time>2026-05-02T12:13:50.594Z</time></trkpt><trkpt lat="46.1679425" lon="13.4633781"><ele>555.0</ele><time>2026-05-02T12:13:51.594Z</time></trkpt><trkpt lat="46.1679241" lon="13.4632517"><ele>557.0</ele><time>2026-05-02T12:13:52.593Z</time></trkpt><trkpt lat="46.16791" lon="13.4631273"><ele>559.0</ele><time>2026-05-02T12:13:53.593Z</time></trkpt><trkpt lat="46.1679024" lon="13.4630147"><ele>561.0</ele><time>2026-05-02T12:13:54.594Z</time></trkpt><trkpt lat="46.1678918" lon="13.4629088"><ele>563.0</ele><time>2026-05-02T12:13:55.593Z</time></trkpt><trkpt lat="46.1678769" lon="13.4628117"><ele>565.0</ele><time>2026-05-02T12:13:56.594Z</time></trkpt><trkpt lat="46.1678348" lon="13.4626754"><ele>567.0</ele><time>2026-05-02T12:13:58.593Z</time></trkpt><trkpt lat="46.1677763" lon="13.4626187"><ele>569.0</ele><time>2026-05-02T12:14:00.594Z</time></trkpt><trkpt lat="46.1677136" lon="13.4625771"><ele>571.0</ele><time>2026-05-02T12:14:04.595Z</time></trkpt><trkpt lat="46.1676442" lon="13.4626004"><ele>573.0</ele><time>2026-05-02T12:14:15.669Z</time></trkpt><trkpt lat="46.1675417" lon="13.462595"><ele>573.0</ele><time>2026-05-02T12:14:19.592Z</time></trkpt><trkpt lat="46.1676117" lon="13.4625733"><ele>573.0</ele><time>2026-05-02T12:14:21.592Z</time></trkpt><trkpt lat="46.167695" lon="13.46255"><ele>573.0</ele><time>2026-05-02T12:14:24.593Z</time></trkpt><trkpt lat="46.16776" lon="13.4625417"><ele>573.0</ele><time>2026-05-02T12:14:26.594Z</time></trkpt><trkpt lat="46.1678433" lon="13.462605"><ele>573.0</ele><time>2026-05-02T12:14:28.593Z</time></trkpt><trkpt lat="46.1679133" lon="13.4627183"><ele>573.0</ele><time>2026-05-02T12:14:30.595Z</time></trkpt><trkpt lat="46.1679717" lon="13.4628567"><ele>571.0</ele><time>2026-05-02T12:14:32.594Z</time></trkpt><trkpt lat="46.16803" lon="13.4630067"><ele>569.0</ele><time>2026-05-02T12:14:34.594Z</time></trkpt><trkpt lat="46.1681217" lon="13.4631167"><ele>567.0</ele><time>2026-05-02T12:14:36.594Z</time></trkpt><trkpt lat="46.168175" lon="13.463175"><ele>565.0</ele><time>2026-05-02T12:14:37.593Z</time></trkpt><trkpt lat="46.168225" lon="13.4632383"><ele>563.0</ele><time>2026-05-02T12:14:38.593Z</time></trkpt><trkpt lat="46.16828" lon="13.4633017"><ele>561.0</ele><time>2026-05-02T12:14:39.592Z</time></trkpt><trkpt lat="46.1683367" lon="13.4633467"><ele>564.6666666666666</ele><time>2026-05-02T12:14:40.593Z</time></trkpt><trkpt lat="46.1684483" lon="13.4634167"><ele>568.3333333333334</ele><time>2026-05-02T12:14:42.595Z</time></trkpt><trkpt lat="46.1685033" lon="13.4634783"><ele>572.0</ele><time>2026-05-02T12:14:43.594Z</time></trkpt><trkpt lat="46.1685533" lon="13.4635533"><ele>575.6666666666667</ele><time>2026-05-02T12:14:44.594Z</time></trkpt><trkpt lat="46.168605" lon="13.4636383"><ele>579.3333333333334</ele><time>2026-05-02T12:14:45.593Z</time></trkpt><trkpt lat="46.1686633" lon="13.4637233"><ele>583.0</ele><time>2026-05-02T12:14:46.594Z</time></trkpt><trkpt lat="46.1687367" lon="13.46382"><ele>583.0</ele><time>2026-05-02T12:14:47.593Z</time></trkpt><trkpt lat="46.1688117" lon="13.4638933"><ele>583.0</ele><time>2026-05-02T12:14:48.594Z</time></trkpt><trkpt lat="46.1688767" lon="13.46394"><ele>583.0</ele><time>2026-05-02T12:14:49.594Z</time></trkpt><trkpt lat="46.168945" lon="13.4639783"><ele>583.0</ele><time>2026-05-02T12:14:50.594Z</time></trkpt><trkpt lat="46.169015" lon="13.4640117"><ele>583.0</ele><time>2026-05-02T12:14:51.594Z</time></trkpt><trkpt lat="46.1690917" lon="13.464035"><ele>583.0</ele><time>2026-05-02T12:14:52.593Z</time></trkpt><trkpt lat="46.1692133" lon="13.4640183"><ele>587.4</ele><time>2026-05-02T12:14:54.594Z</time></trkpt><trkpt lat="46.1693117" lon="13.463985"><ele>591.8</ele><time>2026-05-02T12:14:56.595Z</time></trkpt><trkpt lat="46.1694117" lon="13.46394"><ele>596.2</ele><time>2026-05-02T12:14:58.593Z</time></trkpt><trkpt lat="46.1694833" lon="13.4639"><ele>600.6</ele><time>2026-05-02T12:15:00.593Z</time></trkpt><trkpt lat="46.169445" lon="13.463815"><ele>605.0</ele><time>2026-05-02T12:15:04.592Z</time></trkpt><trkpt lat="46.16933" lon="13.463805"><ele>607.6</ele><time>2026-05-02T12:15:06.593Z</time></trkpt><trkpt lat="46.16927" lon="13.4637767"><ele>610.2</ele><time>2026-05-02T12:15:07.597Z</time></trkpt><trkpt lat="46.16918" lon="13.4636783"><ele>612.8</ele><time>2026-05-02T12:15:09.599Z</time></trkpt><trkpt lat="46.169145" lon="13.4635517"><ele>615.4</ele><time>2026-05-02T12:15:11.594Z</time></trkpt><trkpt lat="46.16913" lon="13.463385"><ele>618.0</ele><time>2026-05-02T12:15:13.594Z</time></trkpt><trkpt lat="46.169115" lon="13.46328"><ele>618.0</ele><time>2026-05-02T12:15:14.594Z</time></trkpt><trkpt lat="46.169095" lon="13.4631767"><ele>618.0</ele><time>2026-05-02T12:15:15.593Z</time></trkpt><trkpt lat="46.1690733" lon="13.463075"><ele>618.0</ele><time>2026-05-02T12:15:16.594Z</time></trkpt><trkpt lat="46.169055" lon="13.462975"><ele>618.0</ele><time>2026-05-02T12:15:17.594Z</time></trkpt><trkpt lat="46.16903" lon="13.4628817"><ele>618.0</ele><time>2026-05-02T12:15:18.594Z</time></trkpt><trkpt lat="46.1690217" lon="13.4627317"><ele>618.0</ele><time>2026-05-02T12:15:20.594Z</time></trkpt><trkpt lat="46.1690583" lon="13.46258"><ele>618.6</ele><time>2026-05-02T12:15:22.595Z</time></trkpt><trkpt lat="46.1690983" lon="13.4624283"><ele>619.1999999999999</ele><time>2026-05-02T12:15:24.594Z</time></trkpt><trkpt lat="46.169105" lon="13.4622983"><ele>619.8</ele><time>2026-05-02T12:15:26.593Z</time></trkpt><trkpt lat="46.1690617" lon="13.4621283"><ele>620.4</ele><time>2026-05-02T12:15:28.594Z</time></trkpt><trkpt lat="46.16903" lon="13.4620467"><ele>621.0</ele><time>2026-05-02T12:15:29.593Z</time></trkpt><trkpt lat="46.16899" lon="13.4619483"><ele>623.3333333333334</ele><time>2026-05-02T12:15:31.593Z</time></trkpt><trkpt lat="46.1690483" lon="13.4619017"><ele>625.6666666666666</ele><time>2026-05-02T12:15:35.595Z</time></trkpt><trkpt lat="46.1691033" lon="13.4620333"><ele>628.0</ele><time>2026-05-02T12:15:37.594Z</time></trkpt><trkpt lat="46.1691383" lon="13.4621267"><ele>630.3333333333333</ele><time>2026-05-02T12:15:38.594Z</time></trkpt><trkpt lat="46.1691733" lon="13.4622167"><ele>632.6666666666666</ele><time>2026-05-02T12:15:39.593Z</time></trkpt><trkpt lat="46.1692183" lon="13.4622967"><ele>635.0</ele><time>2026-05-02T12:15:40.595Z</time></trkpt><trkpt lat="46.169275" lon="13.46237"><ele>635.0</ele><time>2026-05-02T12:15:41.593Z</time></trkpt><trkpt lat="46.1693367" lon="13.46244"><ele>635.0</ele><time>2026-05-02T12:15:42.593Z</time></trkpt><trkpt lat="46.1693933" lon="13.46251"><ele>635.0</ele><time>2026-05-02T12:15:43.594Z</time></trkpt><trkpt lat="46.1694433" lon="13.4625667"><ele>635.0</ele><time>2026-05-02T12:15:44.594Z</time></trkpt><trkpt lat="46.1695583" lon="13.4626433"><ele>635.0</ele><time>2026-05-02T12:15:46.593Z</time></trkpt><trkpt lat="46.1696283" lon="13.4626817"><ele>635.0</ele><time>2026-05-02T12:15:47.594Z</time></trkpt><trkpt lat="46.1697" lon="13.46271"><ele>635.0</ele><time>2026-05-02T12:15:48.593Z</time></trkpt><trkpt lat="46.1697617" lon="13.4627333"><ele>635.0</ele><time>2026-05-02T12:15:49.593Z</time></trkpt><trkpt lat="46.1698617" lon="13.4627267"><ele>635.0</ele><time>2026-05-02T12:15:51.594Z</time></trkpt><trkpt lat="46.1698917" lon="13.462645"><ele>635.0</ele><time>2026-05-02T12:15:53.593Z</time></trkpt><trkpt lat="46.1698283" lon="13.4625517"><ele>635.0</ele><time>2026-05-02T12:15:55.594Z</time></trkpt><trkpt lat="46.169755" lon="13.4625033"><ele>635.0</ele><time>2026-05-02T12:15:56.594Z</time></trkpt><trkpt lat="46.1696983" lon="13.4624283"><ele>635.0</ele><time>2026-05-02T12:15:57.593Z</time></trkpt><trkpt lat="46.169655" lon="13.46235"><ele>635.0</ele><time>2026-05-02T12:15:58.594Z</time></trkpt><trkpt lat="46.1696167" lon="13.4622683"><ele>635.0</ele><time>2026-05-02T12:15:59.594Z</time></trkpt><trkpt lat="46.1695983" lon="13.4621767"><ele>635.0</ele><time>2026-05-02T12:16:00.594Z</time></trkpt><trkpt lat="46.16959" lon="13.461995"><ele>635.0</ele><time>2026-05-02T12:16:02.594Z</time></trkpt><trkpt lat="46.1695833" lon="13.4618983"><ele>635.0</ele><time>2026-05-02T12:16:03.593Z</time></trkpt><trkpt lat="46.1695817" lon="13.46175"><ele>637.2</ele><time>2026-05-02T12:16:05.593Z</time></trkpt><trkpt lat="46.1695683" lon="13.461625"><ele>639.4</ele><time>2026-05-02T12:16:07.594Z</time></trkpt><trkpt lat="46.1695321" lon="13.4614568"><ele>641.5999999999999</ele><time>2026-05-02T12:16:09.593Z</time></trkpt><trkpt lat="46.169516" lon="13.4613587"><ele>643.8</ele><time>2026-05-02T12:16:10.593Z</time></trkpt><trkpt lat="46.1694974" lon="13.461266"><ele>646.0</ele><time>2026-05-02T12:16:11.595Z</time></trkpt><trkpt lat="46.1694776" lon="13.461116"><ele>648.0</ele><time>2026-05-02T12:16:13.594Z</time></trkpt><trkpt lat="46.1694666" lon="13.4609571"><ele>650.0</ele><time>2026-05-02T12:16:15.594Z</time></trkpt><trkpt lat="46.1694663" lon="13.4608563"><ele>652.0</ele><time>2026-05-02T12:16:16.594Z</time></trkpt><trkpt lat="46.1694641" lon="13.4607481"><ele>654.0</ele><time>2026-05-02T12:16:17.593Z</time></trkpt><trkpt lat="46.1694651" lon="13.4606481"><ele>656.0</ele><time>2026-05-02T12:16:18.594Z</time></trkpt><trkpt lat="46.1694798" lon="13.460479"><ele>658.0</ele><time>2026-05-02T12:16:20.594Z</time></trkpt><trkpt lat="46.1694603" lon="13.4603145"><ele>660.5</ele><time>2026-05-02T12:16:22.594Z</time></trkpt><trkpt lat="46.1694138" lon="13.4601876"><ele>663.0</ele><time>2026-05-02T12:16:24.593Z</time></trkpt><trkpt lat="46.1693611" lon="13.4601287"><ele>665.5</ele><time>2026-05-02T12:16:25.593Z</time></trkpt><trkpt lat="46.1692978" lon="13.4600699"><ele>668.0</ele><time>2026-05-02T12:16:26.595Z</time></trkpt><trkpt lat="46.1692335" lon="13.460011"><ele>670.5</ele><time>2026-05-02T12:16:27.593Z</time></trkpt><trkpt lat="46.1691773" lon="13.4599407"><ele>673.0</ele><time>2026-05-02T12:16:28.595Z</time></trkpt><trkpt lat="46.1691271" lon="13.4598604"><ele>673.0</ele><time>2026-05-02T12:16:29.595Z</time></trkpt><trkpt lat="46.1690782" lon="13.4597702"><ele>673.0</ele><time>2026-05-02T12:16:30.593Z</time></trkpt><trkpt lat="46.1690358" lon="13.4596714"><ele>673.0</ele><time>2026-05-02T12:16:31.594Z</time></trkpt><trkpt lat="46.1689989" lon="13.4595692"><ele>673.0</ele><time>2026-05-02T12:16:32.594Z</time></trkpt><trkpt lat="46.1689635" lon="13.4594735"><ele>673.0</ele><time>2026-05-02T12:16:33.593Z</time></trkpt><trkpt lat="46.1689248" lon="13.4593916"><ele>673.0</ele><time>2026-05-02T12:16:34.593Z</time></trkpt><trkpt lat="46.1688671" lon="13.4592519"><ele>672.6666666666667</ele><time>2026-05-02T12:16:36.594Z</time></trkpt><trkpt lat="46.1688545" lon="13.459124"><ele>672.3333333333334</ele><time>2026-05-02T12:16:38.594Z</time></trkpt><trkpt lat="46.1688817" lon="13.4590088"><ele>672.0</ele><time>2026-05-02T12:16:40.594Z</time></trkpt><trkpt lat="46.1689163" lon="13.4589027"><ele>671.6666666666666</ele><time>2026-05-02T12:16:42.593Z</time></trkpt><trkpt lat="46.1689092" lon="13.4587862"><ele>671.3333333333333</ele><time>2026-05-02T12:16:44.595Z</time></trkpt><trkpt lat="46.1688892" lon="13.4586765"><ele>671.0</ele><time>2026-05-02T12:16:46.593Z</time></trkpt><trkpt lat="46.168848" lon="13.4585659"><ele>675.0</ele><time>2026-05-02T12:16:48.593Z</time></trkpt><trkpt lat="46.1687881" lon="13.4584566"><ele>679.0</ele><time>2026-05-02T12:16:50.595Z</time></trkpt><trkpt lat="46.1687002" lon="13.4583451"><ele>683.0</ele><time>2026-05-02T12:16:52.594Z</time></trkpt><trkpt lat="46.1686332" lon="13.4582069"><ele>687.0</ele><time>2026-05-02T12:16:54.595Z</time></trkpt><trkpt lat="46.1686026" lon="13.4580541"><ele>691.0</ele><time>2026-05-02T12:16:56.594Z</time></trkpt><trkpt lat="46.168606" lon="13.457899"><ele>693.5</ele><time>2026-05-02T12:16:58.593Z</time></trkpt><trkpt lat="46.1685812" lon="13.4577275"><ele>696.0</ele><time>2026-05-02T12:17:00.594Z</time></trkpt><trkpt lat="46.1685482" lon="13.4575613"><ele>698.5</ele><time>2026-05-02T12:17:02.596Z</time></trkpt><trkpt lat="46.1685217" lon="13.4574074"><ele>701.0</ele><time>2026-05-02T12:17:04.595Z</time></trkpt><trkpt lat="46.1685005" lon="13.45725"><ele>703.0</ele><time>2026-05-02T12:17:06.596Z</time></trkpt><trkpt lat="46.168486" lon="13.4570832"><ele>705.0</ele><time>2026-05-02T12:17:08.594Z</time></trkpt><trkpt lat="46.1684558" lon="13.4569473"><ele>707.0</ele><time>2026-05-02T12:17:10.594Z</time></trkpt><trkpt lat="46.1683977" lon="13.4568608"><ele>709.0</ele><time>2026-05-02T12:17:12.593Z</time></trkpt><trkpt lat="46.1683243" lon="13.4567762"><ele>711.0</ele><time>2026-05-02T12:17:14.593Z</time></trkpt><trkpt lat="46.1682418" lon="13.4566727"><ele>710.4</ele><time>2026-05-02T12:17:16.593Z</time></trkpt><trkpt lat="46.1681601" lon="13.4565475"><ele>709.8</ele><time>2026-05-02T12:17:18.593Z</time></trkpt><trkpt lat="46.168094" lon="13.4564004"><ele>709.1999999999999</ele><time>2026-05-02T12:17:20.594Z</time></trkpt><trkpt lat="46.1680625" lon="13.4563169"><ele>708.5999999999999</ele><time>2026-05-02T12:17:21.595Z</time></trkpt><trkpt lat="46.1680243" lon="13.4562188"><ele>708.0</ele><time>2026-05-02T12:17:22.594Z</time></trkpt><trkpt lat="46.1679879" lon="13.4561235"><ele>708.0</ele><time>2026-05-02T12:17:23.594Z</time></trkpt><trkpt lat="46.1679569" lon="13.4560273"><ele>708.0</ele><time>2026-05-02T12:17:24.593Z</time></trkpt><trkpt lat="46.167946" lon="13.4559181"><ele>708.0</ele><time>2026-05-02T12:17:25.594Z</time></trkpt><trkpt lat="46.1679487" lon="13.455789"><ele>708.0</ele><time>2026-05-02T12:17:26.596Z</time></trkpt><trkpt lat="46.1679483" lon="13.4556701"><ele>708.0</ele><time>2026-05-02T12:17:27.595Z</time></trkpt><trkpt lat="46.1679497" lon="13.4555603"><ele>708.0</ele><time>2026-05-02T12:17:28.594Z</time></trkpt><trkpt lat="46.1679627" lon="13.4554607"><ele>709.1666666666666</ele><time>2026-05-02T12:17:29.596Z</time></trkpt><trkpt lat="46.1679767" lon="13.455359"><ele>710.3333333333334</ele><time>2026-05-02T12:17:30.594Z</time></trkpt><trkpt lat="46.1679902" lon="13.4552611"><ele>711.5</ele><time>2026-05-02T12:17:31.593Z</time></trkpt><trkpt lat="46.1680175" lon="13.4550965"><ele>712.6666666666667</ele><time>2026-05-02T12:17:33.594Z</time></trkpt><trkpt lat="46.1680137" lon="13.454981"><ele>713.8333333333334</ele><time>2026-05-02T12:17:35.595Z</time></trkpt><trkpt lat="46.1679732" lon="13.4549013"><ele>715.0</ele><time>2026-05-02T12:17:37.595Z</time></trkpt><trkpt lat="46.1678653" lon="13.4547922"><ele>715.0</ele><time>2026-05-02T12:17:39.593Z</time></trkpt><trkpt lat="46.1677951" lon="13.4547109"><ele>715.0</ele><time>2026-05-02T12:17:40.594Z</time></trkpt><trkpt lat="46.1677279" lon="13.4546338"><ele>715.0</ele><time>2026-05-02T12:17:41.596Z</time></trkpt><trkpt lat="46.1676592" lon="13.454548"><ele>715.0</ele><time>2026-05-02T12:17:42.594Z</time></trkpt><trkpt lat="46.1675823" lon="13.4544515"><ele>715.0</ele><time>2026-05-02T12:17:43.597Z</time></trkpt><trkpt lat="46.16749" lon="13.4543626"><ele>715.4</ele><time>2026-05-02T12:17:44.594Z</time></trkpt><trkpt lat="46.1673964" lon="13.4542866"><ele>715.8</ele><time>2026-05-02T12:17:45.594Z</time></trkpt><trkpt lat="46.1673028" lon="13.4542192"><ele>716.2</ele><time>2026-05-02T12:17:46.594Z</time></trkpt><trkpt lat="46.1672092" lon="13.4541615"><ele>716.6</ele><time>2026-05-02T12:17:47.595Z</time></trkpt><trkpt lat="46.1671163" lon="13.4541062"><ele>717.0</ele><time>2026-05-02T12:17:48.595Z</time></trkpt><trkpt lat="46.167026" lon="13.4540467"><ele>717.0</ele><time>2026-05-02T12:17:49.593Z</time></trkpt><trkpt lat="46.166948" lon="13.4539891"><ele>717.0</ele><time>2026-05-02T12:17:50.594Z</time></trkpt><trkpt lat="46.1668792" lon="13.4539345"><ele>717.0</ele><time>2026-05-02T12:17:51.594Z</time></trkpt><trkpt lat="46.1668113" lon="13.4538886"><ele>717.0</ele><time>2026-05-02T12:17:52.594Z</time></trkpt><trkpt lat="46.1667036" lon="13.4538477"><ele>717.0</ele><time>2026-05-02T12:17:54.594Z</time></trkpt><trkpt lat="46.1666058" lon="13.4538654"><ele>714.4000000000001</ele><time>2026-05-02T12:17:56.595Z</time></trkpt><trkpt lat="46.1664886" lon="13.4539191"><ele>711.8000000000001</ele><time>2026-05-02T12:17:58.594Z</time></trkpt><trkpt lat="46.1663899" lon="13.4540008"><ele>709.2</ele><time>2026-05-02T12:18:00.595Z</time></trkpt><trkpt lat="46.1663218" lon="13.4540875"><ele>706.6</ele><time>2026-05-02T12:18:02.594Z</time></trkpt><trkpt lat="46.1662668" lon="13.4541622"><ele>704.0</ele><time>2026-05-02T12:18:04.594Z</time></trkpt><trkpt lat="46.1662239" lon="13.4542302"><ele>704.0</ele><time>2026-05-02T12:18:06.594Z</time></trkpt><trkpt lat="46.1661811" lon="13.454335"><ele>704.0</ele><time>2026-05-02T12:18:09.593Z</time></trkpt><trkpt lat="46.1661612" lon="13.4544505"><ele>704.0</ele><time>2026-05-02T12:18:11.593Z</time></trkpt><trkpt lat="46.1661372" lon="13.4545521"><ele>704.0</ele><time>2026-05-02T12:18:13.595Z</time></trkpt><trkpt lat="46.16612" lon="13.4546512"><ele>704.0</ele><time>2026-05-02T12:18:15.593Z</time></trkpt><trkpt lat="46.1660903" lon="13.4547448"><ele>704.0</ele><time>2026-05-02T12:18:17.594Z</time></trkpt><trkpt lat="46.1660432" lon="13.4548178"><ele>704.0</ele><time>2026-05-02T12:18:19.594Z</time></trkpt><trkpt lat="46.1659867" lon="13.4548608"><ele>704.0</ele><time>2026-05-02T12:18:21.594Z</time></trkpt><trkpt lat="46.1658954" lon="13.4548641"><ele>704.0</ele><time>2026-05-02T12:18:24.595Z</time></trkpt><trkpt lat="46.1658341" lon="13.4548178"><ele>704.0</ele><time>2026-05-02T12:18:29.663Z</time></trkpt><trkpt lat="46.1657701" lon="13.4546892"><ele>704.0</ele><time>2026-05-02T12:18:31.6Z</time></trkpt><trkpt lat="46.1657218" lon="13.4545538"><ele>704.0</ele><time>2026-05-02T12:18:33.656Z</time></trkpt><trkpt lat="46.1656784" lon="13.4544817"><ele>702.0</ele><time>2026-05-02T12:18:34.595Z</time></trkpt><trkpt lat="46.1656312" lon="13.4544181"><ele>700.0</ele><time>2026-05-02T12:18:35.594Z</time></trkpt><trkpt lat="46.1655808" lon="13.454354"><ele>698.0</ele><time>2026-05-02T12:18:36.593Z</time></trkpt><trkpt lat="46.1655316" lon="13.4542873"><ele>696.0</ele><time>2026-05-02T12:18:37.594Z</time></trkpt><trkpt lat="46.165432" lon="13.4541886"><ele>694.0</ele><time>2026-05-02T12:18:39.594Z</time></trkpt><trkpt lat="46.1653265" lon="13.4541424"><ele>692.0</ele><time>2026-05-02T12:18:41.592Z</time></trkpt><trkpt lat="46.1652112" lon="13.4541302"><ele>692.0</ele><time>2026-05-02T12:18:43.594Z</time></trkpt><trkpt lat="46.1651186" lon="13.4541291"><ele>692.0</ele><time>2026-05-02T12:18:45.593Z</time></trkpt><trkpt lat="46.1650207" lon="13.4541169"><ele>692.0</ele><time>2026-05-02T12:18:47.593Z</time></trkpt><trkpt lat="46.1649601" lon="13.454091"><ele>692.0</ele><time>2026-05-02T12:18:48.594Z</time></trkpt><trkpt lat="46.164895" lon="13.4540623"><ele>692.0</ele><time>2026-05-02T12:18:49.593Z</time></trkpt><trkpt lat="46.1648347" lon="13.454036"><ele>692.0</ele><time>2026-05-02T12:18:50.594Z</time></trkpt><trkpt lat="46.1647284" lon="13.4540002"><ele>690.0</ele><time>2026-05-02T12:18:52.595Z</time></trkpt><trkpt lat="46.1646239" lon="13.4540241"><ele>688.0</ele><time>2026-05-02T12:18:54.593Z</time></trkpt><trkpt lat="46.1645169" lon="13.454069"><ele>686.0</ele><time>2026-05-02T12:18:56.593Z</time></trkpt><trkpt lat="46.1644055" lon="13.454092"><ele>684.0</ele><time>2026-05-02T12:18:58.592Z</time></trkpt><trkpt lat="46.1643175" lon="13.4540661"><ele>682.0</ele><time>2026-05-02T12:19:00.594Z</time></trkpt><trkpt lat="46.1642452" lon="13.4540443"><ele>682.0</ele><time>2026-05-02T12:19:02.593Z</time></trkpt><trkpt lat="46.1641833" lon="13.4541211"><ele>682.0</ele><time>2026-05-02T12:19:05.594Z</time></trkpt><trkpt lat="46.1641545" lon="13.4542323"><ele>682.0</ele><time>2026-05-02T12:19:08.594Z</time></trkpt><trkpt lat="46.1640659" lon="13.4542504"><ele>682.0</ele><time>2026-05-02T12:19:11.594Z</time></trkpt><trkpt lat="46.1639968" lon="13.4542213"><ele>682.0</ele><time>2026-05-02T12:19:13.592Z</time></trkpt><trkpt lat="46.1639322" lon="13.4541617"><ele>682.0</ele><time>2026-05-02T12:19:15.593Z</time></trkpt><trkpt lat="46.1638695" lon="13.4540726"><ele>679.6</ele><time>2026-05-02T12:19:17.594Z</time></trkpt><trkpt lat="46.1638124" lon="13.4540112"><ele>677.2</ele><time>2026-05-02T12:19:19.594Z</time></trkpt><trkpt lat="46.163725" lon="13.4539728"><ele>674.8</ele><time>2026-05-02T12:19:22.593Z</time></trkpt><trkpt lat="46.163647" lon="13.4539861"><ele>672.4</ele><time>2026-05-02T12:19:24.593Z</time></trkpt><trkpt lat="46.1635531" lon="13.4540366"><ele>670.0</ele><time>2026-05-02T12:19:26.595Z</time></trkpt><trkpt lat="46.1634501" lon="13.4541095"><ele>670.0</ele><time>2026-05-02T12:19:28.593Z</time></trkpt><trkpt lat="46.1633715" lon="13.4541656"><ele>670.0</ele><time>2026-05-02T12:19:30.593Z</time></trkpt><trkpt lat="46.1633056" lon="13.4542014"><ele>670.0</ele><time>2026-05-02T12:19:32.594Z</time></trkpt><trkpt lat="46.1632747" lon="13.4542994"><ele>670.0</ele><time>2026-05-02T12:19:35.594Z</time></trkpt><trkpt lat="46.1633056" lon="13.4544042"><ele>670.0</ele><time>2026-05-02T12:19:37.593Z</time></trkpt><trkpt lat="46.1633471" lon="13.4545462"><ele>670.0</ele><time>2026-05-02T12:19:39.595Z</time></trkpt><trkpt lat="46.1633779" lon="13.454681"><ele>665.6</ele><time>2026-05-02T12:19:41.594Z</time></trkpt><trkpt lat="46.1634036" lon="13.4548361"><ele>661.2</ele><time>2026-05-02T12:19:43.594Z</time></trkpt><trkpt lat="46.1634179" lon="13.4549267"><ele>656.8</ele><time>2026-05-02T12:19:44.592Z</time></trkpt><trkpt lat="46.1634434" lon="13.4550946"><ele>652.4</ele><time>2026-05-02T12:19:46.593Z</time></trkpt><trkpt lat="46.1634451" lon="13.4552395"><ele>648.0</ele><time>2026-05-02T12:19:48.594Z</time></trkpt><trkpt lat="46.1634064" lon="13.4553118"><ele>648.0</ele><time>2026-05-02T12:19:50.593Z</time></trkpt><trkpt lat="46.1633179" lon="13.4553048"><ele>648.0</ele><time>2026-05-02T12:19:53.593Z</time></trkpt><trkpt lat="46.1632564" lon="13.455207"><ele>648.0</ele><time>2026-05-02T12:19:55.593Z</time></trkpt><trkpt lat="46.1631887" lon="13.4550778"><ele>648.0</ele><time>2026-05-02T12:19:57.593Z</time></trkpt><trkpt lat="46.1631074" lon="13.4549488"><ele>648.0</ele><time>2026-05-02T12:19:59.594Z</time></trkpt><trkpt lat="46.1630199" lon="13.454849"><ele>645.8</ele><time>2026-05-02T12:20:01.595Z</time></trkpt><trkpt lat="46.1629223" lon="13.4547892"><ele>643.5999999999999</ele><time>2026-05-02T12:20:03.592Z</time></trkpt><trkpt lat="46.1628153" lon="13.4547707"><ele>641.4000000000001</ele><time>2026-05-02T12:20:05.595Z</time></trkpt><trkpt lat="46.1627098" lon="13.4547601"><ele>639.2</ele><time>2026-05-02T12:20:07.593Z</time></trkpt><trkpt lat="46.162618" lon="13.4547286"><ele>637.0</ele><time>2026-05-02T12:20:09.592Z</time></trkpt><trkpt lat="46.1625353" lon="13.45471"><ele>637.0</ele><time>2026-05-02T12:20:11.593Z</time></trkpt><trkpt lat="46.1624184" lon="13.4546915"><ele>637.0</ele><time>2026-05-02T12:20:13.595Z</time></trkpt><trkpt lat="46.1623375" lon="13.4546801"><ele>637.0</ele><time>2026-05-02T12:20:14.595Z</time></trkpt><trkpt lat="46.1622524" lon="13.4546745"><ele>637.0</ele><time>2026-05-02T12:20:15.593Z</time></trkpt><trkpt lat="46.1621703" lon="13.454676"><ele>637.0</ele><time>2026-05-02T12:20:16.594Z</time></trkpt><trkpt lat="46.1620956" lon="13.4546875"><ele>637.0</ele><time>2026-05-02T12:20:17.594Z</time></trkpt><trkpt lat="46.1620186" lon="13.4547182"><ele>640.3333333333334</ele><time>2026-05-02T12:20:18.594Z</time></trkpt><trkpt lat="46.1619465" lon="13.4547672"><ele>643.6666666666667</ele><time>2026-05-02T12:20:19.593Z</time></trkpt><trkpt lat="46.1618761" lon="13.4548245"><ele>647.0</ele><time>2026-05-02T12:20:20.595Z</time></trkpt><trkpt lat="46.1618023" lon="13.4548849"><ele>650.3333333333334</ele><time>2026-05-02T12:20:21.593Z</time></trkpt><trkpt lat="46.1617292" lon="13.4549475"><ele>653.6666666666666</ele><time>2026-05-02T12:20:22.593Z</time></trkpt><trkpt lat="46.161655" lon="13.4550012"><ele>657.0</ele><time>2026-05-02T12:20:23.593Z</time></trkpt><trkpt lat="46.1615787" lon="13.4550442"><ele>659.4000000000001</ele><time>2026-05-02T12:20:24.593Z</time></trkpt><trkpt lat="46.1614947" lon="13.4550898"><ele>661.8000000000001</ele><time>2026-05-02T12:20:25.593Z</time></trkpt><trkpt lat="46.161411" lon="13.4551198"><ele>664.2</ele><time>2026-05-02T12:20:26.593Z</time></trkpt><trkpt lat="46.1613269" lon="13.4551531"><ele>666.6</ele><time>2026-05-02T12:20:27.593Z</time></trkpt><trkpt lat="46.161235" lon="13.4551769"><ele>669.0</ele><time>2026-05-02T12:20:28.592Z</time></trkpt><trkpt lat="46.1611415" lon="13.4551923"><ele>669.0</ele><time>2026-05-02T12:20:29.594Z</time></trkpt><trkpt lat="46.16105" lon="13.4552213"><ele>669.0</ele><time>2026-05-02T12:20:30.593Z</time></trkpt><trkpt lat="46.1609612" lon="13.4552442"><ele>669.0</ele><time>2026-05-02T12:20:31.593Z</time></trkpt><trkpt lat="46.1608769" lon="13.4552696"><ele>669.0</ele><time>2026-05-02T12:20:32.594Z</time></trkpt><trkpt lat="46.1607985" lon="13.4552858"><ele>669.0</ele><time>2026-05-02T12:20:33.594Z</time></trkpt><trkpt lat="46.1607288" lon="13.4552946"><ele>669.0</ele><time>2026-05-02T12:20:34.594Z</time></trkpt><trkpt lat="46.1606615" lon="13.4552875"><ele>672.2</ele><time>2026-05-02T12:20:35.593Z</time></trkpt><trkpt lat="46.1605921" lon="13.4552713"><ele>675.4000000000001</ele><time>2026-05-02T12:20:36.595Z</time></trkpt><trkpt lat="46.160528" lon="13.4552542"><ele>678.6</ele><time>2026-05-02T12:20:37.593Z</time></trkpt><trkpt lat="46.1604181" lon="13.4552749"><ele>681.8</ele><time>2026-05-02T12:20:39.592Z</time></trkpt><trkpt lat="46.1602992" lon="13.4553688"><ele>685.0</ele><time>2026-05-02T12:20:41.596Z</time></trkpt><trkpt lat="46.160228" lon="13.4554452"><ele>683.3333333333334</ele><time>2026-05-02T12:20:42.594Z</time></trkpt><trkpt lat="46.1601521" lon="13.4555388"><ele>681.6666666666667</ele><time>2026-05-02T12:20:43.594Z</time></trkpt><trkpt lat="46.1600749" lon="13.455622"><ele>680.0</ele><time>2026-05-02T12:20:44.594Z</time></trkpt><trkpt lat="46.1600003" lon="13.4556988"><ele>678.3333333333334</ele><time>2026-05-02T12:20:45.593Z</time></trkpt><trkpt lat="46.159937" lon="13.4557774"><ele>676.6666666666666</ele><time>2026-05-02T12:20:46.593Z</time></trkpt><trkpt lat="46.1598888" lon="13.4558641"><ele>675.0</ele><time>2026-05-02T12:20:47.593Z</time></trkpt><trkpt lat="46.1598605" lon="13.4559613"><ele>675.0</ele><time>2026-05-02T12:20:48.593Z</time></trkpt><trkpt lat="46.1598468" lon="13.4560657"><ele>675.0</ele><time>2026-05-02T12:20:49.593Z</time></trkpt><trkpt lat="46.1598385" lon="13.4561814"><ele>675.0</ele><time>2026-05-02T12:20:50.594Z</time></trkpt><trkpt lat="46.1598252" lon="13.4562972"><ele>675.0</ele><time>2026-05-02T12:20:51.593Z</time></trkpt><trkpt lat="46.1598019" lon="13.4563999"><ele>675.0</ele><time>2026-05-02T12:20:52.593Z</time></trkpt><trkpt lat="46.1597683" lon="13.4564769"><ele>675.0</ele><time>2026-05-02T12:20:53.593Z</time></trkpt><trkpt lat="46.1596749" lon="13.4565638"><ele>673.0</ele><time>2026-05-02T12:20:55.595Z</time></trkpt><trkpt lat="46.159584" lon="13.4565921"><ele>671.0</ele><time>2026-05-02T12:20:57.593Z</time></trkpt><trkpt lat="46.1594579" lon="13.4565716"><ele>669.0</ele><time>2026-05-02T12:20:59.594Z</time></trkpt><trkpt lat="46.1593862" lon="13.4565355"><ele>667.0</ele><time>2026-05-02T12:21:00.593Z</time></trkpt><trkpt lat="46.1593104" lon="13.456485"><ele>665.0</ele><time>2026-05-02T12:21:01.593Z</time></trkpt><trkpt lat="46.1592338" lon="13.4564303"><ele>665.0</ele><time>2026-05-02T12:21:02.595Z</time></trkpt><trkpt lat="46.1591579" lon="13.4563842"><ele>665.0</ele><time>2026-05-02T12:21:03.594Z</time></trkpt><trkpt lat="46.1590885" lon="13.456362"><ele>665.0</ele><time>2026-05-02T12:21:04.594Z</time></trkpt><trkpt lat="46.1590168" lon="13.456365"><ele>665.0</ele><time>2026-05-02T12:21:05.593Z</time></trkpt><trkpt lat="46.1589427" lon="13.4563708"><ele>665.0</ele><time>2026-05-02T12:21:06.594Z</time></trkpt><trkpt lat="46.1588743" lon="13.4563586"><ele>665.0</ele><time>2026-05-02T12:21:07.594Z</time></trkpt><trkpt lat="46.1588117" lon="13.4563316"><ele>665.0</ele><time>2026-05-02T12:21:08.594Z</time></trkpt><trkpt lat="46.1587548" lon="13.4562843"><ele>665.0</ele><time>2026-05-02T12:21:09.594Z</time></trkpt><trkpt lat="46.158705" lon="13.4562219"><ele>665.0</ele><time>2026-05-02T12:21:10.594Z</time></trkpt><trkpt lat="46.158663" lon="13.4561469"><ele>665.0</ele><time>2026-05-02T12:21:11.593Z</time></trkpt><trkpt lat="46.158632" lon="13.4560521"><ele>665.0</ele><time>2026-05-02T12:21:12.594Z</time></trkpt><trkpt lat="46.1586044" lon="13.4559445"><ele>665.0</ele><time>2026-05-02T12:21:13.593Z</time></trkpt><trkpt lat="46.1585722" lon="13.4558248"><ele>665.0</ele><time>2026-05-02T12:21:14.595Z</time></trkpt><trkpt lat="46.1585338" lon="13.4556895"><ele>665.0</ele><time>2026-05-02T12:21:15.593Z</time></trkpt><trkpt lat="46.15849" lon="13.4555598"><ele>665.0</ele><time>2026-05-02T12:21:16.594Z</time></trkpt><trkpt lat="46.1584407" lon="13.4554361"><ele>665.0</ele><time>2026-05-02T12:21:17.594Z</time></trkpt><trkpt lat="46.1583893" lon="13.4553268"><ele>665.0</ele><time>2026-05-02T12:21:18.593Z</time></trkpt><trkpt lat="46.1583426" lon="13.4552368"><ele>665.0</ele><time>2026-05-02T12:21:19.593Z</time></trkpt><trkpt lat="46.1583054" lon="13.4551503"><ele>665.0</ele><time>2026-05-02T12:21:20.595Z</time></trkpt><trkpt lat="46.1582755" lon="13.4550525"><ele>666.8333333333333</ele><time>2026-05-02T12:21:21.594Z</time></trkpt><trkpt lat="46.158249" lon="13.4549397"><ele>668.6666666666666</ele><time>2026-05-02T12:21:22.594Z</time></trkpt><trkpt lat="46.1582223" lon="13.4548317"><ele>670.5</ele><time>2026-05-02T12:21:23.594Z</time></trkpt><trkpt lat="46.1581974" lon="13.4547376"><ele>672.3333333333334</ele><time>2026-05-02T12:21:24.595Z</time></trkpt><trkpt lat="46.1581608" lon="13.4545768"><ele>674.1666666666667</ele><time>2026-05-02T12:21:26.596Z</time></trkpt><trkpt lat="46.1581389" lon="13.4544608"><ele>676.0</ele><time>2026-05-02T12:21:28.596Z</time></trkpt><trkpt lat="46.1580769" lon="13.4543983"><ele>676.0</ele><time>2026-05-02T12:21:31.593Z</time></trkpt><trkpt lat="46.1580113" lon="13.4544503"><ele>676.0</ele><time>2026-05-02T12:21:33.594Z</time></trkpt><trkpt lat="46.1579055" lon="13.4545776"><ele>676.0</ele><time>2026-05-02T12:21:35.593Z</time></trkpt><trkpt lat="46.1578276" lon="13.4546742"><ele>676.0</ele><time>2026-05-02T12:21:36.593Z</time></trkpt><trkpt lat="46.1577494" lon="13.4547694"><ele>676.0</ele><time>2026-05-02T12:21:37.595Z</time></trkpt><trkpt lat="46.1576789" lon="13.4548593"><ele>676.0</ele><time>2026-05-02T12:21:38.594Z</time></trkpt><trkpt lat="46.1576202" lon="13.454939"><ele>676.0</ele><time>2026-05-02T12:21:39.593Z</time></trkpt><trkpt lat="46.1575759" lon="13.4550048"><ele>676.0</ele><time>2026-05-02T12:21:40.596Z</time></trkpt><trkpt lat="46.1575081" lon="13.4550415"><ele>676.0</ele><time>2026-05-02T12:21:42.593Z</time></trkpt><trkpt lat="46.1574504" lon="13.4549995"><ele>676.0</ele><time>2026-05-02T12:21:44.595Z</time></trkpt><trkpt lat="46.1573949" lon="13.4549465"><ele>676.0</ele><time>2026-05-02T12:21:46.594Z</time></trkpt><trkpt lat="46.1573175" lon="13.4549525"><ele>676.0</ele><time>2026-05-02T12:21:49.593Z</time></trkpt><trkpt lat="46.1572494" lon="13.4549655"><ele>675.0</ele><time>2026-05-02T12:21:54.594Z</time></trkpt><trkpt lat="46.1571704" lon="13.4549648"><ele>674.0</ele><time>2026-05-02T12:21:55.595Z</time></trkpt><trkpt lat="46.1570726" lon="13.4549643"><ele>673.0</ele><time>2026-05-02T12:21:56.595Z</time></trkpt><trkpt lat="46.1569691" lon="13.454963"><ele>672.0</ele><time>2026-05-02T12:21:57.595Z</time></trkpt><trkpt lat="46.1568685" lon="13.4549508"><ele>671.0</ele><time>2026-05-02T12:21:58.594Z</time></trkpt><trkpt lat="46.1567792" lon="13.4549386"><ele>671.0</ele><time>2026-05-02T12:21:59.593Z</time></trkpt><trkpt lat="46.1566975" lon="13.4549253"><ele>671.0</ele><time>2026-05-02T12:22:00.594Z</time></trkpt><trkpt lat="46.1566233" lon="13.4549114"><ele>671.0</ele><time>2026-05-02T12:22:01.594Z</time></trkpt><trkpt lat="46.1565495" lon="13.4548925"><ele>671.0</ele><time>2026-05-02T12:22:02.593Z</time></trkpt><trkpt lat="46.1564722" lon="13.4548655"><ele>671.0</ele><time>2026-05-02T12:22:03.594Z</time></trkpt><trkpt lat="46.1563976" lon="13.4548317"><ele>671.0</ele><time>2026-05-02T12:22:04.595Z</time></trkpt><trkpt lat="46.1563302" lon="13.4548039"><ele>671.4285714285714</ele><time>2026-05-02T12:22:05.595Z</time></trkpt><trkpt lat="46.1562644" lon="13.4547907"><ele>671.8571428571429</ele><time>2026-05-02T12:22:06.594Z</time></trkpt><trkpt lat="46.1561951" lon="13.4547874"><ele>672.2857142857143</ele><time>2026-05-02T12:22:07.594Z</time></trkpt><trkpt lat="46.1561216" lon="13.454786"><ele>672.7142857142858</ele><time>2026-05-02T12:22:08.595Z</time></trkpt><trkpt lat="46.1560466" lon="13.4547815"><ele>673.1428571428571</ele><time>2026-05-02T12:22:09.593Z</time></trkpt><trkpt lat="46.1559679" lon="13.4547604"><ele>673.5714285714287</ele><time>2026-05-02T12:22:10.593Z</time></trkpt><trkpt lat="46.1558855" lon="13.4547389"><ele>674.0</ele><time>2026-05-02T12:22:11.594Z</time></trkpt><trkpt lat="46.1558018" lon="13.4547114"><ele>674.0000000000001</ele><time>2026-05-02T12:22:12.597Z</time></trkpt><trkpt lat="46.1557273" lon="13.4546716"><ele>674.0</ele><time>2026-05-02T12:22:13.594Z</time></trkpt><trkpt lat="46.1556636" lon="13.4546308"><ele>674.0</ele><time>2026-05-02T12:22:14.594Z</time></trkpt><trkpt lat="46.1556013" lon="13.4545939"><ele>674.0</ele><time>2026-05-02T12:22:15.594Z</time></trkpt><trkpt lat="46.1555417" lon="13.4545604"><ele>674.0</ele><time>2026-05-02T12:22:16.596Z</time></trkpt><trkpt lat="46.1554554" lon="13.4545145"><ele>674.0000000000001</ele><time>2026-05-02T12:22:18.593Z</time></trkpt><trkpt lat="46.1553829" lon="13.4545287"><ele>674.0</ele><time>2026-05-02T12:22:20.594Z</time></trkpt><trkpt lat="46.1552898" lon="13.4545978"><ele>677.25</ele><time>2026-05-02T12:22:22.594Z</time></trkpt><trkpt lat="46.1552387" lon="13.4547186"><ele>680.5</ele><time>2026-05-02T12:22:23.594Z</time></trkpt><trkpt lat="46.1551855" lon="13.4548748"><ele>683.75</ele><time>2026-05-02T12:22:24.593Z</time></trkpt><trkpt lat="46.1551344" lon="13.4550347"><ele>687.0</ele><time>2026-05-02T12:22:25.593Z</time></trkpt><trkpt lat="46.1550756" lon="13.4551826"><ele>687.0</ele><time>2026-05-02T12:22:26.594Z</time></trkpt><trkpt lat="46.1550148" lon="13.4553037"><ele>687.0</ele><time>2026-05-02T12:22:27.593Z</time></trkpt><trkpt lat="46.1549639" lon="13.4554081"><ele>687.0</ele><time>2026-05-02T12:22:28.594Z</time></trkpt><trkpt lat="46.1549185" lon="13.4554992"><ele>687.0</ele><time>2026-05-02T12:22:29.596Z</time></trkpt><trkpt lat="46.1548754" lon="13.4555831"><ele>687.0</ele><time>2026-05-02T12:22:30.595Z</time></trkpt><trkpt lat="46.15483" lon="13.4556486"><ele>687.0</ele><time>2026-05-02T12:22:31.594Z</time></trkpt><trkpt lat="46.1547801" lon="13.4557094"><ele>687.3333333333334</ele><time>2026-05-02T12:22:32.594Z</time></trkpt><trkpt lat="46.1547223" lon="13.4557591"><ele>687.6666666666666</ele><time>2026-05-02T12:22:33.593Z</time></trkpt><trkpt lat="46.1546158" lon="13.4557983"><ele>688.0</ele><time>2026-05-02T12:22:35.595Z</time></trkpt><trkpt lat="46.1545448" lon="13.4558119"><ele>688.3333333333333</ele><time>2026-05-02T12:22:38.596Z</time></trkpt><trkpt lat="46.1544838" lon="13.455838"><ele>688.6666666666666</ele><time>2026-05-02T12:22:42.595Z</time></trkpt><trkpt lat="46.1544087" lon="13.4558806"><ele>689.0</ele><time>2026-05-02T12:22:43.594Z</time></trkpt><trkpt lat="46.154334" lon="13.4559322"><ele>689.0</ele><time>2026-05-02T12:22:44.594Z</time></trkpt><trkpt lat="46.1542567" lon="13.4559902"><ele>689.0</ele><time>2026-05-02T12:22:45.595Z</time></trkpt><trkpt lat="46.1541797" lon="13.4560556"><ele>689.0</ele><time>2026-05-02T12:22:46.594Z</time></trkpt><trkpt lat="46.1540998" lon="13.4561307"><ele>689.0</ele><time>2026-05-02T12:22:47.594Z</time></trkpt><trkpt lat="46.1540257" lon="13.456195"><ele>689.0</ele><time>2026-05-02T12:22:48.593Z</time></trkpt><trkpt lat="46.1539605" lon="13.4562485"><ele>689.0</ele><time>2026-05-02T12:22:49.594Z</time></trkpt><trkpt lat="46.1538859" lon="13.4562864"><ele>689.2</ele><time>2026-05-02T12:22:50.594Z</time></trkpt><trkpt lat="46.1538025" lon="13.4563116"><ele>689.4000000000001</ele><time>2026-05-02T12:22:51.595Z</time></trkpt><trkpt lat="46.1537081" lon="13.4563123"><ele>689.6</ele><time>2026-05-02T12:22:52.594Z</time></trkpt><trkpt lat="46.1536073" lon="13.4563019"><ele>689.8</ele><time>2026-05-02T12:22:53.595Z</time></trkpt><trkpt lat="46.1535072" lon="13.4562884"><ele>690.0</ele><time>2026-05-02T12:22:54.594Z</time></trkpt><trkpt lat="46.1534081" lon="13.4562728"><ele>690.0</ele><time>2026-05-02T12:22:55.594Z</time></trkpt><trkpt lat="46.1533145" lon="13.4562538"><ele>690.0</ele><time>2026-05-02T12:22:56.596Z</time></trkpt><trkpt lat="46.1532277" lon="13.45624"><ele>690.0</ele><time>2026-05-02T12:22:57.595Z</time></trkpt><trkpt lat="46.1531509" lon="13.4562337"><ele>690.0</ele><time>2026-05-02T12:22:58.593Z</time></trkpt><trkpt lat="46.1530876" lon="13.4562304"><ele>690.0</ele><time>2026-05-02T12:22:59.595Z</time></trkpt><trkpt lat="46.1529816" lon="13.4562534"><ele>690.0</ele><time>2026-05-02T12:23:01.595Z</time></trkpt><trkpt lat="46.1528875" lon="13.4563391"><ele>688.3333333333334</ele><time>2026-05-02T12:23:03.593Z</time></trkpt><trkpt lat="46.1528163" lon="13.4564737"><ele>686.6666666666666</ele><time>2026-05-02T12:23:05.594Z</time></trkpt><trkpt lat="46.1527804" lon="13.4565655"><ele>685.0</ele><time>2026-05-02T12:23:06.594Z</time></trkpt><trkpt lat="46.1527414" lon="13.4566649"><ele>683.3333333333333</ele><time>2026-05-02T12:23:07.595Z</time></trkpt><trkpt lat="46.1526986" lon="13.456769"><ele>681.6666666666666</ele><time>2026-05-02T12:23:08.595Z</time></trkpt><trkpt lat="46.1526523" lon="13.4568754"><ele>680.0</ele><time>2026-05-02T12:23:09.593Z</time></trkpt><trkpt lat="46.1526065" lon="13.4569776"><ele>680.0</ele><time>2026-05-02T12:23:10.594Z</time></trkpt><trkpt lat="46.1525622" lon="13.4570755"><ele>680.0</ele><time>2026-05-02T12:23:11.594Z</time></trkpt><trkpt lat="46.1525191" lon="13.4571717"><ele>680.0</ele><time>2026-05-02T12:23:12.594Z</time></trkpt><trkpt lat="46.1524692" lon="13.4572621"><ele>680.0</ele><time>2026-05-02T12:23:13.595Z</time></trkpt><trkpt lat="46.1524119" lon="13.4573408"><ele>680.0</ele><time>2026-05-02T12:23:14.595Z</time></trkpt><trkpt lat="46.1523427" lon="13.4574084"><ele>680.0</ele><time>2026-05-02T12:23:15.594Z</time></trkpt><trkpt lat="46.1522685" lon="13.4574572"><ele>680.3333333333333</ele><time>2026-05-02T12:23:16.593Z</time></trkpt><trkpt lat="46.1521865" lon="13.4574903"><ele>680.6666666666666</ele><time>2026-05-02T12:23:17.594Z</time></trkpt><trkpt lat="46.1521058" lon="13.4575228"><ele>681.0</ele><time>2026-05-02T12:23:18.594Z</time></trkpt><trkpt lat="46.1520316" lon="13.4575589"><ele>681.3333333333334</ele><time>2026-05-02T12:23:19.595Z</time></trkpt><trkpt lat="46.1519628" lon="13.4575852"><ele>681.6666666666667</ele><time>2026-05-02T12:23:20.595Z</time></trkpt><trkpt lat="46.1518918" lon="13.4575966"><ele>682.0</ele><time>2026-05-02T12:23:21.594Z</time></trkpt><trkpt lat="46.1518242" lon="13.4575824"><ele>682.0</ele><time>2026-05-02T12:23:22.595Z</time></trkpt><trkpt lat="46.1517651" lon="13.4575425"><ele>682.0</ele><time>2026-05-02T12:23:23.594Z</time></trkpt><trkpt lat="46.151713" lon="13.4574795"><ele>682.0</ele><time>2026-05-02T12:23:24.593Z</time></trkpt><trkpt lat="46.1516652" lon="13.4574118"><ele>682.0</ele><time>2026-05-02T12:23:25.595Z</time></trkpt><trkpt lat="46.1515785" lon="13.457345"><ele>682.0</ele><time>2026-05-02T12:23:27.593Z</time></trkpt><trkpt lat="46.1514892" lon="13.4573567"><ele>682.0</ele><time>2026-05-02T12:23:29.593Z</time></trkpt><trkpt lat="46.1513963" lon="13.4574165"><ele>682.0</ele><time>2026-05-02T12:23:31.594Z</time></trkpt><trkpt lat="46.1513022" lon="13.4575152"><ele>682.0</ele><time>2026-05-02T12:23:33.595Z</time></trkpt><trkpt lat="46.151194" lon="13.4575932"><ele>682.0</ele><time>2026-05-02T12:23:35.594Z</time></trkpt><trkpt lat="46.1510674" lon="13.4575965"><ele>682.0</ele><time>2026-05-02T12:23:37.594Z</time></trkpt><trkpt lat="46.1510044" lon="13.4575843"><ele>682.0</ele><time>2026-05-02T12:23:38.594Z</time></trkpt><trkpt lat="46.1509407" lon="13.4575753"><ele>682.0</ele><time>2026-05-02T12:23:39.594Z</time></trkpt><trkpt lat="46.1508769" lon="13.4575674"><ele>682.0</ele><time>2026-05-02T12:23:40.594Z</time></trkpt><trkpt lat="46.1508128" lon="13.4575558"><ele>682.0</ele><time>2026-05-02T12:23:41.594Z</time></trkpt><trkpt lat="46.1507475" lon="13.4575456"><ele>682.0</ele><time>2026-05-02T12:23:42.593Z</time></trkpt><trkpt lat="46.1506753" lon="13.4575445"><ele>682.0</ele><time>2026-05-02T12:23:43.595Z</time></trkpt><trkpt lat="46.1505974" lon="13.4575535"><ele>682.0</ele><time>2026-05-02T12:23:44.596Z</time></trkpt><trkpt lat="46.1505214" lon="13.4575674"><ele>682.0</ele><time>2026-05-02T12:23:45.595Z</time></trkpt><trkpt lat="46.1504468" lon="13.4575776"><ele>681.5714285714286</ele><time>2026-05-02T12:23:46.594Z</time></trkpt><trkpt lat="46.1503708" lon="13.4575739"><ele>681.1428571428571</ele><time>2026-05-02T12:23:47.594Z</time></trkpt><trkpt lat="46.150302" lon="13.4575574"><ele>680.7142857142858</ele><time>2026-05-02T12:23:48.595Z</time></trkpt><trkpt lat="46.1502327" lon="13.4575417"><ele>680.2857142857142</ele><time>2026-05-02T12:23:49.594Z</time></trkpt><trkpt lat="46.1501571" lon="13.4575387"><ele>679.8571428571429</ele><time>2026-05-02T12:23:50.596Z</time></trkpt><trkpt lat="46.1500838" lon="13.4575518"><ele>679.4285714285714</ele><time>2026-05-02T12:23:51.593Z</time></trkpt><trkpt lat="46.1500148" lon="13.457575"><ele>679.0</ele><time>2026-05-02T12:23:52.595Z</time></trkpt><trkpt lat="46.1499461" lon="13.4576074"><ele>677.25</ele><time>2026-05-02T12:23:53.593Z</time></trkpt><trkpt lat="46.149867" lon="13.4576696"><ele>675.5</ele><time>2026-05-02T12:23:54.593Z</time></trkpt><trkpt lat="46.1497731" lon="13.4577659"><ele>673.75</ele><time>2026-05-02T12:23:55.595Z</time></trkpt><trkpt lat="46.1496699" lon="13.4578628"><ele>672.0</ele><time>2026-05-02T12:23:56.595Z</time></trkpt><trkpt lat="46.1495654" lon="13.4579529"><ele>672.0</ele><time>2026-05-02T12:23:57.594Z</time></trkpt><trkpt lat="46.1494617" lon="13.4580367"><ele>672.0</ele><time>2026-05-02T12:23:58.594Z</time></trkpt><trkpt lat="46.149365" lon="13.4581033"><ele>672.0</ele><time>2026-05-02T12:23:59.595Z</time></trkpt><trkpt lat="46.14927" lon="13.4581317"><ele>672.0</ele><time>2026-05-02T12:24:00.594Z</time></trkpt><trkpt lat="46.1491783" lon="13.458195"><ele>672.0</ele><time>2026-05-02T12:24:01.595Z</time></trkpt><trkpt lat="46.14911" lon="13.4583033"><ele>672.0</ele><time>2026-05-02T12:24:02.596Z</time></trkpt><trkpt lat="46.1490483" lon="13.45843"><ele>672.0</ele><time>2026-05-02T12:24:03.593Z</time></trkpt><trkpt lat="46.1489883" lon="13.4585317"><ele>672.0</ele><time>2026-05-02T12:24:04.594Z</time></trkpt><trkpt lat="46.1489417" lon="13.4586383"><ele>672.0</ele><time>2026-05-02T12:24:05.593Z</time></trkpt><trkpt lat="46.1489267" lon="13.45877"><ele>672.0</ele><time>2026-05-02T12:24:06.593Z</time></trkpt><trkpt lat="46.14892" lon="13.4589033"><ele>670.3333333333334</ele><time>2026-05-02T12:24:07.594Z</time></trkpt><trkpt lat="46.1488883" lon="13.459015"><ele>668.6666666666666</ele><time>2026-05-02T12:24:08.594Z</time></trkpt><trkpt lat="46.148845" lon="13.4591183"><ele>667.0</ele><time>2026-05-02T12:24:09.593Z</time></trkpt><trkpt lat="46.1487883" lon="13.459205"><ele>665.3333333333333</ele><time>2026-05-02T12:24:10.594Z</time></trkpt><trkpt lat="46.1487217" lon="13.459275"><ele>663.6666666666666</ele><time>2026-05-02T12:24:11.594Z</time></trkpt><trkpt lat="46.1486267" lon="13.459325"><ele>662.0</ele><time>2026-05-02T12:24:12.594Z</time></trkpt><trkpt lat="46.148515" lon="13.4593917"><ele>662.0</ele><time>2026-05-02T12:24:13.594Z</time></trkpt><trkpt lat="46.1484017" lon="13.4594433"><ele>662.0</ele><time>2026-05-02T12:24:14.595Z</time></trkpt><trkpt lat="46.148295" lon="13.4595067"><ele>662.0</ele><time>2026-05-02T12:24:15.592Z</time></trkpt><trkpt lat="46.14817" lon="13.4595633"><ele>662.0</ele><time>2026-05-02T12:24:16.593Z</time></trkpt><trkpt lat="46.1480467" lon="13.45961"><ele>663.25</ele><time>2026-05-02T12:24:17.593Z</time></trkpt><trkpt lat="46.147925" lon="13.4596883"><ele>664.5</ele><time>2026-05-02T12:24:18.593Z</time></trkpt><trkpt lat="46.1478117" lon="13.4598117"><ele>665.75</ele><time>2026-05-02T12:24:19.592Z</time></trkpt><trkpt lat="46.1476967" lon="13.4599383"><ele>667.0</ele><time>2026-05-02T12:24:20.594Z</time></trkpt><trkpt lat="46.1475833" lon="13.4600767"><ele>667.0</ele><time>2026-05-02T12:24:21.593Z</time></trkpt><trkpt lat="46.147465" lon="13.4601883"><ele>667.0</ele><time>2026-05-02T12:24:22.594Z</time></trkpt><trkpt lat="46.1473733" lon="13.4603133"><ele>667.0</ele><time>2026-05-02T12:24:23.594Z</time></trkpt><trkpt lat="46.1472867" lon="13.4604167"><ele>667.0</ele><time>2026-05-02T12:24:24.593Z</time></trkpt><trkpt lat="46.1471967" lon="13.4604733"><ele>666.0</ele><time>2026-05-02T12:24:25.595Z</time></trkpt><trkpt lat="46.1470883" lon="13.4604917"><ele>665.0</ele><time>2026-05-02T12:24:26.593Z</time></trkpt><trkpt lat="46.1469667" lon="13.460485"><ele>664.0</ele><time>2026-05-02T12:24:27.592Z</time></trkpt><trkpt lat="46.1468517" lon="13.4604883"><ele>663.0</ele><time>2026-05-02T12:24:28.593Z</time></trkpt><trkpt lat="46.1467417" lon="13.4605133"><ele>663.0</ele><time>2026-05-02T12:24:29.594Z</time></trkpt><trkpt lat="46.14664" lon="13.460555"><ele>663.0</ele><time>2026-05-02T12:24:30.593Z</time></trkpt><trkpt lat="46.1465383" lon="13.460605"><ele>663.0</ele><time>2026-05-02T12:24:31.592Z</time></trkpt><trkpt lat="46.1464467" lon="13.4606583"><ele>663.0</ele><time>2026-05-02T12:24:32.593Z</time></trkpt><trkpt lat="46.146355" lon="13.4606883"><ele>663.0</ele><time>2026-05-02T12:24:33.592Z</time></trkpt><trkpt lat="46.1462733" lon="13.4606933"><ele>662.0</ele><time>2026-05-02T12:24:34.592Z</time></trkpt><trkpt lat="46.1462033" lon="13.4606717"><ele>661.0</ele><time>2026-05-02T12:24:35.593Z</time></trkpt><trkpt lat="46.14611" lon="13.4605933"><ele>660.0</ele><time>2026-05-02T12:24:37.593Z</time></trkpt><trkpt lat="46.1460367" lon="13.46052"><ele>659.0</ele><time>2026-05-02T12:24:39.592Z</time></trkpt><trkpt lat="46.145965" lon="13.4604633"><ele>658.0</ele><time>2026-05-02T12:24:41.593Z</time></trkpt><trkpt lat="46.1458767" lon="13.4604267"><ele>657.0</ele><time>2026-05-02T12:24:43.594Z</time></trkpt><trkpt lat="46.1457933" lon="13.4603867"><ele>655.0</ele><time>2026-05-02T12:24:45.594Z</time></trkpt><trkpt lat="46.1457233" lon="13.46034"><ele>653.0</ele><time>2026-05-02T12:24:47.593Z</time></trkpt><trkpt lat="46.1456533" lon="13.4603"><ele>651.0</ele><time>2026-05-02T12:24:49.593Z</time></trkpt><trkpt lat="46.14559" lon="13.460265"><ele>649.0</ele><time>2026-05-02T12:24:51.594Z</time></trkpt><trkpt lat="46.1455267" lon="13.460265"><ele>647.0</ele><time>2026-05-02T12:24:53.594Z</time></trkpt><trkpt lat="46.14545" lon="13.4602717"><ele>645.0</ele><time>2026-05-02T12:24:55.599Z</time></trkpt><trkpt lat="46.14536" lon="13.460275"><ele>645.0</ele><time>2026-05-02T12:24:57.593Z</time></trkpt><trkpt lat="46.1452817" lon="13.460295"><ele>645.0</ele><time>2026-05-02T12:24:59.594Z</time></trkpt><trkpt lat="46.145195" lon="13.4602733"><ele>645.0</ele><time>2026-05-02T12:25:01.594Z</time></trkpt><trkpt lat="46.1451333" lon="13.4602483"><ele>645.0</ele><time>2026-05-02T12:25:03.592Z</time></trkpt><trkpt lat="46.145018" lon="13.4601859"><ele>645.0</ele><time>2026-05-02T12:25:08.703Z</time></trkpt><trkpt lat="46.1449163" lon="13.4601154"><ele>649.4</ele><time>2026-05-02T12:25:10.664Z</time></trkpt><trkpt lat="46.1448483" lon="13.4600573"><ele>653.8</ele><time>2026-05-02T12:25:12.6Z</time></trkpt><trkpt lat="46.1447773" lon="13.4599668"><ele>658.2</ele><time>2026-05-02T12:25:14.691Z</time></trkpt><trkpt lat="46.14472" lon="13.4598517"><ele>662.6</ele><time>2026-05-02T12:25:16.681Z</time></trkpt><trkpt lat="46.1446746" lon="13.4597494"><ele>667.0</ele><time>2026-05-02T12:25:18.613Z</time></trkpt><trkpt lat="46.1446076" lon="13.4596218"><ele>663.6</ele><time>2026-05-02T12:25:21.686Z</time></trkpt><trkpt lat="46.1445436" lon="13.4595"><ele>660.2</ele><time>2026-05-02T12:25:23.615Z</time></trkpt><trkpt lat="46.1444817" lon="13.459365"><ele>656.8</ele><time>2026-05-02T12:25:27.593Z</time></trkpt><trkpt lat="46.1444517" lon="13.4592433"><ele>653.4</ele><time>2026-05-02T12:25:41.595Z</time></trkpt><trkpt lat="46.1443867" lon="13.4591567"><ele>650.0</ele><time>2026-05-02T12:25:43.593Z</time></trkpt><trkpt lat="46.1443383" lon="13.4590733"><ele>650.0</ele><time>2026-05-02T12:25:45.593Z</time></trkpt><trkpt lat="46.1442883" lon="13.4589767"><ele>650.0</ele><time>2026-05-02T12:25:48.593Z</time></trkpt><trkpt lat="46.14423" lon="13.4588933"><ele>650.0</ele><time>2026-05-02T12:25:51.594Z</time></trkpt><trkpt lat="46.1441817" lon="13.4588183"><ele>650.0</ele><time>2026-05-02T12:25:54.594Z</time></trkpt><trkpt lat="46.1441059" lon="13.4587648"><ele>650.0</ele><time>2026-05-02T12:26:00.646Z</time></trkpt><trkpt lat="46.1440719" lon="13.4586359"><ele>650.0</ele><time>2026-05-02T12:26:02.692Z</time></trkpt><trkpt lat="46.1440006" lon="13.4585677"><ele>648.0</ele><time>2026-05-02T12:26:04.625Z</time></trkpt><trkpt lat="46.1439206" lon="13.4585152"><ele>646.0</ele><time>2026-05-02T12:26:06.667Z</time></trkpt><trkpt lat="46.1438387" lon="13.4584456"><ele>644.0</ele><time>2026-05-02T12:26:08.618Z</time></trkpt><trkpt lat="46.1437488" lon="13.4583799"><ele>642.0</ele><time>2026-05-02T12:26:10.667Z</time></trkpt><trkpt lat="46.1436508" lon="13.4583274"><ele>640.0</ele><time>2026-05-02T12:26:12.601Z</time></trkpt><trkpt lat="46.1435445" lon="13.4582697"><ele>640.0</ele><time>2026-05-02T12:26:14.643Z</time></trkpt><trkpt lat="46.1433435" lon="13.4581386"><ele>640.0</ele><time>2026-05-02T12:26:16.594Z</time></trkpt><trkpt lat="46.1431917" lon="13.458034"><ele>640.0</ele><time>2026-05-02T12:26:17.594Z</time></trkpt><trkpt lat="46.1430799" lon="13.457956"><ele>635.5</ele><time>2026-05-02T12:26:18.594Z</time></trkpt><trkpt lat="46.1429925" lon="13.457899"><ele>631.0</ele><time>2026-05-02T12:26:19.595Z</time></trkpt><trkpt lat="46.142916" lon="13.4578515"><ele>626.5</ele><time>2026-05-02T12:26:20.594Z</time></trkpt><trkpt lat="46.1428464" lon="13.4578042"><ele>622.0</ele><time>2026-05-02T12:26:21.593Z</time></trkpt><trkpt lat="46.1427767" lon="13.4577483"><ele>617.5</ele><time>2026-05-02T12:26:22.594Z</time></trkpt><trkpt lat="46.1427167" lon="13.45771"><ele>613.0</ele><time>2026-05-02T12:26:23.594Z</time></trkpt><trkpt lat="46.1426117" lon="13.4576583"><ele>613.0</ele><time>2026-05-02T12:26:25.594Z</time></trkpt><trkpt lat="46.1425133" lon="13.4576717"><ele>613.0</ele><time>2026-05-02T12:26:27.593Z</time></trkpt><trkpt lat="46.1424083" lon="13.4577383"><ele>613.0</ele><time>2026-05-02T12:26:29.594Z</time></trkpt><trkpt lat="46.14231" lon="13.4578017"><ele>613.0</ele><time>2026-05-02T12:26:31.593Z</time></trkpt><trkpt lat="46.14221" lon="13.4578283"><ele>613.0</ele><time>2026-05-02T12:26:33.596Z</time></trkpt><trkpt lat="46.142105" lon="13.4578533"><ele>610.0</ele><time>2026-05-02T12:26:35.593Z</time></trkpt><trkpt lat="46.141995" lon="13.4578583"><ele>607.0</ele><time>2026-05-02T12:26:37.594Z</time></trkpt><trkpt lat="46.1419133" lon="13.4578667"><ele>604.0</ele><time>2026-05-02T12:26:39.594Z</time></trkpt><trkpt lat="46.1418217" lon="13.4578917"><ele>601.0</ele><time>2026-05-02T12:26:41.594Z</time></trkpt><trkpt lat="46.1417283" lon="13.4579467"><ele>598.0</ele><time>2026-05-02T12:26:43.594Z</time></trkpt><trkpt lat="46.1416617" lon="13.4579783"><ele>599.4285714285714</ele><time>2026-05-02T12:26:44.595Z</time></trkpt><trkpt lat="46.1415867" lon="13.4580017"><ele>600.8571428571429</ele><time>2026-05-02T12:26:45.594Z</time></trkpt><trkpt lat="46.1415067" lon="13.4580167"><ele>602.2857142857142</ele><time>2026-05-02T12:26:46.596Z</time></trkpt><trkpt lat="46.1414367" lon="13.4580333"><ele>603.7142857142858</ele><time>2026-05-02T12:26:47.594Z</time></trkpt><trkpt lat="46.1413617" lon="13.4580583"><ele>605.1428571428572</ele><time>2026-05-02T12:26:48.593Z</time></trkpt><trkpt lat="46.141295" lon="13.458085"><ele>606.5714285714286</ele><time>2026-05-02T12:26:49.595Z</time></trkpt><trkpt lat="46.1412317" lon="13.4581017"><ele>608.0</ele><time>2026-05-02T12:26:50.593Z</time></trkpt><trkpt lat="46.14113" lon="13.4581183"><ele>608.0</ele><time>2026-05-02T12:26:52.594Z</time></trkpt><trkpt lat="46.141015" lon="13.45814"><ele>608.0</ele><time>2026-05-02T12:26:54.594Z</time></trkpt><trkpt lat="46.1409133" lon="13.458165"><ele>608.0</ele><time>2026-05-02T12:26:56.594Z</time></trkpt><trkpt lat="46.1408033" lon="13.45818"><ele>608.0</ele><time>2026-05-02T12:26:58.594Z</time></trkpt><trkpt lat="46.1407" lon="13.4581933"><ele>608.0</ele><time>2026-05-02T12:27:00.593Z</time></trkpt><trkpt lat="46.1405917" lon="13.45818"><ele>607.4</ele><time>2026-05-02T12:27:02.594Z</time></trkpt><trkpt lat="46.140505" lon="13.458165"><ele>606.8</ele><time>2026-05-02T12:27:04.593Z</time></trkpt><trkpt lat="46.1404133" lon="13.4581483"><ele>606.2</ele><time>2026-05-02T12:27:06.593Z</time></trkpt><trkpt lat="46.14031" lon="13.4581367"><ele>605.6</ele><time>2026-05-02T12:27:08.593Z</time></trkpt><trkpt lat="46.1401917" lon="13.4581183"><ele>605.0</ele><time>2026-05-02T12:27:10.595Z</time></trkpt><trkpt lat="46.1400817" lon="13.4581183"><ele>605.0</ele><time>2026-05-02T12:27:12.594Z</time></trkpt><trkpt lat="46.1399533" lon="13.4581083"><ele>605.0</ele><time>2026-05-02T12:27:14.594Z</time></trkpt><trkpt lat="46.1398367" lon="13.4581067"><ele>605.0</ele><time>2026-05-02T12:27:16.594Z</time></trkpt><trkpt lat="46.13977" lon="13.4581133"><ele>605.0</ele><time>2026-05-02T12:27:17.593Z</time></trkpt><trkpt lat="46.1397067" lon="13.458125"><ele>605.0</ele><time>2026-05-02T12:27:18.593Z</time></trkpt><trkpt lat="46.1395917" lon="13.4581617"><ele>601.4</ele><time>2026-05-02T12:27:20.595Z</time></trkpt><trkpt lat="46.1394833" lon="13.4581767"><ele>597.8</ele><time>2026-05-02T12:27:22.594Z</time></trkpt><trkpt lat="46.1393983" lon="13.45821"><ele>594.2</ele><time>2026-05-02T12:27:24.594Z</time></trkpt><trkpt lat="46.1393167" lon="13.4582567"><ele>590.6</ele><time>2026-05-02T12:27:26.594Z</time></trkpt><trkpt lat="46.1392317" lon="13.4583117"><ele>587.0</ele><time>2026-05-02T12:27:28.595Z</time></trkpt><trkpt lat="46.13914" lon="13.4583733"><ele>583.6666666666666</ele><time>2026-05-02T12:27:30.594Z</time></trkpt><trkpt lat="46.1390417" lon="13.4584367"><ele>580.3333333333333</ele><time>2026-05-02T12:27:32.594Z</time></trkpt><trkpt lat="46.1389633" lon="13.4584933"><ele>577.0</ele><time>2026-05-02T12:27:34.595Z</time></trkpt><trkpt lat="46.1388933" lon="13.4585467"><ele>573.6666666666666</ele><time>2026-05-02T12:27:36.595Z</time></trkpt><trkpt lat="46.1388233" lon="13.4585883"><ele>570.3333333333334</ele><time>2026-05-02T12:27:38.596Z</time></trkpt><trkpt lat="46.13875" lon="13.458615"><ele>567.0</ele><time>2026-05-02T12:27:40.595Z</time></trkpt><trkpt lat="46.1386383" lon="13.4586033"><ele>567.0</ele><time>2026-05-02T12:27:42.593Z</time></trkpt><trkpt lat="46.138575" lon="13.458595"><ele>567.0</ele><time>2026-05-02T12:27:43.594Z</time></trkpt><trkpt lat="46.1384667" lon="13.4585833"><ele>567.0</ele><time>2026-05-02T12:27:45.594Z</time></trkpt><trkpt lat="46.138355" lon="13.4585583"><ele>567.0</ele><time>2026-05-02T12:27:47.593Z</time></trkpt><trkpt lat="46.1382933" lon="13.4585383"><ele>567.0</ele><time>2026-05-02T12:27:48.593Z</time></trkpt><trkpt lat="46.1381817" lon="13.4585033"><ele>565.8000000000001</ele><time>2026-05-02T12:27:50.594Z</time></trkpt><trkpt lat="46.1380833" lon="13.4584783"><ele>564.6</ele><time>2026-05-02T12:27:52.595Z</time></trkpt><trkpt lat="46.1379933" lon="13.4584717"><ele>563.4000000000001</ele><time>2026-05-02T12:27:54.594Z</time></trkpt><trkpt lat="46.1378933" lon="13.4584817"><ele>562.2</ele><time>2026-05-02T12:27:56.595Z</time></trkpt><trkpt lat="46.13778" lon="13.458495"><ele>561.0</ele><time>2026-05-02T12:27:58.594Z</time></trkpt><trkpt lat="46.137675" lon="13.4585167"><ele>561.0</ele><time>2026-05-02T12:28:00.594Z</time></trkpt><trkpt lat="46.1375717" lon="13.4585367"><ele>561.0</ele><time>2026-05-02T12:28:02.594Z</time></trkpt><trkpt lat="46.13748" lon="13.4585767"><ele>561.0</ele><time>2026-05-02T12:28:04.594Z</time></trkpt><trkpt lat="46.137385" lon="13.45862"><ele>561.0</ele><time>2026-05-02T12:28:06.593Z</time></trkpt><trkpt lat="46.137285" lon="13.4586367"><ele>561.0</ele><time>2026-05-02T12:28:08.594Z</time></trkpt><trkpt lat="46.1372" lon="13.4586567"><ele>559.0</ele><time>2026-05-02T12:28:10.594Z</time></trkpt><trkpt lat="46.1371183" lon="13.4586817"><ele>557.0</ele><time>2026-05-02T12:28:12.594Z</time></trkpt><trkpt lat="46.137035" lon="13.4587033"><ele>555.0</ele><time>2026-05-02T12:28:14.594Z</time></trkpt><trkpt lat="46.1369517" lon="13.4587333"><ele>553.0</ele><time>2026-05-02T12:28:16.594Z</time></trkpt><trkpt lat="46.1368617" lon="13.4587633"><ele>551.0</ele><time>2026-05-02T12:28:18.594Z</time></trkpt><trkpt lat="46.136775" lon="13.458785"><ele>549.0</ele><time>2026-05-02T12:28:20.596Z</time></trkpt><trkpt lat="46.1366983" lon="13.45882"><ele>551.0</ele><time>2026-05-02T12:28:22.594Z</time></trkpt><trkpt lat="46.1366133" lon="13.4588467"><ele>553.0</ele><time>2026-05-02T12:28:24.595Z</time></trkpt><trkpt lat="46.136545" lon="13.4588783"><ele>555.0</ele><time>2026-05-02T12:28:26.594Z</time></trkpt><trkpt lat="46.136485" lon="13.4589367"><ele>557.0</ele><time>2026-05-02T12:28:29.596Z</time></trkpt><trkpt lat="46.1364183" lon="13.4589683"><ele>559.0</ele><time>2026-05-02T12:28:31.594Z</time></trkpt><trkpt lat="46.1363083" lon="13.458985"><ele>561.0</ele><time>2026-05-02T12:28:33.595Z</time></trkpt><trkpt lat="46.1362017" lon="13.4589667"><ele>561.0</ele><time>2026-05-02T12:28:35.594Z</time></trkpt><trkpt lat="46.1361167" lon="13.458955"><ele>561.0</ele><time>2026-05-02T12:28:37.595Z</time></trkpt><trkpt lat="46.1360417" lon="13.45892"><ele>561.0</ele><time>2026-05-02T12:28:39.593Z</time></trkpt><trkpt lat="46.135975" lon="13.4588417"><ele>561.0</ele><time>2026-05-02T12:28:41.593Z</time></trkpt><trkpt lat="46.1359217" lon="13.458695"><ele>561.0</ele><time>2026-05-02T12:28:43.593Z</time></trkpt><trkpt lat="46.1358933" lon="13.4585867"><ele>561.0</ele><time>2026-05-02T12:28:44.595Z</time></trkpt><trkpt lat="46.1358783" lon="13.45848"><ele>561.0</ele><time>2026-05-02T12:28:45.594Z</time></trkpt><trkpt lat="46.135875" lon="13.45838"><ele>561.0</ele><time>2026-05-02T12:28:46.595Z</time></trkpt><trkpt lat="46.13587" lon="13.4582867"><ele>561.0</ele><time>2026-05-02T12:28:47.594Z</time></trkpt><trkpt lat="46.1358617" lon="13.4581933"><ele>561.0</ele><time>2026-05-02T12:28:48.593Z</time></trkpt><trkpt lat="46.1358669" lon="13.4580131"><ele>561.0</ele><time>2026-05-02T12:28:50.594Z</time></trkpt><trkpt lat="46.1358741" lon="13.457832"><ele>561.0</ele><time>2026-05-02T12:28:52.594Z</time></trkpt><trkpt lat="46.1358755" lon="13.4577388"><ele>561.0</ele><time>2026-05-02T12:28:53.594Z</time></trkpt><trkpt lat="46.1358773" lon="13.4576401"><ele>561.0</ele><time>2026-05-02T12:28:54.593Z</time></trkpt><trkpt lat="46.1358793" lon="13.4575418"><ele>561.0</ele><time>2026-05-02T12:28:55.594Z</time></trkpt><trkpt lat="46.1358786" lon="13.4573702"><ele>561.0</ele><time>2026-05-02T12:28:57.594Z</time></trkpt><trkpt lat="46.1358917" lon="13.4572039"><ele>561.0</ele><time>2026-05-02T12:28:59.593Z</time></trkpt><trkpt lat="46.1358972" lon="13.4570599"><ele>560.1666666666666</ele><time>2026-05-02T12:29:01.595Z</time></trkpt><trkpt lat="46.1359044" lon="13.4569255"><ele>559.3333333333334</ele><time>2026-05-02T12:29:03.594Z</time></trkpt><trkpt lat="46.1358961" lon="13.456768"><ele>558.5</ele><time>2026-05-02T12:29:05.595Z</time></trkpt><trkpt lat="46.1358922" lon="13.4566656"><ele>557.6666666666667</ele><time>2026-05-02T12:29:06.595Z</time></trkpt><trkpt lat="46.135895" lon="13.4565468"><ele>556.8333333333334</ele><time>2026-05-02T12:29:07.593Z</time></trkpt><trkpt lat="46.1359054" lon="13.4564217"><ele>556.0</ele><time>2026-05-02T12:29:08.596Z</time></trkpt><trkpt lat="46.1359194" lon="13.4563102"><ele>555.0</ele><time>2026-05-02T12:29:09.594Z</time></trkpt><trkpt lat="46.1359399" lon="13.4562107"><ele>554.0</ele><time>2026-05-02T12:29:10.594Z</time></trkpt><trkpt lat="46.1359628" lon="13.4561223"><ele>553.0</ele><time>2026-05-02T12:29:11.594Z</time></trkpt><trkpt lat="46.1359817" lon="13.4559612"><ele>552.0</ele><time>2026-05-02T12:29:13.596Z</time></trkpt><trkpt lat="46.136" lon="13.4558092"><ele>551.0</ele><time>2026-05-02T12:29:15.595Z</time></trkpt><trkpt lat="46.1360032" lon="13.4556768"><ele>550.0</ele><time>2026-05-02T12:29:17.594Z</time></trkpt><trkpt lat="46.135974" lon="13.4555483"><ele>548.4</ele><time>2026-05-02T12:29:19.595Z</time></trkpt><trkpt lat="46.13591" lon="13.4554213"><ele>546.8</ele><time>2026-05-02T12:29:21.596Z</time></trkpt><trkpt lat="46.1358214" lon="13.4552881"><ele>545.2</ele><time>2026-05-02T12:29:23.593Z</time></trkpt><trkpt lat="46.1357797" lon="13.4552134"><ele>543.6</ele><time>2026-05-02T12:29:24.594Z</time></trkpt><trkpt lat="46.1357448" lon="13.4551355"><ele>542.0</ele><time>2026-05-02T12:29:25.594Z</time></trkpt><trkpt lat="46.1356876" lon="13.454994"><ele>542.0</ele><time>2026-05-02T12:29:27.593Z</time></trkpt><trkpt lat="46.1356372" lon="13.4548664"><ele>542.0</ele><time>2026-05-02T12:29:29.594Z</time></trkpt><trkpt lat="46.1355903" lon="13.4547526"><ele>542.0</ele><time>2026-05-02T12:29:31.594Z</time></trkpt><trkpt lat="46.1355477" lon="13.4546441"><ele>542.0</ele><time>2026-05-02T12:29:33.595Z</time></trkpt><trkpt lat="46.1355168" lon="13.4545581"><ele>542.0</ele><time>2026-05-02T12:29:35.594Z</time></trkpt><trkpt lat="46.1354612" lon="13.4544637"><ele>542.0</ele><time>2026-05-02T12:29:38.594Z</time></trkpt><trkpt lat="46.1354004" lon="13.4544183"><ele>538.2</ele><time>2026-05-02T12:29:40.593Z</time></trkpt><trkpt lat="46.1353097" lon="13.4543659"><ele>534.4000000000001</ele><time>2026-05-02T12:29:42.595Z</time></trkpt><trkpt lat="46.135246" lon="13.4543491"><ele>530.5999999999999</ele><time>2026-05-02T12:29:43.595Z</time></trkpt><trkpt lat="46.1351257" lon="13.454331"><ele>526.8</ele><time>2026-05-02T12:29:45.595Z</time></trkpt><trkpt lat="46.1350235" lon="13.4543152"><ele>523.0</ele><time>2026-05-02T12:29:47.594Z</time></trkpt><trkpt lat="46.134937" lon="13.4542687"><ele>523.0</ele><time>2026-05-02T12:29:49.594Z</time></trkpt><trkpt lat="46.1348889" lon="13.4541911"><ele>523.0</ele><time>2026-05-02T12:29:51.593Z</time></trkpt><trkpt lat="46.1348812" lon="13.4540698"><ele>523.0</ele><time>2026-05-02T12:29:53.594Z</time></trkpt><trkpt lat="46.1348997" lon="13.4539135"><ele>523.0</ele><time>2026-05-02T12:29:55.595Z</time></trkpt><trkpt lat="46.1349216" lon="13.4538272"><ele>523.0</ele><time>2026-05-02T12:29:56.595Z</time></trkpt><trkpt lat="46.1349498" lon="13.4537419"><ele>523.0</ele><time>2026-05-02T12:29:57.594Z</time></trkpt><trkpt lat="46.135001" lon="13.4535838"><ele>520.6</ele><time>2026-05-02T12:29:59.594Z</time></trkpt><trkpt lat="46.1350494" lon="13.453416"><ele>518.1999999999999</ele><time>2026-05-02T12:30:01.595Z</time></trkpt><trkpt lat="46.1350738" lon="13.4533306"><ele>515.8</ele><time>2026-05-02T12:30:02.595Z</time></trkpt><trkpt lat="46.1351313" lon="13.4531778"><ele>513.4</ele><time>2026-05-02T12:30:04.594Z</time></trkpt><trkpt lat="46.1351667" lon="13.4530567"><ele>511.0</ele><time>2026-05-02T12:30:06.597Z</time></trkpt><trkpt lat="46.1351917" lon="13.4529267"><ele>510.1666666666667</ele><time>2026-05-02T12:30:08.595Z</time></trkpt><trkpt lat="46.1352117" lon="13.45281"><ele>509.33333333333337</ele><time>2026-05-02T12:30:10.594Z</time></trkpt><trkpt lat="46.135215" lon="13.4526933"><ele>508.5</ele><time>2026-05-02T12:30:12.594Z</time></trkpt><trkpt lat="46.135215" lon="13.4525733"><ele>507.66666666666663</ele><time>2026-05-02T12:30:14.594Z</time></trkpt><trkpt lat="46.135195" lon="13.4524733"><ele>506.8333333333333</ele><time>2026-05-02T12:30:16.593Z</time></trkpt><trkpt lat="46.1351417" lon="13.452415"><ele>506.0</ele><time>2026-05-02T12:30:18.595Z</time></trkpt><trkpt lat="46.1350467" lon="13.4523817"><ele>528.0</ele><time>2026-05-02T12:30:21.595Z</time></trkpt><trkpt lat="46.1348812" lon="13.4540698"><ele>527.0</ele><time>2026-05-02T12:29:53.594Z</time></trkpt><trkpt lat="46.1348997" lon="13.4539135"><ele>526.0</ele><time>2026-05-02T12:29:55.595Z</time></trkpt><trkpt lat="46.1349216" lon="13.4538272"><ele>525.0</ele><time>2026-05-02T12:29:56.595Z</time></trkpt><trkpt lat="46.1349498" lon="13.4537419"><ele>524.0</ele><time>2026-05-02T12:29:57.594Z</time></trkpt><trkpt lat="46.135001" lon="13.4535838"><ele>523.0</ele><time>2026-05-02T12:29:59.594Z</time></trkpt><trkpt lat="46.1350494" lon="13.453416"><ele>520.6</ele><time>2026-05-02T12:30:01.595Z</time></trkpt><trkpt lat="46.1350738" lon="13.4533306"><ele>518.1999999999999</ele><time>2026-05-02T12:30:02.595Z</time></trkpt><trkpt lat="46.1351313" lon="13.4531778"><ele>515.8</ele><time>2026-05-02T12:30:04.594Z</time></trkpt><trkpt lat="46.1351667" lon="13.4530567"><ele>513.4</ele><time>2026-05-02T12:30:06.597Z</time></trkpt><trkpt lat="46.1351917" lon="13.4529267"><ele>511.0</ele><time>2026-05-02T12:30:08.595Z</time></trkpt><trkpt lat="46.1352117" lon="13.45281"><ele>510.1666666666667</ele><time>2026-05-02T12:30:10.594Z</time></trkpt><trkpt lat="46.135215" lon="13.4526933"><ele>509.33333333333337</ele><time>2026-05-02T12:30:12.594Z</time></trkpt><trkpt lat="46.135215" lon="13.4525733"><ele>508.5</ele><time>2026-05-02T12:30:14.594Z</time></trkpt><trkpt lat="46.135195" lon="13.4524733"><ele>507.66666666666663</ele><time>2026-05-02T12:30:16.593Z</time></trkpt><trkpt lat="46.1351417" lon="13.452415"><ele>506.8333333333333</ele><time>2026-05-02T12:30:18.595Z</time></trkpt><trkpt lat="46.1350467" lon="13.4523817"><ele>506.0</ele><time>2026-05-02T12:30:21.595Z</time></trkpt><trkpt lat="46.1349483" lon="13.4524117"><ele>507.8</ele><time>2026-05-02T12:30:23.595Z</time></trkpt><trkpt lat="46.1348267" lon="13.452455"><ele>509.6</ele><time>2026-05-02T12:30:25.595Z</time></trkpt><trkpt lat="46.1347217" lon="13.4524917"><ele>511.4</ele><time>2026-05-02T12:30:27.594Z</time></trkpt><trkpt lat="46.134625" lon="13.452455"><ele>513.2</ele><time>2026-05-02T12:30:29.595Z</time></trkpt><trkpt lat="46.1345617" lon="13.452345"><ele>515.0</ele><time>2026-05-02T12:30:31.595Z</time></trkpt><trkpt lat="46.1345433" lon="13.4521867"><ele>512.8333333333333</ele><time>2026-05-02T12:30:33.594Z</time></trkpt><trkpt lat="46.134555" lon="13.4520867"><ele>510.66666666666663</ele><time>2026-05-02T12:30:34.594Z</time></trkpt><trkpt lat="46.1345767" lon="13.4519283"><ele>508.5</ele><time>2026-05-02T12:30:36.596Z</time></trkpt><trkpt lat="46.1345883" lon="13.451825"><ele>506.33333333333337</ele><time>2026-05-02T12:30:39.594Z</time></trkpt><trkpt lat="46.1345817" lon="13.4517283"><ele>504.1666666666667</ele><time>2026-05-02T12:31:05.594Z</time></trkpt><trkpt lat="46.134575" lon="13.451635"><ele>502.0</ele><time>2026-05-02T12:31:08.596Z</time></trkpt><trkpt lat="46.13455" lon="13.4514817"><ele>502.0</ele><time>2026-05-02T12:31:25.594Z</time></trkpt><trkpt lat="46.13462" lon="13.45156"><ele>502.00000000000006</ele><time>2026-05-02T12:31:45.594Z</time></trkpt><trkpt lat="46.1346367" lon="13.4517033"><ele>502.00000000000006</ele><time>2026-05-02T12:31:47.595Z</time></trkpt><trkpt lat="46.1346283" lon="13.4518633"><ele>502.0</ele><time>2026-05-02T12:31:49.596Z</time></trkpt><trkpt lat="46.1345883" lon="13.4520383"><ele>502.0</ele><time>2026-05-02T12:31:51.595Z</time></trkpt><trkpt lat="46.1345733" lon="13.4521333"><ele>502.6666666666667</ele><time>2026-05-02T12:31:52.594Z</time></trkpt><trkpt lat="46.1345817" lon="13.4522817"><ele>503.33333333333337</ele><time>2026-05-02T12:31:54.595Z</time></trkpt><trkpt lat="46.1346417" lon="13.4523667"><ele>504.0</ele><time>2026-05-02T12:31:56.594Z</time></trkpt><trkpt lat="46.134725" lon="13.4523817"><ele>504.66666666666663</ele><time>2026-05-02T12:31:58.594Z</time></trkpt><trkpt lat="46.1348233" lon="13.452315"><ele>505.3333333333333</ele><time>2026-05-02T12:32:00.595Z</time></trkpt><trkpt lat="46.1348867" lon="13.4522783"><ele>506.0</ele><time>2026-05-02T12:32:01.595Z</time></trkpt><trkpt lat="46.1349917" lon="13.4522083"><ele>505.99999999999994</ele><time>2026-05-02T12:32:03.594Z</time></trkpt><trkpt lat="46.1350717" lon="13.4521333"><ele>506.0</ele><time>2026-05-02T12:32:05.594Z</time></trkpt><trkpt lat="46.1351583" lon="13.4520617"><ele>506.0</ele><time>2026-05-02T12:32:07.595Z</time></trkpt><trkpt lat="46.1352333" lon="13.4520133"><ele>506.0</ele><time>2026-05-02T12:32:09.595Z</time></trkpt><trkpt lat="46.1352983" lon="13.4520033"><ele>505.99999999999994</ele><time>2026-05-02T12:32:11.595Z</time></trkpt><trkpt lat="46.135375" lon="13.4520633"><ele>506.0</ele><time>2026-05-02T12:32:13.596Z</time></trkpt><trkpt lat="46.1354399" lon="13.4521868"><ele>505.99999999999994</ele><time>2026-05-02T12:32:15.595Z</time></trkpt><trkpt lat="46.1354762" lon="13.4522657"><ele>506.0</ele><time>2026-05-02T12:32:16.595Z</time></trkpt><trkpt lat="46.1355194" lon="13.452354"><ele>506.0</ele><time>2026-05-02T12:32:17.597Z</time></trkpt><trkpt lat="46.1355606" lon="13.452451"><ele>506.0</ele><time>2026-05-02T12:32:18.596Z</time></trkpt><trkpt lat="46.1355946" lon="13.4525475"><ele>505.99999999999994</ele><time>2026-05-02T12:32:19.595Z</time></trkpt><trkpt lat="46.1356185" lon="13.452638"><ele>506.0</ele><time>2026-05-02T12:32:20.596Z</time></trkpt><trkpt lat="46.1356337" lon="13.4528103"><ele>507.0</ele><time>2026-05-02T12:32:22.594Z</time></trkpt><trkpt lat="46.1356216" lon="13.4529808"><ele>508.0</ele><time>2026-05-02T12:32:24.595Z</time></trkpt><trkpt lat="46.1355895" lon="13.4531408"><ele>509.0</ele><time>2026-05-02T12:32:26.596Z</time></trkpt><trkpt lat="46.1355547" lon="13.4532814"><ele>510.0</ele><time>2026-05-02T12:32:28.595Z</time></trkpt><trkpt lat="46.1355673" lon="13.4533869"><ele>511.0</ele><time>2026-05-02T12:32:30.595Z</time></trkpt><trkpt lat="46.1356316" lon="13.4534506"><ele>506.20000000000005</ele><time>2026-05-02T12:32:32.596Z</time></trkpt><trkpt lat="46.1357491" lon="13.4534797"><ele>501.40000000000003</ele><time>2026-05-02T12:32:34.594Z</time></trkpt><trkpt lat="46.1358703" lon="13.4535176"><ele>496.6</ele><time>2026-05-02T12:32:36.594Z</time></trkpt><trkpt lat="46.1359828" lon="13.4535896"><ele>491.8</ele><time>2026-05-02T12:32:38.595Z</time></trkpt><trkpt lat="46.1360444" lon="13.4536448"><ele>487.0</ele><time>2026-05-02T12:32:39.595Z</time></trkpt><trkpt lat="46.1361071" lon="13.4537069"><ele>487.0</ele><time>2026-05-02T12:32:40.595Z</time></trkpt><trkpt lat="46.1361686" lon="13.4537673"><ele>487.00000000000006</ele><time>2026-05-02T12:32:41.595Z</time></trkpt><trkpt lat="46.1362269" lon="13.4538254"><ele>487.00000000000006</ele><time>2026-05-02T12:32:42.594Z</time></trkpt><trkpt lat="46.1363241" lon="13.4539143"><ele>487.0</ele><time>2026-05-02T12:32:44.595Z</time></trkpt><trkpt lat="46.1364128" lon="13.4539477"><ele>487.0</ele><time>2026-05-02T12:32:46.595Z</time></trkpt><trkpt lat="46.1365171" lon="13.4539025"><ele>487.0</ele><time>2026-05-02T12:32:48.595Z</time></trkpt><trkpt lat="46.1366141" lon="13.4538266"><ele>487.00000000000006</ele><time>2026-05-02T12:32:50.594Z</time></trkpt><trkpt lat="46.1367151" lon="13.4538303"><ele>487.00000000000006</ele><time>2026-05-02T12:32:52.596Z</time></trkpt><trkpt lat="46.1368158" lon="13.4539414"><ele>487.0</ele><time>2026-05-02T12:32:54.595Z</time></trkpt><trkpt lat="46.1368694" lon="13.454021"><ele>487.0</ele><time>2026-05-02T12:32:55.595Z</time></trkpt><trkpt lat="46.1369258" lon="13.4541039"><ele>487.00000000000006</ele><time>2026-05-02T12:32:56.595Z</time></trkpt><trkpt lat="46.1369763" lon="13.4541794"><ele>487.0</ele><time>2026-05-02T12:32:57.595Z</time></trkpt><trkpt lat="46.1370252" lon="13.4542507"><ele>487.0</ele><time>2026-05-02T12:32:58.595Z</time></trkpt><trkpt lat="46.1370758" lon="13.45432"><ele>487.0</ele><time>2026-05-02T12:32:59.594Z</time></trkpt><trkpt lat="46.1371286" lon="13.4543888"><ele>487.00000000000006</ele><time>2026-05-02T12:33:00.595Z</time></trkpt><trkpt lat="46.1371819" lon="13.454454"><ele>487.0</ele><time>2026-05-02T12:33:01.595Z</time></trkpt><trkpt lat="46.1372719" lon="13.4545585"><ele>491.5</ele><time>2026-05-02T12:33:03.594Z</time></trkpt><trkpt lat="46.1373625" lon="13.4546837"><ele>496.0</ele><time>2026-05-02T12:33:05.595Z</time></trkpt><trkpt lat="46.1374212" lon="13.4548287"><ele>500.5</ele><time>2026-05-02T12:33:07.596Z</time></trkpt><trkpt lat="46.1374307" lon="13.4549928"><ele>505.0</ele><time>2026-05-02T12:33:09.596Z</time></trkpt><trkpt lat="46.1374267" lon="13.4551682"><ele>499.6666666666667</ele><time>2026-05-02T12:33:11.595Z</time></trkpt><trkpt lat="46.1374123" lon="13.4553027"><ele>494.33333333333337</ele><time>2026-05-02T12:33:13.594Z</time></trkpt><trkpt lat="46.1374038" lon="13.455409"><ele>489.0</ele><time>2026-05-02T12:33:15.595Z</time></trkpt><trkpt lat="46.1374354" lon="13.4555293"><ele>483.66666666666663</ele><time>2026-05-02T12:33:18.594Z</time></trkpt><trkpt lat="46.1375072" lon="13.4555655"><ele>478.3333333333333</ele><time>2026-05-02T12:33:21.594Z</time></trkpt><trkpt lat="46.1375813" lon="13.4555265"><ele>473.0</ele><time>2026-05-02T12:33:23.595Z</time></trkpt><trkpt lat="46.1376626" lon="13.4554207"><ele>471.66666666666663</ele><time>2026-05-02T12:33:25.595Z</time></trkpt><trkpt lat="46.137745" lon="13.4552894"><ele>470.3333333333333</ele><time>2026-05-02T12:33:27.594Z</time></trkpt><trkpt lat="46.137787" lon="13.4552116"><ele>469.0</ele><time>2026-05-02T12:33:28.596Z</time></trkpt><trkpt lat="46.1378343" lon="13.4551245"><ele>467.66666666666663</ele><time>2026-05-02T12:33:29.595Z</time></trkpt><trkpt lat="46.1378845" lon="13.4550293"><ele>466.3333333333333</ele><time>2026-05-02T12:33:30.594Z</time></trkpt><trkpt lat="46.1379376" lon="13.4549442"><ele>465.0</ele><time>2026-05-02T12:33:31.598Z</time></trkpt><trkpt lat="46.1379876" lon="13.454869"><ele>465.0</ele><time>2026-05-02T12:33:32.595Z</time></trkpt><trkpt lat="46.1380412" lon="13.4547996"><ele>465.0</ele><time>2026-05-02T12:33:33.594Z</time></trkpt><trkpt lat="46.1381033" lon="13.454739"><ele>465.0</ele><time>2026-05-02T12:33:34.594Z</time></trkpt><trkpt lat="46.1381755" lon="13.4546838"><ele>465.0</ele><time>2026-05-02T12:33:35.594Z</time></trkpt><trkpt lat="46.1382484" lon="13.4546303"><ele>465.0</ele><time>2026-05-02T12:33:36.595Z</time></trkpt><trkpt lat="46.1383151" lon="13.4545862"><ele>465.0</ele><time>2026-05-02T12:33:37.595Z</time></trkpt><trkpt lat="46.1383772" lon="13.4545523"><ele>461.4285714285714</ele><time>2026-05-02T12:33:38.595Z</time></trkpt><trkpt lat="46.1384417" lon="13.4545262"><ele>457.8571428571429</ele><time>2026-05-02T12:33:39.595Z</time></trkpt><trkpt lat="46.1385105" lon="13.4545038"><ele>454.2857142857143</ele><time>2026-05-02T12:33:40.595Z</time></trkpt><trkpt lat="46.1385817" lon="13.4544842"><ele>450.71428571428567</ele><time>2026-05-02T12:33:41.594Z</time></trkpt><trkpt lat="46.1386472" lon="13.4544627"><ele>447.1428571428571</ele><time>2026-05-02T12:33:42.594Z</time></trkpt><trkpt lat="46.1387114" lon="13.4544366"><ele>443.57142857142856</ele><time>2026-05-02T12:33:43.594Z</time></trkpt><trkpt lat="46.1387751" lon="13.4544027"><ele>440.0</ele><time>2026-05-02T12:33:44.595Z</time></trkpt><trkpt lat="46.1388407" lon="13.4543634"><ele>439.99999999999994</ele><time>2026-05-02T12:33:45.595Z</time></trkpt><trkpt lat="46.1389034" lon="13.4543229"><ele>440.0</ele><time>2026-05-02T12:33:46.594Z</time></trkpt><trkpt lat="46.1389618" lon="13.4542734"><ele>440.0</ele><time>2026-05-02T12:33:47.596Z</time></trkpt><trkpt lat="46.1390182" lon="13.4542135"><ele>440.0</ele><time>2026-05-02T12:33:48.596Z</time></trkpt><trkpt lat="46.1390697" lon="13.4541475"><ele>440.0</ele><time>2026-05-02T12:33:49.594Z</time></trkpt><trkpt lat="46.1391234" lon="13.4540833"><ele>439.99999999999994</ele><time>2026-05-02T12:33:50.596Z</time></trkpt><trkpt lat="46.1391811" lon="13.4540225"><ele>440.0</ele><time>2026-05-02T12:33:51.595Z</time></trkpt><trkpt lat="46.139235" lon="13.4539601"><ele>441.16666666666663</ele><time>2026-05-02T12:33:52.595Z</time></trkpt><trkpt lat="46.1392893" lon="13.4539037"><ele>442.3333333333333</ele><time>2026-05-02T12:33:53.594Z</time></trkpt><trkpt lat="46.1393479" lon="13.4538484"><ele>443.5</ele><time>2026-05-02T12:33:54.595Z</time></trkpt><trkpt lat="46.139415" lon="13.4537959"><ele>444.66666666666663</ele><time>2026-05-02T12:33:55.595Z</time></trkpt><trkpt lat="46.1394971" lon="13.4537515"><ele>445.8333333333333</ele><time>2026-05-02T12:33:56.595Z</time></trkpt><trkpt lat="46.1395904" lon="13.4537081"><ele>447.0</ele><time>2026-05-02T12:33:57.595Z</time></trkpt><trkpt lat="46.1396832" lon="13.4536782"><ele>443.6</ele><time>2026-05-02T12:33:58.596Z</time></trkpt><trkpt lat="46.1397763" lon="13.4536613"><ele>440.20000000000005</ele><time>2026-05-02T12:33:59.595Z</time></trkpt><trkpt lat="46.1398713" lon="13.4536482"><ele>436.8</ele><time>2026-05-02T12:34:00.594Z</time></trkpt><trkpt lat="46.1399664" lon="13.4536371"><ele>433.4</ele><time>2026-05-02T12:34:01.594Z</time></trkpt><trkpt lat="46.1400609" lon="13.4536305"><ele>430.0</ele><time>2026-05-02T12:34:02.596Z</time></trkpt><trkpt lat="46.1401513" lon="13.453634"><ele>430.00000000000006</ele><time>2026-05-02T12:34:03.596Z</time></trkpt><trkpt lat="46.1402322" lon="13.4536423"><ele>430.0</ele><time>2026-05-02T12:34:04.595Z</time></trkpt><trkpt lat="46.1403006" lon="13.4536455"><ele>430.0</ele><time>2026-05-02T12:34:05.594Z</time></trkpt><trkpt lat="46.1403796" lon="13.4536205"><ele>430.0</ele><time>2026-05-02T12:34:07.594Z</time></trkpt><trkpt lat="46.1404672" lon="13.4535703"><ele>430.00000000000006</ele><time>2026-05-02T12:34:10.595Z</time></trkpt><trkpt lat="46.1405333" lon="13.45352"><ele>430.0</ele><time>2026-05-02T12:34:12.595Z</time></trkpt><trkpt lat="46.1405949" lon="13.4534677"><ele>430.00000000000006</ele><time>2026-05-02T12:34:14.595Z</time></trkpt><trkpt lat="46.1406506" lon="13.4534203"><ele>430.0</ele><time>2026-05-02T12:34:16.594Z</time></trkpt><trkpt lat="46.1407193" lon="13.4533771"><ele>430.0</ele><time>2026-05-02T12:34:21.659Z</time></trkpt><trkpt lat="46.1407838" lon="13.4532889"><ele>430.0</ele><time>2026-05-02T12:34:24.636Z</time></trkpt><trkpt lat="46.1408316" lon="13.4532206"><ele>430.00000000000006</ele><time>2026-05-02T12:34:29.644Z</time></trkpt><trkpt lat="46.14095" lon="13.4531483"><ele>430.0</ele><time>2026-05-02T12:35:07.596Z</time></trkpt><trkpt lat="46.1409333" lon="13.4530117"><ele>429.6666666666667</ele><time>2026-05-02T12:36:50.595Z</time></trkpt><trkpt lat="46.1410083" lon="13.452885"><ele>429.33333333333337</ele><time>2026-05-02T12:36:52.595Z</time></trkpt><trkpt lat="46.1410617" lon="13.4528017"><ele>429.0</ele><time>2026-05-02T12:36:53.594Z</time></trkpt><trkpt lat="46.1411133" lon="13.4527217"><ele>428.66666666666663</ele><time>2026-05-02T12:36:54.594Z</time></trkpt><trkpt lat="46.1411617" lon="13.4526433"><ele>428.3333333333333</ele><time>2026-05-02T12:36:55.595Z</time></trkpt><trkpt lat="46.1411983" lon="13.452565"><ele>428.0</ele><time>2026-05-02T12:36:56.594Z</time></trkpt><trkpt lat="46.1412617" lon="13.452415"><ele>428.0</ele><time>2026-05-02T12:36:58.594Z</time></trkpt><trkpt lat="46.1413217" lon="13.4522817"><ele>427.99999999999994</ele><time>2026-05-02T12:37:00.594Z</time></trkpt><trkpt lat="46.14138" lon="13.4521633"><ele>427.99999999999994</ele><time>2026-05-02T12:37:02.598Z</time></trkpt><trkpt lat="46.1414517" lon="13.4520483"><ele>428.0</ele><time>2026-05-02T12:37:04.595Z</time></trkpt><trkpt lat="46.141535" lon="13.4519817"><ele>428.0</ele><time>2026-05-02T12:37:06.594Z</time></trkpt><trkpt lat="46.1416183" lon="13.4519317"><ele>427.99999999999994</ele><time>2026-05-02T12:37:08.594Z</time></trkpt><trkpt lat="46.1416967" lon="13.4519433"><ele>428.0</ele><time>2026-05-02T12:37:10.594Z</time></trkpt><trkpt lat="46.1417783" lon="13.45192"><ele>428.0</ele><time>2026-05-02T12:37:13.594Z</time></trkpt><trkpt lat="46.1418483" lon="13.4518833"><ele>428.0</ele><time>2026-05-02T12:37:15.593Z</time></trkpt><trkpt lat="46.141915" lon="13.4518183"><ele>427.99999999999994</ele><time>2026-05-02T12:37:17.593Z</time></trkpt><trkpt lat="46.1419667" lon="13.4517383"><ele>428.0</ele><time>2026-05-02T12:37:19.594Z</time></trkpt><trkpt lat="46.1420653" lon="13.4515915"><ele>428.0</ele><time>2026-05-02T12:37:24.612Z</time></trkpt><trkpt lat="46.1421706" lon="13.4516188"><ele>427.99999999999994</ele><time>2026-05-02T12:37:27.664Z</time></trkpt><trkpt lat="46.1422341" lon="13.4516193"><ele>427.99999999999994</ele><time>2026-05-02T12:37:28.691Z</time></trkpt><trkpt lat="46.1423306" lon="13.45155"><ele>428.0</ele><time>2026-05-02T12:37:30.632Z</time></trkpt><trkpt lat="46.1423891" lon="13.4514077"><ele>428.0</ele><time>2026-05-02T12:37:32.675Z</time></trkpt><trkpt lat="46.1424282" lon="13.4512813"><ele>426.0</ele><time>2026-05-02T12:37:34.616Z</time></trkpt><trkpt lat="46.1424673" lon="13.4511803"><ele>424.0</ele><time>2026-05-02T12:37:36.661Z</time></trkpt><trkpt lat="46.1425046" lon="13.4509616"><ele>422.0</ele><time>2026-05-02T12:37:38.692Z</time></trkpt><trkpt lat="46.1425238" lon="13.4508325"><ele>420.0</ele><time>2026-05-02T12:37:39.61Z</time></trkpt><trkpt lat="46.1427002" lon="13.4505267"><ele>416.6</ele><time>2026-05-02T12:37:40.593Z</time></trkpt><trkpt lat="46.1428027" lon="13.4503341"><ele>413.2</ele><time>2026-05-02T12:37:41.593Z</time></trkpt><trkpt lat="46.1428715" lon="13.4501929"><ele>409.79999999999995</ele><time>2026-05-02T12:37:42.593Z</time></trkpt><trkpt lat="46.1429167" lon="13.4500863"><ele>406.4</ele><time>2026-05-02T12:37:43.593Z</time></trkpt><trkpt lat="46.1429559" lon="13.4500031"><ele>403.0</ele><time>2026-05-02T12:37:44.594Z</time></trkpt><trkpt lat="46.1430324" lon="13.4498939"><ele>403.00000000000006</ele><time>2026-05-02T12:37:46.594Z</time></trkpt><trkpt lat="46.143076" lon="13.4498144"><ele>403.0</ele><time>2026-05-02T12:37:48.596Z</time></trkpt><trkpt lat="46.1430484" lon="13.4497056"><ele>403.0</ele><time>2026-05-02T12:37:51.594Z</time></trkpt><trkpt lat="46.1429614" lon="13.4497154"><ele>403.0</ele><time>2026-05-02T12:37:53.593Z</time></trkpt><trkpt lat="46.1428518" lon="13.4497948"><ele>403.00000000000006</ele><time>2026-05-02T12:37:55.593Z</time></trkpt><trkpt lat="46.1427949" lon="13.449855"><ele>403.0</ele><time>2026-05-02T12:37:56.595Z</time></trkpt><trkpt lat="46.1427382" lon="13.4499317"><ele>403.00000000000006</ele><time>2026-05-02T12:37:57.593Z</time></trkpt><trkpt lat="46.1426776" lon="13.4500273"><ele>403.0</ele><time>2026-05-02T12:37:58.593Z</time></trkpt><trkpt lat="46.1426231" lon="13.4501272"><ele>403.0</ele><time>2026-05-02T12:37:59.593Z</time></trkpt><trkpt lat="46.1425826" lon="13.4502242"><ele>403.0</ele><time>2026-05-02T12:38:00.595Z</time></trkpt><trkpt lat="46.1425512" lon="13.4503138"><ele>403.00000000000006</ele><time>2026-05-02T12:38:01.593Z</time></trkpt><trkpt lat="46.1424911" lon="13.4504288"><ele>403.0</ele><time>2026-05-02T12:38:03.594Z</time></trkpt><trkpt lat="46.1424372" lon="13.4504802"><ele>403.00000000000006</ele><time>2026-05-02T12:38:05.593Z</time></trkpt><trkpt lat="46.1423768" lon="13.4504528"><ele>403.0</ele><time>2026-05-02T12:38:07.594Z</time></trkpt><trkpt lat="46.1423739" lon="13.4503522"><ele>403.0</ele><time>2026-05-02T12:38:09.594Z</time></trkpt><trkpt lat="46.1424201" lon="13.4502093"><ele>403.0</ele><time>2026-05-02T12:38:11.595Z</time></trkpt><trkpt lat="46.1424506" lon="13.4501249"><ele>403.00000000000006</ele><time>2026-05-02T12:38:12.593Z</time></trkpt><trkpt lat="46.1424872" lon="13.4500212"><ele>403.0</ele><time>2026-05-02T12:38:13.596Z</time></trkpt><trkpt lat="46.1425177" lon="13.4499199"><ele>403.0</ele><time>2026-05-02T12:38:14.594Z</time></trkpt><trkpt lat="46.1425436" lon="13.4498268"><ele>403.0</ele><time>2026-05-02T12:38:15.593Z</time></trkpt><trkpt lat="46.1425661" lon="13.4497402"><ele>403.0</ele><time>2026-05-02T12:38:16.595Z</time></trkpt><trkpt lat="46.1425881" lon="13.4496527"><ele>403.0</ele><time>2026-05-02T12:38:17.596Z</time></trkpt><trkpt lat="46.1426079" lon="13.4495557"><ele>403.0</ele><time>2026-05-02T12:38:18.593Z</time></trkpt><trkpt lat="46.1426319" lon="13.4494606"><ele>403.0</ele><time>2026-05-02T12:38:19.595Z</time></trkpt><trkpt lat="46.1426557" lon="13.449365"><ele>403.0</ele><time>2026-05-02T12:38:20.594Z</time></trkpt><trkpt lat="46.1426834" lon="13.4492717"><ele>400.33333333333337</ele><time>2026-05-02T12:38:21.594Z</time></trkpt><trkpt lat="46.1427162" lon="13.4491786"><ele>397.6666666666667</ele><time>2026-05-02T12:38:22.594Z</time></trkpt><trkpt lat="46.1427468" lon="13.4490929"><ele>395.0</ele><time>2026-05-02T12:38:23.594Z</time></trkpt><trkpt lat="46.1427847" lon="13.4490176"><ele>392.33333333333337</ele><time>2026-05-02T12:38:24.593Z</time></trkpt><trkpt lat="46.1428553" lon="13.4488908"><ele>389.6666666666667</ele><time>2026-05-02T12:38:26.593Z</time></trkpt><trkpt lat="46.1429379" lon="13.448804"><ele>387.0</ele><time>2026-05-02T12:38:28.593Z</time></trkpt><trkpt lat="46.1430375" lon="13.4487348"><ele>387.8</ele><time>2026-05-02T12:38:30.594Z</time></trkpt><trkpt lat="46.1430989" lon="13.4487053"><ele>388.6</ele><time>2026-05-02T12:38:31.593Z</time></trkpt><trkpt lat="46.1431904" lon="13.4486123"><ele>389.40000000000003</ele><time>2026-05-02T12:38:33.596Z</time></trkpt><trkpt lat="46.1432568" lon="13.4485107"><ele>390.20000000000005</ele><time>2026-05-02T12:38:35.594Z</time></trkpt><trkpt lat="46.1432896" lon="13.4483366"><ele>391.0</ele><time>2026-05-02T12:38:37.593Z</time></trkpt><trkpt lat="46.1432875" lon="13.4482298"><ele>391.0</ele><time>2026-05-02T12:38:38.594Z</time></trkpt><trkpt lat="46.143283" lon="13.4481216"><ele>391.0</ele><time>2026-05-02T12:38:39.594Z</time></trkpt><trkpt lat="46.1432821" lon="13.4480219"><ele>391.0</ele><time>2026-05-02T12:38:40.598Z</time></trkpt><trkpt lat="46.1433046" lon="13.4478521"><ele>391.0</ele><time>2026-05-02T12:38:42.593Z</time></trkpt><trkpt lat="46.1433518" lon="13.4477234"><ele>391.0</ele><time>2026-05-02T12:38:44.594Z</time></trkpt><trkpt lat="46.1434226" lon="13.4476411"><ele>388.00000000000006</ele><time>2026-05-02T12:38:46.593Z</time></trkpt><trkpt lat="46.143515" lon="13.4476039"><ele>385.0</ele><time>2026-05-02T12:38:48.593Z</time></trkpt><trkpt lat="46.1436339" lon="13.4475777"><ele>382.0</ele><time>2026-05-02T12:38:50.595Z</time></trkpt><trkpt lat="46.143697" lon="13.4475593"><ele>379.0</ele><time>2026-05-02T12:38:51.593Z</time></trkpt><trkpt lat="46.1437592" lon="13.4475306"><ele>376.0</ele><time>2026-05-02T12:38:52.594Z</time></trkpt><trkpt lat="46.1438206" lon="13.447496"><ele>373.0</ele><time>2026-05-02T12:38:53.593Z</time></trkpt><trkpt lat="46.1438809" lon="13.4474553"><ele>373.0</ele><time>2026-05-02T12:38:54.594Z</time></trkpt><trkpt lat="46.14394" lon="13.4474063"><ele>373.0</ele><time>2026-05-02T12:38:55.596Z</time></trkpt><trkpt lat="46.1439939" lon="13.4473546"><ele>373.0</ele><time>2026-05-02T12:38:56.595Z</time></trkpt><trkpt lat="46.1440743" lon="13.4472615"><ele>373.0</ele><time>2026-05-02T12:38:58.594Z</time></trkpt><trkpt lat="46.14414" lon="13.4471812"><ele>373.0</ele><time>2026-05-02T12:39:00.594Z</time></trkpt><trkpt lat="46.1441962" lon="13.4470869"><ele>373.0</ele><time>2026-05-02T12:39:02.595Z</time></trkpt><trkpt lat="46.1442571" lon="13.4470081"><ele>371.0</ele><time>2026-05-02T12:39:04.593Z</time></trkpt><trkpt lat="46.1443108" lon="13.4469472"><ele>369.0</ele><time>2026-05-02T12:39:06.593Z</time></trkpt><trkpt lat="46.1443362" lon="13.4468544"><ele>367.0</ele><time>2026-05-02T12:39:08.597Z</time></trkpt><trkpt lat="46.1443237" lon="13.4467598"><ele>365.0</ele><time>2026-05-02T12:39:11.596Z</time></trkpt><trkpt lat="46.14441" lon="13.446785"><ele>363.0</ele><time>2026-05-02T12:39:32.595Z</time></trkpt><trkpt lat="46.144505" lon="13.44689"><ele>361.0</ele><time>2026-05-02T12:39:34.595Z</time></trkpt><trkpt lat="46.1445717" lon="13.4469383"><ele>361.0</ele><time>2026-05-02T12:39:35.594Z</time></trkpt><trkpt lat="46.14463" lon="13.4469867"><ele>361.0</ele><time>2026-05-02T12:39:36.594Z</time></trkpt><trkpt lat="46.144715" lon="13.4470467"><ele>361.0</ele><time>2026-05-02T12:39:38.595Z</time></trkpt><trkpt lat="46.1447917" lon="13.4470583"><ele>361.0</ele><time>2026-05-02T12:39:40.595Z</time></trkpt><trkpt lat="46.1448667" lon="13.4470383"><ele>361.0</ele><time>2026-05-02T12:39:43.595Z</time></trkpt><trkpt lat="46.14494" lon="13.44702"><ele>361.0</ele><time>2026-05-02T12:39:46.593Z</time></trkpt><trkpt lat="46.1450133" lon="13.4470067"><ele>360.0</ele><time>2026-05-02T12:39:49.594Z</time></trkpt><trkpt lat="46.1450833" lon="13.447"><ele>359.0</ele><time>2026-05-02T12:39:53.595Z</time></trkpt><trkpt lat="46.1451483" lon="13.446985"><ele>358.0</ele><time>2026-05-02T12:39:56.594Z</time></trkpt><trkpt lat="46.1452117" lon="13.4469617"><ele>357.0</ele><time>2026-05-02T12:39:58.595Z</time></trkpt><trkpt lat="46.14528" lon="13.4469517"><ele>356.0</ele><time>2026-05-02T12:40:00.595Z</time></trkpt><trkpt lat="46.14536" lon="13.4469433"><ele>355.0</ele><time>2026-05-02T12:40:02.594Z</time></trkpt><trkpt lat="46.145465" lon="13.4469333"><ele>355.0</ele><time>2026-05-02T12:40:04.595Z</time></trkpt><trkpt lat="46.1455317" lon="13.4469267"><ele>355.0</ele><time>2026-05-02T12:40:05.594Z</time></trkpt><trkpt lat="46.145605" lon="13.4469167"><ele>355.0</ele><time>2026-05-02T12:40:06.594Z</time></trkpt><trkpt lat="46.1456733" lon="13.4468867"><ele>355.0</ele><time>2026-05-02T12:40:07.594Z</time></trkpt><trkpt lat="46.14574" lon="13.446855"><ele>355.0</ele><time>2026-05-02T12:40:08.594Z</time></trkpt><trkpt lat="46.1458067" lon="13.4468133"><ele>355.0</ele><time>2026-05-02T12:40:09.594Z</time></trkpt><trkpt lat="46.1458733" lon="13.44676"><ele>355.0</ele><time>2026-05-02T12:40:10.595Z</time></trkpt><trkpt lat="46.1459433" lon="13.4466983"><ele>352.0</ele><time>2026-05-02T12:40:11.595Z</time></trkpt><trkpt lat="46.1459917" lon="13.4466067"><ele>349.0</ele><time>2026-05-02T12:40:12.594Z</time></trkpt><trkpt lat="46.1460467" lon="13.446505"><ele>346.0</ele><time>2026-05-02T12:40:13.593Z</time></trkpt><trkpt lat="46.1461083" lon="13.4463867"><ele>343.0</ele><time>2026-05-02T12:40:14.596Z</time></trkpt><trkpt lat="46.1461633" lon="13.44625"><ele>340.0</ele><time>2026-05-02T12:40:15.595Z</time></trkpt><trkpt lat="46.1462283" lon="13.4461067"><ele>336.8</ele><time>2026-05-02T12:40:16.595Z</time></trkpt><trkpt lat="46.1462783" lon="13.44596"><ele>333.6</ele><time>2026-05-02T12:40:17.594Z</time></trkpt><trkpt lat="46.1463217" lon="13.4458067"><ele>330.4</ele><time>2026-05-02T12:40:18.593Z</time></trkpt><trkpt lat="46.1463583" lon="13.4456583"><ele>327.2</ele><time>2026-05-02T12:40:19.594Z</time></trkpt><trkpt lat="46.1463817" lon="13.44551"><ele>324.0</ele><time>2026-05-02T12:40:20.594Z</time></trkpt><trkpt lat="46.146415" lon="13.4453683"><ele>323.0</ele><time>2026-05-02T12:40:21.594Z</time></trkpt><trkpt lat="46.1464467" lon="13.4452367"><ele>322.0</ele><time>2026-05-02T12:40:22.594Z</time></trkpt><trkpt lat="46.1464633" lon="13.44511"><ele>321.0</ele><time>2026-05-02T12:40:23.594Z</time></trkpt><trkpt lat="46.1464983" lon="13.4449983"><ele>320.0</ele><time>2026-05-02T12:40:24.594Z</time></trkpt><trkpt lat="46.146525" lon="13.4449"><ele>319.0</ele><time>2026-05-02T12:40:25.594Z</time></trkpt><trkpt lat="46.1465683" lon="13.444815"><ele>318.0</ele><time>2026-05-02T12:40:26.594Z</time></trkpt><trkpt lat="46.14659" lon="13.44466"><ele>315.4</ele><time>2026-05-02T12:40:28.594Z</time></trkpt><trkpt lat="46.1465367" lon="13.4445767"><ele>312.8</ele><time>2026-05-02T12:40:30.594Z</time></trkpt><trkpt lat="46.14642" lon="13.4446817"><ele>310.2</ele><time>2026-05-02T12:40:32.595Z</time></trkpt><trkpt lat="46.1463467" lon="13.4447767"><ele>307.6</ele><time>2026-05-02T12:40:33.594Z</time></trkpt><trkpt lat="46.14627" lon="13.44489"><ele>305.0</ele><time>2026-05-02T12:40:34.594Z</time></trkpt><trkpt lat="46.1461883" lon="13.4450067"><ele>305.0</ele><time>2026-05-02T12:40:35.595Z</time></trkpt><trkpt lat="46.1461133" lon="13.4451233"><ele>305.0</ele><time>2026-05-02T12:40:36.593Z</time></trkpt><trkpt lat="46.1460433" lon="13.445225"><ele>305.0</ele><time>2026-05-02T12:40:37.595Z</time></trkpt><trkpt lat="46.14599" lon="13.4453167"><ele>305.0</ele><time>2026-05-02T12:40:38.595Z</time></trkpt><trkpt lat="46.1459" lon="13.4453817"><ele>305.0</ele><time>2026-05-02T12:40:40.596Z</time></trkpt><trkpt lat="46.1458567" lon="13.44531"><ele>305.0</ele><time>2026-05-02T12:40:42.594Z</time></trkpt><trkpt lat="46.1458817" lon="13.4451933"><ele>305.0</ele><time>2026-05-02T12:40:43.594Z</time></trkpt><trkpt lat="46.1459283" lon="13.44508"><ele>305.0</ele><time>2026-05-02T12:40:44.594Z</time></trkpt><trkpt lat="46.1459767" lon="13.4449533"><ele>305.0</ele><time>2026-05-02T12:40:45.595Z</time></trkpt><trkpt lat="46.1459967" lon="13.4448333"><ele>305.0</ele><time>2026-05-02T12:40:46.595Z</time></trkpt><trkpt lat="46.1460117" lon="13.4446883"><ele>299.25</ele><time>2026-05-02T12:40:47.594Z</time></trkpt><trkpt lat="46.1460383" lon="13.4445183"><ele>293.5</ele><time>2026-05-02T12:40:48.594Z</time></trkpt><trkpt lat="46.1460733" lon="13.4443417"><ele>287.75</ele><time>2026-05-02T12:40:49.594Z</time></trkpt><trkpt lat="46.14612" lon="13.44416"><ele>282.0</ele><time>2026-05-02T12:40:50.596Z</time></trkpt><trkpt lat="46.14616" lon="13.443985"><ele>282.0</ele><time>2026-05-02T12:40:51.594Z</time></trkpt><trkpt lat="46.14622" lon="13.4438183"><ele>282.0</ele><time>2026-05-02T12:40:52.595Z</time></trkpt><trkpt lat="46.1462833" lon="13.4436783"><ele>282.0</ele><time>2026-05-02T12:40:53.594Z</time></trkpt><trkpt lat="46.1463467" lon="13.4435683"><ele>282.0</ele><time>2026-05-02T12:40:54.594Z</time></trkpt><trkpt lat="46.1463983" lon="13.4434833"><ele>282.0</ele><time>2026-05-02T12:40:55.595Z</time></trkpt><trkpt lat="46.1465117" lon="13.443415"><ele>280.4</ele><time>2026-05-02T12:40:57.594Z</time></trkpt><trkpt lat="46.1466333" lon="13.4434683"><ele>278.79999999999995</ele><time>2026-05-02T12:40:59.595Z</time></trkpt><trkpt lat="46.1467" lon="13.443565"><ele>277.2</ele><time>2026-05-02T12:41:00.595Z</time></trkpt><trkpt lat="46.1467867" lon="13.4436883"><ele>275.59999999999997</ele><time>2026-05-02T12:41:01.594Z</time></trkpt><trkpt lat="46.1468533" lon="13.4437833"><ele>274.0</ele><time>2026-05-02T12:41:02.596Z</time></trkpt><trkpt lat="46.1469033" lon="13.4438617"><ele>274.0</ele><time>2026-05-02T12:41:03.593Z</time></trkpt><trkpt lat="46.1469483" lon="13.44393"><ele>274.0</ele><time>2026-05-02T12:41:04.596Z</time></trkpt><trkpt lat="46.1470033" lon="13.444005"><ele>274.0</ele><time>2026-05-02T12:41:06.594Z</time></trkpt><trkpt lat="46.1470183" lon="13.443905"><ele>274.0</ele><time>2026-05-02T12:41:09.594Z</time></trkpt><trkpt lat="46.146935" lon="13.44379"><ele>274.0</ele><time>2026-05-02T12:41:11.596Z</time></trkpt><trkpt lat="46.1468817" lon="13.4436967"><ele>274.0</ele><time>2026-05-02T12:41:12.594Z</time></trkpt><trkpt lat="46.14682" lon="13.4435883"><ele>274.0</ele><time>2026-05-02T12:41:13.594Z</time></trkpt><trkpt lat="46.14677" lon="13.4434717"><ele>274.0</ele><time>2026-05-02T12:41:14.595Z</time></trkpt><trkpt lat="46.1467317" lon="13.4433517"><ele>274.0</ele><time>2026-05-02T12:41:15.595Z</time></trkpt><trkpt lat="46.1467133" lon="13.4432283"><ele>274.0</ele><time>2026-05-02T12:41:16.595Z</time></trkpt><trkpt lat="46.1467167" lon="13.4431117"><ele>274.0</ele><time>2026-05-02T12:41:17.595Z</time></trkpt><trkpt lat="46.14674" lon="13.44299"><ele>274.0</ele><time>2026-05-02T12:41:18.595Z</time></trkpt><trkpt lat="46.1467367" lon="13.442865"><ele>272.0</ele><time>2026-05-02T12:41:19.594Z</time></trkpt><trkpt lat="46.1467333" lon="13.4427333"><ele>270.0</ele><time>2026-05-02T12:41:20.596Z</time></trkpt><trkpt lat="46.1466867" lon="13.44261"><ele>268.0</ele><time>2026-05-02T12:41:21.595Z</time></trkpt><trkpt lat="46.1466217" lon="13.4424933"><ele>266.0</ele><time>2026-05-02T12:41:22.596Z</time></trkpt><trkpt lat="46.1465733" lon="13.4423767"><ele>264.0</ele><time>2026-05-02T12:41:23.594Z</time></trkpt><trkpt lat="46.146545" lon="13.4422583"><ele>262.0</ele><time>2026-05-02T12:41:24.593Z</time></trkpt><trkpt lat="46.1465067" lon="13.4421483"><ele>260.0</ele><time>2026-05-02T12:41:25.594Z</time></trkpt><trkpt lat="46.146455" lon="13.4420883"><ele>258.0</ele><time>2026-05-02T12:41:26.594Z</time></trkpt><trkpt lat="46.1463333" lon="13.4421067"><ele>256.0</ele><time>2026-05-02T12:41:28.594Z</time></trkpt><trkpt lat="46.14628" lon="13.4421733"><ele>254.0</ele><time>2026-05-02T12:41:29.594Z</time></trkpt><trkpt lat="46.1462333" lon="13.44228"><ele>252.0</ele><time>2026-05-02T12:41:30.596Z</time></trkpt><trkpt lat="46.14619" lon="13.4424283"><ele>252.0</ele><time>2026-05-02T12:41:31.595Z</time></trkpt><trkpt lat="46.1461367" lon="13.4425983"><ele>252.0</ele><time>2026-05-02T12:41:32.595Z</time></trkpt><trkpt lat="46.146085" lon="13.4427583"><ele>252.0</ele><time>2026-05-02T12:41:33.595Z</time></trkpt><trkpt lat="46.146025" lon="13.4428817"><ele>252.0</ele><time>2026-05-02T12:41:34.595Z</time></trkpt><trkpt lat="46.145935" lon="13.4429767"><ele>253.0</ele><time>2026-05-02T12:41:35.594Z</time></trkpt><trkpt lat="46.145835" lon="13.4430633"><ele>254.0</ele><time>2026-05-02T12:41:36.595Z</time></trkpt><trkpt lat="46.1457267" lon="13.4431333"><ele>255.0</ele><time>2026-05-02T12:41:37.594Z</time></trkpt><trkpt lat="46.14562" lon="13.4431867"><ele>256.0</ele><time>2026-05-02T12:41:38.595Z</time></trkpt><trkpt lat="46.145525" lon="13.4432317"><ele>257.0</ele><time>2026-05-02T12:41:39.594Z</time></trkpt><trkpt lat="46.145445" lon="13.44325"><ele>257.0</ele><time>2026-05-02T12:41:40.595Z</time></trkpt><trkpt lat="46.1453733" lon="13.4432333"><ele>257.0</ele><time>2026-05-02T12:41:41.595Z</time></trkpt><trkpt lat="46.145315" lon="13.4431517"><ele>257.0</ele><time>2026-05-02T12:41:42.594Z</time></trkpt><trkpt lat="46.145265" lon="13.443035"><ele>257.0</ele><time>2026-05-02T12:41:43.595Z</time></trkpt><trkpt lat="46.1451867" lon="13.4429133"><ele>257.0</ele><time>2026-05-02T12:41:44.596Z</time></trkpt><trkpt lat="46.1451067" lon="13.4428083"><ele>253.5</ele><time>2026-05-02T12:41:45.595Z</time></trkpt><trkpt lat="46.1449983" lon="13.44273"><ele>250.0</ele><time>2026-05-02T12:41:46.594Z</time></trkpt><trkpt lat="46.1448733" lon="13.442705"><ele>246.5</ele><time>2026-05-02T12:41:47.594Z</time></trkpt><trkpt lat="46.144735" lon="13.4426533"><ele>243.0</ele><time>2026-05-02T12:41:48.594Z</time></trkpt><trkpt lat="46.14459" lon="13.4425667"><ele>239.0</ele><time>2026-05-02T12:41:49.595Z</time></trkpt><trkpt lat="46.14445" lon="13.442455"><ele>235.0</ele><time>2026-05-02T12:41:50.596Z</time></trkpt><trkpt lat="46.14431" lon="13.442335"><ele>231.0</ele><time>2026-05-02T12:41:51.595Z</time></trkpt><trkpt lat="46.14417" lon="13.4422383"><ele>230.75</ele><time>2026-05-02T12:41:52.596Z</time></trkpt><trkpt lat="46.1440283" lon="13.4421717"><ele>230.5</ele><time>2026-05-02T12:41:53.594Z</time></trkpt><trkpt lat="46.14388" lon="13.442135"><ele>230.25</ele><time>2026-05-02T12:41:54.594Z</time></trkpt><trkpt lat="46.1437333" lon="13.4421233"><ele>230.0</ele><time>2026-05-02T12:41:55.594Z</time></trkpt><trkpt lat="46.1435983" lon="13.442095"><ele>230.0</ele><time>2026-05-02T12:41:56.595Z</time></trkpt><trkpt lat="46.143485" lon="13.442025"><ele>230.0</ele><time>2026-05-02T12:41:57.595Z</time></trkpt><trkpt lat="46.143355" lon="13.4419617"><ele>230.0</ele><time>2026-05-02T12:41:58.595Z</time></trkpt><trkpt lat="46.1432817" lon="13.441805"><ele>230.0</ele><time>2026-05-02T12:41:59.595Z</time></trkpt><trkpt lat="46.1432017" lon="13.4416533"><ele>229.25</ele><time>2026-05-02T12:42:00.595Z</time></trkpt><trkpt lat="46.14312" lon="13.441515"><ele>228.5</ele><time>2026-05-02T12:42:01.595Z</time></trkpt><trkpt lat="46.1430283" lon="13.4413917"><ele>227.75</ele><time>2026-05-02T12:42:02.596Z</time></trkpt><trkpt lat="46.1429417" lon="13.4412967"><ele>227.0</ele><time>2026-05-02T12:42:03.594Z</time></trkpt><trkpt lat="46.14284" lon="13.4412317"><ele>226.75</ele><time>2026-05-02T12:42:04.596Z</time></trkpt><trkpt lat="46.1427217" lon="13.44121"><ele>226.5</ele><time>2026-05-02T12:42:05.594Z</time></trkpt><trkpt lat="46.14258" lon="13.4411717"><ele>226.25</ele><time>2026-05-02T12:42:06.595Z</time></trkpt><trkpt lat="46.1424117" lon="13.44116"><ele>226.0</ele><time>2026-05-02T12:42:07.596Z</time></trkpt><trkpt lat="46.1422383" lon="13.4411433"><ele>225.0</ele><time>2026-05-02T12:42:08.596Z</time></trkpt><trkpt lat="46.1420667" lon="13.44114"><ele>224.0</ele><time>2026-05-02T12:42:09.594Z</time></trkpt><trkpt lat="46.1419033" lon="13.4411117"><ele>223.0</ele><time>2026-05-02T12:42:10.594Z</time></trkpt><trkpt lat="46.1417567" lon="13.4411067"><ele>223.0</ele><time>2026-05-02T12:42:11.595Z</time></trkpt><trkpt lat="46.1416217" lon="13.4411133"><ele>223.0</ele><time>2026-05-02T12:42:12.593Z</time></trkpt><trkpt lat="46.1414967" lon="13.4411033"><ele>223.0</ele><time>2026-05-02T12:42:13.595Z</time></trkpt><trkpt lat="46.1413783" lon="13.441105"><ele>223.0</ele><time>2026-05-02T12:42:14.596Z</time></trkpt><trkpt lat="46.1412617" lon="13.441135"><ele>222.5</ele><time>2026-05-02T12:42:15.593Z</time></trkpt><trkpt lat="46.1411467" lon="13.4411833"><ele>222.0</ele><time>2026-05-02T12:42:16.593Z</time></trkpt><trkpt lat="46.1410317" lon="13.4412433"><ele>221.5</ele><time>2026-05-02T12:42:17.593Z</time></trkpt><trkpt lat="46.140925" lon="13.4412983"><ele>221.0</ele><time>2026-05-02T12:42:18.594Z</time></trkpt><trkpt lat="46.1408117" lon="13.441335"><ele>220.25</ele><time>2026-05-02T12:42:19.593Z</time></trkpt><trkpt lat="46.1406967" lon="13.44136"><ele>219.5</ele><time>2026-05-02T12:42:20.597Z</time></trkpt><trkpt lat="46.1405783" lon="13.44137"><ele>218.75</ele><time>2026-05-02T12:42:21.593Z</time></trkpt><trkpt lat="46.1404517" lon="13.4413583"><ele>218.0</ele><time>2026-05-02T12:42:22.594Z</time></trkpt><trkpt lat="46.14032" lon="13.44134"><ele>218.0</ele><time>2026-05-02T12:42:23.594Z</time></trkpt><trkpt lat="46.1401767" lon="13.4413183"><ele>218.0</ele><time>2026-05-02T12:42:24.593Z</time></trkpt><trkpt lat="46.1400333" lon="13.4412917"><ele>218.0</ele><time>2026-05-02T12:42:25.593Z</time></trkpt><trkpt lat="46.1398883" lon="13.4412683"><ele>218.0</ele><time>2026-05-02T12:42:26.594Z</time></trkpt><trkpt lat="46.1397433" lon="13.4412467"><ele>216.5</ele><time>2026-05-02T12:42:27.593Z</time></trkpt><trkpt lat="46.139595" lon="13.4412267"><ele>215.0</ele><time>2026-05-02T12:42:28.594Z</time></trkpt><trkpt lat="46.13945" lon="13.4412033"><ele>213.5</ele><time>2026-05-02T12:42:29.593Z</time></trkpt><trkpt lat="46.139305" lon="13.4411733"><ele>212.0</ele><time>2026-05-02T12:42:30.593Z</time></trkpt><trkpt lat="46.139165" lon="13.441145"><ele>211.0</ele><time>2026-05-02T12:42:31.594Z</time></trkpt><trkpt lat="46.13903" lon="13.4411083"><ele>210.0</ele><time>2026-05-02T12:42:32.595Z</time></trkpt><trkpt lat="46.1389033" lon="13.4410733"><ele>209.0</ele><time>2026-05-02T12:42:33.594Z</time></trkpt><trkpt lat="46.1387817" lon="13.4410367"><ele>208.0</ele><time>2026-05-02T12:42:34.594Z</time></trkpt><trkpt lat="46.1386683" lon="13.4409983"><ele>208.0</ele><time>2026-05-02T12:42:35.593Z</time></trkpt><trkpt lat="46.13856" lon="13.44096"><ele>208.0</ele><time>2026-05-02T12:42:36.594Z</time></trkpt><trkpt lat="46.138455" lon="13.4409183"><ele>208.0</ele><time>2026-05-02T12:42:37.594Z</time></trkpt><trkpt lat="46.13836" lon="13.4408567"><ele>208.0</ele><time>2026-05-02T12:42:38.594Z</time></trkpt><trkpt lat="46.1382717" lon="13.4407817"><ele>208.0</ele><time>2026-05-02T12:42:39.594Z</time></trkpt><trkpt lat="46.1382" lon="13.4406783"><ele>208.5</ele><time>2026-05-02T12:42:40.593Z</time></trkpt><trkpt lat="46.138155" lon="13.4405467"><ele>209.0</ele><time>2026-05-02T12:42:41.594Z</time></trkpt><trkpt lat="46.1381417" lon="13.4403833"><ele>209.5</ele><time>2026-05-02T12:42:42.594Z</time></trkpt><trkpt lat="46.13814" lon="13.4401983"><ele>210.0</ele><time>2026-05-02T12:42:43.593Z</time></trkpt><trkpt lat="46.1381483" lon="13.4399933"><ele>209.0</ele><time>2026-05-02T12:42:44.594Z</time></trkpt><trkpt lat="46.1381617" lon="13.4397817"><ele>208.0</ele><time>2026-05-02T12:42:45.593Z</time></trkpt><trkpt lat="46.138175" lon="13.4395733"><ele>207.0</ele><time>2026-05-02T12:42:46.593Z</time></trkpt><trkpt lat="46.1381883" lon="13.4393817"><ele>206.0</ele><time>2026-05-02T12:42:47.593Z</time></trkpt><trkpt lat="46.1382" lon="13.4392133"><ele>206.0</ele><time>2026-05-02T12:42:48.593Z</time></trkpt><trkpt lat="46.1382083" lon="13.4390717"><ele>206.0</ele><time>2026-05-02T12:42:49.593Z</time></trkpt><trkpt lat="46.138215" lon="13.4389533"><ele>206.0</ele><time>2026-05-02T12:42:50.594Z</time></trkpt><trkpt lat="46.1382317" lon="13.4388517"><ele>206.0</ele><time>2026-05-02T12:42:51.593Z</time></trkpt><trkpt lat="46.138315" lon="13.4387217"><ele>206.0</ele><time>2026-05-02T12:42:53.593Z</time></trkpt><trkpt lat="46.1384017" lon="13.4386817"><ele>206.60000000000002</ele><time>2026-05-02T12:42:54.594Z</time></trkpt><trkpt lat="46.1384967" lon="13.4386217"><ele>207.2</ele><time>2026-05-02T12:42:55.593Z</time></trkpt><trkpt lat="46.138595" lon="13.4385467"><ele>207.8</ele><time>2026-05-02T12:42:56.595Z</time></trkpt><trkpt lat="46.1386933" lon="13.4384733"><ele>208.39999999999998</ele><time>2026-05-02T12:42:57.594Z</time></trkpt><trkpt lat="46.1387867" lon="13.4384133"><ele>209.0</ele><time>2026-05-02T12:42:58.594Z</time></trkpt><trkpt lat="46.1388633" lon="13.438365"><ele>209.00000000000003</ele><time>2026-05-02T12:42:59.593Z</time></trkpt><trkpt lat="46.138925" lon="13.43832"><ele>209.0</ele><time>2026-05-02T12:43:00.594Z</time></trkpt><trkpt lat="46.1389817" lon="13.4381917"><ele>209.0</ele><time>2026-05-02T12:43:02.594Z</time></trkpt><trkpt lat="46.1389683" lon="13.4380083"><ele>209.0</ele><time>2026-05-02T12:43:04.594Z</time></trkpt><trkpt lat="46.138955" lon="13.4379017"><ele>209.00000000000003</ele><time>2026-05-02T12:43:05.593Z</time></trkpt><trkpt lat="46.1389517" lon="13.4378067"><ele>209.0</ele><time>2026-05-02T12:43:06.593Z</time></trkpt><trkpt lat="46.138935" lon="13.437635"><ele>209.83333333333334</ele><time>2026-05-02T12:43:08.594Z</time></trkpt><trkpt lat="46.1389183" lon="13.4374983"><ele>210.66666666666669</ele><time>2026-05-02T12:43:10.593Z</time></trkpt><trkpt lat="46.1388867" lon="13.4374033"><ele>211.5</ele><time>2026-05-02T12:43:12.593Z</time></trkpt><trkpt lat="46.1388617" lon="13.437315"><ele>212.33333333333331</ele><time>2026-05-02T12:43:14.594Z</time></trkpt><trkpt lat="46.1387983" lon="13.4373"><ele>213.16666666666666</ele><time>2026-05-02T12:45:44.593Z</time></trkpt><trkpt lat="46.1387333" lon="13.4372317"><ele>214.0</ele><time>2026-05-02T13:04:44.606Z</time></trkpt><trkpt lat="46.1387833" lon="13.4371583"><ele>215.66666666666666</ele><time>2026-05-02T13:04:48.604Z</time></trkpt><trkpt lat="46.13884" lon="13.4370983"><ele>217.33333333333331</ele><time>2026-05-02T13:05:23.606Z</time></trkpt><trkpt lat="46.138895" lon="13.4370233"><ele>219.0</ele><time>2026-05-02T13:05:25.608Z</time></trkpt><trkpt lat="46.1390083" lon="13.436985"><ele>220.66666666666669</ele><time>2026-05-02T13:05:27.604Z</time></trkpt><trkpt lat="46.1390817" lon="13.4369783"><ele>222.33333333333334</ele><time>2026-05-02T13:05:28.604Z</time></trkpt><trkpt lat="46.1391583" lon="13.4369817"><ele>224.0</ele><time>2026-05-02T13:05:29.607Z</time></trkpt><trkpt lat="46.139235" lon="13.437005"><ele>224.2</ele><time>2026-05-02T13:05:30.606Z</time></trkpt><trkpt lat="46.1393133" lon="13.437035"><ele>224.39999999999998</ele><time>2026-05-02T13:05:31.609Z</time></trkpt><trkpt lat="46.13939" lon="13.4370667"><ele>224.6</ele><time>2026-05-02T13:05:32.607Z</time></trkpt><trkpt lat="46.1394633" lon="13.4371017"><ele>224.8</ele><time>2026-05-02T13:05:33.61Z</time></trkpt><trkpt lat="46.13956" lon="13.4371783"><ele>225.0</ele><time>2026-05-02T13:05:35.604Z</time></trkpt><trkpt lat="46.13961" lon="13.4373333"><ele>225.0</ele><time>2026-05-02T13:05:37.608Z</time></trkpt><trkpt lat="46.1396167" lon="13.4374383"><ele>225.0</ele><time>2026-05-02T13:05:38.608Z</time></trkpt><trkpt lat="46.1396433" lon="13.43759"><ele>225.0</ele><time>2026-05-02T13:05:40.602Z</time></trkpt><trkpt lat="46.1396817" lon="13.4376717"><ele>225.0</ele><time>2026-05-02T13:05:42.61Z</time></trkpt><trkpt lat="46.1397417" lon="13.4377033"><ele>225.0</ele><time>2026-05-02T13:05:44.606Z</time></trkpt><trkpt lat="46.1398433" lon="13.4377083"><ele>225.0</ele><time>2026-05-02T13:05:46.606Z</time></trkpt><trkpt lat="46.1399767" lon="13.437695"><ele>228.5</ele><time>2026-05-02T13:05:48.602Z</time></trkpt><trkpt lat="46.14006" lon="13.4376867"><ele>232.0</ele><time>2026-05-02T13:05:49.604Z</time></trkpt><trkpt lat="46.1401467" lon="13.4376733"><ele>235.5</ele><time>2026-05-02T13:05:50.607Z</time></trkpt><trkpt lat="46.1402333" lon="13.43766"><ele>239.0</ele><time>2026-05-02T13:05:51.607Z</time></trkpt><trkpt lat="46.14032" lon="13.4376483"><ele>242.5</ele><time>2026-05-02T13:05:52.603Z</time></trkpt><trkpt lat="46.1404033" lon="13.4376367"><ele>246.0</ele><time>2026-05-02T13:05:53.607Z</time></trkpt><trkpt lat="46.1404817" lon="13.4376267"><ele>246.0</ele><time>2026-05-02T13:05:54.605Z</time></trkpt><trkpt lat="46.14056" lon="13.437615"><ele>246.0</ele><time>2026-05-02T13:05:55.608Z</time></trkpt><trkpt lat="46.1406383" lon="13.4376083"><ele>246.0</ele><time>2026-05-02T13:05:56.609Z</time></trkpt><trkpt lat="46.1407167" lon="13.4375967"><ele>246.0</ele><time>2026-05-02T13:05:57.604Z</time></trkpt><trkpt lat="46.1407967" lon="13.4375817"><ele>246.0</ele><time>2026-05-02T13:05:58.604Z</time></trkpt><trkpt lat="46.1408783" lon="13.4375633"><ele>246.0</ele><time>2026-05-02T13:05:59.607Z</time></trkpt><trkpt lat="46.1409567" lon="13.4375417"><ele>249.16666666666666</ele><time>2026-05-02T13:06:00.603Z</time></trkpt><trkpt lat="46.1410383" lon="13.437525"><ele>252.33333333333331</ele><time>2026-05-02T13:06:01.606Z</time></trkpt><trkpt lat="46.1411233" lon="13.4375133"><ele>255.5</ele><time>2026-05-02T13:06:02.603Z</time></trkpt><trkpt lat="46.1412117" lon="13.4375083"><ele>258.66666666666663</ele><time>2026-05-02T13:06:03.607Z</time></trkpt><trkpt lat="46.1413" lon="13.4375083"><ele>261.8333333333333</ele><time>2026-05-02T13:06:04.603Z</time></trkpt><trkpt lat="46.1413883" lon="13.4375133"><ele>265.0</ele><time>2026-05-02T13:06:05.606Z</time></trkpt><trkpt lat="46.141475" lon="13.4375217"><ele>265.66666666666663</ele><time>2026-05-02T13:06:06.609Z</time></trkpt><trkpt lat="46.141555" lon="13.4375317"><ele>266.3333333333333</ele><time>2026-05-02T13:06:07.609Z</time></trkpt><trkpt lat="46.1416367" lon="13.437535"><ele>267.0</ele><time>2026-05-02T13:06:08.61Z</time></trkpt><trkpt lat="46.1417183" lon="13.4375383"><ele>267.6666666666667</ele><time>2026-05-02T13:06:09.61Z</time></trkpt><trkpt lat="46.1418" lon="13.437545"><ele>268.33333333333337</ele><time>2026-05-02T13:06:10.607Z</time></trkpt><trkpt lat="46.1418767" lon="13.4375417"><ele>269.0</ele><time>2026-05-02T13:06:11.608Z</time></trkpt><trkpt lat="46.1419433" lon="13.4375383"><ele>269.0</ele><time>2026-05-02T13:06:12.602Z</time></trkpt><trkpt lat="46.1420533" lon="13.4375383"><ele>269.0</ele><time>2026-05-02T13:06:14.607Z</time></trkpt><trkpt lat="46.1421733" lon="13.4375433"><ele>269.0</ele><time>2026-05-02T13:06:16.603Z</time></trkpt><trkpt lat="46.1422367" lon="13.4375533"><ele>269.0</ele><time>2026-05-02T13:06:17.605Z</time></trkpt><trkpt lat="46.1423583" lon="13.4375967"><ele>269.0</ele><time>2026-05-02T13:06:19.607Z</time></trkpt><trkpt lat="46.142425" lon="13.4376333"><ele>271.33333333333337</ele><time>2026-05-02T13:06:20.603Z</time></trkpt><trkpt lat="46.1425017" lon="13.437675"><ele>273.6666666666667</ele><time>2026-05-02T13:06:21.603Z</time></trkpt><trkpt lat="46.1425733" lon="13.4377117"><ele>276.0</ele><time>2026-05-02T13:06:22.604Z</time></trkpt><trkpt lat="46.142635" lon="13.4377333"><ele>278.3333333333333</ele><time>2026-05-02T13:06:23.605Z</time></trkpt><trkpt lat="46.142735" lon="13.4377367"><ele>280.66666666666663</ele><time>2026-05-02T13:06:25.605Z</time></trkpt><trkpt lat="46.1428433" lon="13.4377267"><ele>283.0</ele><time>2026-05-02T13:06:27.607Z</time></trkpt><trkpt lat="46.1429067" lon="13.4377083"><ele>283.0</ele><time>2026-05-02T13:06:28.604Z</time></trkpt><trkpt lat="46.1430183" lon="13.4376683"><ele>283.0</ele><time>2026-05-02T13:06:30.604Z</time></trkpt><trkpt lat="46.1431183" lon="13.4376833"><ele>283.0</ele><time>2026-05-02T13:06:32.604Z</time></trkpt><trkpt lat="46.1432417" lon="13.4377417"><ele>283.0</ele><time>2026-05-02T13:06:34.604Z</time></trkpt><trkpt lat="46.1433083" lon="13.437755"><ele>283.0</ele><time>2026-05-02T13:06:35.607Z</time></trkpt><trkpt lat="46.1433783" lon="13.4377567"><ele>284.66666666666663</ele><time>2026-05-02T13:06:36.607Z</time></trkpt><trkpt lat="46.1434483" lon="13.4377533"><ele>286.3333333333333</ele><time>2026-05-02T13:06:37.606Z</time></trkpt><trkpt lat="46.143515" lon="13.437765"><ele>288.0</ele><time>2026-05-02T13:06:38.607Z</time></trkpt><trkpt lat="46.1436283" lon="13.4377867"><ele>289.6666666666667</ele><time>2026-05-02T13:06:40.608Z</time></trkpt><trkpt lat="46.1437317" lon="13.437735"><ele>291.33333333333337</ele><time>2026-05-02T13:06:42.603Z</time></trkpt><trkpt lat="46.1437967" lon="13.4376883"><ele>293.0</ele><time>2026-05-02T13:06:43.605Z</time></trkpt><trkpt lat="46.14386" lon="13.43762"><ele>293.0</ele><time>2026-05-02T13:06:44.608Z</time></trkpt><trkpt lat="46.143925" lon="13.4375467"><ele>293.0</ele><time>2026-05-02T13:06:45.608Z</time></trkpt><trkpt lat="46.1439917" lon="13.437475"><ele>293.0</ele><time>2026-05-02T13:06:46.605Z</time></trkpt><trkpt lat="46.1440617" lon="13.43741"><ele>293.0</ele><time>2026-05-02T13:06:47.606Z</time></trkpt><trkpt lat="46.14414" lon="13.437355"><ele>293.0</ele><time>2026-05-02T13:06:48.602Z</time></trkpt><trkpt lat="46.1442167" lon="13.4373017"><ele>293.0</ele><time>2026-05-02T13:06:49.604Z</time></trkpt><trkpt lat="46.1442883" lon="13.4372467"><ele>292.6666666666667</ele><time>2026-05-02T13:06:50.607Z</time></trkpt><trkpt lat="46.144355" lon="13.4371883"><ele>292.33333333333337</ele><time>2026-05-02T13:06:51.606Z</time></trkpt><trkpt lat="46.1444267" lon="13.4371383"><ele>292.0</ele><time>2026-05-02T13:06:52.608Z</time></trkpt><trkpt lat="46.1445017" lon="13.4371017"><ele>291.6666666666667</ele><time>2026-05-02T13:06:53.606Z</time></trkpt><trkpt lat="46.14458" lon="13.4370717"><ele>291.3333333333333</ele><time>2026-05-02T13:06:54.605Z</time></trkpt><trkpt lat="46.144655" lon="13.43704"><ele>291.0</ele><time>2026-05-02T13:06:55.608Z</time></trkpt><trkpt lat="46.1447317" lon="13.43701"><ele>291.0</ele><time>2026-05-02T13:06:56.607Z</time></trkpt><trkpt lat="46.14481" lon="13.4369717"><ele>291.0</ele><time>2026-05-02T13:06:57.606Z</time></trkpt><trkpt lat="46.144885" lon="13.4369583"><ele>291.0</ele><time>2026-05-02T13:06:58.606Z</time></trkpt><trkpt lat="46.14495" lon="13.4369667"><ele>291.0</ele><time>2026-05-02T13:06:59.604Z</time></trkpt><trkpt lat="46.14501" lon="13.4369983"><ele>291.0</ele><time>2026-05-02T13:07:00.606Z</time></trkpt><trkpt lat="46.1450667" lon="13.4370517"><ele>291.0</ele><time>2026-05-02T13:07:01.606Z</time></trkpt><trkpt lat="46.1451617" lon="13.4371617"><ele>291.0</ele><time>2026-05-02T13:07:03.607Z</time></trkpt><trkpt lat="46.1452217" lon="13.43723"><ele>291.0</ele><time>2026-05-02T13:07:04.608Z</time></trkpt><trkpt lat="46.1452767" lon="13.4372783"><ele>291.0</ele><time>2026-05-02T13:07:05.605Z</time></trkpt><trkpt lat="46.1453683" lon="13.4373417"><ele>291.0</ele><time>2026-05-02T13:07:07.607Z</time></trkpt><trkpt lat="46.14547" lon="13.4373317"><ele>291.0</ele><time>2026-05-02T13:07:09.606Z</time></trkpt><trkpt lat="46.1455317" lon="13.4372983"><ele>291.0</ele><time>2026-05-02T13:07:10.604Z</time></trkpt><trkpt lat="46.1455983" lon="13.4372517"><ele>291.0</ele><time>2026-05-02T13:07:11.605Z</time></trkpt><trkpt lat="46.14567" lon="13.437205"><ele>291.0</ele><time>2026-05-02T13:07:12.603Z</time></trkpt><trkpt lat="46.1457467" lon="13.4371533"><ele>291.0</ele><time>2026-05-02T13:07:13.602Z</time></trkpt><trkpt lat="46.1458233" lon="13.4371017"><ele>291.0</ele><time>2026-05-02T13:07:14.608Z</time></trkpt><trkpt lat="46.1458933" lon="13.4370417"><ele>291.0</ele><time>2026-05-02T13:07:15.605Z</time></trkpt><trkpt lat="46.1459517" lon="13.4369933"><ele>291.0</ele><time>2026-05-02T13:07:16.605Z</time></trkpt><trkpt lat="46.14604" lon="13.4368833"><ele>297.4</ele><time>2026-05-02T13:07:18.609Z</time></trkpt><trkpt lat="46.14612" lon="13.4367317"><ele>303.8</ele><time>2026-05-02T13:07:20.609Z</time></trkpt><trkpt lat="46.14617" lon="13.43665"><ele>310.2</ele><time>2026-05-02T13:07:21.606Z</time></trkpt><trkpt lat="46.1462117" lon="13.43656"><ele>316.59999999999997</ele><time>2026-05-02T13:07:22.606Z</time></trkpt><trkpt lat="46.14625" lon="13.4364717"><ele>323.0</ele><time>2026-05-02T13:07:23.606Z</time></trkpt><trkpt lat="46.1462933" lon="13.43632"><ele>325.0</ele><time>2026-05-02T13:07:25.607Z</time></trkpt><trkpt lat="46.14636" lon="13.4361983"><ele>327.0</ele><time>2026-05-02T13:07:27.603Z</time></trkpt><trkpt lat="46.1464683" lon="13.436155"><ele>329.0</ele><time>2026-05-02T13:07:29.602Z</time></trkpt><trkpt lat="46.1465367" lon="13.4361333"><ele>331.0</ele><time>2026-05-02T13:07:30.605Z</time></trkpt><trkpt lat="46.1466267" lon="13.43611"><ele>333.0</ele><time>2026-05-02T13:07:31.606Z</time></trkpt><trkpt lat="46.1467233" lon="13.4360783"><ele>333.0</ele><time>2026-05-02T13:07:32.609Z</time></trkpt><trkpt lat="46.146825" lon="13.436035"><ele>333.0</ele><time>2026-05-02T13:07:33.608Z</time></trkpt><trkpt lat="46.1469267" lon="13.4359983"><ele>333.0</ele><time>2026-05-02T13:07:34.606Z</time></trkpt><trkpt lat="46.1470333" lon="13.43596"><ele>333.0</ele><time>2026-05-02T13:07:35.609Z</time></trkpt><trkpt lat="46.1471333" lon="13.4359117"><ele>333.0</ele><time>2026-05-02T13:07:36.604Z</time></trkpt><trkpt lat="46.1472367" lon="13.4358567"><ele>333.0</ele><time>2026-05-02T13:07:37.603Z</time></trkpt><trkpt lat="46.1473317" lon="13.435795"><ele>333.0</ele><time>2026-05-02T13:07:38.608Z</time></trkpt><trkpt lat="46.1474267" lon="13.4357417"><ele>333.0</ele><time>2026-05-02T13:07:39.607Z</time></trkpt><trkpt lat="46.14752" lon="13.4356667"><ele>333.0</ele><time>2026-05-02T13:07:40.606Z</time></trkpt><trkpt lat="46.1476067" lon="13.4356"><ele>333.0</ele><time>2026-05-02T13:07:41.605Z</time></trkpt><trkpt lat="46.1476867" lon="13.43554"><ele>330.8333333333333</ele><time>2026-05-02T13:07:42.603Z</time></trkpt><trkpt lat="46.14777" lon="13.4354933"><ele>328.6666666666667</ele><time>2026-05-02T13:07:43.609Z</time></trkpt><trkpt lat="46.1478583" lon="13.4354567"><ele>326.5</ele><time>2026-05-02T13:07:44.608Z</time></trkpt><trkpt lat="46.1479517" lon="13.4354267"><ele>324.33333333333337</ele><time>2026-05-02T13:07:45.604Z</time></trkpt><trkpt lat="46.1480333" lon="13.4354133"><ele>322.1666666666667</ele><time>2026-05-02T13:07:46.608Z</time></trkpt><trkpt lat="46.148115" lon="13.4354017"><ele>320.0</ele><time>2026-05-02T13:07:47.608Z</time></trkpt><trkpt lat="46.1481917" lon="13.435405"><ele>326.5</ele><time>2026-05-02T13:07:48.609Z</time></trkpt><trkpt lat="46.1482683" lon="13.4354133"><ele>333.0</ele><time>2026-05-02T13:07:49.607Z</time></trkpt><trkpt lat="46.14835" lon="13.435415"><ele>339.5</ele><time>2026-05-02T13:07:50.607Z</time></trkpt><trkpt lat="46.148435" lon="13.4353933"><ele>346.0</ele><time>2026-05-02T13:07:51.607Z</time></trkpt><trkpt lat="46.1485167" lon="13.4353633"><ele>352.5</ele><time>2026-05-02T13:07:52.608Z</time></trkpt><trkpt lat="46.1486" lon="13.435315"><ele>359.0</ele><time>2026-05-02T13:07:53.606Z</time></trkpt><trkpt lat="46.1486817" lon="13.4352583"><ele>359.0</ele><time>2026-05-02T13:07:54.605Z</time></trkpt><trkpt lat="46.1487683" lon="13.4351817"><ele>359.0</ele><time>2026-05-02T13:07:55.606Z</time></trkpt><trkpt lat="46.1488483" lon="13.4351183"><ele>359.0</ele><time>2026-05-02T13:07:56.607Z</time></trkpt><trkpt lat="46.14891" lon="13.4350783"><ele>359.0</ele><time>2026-05-02T13:07:57.605Z</time></trkpt><trkpt lat="46.1489833" lon="13.4349967"><ele>359.0</ele><time>2026-05-02T13:07:59.605Z</time></trkpt><trkpt lat="46.1490533" lon="13.43487"><ele>359.33333333333337</ele><time>2026-05-02T13:08:01.607Z</time></trkpt><trkpt lat="46.1490917" lon="13.434775"><ele>359.6666666666667</ele><time>2026-05-02T13:08:02.605Z</time></trkpt><trkpt lat="46.149135" lon="13.4346733"><ele>360.0</ele><time>2026-05-02T13:08:03.604Z</time></trkpt><trkpt lat="46.1491833" lon="13.43457"><ele>360.3333333333333</ele><time>2026-05-02T13:08:04.606Z</time></trkpt><trkpt lat="46.14923" lon="13.4344733"><ele>360.66666666666663</ele><time>2026-05-02T13:08:05.603Z</time></trkpt><trkpt lat="46.149265" lon="13.434385"><ele>361.0</ele><time>2026-05-02T13:08:06.604Z</time></trkpt><trkpt lat="46.1493133" lon="13.4342333"><ele>361.0</ele><time>2026-05-02T13:08:08.608Z</time></trkpt><trkpt lat="46.1493233" lon="13.434075"><ele>361.0</ele><time>2026-05-02T13:08:10.605Z</time></trkpt><trkpt lat="46.14934" lon="13.4339717"><ele>361.0</ele><time>2026-05-02T13:08:12.607Z</time></trkpt><trkpt lat="46.149415" lon="13.4339417"><ele>361.0</ele><time>2026-05-02T13:08:14.608Z</time></trkpt><trkpt lat="46.14954" lon="13.4340133"><ele>361.0</ele><time>2026-05-02T13:08:16.609Z</time></trkpt><trkpt lat="46.149615" lon="13.43406"><ele>361.0</ele><time>2026-05-02T13:08:17.604Z</time></trkpt><trkpt lat="46.149695" lon="13.43409"><ele>361.0</ele><time>2026-05-02T13:08:18.604Z</time></trkpt><trkpt lat="46.1497767" lon="13.434105"><ele>361.0</ele><time>2026-05-02T13:08:19.602Z</time></trkpt><trkpt lat="46.1498567" lon="13.4341017"><ele>361.0</ele><time>2026-05-02T13:08:20.607Z</time></trkpt><trkpt lat="46.149925" lon="13.4340833"><ele>361.0</ele><time>2026-05-02T13:08:21.607Z</time></trkpt><trkpt lat="46.1499933" lon="13.434045"><ele>361.0</ele><time>2026-05-02T13:08:22.605Z</time></trkpt><trkpt lat="46.1500667" lon="13.4339783"><ele>358.66666666666663</ele><time>2026-05-02T13:08:23.607Z</time></trkpt><trkpt lat="46.1501467" lon="13.433905"><ele>356.3333333333333</ele><time>2026-05-02T13:08:24.605Z</time></trkpt><trkpt lat="46.1502267" lon="13.433835"><ele>354.0</ele><time>2026-05-02T13:08:25.605Z</time></trkpt><trkpt lat="46.1503017" lon="13.4337683"><ele>351.6666666666667</ele><time>2026-05-02T13:08:26.604Z</time></trkpt><trkpt lat="46.1503733" lon="13.4337017"><ele>349.33333333333337</ele><time>2026-05-02T13:08:27.607Z</time></trkpt><trkpt lat="46.1504333" lon="13.43364"><ele>347.0</ele><time>2026-05-02T13:08:28.603Z</time></trkpt><trkpt lat="46.1504833" lon="13.4335817"><ele>349.0</ele><time>2026-05-02T13:08:29.608Z</time></trkpt><trkpt lat="46.1505833" lon="13.433475"><ele>351.0</ele><time>2026-05-02T13:08:31.607Z</time></trkpt><trkpt lat="46.1506283" lon="13.43341"><ele>353.0</ele><time>2026-05-02T13:08:32.604Z</time></trkpt><trkpt lat="46.1506967" lon="13.433275"><ele>355.0</ele><time>2026-05-02T13:08:34.604Z</time></trkpt><trkpt lat="46.1507533" lon="13.4330983"><ele>357.0</ele><time>2026-05-02T13:08:36.603Z</time></trkpt><trkpt lat="46.1507717" lon="13.4329933"><ele>361.0</ele><time>2026-05-02T13:08:37.605Z</time></trkpt><trkpt lat="46.1507917" lon="13.4328833"><ele>365.0</ele><time>2026-05-02T13:08:38.608Z</time></trkpt><trkpt lat="46.15081" lon="13.43276"><ele>369.0</ele><time>2026-05-02T13:08:39.603Z</time></trkpt><trkpt lat="46.1508267" lon="13.4326183"><ele>373.0</ele><time>2026-05-02T13:08:40.608Z</time></trkpt><trkpt lat="46.1508417" lon="13.4324767"><ele>377.0</ele><time>2026-05-02T13:08:41.607Z</time></trkpt><trkpt lat="46.1508583" lon="13.43234"><ele>377.0</ele><time>2026-05-02T13:08:42.609Z</time></trkpt><trkpt lat="46.1508683" lon="13.432215"><ele>377.0</ele><time>2026-05-02T13:08:43.61Z</time></trkpt><trkpt lat="46.1508817" lon="13.43211"><ele>377.0</ele><time>2026-05-02T13:08:44.61Z</time></trkpt><trkpt lat="46.1509" lon="13.43202"><ele>377.0</ele><time>2026-05-02T13:08:45.607Z</time></trkpt><trkpt lat="46.1509217" lon="13.4318667"><ele>377.0</ele><time>2026-05-02T13:08:47.606Z</time></trkpt><trkpt lat="46.1508967" lon="13.4317067"><ele>377.0</ele><time>2026-05-02T13:08:49.607Z</time></trkpt><trkpt lat="46.1508617" lon="13.431615"><ele>378.83333333333337</ele><time>2026-05-02T13:08:50.61Z</time></trkpt><trkpt lat="46.1508167" lon="13.43151"><ele>380.6666666666667</ele><time>2026-05-02T13:08:51.601Z</time></trkpt><trkpt lat="46.1507733" lon="13.4314017"><ele>382.5</ele><time>2026-05-02T13:08:52.605Z</time></trkpt><trkpt lat="46.1507417" lon="13.4313"><ele>384.33333333333337</ele><time>2026-05-02T13:08:53.606Z</time></trkpt><trkpt lat="46.15073" lon="13.4312083"><ele>386.1666666666667</ele><time>2026-05-02T13:08:54.608Z</time></trkpt><trkpt lat="46.1507317" lon="13.4310433"><ele>388.0</ele><time>2026-05-02T13:08:56.61Z</time></trkpt><trkpt lat="46.1508" lon="13.430875"><ele>389.59999999999997</ele><time>2026-05-02T13:08:58.611Z</time></trkpt><trkpt lat="46.1508583" lon="13.4307667"><ele>391.2</ele><time>2026-05-02T13:08:59.607Z</time></trkpt><trkpt lat="46.1509133" lon="13.4306533"><ele>392.8</ele><time>2026-05-02T13:09:00.605Z</time></trkpt><trkpt lat="46.1509617" lon="13.43054"><ele>394.4</ele><time>2026-05-02T13:09:01.604Z</time></trkpt><trkpt lat="46.15101" lon="13.4304183"><ele>396.0</ele><time>2026-05-02T13:09:02.606Z</time></trkpt><trkpt lat="46.1510567" lon="13.4302967"><ele>400.0</ele><time>2026-05-02T13:09:03.606Z</time></trkpt><trkpt lat="46.1510983" lon="13.4301717"><ele>404.0</ele><time>2026-05-02T13:09:04.604Z</time></trkpt><trkpt lat="46.1511467" lon="13.43004"><ele>408.0</ele><time>2026-05-02T13:09:05.595Z</time></trkpt><trkpt lat="46.1512" lon="13.429935"><ele>412.0</ele><time>2026-05-02T13:09:06.595Z</time></trkpt><trkpt lat="46.1512417" lon="13.4298383"><ele>416.0</ele><time>2026-05-02T13:09:07.597Z</time></trkpt><trkpt lat="46.151285" lon="13.429725"><ele>414.16666666666663</ele><time>2026-05-02T13:09:08.595Z</time></trkpt><trkpt lat="46.1513383" lon="13.4296217"><ele>412.3333333333333</ele><time>2026-05-02T13:09:09.598Z</time></trkpt><trkpt lat="46.1513917" lon="13.42953"><ele>410.5</ele><time>2026-05-02T13:09:10.597Z</time></trkpt><trkpt lat="46.1514383" lon="13.429445"><ele>408.66666666666663</ele><time>2026-05-02T13:09:11.605Z</time></trkpt><trkpt lat="46.1515083" lon="13.42935"><ele>406.8333333333333</ele><time>2026-05-02T13:09:13.605Z</time></trkpt><trkpt lat="46.1515883" lon="13.4293217"><ele>405.0</ele><time>2026-05-02T13:09:16.604Z</time></trkpt><trkpt lat="46.1515983" lon="13.4294133"><ele>405.0</ele><time>2026-05-02T13:09:19.607Z</time></trkpt><trkpt lat="46.1515667" lon="13.4295133"><ele>405.0</ele><time>2026-05-02T13:09:21.605Z</time></trkpt><trkpt lat="46.1515917" lon="13.429685"><ele>405.0</ele><time>2026-05-02T13:09:23.604Z</time></trkpt><trkpt lat="46.1516267" lon="13.4297767"><ele>405.0</ele><time>2026-05-02T13:09:24.603Z</time></trkpt><trkpt lat="46.151665" lon="13.429875"><ele>405.0</ele><time>2026-05-02T13:09:25.606Z</time></trkpt><trkpt lat="46.15171" lon="13.4299783"><ele>405.0</ele><time>2026-05-02T13:09:26.607Z</time></trkpt><trkpt lat="46.151775" lon="13.430085"><ele>402.0</ele><time>2026-05-02T13:09:27.606Z</time></trkpt><trkpt lat="46.15186" lon="13.4301917"><ele>399.0</ele><time>2026-05-02T13:09:28.607Z</time></trkpt><trkpt lat="46.15194" lon="13.4302967"><ele>396.0</ele><time>2026-05-02T13:09:29.607Z</time></trkpt><trkpt lat="46.1520233" lon="13.4303917"><ele>393.0</ele><time>2026-05-02T13:09:30.605Z</time></trkpt><trkpt lat="46.152095" lon="13.430475"><ele>390.0</ele><time>2026-05-02T13:09:31.604Z</time></trkpt><trkpt lat="46.1521583" lon="13.4305417"><ele>389.0</ele><time>2026-05-02T13:09:32.604Z</time></trkpt><trkpt lat="46.1522217" lon="13.43059"><ele>388.0</ele><time>2026-05-02T13:09:33.607Z</time></trkpt><trkpt lat="46.1523333" lon="13.4306067"><ele>387.0</ele><time>2026-05-02T13:09:35.605Z</time></trkpt><trkpt lat="46.1524033" lon="13.4305867"><ele>386.0</ele><time>2026-05-02T13:09:36.604Z</time></trkpt><trkpt lat="46.1524833" lon="13.430555"><ele>385.0</ele><time>2026-05-02T13:09:37.602Z</time></trkpt><trkpt lat="46.1525717" lon="13.43052"><ele>384.0</ele><time>2026-05-02T13:09:38.61Z</time></trkpt><trkpt lat="46.15266" lon="13.430485"><ele>388.1666666666667</ele><time>2026-05-02T13:09:39.602Z</time></trkpt><trkpt lat="46.15275" lon="13.4304617"><ele>392.33333333333337</ele><time>2026-05-02T13:09:40.604Z</time></trkpt><trkpt lat="46.1528417" lon="13.430455"><ele>396.5</ele><time>2026-05-02T13:09:41.604Z</time></trkpt><trkpt lat="46.1529317" lon="13.4304517"><ele>400.6666666666667</ele><time>2026-05-02T13:09:42.605Z</time></trkpt><trkpt lat="46.153015" lon="13.43044"><ele>404.83333333333337</ele><time>2026-05-02T13:09:43.604Z</time></trkpt><trkpt lat="46.153095" lon="13.43042"><ele>409.0</ele><time>2026-05-02T13:09:44.606Z</time></trkpt><trkpt lat="46.1531667" lon="13.43039"><ele>410.00000000000006</ele><time>2026-05-02T13:09:45.608Z</time></trkpt><trkpt lat="46.1532383" lon="13.430355"><ele>411.0</ele><time>2026-05-02T13:09:46.605Z</time></trkpt><trkpt lat="46.1533117" lon="13.430315"><ele>412.0</ele><time>2026-05-02T13:09:47.608Z</time></trkpt><trkpt lat="46.15338" lon="13.430295"><ele>413.0</ele><time>2026-05-02T13:09:48.603Z</time></trkpt><trkpt lat="46.1534467" lon="13.4302967"><ele>414.00000000000006</ele><time>2026-05-02T13:09:49.605Z</time></trkpt><trkpt lat="46.1535467" lon="13.4303667"><ele>415.0</ele><time>2026-05-02T13:09:51.607Z</time></trkpt><trkpt lat="46.1536017" lon="13.430495"><ele>412.1666666666667</ele><time>2026-05-02T13:09:53.602Z</time></trkpt><trkpt lat="46.1536667" lon="13.43058"><ele>409.33333333333337</ele><time>2026-05-02T13:09:55.602Z</time></trkpt><trkpt lat="46.1537917" lon="13.4306067"><ele>406.5</ele><time>2026-05-02T13:09:57.606Z</time></trkpt><trkpt lat="46.1538633" lon="13.430625"><ele>403.66666666666663</ele><time>2026-05-02T13:09:58.604Z</time></trkpt><trkpt lat="46.153935" lon="13.4306333"><ele>400.8333333333333</ele><time>2026-05-02T13:09:59.603Z</time></trkpt><trkpt lat="46.1540017" lon="13.4306383"><ele>398.0</ele><time>2026-05-02T13:10:00.606Z</time></trkpt><trkpt lat="46.1541167" lon="13.430595"><ele>398.0</ele><time>2026-05-02T13:10:02.608Z</time></trkpt><trkpt lat="46.1542183" lon="13.43049"><ele>398.0</ele><time>2026-05-02T13:10:04.603Z</time></trkpt><trkpt lat="46.1542783" lon="13.4304267"><ele>398.0</ele><time>2026-05-02T13:10:05.607Z</time></trkpt><trkpt lat="46.1543467" lon="13.4303567"><ele>398.0</ele><time>2026-05-02T13:10:06.604Z</time></trkpt><trkpt lat="46.1544217" lon="13.430275"><ele>398.0</ele><time>2026-05-02T13:10:07.606Z</time></trkpt><trkpt lat="46.154505" lon="13.430195"><ele>401.59999999999997</ele><time>2026-05-02T13:10:08.608Z</time></trkpt><trkpt lat="46.1545917" lon="13.43012"><ele>405.2</ele><time>2026-05-02T13:10:09.606Z</time></trkpt><trkpt lat="46.1546783" lon="13.4300483"><ele>408.8</ele><time>2026-05-02T13:10:10.603Z</time></trkpt><trkpt lat="46.1547617" lon="13.4299717"><ele>412.4</ele><time>2026-05-02T13:10:11.604Z</time></trkpt><trkpt lat="46.1548417" lon="13.4299017"><ele>416.0</ele><time>2026-05-02T13:10:12.606Z</time></trkpt><trkpt lat="46.1549233" lon="13.4298367"><ele>415.99999999999994</ele><time>2026-05-02T13:10:13.604Z</time></trkpt><trkpt lat="46.1550017" lon="13.42978"><ele>416.0</ele><time>2026-05-02T13:10:14.606Z</time></trkpt><trkpt lat="46.1550833" lon="13.4297317"><ele>416.0</ele><time>2026-05-02T13:10:15.605Z</time></trkpt><trkpt lat="46.1551583" lon="13.4296917"><ele>416.0</ele><time>2026-05-02T13:10:16.603Z</time></trkpt><trkpt lat="46.1552167" lon="13.4296467"><ele>415.99999999999994</ele><time>2026-05-02T13:10:17.604Z</time></trkpt><trkpt lat="46.1553133" lon="13.429535"><ele>416.0</ele><time>2026-05-02T13:10:19.605Z</time></trkpt><trkpt lat="46.15536" lon="13.4294583"><ele>421.99999999999994</ele><time>2026-05-02T13:10:20.609Z</time></trkpt><trkpt lat="46.1554067" lon="13.4293683"><ele>428.0</ele><time>2026-05-02T13:10:21.603Z</time></trkpt><trkpt lat="46.1554483" lon="13.429265"><ele>434.0</ele><time>2026-05-02T13:10:22.602Z</time></trkpt><trkpt lat="46.1554933" lon="13.429155"><ele>440.0</ele><time>2026-05-02T13:10:23.606Z</time></trkpt><trkpt lat="46.1555383" lon="13.4290533"><ele>445.99999999999994</ele><time>2026-05-02T13:10:24.606Z</time></trkpt><trkpt lat="46.155595" lon="13.4289717"><ele>452.0</ele><time>2026-05-02T13:10:25.608Z</time></trkpt><trkpt lat="46.1556567" lon="13.4289033"><ele>450.99999999999994</ele><time>2026-05-02T13:10:26.609Z</time></trkpt><trkpt lat="46.155715" lon="13.4288117"><ele>450.0</ele><time>2026-05-02T13:10:27.607Z</time></trkpt><trkpt lat="46.1557567" lon="13.42872"><ele>449.0</ele><time>2026-05-02T13:10:28.604Z</time></trkpt><trkpt lat="46.155785" lon="13.4286233"><ele>448.0</ele><time>2026-05-02T13:10:29.603Z</time></trkpt><trkpt lat="46.1558167" lon="13.428525"><ele>446.99999999999994</ele><time>2026-05-02T13:10:30.605Z</time></trkpt><trkpt lat="46.15586" lon="13.42843"><ele>446.0</ele><time>2026-05-02T13:10:31.603Z</time></trkpt><trkpt lat="46.1559133" lon="13.42834"><ele>446.0</ele><time>2026-05-02T13:10:32.608Z</time></trkpt><trkpt lat="46.1559633" lon="13.4282617"><ele>446.0</ele><time>2026-05-02T13:10:33.606Z</time></trkpt><trkpt lat="46.1560567" lon="13.42814"><ele>446.0</ele><time>2026-05-02T13:10:35.602Z</time></trkpt><trkpt lat="46.1561817" lon="13.4281067"><ele>446.0</ele><time>2026-05-02T13:10:37.607Z</time></trkpt><trkpt lat="46.1562567" lon="13.4281067"><ele>446.0</ele><time>2026-05-02T13:10:38.604Z</time></trkpt><trkpt lat="46.15634" lon="13.4280983"><ele>446.0</ele><time>2026-05-02T13:10:39.602Z</time></trkpt><trkpt lat="46.156435" lon="13.428065"><ele>446.0</ele><time>2026-05-02T13:10:40.607Z</time></trkpt><trkpt lat="46.1565317" lon="13.4280317"><ele>446.0</ele><time>2026-05-02T13:10:41.606Z</time></trkpt><trkpt lat="46.1566233" lon="13.42799"><ele>446.0</ele><time>2026-05-02T13:10:42.607Z</time></trkpt><trkpt lat="46.1567033" lon="13.4279433"><ele>446.0</ele><time>2026-05-02T13:10:43.606Z</time></trkpt><trkpt lat="46.1567667" lon="13.4278817"><ele>447.7142857142857</ele><time>2026-05-02T13:10:44.608Z</time></trkpt><trkpt lat="46.1568117" lon="13.4278117"><ele>449.42857142857144</ele><time>2026-05-02T13:10:45.606Z</time></trkpt><trkpt lat="46.1568483" lon="13.4277267"><ele>451.1428571428571</ele><time>2026-05-02T13:10:46.606Z</time></trkpt><trkpt lat="46.156885" lon="13.4276333"><ele>452.8571428571429</ele><time>2026-05-02T13:10:47.607Z</time></trkpt><trkpt lat="46.156925" lon="13.42754"><ele>454.5714285714286</ele><time>2026-05-02T13:10:48.606Z</time></trkpt><trkpt lat="46.1569683" lon="13.4274467"><ele>456.2857142857143</ele><time>2026-05-02T13:10:49.603Z</time></trkpt><trkpt lat="46.1570133" lon="13.4273517"><ele>458.0</ele><time>2026-05-02T13:10:50.608Z</time></trkpt><trkpt lat="46.1570617" lon="13.427255"><ele>458.0</ele><time>2026-05-02T13:10:51.606Z</time></trkpt><trkpt lat="46.1571083" lon="13.4271683"><ele>458.0</ele><time>2026-05-02T13:10:52.606Z</time></trkpt><trkpt lat="46.157155" lon="13.4270933"><ele>458.0</ele><time>2026-05-02T13:10:53.604Z</time></trkpt><trkpt lat="46.1572117" lon="13.4270333"><ele>458.0</ele><time>2026-05-02T13:10:54.605Z</time></trkpt><trkpt lat="46.1572833" lon="13.426995"><ele>458.0</ele><time>2026-05-02T13:10:55.606Z</time></trkpt><trkpt lat="46.157355" lon="13.4269717"><ele>458.0</ele><time>2026-05-02T13:10:56.609Z</time></trkpt><trkpt lat="46.1574283" lon="13.4269483"><ele>458.0</ele><time>2026-05-02T13:10:57.603Z</time></trkpt><trkpt lat="46.1575" lon="13.426915"><ele>461.49999999999994</ele><time>2026-05-02T13:10:58.603Z</time></trkpt><trkpt lat="46.157575" lon="13.4268733"><ele>465.0</ele><time>2026-05-02T13:10:59.605Z</time></trkpt><trkpt lat="46.1576583" lon="13.4268333"><ele>468.5</ele><time>2026-05-02T13:11:00.607Z</time></trkpt><trkpt lat="46.1577383" lon="13.4267967"><ele>472.0</ele><time>2026-05-02T13:11:01.608Z</time></trkpt><trkpt lat="46.1578133" lon="13.4267633"><ele>475.49999999999994</ele><time>2026-05-02T13:11:02.611Z</time></trkpt><trkpt lat="46.1578867" lon="13.426735"><ele>479.0</ele><time>2026-05-02T13:11:03.608Z</time></trkpt><trkpt lat="46.157955" lon="13.4267233"><ele>478.99999999999994</ele><time>2026-05-02T13:11:04.609Z</time></trkpt><trkpt lat="46.1580233" lon="13.426725"><ele>479.0</ele><time>2026-05-02T13:11:05.606Z</time></trkpt><trkpt lat="46.15809" lon="13.4267533"><ele>479.0</ele><time>2026-05-02T13:11:06.607Z</time></trkpt><trkpt lat="46.15816" lon="13.426795"><ele>479.0</ele><time>2026-05-02T13:11:07.605Z</time></trkpt><trkpt lat="46.15823" lon="13.4268467"><ele>478.99999999999994</ele><time>2026-05-02T13:11:08.608Z</time></trkpt><trkpt lat="46.1583083" lon="13.426885"><ele>479.0</ele><time>2026-05-02T13:11:09.604Z</time></trkpt><trkpt lat="46.1583933" lon="13.426925"><ele>478.16666666666663</ele><time>2026-05-02T13:11:10.608Z</time></trkpt><trkpt lat="46.1584783" lon="13.4269583"><ele>477.3333333333333</ele><time>2026-05-02T13:11:11.605Z</time></trkpt><trkpt lat="46.15856" lon="13.4269783"><ele>476.5</ele><time>2026-05-02T13:11:12.61Z</time></trkpt><trkpt lat="46.1586433" lon="13.427"><ele>475.66666666666663</ele><time>2026-05-02T13:11:13.604Z</time></trkpt><trkpt lat="46.1587183" lon="13.4270267"><ele>474.8333333333333</ele><time>2026-05-02T13:11:14.606Z</time></trkpt><trkpt lat="46.1587817" lon="13.42704"><ele>474.0</ele><time>2026-05-02T13:11:15.604Z</time></trkpt><trkpt lat="46.158875" lon="13.4270283"><ele>474.0</ele><time>2026-05-02T13:11:17.604Z</time></trkpt><trkpt lat="46.1589483" lon="13.4269467"><ele>474.0</ele><time>2026-05-02T13:11:19.603Z</time></trkpt><trkpt lat="46.1589933" lon="13.42687"><ele>474.0</ele><time>2026-05-02T13:11:20.607Z</time></trkpt><trkpt lat="46.1590483" lon="13.4267767"><ele>474.0</ele><time>2026-05-02T13:11:21.606Z</time></trkpt><trkpt lat="46.1590933" lon="13.4266783"><ele>474.0</ele><time>2026-05-02T13:11:22.607Z</time></trkpt><trkpt lat="46.1591317" lon="13.4265733"><ele>474.0</ele><time>2026-05-02T13:11:23.605Z</time></trkpt><trkpt lat="46.1591633" lon="13.426465"><ele>474.3333333333333</ele><time>2026-05-02T13:11:24.605Z</time></trkpt><trkpt lat="46.15919" lon="13.42635"><ele>474.66666666666663</ele><time>2026-05-02T13:11:25.607Z</time></trkpt><trkpt lat="46.1592133" lon="13.426235"><ele>475.0</ele><time>2026-05-02T13:11:26.604Z</time></trkpt><trkpt lat="46.1592367" lon="13.426115"><ele>475.3333333333333</ele><time>2026-05-02T13:11:27.604Z</time></trkpt><trkpt lat="46.1592533" lon="13.425985"><ele>475.66666666666663</ele><time>2026-05-02T13:11:28.607Z</time></trkpt><trkpt lat="46.1592633" lon="13.42585"><ele>476.0</ele><time>2026-05-02T13:11:29.608Z</time></trkpt><trkpt lat="46.159265" lon="13.4257167"><ele>475.99999999999994</ele><time>2026-05-02T13:11:30.606Z</time></trkpt><trkpt lat="46.1592683" lon="13.4255783"><ele>476.0</ele><time>2026-05-02T13:11:31.608Z</time></trkpt><trkpt lat="46.15928" lon="13.4254467"><ele>476.0</ele><time>2026-05-02T13:11:32.604Z</time></trkpt><trkpt lat="46.1592917" lon="13.4253283"><ele>476.0</ele><time>2026-05-02T13:11:33.607Z</time></trkpt><trkpt lat="46.1593" lon="13.42521"><ele>475.99999999999994</ele><time>2026-05-02T13:11:34.605Z</time></trkpt><trkpt lat="46.1592983" lon="13.4250933"><ele>476.0</ele><time>2026-05-02T13:11:35.605Z</time></trkpt><trkpt lat="46.15929" lon="13.424975"><ele>478.0</ele><time>2026-05-02T13:11:36.604Z</time></trkpt><trkpt lat="46.1592733" lon="13.4248633"><ele>480.0</ele><time>2026-05-02T13:11:37.605Z</time></trkpt><trkpt lat="46.159255" lon="13.424775"><ele>482.0</ele><time>2026-05-02T13:11:38.609Z</time></trkpt><trkpt lat="46.15924" lon="13.42464"><ele>484.0</ele><time>2026-05-02T13:11:40.603Z</time></trkpt><trkpt lat="46.159295" lon="13.424515"><ele>486.0</ele><time>2026-05-02T13:11:42.603Z</time></trkpt><trkpt lat="46.1593883" lon="13.4243867"><ele>488.0</ele><time>2026-05-02T13:11:44.605Z</time></trkpt><trkpt lat="46.159425" lon="13.4243033"><ele>490.0</ele><time>2026-05-02T13:11:45.606Z</time></trkpt><trkpt lat="46.1594417" lon="13.4242033"><ele>492.0</ele><time>2026-05-02T13:11:46.607Z</time></trkpt><trkpt lat="46.1594483" lon="13.4241"><ele>494.0</ele><time>2026-05-02T13:11:47.607Z</time></trkpt><trkpt lat="46.1594467" lon="13.4240083"><ele>496.0</ele><time>2026-05-02T13:11:48.605Z</time></trkpt><trkpt lat="46.1594417" lon="13.423915"><ele>498.0</ele><time>2026-05-02T13:11:49.602Z</time></trkpt><trkpt lat="46.159425" lon="13.4238133"><ele>500.0</ele><time>2026-05-02T13:11:50.603Z</time></trkpt><trkpt lat="46.1594017" lon="13.4237083"><ele>500.3333333333333</ele><time>2026-05-02T13:11:51.605Z</time></trkpt><trkpt lat="46.1593833" lon="13.42362"><ele>500.66666666666663</ele><time>2026-05-02T13:11:52.604Z</time></trkpt><trkpt lat="46.1593483" lon="13.4234683"><ele>501.0</ele><time>2026-05-02T13:11:54.602Z</time></trkpt><trkpt lat="46.159305" lon="13.423335"><ele>501.33333333333337</ele><time>2026-05-02T13:11:56.607Z</time></trkpt><trkpt lat="46.1592767" lon="13.4232533"><ele>501.6666666666667</ele><time>2026-05-02T13:11:57.603Z</time></trkpt><trkpt lat="46.1592483" lon="13.4231617"><ele>502.0</ele><time>2026-05-02T13:11:58.605Z</time></trkpt><trkpt lat="46.159215" lon="13.4230717"><ele>501.99999999999994</ele><time>2026-05-02T13:11:59.606Z</time></trkpt><trkpt lat="46.1591717" lon="13.4229833"><ele>502.0</ele><time>2026-05-02T13:12:00.607Z</time></trkpt><trkpt lat="46.1591283" lon="13.4228983"><ele>501.99999999999994</ele><time>2026-05-02T13:12:01.605Z</time></trkpt><trkpt lat="46.1591" lon="13.4228033"><ele>501.99999999999994</ele><time>2026-05-02T13:12:02.608Z</time></trkpt><trkpt lat="46.1590833" lon="13.4227017"><ele>502.0</ele><time>2026-05-02T13:12:03.603Z</time></trkpt><trkpt lat="46.1590767" lon="13.4225983"><ele>501.99999999999994</ele><time>2026-05-02T13:12:04.609Z</time></trkpt><trkpt lat="46.1590733" lon="13.4224967"><ele>501.99999999999994</ele><time>2026-05-02T13:12:05.608Z</time></trkpt><trkpt lat="46.1590617" lon="13.4223933"><ele>500.71428571428567</ele><time>2026-05-02T13:12:06.608Z</time></trkpt><trkpt lat="46.1590517" lon="13.4223"><ele>499.42857142857144</ele><time>2026-05-02T13:12:07.608Z</time></trkpt><trkpt lat="46.159035" lon="13.4222"><ele>498.1428571428571</ele><time>2026-05-02T13:12:08.609Z</time></trkpt><trkpt lat="46.1590383" lon="13.42209"><ele>496.85714285714283</ele><time>2026-05-02T13:12:09.606Z</time></trkpt><trkpt lat="46.1590517" lon="13.4219817"><ele>495.57142857142856</ele><time>2026-05-02T13:12:10.602Z</time></trkpt><trkpt lat="46.15907" lon="13.4218783"><ele>494.2857142857143</ele><time>2026-05-02T13:12:11.606Z</time></trkpt><trkpt lat="46.1590867" lon="13.42179"><ele>493.0</ele><time>2026-05-02T13:12:12.605Z</time></trkpt><trkpt lat="46.1590917" lon="13.421625"><ele>493.00000000000006</ele><time>2026-05-02T13:12:14.604Z</time></trkpt><trkpt lat="46.1590483" lon="13.421475"><ele>493.0</ele><time>2026-05-02T13:12:16.607Z</time></trkpt><trkpt lat="46.1590083" lon="13.421395"><ele>493.0</ele><time>2026-05-02T13:12:17.603Z</time></trkpt><trkpt lat="46.1589717" lon="13.421315"><ele>493.0</ele><time>2026-05-02T13:12:18.608Z</time></trkpt><trkpt lat="46.15894" lon="13.4212333"><ele>493.00000000000006</ele><time>2026-05-02T13:12:19.609Z</time></trkpt><trkpt lat="46.15892" lon="13.421115"><ele>493.0</ele><time>2026-05-02T13:12:21.603Z</time></trkpt><trkpt lat="46.1589683" lon="13.4210083"><ele>495.50000000000006</ele><time>2026-05-02T13:12:23.606Z</time></trkpt><trkpt lat="46.1590833" lon="13.4209183"><ele>498.0</ele><time>2026-05-02T13:12:25.603Z</time></trkpt><trkpt lat="46.15915" lon="13.42087"><ele>500.5</ele><time>2026-05-02T13:12:26.609Z</time></trkpt><trkpt lat="46.1592183" lon="13.4208233"><ele>503.0</ele><time>2026-05-02T13:12:27.606Z</time></trkpt><trkpt lat="46.1592783" lon="13.4207767"><ele>505.50000000000006</ele><time>2026-05-02T13:12:28.607Z</time></trkpt><trkpt lat="46.159335" lon="13.4207183"><ele>508.0</ele><time>2026-05-02T13:12:29.604Z</time></trkpt><trkpt lat="46.1593883" lon="13.4206433"><ele>508.00000000000006</ele><time>2026-05-02T13:12:30.608Z</time></trkpt><trkpt lat="46.159445" lon="13.420555"><ele>508.0</ele><time>2026-05-02T13:12:31.603Z</time></trkpt><trkpt lat="46.1595033" lon="13.420455"><ele>508.0</ele><time>2026-05-02T13:12:32.608Z</time></trkpt><trkpt lat="46.1595617" lon="13.42035"><ele>508.0</ele><time>2026-05-02T13:12:33.607Z</time></trkpt><trkpt lat="46.1596083" lon="13.42025"><ele>508.00000000000006</ele><time>2026-05-02T13:12:34.607Z</time></trkpt><trkpt lat="46.15965" lon="13.420155"><ele>508.0</ele><time>2026-05-02T13:12:35.604Z</time></trkpt><trkpt lat="46.1596883" lon="13.4200717"><ele>511.50000000000006</ele><time>2026-05-02T13:12:36.606Z</time></trkpt><trkpt lat="46.15972" lon="13.4199817"><ele>515.0</ele><time>2026-05-02T13:12:37.604Z</time></trkpt><trkpt lat="46.15975" lon="13.4198867"><ele>518.5</ele><time>2026-05-02T13:12:38.61Z</time></trkpt><trkpt lat="46.159775" lon="13.4197783"><ele>522.0</ele><time>2026-05-02T13:12:39.603Z</time></trkpt><trkpt lat="46.1598017" lon="13.419665"><ele>525.5</ele><time>2026-05-02T13:12:40.602Z</time></trkpt><trkpt lat="46.159825" lon="13.4195467"><ele>529.0</ele><time>2026-05-02T13:12:41.606Z</time></trkpt><trkpt lat="46.159845" lon="13.4194283"><ele>525.2</ele><time>2026-05-02T13:12:42.605Z</time></trkpt><trkpt lat="46.1598617" lon="13.4193"><ele>521.4</ele><time>2026-05-02T13:12:43.607Z</time></trkpt><trkpt lat="46.1598767" lon="13.4191717"><ele>517.6</ele><time>2026-05-02T13:12:44.609Z</time></trkpt><trkpt lat="46.1598933" lon="13.4190467"><ele>513.8</ele><time>2026-05-02T13:12:45.604Z</time></trkpt><trkpt lat="46.1599183" lon="13.4189233"><ele>510.0</ele><time>2026-05-02T13:12:46.605Z</time></trkpt><trkpt lat="46.1599533" lon="13.4187867"><ele>510.0</ele><time>2026-05-02T13:12:47.605Z</time></trkpt><trkpt lat="46.1599883" lon="13.418655"><ele>510.0</ele><time>2026-05-02T13:12:48.606Z</time></trkpt><trkpt lat="46.1600133" lon="13.418545"><ele>510.0</ele><time>2026-05-02T13:12:49.606Z</time></trkpt><trkpt lat="46.1600317" lon="13.418445"><ele>510.0</ele><time>2026-05-02T13:12:50.609Z</time></trkpt><trkpt lat="46.16005" lon="13.418345"><ele>510.0</ele><time>2026-05-02T13:12:51.603Z</time></trkpt><trkpt lat="46.1600983" lon="13.4182017"><ele>510.0</ele><time>2026-05-02T13:12:53.608Z</time></trkpt><trkpt lat="46.1601817" lon="13.41816"><ele>510.0</ele><time>2026-05-02T13:12:55.607Z</time></trkpt><trkpt lat="46.1602467" lon="13.41825"><ele>510.0</ele><time>2026-05-02T13:12:57.605Z</time></trkpt><trkpt lat="46.1602667" lon="13.4183983"><ele>510.0</ele><time>2026-05-02T13:12:59.608Z</time></trkpt><trkpt lat="46.1602683" lon="13.4185017"><ele>510.0</ele><time>2026-05-02T13:13:00.607Z</time></trkpt><trkpt lat="46.1602667" lon="13.4186217"><ele>510.0</ele><time>2026-05-02T13:13:01.604Z</time></trkpt><trkpt lat="46.160265" lon="13.41874"><ele>510.0</ele><time>2026-05-02T13:13:02.604Z</time></trkpt><trkpt lat="46.1602683" lon="13.418845"><ele>508.1666666666667</ele><time>2026-05-02T13:13:03.604Z</time></trkpt><trkpt lat="46.16028" lon="13.4189433"><ele>506.33333333333337</ele><time>2026-05-02T13:13:04.605Z</time></trkpt><trkpt lat="46.16032" lon="13.4190433"><ele>504.5</ele><time>2026-05-02T13:13:05.604Z</time></trkpt><trkpt lat="46.1603633" lon="13.4191433"><ele>502.6666666666667</ele><time>2026-05-02T13:13:06.602Z</time></trkpt><trkpt lat="46.1604133" lon="13.4192467"><ele>500.83333333333337</ele><time>2026-05-02T13:13:07.604Z</time></trkpt><trkpt lat="46.1604583" lon="13.4193517"><ele>499.0</ele><time>2026-05-02T13:13:08.607Z</time></trkpt><trkpt lat="46.1604933" lon="13.41946"><ele>499.00000000000006</ele><time>2026-05-02T13:13:09.604Z</time></trkpt><trkpt lat="46.1605067" lon="13.4195633"><ele>499.0</ele><time>2026-05-02T13:13:10.602Z</time></trkpt><trkpt lat="46.1605067" lon="13.41966"><ele>499.0</ele><time>2026-05-02T13:13:11.608Z</time></trkpt><trkpt lat="46.160505" lon="13.4197533"><ele>499.0</ele><time>2026-05-02T13:13:12.608Z</time></trkpt><trkpt lat="46.160505" lon="13.419845"><ele>499.00000000000006</ele><time>2026-05-02T13:13:13.608Z</time></trkpt><trkpt lat="46.1605217" lon="13.41999"><ele>499.0</ele><time>2026-05-02T13:13:15.605Z</time></trkpt><trkpt lat="46.16056" lon="13.42011"><ele>498.00000000000006</ele><time>2026-05-02T13:13:17.604Z</time></trkpt><trkpt lat="46.1606067" lon="13.4201733"><ele>497.0</ele><time>2026-05-02T13:13:18.604Z</time></trkpt><trkpt lat="46.1606583" lon="13.4202367"><ele>496.0</ele><time>2026-05-02T13:13:19.603Z</time></trkpt><trkpt lat="46.1607067" lon="13.4203"><ele>495.0</ele><time>2026-05-02T13:13:20.607Z</time></trkpt><trkpt lat="46.160755" lon="13.4204233"><ele>494.00000000000006</ele><time>2026-05-02T13:13:22.606Z</time></trkpt><trkpt lat="46.160785" lon="13.4205617"><ele>493.0</ele><time>2026-05-02T13:13:24.606Z</time></trkpt><trkpt lat="46.1608883" lon="13.42067"><ele>492.79999999999995</ele><time>2026-05-02T13:13:26.608Z</time></trkpt><trkpt lat="46.1609633" lon="13.4207317"><ele>492.59999999999997</ele><time>2026-05-02T13:13:27.607Z</time></trkpt><trkpt lat="46.1610483" lon="13.4208117"><ele>492.40000000000003</ele><time>2026-05-02T13:13:28.607Z</time></trkpt><trkpt lat="46.1611417" lon="13.4208917"><ele>492.20000000000005</ele><time>2026-05-02T13:13:29.609Z</time></trkpt><trkpt lat="46.16124" lon="13.4209667"><ele>492.0</ele><time>2026-05-02T13:13:30.603Z</time></trkpt><trkpt lat="46.16133" lon="13.421035"><ele>492.0</ele><time>2026-05-02T13:13:31.603Z</time></trkpt><trkpt lat="46.16141" lon="13.4211117"><ele>492.0</ele><time>2026-05-02T13:13:32.607Z</time></trkpt><trkpt lat="46.1614817" lon="13.4212033"><ele>492.0</ele><time>2026-05-02T13:13:33.605Z</time></trkpt><trkpt lat="46.1615433" lon="13.421305"><ele>492.0</ele><time>2026-05-02T13:13:34.602Z</time></trkpt><trkpt lat="46.16159" lon="13.4214067"><ele>492.0</ele><time>2026-05-02T13:13:35.606Z</time></trkpt><trkpt lat="46.16162" lon="13.4215017"><ele>492.0</ele><time>2026-05-02T13:13:36.601Z</time></trkpt><trkpt lat="46.1616517" lon="13.4216733"><ele>490.8333333333333</ele><time>2026-05-02T13:13:38.607Z</time></trkpt><trkpt lat="46.1616683" lon="13.4217683"><ele>489.66666666666663</ele><time>2026-05-02T13:13:39.606Z</time></trkpt><trkpt lat="46.161695" lon="13.4218683"><ele>488.5</ele><time>2026-05-02T13:13:40.602Z</time></trkpt><trkpt lat="46.161735" lon="13.4219783"><ele>487.3333333333333</ele><time>2026-05-02T13:13:41.604Z</time></trkpt><trkpt lat="46.1617783" lon="13.42209"><ele>486.16666666666663</ele><time>2026-05-02T13:13:42.604Z</time></trkpt><trkpt lat="46.161815" lon="13.4222067"><ele>485.0</ele><time>2026-05-02T13:13:43.604Z</time></trkpt><trkpt lat="46.16185" lon="13.422325"><ele>485.0</ele><time>2026-05-02T13:13:44.607Z</time></trkpt><trkpt lat="46.1618933" lon="13.4224433"><ele>485.0</ele><time>2026-05-02T13:13:45.606Z</time></trkpt><trkpt lat="46.161945" lon="13.4225567"><ele>485.0</ele><time>2026-05-02T13:13:46.607Z</time></trkpt><trkpt lat="46.162" lon="13.4226633"><ele>485.0</ele><time>2026-05-02T13:13:47.608Z</time></trkpt><trkpt lat="46.1620617" lon="13.42276"><ele>485.0</ele><time>2026-05-02T13:13:48.607Z</time></trkpt><trkpt lat="46.1621217" lon="13.4228567"><ele>484.99999999999994</ele><time>2026-05-02T13:13:49.609Z</time></trkpt><trkpt lat="46.1621783" lon="13.4229567"><ele>485.0</ele><time>2026-05-02T13:13:50.609Z</time></trkpt><trkpt lat="46.1622333" lon="13.4230617"><ele>485.0</ele><time>2026-05-02T13:13:51.606Z</time></trkpt><trkpt lat="46.1622917" lon="13.423155"><ele>485.0</ele><time>2026-05-02T13:13:52.604Z</time></trkpt><trkpt lat="46.1623483" lon="13.4232267"><ele>484.99999999999994</ele><time>2026-05-02T13:13:53.606Z</time></trkpt><trkpt lat="46.1624067" lon="13.4232767"><ele>485.0</ele><time>2026-05-02T13:13:54.605Z</time></trkpt><trkpt lat="46.1624617" lon="13.4233233"><ele>491.2</ele><time>2026-05-02T13:13:55.606Z</time></trkpt><trkpt lat="46.1625083" lon="13.4234667"><ele>497.4</ele><time>2026-05-02T13:13:57.606Z</time></trkpt><trkpt lat="46.1624917" lon="13.4235667"><ele>503.6</ele><time>2026-05-02T13:13:58.603Z</time></trkpt><trkpt lat="46.1624483" lon="13.4237117"><ele>509.8</ele><time>2026-05-02T13:13:59.605Z</time></trkpt><trkpt lat="46.1624133" lon="13.42389"><ele>516.0</ele><time>2026-05-02T13:14:00.606Z</time></trkpt><trkpt lat="46.1623833" lon="13.4240817"><ele>518.75</ele><time>2026-05-02T13:14:01.609Z</time></trkpt><trkpt lat="46.162365" lon="13.4242783"><ele>521.5</ele><time>2026-05-02T13:14:02.609Z</time></trkpt><trkpt lat="46.1623467" lon="13.4244783"><ele>524.25</ele><time>2026-05-02T13:14:03.602Z</time></trkpt><trkpt lat="46.1623367" lon="13.4246817"><ele>527.0</ele><time>2026-05-02T13:14:04.605Z</time></trkpt><trkpt lat="46.1623283" lon="13.4248883"><ele>516.6</ele><time>2026-05-02T13:14:05.603Z</time></trkpt><trkpt lat="46.16231" lon="13.42508"><ele>506.20000000000005</ele><time>2026-05-02T13:14:06.604Z</time></trkpt><trkpt lat="46.1623033" lon="13.4252483"><ele>495.8</ele><time>2026-05-02T13:14:07.602Z</time></trkpt><trkpt lat="46.1623017" lon="13.4253933"><ele>485.4</ele><time>2026-05-02T13:14:08.604Z</time></trkpt><trkpt lat="46.1623083" lon="13.4255167"><ele>475.0</ele><time>2026-05-02T13:14:09.602Z</time></trkpt><trkpt lat="46.1623117" lon="13.4256117"><ele>475.0</ele><time>2026-05-02T13:14:10.606Z</time></trkpt><trkpt lat="46.1623283" lon="13.42575"><ele>475.0</ele><time>2026-05-02T13:14:12.604Z</time></trkpt><trkpt lat="46.1623917" lon="13.4257117"><ele>475.0</ele><time>2026-05-02T13:14:14.608Z</time></trkpt><trkpt lat="46.1623667" lon="13.4255017"><ele>475.0</ele><time>2026-05-02T13:14:16.603Z</time></trkpt><trkpt lat="46.16235" lon="13.4253733"><ele>475.0</ele><time>2026-05-02T13:14:17.604Z</time></trkpt><trkpt lat="46.162385" lon="13.42522"><ele>488.0</ele><time>2026-05-02T13:14:18.604Z</time></trkpt><trkpt lat="46.162435" lon="13.425045"><ele>501.0</ele><time>2026-05-02T13:14:19.603Z</time></trkpt><trkpt lat="46.1624733" lon="13.4248617"><ele>514.0</ele><time>2026-05-02T13:14:20.607Z</time></trkpt><trkpt lat="46.16251" lon="13.4246717"><ele>527.0</ele><time>2026-05-02T13:14:21.607Z</time></trkpt><trkpt lat="46.1625567" lon="13.4244833"><ele>527.0</ele><time>2026-05-02T13:14:22.606Z</time></trkpt><trkpt lat="46.1626117" lon="13.4243"><ele>527.0</ele><time>2026-05-02T13:14:23.603Z</time></trkpt><trkpt lat="46.1626783" lon="13.4241233"><ele>527.0</ele><time>2026-05-02T13:14:24.602Z</time></trkpt><trkpt lat="46.16275" lon="13.423955"><ele>527.0</ele><time>2026-05-02T13:14:25.602Z</time></trkpt><trkpt lat="46.1628217" lon="13.423795"><ele>524.8000000000001</ele><time>2026-05-02T13:14:26.608Z</time></trkpt><trkpt lat="46.1628933" lon="13.4236417"><ele>522.6</ele><time>2026-05-02T13:14:27.602Z</time></trkpt><trkpt lat="46.162955" lon="13.4235083"><ele>520.4000000000001</ele><time>2026-05-02T13:14:28.602Z</time></trkpt><trkpt lat="46.1630033" lon="13.4233983"><ele>518.2</ele><time>2026-05-02T13:14:29.607Z</time></trkpt><trkpt lat="46.16304" lon="13.4232983"><ele>516.0</ele><time>2026-05-02T13:14:30.598Z</time></trkpt><trkpt lat="46.1630633" lon="13.4232067"><ele>516.0</ele><time>2026-05-02T13:14:31.595Z</time></trkpt><trkpt lat="46.1630483" lon="13.4230983"><ele>516.0</ele><time>2026-05-02T13:14:32.594Z</time></trkpt><trkpt lat="46.1629933" lon="13.422985"><ele>516.0</ele><time>2026-05-02T13:14:33.595Z</time></trkpt><trkpt lat="46.162915" lon="13.4228683"><ele>516.0</ele><time>2026-05-02T13:14:34.596Z</time></trkpt><trkpt lat="46.1628267" lon="13.4227417"><ele>516.0</ele><time>2026-05-02T13:14:35.595Z</time></trkpt><trkpt lat="46.162745" lon="13.422605"><ele>516.0</ele><time>2026-05-02T13:14:36.595Z</time></trkpt><trkpt lat="46.1626833" lon="13.4224583"><ele>516.0</ele><time>2026-05-02T13:14:37.596Z</time></trkpt><trkpt lat="46.1626433" lon="13.4222867"><ele>516.0</ele><time>2026-05-02T13:14:38.595Z</time></trkpt><trkpt lat="46.1626383" lon="13.4220867"><ele>516.0</ele><time>2026-05-02T13:14:39.598Z</time></trkpt><trkpt lat="46.16264" lon="13.421885"><ele>524.0</ele><time>2026-05-02T13:14:40.603Z</time></trkpt><trkpt lat="46.1626383" lon="13.42169"><ele>532.0</ele><time>2026-05-02T13:14:41.603Z</time></trkpt><trkpt lat="46.1626483" lon="13.4215"><ele>540.0</ele><time>2026-05-02T13:14:42.605Z</time></trkpt><trkpt lat="46.1626683" lon="13.4213133"><ele>548.0</ele><time>2026-05-02T13:14:43.603Z</time></trkpt><trkpt lat="46.1626917" lon="13.4211383"><ele>548.0</ele><time>2026-05-02T13:14:44.608Z</time></trkpt><trkpt lat="46.16271" lon="13.4209733"><ele>548.0</ele><time>2026-05-02T13:14:45.607Z</time></trkpt><trkpt lat="46.1627267" lon="13.4208083"><ele>548.0</ele><time>2026-05-02T13:14:46.607Z</time></trkpt><trkpt lat="46.1627483" lon="13.4206517"><ele>548.0</ele><time>2026-05-02T13:14:47.607Z</time></trkpt><trkpt lat="46.1627717" lon="13.420505"><ele>548.0</ele><time>2026-05-02T13:14:48.606Z</time></trkpt><trkpt lat="46.1627917" lon="13.4203683"><ele>548.5</ele><time>2026-05-02T13:14:49.606Z</time></trkpt><trkpt lat="46.16281" lon="13.4202383"><ele>549.0</ele><time>2026-05-02T13:14:50.609Z</time></trkpt><trkpt lat="46.1628283" lon="13.4201167"><ele>549.5</ele><time>2026-05-02T13:14:51.595Z</time></trkpt><trkpt lat="46.162845" lon="13.42"><ele>550.0</ele><time>2026-05-02T13:14:52.606Z</time></trkpt><trkpt lat="46.1628583" lon="13.4198833"><ele>550.5</ele><time>2026-05-02T13:14:53.608Z</time></trkpt><trkpt lat="46.162865" lon="13.4197567"><ele>551.0</ele><time>2026-05-02T13:14:54.606Z</time></trkpt><trkpt lat="46.1628633" lon="13.4196367"><ele>554.6666666666666</ele><time>2026-05-02T13:14:55.607Z</time></trkpt><trkpt lat="46.1628583" lon="13.4195333"><ele>558.3333333333333</ele><time>2026-05-02T13:14:56.608Z</time></trkpt><trkpt lat="46.162845" lon="13.4194333"><ele>562.0</ele><time>2026-05-02T13:14:57.608Z</time></trkpt><trkpt lat="46.162825" lon="13.4193317"><ele>565.6666666666666</ele><time>2026-05-02T13:14:58.606Z</time></trkpt><trkpt lat="46.1628033" lon="13.419225"><ele>569.3333333333334</ele><time>2026-05-02T13:14:59.609Z</time></trkpt><trkpt lat="46.1627867" lon="13.4191133"><ele>573.0</ele><time>2026-05-02T13:15:00.607Z</time></trkpt><trkpt lat="46.1627783" lon="13.4189933"><ele>573.0</ele><time>2026-05-02T13:15:01.608Z</time></trkpt><trkpt lat="46.1627783" lon="13.4188667"><ele>573.0</ele><time>2026-05-02T13:15:02.608Z</time></trkpt><trkpt lat="46.16279" lon="13.418735"><ele>573.0</ele><time>2026-05-02T13:15:03.607Z</time></trkpt><trkpt lat="46.1628067" lon="13.4185983"><ele>573.0</ele><time>2026-05-02T13:15:04.605Z</time></trkpt><trkpt lat="46.16283" lon="13.4184533"><ele>573.0</ele><time>2026-05-02T13:15:05.608Z</time></trkpt><trkpt lat="46.1628567" lon="13.41829"><ele>574.75</ele><time>2026-05-02T13:15:06.605Z</time></trkpt><trkpt lat="46.16289" lon="13.4181183"><ele>576.5</ele><time>2026-05-02T13:15:07.606Z</time></trkpt><trkpt lat="46.1629367" lon="13.4179483"><ele>578.25</ele><time>2026-05-02T13:15:08.607Z</time></trkpt><trkpt lat="46.1629817" lon="13.417785"><ele>580.0</ele><time>2026-05-02T13:15:09.607Z</time></trkpt><trkpt lat="46.1630267" lon="13.4176333"><ele>580.0</ele><time>2026-05-02T13:15:10.608Z</time></trkpt><trkpt lat="46.1630767" lon="13.4174967"><ele>580.0</ele><time>2026-05-02T13:15:11.607Z</time></trkpt><trkpt lat="46.1631283" lon="13.417365"><ele>580.0</ele><time>2026-05-02T13:15:12.605Z</time></trkpt><trkpt lat="46.16319" lon="13.4172567"><ele>580.0</ele><time>2026-05-02T13:15:13.604Z</time></trkpt><trkpt lat="46.1632583" lon="13.4171617"><ele>580.0</ele><time>2026-05-02T13:15:14.608Z</time></trkpt><trkpt lat="46.1633517" lon="13.4170967"><ele>585.0</ele><time>2026-05-02T13:15:15.605Z</time></trkpt><trkpt lat="46.1634583" lon="13.4170483"><ele>590.0</ele><time>2026-05-02T13:15:16.606Z</time></trkpt><trkpt lat="46.1635667" lon="13.417"><ele>595.0</ele><time>2026-05-02T13:15:17.604Z</time></trkpt><trkpt lat="46.1636733" lon="13.41695"><ele>600.0</ele><time>2026-05-02T13:15:18.606Z</time></trkpt><trkpt lat="46.1637767" lon="13.4169"><ele>605.0</ele><time>2026-05-02T13:15:19.608Z</time></trkpt><trkpt lat="46.1638733" lon="13.4168417"><ele>605.0</ele><time>2026-05-02T13:15:20.606Z</time></trkpt><trkpt lat="46.1639567" lon="13.4167517"><ele>605.0</ele><time>2026-05-02T13:15:21.606Z</time></trkpt><trkpt lat="46.164035" lon="13.4166633"><ele>605.0</ele><time>2026-05-02T13:15:22.605Z</time></trkpt><trkpt lat="46.1641033" lon="13.4165833"><ele>605.0</ele><time>2026-05-02T13:15:23.605Z</time></trkpt><trkpt lat="46.16416" lon="13.4165083"><ele>605.0</ele><time>2026-05-02T13:15:24.604Z</time></trkpt><trkpt lat="46.1641817" lon="13.41641"><ele>605.0</ele><time>2026-05-02T13:15:25.608Z</time></trkpt><trkpt lat="46.1641683" lon="13.4163067"><ele>604.6</ele><time>2026-05-02T13:15:26.608Z</time></trkpt><trkpt lat="46.1641283" lon="13.4161983"><ele>604.2</ele><time>2026-05-02T13:15:27.606Z</time></trkpt><trkpt lat="46.1640617" lon="13.4160983"><ele>603.8</ele><time>2026-05-02T13:15:28.608Z</time></trkpt><trkpt lat="46.1639633" lon="13.41601"><ele>603.4</ele><time>2026-05-02T13:15:29.605Z</time></trkpt><trkpt lat="46.16386" lon="13.4159233"><ele>603.0</ele><time>2026-05-02T13:15:30.606Z</time></trkpt><trkpt lat="46.16378" lon="13.4158"><ele>603.0</ele><time>2026-05-02T13:15:31.607Z</time></trkpt><trkpt lat="46.1637083" lon="13.4156467"><ele>603.0</ele><time>2026-05-02T13:15:32.608Z</time></trkpt><trkpt lat="46.1636267" lon="13.4155167"><ele>603.0</ele><time>2026-05-02T13:15:33.608Z</time></trkpt><trkpt lat="46.16354" lon="13.4154233"><ele>603.0</ele><time>2026-05-02T13:15:34.604Z</time></trkpt><trkpt lat="46.16347" lon="13.4153183"><ele>602.8</ele><time>2026-05-02T13:15:35.607Z</time></trkpt><trkpt lat="46.1634283" lon="13.415175"><ele>602.5999999999999</ele><time>2026-05-02T13:15:36.607Z</time></trkpt><trkpt lat="46.1633767" lon="13.4150383"><ele>602.4000000000001</ele><time>2026-05-02T13:15:37.607Z</time></trkpt><trkpt lat="46.16329" lon="13.4149683"><ele>602.2</ele><time>2026-05-02T13:15:38.608Z</time></trkpt><trkpt lat="46.1632017" lon="13.4149"><ele>602.0</ele><time>2026-05-02T13:15:39.606Z</time></trkpt><trkpt lat="46.1631533" lon="13.4147933"><ele>602.0</ele><time>2026-05-02T13:15:40.604Z</time></trkpt><trkpt lat="46.16315" lon="13.4146683"><ele>602.0</ele><time>2026-05-02T13:15:41.606Z</time></trkpt><trkpt lat="46.16319" lon="13.41452"><ele>602.0</ele><time>2026-05-02T13:15:42.605Z</time></trkpt><trkpt lat="46.1631983" lon="13.4143883"><ele>602.0</ele><time>2026-05-02T13:15:43.606Z</time></trkpt><trkpt lat="46.1631517" lon="13.4142867"><ele>602.0</ele><time>2026-05-02T13:15:44.604Z</time></trkpt><trkpt lat="46.16308" lon="13.4142067"><ele>609.5</ele><time>2026-05-02T13:15:45.607Z</time></trkpt><trkpt lat="46.1629817" lon="13.4141433"><ele>617.0</ele><time>2026-05-02T13:15:46.602Z</time></trkpt><trkpt lat="46.1628733" lon="13.41408"><ele>624.5</ele><time>2026-05-02T13:15:47.608Z</time></trkpt><trkpt lat="46.16276" lon="13.4139983"><ele>632.0</ele><time>2026-05-02T13:15:48.606Z</time></trkpt><trkpt lat="46.1626517" lon="13.4138983"><ele>632.0</ele><time>2026-05-02T13:15:49.607Z</time></trkpt><trkpt lat="46.16255" lon="13.4137917"><ele>632.0</ele><time>2026-05-02T13:15:50.607Z</time></trkpt><trkpt lat="46.1624483" lon="13.4136867"><ele>632.0</ele><time>2026-05-02T13:15:51.608Z</time></trkpt><trkpt lat="46.1623567" lon="13.4135783"><ele>632.0</ele><time>2026-05-02T13:15:52.607Z</time></trkpt><trkpt lat="46.162275" lon="13.4134767"><ele>632.0</ele><time>2026-05-02T13:15:53.609Z</time></trkpt><trkpt lat="46.1621933" lon="13.4133883"><ele>632.0</ele><time>2026-05-02T13:15:54.606Z</time></trkpt><trkpt lat="46.162115" lon="13.4133033"><ele>632.0</ele><time>2026-05-02T13:15:55.604Z</time></trkpt><trkpt lat="46.16204" lon="13.4132117"><ele>632.0</ele><time>2026-05-02T13:15:56.608Z</time></trkpt><trkpt lat="46.1619717" lon="13.413115"><ele>632.0</ele><time>2026-05-02T13:15:57.609Z</time></trkpt><trkpt lat="46.1619133" lon="13.413005"><ele>634.5</ele><time>2026-05-02T13:15:58.606Z</time></trkpt><trkpt lat="46.1618667" lon="13.41287"><ele>637.0</ele><time>2026-05-02T13:15:59.608Z</time></trkpt><trkpt lat="46.1618433" lon="13.4127067"><ele>639.5</ele><time>2026-05-02T13:16:00.606Z</time></trkpt><trkpt lat="46.1618433" lon="13.4125267"><ele>642.0</ele><time>2026-05-02T13:16:01.604Z</time></trkpt><trkpt lat="46.161845" lon="13.41235"><ele>642.0</ele><time>2026-05-02T13:16:02.608Z</time></trkpt><trkpt lat="46.1618317" lon="13.4121917"><ele>642.0</ele><time>2026-05-02T13:16:03.61Z</time></trkpt><trkpt lat="46.1618267" lon="13.4120367"><ele>642.0</ele><time>2026-05-02T13:16:04.602Z</time></trkpt><trkpt lat="46.1618367" lon="13.4118883"><ele>642.0</ele><time>2026-05-02T13:16:05.603Z</time></trkpt><trkpt lat="46.1618633" lon="13.4117317"><ele>642.0</ele><time>2026-05-02T13:16:06.603Z</time></trkpt><trkpt lat="46.1619183" lon="13.4115633"><ele>641.5</ele><time>2026-05-02T13:16:07.603Z</time></trkpt><trkpt lat="46.1619683" lon="13.4113817"><ele>641.0</ele><time>2026-05-02T13:16:08.607Z</time></trkpt><trkpt lat="46.1620217" lon="13.4112"><ele>640.5</ele><time>2026-05-02T13:16:09.604Z</time></trkpt><trkpt lat="46.1620667" lon="13.4110317"><ele>640.0</ele><time>2026-05-02T13:16:10.603Z</time></trkpt><trkpt lat="46.1621" lon="13.4108717"><ele>640.8</ele><time>2026-05-02T13:16:11.604Z</time></trkpt><trkpt lat="46.162115" lon="13.41072"><ele>641.6</ele><time>2026-05-02T13:16:12.602Z</time></trkpt><trkpt lat="46.1621017" lon="13.410575"><ele>642.4000000000001</ele><time>2026-05-02T13:16:13.603Z</time></trkpt><trkpt lat="46.1620633" lon="13.41043"><ele>643.2</ele><time>2026-05-02T13:16:14.606Z</time></trkpt><trkpt lat="46.162025" lon="13.410295"><ele>644.0</ele><time>2026-05-02T13:16:15.604Z</time></trkpt><trkpt lat="46.1620083" lon="13.4101583"><ele>645.0</ele><time>2026-05-02T13:16:16.603Z</time></trkpt><trkpt lat="46.162015" lon="13.4100017"><ele>646.0</ele><time>2026-05-02T13:16:17.605Z</time></trkpt><trkpt lat="46.1620417" lon="13.40983"><ele>647.0</ele><time>2026-05-02T13:16:18.602Z</time></trkpt><trkpt lat="46.1620883" lon="13.4096533"><ele>648.0</ele><time>2026-05-02T13:16:19.605Z</time></trkpt><trkpt lat="46.162145" lon="13.409475"><ele>650.25</ele><time>2026-05-02T13:16:20.607Z</time></trkpt><trkpt lat="46.1622083" lon="13.409295"><ele>652.5</ele><time>2026-05-02T13:16:21.607Z</time></trkpt><trkpt lat="46.1622817" lon="13.4091133"><ele>654.75</ele><time>2026-05-02T13:16:22.606Z</time></trkpt><trkpt lat="46.1623617" lon="13.4089467"><ele>657.0</ele><time>2026-05-02T13:16:23.608Z</time></trkpt><trkpt lat="46.162435" lon="13.408795"><ele>663.2</ele><time>2026-05-02T13:16:24.606Z</time></trkpt><trkpt lat="46.1624933" lon="13.40866"><ele>669.4000000000001</ele><time>2026-05-02T13:16:25.607Z</time></trkpt><trkpt lat="46.1625433" lon="13.4085433"><ele>675.5999999999999</ele><time>2026-05-02T13:16:26.609Z</time></trkpt><trkpt lat="46.16259" lon="13.4084467"><ele>681.8</ele><time>2026-05-02T13:16:27.606Z</time></trkpt><trkpt lat="46.1626283" lon="13.40836"><ele>688.0</ele><time>2026-05-02T13:16:28.606Z</time></trkpt><trkpt lat="46.1626583" lon="13.4082117"><ele>688.0</ele><time>2026-05-02T13:16:30.604Z</time></trkpt><trkpt lat="46.1626083" lon="13.4081067"><ele>688.0</ele><time>2026-05-02T13:16:32.607Z</time></trkpt><trkpt lat="46.162525" lon="13.4080683"><ele>688.0</ele><time>2026-05-02T13:16:34.603Z</time></trkpt><trkpt lat="46.1624517" lon="13.4080067"><ele>688.0</ele><time>2026-05-02T13:16:36.603Z</time></trkpt><trkpt lat="46.162405" lon="13.4078867"><ele>688.0</ele><time>2026-05-02T13:16:38.593Z</time></trkpt><trkpt lat="46.1623483" lon="13.4077867"><ele>688.0</ele><time>2026-05-02T13:16:40.605Z</time></trkpt><trkpt lat="46.16227" lon="13.4078"><ele>687.2</ele><time>2026-05-02T13:16:42.607Z</time></trkpt><trkpt lat="46.1621583" lon="13.4078767"><ele>686.4</ele><time>2026-05-02T13:16:44.61Z</time></trkpt><trkpt lat="46.16208" lon="13.407955"><ele>685.6</ele><time>2026-05-02T13:16:45.597Z</time></trkpt><trkpt lat="46.1619983" lon="13.4080417"><ele>684.8000000000001</ele><time>2026-05-02T13:16:46.606Z</time></trkpt><trkpt lat="46.1619067" lon="13.4081133"><ele>684.0</ele><time>2026-05-02T13:16:47.604Z</time></trkpt><trkpt lat="46.1618183" lon="13.4081733"><ele>684.0</ele><time>2026-05-02T13:16:48.604Z</time></trkpt><trkpt lat="46.1617383" lon="13.4082133"><ele>684.0</ele><time>2026-05-02T13:16:49.607Z</time></trkpt><trkpt lat="46.1616583" lon="13.4082167"><ele>684.0</ele><time>2026-05-02T13:16:50.609Z</time></trkpt><trkpt lat="46.1615833" lon="13.408215"><ele>684.0</ele><time>2026-05-02T13:16:51.596Z</time></trkpt><trkpt lat="46.1615" lon="13.4082067"><ele>684.0</ele><time>2026-05-02T13:16:52.602Z</time></trkpt><trkpt lat="46.1614133" lon="13.40821"><ele>684.0</ele><time>2026-05-02T13:16:53.609Z</time></trkpt><trkpt lat="46.161335" lon="13.4082167"><ele>685.5</ele><time>2026-05-02T13:16:54.605Z</time></trkpt><trkpt lat="46.1612583" lon="13.40823"><ele>687.0</ele><time>2026-05-02T13:16:55.605Z</time></trkpt><trkpt lat="46.1611817" lon="13.4082467"><ele>688.5</ele><time>2026-05-02T13:16:56.61Z</time></trkpt><trkpt lat="46.1611067" lon="13.408285"><ele>690.0</ele><time>2026-05-02T13:16:57.594Z</time></trkpt><trkpt lat="46.1610317" lon="13.4083167"><ele>691.5</ele><time>2026-05-02T13:16:58.593Z</time></trkpt><trkpt lat="46.160965" lon="13.408355"><ele>693.0</ele><time>2026-05-02T13:16:59.604Z</time></trkpt><trkpt lat="46.160905" lon="13.4084067"><ele>693.0</ele><time>2026-05-02T13:17:00.606Z</time></trkpt><trkpt lat="46.1608467" lon="13.4084733"><ele>693.0</ele><time>2026-05-02T13:17:01.605Z</time></trkpt><trkpt lat="46.1607933" lon="13.408545"><ele>693.0</ele><time>2026-05-02T13:17:02.607Z</time></trkpt><trkpt lat="46.1607483" lon="13.408615"><ele>693.0</ele><time>2026-05-02T13:17:03.606Z</time></trkpt><trkpt lat="46.16068" lon="13.40876"><ele>693.0</ele><time>2026-05-02T13:17:05.607Z</time></trkpt><trkpt lat="46.1606617" lon="13.408935"><ele>692.0</ele><time>2026-05-02T13:17:07.608Z</time></trkpt><trkpt lat="46.160665" lon="13.40905"><ele>691.0</ele><time>2026-05-02T13:17:08.609Z</time></trkpt><trkpt lat="46.16067" lon="13.409155"><ele>690.0</ele><time>2026-05-02T13:17:09.608Z</time></trkpt><trkpt lat="46.1606717" lon="13.40925"><ele>689.0</ele><time>2026-05-02T13:17:10.594Z</time></trkpt><trkpt lat="46.16068" lon="13.4093617"><ele>688.0</ele><time>2026-05-02T13:17:11.607Z</time></trkpt><trkpt lat="46.16067" lon="13.4094617"><ele>687.0</ele><time>2026-05-02T13:17:12.605Z</time></trkpt><trkpt lat="46.160655" lon="13.40955"><ele>686.0</ele><time>2026-05-02T13:17:13.605Z</time></trkpt><trkpt lat="46.160615" lon="13.4097067"><ele>686.0</ele><time>2026-05-02T13:17:15.605Z</time></trkpt><trkpt lat="46.1605533" lon="13.409855"><ele>686.0</ele><time>2026-05-02T13:17:17.604Z</time></trkpt><trkpt lat="46.160465" lon="13.40997"><ele>686.0</ele><time>2026-05-02T13:17:19.604Z</time></trkpt><trkpt lat="46.1603633" lon="13.4100617"><ele>686.0</ele><time>2026-05-02T13:17:21.604Z</time></trkpt><trkpt lat="46.1603083" lon="13.4101067"><ele>686.0</ele><time>2026-05-02T13:17:22.594Z</time></trkpt><trkpt lat="46.16022" lon="13.4101967"><ele>686.0</ele><time>2026-05-02T13:17:24.603Z</time></trkpt><trkpt lat="46.16017" lon="13.4102817"><ele>686.0</ele><time>2026-05-02T13:17:26.606Z</time></trkpt><trkpt lat="46.16012" lon="13.4103967"><ele>686.0</ele><time>2026-05-02T13:17:29.595Z</time></trkpt><trkpt lat="46.1600533" lon="13.4104717"><ele>686.0</ele><time>2026-05-02T13:17:31.608Z</time></trkpt><trkpt lat="46.15994" lon="13.410545"><ele>686.0</ele><time>2026-05-02T13:17:33.607Z</time></trkpt><trkpt lat="46.1598767" lon="13.4105883"><ele>690.4</ele><time>2026-05-02T13:17:34.607Z</time></trkpt><trkpt lat="46.1598233" lon="13.41064"><ele>694.8</ele><time>2026-05-02T13:17:35.604Z</time></trkpt><trkpt lat="46.1597683" lon="13.4107567"><ele>699.1999999999999</ele><time>2026-05-02T13:17:37.606Z</time></trkpt><trkpt lat="46.1597517" lon="13.4109283"><ele>703.5999999999999</ele><time>2026-05-02T13:17:39.608Z</time></trkpt><trkpt lat="46.1597633" lon="13.4110483"><ele>708.0</ele><time>2026-05-02T13:17:40.605Z</time></trkpt><trkpt lat="46.15977" lon="13.411185"><ele>708.0</ele><time>2026-05-02T13:17:41.608Z</time></trkpt><trkpt lat="46.15977" lon="13.4113233"><ele>708.0</ele><time>2026-05-02T13:17:42.609Z</time></trkpt><trkpt lat="46.1597533" lon="13.4114467"><ele>708.0</ele><time>2026-05-02T13:17:43.606Z</time></trkpt><trkpt lat="46.1597233" lon="13.4115633"><ele>708.0</ele><time>2026-05-02T13:17:44.608Z</time></trkpt><trkpt lat="46.1596833" lon="13.411685"><ele>708.0</ele><time>2026-05-02T13:17:45.605Z</time></trkpt><trkpt lat="46.1596517" lon="13.41181"><ele>706.2</ele><time>2026-05-02T13:17:46.606Z</time></trkpt><trkpt lat="46.159605" lon="13.4119333"><ele>704.4</ele><time>2026-05-02T13:17:47.609Z</time></trkpt><trkpt lat="46.1595683" lon="13.4120633"><ele>702.6</ele><time>2026-05-02T13:17:48.605Z</time></trkpt><trkpt lat="46.1595283" lon="13.4122017"><ele>700.8000000000001</ele><time>2026-05-02T13:17:49.603Z</time></trkpt><trkpt lat="46.1594917" lon="13.412335"><ele>699.0</ele><time>2026-05-02T13:17:50.607Z</time></trkpt><trkpt lat="46.1594567" lon="13.4124617"><ele>694.6666666666666</ele><time>2026-05-02T13:17:51.606Z</time></trkpt><trkpt lat="46.159415" lon="13.4125767"><ele>690.3333333333334</ele><time>2026-05-02T13:17:52.606Z</time></trkpt><trkpt lat="46.1593733" lon="13.4126717"><ele>686.0</ele><time>2026-05-02T13:17:53.603Z</time></trkpt><trkpt lat="46.15933" lon="13.41274"><ele>681.6666666666667</ele><time>2026-05-02T13:17:54.604Z</time></trkpt><trkpt lat="46.159225" lon="13.4128233"><ele>677.3333333333334</ele><time>2026-05-02T13:17:56.607Z</time></trkpt><trkpt lat="46.1591667" lon="13.4128617"><ele>673.0</ele><time>2026-05-02T13:17:57.605Z</time></trkpt><trkpt lat="46.1591017" lon="13.4128967"><ele>673.0</ele><time>2026-05-02T13:17:58.606Z</time></trkpt><trkpt lat="46.15904" lon="13.4129317"><ele>673.0</ele><time>2026-05-02T13:17:59.604Z</time></trkpt><trkpt lat="46.158975" lon="13.4129717"><ele>673.0</ele><time>2026-05-02T13:18:00.605Z</time></trkpt><trkpt lat="46.1589083" lon="13.4130133"><ele>673.0</ele><time>2026-05-02T13:18:01.608Z</time></trkpt><trkpt lat="46.15883" lon="13.4130583"><ele>673.0</ele><time>2026-05-02T13:18:02.611Z</time></trkpt><trkpt lat="46.15875" lon="13.4130933"><ele>673.0</ele><time>2026-05-02T13:18:03.603Z</time></trkpt><trkpt lat="46.15867" lon="13.413115"><ele>671.8333333333334</ele><time>2026-05-02T13:18:04.603Z</time></trkpt><trkpt lat="46.158585" lon="13.4131233"><ele>670.6666666666667</ele><time>2026-05-02T13:18:05.602Z</time></trkpt><trkpt lat="46.158505" lon="13.413135"><ele>669.5</ele><time>2026-05-02T13:18:06.605Z</time></trkpt><trkpt lat="46.15843" lon="13.413145"><ele>668.3333333333334</ele><time>2026-05-02T13:18:07.602Z</time></trkpt><trkpt lat="46.1583567" lon="13.4131533"><ele>667.1666666666666</ele><time>2026-05-02T13:18:08.605Z</time></trkpt><trkpt lat="46.15825" lon="13.4131883"><ele>666.0</ele><time>2026-05-02T13:18:10.607Z</time></trkpt><trkpt lat="46.1581633" lon="13.4132767"><ele>668.5999999999999</ele><time>2026-05-02T13:18:12.607Z</time></trkpt><trkpt lat="46.158105" lon="13.41344"><ele>671.2</ele><time>2026-05-02T13:18:14.606Z</time></trkpt><trkpt lat="46.158075" lon="13.413525"><ele>673.8</ele><time>2026-05-02T13:18:15.606Z</time></trkpt><trkpt lat="46.15801" lon="13.4136767"><ele>676.4000000000001</ele><time>2026-05-02T13:18:17.603Z</time></trkpt><trkpt lat="46.1579817" lon="13.4137717"><ele>679.0</ele><time>2026-05-02T13:18:18.606Z</time></trkpt><trkpt lat="46.1579617" lon="13.4138767"><ele>679.0</ele><time>2026-05-02T13:18:19.609Z</time></trkpt><trkpt lat="46.1579467" lon="13.4140017"><ele>679.0</ele><time>2026-05-02T13:18:20.607Z</time></trkpt><trkpt lat="46.1579333" lon="13.4141217"><ele>679.0</ele><time>2026-05-02T13:18:21.603Z</time></trkpt><trkpt lat="46.1579383" lon="13.41424"><ele>679.0</ele><time>2026-05-02T13:18:22.602Z</time></trkpt><trkpt lat="46.1579417" lon="13.4143517"><ele>679.0</ele><time>2026-05-02T13:18:23.604Z</time></trkpt><trkpt lat="46.1579333" lon="13.414445"><ele>679.0</ele><time>2026-05-02T13:18:24.608Z</time></trkpt><trkpt lat="46.15789" lon="13.4146133"><ele>675.8000000000001</ele><time>2026-05-02T13:18:26.606Z</time></trkpt><trkpt lat="46.1577933" lon="13.41475"><ele>672.6</ele><time>2026-05-02T13:18:28.601Z</time></trkpt><trkpt lat="46.1577283" lon="13.4148233"><ele>669.4</ele><time>2026-05-02T13:18:29.605Z</time></trkpt><trkpt lat="46.15766" lon="13.4149117"><ele>666.2</ele><time>2026-05-02T13:18:30.605Z</time></trkpt><trkpt lat="46.1575883" lon="13.4150083"><ele>663.0</ele><time>2026-05-02T13:18:31.607Z</time></trkpt><trkpt lat="46.1575167" lon="13.4151117"><ele>663.0</ele><time>2026-05-02T13:18:32.61Z</time></trkpt><trkpt lat="46.1574617" lon="13.4152217"><ele>663.0</ele><time>2026-05-02T13:18:33.605Z</time></trkpt><trkpt lat="46.1574133" lon="13.4153317"><ele>663.0</ele><time>2026-05-02T13:18:34.602Z</time></trkpt><trkpt lat="46.1573733" lon="13.4154433"><ele>663.0</ele><time>2026-05-02T13:18:35.601Z</time></trkpt><trkpt lat="46.1573383" lon="13.41555"><ele>663.0</ele><time>2026-05-02T13:18:36.604Z</time></trkpt><trkpt lat="46.1573133" lon="13.415655"><ele>663.0</ele><time>2026-05-02T13:18:37.607Z</time></trkpt><trkpt lat="46.157295" lon="13.4157483"><ele>662.8333333333334</ele><time>2026-05-02T13:18:38.605Z</time></trkpt><trkpt lat="46.1572933" lon="13.4158483"><ele>662.6666666666666</ele><time>2026-05-02T13:18:39.605Z</time></trkpt><trkpt lat="46.1573" lon="13.41594"><ele>662.5</ele><time>2026-05-02T13:18:40.606Z</time></trkpt><trkpt lat="46.15733" lon="13.416035"><ele>662.3333333333333</ele><time>2026-05-02T13:18:41.603Z</time></trkpt><trkpt lat="46.1573717" lon="13.4161517"><ele>662.1666666666666</ele><time>2026-05-02T13:18:42.608Z</time></trkpt><trkpt lat="46.1574067" lon="13.4162533"><ele>662.0</ele><time>2026-05-02T13:18:43.608Z</time></trkpt><trkpt lat="46.157435" lon="13.4163533"><ele>663.6666666666666</ele><time>2026-05-02T13:18:44.608Z</time></trkpt><trkpt lat="46.15745" lon="13.4164467"><ele>665.3333333333333</ele><time>2026-05-02T13:18:45.604Z</time></trkpt><trkpt lat="46.1574633" lon="13.4165467"><ele>667.0</ele><time>2026-05-02T13:18:46.604Z</time></trkpt><trkpt lat="46.1574817" lon="13.4167017"><ele>668.6666666666666</ele><time>2026-05-02T13:18:48.605Z</time></trkpt><trkpt lat="46.1575633" lon="13.4168367"><ele>670.3333333333334</ele><time>2026-05-02T13:18:50.608Z</time></trkpt><trkpt lat="46.1576183" lon="13.4169033"><ele>672.0</ele><time>2026-05-02T13:18:51.606Z</time></trkpt><trkpt lat="46.1576783" lon="13.4169767"><ele>672.0</ele><time>2026-05-02T13:18:52.607Z</time></trkpt><trkpt lat="46.1577433" lon="13.417045"><ele>672.0</ele><time>2026-05-02T13:18:53.606Z</time></trkpt><trkpt lat="46.1578033" lon="13.4170917"><ele>672.0</ele><time>2026-05-02T13:18:54.609Z</time></trkpt><trkpt lat="46.1578683" lon="13.4171417"><ele>672.0</ele><time>2026-05-02T13:18:55.603Z</time></trkpt><trkpt lat="46.1579817" lon="13.41722"><ele>672.0</ele><time>2026-05-02T13:18:57.607Z</time></trkpt><trkpt lat="46.1580717" lon="13.4172767"><ele>672.0</ele><time>2026-05-02T13:18:59.606Z</time></trkpt><trkpt lat="46.1581433" lon="13.4173233"><ele>666.8</ele><time>2026-05-02T13:19:01.602Z</time></trkpt><trkpt lat="46.1582067" lon="13.4174067"><ele>661.6</ele><time>2026-05-02T13:19:03.604Z</time></trkpt><trkpt lat="46.1582483" lon="13.417555"><ele>656.4</ele><time>2026-05-02T13:19:05.602Z</time></trkpt><trkpt lat="46.15827" lon="13.4177267"><ele>651.1999999999999</ele><time>2026-05-02T13:19:07.606Z</time></trkpt><trkpt lat="46.158275" lon="13.4178317"><ele>646.0</ele><time>2026-05-02T13:19:08.608Z</time></trkpt><trkpt lat="46.1582717" lon="13.4179333"><ele>644.0</ele><time>2026-05-02T13:19:09.605Z</time></trkpt><trkpt lat="46.1582533" lon="13.4180383"><ele>642.0</ele><time>2026-05-02T13:19:10.605Z</time></trkpt><trkpt lat="46.1582283" lon="13.41815"><ele>640.0</ele><time>2026-05-02T13:19:11.603Z</time></trkpt><trkpt lat="46.1582067" lon="13.418265"><ele>638.0</ele><time>2026-05-02T13:19:12.607Z</time></trkpt><trkpt lat="46.1581883" lon="13.41838"><ele>636.0</ele><time>2026-05-02T13:19:13.604Z</time></trkpt><trkpt lat="46.1581617" lon="13.4184817"><ele>634.0</ele><time>2026-05-02T13:19:14.608Z</time></trkpt><trkpt lat="46.158135" lon="13.4185733"><ele>635.0</ele><time>2026-05-02T13:19:15.605Z</time></trkpt><trkpt lat="46.1581033" lon="13.4186617"><ele>636.0</ele><time>2026-05-02T13:19:16.603Z</time></trkpt><trkpt lat="46.1580617" lon="13.418745"><ele>637.0</ele><time>2026-05-02T13:19:17.604Z</time></trkpt><trkpt lat="46.15802" lon="13.418825"><ele>638.0</ele><time>2026-05-02T13:19:18.602Z</time></trkpt><trkpt lat="46.1579767" lon="13.4189017"><ele>639.0</ele><time>2026-05-02T13:19:19.604Z</time></trkpt><trkpt lat="46.15792" lon="13.418985"><ele>640.0</ele><time>2026-05-02T13:19:20.603Z</time></trkpt><trkpt lat="46.157855" lon="13.419055"><ele>641.0</ele><time>2026-05-02T13:19:21.605Z</time></trkpt><trkpt lat="46.1577933" lon="13.4191117"><ele>641.0</ele><time>2026-05-02T13:19:22.604Z</time></trkpt><trkpt lat="46.157735" lon="13.4191583"><ele>641.0</ele><time>2026-05-02T13:19:23.607Z</time></trkpt><trkpt lat="46.1576717" lon="13.4192017"><ele>641.0</ele><time>2026-05-02T13:19:24.602Z</time></trkpt><trkpt lat="46.157605" lon="13.4192517"><ele>641.0</ele><time>2026-05-02T13:19:25.605Z</time></trkpt><trkpt lat="46.15753" lon="13.4193067"><ele>641.0</ele><time>2026-05-02T13:19:26.607Z</time></trkpt><trkpt lat="46.15745" lon="13.4193517"><ele>641.0</ele><time>2026-05-02T13:19:27.603Z</time></trkpt><trkpt lat="46.157375" lon="13.4193817"><ele>644.8333333333333</ele><time>2026-05-02T13:19:28.602Z</time></trkpt><trkpt lat="46.1573" lon="13.4194017"><ele>648.6666666666666</ele><time>2026-05-02T13:19:29.602Z</time></trkpt><trkpt lat="46.1572333" lon="13.4194217"><ele>652.5</ele><time>2026-05-02T13:19:30.603Z</time></trkpt><trkpt lat="46.1571667" lon="13.4194483"><ele>656.3333333333334</ele><time>2026-05-02T13:19:31.604Z</time></trkpt><trkpt lat="46.1571017" lon="13.4194917"><ele>660.1666666666667</ele><time>2026-05-02T13:19:32.608Z</time></trkpt><trkpt lat="46.1570317" lon="13.41956"><ele>664.0</ele><time>2026-05-02T13:19:33.603Z</time></trkpt><trkpt lat="46.1569583" lon="13.41963"><ele>659.5</ele><time>2026-05-02T13:19:34.607Z</time></trkpt><trkpt lat="46.1568817" lon="13.4196983"><ele>655.0</ele><time>2026-05-02T13:19:35.604Z</time></trkpt><trkpt lat="46.1568117" lon="13.4197633"><ele>650.5</ele><time>2026-05-02T13:19:36.608Z</time></trkpt><trkpt lat="46.1567467" lon="13.419805"><ele>646.0</ele><time>2026-05-02T13:19:37.607Z</time></trkpt><trkpt lat="46.1566833" lon="13.4198467"><ele>641.5</ele><time>2026-05-02T13:19:38.609Z</time></trkpt><trkpt lat="46.1566217" lon="13.419895"><ele>637.0</ele><time>2026-05-02T13:19:39.605Z</time></trkpt><trkpt lat="46.1565617" lon="13.4199533"><ele>642.0</ele><time>2026-05-02T13:19:40.604Z</time></trkpt><trkpt lat="46.1565017" lon="13.42002"><ele>647.0</ele><time>2026-05-02T13:19:41.607Z</time></trkpt><trkpt lat="46.1564533" lon="13.4200917"><ele>652.0</ele><time>2026-05-02T13:19:42.607Z</time></trkpt><trkpt lat="46.1564133" lon="13.4202433"><ele>657.0</ele><time>2026-05-02T13:19:44.609Z</time></trkpt><trkpt lat="46.1564283" lon="13.42041"><ele>662.0</ele><time>2026-05-02T13:19:46.607Z</time></trkpt><trkpt lat="46.1564617" lon="13.4204883"><ele>667.0</ele><time>2026-05-02T13:19:47.605Z</time></trkpt><trkpt lat="46.156505" lon="13.4205733"><ele>662.7142857142858</ele><time>2026-05-02T13:19:48.608Z</time></trkpt><trkpt lat="46.1565433" lon="13.42066"><ele>658.4285714285714</ele><time>2026-05-02T13:19:49.605Z</time></trkpt><trkpt lat="46.1565833" lon="13.420745"><ele>654.1428571428571</ele><time>2026-05-02T13:19:50.608Z</time></trkpt><trkpt lat="46.1566283" lon="13.420835"><ele>649.8571428571429</ele><time>2026-05-02T13:19:51.609Z</time></trkpt><trkpt lat="46.15667" lon="13.4209233"><ele>645.5714285714286</ele><time>2026-05-02T13:19:52.604Z</time></trkpt><trkpt lat="46.156715" lon="13.421"><ele>641.2857142857143</ele><time>2026-05-02T13:19:53.607Z</time></trkpt><trkpt lat="46.156775" lon="13.4210683"><ele>637.0</ele><time>2026-05-02T13:19:54.607Z</time></trkpt><trkpt lat="46.1568383" lon="13.4211067"><ele>637.0</ele><time>2026-05-02T13:19:55.595Z</time></trkpt><trkpt lat="46.1569033" lon="13.4211317"><ele>637.0</ele><time>2026-05-02T13:19:56.595Z</time></trkpt><trkpt lat="46.1570017" lon="13.421195"><ele>637.0</ele><time>2026-05-02T13:19:58.595Z</time></trkpt><trkpt lat="46.1570833" lon="13.4213333"><ele>637.0</ele><time>2026-05-02T13:20:00.595Z</time></trkpt><trkpt lat="46.1571183" lon="13.4214267"><ele>637.0</ele><time>2026-05-02T13:20:01.595Z</time></trkpt><trkpt lat="46.1571483" lon="13.4215367"><ele>639.1666666666667</ele><time>2026-05-02T13:20:02.598Z</time></trkpt><trkpt lat="46.1571683" lon="13.42164"><ele>641.3333333333334</ele><time>2026-05-02T13:20:03.594Z</time></trkpt><trkpt lat="46.1571917" lon="13.421725"><ele>643.5</ele><time>2026-05-02T13:20:04.593Z</time></trkpt><trkpt lat="46.15726" lon="13.4217917"><ele>645.6666666666666</ele><time>2026-05-02T13:20:06.602Z</time></trkpt><trkpt lat="46.1573867" lon="13.42181"><ele>647.8333333333333</ele><time>2026-05-02T13:20:08.606Z</time></trkpt><trkpt lat="46.15745" lon="13.4218217"><ele>650.0</ele><time>2026-05-02T13:20:09.606Z</time></trkpt><trkpt lat="46.15756" lon="13.4218617"><ele>646.0</ele><time>2026-05-02T13:20:11.607Z</time></trkpt><trkpt lat="46.15764" lon="13.42199"><ele>642.0</ele><time>2026-05-02T13:20:13.607Z</time></trkpt><trkpt lat="46.1576683" lon="13.4220833"><ele>638.0</ele><time>2026-05-02T13:20:14.606Z</time></trkpt><trkpt lat="46.1576783" lon="13.4221933"><ele>634.0</ele><time>2026-05-02T13:20:15.605Z</time></trkpt><trkpt lat="46.1576983" lon="13.4223133"><ele>630.0</ele><time>2026-05-02T13:20:16.604Z</time></trkpt><trkpt lat="46.157715" lon="13.4224417"><ele>626.0</ele><time>2026-05-02T13:20:17.605Z</time></trkpt><trkpt lat="46.1577383" lon="13.4225717"><ele>626.0</ele><time>2026-05-02T13:20:18.604Z</time></trkpt><trkpt lat="46.1577617" lon="13.4226967"><ele>626.0</ele><time>2026-05-02T13:20:19.604Z</time></trkpt><trkpt lat="46.1577967" lon="13.422815"><ele>626.0</ele><time>2026-05-02T13:20:20.607Z</time></trkpt><trkpt lat="46.15778" lon="13.4229267"><ele>626.0</ele><time>2026-05-02T13:20:21.606Z</time></trkpt><trkpt lat="46.1577267" lon="13.42302"><ele>626.0</ele><time>2026-05-02T13:20:22.602Z</time></trkpt><trkpt lat="46.1576933" lon="13.4231167"><ele>626.0</ele><time>2026-05-02T13:20:23.606Z</time></trkpt><trkpt lat="46.1576533" lon="13.4232117"><ele>623.5</ele><time>2026-05-02T13:20:24.603Z</time></trkpt><trkpt lat="46.1576083" lon="13.4232967"><ele>621.0</ele><time>2026-05-02T13:20:25.606Z</time></trkpt><trkpt lat="46.1575633" lon="13.4233733"><ele>618.5</ele><time>2026-05-02T13:20:26.606Z</time></trkpt><trkpt lat="46.1575167" lon="13.4234517"><ele>616.0</ele><time>2026-05-02T13:20:27.606Z</time></trkpt><trkpt lat="46.1574717" lon="13.4235383"><ele>613.5</ele><time>2026-05-02T13:20:28.606Z</time></trkpt><trkpt lat="46.1574267" lon="13.42365"><ele>611.0</ele><time>2026-05-02T13:20:29.607Z</time></trkpt><trkpt lat="46.157375" lon="13.4237483"><ele>608.6666666666666</ele><time>2026-05-02T13:20:30.605Z</time></trkpt><trkpt lat="46.1573217" lon="13.4238267"><ele>606.3333333333333</ele><time>2026-05-02T13:20:31.607Z</time></trkpt><trkpt lat="46.1572567" lon="13.4238983"><ele>604.0</ele><time>2026-05-02T13:20:32.605Z</time></trkpt><trkpt lat="46.1571933" lon="13.4239517"><ele>601.6666666666666</ele><time>2026-05-02T13:20:33.606Z</time></trkpt><trkpt lat="46.1571267" lon="13.42398"><ele>599.3333333333334</ele><time>2026-05-02T13:20:34.602Z</time></trkpt><trkpt lat="46.1570567" lon="13.4239833"><ele>597.0</ele><time>2026-05-02T13:20:35.602Z</time></trkpt><trkpt lat="46.15698" lon="13.4239567"><ele>597.0</ele><time>2026-05-02T13:20:36.603Z</time></trkpt><trkpt lat="46.1569017" lon="13.4239133"><ele>597.0</ele><time>2026-05-02T13:20:37.603Z</time></trkpt><trkpt lat="46.15683" lon="13.4238633"><ele>597.0</ele><time>2026-05-02T13:20:38.608Z</time></trkpt><trkpt lat="46.1567617" lon="13.42382"><ele>597.0</ele><time>2026-05-02T13:20:39.604Z</time></trkpt><trkpt lat="46.1566983" lon="13.4237833"><ele>597.0</ele><time>2026-05-02T13:20:40.604Z</time></trkpt><trkpt lat="46.1566383" lon="13.4237533"><ele>597.0</ele><time>2026-05-02T13:20:41.602Z</time></trkpt><trkpt lat="46.1565133" lon="13.423735"><ele>597.3333333333334</ele><time>2026-05-02T13:20:43.602Z</time></trkpt><trkpt lat="46.1564417" lon="13.4237567"><ele>597.6666666666666</ele><time>2026-05-02T13:20:44.608Z</time></trkpt><trkpt lat="46.1563633" lon="13.423785"><ele>598.0</ele><time>2026-05-02T13:20:45.606Z</time></trkpt><trkpt lat="46.1562817" lon="13.4238267"><ele>598.3333333333333</ele><time>2026-05-02T13:20:46.602Z</time></trkpt><trkpt lat="46.156205" lon="13.4238767"><ele>598.6666666666666</ele><time>2026-05-02T13:20:47.604Z</time></trkpt><trkpt lat="46.156135" lon="13.4239217"><ele>599.0</ele><time>2026-05-02T13:20:48.601Z</time></trkpt><trkpt lat="46.1560717" lon="13.4239683"><ele>599.0</ele><time>2026-05-02T13:20:49.602Z</time></trkpt><trkpt lat="46.1560133" lon="13.4240167"><ele>599.0</ele><time>2026-05-02T13:20:50.604Z</time></trkpt><trkpt lat="46.1559533" lon="13.4240683"><ele>599.0</ele><time>2026-05-02T13:20:51.602Z</time></trkpt><trkpt lat="46.1558783" lon="13.424115"><ele>599.0</ele><time>2026-05-02T13:20:52.603Z</time></trkpt><trkpt lat="46.1558" lon="13.4241917"><ele>599.0</ele><time>2026-05-02T13:20:53.602Z</time></trkpt><trkpt lat="46.1557333" lon="13.4242583"><ele>599.0</ele><time>2026-05-02T13:20:54.609Z</time></trkpt><trkpt lat="46.155675" lon="13.4243167"><ele>598.0</ele><time>2026-05-02T13:20:55.606Z</time></trkpt><trkpt lat="46.15562" lon="13.42437"><ele>597.0</ele><time>2026-05-02T13:20:56.607Z</time></trkpt><trkpt lat="46.1555667" lon="13.4244267"><ele>596.0</ele><time>2026-05-02T13:20:57.602Z</time></trkpt><trkpt lat="46.1554817" lon="13.42452"><ele>595.0</ele><time>2026-05-02T13:20:59.603Z</time></trkpt><trkpt lat="46.1554867" lon="13.4246233"><ele>594.0</ele><time>2026-05-02T13:21:02.605Z</time></trkpt><trkpt lat="46.1555733" lon="13.4245867"><ele>593.0</ele><time>2026-05-02T13:21:04.602Z</time></trkpt><trkpt lat="46.1556383" lon="13.424545"><ele>593.8571428571428</ele><time>2026-05-02T13:21:05.603Z</time></trkpt><trkpt lat="46.15571" lon="13.4245133"><ele>594.7142857142857</ele><time>2026-05-02T13:21:06.603Z</time></trkpt><trkpt lat="46.1557717" lon="13.4244917"><ele>595.5714285714286</ele><time>2026-05-02T13:21:07.603Z</time></trkpt><trkpt lat="46.1558367" lon="13.4244783"><ele>596.4285714285713</ele><time>2026-05-02T13:21:08.603Z</time></trkpt><trkpt lat="46.1558983" lon="13.4244583"><ele>597.2857142857142</ele><time>2026-05-02T13:21:09.602Z</time></trkpt><trkpt lat="46.1559617" lon="13.42443"><ele>598.1428571428571</ele><time>2026-05-02T13:21:10.602Z</time></trkpt><trkpt lat="46.15603" lon="13.4244"><ele>599.0</ele><time>2026-05-02T13:21:11.606Z</time></trkpt><trkpt lat="46.1560983" lon="13.4243767"><ele>599.0</ele><time>2026-05-02T13:21:12.606Z</time></trkpt><trkpt lat="46.156165" lon="13.4243567"><ele>599.0</ele><time>2026-05-02T13:21:13.607Z</time></trkpt><trkpt lat="46.1562283" lon="13.4243683"><ele>599.0</ele><time>2026-05-02T13:21:14.608Z</time></trkpt><trkpt lat="46.1563317" lon="13.4244317"><ele>599.0</ele><time>2026-05-02T13:21:16.603Z</time></trkpt><trkpt lat="46.1564067" lon="13.4245483"><ele>599.0</ele><time>2026-05-02T13:21:18.602Z</time></trkpt><trkpt lat="46.156455" lon="13.4246617"><ele>599.0</ele><time>2026-05-02T13:21:20.605Z</time></trkpt><trkpt lat="46.1564517" lon="13.4247617"><ele>599.0</ele><time>2026-05-02T13:21:22.603Z</time></trkpt><trkpt lat="46.15638" lon="13.4247017"><ele>599.0</ele><time>2026-05-02T13:21:26.606Z</time></trkpt><trkpt lat="46.1563033" lon="13.4245983"><ele>599.0</ele><time>2026-05-02T13:21:28.606Z</time></trkpt><trkpt lat="46.1562" lon="13.4245983"><ele>599.0</ele><time>2026-05-02T13:21:30.602Z</time></trkpt><trkpt lat="46.1561317" lon="13.4246367"><ele>599.0</ele><time>2026-05-02T13:21:31.603Z</time></trkpt><trkpt lat="46.1560517" lon="13.4246833"><ele>594.0</ele><time>2026-05-02T13:21:32.608Z</time></trkpt><trkpt lat="46.15597" lon="13.424745"><ele>589.0</ele><time>2026-05-02T13:21:33.605Z</time></trkpt><trkpt lat="46.1558917" lon="13.424805"><ele>584.0</ele><time>2026-05-02T13:21:34.604Z</time></trkpt><trkpt lat="46.155815" lon="13.424855"><ele>579.0</ele><time>2026-05-02T13:21:35.605Z</time></trkpt><trkpt lat="46.1557383" lon="13.4249033"><ele>574.0</ele><time>2026-05-02T13:21:36.606Z</time></trkpt><trkpt lat="46.1556567" lon="13.4249533"><ele>569.0</ele><time>2026-05-02T13:21:37.605Z</time></trkpt><trkpt lat="46.1555717" lon="13.4250033"><ele>568.0</ele><time>2026-05-02T13:21:38.604Z</time></trkpt><trkpt lat="46.1554933" lon="13.425045"><ele>567.0</ele><time>2026-05-02T13:21:39.604Z</time></trkpt><trkpt lat="46.15542" lon="13.4250767"><ele>566.0</ele><time>2026-05-02T13:21:40.602Z</time></trkpt><trkpt lat="46.155345" lon="13.4251033"><ele>565.0</ele><time>2026-05-02T13:21:41.603Z</time></trkpt><trkpt lat="46.1552717" lon="13.4251267"><ele>564.0</ele><time>2026-05-02T13:21:42.604Z</time></trkpt><trkpt lat="46.1552" lon="13.42514"><ele>563.0</ele><time>2026-05-02T13:21:43.603Z</time></trkpt><trkpt lat="46.155135" lon="13.4251367"><ele>563.0</ele><time>2026-05-02T13:21:44.605Z</time></trkpt><trkpt lat="46.1550667" lon="13.42513"><ele>563.0</ele><time>2026-05-02T13:21:45.605Z</time></trkpt><trkpt lat="46.1550017" lon="13.4251133"><ele>563.0</ele><time>2026-05-02T13:21:46.605Z</time></trkpt><trkpt lat="46.15494" lon="13.4250917"><ele>563.0</ele><time>2026-05-02T13:21:47.607Z</time></trkpt><trkpt lat="46.1548767" lon="13.4250617"><ele>563.0</ele><time>2026-05-02T13:21:48.602Z</time></trkpt><trkpt lat="46.1548167" lon="13.4250217"><ele>563.0</ele><time>2026-05-02T13:21:49.602Z</time></trkpt><trkpt lat="46.154705" lon="13.4249483"><ele>561.5</ele><time>2026-05-02T13:21:51.604Z</time></trkpt><trkpt lat="46.1546317" lon="13.424915"><ele>560.0</ele><time>2026-05-02T13:21:52.603Z</time></trkpt><trkpt lat="46.1545567" lon="13.424895"><ele>558.5</ele><time>2026-05-02T13:21:53.603Z</time></trkpt><trkpt lat="46.15449" lon="13.4248767"><ele>557.0</ele><time>2026-05-02T13:21:54.604Z</time></trkpt><trkpt lat="46.1544283" lon="13.4248417"><ele>555.5</ele><time>2026-05-02T13:21:55.603Z</time></trkpt><trkpt lat="46.154335" lon="13.4247467"><ele>554.0</ele><time>2026-05-02T13:21:57.602Z</time></trkpt><trkpt lat="46.1542733" lon="13.4246233"><ele>554.2</ele><time>2026-05-02T13:21:59.603Z</time></trkpt><trkpt lat="46.1541917" lon="13.424555"><ele>554.4</ele><time>2026-05-02T13:22:01.605Z</time></trkpt><trkpt lat="46.1540867" lon="13.4245867"><ele>554.6</ele><time>2026-05-02T13:22:03.606Z</time></trkpt><trkpt lat="46.15402" lon="13.4247283"><ele>554.8</ele><time>2026-05-02T13:22:05.603Z</time></trkpt><trkpt lat="46.1539983" lon="13.4248317"><ele>555.0</ele><time>2026-05-02T13:22:06.605Z</time></trkpt><trkpt lat="46.1539683" lon="13.4249283"><ele>555.0</ele><time>2026-05-02T13:22:07.605Z</time></trkpt><trkpt lat="46.1539267" lon="13.42503"><ele>555.0</ele><time>2026-05-02T13:22:08.607Z</time></trkpt><trkpt lat="46.15387" lon="13.425125"><ele>555.0</ele><time>2026-05-02T13:22:09.603Z</time></trkpt><trkpt lat="46.1538067" lon="13.42523"><ele>555.0</ele><time>2026-05-02T13:22:10.604Z</time></trkpt><trkpt lat="46.1537483" lon="13.42533"><ele>555.0</ele><time>2026-05-02T13:22:11.602Z</time></trkpt><trkpt lat="46.1536917" lon="13.4254317"><ele>555.0</ele><time>2026-05-02T13:22:12.602Z</time></trkpt><trkpt lat="46.1536367" lon="13.4255283"><ele>550.8333333333334</ele><time>2026-05-02T13:22:13.604Z</time></trkpt><trkpt lat="46.1535933" lon="13.4256183"><ele>546.6666666666666</ele><time>2026-05-02T13:22:14.609Z</time></trkpt><trkpt lat="46.1535567" lon="13.4256933"><ele>542.5</ele><time>2026-05-02T13:22:15.607Z</time></trkpt><trkpt lat="46.1534833" lon="13.42581"><ele>538.3333333333333</ele><time>2026-05-02T13:22:17.607Z</time></trkpt><trkpt lat="46.153395" lon="13.4258367"><ele>534.1666666666666</ele><time>2026-05-02T13:22:19.601Z</time></trkpt><trkpt lat="46.1533267" lon="13.4257683"><ele>530.0</ele><time>2026-05-02T13:22:21.603Z</time></trkpt><trkpt lat="46.153305" lon="13.4256167"><ele>528.5</ele><time>2026-05-02T13:22:23.603Z</time></trkpt><trkpt lat="46.1533067" lon="13.4254283"><ele>527.0</ele><time>2026-05-02T13:22:25.603Z</time></trkpt><trkpt lat="46.153285" lon="13.4253283"><ele>525.5</ele><time>2026-05-02T13:22:26.608Z</time></trkpt><trkpt lat="46.153255" lon="13.4252217"><ele>524.0</ele><time>2026-05-02T13:22:27.605Z</time></trkpt><trkpt lat="46.1532167" lon="13.425115"><ele>522.5</ele><time>2026-05-02T13:22:28.602Z</time></trkpt><trkpt lat="46.153175" lon="13.4250267"><ele>521.0</ele><time>2026-05-02T13:22:29.603Z</time></trkpt><trkpt lat="46.1531283" lon="13.4249567"><ele>521.0</ele><time>2026-05-02T13:22:30.603Z</time></trkpt><trkpt lat="46.1530733" lon="13.4249017"><ele>521.0</ele><time>2026-05-02T13:22:31.606Z</time></trkpt><trkpt lat="46.1530133" lon="13.4248633"><ele>521.0</ele><time>2026-05-02T13:22:32.608Z</time></trkpt><trkpt lat="46.15294" lon="13.4248533"><ele>521.0</ele><time>2026-05-02T13:22:33.602Z</time></trkpt><trkpt lat="46.1528617" lon="13.4248617"><ele>521.0</ele><time>2026-05-02T13:22:34.602Z</time></trkpt><trkpt lat="46.1527733" lon="13.4248817"><ele>521.0</ele><time>2026-05-02T13:22:35.603Z</time></trkpt><trkpt lat="46.1526833" lon="13.4248867"><ele>521.0</ele><time>2026-05-02T13:22:36.604Z</time></trkpt><trkpt lat="46.1525983" lon="13.42489"><ele>521.0</ele><time>2026-05-02T13:22:37.605Z</time></trkpt><trkpt lat="46.15251" lon="13.4249017"><ele>521.0</ele><time>2026-05-02T13:22:38.603Z</time></trkpt><trkpt lat="46.152425" lon="13.424925"><ele>521.0</ele><time>2026-05-02T13:22:39.603Z</time></trkpt><trkpt lat="46.1523533" lon="13.4249483"><ele>521.0</ele><time>2026-05-02T13:22:40.603Z</time></trkpt><trkpt lat="46.1522433" lon="13.4249433"><ele>521.0</ele><time>2026-05-02T13:22:42.604Z</time></trkpt><trkpt lat="46.152165" lon="13.4248917"><ele>521.0</ele><time>2026-05-02T13:22:44.606Z</time></trkpt><trkpt lat="46.1520817" lon="13.4247833"><ele>521.0</ele><time>2026-05-02T13:22:46.603Z</time></trkpt><trkpt lat="46.1519867" lon="13.424665"><ele>521.0</ele><time>2026-05-02T13:22:48.603Z</time></trkpt><trkpt lat="46.1519267" lon="13.4246183"><ele>521.0</ele><time>2026-05-02T13:22:49.603Z</time></trkpt><trkpt lat="46.1517983" lon="13.424635"><ele>521.0</ele><time>2026-05-02T13:22:51.603Z</time></trkpt><trkpt lat="46.1517333" lon="13.42468"><ele>521.0</ele><time>2026-05-02T13:22:52.606Z</time></trkpt><trkpt lat="46.1516467" lon="13.424755"><ele>521.0</ele><time>2026-05-02T13:22:53.604Z</time></trkpt><trkpt lat="46.1515483" lon="13.42484"><ele>521.0</ele><time>2026-05-02T13:22:54.602Z</time></trkpt><trkpt lat="46.15145" lon="13.4249167"><ele>521.0</ele><time>2026-05-02T13:22:55.602Z</time></trkpt><trkpt lat="46.1513517" lon="13.424985"><ele>521.0</ele><time>2026-05-02T13:22:56.608Z</time></trkpt><trkpt lat="46.1512533" lon="13.4250517"><ele>529.1666666666666</ele><time>2026-05-02T13:22:57.607Z</time></trkpt><trkpt lat="46.1511617" lon="13.4251017"><ele>537.3333333333333</ele><time>2026-05-02T13:22:58.603Z</time></trkpt><trkpt lat="46.15108" lon="13.4251383"><ele>545.5</ele><time>2026-05-02T13:22:59.607Z</time></trkpt><trkpt lat="46.1510067" lon="13.425175"><ele>553.6666666666666</ele><time>2026-05-02T13:23:00.606Z</time></trkpt><trkpt lat="46.1509267" lon="13.425195"><ele>561.8333333333334</ele><time>2026-05-02T13:23:01.604Z</time></trkpt><trkpt lat="46.150845" lon="13.4252117"><ele>570.0</ele><time>2026-05-02T13:23:02.608Z</time></trkpt><trkpt lat="46.1507667" lon="13.4252267"><ele>573.8333333333334</ele><time>2026-05-02T13:23:03.606Z</time></trkpt><trkpt lat="46.1506967" lon="13.42523"><ele>577.6666666666666</ele><time>2026-05-02T13:23:04.605Z</time></trkpt><trkpt lat="46.15063" lon="13.425225"><ele>581.5</ele><time>2026-05-02T13:23:05.608Z</time></trkpt><trkpt lat="46.15053" lon="13.4252583"><ele>585.3333333333333</ele><time>2026-05-02T13:23:07.607Z</time></trkpt><trkpt lat="46.1505467" lon="13.4253717"><ele>589.1666666666666</ele><time>2026-05-02T13:23:09.606Z</time></trkpt><trkpt lat="46.150575" lon="13.4254533"><ele>593.0</ele><time>2026-05-02T13:23:10.607Z</time></trkpt><trkpt lat="46.150585" lon="13.4255917"><ele>593.0</ele><time>2026-05-02T13:23:11.607Z</time></trkpt><trkpt lat="46.1506067" lon="13.4257383"><ele>593.0</ele><time>2026-05-02T13:23:12.609Z</time></trkpt><trkpt lat="46.1506167" lon="13.4258817"><ele>593.0</ele><time>2026-05-02T13:23:13.603Z</time></trkpt><trkpt lat="46.15061" lon="13.4260183"><ele>593.0</ele><time>2026-05-02T13:23:14.608Z</time></trkpt><trkpt lat="46.150605" lon="13.42616"><ele>593.0</ele><time>2026-05-02T13:23:15.61Z</time></trkpt><trkpt lat="46.1506017" lon="13.4263067"><ele>591.1999999999999</ele><time>2026-05-02T13:23:16.604Z</time></trkpt><trkpt lat="46.150575" lon="13.4264533"><ele>589.4</ele><time>2026-05-02T13:23:17.605Z</time></trkpt><trkpt lat="46.1505583" lon="13.4266017"><ele>587.5999999999999</ele><time>2026-05-02T13:23:18.608Z</time></trkpt><trkpt lat="46.150535" lon="13.426745"><ele>585.8</ele><time>2026-05-02T13:23:19.607Z</time></trkpt><trkpt lat="46.15051" lon="13.42689"><ele>584.0</ele><time>2026-05-02T13:23:20.61Z</time></trkpt><trkpt lat="46.1504933" lon="13.4270283"><ele>580.6666666666666</ele><time>2026-05-02T13:23:21.603Z</time></trkpt><trkpt lat="46.1504817" lon="13.42716"><ele>577.3333333333333</ele><time>2026-05-02T13:23:22.602Z</time></trkpt><trkpt lat="46.1504817" lon="13.427295"><ele>574.0</ele><time>2026-05-02T13:23:23.604Z</time></trkpt><trkpt lat="46.1504883" lon="13.427425"><ele>570.6666666666666</ele><time>2026-05-02T13:23:24.606Z</time></trkpt><trkpt lat="46.1505017" lon="13.4275483"><ele>567.3333333333334</ele><time>2026-05-02T13:23:25.606Z</time></trkpt><trkpt lat="46.1505017" lon="13.427665"><ele>564.0</ele><time>2026-05-02T13:23:26.609Z</time></trkpt><trkpt lat="46.1504933" lon="13.4277733"><ele>564.0</ele><time>2026-05-02T13:23:27.607Z</time></trkpt><trkpt lat="46.1504817" lon="13.42788"><ele>564.0</ele><time>2026-05-02T13:23:28.606Z</time></trkpt><trkpt lat="46.1504633" lon="13.4279867"><ele>564.0</ele><time>2026-05-02T13:23:29.606Z</time></trkpt><trkpt lat="46.1504383" lon="13.4280967"><ele>564.0</ele><time>2026-05-02T13:23:30.609Z</time></trkpt><trkpt lat="46.1504083" lon="13.428215"><ele>564.0</ele><time>2026-05-02T13:23:31.606Z</time></trkpt><trkpt lat="46.1503833" lon="13.4283367"><ele>564.0</ele><time>2026-05-02T13:23:32.61Z</time></trkpt><trkpt lat="46.15036" lon="13.4284483"><ele>558.8</ele><time>2026-05-02T13:23:33.608Z</time></trkpt><trkpt lat="46.1503283" lon="13.4285517"><ele>553.5999999999999</ele><time>2026-05-02T13:23:34.603Z</time></trkpt><trkpt lat="46.1502883" lon="13.4286567"><ele>548.4</ele><time>2026-05-02T13:23:35.61Z</time></trkpt><trkpt lat="46.1502417" lon="13.4287733"><ele>543.1999999999999</ele><time>2026-05-02T13:23:36.608Z</time></trkpt><trkpt lat="46.1501933" lon="13.4289017"><ele>538.0</ele><time>2026-05-02T13:23:37.604Z</time></trkpt><trkpt lat="46.15014" lon="13.4290317"><ele>539.4</ele><time>2026-05-02T13:23:38.605Z</time></trkpt><trkpt lat="46.1500817" lon="13.429155"><ele>540.8</ele><time>2026-05-02T13:23:39.606Z</time></trkpt><trkpt lat="46.15002" lon="13.4292667"><ele>542.2</ele><time>2026-05-02T13:23:40.603Z</time></trkpt><trkpt lat="46.1499617" lon="13.429365"><ele>543.6</ele><time>2026-05-02T13:23:41.605Z</time></trkpt><trkpt lat="46.1498983" lon="13.42945"><ele>545.0</ele><time>2026-05-02T13:23:42.608Z</time></trkpt><trkpt lat="46.1498283" lon="13.4295167"><ele>545.0</ele><time>2026-05-02T13:23:43.604Z</time></trkpt><trkpt lat="46.1497567" lon="13.4295767"><ele>545.0</ele><time>2026-05-02T13:23:44.609Z</time></trkpt><trkpt lat="46.149685" lon="13.4296267"><ele>545.0</ele><time>2026-05-02T13:23:45.603Z</time></trkpt><trkpt lat="46.1496133" lon="13.4296633"><ele>545.0</ele><time>2026-05-02T13:23:46.604Z</time></trkpt><trkpt lat="46.1495333" lon="13.4296967"><ele>545.0</ele><time>2026-05-02T13:23:47.604Z</time></trkpt><trkpt lat="46.1494683" lon="13.4297317"><ele>545.0</ele><time>2026-05-02T13:23:48.608Z</time></trkpt><trkpt lat="46.1494" lon="13.4298517"><ele>541.2</ele><time>2026-05-02T13:23:50.606Z</time></trkpt><trkpt lat="46.1493367" lon="13.4299733"><ele>537.4</ele><time>2026-05-02T13:23:52.606Z</time></trkpt><trkpt lat="46.1492367" lon="13.4300967"><ele>533.6</ele><time>2026-05-02T13:23:54.608Z</time></trkpt><trkpt lat="46.1491667" lon="13.4301567"><ele>529.8</ele><time>2026-05-02T13:23:55.608Z</time></trkpt><trkpt lat="46.1490867" lon="13.4302117"><ele>526.0</ele><time>2026-05-02T13:23:56.605Z</time></trkpt><trkpt lat="46.1490067" lon="13.4302367"><ele>526.0</ele><time>2026-05-02T13:23:57.609Z</time></trkpt><trkpt lat="46.148925" lon="13.4302467"><ele>526.0</ele><time>2026-05-02T13:23:58.607Z</time></trkpt><trkpt lat="46.1488367" lon="13.4302517"><ele>526.0</ele><time>2026-05-02T13:23:59.607Z</time></trkpt><trkpt lat="46.1487483" lon="13.4302617"><ele>526.0</ele><time>2026-05-02T13:24:00.609Z</time></trkpt><trkpt lat="46.1486733" lon="13.4302733"><ele>526.0</ele><time>2026-05-02T13:24:01.603Z</time></trkpt><trkpt lat="46.1486033" lon="13.4303083"><ele>526.0</ele><time>2026-05-02T13:24:02.605Z</time></trkpt><trkpt lat="46.1485467" lon="13.4303617"><ele>526.0</ele><time>2026-05-02T13:24:03.606Z</time></trkpt><trkpt lat="46.1484967" lon="13.43043"><ele>526.0</ele><time>2026-05-02T13:24:04.605Z</time></trkpt><trkpt lat="46.14844" lon="13.4305117"><ele>526.0</ele><time>2026-05-02T13:24:05.602Z</time></trkpt><trkpt lat="46.1483667" lon="13.4305983"><ele>526.0</ele><time>2026-05-02T13:24:06.607Z</time></trkpt><trkpt lat="46.1482817" lon="13.430685"><ele>526.0</ele><time>2026-05-02T13:24:07.604Z</time></trkpt><trkpt lat="46.1481883" lon="13.4307833"><ele>522.0</ele><time>2026-05-02T13:24:08.607Z</time></trkpt><trkpt lat="46.1480933" lon="13.43087"><ele>518.0</ele><time>2026-05-02T13:24:09.607Z</time></trkpt><trkpt lat="46.14801" lon="13.4309617"><ele>514.0</ele><time>2026-05-02T13:24:10.603Z</time></trkpt><trkpt lat="46.1479467" lon="13.431065"><ele>510.0</ele><time>2026-05-02T13:24:11.607Z</time></trkpt><trkpt lat="46.1478767" lon="13.43115"><ele>506.0</ele><time>2026-05-02T13:24:12.608Z</time></trkpt><trkpt lat="46.1478" lon="13.431265"><ele>501.25</ele><time>2026-05-02T13:24:13.607Z</time></trkpt><trkpt lat="46.1477117" lon="13.431395"><ele>496.5</ele><time>2026-05-02T13:24:14.607Z</time></trkpt><trkpt lat="46.1476267" lon="13.431515"><ele>491.75</ele><time>2026-05-02T13:24:15.603Z</time></trkpt><trkpt lat="46.1475383" lon="13.4316267"><ele>487.0</ele><time>2026-05-02T13:24:16.604Z</time></trkpt><trkpt lat="46.14746" lon="13.4317217"><ele>487.00000000000006</ele><time>2026-05-02T13:24:17.606Z</time></trkpt><trkpt lat="46.1473967" lon="13.4318"><ele>487.0</ele><time>2026-05-02T13:24:18.609Z</time></trkpt><trkpt lat="46.147325" lon="13.431865"><ele>487.0</ele><time>2026-05-02T13:24:19.606Z</time></trkpt><trkpt lat="46.14725" lon="13.4319067"><ele>487.0</ele><time>2026-05-02T13:24:20.608Z</time></trkpt><trkpt lat="46.1471567" lon="13.4319117"><ele>487.00000000000006</ele><time>2026-05-02T13:24:21.602Z</time></trkpt><trkpt lat="46.147055" lon="13.4319167"><ele>487.0</ele><time>2026-05-02T13:24:22.608Z</time></trkpt><trkpt lat="46.1469533" lon="13.43193"><ele>485.8</ele><time>2026-05-02T13:24:23.606Z</time></trkpt><trkpt lat="46.1468567" lon="13.4319533"><ele>484.6</ele><time>2026-05-02T13:24:24.603Z</time></trkpt><trkpt lat="46.1467667" lon="13.432"><ele>483.40000000000003</ele><time>2026-05-02T13:24:25.603Z</time></trkpt><trkpt lat="46.1466783" lon="13.4320617"><ele>482.20000000000005</ele><time>2026-05-02T13:24:26.606Z</time></trkpt><trkpt lat="46.1465883" lon="13.432145"><ele>481.0</ele><time>2026-05-02T13:24:27.608Z</time></trkpt><trkpt lat="46.1465033" lon="13.4322483"><ele>481.0</ele><time>2026-05-02T13:24:28.606Z</time></trkpt><trkpt lat="46.1464267" lon="13.43234"><ele>481.0</ele><time>2026-05-02T13:24:29.605Z</time></trkpt><trkpt lat="46.1463533" lon="13.4324183"><ele>481.0</ele><time>2026-05-02T13:24:30.606Z</time></trkpt><trkpt lat="46.1462767" lon="13.4324883"><ele>481.0</ele><time>2026-05-02T13:24:31.607Z</time></trkpt><trkpt lat="46.1461983" lon="13.4325433"><ele>481.0</ele><time>2026-05-02T13:24:32.608Z</time></trkpt><trkpt lat="46.1461067" lon="13.432595"><ele>481.0</ele><time>2026-05-02T13:24:33.606Z</time></trkpt><trkpt lat="46.1460033" lon="13.4326367"><ele>481.0</ele><time>2026-05-02T13:24:34.606Z</time></trkpt><trkpt lat="46.1458933" lon="13.43268"><ele>481.0</ele><time>2026-05-02T13:24:35.605Z</time></trkpt><trkpt lat="46.1457883" lon="13.4327267"><ele>481.0</ele><time>2026-05-02T13:24:36.607Z</time></trkpt><trkpt lat="46.14569" lon="13.43277"><ele>481.0</ele><time>2026-05-02T13:24:37.606Z</time></trkpt><trkpt lat="46.1455917" lon="13.4328033"><ele>481.20000000000005</ele><time>2026-05-02T13:24:38.608Z</time></trkpt><trkpt lat="46.14549" lon="13.43283"><ele>481.40000000000003</ele><time>2026-05-02T13:24:39.606Z</time></trkpt><trkpt lat="46.1453817" lon="13.4328617"><ele>481.6</ele><time>2026-05-02T13:24:40.605Z</time></trkpt><trkpt lat="46.1452667" lon="13.43289"><ele>481.8</ele><time>2026-05-02T13:24:41.606Z</time></trkpt><trkpt lat="46.1451533" lon="13.432915"><ele>482.0</ele><time>2026-05-02T13:24:42.603Z</time></trkpt><trkpt lat="46.14505" lon="13.4329467"><ele>481.99999999999994</ele><time>2026-05-02T13:24:43.607Z</time></trkpt><trkpt lat="46.1449567" lon="13.43297"><ele>482.0</ele><time>2026-05-02T13:24:44.604Z</time></trkpt><trkpt lat="46.14487" lon="13.4329967"><ele>482.0</ele><time>2026-05-02T13:24:45.602Z</time></trkpt><trkpt lat="46.1447917" lon="13.4330283"><ele>482.0</ele><time>2026-05-02T13:24:46.602Z</time></trkpt><trkpt lat="46.1447233" lon="13.4330433"><ele>481.99999999999994</ele><time>2026-05-02T13:24:47.603Z</time></trkpt><trkpt lat="46.1446567" lon="13.4330467"><ele>482.0</ele><time>2026-05-02T13:24:48.604Z</time></trkpt><trkpt lat="46.14459" lon="13.4330433"><ele>479.99999999999994</ele><time>2026-05-02T13:24:49.605Z</time></trkpt><trkpt lat="46.1445233" lon="13.4330117"><ele>478.0</ele><time>2026-05-02T13:24:50.61Z</time></trkpt><trkpt lat="46.144455" lon="13.4329583"><ele>476.0</ele><time>2026-05-02T13:24:51.608Z</time></trkpt><trkpt lat="46.1443917" lon="13.432905"><ele>474.0</ele><time>2026-05-02T13:24:52.605Z</time></trkpt><trkpt lat="46.1443083" lon="13.4327967"><ele>471.99999999999994</ele><time>2026-05-02T13:24:54.607Z</time></trkpt><trkpt lat="46.14429" lon="13.4326433"><ele>470.0</ele><time>2026-05-02T13:24:56.608Z</time></trkpt><trkpt lat="46.144295" lon="13.4325483"><ele>470.0</ele><time>2026-05-02T13:24:57.605Z</time></trkpt><trkpt lat="46.144295" lon="13.4324567"><ele>470.0</ele><time>2026-05-02T13:24:58.603Z</time></trkpt><trkpt lat="46.1442733" lon="13.4323017"><ele>470.0</ele><time>2026-05-02T13:25:00.606Z</time></trkpt><trkpt lat="46.1441767" lon="13.4321633"><ele>470.0</ele><time>2026-05-02T13:25:02.608Z</time></trkpt><trkpt lat="46.1440867" lon="13.4321067"><ele>470.0</ele><time>2026-05-02T13:25:03.605Z</time></trkpt><trkpt lat="46.1439817" lon="13.4320567"><ele>468.2</ele><time>2026-05-02T13:25:04.603Z</time></trkpt><trkpt lat="46.1438783" lon="13.4319883"><ele>466.4</ele><time>2026-05-02T13:25:05.607Z</time></trkpt><trkpt lat="46.1437783" lon="13.431915"><ele>464.6</ele><time>2026-05-02T13:25:06.605Z</time></trkpt><trkpt lat="46.1436917" lon="13.4318517"><ele>462.8</ele><time>2026-05-02T13:25:07.605Z</time></trkpt><trkpt lat="46.143615" lon="13.431795"><ele>461.0</ele><time>2026-05-02T13:25:08.607Z</time></trkpt><trkpt lat="46.1435617" lon="13.4317317"><ele>461.0</ele><time>2026-05-02T13:25:09.607Z</time></trkpt><trkpt lat="46.143515" lon="13.431595"><ele>461.0</ele><time>2026-05-02T13:25:11.605Z</time></trkpt><trkpt lat="46.143545" lon="13.4314683"><ele>461.0</ele><time>2026-05-02T13:25:13.609Z</time></trkpt><trkpt lat="46.1436067" lon="13.4313317"><ele>461.0</ele><time>2026-05-02T13:25:15.604Z</time></trkpt><trkpt lat="46.1436017" lon="13.4312283"><ele>461.0</ele><time>2026-05-02T13:25:17.606Z</time></trkpt><trkpt lat="46.1435167" lon="13.4312"><ele>460.8</ele><time>2026-05-02T13:25:19.605Z</time></trkpt><trkpt lat="46.14342" lon="13.431135"><ele>460.6</ele><time>2026-05-02T13:25:21.598Z</time></trkpt><trkpt lat="46.1433433" lon="13.4310433"><ele>460.4</ele><time>2026-05-02T13:25:23.597Z</time></trkpt><trkpt lat="46.1432367" lon="13.4310067"><ele>460.2</ele><time>2026-05-02T13:25:25.597Z</time></trkpt><trkpt lat="46.1431633" lon="13.4310017"><ele>460.0</ele><time>2026-05-02T13:25:26.598Z</time></trkpt><trkpt lat="46.1430833" lon="13.43098"><ele>459.99999999999994</ele><time>2026-05-02T13:25:27.595Z</time></trkpt><trkpt lat="46.1430033" lon="13.4309483"><ele>460.0</ele><time>2026-05-02T13:25:28.594Z</time></trkpt><trkpt lat="46.1429283" lon="13.430905"><ele>459.99999999999994</ele><time>2026-05-02T13:25:29.594Z</time></trkpt><trkpt lat="46.1428683" lon="13.4308567"><ele>459.99999999999994</ele><time>2026-05-02T13:25:30.596Z</time></trkpt><trkpt lat="46.14282" lon="13.4307933"><ele>460.0</ele><time>2026-05-02T13:25:31.607Z</time></trkpt><trkpt lat="46.1427867" lon="13.4307083"><ele>459.99999999999994</ele><time>2026-05-02T13:25:32.606Z</time></trkpt><trkpt lat="46.1427767" lon="13.4306167"><ele>459.99999999999994</ele><time>2026-05-02T13:25:33.608Z</time></trkpt><trkpt lat="46.142775" lon="13.430525"><ele>460.8</ele><time>2026-05-02T13:25:34.604Z</time></trkpt><trkpt lat="46.142755" lon="13.4303633"><ele>461.6</ele><time>2026-05-02T13:25:36.604Z</time></trkpt><trkpt lat="46.1426967" lon="13.4303033"><ele>462.4</ele><time>2026-05-02T13:25:38.608Z</time></trkpt><trkpt lat="46.14259" lon="13.4303033"><ele>463.2</ele><time>2026-05-02T13:25:40.607Z</time></trkpt><trkpt lat="46.14249" lon="13.43026"><ele>464.0</ele><time>2026-05-02T13:25:42.608Z</time></trkpt><trkpt lat="46.1423767" lon="13.4301283"><ele>464.0</ele><time>2026-05-02T13:25:44.609Z</time></trkpt><trkpt lat="46.1423183" lon="13.4300467"><ele>464.0</ele><time>2026-05-02T13:25:45.608Z</time></trkpt><trkpt lat="46.1422567" lon="13.429945"><ele>464.0</ele><time>2026-05-02T13:25:46.605Z</time></trkpt><trkpt lat="46.142195" lon="13.4298383"><ele>464.0</ele><time>2026-05-02T13:25:47.606Z</time></trkpt><trkpt lat="46.1421383" lon="13.4297317"><ele>464.0</ele><time>2026-05-02T13:25:48.605Z</time></trkpt><trkpt lat="46.1420883" lon="13.4296183"><ele>465.3333333333333</ele><time>2026-05-02T13:25:49.604Z</time></trkpt><trkpt lat="46.14205" lon="13.42949"><ele>466.66666666666663</ele><time>2026-05-02T13:25:50.609Z</time></trkpt><trkpt lat="46.14202" lon="13.42937"><ele>468.0</ele><time>2026-05-02T13:25:51.601Z</time></trkpt><trkpt lat="46.1420133" lon="13.4292667"><ele>469.33333333333337</ele><time>2026-05-02T13:25:52.607Z</time></trkpt><trkpt lat="46.1420183" lon="13.4291667"><ele>470.6666666666667</ele><time>2026-05-02T13:25:53.607Z</time></trkpt><trkpt lat="46.1420283" lon="13.42904"><ele>472.0</ele><time>2026-05-02T13:25:54.606Z</time></trkpt><trkpt lat="46.1420383" lon="13.4289167"><ele>473.00000000000006</ele><time>2026-05-02T13:25:55.604Z</time></trkpt><trkpt lat="46.1420317" lon="13.4287783"><ele>474.0</ele><time>2026-05-02T13:25:56.603Z</time></trkpt><trkpt lat="46.142005" lon="13.4286533"><ele>475.0</ele><time>2026-05-02T13:25:57.604Z</time></trkpt><trkpt lat="46.1419733" lon="13.4285367"><ele>476.0</ele><time>2026-05-02T13:25:58.604Z</time></trkpt><trkpt lat="46.14194" lon="13.4284283"><ele>477.00000000000006</ele><time>2026-05-02T13:25:59.603Z</time></trkpt><trkpt lat="46.14191" lon="13.4283433"><ele>478.0</ele><time>2026-05-02T13:26:00.603Z</time></trkpt><trkpt lat="46.1418367" lon="13.4281833"><ele>478.00000000000006</ele><time>2026-05-02T13:26:02.607Z</time></trkpt><trkpt lat="46.1417817" lon="13.4281133"><ele>478.0</ele><time>2026-05-02T13:26:03.602Z</time></trkpt><trkpt lat="46.1417333" lon="13.4280367"><ele>478.0</ele><time>2026-05-02T13:26:04.603Z</time></trkpt><trkpt lat="46.1417" lon="13.42795"><ele>478.0</ele><time>2026-05-02T13:26:05.605Z</time></trkpt><trkpt lat="46.1416817" lon="13.427845"><ele>478.00000000000006</ele><time>2026-05-02T13:26:06.607Z</time></trkpt><trkpt lat="46.1416667" lon="13.427715"><ele>478.0</ele><time>2026-05-02T13:26:07.603Z</time></trkpt><trkpt lat="46.1416567" lon="13.4276"><ele>479.79999999999995</ele><time>2026-05-02T13:26:08.606Z</time></trkpt><trkpt lat="46.1416267" lon="13.427435"><ele>481.59999999999997</ele><time>2026-05-02T13:26:10.607Z</time></trkpt><trkpt lat="46.141545" lon="13.4273433"><ele>483.40000000000003</ele><time>2026-05-02T13:26:12.607Z</time></trkpt><trkpt lat="46.1414583" lon="13.427345"><ele>485.20000000000005</ele><time>2026-05-02T13:26:13.602Z</time></trkpt><trkpt lat="46.1413633" lon="13.427355"><ele>487.0</ele><time>2026-05-02T13:26:14.609Z</time></trkpt><trkpt lat="46.1412667" lon="13.4273733"><ele>487.00000000000006</ele><time>2026-05-02T13:26:15.609Z</time></trkpt><trkpt lat="46.14116" lon="13.42742"><ele>487.0</ele><time>2026-05-02T13:26:16.602Z</time></trkpt><trkpt lat="46.14107" lon="13.4274833"><ele>487.0</ele><time>2026-05-02T13:26:17.606Z</time></trkpt><trkpt lat="46.14099" lon="13.4275433"><ele>487.0</ele><time>2026-05-02T13:26:18.605Z</time></trkpt><trkpt lat="46.1409217" lon="13.427585"><ele>487.00000000000006</ele><time>2026-05-02T13:26:19.607Z</time></trkpt><trkpt lat="46.1408517" lon="13.42761"><ele>487.0</ele><time>2026-05-02T13:26:20.606Z</time></trkpt><trkpt lat="46.1407767" lon="13.4276183"><ele>485.33333333333337</ele><time>2026-05-02T13:26:21.603Z</time></trkpt><trkpt lat="46.140695" lon="13.4276"><ele>483.6666666666667</ele><time>2026-05-02T13:26:22.606Z</time></trkpt><trkpt lat="46.1406183" lon="13.4275633"><ele>482.0</ele><time>2026-05-02T13:26:23.603Z</time></trkpt><trkpt lat="46.1405417" lon="13.427495"><ele>480.33333333333337</ele><time>2026-05-02T13:26:24.607Z</time></trkpt><trkpt lat="46.140475" lon="13.4274117"><ele>478.6666666666667</ele><time>2026-05-02T13:26:25.602Z</time></trkpt><trkpt lat="46.14043" lon="13.4273233"><ele>477.0</ele><time>2026-05-02T13:26:26.607Z</time></trkpt><trkpt lat="46.1404033" lon="13.4272267"><ele>477.1666666666667</ele><time>2026-05-02T13:26:27.607Z</time></trkpt><trkpt lat="46.1403817" lon="13.4271217"><ele>477.33333333333337</ele><time>2026-05-02T13:26:28.606Z</time></trkpt><trkpt lat="46.1403583" lon="13.4270017"><ele>477.5</ele><time>2026-05-02T13:26:29.603Z</time></trkpt><trkpt lat="46.1403333" lon="13.4268583"><ele>477.6666666666667</ele><time>2026-05-02T13:26:30.603Z</time></trkpt><trkpt lat="46.1403117" lon="13.4267283"><ele>477.83333333333337</ele><time>2026-05-02T13:26:31.602Z</time></trkpt><trkpt lat="46.1402983" lon="13.4266217"><ele>478.0</ele><time>2026-05-02T13:26:32.606Z</time></trkpt><trkpt lat="46.1402983" lon="13.426525"><ele>478.00000000000006</ele><time>2026-05-02T13:26:33.606Z</time></trkpt><trkpt lat="46.1403067" lon="13.4264267"><ele>478.0</ele><time>2026-05-02T13:26:34.602Z</time></trkpt><trkpt lat="46.1403317" lon="13.4263367"><ele>478.0</ele><time>2026-05-02T13:26:35.605Z</time></trkpt><trkpt lat="46.1403717" lon="13.4262567"><ele>478.0</ele><time>2026-05-02T13:26:36.604Z</time></trkpt><trkpt lat="46.1404233" lon="13.4262017"><ele>478.00000000000006</ele><time>2026-05-02T13:26:37.607Z</time></trkpt><trkpt lat="46.1405" lon="13.4260833"><ele>478.0</ele><time>2026-05-02T13:26:39.605Z</time></trkpt><trkpt lat="46.140505" lon="13.4259533"><ele>479.59999999999997</ele><time>2026-05-02T13:26:41.603Z</time></trkpt><trkpt lat="46.1404233" lon="13.4258417"><ele>481.19999999999993</ele><time>2026-05-02T13:26:43.603Z</time></trkpt><trkpt lat="46.1403283" lon="13.4258183"><ele>482.8</ele><time>2026-05-02T13:26:44.608Z</time></trkpt><trkpt lat="46.1402083" lon="13.425805"><ele>484.4</ele><time>2026-05-02T13:26:45.606Z</time></trkpt><trkpt lat="46.1401117" lon="13.4257683"><ele>486.0</ele><time>2026-05-02T13:26:46.601Z</time></trkpt><trkpt lat="46.1400283" lon="13.4257333"><ele>486.0</ele><time>2026-05-02T13:26:47.602Z</time></trkpt><trkpt lat="46.1399583" lon="13.42568"><ele>486.0</ele><time>2026-05-02T13:26:48.603Z</time></trkpt><trkpt lat="46.139885" lon="13.4256083"><ele>486.0</ele><time>2026-05-02T13:26:49.606Z</time></trkpt><trkpt lat="46.1398117" lon="13.4255217"><ele>486.0</ele><time>2026-05-02T13:26:50.61Z</time></trkpt><trkpt lat="46.1397317" lon="13.42543"><ele>486.0</ele><time>2026-05-02T13:26:51.605Z</time></trkpt><trkpt lat="46.1396617" lon="13.42534"><ele>484.1428571428571</ele><time>2026-05-02T13:26:52.603Z</time></trkpt><trkpt lat="46.1396033" lon="13.42525"><ele>482.28571428571433</ele><time>2026-05-02T13:26:53.603Z</time></trkpt><trkpt lat="46.13956" lon="13.4251567"><ele>480.42857142857144</ele><time>2026-05-02T13:26:54.603Z</time></trkpt><trkpt lat="46.1395283" lon="13.4250633"><ele>478.57142857142856</ele><time>2026-05-02T13:26:55.606Z</time></trkpt><trkpt lat="46.1395117" lon="13.424965"><ele>476.71428571428567</ele><time>2026-05-02T13:26:56.606Z</time></trkpt><trkpt lat="46.1395117" lon="13.4248667"><ele>474.8571428571429</ele><time>2026-05-02T13:26:57.608Z</time></trkpt><trkpt lat="46.1395283" lon="13.424775"><ele>473.0</ele><time>2026-05-02T13:26:58.606Z</time></trkpt><trkpt lat="46.139555" lon="13.4246917"><ele>473.8333333333333</ele><time>2026-05-02T13:26:59.602Z</time></trkpt><trkpt lat="46.13959" lon="13.4246083"><ele>474.66666666666663</ele><time>2026-05-02T13:27:00.603Z</time></trkpt><trkpt lat="46.1396217" lon="13.424525"><ele>475.5</ele><time>2026-05-02T13:27:01.604Z</time></trkpt><trkpt lat="46.1396383" lon="13.4244367"><ele>476.33333333333337</ele><time>2026-05-02T13:27:02.603Z</time></trkpt><trkpt lat="46.139605" lon="13.424275"><ele>477.1666666666667</ele><time>2026-05-02T13:27:04.603Z</time></trkpt><trkpt lat="46.1395583" lon="13.4241717"><ele>478.0</ele><time>2026-05-02T13:27:05.599Z</time></trkpt><trkpt lat="46.1395167" lon="13.4240767"><ele>478.00000000000006</ele><time>2026-05-02T13:27:06.602Z</time></trkpt><trkpt lat="46.13949" lon="13.4239833"><ele>478.0</ele><time>2026-05-02T13:27:07.605Z</time></trkpt><trkpt lat="46.139475" lon="13.423885"><ele>478.0</ele><time>2026-05-02T13:27:08.608Z</time></trkpt><trkpt lat="46.1394683" lon="13.4237733"><ele>478.0</ele><time>2026-05-02T13:27:09.605Z</time></trkpt><trkpt lat="46.1394583" lon="13.4236483"><ele>478.00000000000006</ele><time>2026-05-02T13:27:10.602Z</time></trkpt><trkpt lat="46.1394417" lon="13.42351"><ele>478.0</ele><time>2026-05-02T13:27:11.602Z</time></trkpt><trkpt lat="46.1394133" lon="13.4233583"><ele>478.83333333333337</ele><time>2026-05-02T13:27:12.602Z</time></trkpt><trkpt lat="46.1393783" lon="13.4232283"><ele>479.6666666666667</ele><time>2026-05-02T13:27:13.602Z</time></trkpt><trkpt lat="46.1393517" lon="13.4231217"><ele>480.5</ele><time>2026-05-02T13:27:14.603Z</time></trkpt><trkpt lat="46.13934" lon="13.4230083"><ele>481.33333333333337</ele><time>2026-05-02T13:27:15.602Z</time></trkpt><trkpt lat="46.1393333" lon="13.42289"><ele>482.1666666666667</ele><time>2026-05-02T13:27:16.604Z</time></trkpt><trkpt lat="46.13932" lon="13.42278"><ele>483.0</ele><time>2026-05-02T13:27:17.603Z</time></trkpt><trkpt lat="46.1392933" lon="13.4226917"><ele>484.8333333333333</ele><time>2026-05-02T13:27:18.602Z</time></trkpt><trkpt lat="46.139255" lon="13.422615"><ele>486.66666666666663</ele><time>2026-05-02T13:27:19.605Z</time></trkpt><trkpt lat="46.1392083" lon="13.4225383"><ele>488.5</ele><time>2026-05-02T13:27:20.607Z</time></trkpt><trkpt lat="46.139155" lon="13.422465"><ele>490.3333333333333</ele><time>2026-05-02T13:27:21.603Z</time></trkpt><trkpt lat="46.1390967" lon="13.422405"><ele>492.16666666666663</ele><time>2026-05-02T13:27:22.604Z</time></trkpt><trkpt lat="46.1390367" lon="13.42235"><ele>494.0</ele><time>2026-05-02T13:27:23.607Z</time></trkpt><trkpt lat="46.1389583" lon="13.4222317"><ele>495.6</ele><time>2026-05-02T13:27:25.604Z</time></trkpt><trkpt lat="46.138905" lon="13.422085"><ele>497.2</ele><time>2026-05-02T13:27:27.604Z</time></trkpt><trkpt lat="46.1388283" lon="13.4219733"><ele>498.80000000000007</ele><time>2026-05-02T13:27:29.605Z</time></trkpt><trkpt lat="46.1387067" lon="13.4219417"><ele>500.40000000000003</ele><time>2026-05-02T13:27:31.603Z</time></trkpt><trkpt lat="46.1386283" lon="13.4219533"><ele>502.0</ele><time>2026-05-02T13:27:32.606Z</time></trkpt><trkpt lat="46.13854" lon="13.4219817"><ele>502.00000000000006</ele><time>2026-05-02T13:27:33.603Z</time></trkpt><trkpt lat="46.138445" lon="13.4220117"><ele>502.0</ele><time>2026-05-02T13:27:34.603Z</time></trkpt><trkpt lat="46.1383583" lon="13.422035"><ele>502.0</ele><time>2026-05-02T13:27:35.606Z</time></trkpt><trkpt lat="46.1382833" lon="13.4220433"><ele>502.0</ele><time>2026-05-02T13:27:36.608Z</time></trkpt><trkpt lat="46.1382017" lon="13.42203"><ele>502.00000000000006</ele><time>2026-05-02T13:27:37.605Z</time></trkpt><trkpt lat="46.1381117" lon="13.4220133"><ele>502.0</ele><time>2026-05-02T13:27:38.606Z</time></trkpt><trkpt lat="46.1380117" lon="13.4220083"><ele>499.20000000000005</ele><time>2026-05-02T13:27:39.604Z</time></trkpt><trkpt lat="46.1379033" lon="13.4220267"><ele>496.40000000000003</ele><time>2026-05-02T13:27:40.604Z</time></trkpt><trkpt lat="46.137795" lon="13.4220483"><ele>493.59999999999997</ele><time>2026-05-02T13:27:41.603Z</time></trkpt><trkpt lat="46.137695" lon="13.4220483"><ele>490.79999999999995</ele><time>2026-05-02T13:27:42.601Z</time></trkpt><trkpt lat="46.1376067" lon="13.42205"><ele>488.0</ele><time>2026-05-02T13:27:43.605Z</time></trkpt><trkpt lat="46.13753" lon="13.422045"><ele>488.0</ele><time>2026-05-02T13:27:44.603Z</time></trkpt><trkpt lat="46.137435" lon="13.4219767"><ele>487.99999999999994</ele><time>2026-05-02T13:27:46.603Z</time></trkpt><trkpt lat="46.1374167" lon="13.421855"><ele>487.99999999999994</ele><time>2026-05-02T13:27:48.604Z</time></trkpt><trkpt lat="46.137435" lon="13.4216733"><ele>488.0</ele><time>2026-05-02T13:27:50.612Z</time></trkpt><trkpt lat="46.1374317" lon="13.4215817"><ele>488.0</ele><time>2026-05-02T13:27:51.608Z</time></trkpt><trkpt lat="46.13738" lon="13.42144"><ele>484.49999999999994</ele><time>2026-05-02T13:27:53.605Z</time></trkpt><trkpt lat="46.137325" lon="13.4213733"><ele>481.0</ele><time>2026-05-02T13:27:54.603Z</time></trkpt><trkpt lat="46.137265" lon="13.42129"><ele>477.5</ele><time>2026-05-02T13:27:55.606Z</time></trkpt><trkpt lat="46.13722" lon="13.421205"><ele>474.0</ele><time>2026-05-02T13:27:56.608Z</time></trkpt><trkpt lat="46.13719" lon="13.421125"><ele>470.49999999999994</ele><time>2026-05-02T13:27:57.607Z</time></trkpt><trkpt lat="46.1371733" lon="13.420945"><ele>467.0</ele><time>2026-05-02T13:27:59.606Z</time></trkpt><trkpt lat="46.13718" lon="13.4208283"><ele>467.0</ele><time>2026-05-02T13:28:00.603Z</time></trkpt><trkpt lat="46.1371883" lon="13.4207067"><ele>467.00000000000006</ele><time>2026-05-02T13:28:01.607Z</time></trkpt><trkpt lat="46.1371933" lon="13.420595"><ele>467.00000000000006</ele><time>2026-05-02T13:28:02.606Z</time></trkpt><trkpt lat="46.1371967" lon="13.4205"><ele>467.0</ele><time>2026-05-02T13:28:03.603Z</time></trkpt><trkpt lat="46.1371817" lon="13.4203367"><ele>467.0</ele><time>2026-05-02T13:28:05.603Z</time></trkpt><trkpt lat="46.13713" lon="13.4201917"><ele>470.6</ele><time>2026-05-02T13:28:07.606Z</time></trkpt><trkpt lat="46.137005" lon="13.4201183"><ele>474.20000000000005</ele><time>2026-05-02T13:28:09.602Z</time></trkpt><trkpt lat="46.1369133" lon="13.4200767"><ele>477.8</ele><time>2026-05-02T13:28:10.603Z</time></trkpt><trkpt lat="46.1368167" lon="13.420025"><ele>481.4</ele><time>2026-05-02T13:28:11.601Z</time></trkpt><trkpt lat="46.1367217" lon="13.41997"><ele>485.0</ele><time>2026-05-02T13:28:12.603Z</time></trkpt><trkpt lat="46.136625" lon="13.4199133"><ele>484.2</ele><time>2026-05-02T13:28:13.603Z</time></trkpt><trkpt lat="46.1365367" lon="13.4198467"><ele>483.4</ele><time>2026-05-02T13:28:14.604Z</time></trkpt><trkpt lat="46.1364533" lon="13.4197767"><ele>482.6</ele><time>2026-05-02T13:28:15.601Z</time></trkpt><trkpt lat="46.1363883" lon="13.4197133"><ele>481.8</ele><time>2026-05-02T13:28:16.602Z</time></trkpt><trkpt lat="46.13631" lon="13.41961"><ele>481.0</ele><time>2026-05-02T13:28:18.605Z</time></trkpt><trkpt lat="46.13628" lon="13.4194583"><ele>486.00000000000006</ele><time>2026-05-02T13:28:20.604Z</time></trkpt><trkpt lat="46.1362533" lon="13.4193167"><ele>491.0</ele><time>2026-05-02T13:28:22.607Z</time></trkpt><trkpt lat="46.1361933" lon="13.4192233"><ele>496.0</ele><time>2026-05-02T13:28:24.607Z</time></trkpt><trkpt lat="46.13613" lon="13.4192333"><ele>501.0</ele><time>2026-05-02T13:28:26.608Z</time></trkpt><trkpt lat="46.1360933" lon="13.4193833"><ele>506.00000000000006</ele><time>2026-05-02T13:28:28.604Z</time></trkpt><trkpt lat="46.136075" lon="13.4194933"><ele>511.0</ele><time>2026-05-02T13:28:29.603Z</time></trkpt><trkpt lat="46.1360583" lon="13.4196033"><ele>507.33333333333337</ele><time>2026-05-02T13:28:30.606Z</time></trkpt><trkpt lat="46.136025" lon="13.4197083"><ele>503.6666666666667</ele><time>2026-05-02T13:28:31.607Z</time></trkpt><trkpt lat="46.1359783" lon="13.4197983"><ele>500.0</ele><time>2026-05-02T13:28:32.604Z</time></trkpt><trkpt lat="46.1359233" lon="13.4198767"><ele>496.33333333333337</ele><time>2026-05-02T13:28:33.607Z</time></trkpt><trkpt lat="46.135865" lon="13.4199317"><ele>492.6666666666667</ele><time>2026-05-02T13:28:34.602Z</time></trkpt><trkpt lat="46.13575" lon="13.4199717"><ele>489.0</ele><time>2026-05-02T13:28:36.604Z</time></trkpt><trkpt lat="46.1356867" lon="13.41997"><ele>489.0</ele><time>2026-05-02T13:28:37.603Z</time></trkpt><trkpt lat="46.1356183" lon="13.4199583"><ele>489.00000000000006</ele><time>2026-05-02T13:28:38.607Z</time></trkpt><trkpt lat="46.1355517" lon="13.4199517"><ele>489.0</ele><time>2026-05-02T13:28:39.604Z</time></trkpt><trkpt lat="46.135485" lon="13.41996"><ele>489.0</ele><time>2026-05-02T13:28:40.605Z</time></trkpt><trkpt lat="46.135415" lon="13.41998"><ele>489.00000000000006</ele><time>2026-05-02T13:28:41.603Z</time></trkpt><trkpt lat="46.13534" lon="13.42003"><ele>489.0</ele><time>2026-05-02T13:28:42.608Z</time></trkpt><trkpt lat="46.1352683" lon="13.4200733"><ele>489.0</ele><time>2026-05-02T13:28:43.603Z</time></trkpt><trkpt lat="46.135195" lon="13.420125"><ele>489.0</ele><time>2026-05-02T13:28:44.605Z</time></trkpt><trkpt lat="46.1351117" lon="13.42019"><ele>489.0</ele><time>2026-05-02T13:28:45.604Z</time></trkpt><trkpt lat="46.135035" lon="13.4202683"><ele>489.0</ele><time>2026-05-02T13:28:46.606Z</time></trkpt><trkpt lat="46.1349683" lon="13.4203567"><ele>489.0</ele><time>2026-05-02T13:28:47.603Z</time></trkpt><trkpt lat="46.1348967" lon="13.4204333"><ele>489.0</ele><time>2026-05-02T13:28:48.602Z</time></trkpt><trkpt lat="46.134825" lon="13.4205183"><ele>485.1666666666667</ele><time>2026-05-02T13:28:49.605Z</time></trkpt><trkpt lat="46.1347617" lon="13.4206"><ele>481.33333333333337</ele><time>2026-05-02T13:28:50.606Z</time></trkpt><trkpt lat="46.1346967" lon="13.42068"><ele>477.5</ele><time>2026-05-02T13:28:51.604Z</time></trkpt><trkpt lat="46.13464" lon="13.4207533"><ele>473.6666666666667</ele><time>2026-05-02T13:28:52.603Z</time></trkpt><trkpt lat="46.1345817" lon="13.4208117"><ele>469.83333333333337</ele><time>2026-05-02T13:28:53.605Z</time></trkpt><trkpt lat="46.134515" lon="13.4208567"><ele>466.0</ele><time>2026-05-02T13:28:54.606Z</time></trkpt><trkpt lat="46.1344383" lon="13.42089"><ele>466.0</ele><time>2026-05-02T13:28:55.607Z</time></trkpt><trkpt lat="46.1343517" lon="13.4209233"><ele>466.0</ele><time>2026-05-02T13:28:56.611Z</time></trkpt><trkpt lat="46.1342633" lon="13.420975"><ele>466.0</ele><time>2026-05-02T13:28:57.604Z</time></trkpt><trkpt lat="46.134175" lon="13.4210467"><ele>466.0</ele><time>2026-05-02T13:28:58.609Z</time></trkpt><trkpt lat="46.1340883" lon="13.4211117"><ele>466.0</ele><time>2026-05-02T13:28:59.605Z</time></trkpt><trkpt lat="46.134005" lon="13.4211833"><ele>463.50000000000006</ele><time>2026-05-02T13:29:00.603Z</time></trkpt><trkpt lat="46.1339267" lon="13.4212533"><ele>461.0</ele><time>2026-05-02T13:29:01.606Z</time></trkpt><trkpt lat="46.13385" lon="13.42132"><ele>458.5</ele><time>2026-05-02T13:29:02.605Z</time></trkpt><trkpt lat="46.1337833" lon="13.4213883"><ele>456.0</ele><time>2026-05-02T13:29:03.608Z</time></trkpt><trkpt lat="46.1337217" lon="13.4214583"><ele>453.50000000000006</ele><time>2026-05-02T13:29:04.603Z</time></trkpt><trkpt lat="46.1336667" lon="13.42152"><ele>451.0</ele><time>2026-05-02T13:29:05.608Z</time></trkpt><trkpt lat="46.1336067" lon="13.42157"><ele>449.1666666666667</ele><time>2026-05-02T13:29:06.603Z</time></trkpt><trkpt lat="46.1335483" lon="13.4216133"><ele>447.33333333333337</ele><time>2026-05-02T13:29:07.606Z</time></trkpt><trkpt lat="46.1334833" lon="13.42164"><ele>445.5</ele><time>2026-05-02T13:29:08.607Z</time></trkpt><trkpt lat="46.133415" lon="13.42166"><ele>443.66666666666663</ele><time>2026-05-02T13:29:09.602Z</time></trkpt><trkpt lat="46.1333467" lon="13.4216683"><ele>441.8333333333333</ele><time>2026-05-02T13:29:10.603Z</time></trkpt><trkpt lat="46.1332317" lon="13.4216267"><ele>440.0</ele><time>2026-05-02T13:29:12.604Z</time></trkpt><trkpt lat="46.1331633" lon="13.4214983"><ele>434.99999999999994</ele><time>2026-05-02T13:29:14.604Z</time></trkpt><trkpt lat="46.1331467" lon="13.4214067"><ele>430.0</ele><time>2026-05-02T13:29:15.606Z</time></trkpt><trkpt lat="46.1331383" lon="13.4212883"><ele>425.0</ele><time>2026-05-02T13:29:16.604Z</time></trkpt><trkpt lat="46.1331333" lon="13.4211533"><ele>420.0</ele><time>2026-05-02T13:29:17.604Z</time></trkpt><trkpt lat="46.13313" lon="13.4210117"><ele>414.99999999999994</ele><time>2026-05-02T13:29:18.608Z</time></trkpt><trkpt lat="46.133125" lon="13.4208817"><ele>410.0</ele><time>2026-05-02T13:29:19.603Z</time></trkpt><trkpt lat="46.133115" lon="13.4207733"><ele>409.99999999999994</ele><time>2026-05-02T13:29:20.608Z</time></trkpt><trkpt lat="46.1330933" lon="13.4206833"><ele>410.0</ele><time>2026-05-02T13:29:21.604Z</time></trkpt><trkpt lat="46.13302" lon="13.420555"><ele>410.0</ele><time>2026-05-02T13:29:23.606Z</time></trkpt><trkpt lat="46.132915" lon="13.4205167"><ele>410.0</ele><time>2026-05-02T13:29:25.605Z</time></trkpt><trkpt lat="46.13285" lon="13.4205467"><ele>409.99999999999994</ele><time>2026-05-02T13:29:26.607Z</time></trkpt><trkpt lat="46.1327917" lon="13.4205933"><ele>410.0</ele><time>2026-05-02T13:29:27.607Z</time></trkpt><trkpt lat="46.1327367" lon="13.4206383"><ele>410.0</ele><time>2026-05-02T13:29:28.606Z</time></trkpt><trkpt lat="46.1326267" lon="13.42067"><ele>410.0</ele><time>2026-05-02T13:29:30.606Z</time></trkpt><trkpt lat="46.132535" lon="13.420585"><ele>410.0</ele><time>2026-05-02T13:29:32.608Z</time></trkpt><trkpt lat="46.1325017" lon="13.420505"><ele>410.0</ele><time>2026-05-02T13:29:33.604Z</time></trkpt><trkpt lat="46.1324667" lon="13.4204267"><ele>410.0</ele><time>2026-05-02T13:29:34.603Z</time></trkpt><trkpt lat="46.1324283" lon="13.4202683"><ele>409.4</ele><time>2026-05-02T13:29:36.602Z</time></trkpt><trkpt lat="46.132415" lon="13.4200783"><ele>408.8</ele><time>2026-05-02T13:29:38.604Z</time></trkpt><trkpt lat="46.13241" lon="13.41996"><ele>408.20000000000005</ele><time>2026-05-02T13:29:39.604Z</time></trkpt><trkpt lat="46.132405" lon="13.419845"><ele>407.6</ele><time>2026-05-02T13:29:40.605Z</time></trkpt><trkpt lat="46.1324" lon="13.4197267"><ele>407.0</ele><time>2026-05-02T13:29:41.602Z</time></trkpt><trkpt lat="46.1323983" lon="13.4196017"><ele>407.0</ele><time>2026-05-02T13:29:42.603Z</time></trkpt><trkpt lat="46.132405" lon="13.41947"><ele>407.0</ele><time>2026-05-02T13:29:43.605Z</time></trkpt><trkpt lat="46.1324083" lon="13.4193367"><ele>407.0</ele><time>2026-05-02T13:29:44.608Z</time></trkpt><trkpt lat="46.1324033" lon="13.4191983"><ele>407.0</ele><time>2026-05-02T13:29:45.607Z</time></trkpt><trkpt lat="46.1323917" lon="13.4190483"><ele>407.0</ele><time>2026-05-02T13:29:46.606Z</time></trkpt><trkpt lat="46.1323767" lon="13.4189"><ele>396.6</ele><time>2026-05-02T13:29:47.606Z</time></trkpt><trkpt lat="46.1323583" lon="13.4187583"><ele>386.20000000000005</ele><time>2026-05-02T13:29:48.605Z</time></trkpt><trkpt lat="46.1323383" lon="13.418625"><ele>375.8</ele><time>2026-05-02T13:29:49.605Z</time></trkpt><trkpt lat="46.132315" lon="13.418485"><ele>365.4</ele><time>2026-05-02T13:29:50.607Z</time></trkpt><trkpt lat="46.1322883" lon="13.41833"><ele>355.0</ele><time>2026-05-02T13:29:51.604Z</time></trkpt><trkpt lat="46.1322633" lon="13.4181767"><ele>355.0</ele><time>2026-05-02T13:29:52.603Z</time></trkpt><trkpt lat="46.13224" lon="13.418025"><ele>355.0</ele><time>2026-05-02T13:29:53.606Z</time></trkpt><trkpt lat="46.1322183" lon="13.4179017"><ele>355.0</ele><time>2026-05-02T13:29:54.604Z</time></trkpt><trkpt lat="46.1322017" lon="13.4177883"><ele>355.0</ele><time>2026-05-02T13:29:55.604Z</time></trkpt><trkpt lat="46.132175" lon="13.4176667"><ele>355.0</ele><time>2026-05-02T13:29:56.609Z</time></trkpt><trkpt lat="46.1321483" lon="13.41754"><ele>357.2</ele><time>2026-05-02T13:29:57.608Z</time></trkpt><trkpt lat="46.13213" lon="13.41743"><ele>359.4</ele><time>2026-05-02T13:29:58.609Z</time></trkpt><trkpt lat="46.1321083" lon="13.4173383"><ele>361.6</ele><time>2026-05-02T13:29:59.608Z</time></trkpt><trkpt lat="46.1320633" lon="13.4171867"><ele>363.8</ele><time>2026-05-02T13:30:01.605Z</time></trkpt><trkpt lat="46.13199" lon="13.4171083"><ele>366.0</ele><time>2026-05-02T13:30:03.606Z</time></trkpt><trkpt lat="46.1318833" lon="13.4171383"><ele>366.0</ele><time>2026-05-02T13:30:05.607Z</time></trkpt><trkpt lat="46.1317917" lon="13.4171883"><ele>366.0</ele><time>2026-05-02T13:30:06.607Z</time></trkpt><trkpt lat="46.1316783" lon="13.41725"><ele>366.0</ele><time>2026-05-02T13:30:07.606Z</time></trkpt><trkpt lat="46.1315583" lon="13.4173167"><ele>366.0</ele><time>2026-05-02T13:30:08.61Z</time></trkpt><trkpt lat="46.1314433" lon="13.41738"><ele>362.0</ele><time>2026-05-02T13:30:09.606Z</time></trkpt><trkpt lat="46.1313283" lon="13.4174483"><ele>358.0</ele><time>2026-05-02T13:30:10.602Z</time></trkpt><trkpt lat="46.131215" lon="13.417525"><ele>354.0</ele><time>2026-05-02T13:30:11.606Z</time></trkpt><trkpt lat="46.131105" lon="13.4176017"><ele>350.0</ele><time>2026-05-02T13:30:12.603Z</time></trkpt><trkpt lat="46.1310017" lon="13.4176783"><ele>350.0</ele><time>2026-05-02T13:30:13.603Z</time></trkpt><trkpt lat="46.1309083" lon="13.4177433"><ele>350.0</ele><time>2026-05-02T13:30:14.606Z</time></trkpt><trkpt lat="46.130825" lon="13.417785"><ele>350.0</ele><time>2026-05-02T13:30:15.603Z</time></trkpt><trkpt lat="46.1307517" lon="13.4178233"><ele>350.0</ele><time>2026-05-02T13:30:16.602Z</time></trkpt><trkpt lat="46.1306483" lon="13.417855"><ele>350.0</ele><time>2026-05-02T13:30:18.603Z</time></trkpt><trkpt lat="46.1305883" lon="13.4177733"><ele>344.6666666666667</ele><time>2026-05-02T13:30:20.605Z</time></trkpt><trkpt lat="46.1305817" lon="13.4175933"><ele>339.33333333333337</ele><time>2026-05-02T13:30:22.602Z</time></trkpt><trkpt lat="46.13058" lon="13.4174983"><ele>334.0</ele><time>2026-05-02T13:30:23.604Z</time></trkpt><trkpt lat="46.13057" lon="13.4174"><ele>328.6666666666667</ele><time>2026-05-02T13:30:24.603Z</time></trkpt><trkpt lat="46.1305433" lon="13.41731"><ele>323.3333333333333</ele><time>2026-05-02T13:30:25.605Z</time></trkpt><trkpt lat="46.1305017" lon="13.41723"><ele>318.0</ele><time>2026-05-02T13:30:26.607Z</time></trkpt><trkpt lat="46.1304483" lon="13.4171567"><ele>319.8</ele><time>2026-05-02T13:30:27.602Z</time></trkpt><trkpt lat="46.1303917" lon="13.417095"><ele>321.6</ele><time>2026-05-02T13:30:28.603Z</time></trkpt><trkpt lat="46.130335" lon="13.4170417"><ele>323.40000000000003</ele><time>2026-05-02T13:30:29.607Z</time></trkpt><trkpt lat="46.13021" lon="13.4170333"><ele>325.20000000000005</ele><time>2026-05-02T13:30:31.603Z</time></trkpt><trkpt lat="46.1301417" lon="13.4170567"><ele>327.0</ele><time>2026-05-02T13:30:32.608Z</time></trkpt><trkpt lat="46.1300317" lon="13.4171317"><ele>325.20000000000005</ele><time>2026-05-02T13:30:34.603Z</time></trkpt><trkpt lat="46.1299317" lon="13.4171567"><ele>323.40000000000003</ele><time>2026-05-02T13:30:36.607Z</time></trkpt><trkpt lat="46.1298617" lon="13.4170617"><ele>321.6</ele><time>2026-05-02T13:30:38.606Z</time></trkpt><trkpt lat="46.1298217" lon="13.4168933"><ele>319.8</ele><time>2026-05-02T13:30:40.607Z</time></trkpt><trkpt lat="46.1298117" lon="13.4167933"><ele>318.0</ele><time>2026-05-02T13:30:41.604Z</time></trkpt><trkpt lat="46.12981" lon="13.416695"><ele>313.8</ele><time>2026-05-02T13:30:42.603Z</time></trkpt><trkpt lat="46.1298267" lon="13.4165217"><ele>309.6</ele><time>2026-05-02T13:30:44.606Z</time></trkpt><trkpt lat="46.1298367" lon="13.41643"><ele>305.4</ele><time>2026-05-02T13:30:45.602Z</time></trkpt><trkpt lat="46.1298417" lon="13.4163317"><ele>301.2</ele><time>2026-05-02T13:30:46.603Z</time></trkpt><trkpt lat="46.1298417" lon="13.416235"><ele>297.0</ele><time>2026-05-02T13:30:47.594Z</time></trkpt><trkpt lat="46.12982" lon="13.4160417"><ele>297.0</ele><time>2026-05-02T13:30:49.595Z</time></trkpt><trkpt lat="46.1297967" lon="13.4159233"><ele>297.0</ele><time>2026-05-02T13:30:50.595Z</time></trkpt><trkpt lat="46.129765" lon="13.4158067"><ele>297.0</ele><time>2026-05-02T13:30:51.596Z</time></trkpt><trkpt lat="46.1297367" lon="13.4156983"><ele>297.0</ele><time>2026-05-02T13:30:52.595Z</time></trkpt><trkpt lat="46.12971" lon="13.41561"><ele>297.0</ele><time>2026-05-02T13:30:53.597Z</time></trkpt><trkpt lat="46.1296383" lon="13.415455"><ele>297.0</ele><time>2026-05-02T13:30:55.597Z</time></trkpt><trkpt lat="46.1295433" lon="13.4153383"><ele>296.6666666666667</ele><time>2026-05-02T13:30:57.609Z</time></trkpt><trkpt lat="46.12944" lon="13.4153167"><ele>296.3333333333333</ele><time>2026-05-02T13:30:59.609Z</time></trkpt><trkpt lat="46.129375" lon="13.4153467"><ele>296.0</ele><time>2026-05-02T13:31:00.609Z</time></trkpt><trkpt lat="46.1292933" lon="13.415395"><ele>295.66666666666663</ele><time>2026-05-02T13:31:01.608Z</time></trkpt><trkpt lat="46.1292133" lon="13.4154367"><ele>295.3333333333333</ele><time>2026-05-02T13:31:02.61Z</time></trkpt><trkpt lat="46.129135" lon="13.4154733"><ele>295.0</ele><time>2026-05-02T13:31:03.609Z</time></trkpt><trkpt lat="46.1290533" lon="13.4155083"><ele>295.0</ele><time>2026-05-02T13:31:04.605Z</time></trkpt><trkpt lat="46.1289683" lon="13.4155383"><ele>295.0</ele><time>2026-05-02T13:31:05.604Z</time></trkpt><trkpt lat="46.1288867" lon="13.4155583"><ele>295.0</ele><time>2026-05-02T13:31:06.607Z</time></trkpt><trkpt lat="46.1288133" lon="13.415575"><ele>295.0</ele><time>2026-05-02T13:31:07.604Z</time></trkpt><trkpt lat="46.1287417" lon="13.4156"><ele>295.0</ele><time>2026-05-02T13:31:08.608Z</time></trkpt><trkpt lat="46.128665" lon="13.4156417"><ele>295.0</ele><time>2026-05-02T13:31:09.607Z</time></trkpt><trkpt lat="46.1285867" lon="13.4156967"><ele>295.0</ele><time>2026-05-02T13:31:10.608Z</time></trkpt><trkpt lat="46.128505" lon="13.4157617"><ele>295.0</ele><time>2026-05-02T13:31:11.608Z</time></trkpt><trkpt lat="46.1284233" lon="13.4158333"><ele>295.0</ele><time>2026-05-02T13:31:12.608Z</time></trkpt><trkpt lat="46.1283433" lon="13.4158867"><ele>295.0</ele><time>2026-05-02T13:31:13.606Z</time></trkpt><trkpt lat="46.1282733" lon="13.4159233"><ele>295.0</ele><time>2026-05-02T13:31:14.609Z</time></trkpt><trkpt lat="46.1282067" lon="13.4159667"><ele>295.0</ele><time>2026-05-02T13:31:15.608Z</time></trkpt><trkpt lat="46.1281417" lon="13.41601"><ele>294.8333333333333</ele><time>2026-05-02T13:31:16.603Z</time></trkpt><trkpt lat="46.1280667" lon="13.416065"><ele>294.66666666666663</ele><time>2026-05-02T13:31:17.604Z</time></trkpt><trkpt lat="46.1279917" lon="13.4161317"><ele>294.5</ele><time>2026-05-02T13:31:18.605Z</time></trkpt><trkpt lat="46.1279117" lon="13.4161883"><ele>294.3333333333333</ele><time>2026-05-02T13:31:19.604Z</time></trkpt><trkpt lat="46.1278367" lon="13.4162367"><ele>294.1666666666667</ele><time>2026-05-02T13:31:20.608Z</time></trkpt><trkpt lat="46.1277683" lon="13.416275"><ele>294.0</ele><time>2026-05-02T13:31:21.607Z</time></trkpt><trkpt lat="46.1277" lon="13.41631"><ele>289.2857142857143</ele><time>2026-05-02T13:31:22.606Z</time></trkpt><trkpt lat="46.1276267" lon="13.416345"><ele>284.57142857142856</ele><time>2026-05-02T13:31:23.609Z</time></trkpt><trkpt lat="46.1275517" lon="13.4163817"><ele>279.8571428571429</ele><time>2026-05-02T13:31:24.605Z</time></trkpt><trkpt lat="46.1274767" lon="13.416405"><ele>275.1428571428571</ele><time>2026-05-02T13:31:25.603Z</time></trkpt><trkpt lat="46.1274067" lon="13.4164133"><ele>270.42857142857144</ele><time>2026-05-02T13:31:26.609Z</time></trkpt><trkpt lat="46.12734" lon="13.4164117"><ele>265.7142857142857</ele><time>2026-05-02T13:31:27.606Z</time></trkpt><trkpt lat="46.1272783" lon="13.4163867"><ele>261.0</ele><time>2026-05-02T13:31:28.604Z</time></trkpt><trkpt lat="46.1272183" lon="13.4163433"><ele>261.42857142857144</ele><time>2026-05-02T13:31:29.608Z</time></trkpt><trkpt lat="46.12716" lon="13.41629"><ele>261.85714285714283</ele><time>2026-05-02T13:31:30.608Z</time></trkpt><trkpt lat="46.12711" lon="13.4162317"><ele>262.2857142857143</ele><time>2026-05-02T13:31:31.606Z</time></trkpt><trkpt lat="46.12706" lon="13.41616"><ele>262.7142857142857</ele><time>2026-05-02T13:31:32.605Z</time></trkpt><trkpt lat="46.127005" lon="13.4160833"><ele>263.14285714285717</ele><time>2026-05-02T13:31:33.605Z</time></trkpt><trkpt lat="46.1269417" lon="13.4160117"><ele>263.57142857142856</ele><time>2026-05-02T13:31:34.604Z</time></trkpt><trkpt lat="46.1268767" lon="13.41594"><ele>264.0</ele><time>2026-05-02T13:31:35.608Z</time></trkpt><trkpt lat="46.12681" lon="13.4158767"><ele>264.0</ele><time>2026-05-02T13:31:36.609Z</time></trkpt><trkpt lat="46.12675" lon="13.41582"><ele>264.0</ele><time>2026-05-02T13:31:37.605Z</time></trkpt><trkpt lat="46.126695" lon="13.4157667"><ele>264.0</ele><time>2026-05-02T13:31:38.611Z</time></trkpt><trkpt lat="46.1265817" lon="13.415725"><ele>264.0</ele><time>2026-05-02T13:31:40.608Z</time></trkpt><trkpt lat="46.1264617" lon="13.4157583"><ele>264.0</ele><time>2026-05-02T13:31:42.612Z</time></trkpt><trkpt lat="46.12639" lon="13.415795"><ele>259.5</ele><time>2026-05-02T13:31:43.605Z</time></trkpt><trkpt lat="46.1263183" lon="13.41583"><ele>255.0</ele><time>2026-05-02T13:31:44.606Z</time></trkpt><trkpt lat="46.126245" lon="13.41585"><ele>250.5</ele><time>2026-05-02T13:31:45.602Z</time></trkpt><trkpt lat="46.1261733" lon="13.4158617"><ele>246.0</ele><time>2026-05-02T13:31:46.605Z</time></trkpt><trkpt lat="46.1260617" lon="13.415845"><ele>241.5</ele><time>2026-05-02T13:31:48.603Z</time></trkpt><trkpt lat="46.1260067" lon="13.415715"><ele>237.0</ele><time>2026-05-02T13:31:50.607Z</time></trkpt><trkpt lat="46.126005" lon="13.4156233"><ele>237.0</ele><time>2026-05-02T13:31:51.607Z</time></trkpt><trkpt lat="46.1260133" lon="13.4155283"><ele>237.0</ele><time>2026-05-02T13:31:52.607Z</time></trkpt><trkpt lat="46.1260183" lon="13.4154333"><ele>237.0</ele><time>2026-05-02T13:31:53.608Z</time></trkpt><trkpt lat="46.12601" lon="13.41528"><ele>237.0</ele><time>2026-05-02T13:31:55.606Z</time></trkpt><trkpt lat="46.1259333" lon="13.4151517"><ele>237.0</ele><time>2026-05-02T13:31:57.602Z</time></trkpt><trkpt lat="46.1258767" lon="13.4150883"><ele>237.0</ele><time>2026-05-02T13:31:58.604Z</time></trkpt><trkpt lat="46.1258183" lon="13.41503"><ele>235.66666666666666</ele><time>2026-05-02T13:31:59.604Z</time></trkpt><trkpt lat="46.1257433" lon="13.4149783"><ele>234.33333333333331</ele><time>2026-05-02T13:32:00.606Z</time></trkpt><trkpt lat="46.1256567" lon="13.41493"><ele>233.0</ele><time>2026-05-02T13:32:01.608Z</time></trkpt><trkpt lat="46.12557" lon="13.414885"><ele>231.66666666666666</ele><time>2026-05-02T13:32:02.609Z</time></trkpt><trkpt lat="46.1254883" lon="13.41485"><ele>230.33333333333331</ele><time>2026-05-02T13:32:03.602Z</time></trkpt><trkpt lat="46.12541" lon="13.4148117"><ele>229.0</ele><time>2026-05-02T13:32:04.604Z</time></trkpt><trkpt lat="46.12533" lon="13.4147883"><ele>229.0</ele><time>2026-05-02T13:32:05.607Z</time></trkpt><trkpt lat="46.12526" lon="13.4147833"><ele>229.0</ele><time>2026-05-02T13:32:06.603Z</time></trkpt><trkpt lat="46.1251967" lon="13.4147967"><ele>229.0</ele><time>2026-05-02T13:32:07.608Z</time></trkpt><trkpt lat="46.1251317" lon="13.4148133"><ele>229.0</ele><time>2026-05-02T13:32:08.61Z</time></trkpt><trkpt lat="46.1250617" lon="13.414835"><ele>229.0</ele><time>2026-05-02T13:32:09.607Z</time></trkpt><trkpt lat="46.1249967" lon="13.4148417"><ele>229.0</ele><time>2026-05-02T13:32:10.604Z</time></trkpt><trkpt lat="46.1249333" lon="13.4148367"><ele>229.0</ele><time>2026-05-02T13:32:11.605Z</time></trkpt><trkpt lat="46.1248683" lon="13.414805"><ele>228.99999999999997</ele><time>2026-05-02T13:32:12.608Z</time></trkpt><trkpt lat="46.124805" lon="13.414765"><ele>229.0</ele><time>2026-05-02T13:32:13.607Z</time></trkpt><trkpt lat="46.124735" lon="13.4147083"><ele>229.0</ele><time>2026-05-02T13:32:14.607Z</time></trkpt><trkpt lat="46.1246617" lon="13.414645"><ele>229.0</ele><time>2026-05-02T13:32:15.603Z</time></trkpt><trkpt lat="46.1245883" lon="13.4145733"><ele>228.99999999999997</ele><time>2026-05-02T13:32:16.602Z</time></trkpt><trkpt lat="46.1245117" lon="13.4144967"><ele>229.0</ele><time>2026-05-02T13:32:17.604Z</time></trkpt><trkpt lat="46.124445" lon="13.41442"><ele>228.99999999999997</ele><time>2026-05-02T13:32:18.605Z</time></trkpt><trkpt lat="46.1243817" lon="13.414355"><ele>229.0</ele><time>2026-05-02T13:32:19.605Z</time></trkpt><trkpt lat="46.1243167" lon="13.4142817"><ele>229.0</ele><time>2026-05-02T13:32:20.61Z</time></trkpt><trkpt lat="46.1242533" lon="13.4141983"><ele>229.0</ele><time>2026-05-02T13:32:21.604Z</time></trkpt><trkpt lat="46.1241983" lon="13.414115"><ele>228.99999999999997</ele><time>2026-05-02T13:32:22.604Z</time></trkpt><trkpt lat="46.1241433" lon="13.4140367"><ele>229.0</ele><time>2026-05-02T13:32:23.609Z</time></trkpt><trkpt lat="46.1240867" lon="13.4139633"><ele>226.57142857142856</ele><time>2026-05-02T13:32:24.608Z</time></trkpt><trkpt lat="46.1240283" lon="13.4138933"><ele>224.14285714285717</ele><time>2026-05-02T13:32:25.607Z</time></trkpt><trkpt lat="46.1239683" lon="13.4138333"><ele>221.71428571428572</ele><time>2026-05-02T13:32:26.606Z</time></trkpt><trkpt lat="46.123905" lon="13.4137883"><ele>219.28571428571428</ele><time>2026-05-02T13:32:27.608Z</time></trkpt><trkpt lat="46.1238333" lon="13.4137467"><ele>216.85714285714283</ele><time>2026-05-02T13:32:28.605Z</time></trkpt><trkpt lat="46.1237583" lon="13.4137267"><ele>214.42857142857144</ele><time>2026-05-02T13:32:29.607Z</time></trkpt><trkpt lat="46.1236883" lon="13.413715"><ele>212.0</ele><time>2026-05-02T13:32:30.604Z</time></trkpt><trkpt lat="46.1235633" lon="13.4136833"><ele>212.0</ele><time>2026-05-02T13:32:32.608Z</time></trkpt><trkpt lat="46.123495" lon="13.4136717"><ele>212.0</ele><time>2026-05-02T13:32:33.606Z</time></trkpt><trkpt lat="46.1234183" lon="13.4136733"><ele>212.0</ele><time>2026-05-02T13:32:34.608Z</time></trkpt><trkpt lat="46.123315" lon="13.4137033"><ele>212.0</ele><time>2026-05-02T13:32:35.608Z</time></trkpt><trkpt lat="46.12321" lon="13.4137433"><ele>212.0</ele><time>2026-05-02T13:32:36.611Z</time></trkpt><trkpt lat="46.1231117" lon="13.413775"><ele>209.33333333333334</ele><time>2026-05-02T13:32:37.607Z</time></trkpt><trkpt lat="46.1230183" lon="13.4138017"><ele>206.66666666666669</ele><time>2026-05-02T13:32:38.607Z</time></trkpt><trkpt lat="46.1229283" lon="13.4138167"><ele>204.0</ele><time>2026-05-02T13:32:39.604Z</time></trkpt><trkpt lat="46.1228517" lon="13.4138233"><ele>201.33333333333331</ele><time>2026-05-02T13:32:40.608Z</time></trkpt><trkpt lat="46.122745" lon="13.4138133"><ele>198.66666666666666</ele><time>2026-05-02T13:32:42.606Z</time></trkpt><trkpt lat="46.122695" lon="13.4137417"><ele>196.0</ele><time>2026-05-02T13:32:44.608Z</time></trkpt><trkpt lat="46.1227383" lon="13.413635"><ele>195.60000000000002</ele><time>2026-05-02T13:32:46.605Z</time></trkpt><trkpt lat="46.122845" lon="13.4135283"><ele>195.2</ele><time>2026-05-02T13:32:48.603Z</time></trkpt><trkpt lat="46.1228983" lon="13.4134533"><ele>194.8</ele><time>2026-05-02T13:32:49.607Z</time></trkpt><trkpt lat="46.1229433" lon="13.413375"><ele>194.39999999999998</ele><time>2026-05-02T13:32:50.607Z</time></trkpt><trkpt lat="46.1229883" lon="13.413305"><ele>194.0</ele><time>2026-05-02T13:32:51.605Z</time></trkpt><trkpt lat="46.1230983" lon="13.41323"><ele>194.00000000000003</ele><time>2026-05-02T13:32:53.607Z</time></trkpt><trkpt lat="46.123165" lon="13.413195"><ele>194.0</ele><time>2026-05-02T13:32:54.605Z</time></trkpt><trkpt lat="46.1232317" lon="13.4131567"><ele>194.0</ele><time>2026-05-02T13:32:55.604Z</time></trkpt><trkpt lat="46.1232933" lon="13.4131183"><ele>194.0</ele><time>2026-05-02T13:32:56.607Z</time></trkpt><trkpt lat="46.1233483" lon="13.4130733"><ele>194.00000000000003</ele><time>2026-05-02T13:32:57.607Z</time></trkpt><trkpt lat="46.1234417" lon="13.41296"><ele>194.0</ele><time>2026-05-02T13:32:59.607Z</time></trkpt><trkpt lat="46.1235183" lon="13.412855"><ele>195.2</ele><time>2026-05-02T13:33:01.608Z</time></trkpt><trkpt lat="46.1235533" lon="13.4127317"><ele>196.39999999999998</ele><time>2026-05-02T13:33:03.604Z</time></trkpt><trkpt lat="46.12351" lon="13.4125483"><ele>197.6</ele><time>2026-05-02T13:33:05.608Z</time></trkpt><trkpt lat="46.1234717" lon="13.412445"><ele>198.8</ele><time>2026-05-02T13:33:06.611Z</time></trkpt><trkpt lat="46.1234367" lon="13.4123567"><ele>200.0</ele><time>2026-05-02T13:33:07.609Z</time></trkpt><trkpt lat="46.1233917" lon="13.4122467"><ele>200.00000000000003</ele><time>2026-05-02T13:33:09.606Z</time></trkpt><trkpt lat="46.1233317" lon="13.4121633"><ele>200.0</ele><time>2026-05-02T13:33:25.604Z</time></trkpt><trkpt lat="46.1232567" lon="13.412045"><ele>200.0</ele><time>2026-05-02T13:33:27.605Z</time></trkpt><trkpt lat="46.1232067" lon="13.4119667"><ele>200.0</ele><time>2026-05-02T13:33:28.603Z</time></trkpt><trkpt lat="46.1231567" lon="13.4118933"><ele>200.00000000000003</ele><time>2026-05-02T13:33:29.605Z</time></trkpt><trkpt lat="46.1231067" lon="13.4118367"><ele>200.0</ele><time>2026-05-02T13:33:30.608Z</time></trkpt><trkpt lat="46.12299" lon="13.4117583"><ele>195.83333333333334</ele><time>2026-05-02T13:33:32.609Z</time></trkpt><trkpt lat="46.1229167" lon="13.4117367"><ele>191.66666666666669</ele><time>2026-05-02T13:33:33.61Z</time></trkpt><trkpt lat="46.1228383" lon="13.4117267"><ele>187.5</ele><time>2026-05-02T13:33:34.608Z</time></trkpt><trkpt lat="46.1227533" lon="13.4117067"><ele>183.33333333333334</ele><time>2026-05-02T13:33:35.608Z</time></trkpt><trkpt lat="46.1226683" lon="13.4116733"><ele>179.16666666666669</ele><time>2026-05-02T13:33:36.608Z</time></trkpt><trkpt lat="46.1225883" lon="13.41163"><ele>175.0</ele><time>2026-05-02T13:33:37.608Z</time></trkpt><trkpt lat="46.1225067" lon="13.4115783"><ele>175.0</ele><time>2026-05-02T13:33:38.608Z</time></trkpt><trkpt lat="46.1224267" lon="13.41152"><ele>175.0</ele><time>2026-05-02T13:33:39.607Z</time></trkpt><trkpt lat="46.122345" lon="13.4114483"><ele>175.0</ele><time>2026-05-02T13:33:40.607Z</time></trkpt><trkpt lat="46.1222633" lon="13.4113633"><ele>175.0</ele><time>2026-05-02T13:33:41.604Z</time></trkpt><trkpt lat="46.12218" lon="13.4112733"><ele>175.0</ele><time>2026-05-02T13:33:42.606Z</time></trkpt><trkpt lat="46.122095" lon="13.411185"><ele>172.66666666666669</ele><time>2026-05-02T13:33:43.604Z</time></trkpt><trkpt lat="46.1220117" lon="13.4111017"><ele>170.33333333333334</ele><time>2026-05-02T13:33:44.608Z</time></trkpt><trkpt lat="46.1219383" lon="13.411025"><ele>168.0</ele><time>2026-05-02T13:33:45.603Z</time></trkpt><trkpt lat="46.1218733" lon="13.410955"><ele>165.66666666666666</ele><time>2026-05-02T13:33:46.604Z</time></trkpt><trkpt lat="46.12182" lon="13.410895"><ele>163.33333333333331</ele><time>2026-05-02T13:33:47.603Z</time></trkpt><trkpt lat="46.1217483" lon="13.410805"><ele>161.0</ele><time>2026-05-02T13:33:49.606Z</time></trkpt><trkpt lat="46.1217033" lon="13.410725"><ele>161.0</ele><time>2026-05-02T13:33:52.605Z</time></trkpt><trkpt lat="46.12164" lon="13.4106883"><ele>161.0</ele><time>2026-05-02T13:34:21.603Z</time></trkpt><trkpt lat="46.1215633" lon="13.41064"><ele>161.0</ele><time>2026-05-02T13:49:25.595Z</time></trkpt><trkpt lat="46.121465" lon="13.4105783"><ele>161.0</ele><time>2026-05-02T13:49:27.603Z</time></trkpt><trkpt lat="46.1214033" lon="13.4105317"><ele>161.0</ele><time>2026-05-02T13:49:28.607Z</time></trkpt><trkpt lat="46.1213333" lon="13.410475"><ele>161.0</ele><time>2026-05-02T13:49:29.604Z</time></trkpt><trkpt lat="46.1212767" lon="13.4104167"><ele>161.0</ele><time>2026-05-02T13:49:30.603Z</time></trkpt><trkpt lat="46.121185" lon="13.4103383"><ele>161.0</ele><time>2026-05-02T13:49:32.605Z</time></trkpt><trkpt lat="46.121085" lon="13.41028"><ele>161.0</ele><time>2026-05-02T13:49:34.604Z</time></trkpt><trkpt lat="46.120975" lon="13.410215"><ele>161.0</ele><time>2026-05-02T13:49:36.605Z</time></trkpt><trkpt lat="46.1208617" lon="13.4101383"><ele>161.0</ele><time>2026-05-02T13:49:38.609Z</time></trkpt><trkpt lat="46.1208017" lon="13.4100833"><ele>161.0</ele><time>2026-05-02T13:49:39.606Z</time></trkpt><trkpt lat="46.1207367" lon="13.41002"><ele>161.0</ele><time>2026-05-02T13:49:40.607Z</time></trkpt><trkpt lat="46.1206783" lon="13.4099433"><ele>161.0</ele><time>2026-05-02T13:49:41.608Z</time></trkpt><trkpt lat="46.1206267" lon="13.4098667"><ele>161.0</ele><time>2026-05-02T13:49:42.606Z</time></trkpt><trkpt lat="46.12058" lon="13.4097817"><ele>161.0</ele><time>2026-05-02T13:49:43.607Z</time></trkpt><trkpt lat="46.120535" lon="13.409685"><ele>160.4</ele><time>2026-05-02T13:49:44.605Z</time></trkpt><trkpt lat="46.120495" lon="13.40957"><ele>159.8</ele><time>2026-05-02T13:49:45.605Z</time></trkpt><trkpt lat="46.120475" lon="13.4094283"><ele>159.20000000000002</ele><time>2026-05-02T13:49:46.605Z</time></trkpt><trkpt lat="46.1204483" lon="13.4092917"><ele>158.60000000000002</ele><time>2026-05-02T13:49:47.604Z</time></trkpt><trkpt lat="46.1204133" lon="13.4091533"><ele>158.0</ele><time>2026-05-02T13:49:48.609Z</time></trkpt><trkpt lat="46.1203717" lon="13.40903"><ele>158.0</ele><time>2026-05-02T13:49:49.603Z</time></trkpt><trkpt lat="46.1203183" lon="13.40891"><ele>158.0</ele><time>2026-05-02T13:49:50.605Z</time></trkpt><trkpt lat="46.120255" lon="13.4088083"><ele>158.0</ele><time>2026-05-02T13:49:51.602Z</time></trkpt><trkpt lat="46.1201733" lon="13.4087267"><ele>158.0</ele><time>2026-05-02T13:49:52.605Z</time></trkpt><trkpt lat="46.1200783" lon="13.40867"><ele>158.0</ele><time>2026-05-02T13:49:53.602Z</time></trkpt><trkpt lat="46.11999" lon="13.4086267"><ele>156.4</ele><time>2026-05-02T13:49:54.606Z</time></trkpt><trkpt lat="46.1199083" lon="13.4086117"><ele>154.8</ele><time>2026-05-02T13:49:55.606Z</time></trkpt><trkpt lat="46.1198233" lon="13.4086317"><ele>153.2</ele><time>2026-05-02T13:49:56.607Z</time></trkpt><trkpt lat="46.119735" lon="13.4086817"><ele>151.6</ele><time>2026-05-02T13:49:57.605Z</time></trkpt><trkpt lat="46.1196467" lon="13.4087517"><ele>150.0</ele><time>2026-05-02T13:49:58.605Z</time></trkpt><trkpt lat="46.1195633" lon="13.4088217"><ele>150.16666666666666</ele><time>2026-05-02T13:49:59.609Z</time></trkpt><trkpt lat="46.1194833" lon="13.4088933"><ele>150.33333333333334</ele><time>2026-05-02T13:50:00.607Z</time></trkpt><trkpt lat="46.1194083" lon="13.4089617"><ele>150.5</ele><time>2026-05-02T13:50:01.606Z</time></trkpt><trkpt lat="46.1193383" lon="13.4090233"><ele>150.66666666666669</ele><time>2026-05-02T13:50:02.609Z</time></trkpt><trkpt lat="46.1192767" lon="13.4090783"><ele>150.83333333333334</ele><time>2026-05-02T13:50:03.606Z</time></trkpt><trkpt lat="46.11922" lon="13.4091283"><ele>151.0</ele><time>2026-05-02T13:50:04.602Z</time></trkpt><trkpt lat="46.1191367" lon="13.4092"><ele>151.0</ele><time>2026-05-02T13:50:06.609Z</time></trkpt><trkpt lat="46.11907" lon="13.4092683"><ele>151.0</ele><time>2026-05-02T13:50:09.608Z</time></trkpt><trkpt lat="46.1190717" lon="13.40938"><ele>151.0</ele><time>2026-05-02T13:50:11.606Z</time></trkpt><trkpt lat="46.1190967" lon="13.4094733"><ele>151.0</ele><time>2026-05-02T13:50:12.605Z</time></trkpt><trkpt lat="46.11912" lon="13.409595"><ele>151.0</ele><time>2026-05-02T13:50:13.605Z</time></trkpt><trkpt lat="46.1191367" lon="13.4097317"><ele>151.0</ele><time>2026-05-02T13:50:14.607Z</time></trkpt><trkpt lat="46.11914" lon="13.40988"><ele>152.25</ele><time>2026-05-02T13:50:15.603Z</time></trkpt><trkpt lat="46.1191233" lon="13.4100483"><ele>153.5</ele><time>2026-05-02T13:50:16.604Z</time></trkpt><trkpt lat="46.1190967" lon="13.4102367"><ele>154.75</ele><time>2026-05-02T13:50:17.603Z</time></trkpt><trkpt lat="46.1190733" lon="13.4104417"><ele>156.0</ele><time>2026-05-02T13:50:18.602Z</time></trkpt><trkpt lat="46.1190567" lon="13.4106583"><ele>158.33333333333334</ele><time>2026-05-02T13:50:19.604Z</time></trkpt><trkpt lat="46.1190533" lon="13.4108833"><ele>160.66666666666669</ele><time>2026-05-02T13:50:20.608Z</time></trkpt><trkpt lat="46.11906" lon="13.4111167"><ele>163.0</ele><time>2026-05-02T13:50:21.605Z</time></trkpt><trkpt lat="46.1190817" lon="13.4113533"><ele>158.33333333333334</ele><time>2026-05-02T13:50:22.604Z</time></trkpt><trkpt lat="46.119115" lon="13.411585"><ele>153.66666666666666</ele><time>2026-05-02T13:50:23.603Z</time></trkpt><trkpt lat="46.1191533" lon="13.4118133"><ele>149.0</ele><time>2026-05-02T13:50:24.604Z</time></trkpt><trkpt lat="46.1192033" lon="13.4120333"><ele>149.0</ele><time>2026-05-02T13:50:25.603Z</time></trkpt><trkpt lat="46.1192433" lon="13.4122483"><ele>149.0</ele><time>2026-05-02T13:50:26.608Z</time></trkpt><trkpt lat="46.11928" lon="13.4124633"><ele>149.0</ele><time>2026-05-02T13:50:27.604Z</time></trkpt><trkpt lat="46.119325" lon="13.4126717"><ele>149.0</ele><time>2026-05-02T13:50:28.606Z</time></trkpt><trkpt lat="46.119355" lon="13.412885"><ele>149.0</ele><time>2026-05-02T13:50:29.606Z</time></trkpt><trkpt lat="46.11937" lon="13.413105"><ele>149.0</ele><time>2026-05-02T13:50:30.606Z</time></trkpt><trkpt lat="46.11937" lon="13.4133267"><ele>148.0</ele><time>2026-05-02T13:50:31.603Z</time></trkpt><trkpt lat="46.1193667" lon="13.41355"><ele>147.0</ele><time>2026-05-02T13:50:32.607Z</time></trkpt><trkpt lat="46.1193783" lon="13.4137717"><ele>146.0</ele><time>2026-05-02T13:50:33.604Z</time></trkpt><trkpt lat="46.1194" lon="13.4139917"><ele>146.0</ele><time>2026-05-02T13:50:34.605Z</time></trkpt><trkpt lat="46.1194217" lon="13.4142117"><ele>146.0</ele><time>2026-05-02T13:50:35.605Z</time></trkpt><trkpt lat="46.1194533" lon="13.4144283"><ele>146.0</ele><time>2026-05-02T13:50:36.605Z</time></trkpt><trkpt lat="46.1194867" lon="13.41464"><ele>146.0</ele><time>2026-05-02T13:50:37.608Z</time></trkpt><trkpt lat="46.1195133" lon="13.41485"><ele>146.0</ele><time>2026-05-02T13:50:38.608Z</time></trkpt><trkpt lat="46.1195367" lon="13.4150583"><ele>146.0</ele><time>2026-05-02T13:50:39.609Z</time></trkpt><trkpt lat="46.1195583" lon="13.4152683"><ele>146.0</ele><time>2026-05-02T13:50:40.605Z</time></trkpt><trkpt lat="46.119585" lon="13.4154717"><ele>146.25</ele><time>2026-05-02T13:50:41.606Z</time></trkpt><trkpt lat="46.1196133" lon="13.415675"><ele>146.5</ele><time>2026-05-02T13:50:42.604Z</time></trkpt><trkpt lat="46.1196433" lon="13.4158767"><ele>146.75</ele><time>2026-05-02T13:50:43.606Z</time></trkpt><trkpt lat="46.11968" lon="13.4160717"><ele>147.0</ele><time>2026-05-02T13:50:44.61Z</time></trkpt><trkpt lat="46.1197233" lon="13.4162633"><ele>147.5</ele><time>2026-05-02T13:50:45.602Z</time></trkpt><trkpt lat="46.1197733" lon="13.416455"><ele>148.0</ele><time>2026-05-02T13:50:46.605Z</time></trkpt><trkpt lat="46.1198267" lon="13.4166567"><ele>148.5</ele><time>2026-05-02T13:50:47.603Z</time></trkpt><trkpt lat="46.1198867" lon="13.4168583"><ele>149.0</ele><time>2026-05-02T13:50:48.603Z</time></trkpt><trkpt lat="46.1199483" lon="13.4170617"><ele>149.0</ele><time>2026-05-02T13:50:49.605Z</time></trkpt><trkpt lat="46.1200017" lon="13.4172667"><ele>149.0</ele><time>2026-05-02T13:50:50.608Z</time></trkpt><trkpt lat="46.1200483" lon="13.4174667"><ele>149.0</ele><time>2026-05-02T13:50:51.607Z</time></trkpt><trkpt lat="46.1200933" lon="13.41766"><ele>149.0</ele><time>2026-05-02T13:50:52.605Z</time></trkpt><trkpt lat="46.120135" lon="13.4178383"><ele>149.5</ele><time>2026-05-02T13:50:53.604Z</time></trkpt><trkpt lat="46.120175" lon="13.4180083"><ele>150.0</ele><time>2026-05-02T13:50:54.607Z</time></trkpt><trkpt lat="46.12021" lon="13.41817"><ele>150.5</ele><time>2026-05-02T13:50:55.604Z</time></trkpt><trkpt lat="46.1202433" lon="13.4183233"><ele>151.0</ele><time>2026-05-02T13:50:56.605Z</time></trkpt><trkpt lat="46.1202783" lon="13.4184817"><ele>151.0</ele><time>2026-05-02T13:50:57.605Z</time></trkpt><trkpt lat="46.1203133" lon="13.4186417"><ele>151.0</ele><time>2026-05-02T13:50:58.605Z</time></trkpt><trkpt lat="46.12035" lon="13.4188033"><ele>151.0</ele><time>2026-05-02T13:50:59.606Z</time></trkpt><trkpt lat="46.1203867" lon="13.418965"><ele>151.0</ele><time>2026-05-02T13:51:00.605Z</time></trkpt><trkpt lat="46.1204167" lon="13.4191167"><ele>151.8</ele><time>2026-05-02T13:51:01.607Z</time></trkpt><trkpt lat="46.1204367" lon="13.41926"><ele>152.6</ele><time>2026-05-02T13:51:02.607Z</time></trkpt><trkpt lat="46.120445" lon="13.4194017"><ele>153.4</ele><time>2026-05-02T13:51:03.602Z</time></trkpt><trkpt lat="46.1204467" lon="13.4195417"><ele>154.2</ele><time>2026-05-02T13:51:04.605Z</time></trkpt><trkpt lat="46.1204417" lon="13.4196783"><ele>155.0</ele><time>2026-05-02T13:51:05.602Z</time></trkpt><trkpt lat="46.1204367" lon="13.4198"><ele>155.0</ele><time>2026-05-02T13:51:06.609Z</time></trkpt><trkpt lat="46.12042" lon="13.4199283"><ele>155.0</ele><time>2026-05-02T13:51:07.609Z</time></trkpt><trkpt lat="46.1203917" lon="13.4200533"><ele>155.0</ele><time>2026-05-02T13:51:08.607Z</time></trkpt><trkpt lat="46.120345" lon="13.42019"><ele>155.0</ele><time>2026-05-02T13:51:09.603Z</time></trkpt><trkpt lat="46.1202833" lon="13.42033"><ele>155.0</ele><time>2026-05-02T13:51:10.602Z</time></trkpt><trkpt lat="46.1202183" lon="13.4204717"><ele>155.0</ele><time>2026-05-02T13:51:11.603Z</time></trkpt><trkpt lat="46.1201533" lon="13.420615"><ele>155.0</ele><time>2026-05-02T13:51:12.603Z</time></trkpt><trkpt lat="46.1200933" lon="13.420755"><ele>155.0</ele><time>2026-05-02T13:51:13.604Z</time></trkpt><trkpt lat="46.12004" lon="13.4208833"><ele>155.0</ele><time>2026-05-02T13:51:14.605Z</time></trkpt><trkpt lat="46.1199917" lon="13.4209917"><ele>155.0</ele><time>2026-05-02T13:51:15.608Z</time></trkpt><trkpt lat="46.1199517" lon="13.4210767"><ele>155.0</ele><time>2026-05-02T13:51:16.605Z</time></trkpt><trkpt lat="46.1199067" lon="13.4211783"><ele>155.0</ele><time>2026-05-02T13:51:18.602Z</time></trkpt><trkpt lat="46.1198667" lon="13.421275"><ele>155.0</ele><time>2026-05-02T13:51:23.605Z</time></trkpt><trkpt lat="46.1198583" lon="13.4213683"><ele>155.0</ele><time>2026-05-02T13:51:25.608Z</time></trkpt><trkpt lat="46.1199317" lon="13.4215067"><ele>155.0</ele><time>2026-05-02T13:51:27.608Z</time></trkpt><trkpt lat="46.1199767" lon="13.4215833"><ele>155.0</ele><time>2026-05-02T13:51:28.606Z</time></trkpt><trkpt lat="46.1200533" lon="13.421705"><ele>155.0</ele><time>2026-05-02T13:51:30.609Z</time></trkpt><trkpt lat="46.1200867" lon="13.4217933"><ele>155.0</ele><time>2026-05-02T13:51:32.607Z</time></trkpt><trkpt lat="46.1200483" lon="13.4218667"><ele>155.0</ele><time>2026-05-02T13:51:34.606Z</time></trkpt><trkpt lat="46.119965" lon="13.4217983"><ele>155.0</ele><time>2026-05-02T13:51:37.602Z</time></trkpt><trkpt lat="46.1198983" lon="13.42165"><ele>155.0</ele><time>2026-05-02T13:51:39.604Z</time></trkpt><trkpt lat="46.1198133" lon="13.4215517"><ele>154.5</ele><time>2026-05-02T13:51:41.606Z</time></trkpt><trkpt lat="46.1197333" lon="13.42153"><ele>154.0</ele><time>2026-05-02T13:51:43.604Z</time></trkpt><trkpt lat="46.119665" lon="13.42157"><ele>153.5</ele><time>2026-05-02T13:51:45.605Z</time></trkpt><trkpt lat="46.1196033" lon="13.421655"><ele>153.0</ele><time>2026-05-02T13:51:47.603Z</time></trkpt><trkpt lat="46.119545" lon="13.4217517"><ele>152.5</ele><time>2026-05-02T13:51:49.607Z</time></trkpt><trkpt lat="46.1195017" lon="13.42186"><ele>152.0</ele><time>2026-05-02T13:51:51.609Z</time></trkpt><trkpt lat="46.1194883" lon="13.42199"><ele>152.0</ele><time>2026-05-02T13:51:53.608Z</time></trkpt><trkpt lat="46.119505" lon="13.4220917"><ele>152.0</ele><time>2026-05-02T13:51:55.609Z</time></trkpt><trkpt lat="46.1195967" lon="13.4221583"><ele>152.0</ele><time>2026-05-02T13:51:57.607Z</time></trkpt><trkpt lat="46.1196683" lon="13.4222033"><ele>152.0</ele><time>2026-05-02T13:51:58.605Z</time></trkpt><trkpt lat="46.11974" lon="13.4222633"><ele>152.0</ele><time>2026-05-02T13:51:59.606Z</time></trkpt><trkpt lat="46.1198083" lon="13.42233"><ele>152.0</ele><time>2026-05-02T13:52:00.608Z</time></trkpt><trkpt lat="46.119865" lon="13.422405"><ele>152.5</ele><time>2026-05-02T13:52:01.609Z</time></trkpt><trkpt lat="46.1199117" lon="13.4224833"><ele>153.0</ele><time>2026-05-02T13:52:02.609Z</time></trkpt><trkpt lat="46.1199517" lon="13.4225733"><ele>153.5</ele><time>2026-05-02T13:52:03.607Z</time></trkpt><trkpt lat="46.1199917" lon="13.42268"><ele>154.0</ele><time>2026-05-02T13:52:04.607Z</time></trkpt><trkpt lat="46.1200317" lon="13.4227883"><ele>154.5</ele><time>2026-05-02T13:52:05.61Z</time></trkpt><trkpt lat="46.1200567" lon="13.4228967"><ele>155.0</ele><time>2026-05-02T13:52:06.604Z</time></trkpt><trkpt lat="46.1200633" lon="13.422995"><ele>155.16666666666666</ele><time>2026-05-02T13:52:07.611Z</time></trkpt><trkpt lat="46.1200583" lon="13.4230983"><ele>155.33333333333331</ele><time>2026-05-02T13:52:08.609Z</time></trkpt><trkpt lat="46.120035" lon="13.4231883"><ele>155.5</ele><time>2026-05-02T13:52:09.604Z</time></trkpt><trkpt lat="46.1199883" lon="13.4232683"><ele>155.66666666666666</ele><time>2026-05-02T13:52:10.607Z</time></trkpt><trkpt lat="46.1199217" lon="13.4233383"><ele>155.83333333333334</ele><time>2026-05-02T13:52:11.606Z</time></trkpt><trkpt lat="46.119835" lon="13.4234117"><ele>156.0</ele><time>2026-05-02T13:52:12.606Z</time></trkpt><trkpt lat="46.1197567" lon="13.4234783"><ele>155.66666666666666</ele><time>2026-05-02T13:52:13.603Z</time></trkpt><trkpt lat="46.1197033" lon="13.4235483"><ele>155.33333333333334</ele><time>2026-05-02T13:52:14.606Z</time></trkpt><trkpt lat="46.1196667" lon="13.4236283"><ele>155.0</ele><time>2026-05-02T13:52:15.607Z</time></trkpt><trkpt lat="46.1196517" lon="13.423725"><ele>154.66666666666669</ele><time>2026-05-02T13:52:16.606Z</time></trkpt><trkpt lat="46.11965" lon="13.4238483"><ele>154.33333333333334</ele><time>2026-05-02T13:52:17.607Z</time></trkpt><trkpt lat="46.1196517" lon="13.4239833"><ele>154.0</ele><time>2026-05-02T13:52:18.604Z</time></trkpt><trkpt lat="46.11965" lon="13.4241367"><ele>154.0</ele><time>2026-05-02T13:52:19.61Z</time></trkpt><trkpt lat="46.11965" lon="13.4243067"><ele>154.0</ele><time>2026-05-02T13:52:20.608Z</time></trkpt><trkpt lat="46.1196483" lon="13.424475"><ele>154.0</ele><time>2026-05-02T13:52:21.61Z</time></trkpt><trkpt lat="46.1196383" lon="13.4246417"><ele>154.0</ele><time>2026-05-02T13:52:22.607Z</time></trkpt><trkpt lat="46.1196183" lon="13.4247933"><ele>154.2</ele><time>2026-05-02T13:52:23.607Z</time></trkpt><trkpt lat="46.1195917" lon="13.424945"><ele>154.4</ele><time>2026-05-02T13:52:24.61Z</time></trkpt><trkpt lat="46.1195633" lon="13.4250967"><ele>154.6</ele><time>2026-05-02T13:52:25.61Z</time></trkpt><trkpt lat="46.1195367" lon="13.425245"><ele>154.8</ele><time>2026-05-02T13:52:26.605Z</time></trkpt><trkpt lat="46.1195133" lon="13.4253783"><ele>155.0</ele><time>2026-05-02T13:52:27.607Z</time></trkpt><trkpt lat="46.119495" lon="13.42549"><ele>155.2</ele><time>2026-05-02T13:52:28.607Z</time></trkpt><trkpt lat="46.11947" lon="13.4255767"><ele>155.4</ele><time>2026-05-02T13:52:29.608Z</time></trkpt><trkpt lat="46.1193817" lon="13.42568"><ele>155.6</ele><time>2026-05-02T13:52:31.605Z</time></trkpt><trkpt lat="46.1193217" lon="13.42571"><ele>155.8</ele><time>2026-05-02T13:52:32.608Z</time></trkpt><trkpt lat="46.1192317" lon="13.425805"><ele>156.0</ele><time>2026-05-02T13:52:34.609Z</time></trkpt><trkpt lat="46.1192317" lon="13.4259633"><ele>156.0</ele><time>2026-05-02T13:52:36.606Z</time></trkpt><trkpt lat="46.1192683" lon="13.42607"><ele>156.0</ele><time>2026-05-02T13:52:37.606Z</time></trkpt><trkpt lat="46.1193217" lon="13.4261917"><ele>156.0</ele><time>2026-05-02T13:52:38.609Z</time></trkpt><trkpt lat="46.1193883" lon="13.4263217"><ele>156.0</ele><time>2026-05-02T13:52:39.609Z</time></trkpt><trkpt lat="46.11947" lon="13.426455"><ele>156.0</ele><time>2026-05-02T13:52:40.607Z</time></trkpt><trkpt lat="46.119555" lon="13.4265867"><ele>156.0</ele><time>2026-05-02T13:52:41.604Z</time></trkpt><trkpt lat="46.1196433" lon="13.4267117"><ele>156.0</ele><time>2026-05-02T13:52:42.606Z</time></trkpt><trkpt lat="46.11973" lon="13.426845"><ele>156.0</ele><time>2026-05-02T13:52:43.605Z</time></trkpt><trkpt lat="46.1198217" lon="13.426985"><ele>156.0</ele><time>2026-05-02T13:52:44.607Z</time></trkpt><trkpt lat="46.119915" lon="13.427125"><ele>156.5</ele><time>2026-05-02T13:52:45.606Z</time></trkpt><trkpt lat="46.1200083" lon="13.4272667"><ele>157.0</ele><time>2026-05-02T13:52:46.603Z</time></trkpt><trkpt lat="46.1201" lon="13.427405"><ele>157.5</ele><time>2026-05-02T13:52:47.607Z</time></trkpt><trkpt lat="46.120185" lon="13.4275383"><ele>158.0</ele><time>2026-05-02T13:52:48.608Z</time></trkpt><trkpt lat="46.12027" lon="13.4276717"><ele>158.0</ele><time>2026-05-02T13:52:49.608Z</time></trkpt><trkpt lat="46.1203483" lon="13.4278017"><ele>158.0</ele><time>2026-05-02T13:52:50.606Z</time></trkpt><trkpt lat="46.1204183" lon="13.4279183"><ele>158.0</ele><time>2026-05-02T13:52:51.611Z</time></trkpt><trkpt lat="46.12048" lon="13.428025"><ele>158.0</ele><time>2026-05-02T13:52:52.607Z</time></trkpt><trkpt lat="46.120535" lon="13.428115"><ele>158.0</ele><time>2026-05-02T13:52:53.608Z</time></trkpt><trkpt lat="46.1205883" lon="13.4281883"><ele>158.0</ele><time>2026-05-02T13:52:54.61Z</time></trkpt><trkpt lat="46.1206433" lon="13.428235"><ele>158.0</ele><time>2026-05-02T13:52:55.609Z</time></trkpt><trkpt lat="46.120755" lon="13.428235"><ele>158.0</ele><time>2026-05-02T13:52:57.608Z</time></trkpt><trkpt lat="46.1208167" lon="13.4282033"><ele>158.0</ele><time>2026-05-02T13:52:58.607Z</time></trkpt><trkpt lat="46.1208883" lon="13.4281733"><ele>158.0</ele><time>2026-05-02T13:52:59.607Z</time></trkpt><trkpt lat="46.1209867" lon="13.4281583"><ele>158.0</ele><time>2026-05-02T13:53:00.604Z</time></trkpt><trkpt lat="46.12111" lon="13.42816"><ele>158.75</ele><time>2026-05-02T13:53:01.608Z</time></trkpt><trkpt lat="46.1212483" lon="13.42816"><ele>159.5</ele><time>2026-05-02T13:53:02.608Z</time></trkpt><trkpt lat="46.1213917" lon="13.4281583"><ele>160.25</ele><time>2026-05-02T13:53:03.602Z</time></trkpt><trkpt lat="46.1215317" lon="13.4281583"><ele>161.0</ele><time>2026-05-02T13:53:04.604Z</time></trkpt><trkpt lat="46.121665" lon="13.4281583"><ele>161.0</ele><time>2026-05-02T13:53:05.606Z</time></trkpt><trkpt lat="46.1217833" lon="13.4281583"><ele>161.0</ele><time>2026-05-02T13:53:06.606Z</time></trkpt><trkpt lat="46.1218883" lon="13.42816"><ele>161.0</ele><time>2026-05-02T13:53:07.603Z</time></trkpt><trkpt lat="46.1219917" lon="13.42817"><ele>161.0</ele><time>2026-05-02T13:53:08.608Z</time></trkpt><trkpt lat="46.1220967" lon="13.4281933"><ele>161.0</ele><time>2026-05-02T13:53:09.609Z</time></trkpt><trkpt lat="46.122195" lon="13.4282333"><ele>161.0</ele><time>2026-05-02T13:53:10.606Z</time></trkpt><trkpt lat="46.12229" lon="13.42827"><ele>161.0</ele><time>2026-05-02T13:53:11.605Z</time></trkpt><trkpt lat="46.122385" lon="13.4283017"><ele>161.0</ele><time>2026-05-02T13:53:12.608Z</time></trkpt><trkpt lat="46.1224717" lon="13.4283417"><ele>161.0</ele><time>2026-05-02T13:53:13.607Z</time></trkpt><trkpt lat="46.1225517" lon="13.428405"><ele>161.0</ele><time>2026-05-02T13:53:14.611Z</time></trkpt><trkpt lat="46.1226283" lon="13.4285033"><ele>161.0</ele><time>2026-05-02T13:53:15.605Z</time></trkpt><trkpt lat="46.1227133" lon="13.428625"><ele>161.0</ele><time>2026-05-02T13:53:16.608Z</time></trkpt><trkpt lat="46.1228" lon="13.4287583"><ele>161.0</ele><time>2026-05-02T13:53:17.603Z</time></trkpt><trkpt lat="46.1228867" lon="13.4288933"><ele>161.0</ele><time>2026-05-02T13:53:18.606Z</time></trkpt><trkpt lat="46.1229783" lon="13.4290367"><ele>161.25</ele><time>2026-05-02T13:53:19.606Z</time></trkpt><trkpt lat="46.1230717" lon="13.4291783"><ele>161.5</ele><time>2026-05-02T13:53:20.608Z</time></trkpt><trkpt lat="46.12317" lon="13.4293133"><ele>161.75</ele><time>2026-05-02T13:53:21.606Z</time></trkpt><trkpt lat="46.12327" lon="13.42944"><ele>162.0</ele><time>2026-05-02T13:53:22.606Z</time></trkpt><trkpt lat="46.12337" lon="13.4295633"><ele>162.8</ele><time>2026-05-02T13:53:23.604Z</time></trkpt><trkpt lat="46.1234583" lon="13.4296883"><ele>163.6</ele><time>2026-05-02T13:53:24.607Z</time></trkpt><trkpt lat="46.12354" lon="13.4298083"><ele>164.4</ele><time>2026-05-02T13:53:25.606Z</time></trkpt><trkpt lat="46.12362" lon="13.429905"><ele>165.20000000000002</ele><time>2026-05-02T13:53:26.61Z</time></trkpt><trkpt lat="46.1237" lon="13.4299733"><ele>166.0</ele><time>2026-05-02T13:53:27.608Z</time></trkpt><trkpt lat="46.12379" lon="13.43002"><ele>166.0</ele><time>2026-05-02T13:53:28.608Z</time></trkpt><trkpt lat="46.123895" lon="13.4300433"><ele>166.0</ele><time>2026-05-02T13:53:29.609Z</time></trkpt><trkpt lat="46.1240067" lon="13.43005"><ele>166.0</ele><time>2026-05-02T13:53:30.606Z</time></trkpt><trkpt lat="46.124115" lon="13.4300317"><ele>166.0</ele><time>2026-05-02T13:53:31.607Z</time></trkpt><trkpt lat="46.12422" lon="13.4299883"><ele>166.0</ele><time>2026-05-02T13:53:32.61Z</time></trkpt><trkpt lat="46.12431" lon="13.4299217"><ele>166.20000000000002</ele><time>2026-05-02T13:53:33.608Z</time></trkpt><trkpt lat="46.1243867" lon="13.4298367"><ele>166.4</ele><time>2026-05-02T13:53:34.61Z</time></trkpt><trkpt lat="46.1244617" lon="13.4297383"><ele>166.6</ele><time>2026-05-02T13:53:35.605Z</time></trkpt><trkpt lat="46.1245333" lon="13.4296417"><ele>166.8</ele><time>2026-05-02T13:53:36.606Z</time></trkpt><trkpt lat="46.1246033" lon="13.4295567"><ele>167.0</ele><time>2026-05-02T13:53:37.604Z</time></trkpt><trkpt lat="46.1246733" lon="13.4294833"><ele>167.0</ele><time>2026-05-02T13:53:38.607Z</time></trkpt><trkpt lat="46.1247333" lon="13.4294233"><ele>167.0</ele><time>2026-05-02T13:53:39.605Z</time></trkpt><trkpt lat="46.12483" lon="13.4293933"><ele>167.0</ele><time>2026-05-02T13:53:41.608Z</time></trkpt><trkpt lat="46.1249317" lon="13.429505"><ele>167.0</ele><time>2026-05-02T13:53:43.608Z</time></trkpt><trkpt lat="46.124995" lon="13.4296017"><ele>167.0</ele><time>2026-05-02T13:53:44.609Z</time></trkpt><trkpt lat="46.125075" lon="13.4297133"><ele>167.6</ele><time>2026-05-02T13:53:45.607Z</time></trkpt><trkpt lat="46.12516" lon="13.429815"><ele>168.2</ele><time>2026-05-02T13:53:46.607Z</time></trkpt><trkpt lat="46.1252383" lon="13.429905"><ele>168.8</ele><time>2026-05-02T13:53:47.605Z</time></trkpt><trkpt lat="46.125305" lon="13.4299817"><ele>169.4</ele><time>2026-05-02T13:53:48.607Z</time></trkpt><trkpt lat="46.1253633" lon="13.4300483"><ele>170.0</ele><time>2026-05-02T13:53:49.609Z</time></trkpt><trkpt lat="46.1254567" lon="13.43013"><ele>170.0</ele><time>2026-05-02T13:53:51.606Z</time></trkpt><trkpt lat="46.1255333" lon="13.4300433"><ele>170.0</ele><time>2026-05-02T13:53:53.605Z</time></trkpt><trkpt lat="46.1255817" lon="13.4299483"><ele>170.0</ele><time>2026-05-02T13:53:54.608Z</time></trkpt><trkpt lat="46.1256483" lon="13.429845"><ele>170.0</ele><time>2026-05-02T13:53:55.609Z</time></trkpt><trkpt lat="46.1257333" lon="13.4297317"><ele>170.0</ele><time>2026-05-02T13:53:56.611Z</time></trkpt><trkpt lat="46.12583" lon="13.4296183"><ele>170.2</ele><time>2026-05-02T13:53:57.608Z</time></trkpt><trkpt lat="46.12593" lon="13.4295217"><ele>170.4</ele><time>2026-05-02T13:53:58.606Z</time></trkpt><trkpt lat="46.1260183" lon="13.4294467"><ele>170.60000000000002</ele><time>2026-05-02T13:53:59.607Z</time></trkpt><trkpt lat="46.126085" lon="13.4293933"><ele>170.8</ele><time>2026-05-02T13:54:00.607Z</time></trkpt><trkpt lat="46.126195" lon="13.4293567"><ele>171.0</ele><time>2026-05-02T13:54:02.605Z</time></trkpt><trkpt lat="46.1262933" lon="13.4293967"><ele>171.0</ele><time>2026-05-02T13:54:04.605Z</time></trkpt><trkpt lat="46.1263633" lon="13.429495"><ele>171.0</ele><time>2026-05-02T13:54:05.607Z</time></trkpt><trkpt lat="46.1264433" lon="13.4296233"><ele>171.0</ele><time>2026-05-02T13:54:06.604Z</time></trkpt><trkpt lat="46.1265383" lon="13.4297317"><ele>171.0</ele><time>2026-05-02T13:54:07.608Z</time></trkpt><trkpt lat="46.126645" lon="13.4298267"><ele>171.5</ele><time>2026-05-02T13:54:08.608Z</time></trkpt><trkpt lat="46.1267633" lon="13.42992"><ele>172.0</ele><time>2026-05-02T13:54:09.607Z</time></trkpt><trkpt lat="46.1268883" lon="13.4299983"><ele>172.5</ele><time>2026-05-02T13:54:10.607Z</time></trkpt><trkpt lat="46.1270067" lon="13.4300683"><ele>173.0</ele><time>2026-05-02T13:54:11.607Z</time></trkpt><trkpt lat="46.1271167" lon="13.43015"><ele>173.0</ele><time>2026-05-02T13:54:12.609Z</time></trkpt><trkpt lat="46.12723" lon="13.4302367"><ele>173.0</ele><time>2026-05-02T13:54:13.604Z</time></trkpt><trkpt lat="46.12735" lon="13.4303283"><ele>173.0</ele><time>2026-05-02T13:54:14.609Z</time></trkpt><trkpt lat="46.1274717" lon="13.43044"><ele>173.0</ele><time>2026-05-02T13:54:15.605Z</time></trkpt><trkpt lat="46.127585" lon="13.43058"><ele>174.0</ele><time>2026-05-02T13:54:16.607Z</time></trkpt><trkpt lat="46.1277" lon="13.4307383"><ele>175.0</ele><time>2026-05-02T13:54:17.606Z</time></trkpt><trkpt lat="46.1278283" lon="13.4309"><ele>176.0</ele><time>2026-05-02T13:54:18.606Z</time></trkpt><trkpt lat="46.1279633" lon="13.431065"><ele>176.0</ele><time>2026-05-02T13:54:19.607Z</time></trkpt><trkpt lat="46.128095" lon="13.4312283"><ele>176.0</ele><time>2026-05-02T13:54:20.607Z</time></trkpt><trkpt lat="46.1282217" lon="13.4313967"><ele>176.0</ele><time>2026-05-02T13:54:21.607Z</time></trkpt><trkpt lat="46.1283467" lon="13.43156"><ele>176.33333333333331</ele><time>2026-05-02T13:54:22.608Z</time></trkpt><trkpt lat="46.1284683" lon="13.43171"><ele>176.66666666666666</ele><time>2026-05-02T13:54:23.608Z</time></trkpt><trkpt lat="46.1285833" lon="13.43185"><ele>177.0</ele><time>2026-05-02T13:54:24.605Z</time></trkpt><trkpt lat="46.1287" lon="13.4319733"><ele>177.0</ele><time>2026-05-02T13:54:25.608Z</time></trkpt><trkpt lat="46.12883" lon="13.432075"><ele>177.0</ele><time>2026-05-02T13:54:26.608Z</time></trkpt><trkpt lat="46.128975" lon="13.4321667"><ele>177.0</ele><time>2026-05-02T13:54:27.606Z</time></trkpt><trkpt lat="46.12913" lon="13.4322467"><ele>179.0</ele><time>2026-05-02T13:54:28.605Z</time></trkpt><trkpt lat="46.1292867" lon="13.4323233"><ele>181.0</ele><time>2026-05-02T13:54:29.607Z</time></trkpt><trkpt lat="46.1294483" lon="13.4323983"><ele>183.0</ele><time>2026-05-02T13:54:30.607Z</time></trkpt><trkpt lat="46.12961" lon="13.432475"><ele>183.0</ele><time>2026-05-02T13:54:31.603Z</time></trkpt><trkpt lat="46.1297683" lon="13.4325483"><ele>183.0</ele><time>2026-05-02T13:54:32.608Z</time></trkpt><trkpt lat="46.1299317" lon="13.4326267"><ele>183.0</ele><time>2026-05-02T13:54:33.607Z</time></trkpt><trkpt lat="46.1300917" lon="13.4327017"><ele>183.0</ele><time>2026-05-02T13:54:34.607Z</time></trkpt><trkpt lat="46.1302517" lon="13.4327783"><ele>183.0</ele><time>2026-05-02T13:54:35.607Z</time></trkpt><trkpt lat="46.130405" lon="13.4328483"><ele>183.0</ele><time>2026-05-02T13:54:36.61Z</time></trkpt><trkpt lat="46.1305433" lon="13.4329183"><ele>183.25</ele><time>2026-05-02T13:54:37.606Z</time></trkpt><trkpt lat="46.1306767" lon="13.4329867"><ele>183.5</ele><time>2026-05-02T13:54:38.61Z</time></trkpt><trkpt lat="46.1308033" lon="13.433065"><ele>183.75</ele><time>2026-05-02T13:54:39.609Z</time></trkpt><trkpt lat="46.13093" lon="13.4331633"><ele>184.0</ele><time>2026-05-02T13:54:40.605Z</time></trkpt><trkpt lat="46.1310533" lon="13.4332617"><ele>185.66666666666669</ele><time>2026-05-02T13:54:41.608Z</time></trkpt><trkpt lat="46.1311783" lon="13.4333883"><ele>187.33333333333334</ele><time>2026-05-02T13:54:42.607Z</time></trkpt><trkpt lat="46.131305" lon="13.4335133"><ele>189.0</ele><time>2026-05-02T13:54:43.607Z</time></trkpt><trkpt lat="46.1314367" lon="13.4336317"><ele>189.0</ele><time>2026-05-02T13:54:44.608Z</time></trkpt><trkpt lat="46.131565" lon="13.433745"><ele>189.0</ele><time>2026-05-02T13:54:45.606Z</time></trkpt><trkpt lat="46.1316917" lon="13.4338517"><ele>189.0</ele><time>2026-05-02T13:54:46.608Z</time></trkpt><trkpt lat="46.1318083" lon="13.43395"><ele>189.0</ele><time>2026-05-02T13:54:47.607Z</time></trkpt><trkpt lat="46.13191" lon="13.434035"><ele>189.2</ele><time>2026-05-02T13:54:48.608Z</time></trkpt><trkpt lat="46.1319983" lon="13.4341167"><ele>189.39999999999998</ele><time>2026-05-02T13:54:49.605Z</time></trkpt><trkpt lat="46.13208" lon="13.43419"><ele>189.6</ele><time>2026-05-02T13:54:50.609Z</time></trkpt><trkpt lat="46.1321467" lon="13.4342817"><ele>189.8</ele><time>2026-05-02T13:54:51.61Z</time></trkpt><trkpt lat="46.1322067" lon="13.4344117"><ele>190.0</ele><time>2026-05-02T13:54:52.604Z</time></trkpt><trkpt lat="46.1322683" lon="13.4345617"><ele>190.0</ele><time>2026-05-02T13:54:53.607Z</time></trkpt><trkpt lat="46.13233" lon="13.4347233"><ele>190.0</ele><time>2026-05-02T13:54:54.609Z</time></trkpt><trkpt lat="46.13239" lon="13.4348867"><ele>190.0</ele><time>2026-05-02T13:54:55.605Z</time></trkpt><trkpt lat="46.1324483" lon="13.4350283"><ele>190.0</ele><time>2026-05-02T13:54:56.608Z</time></trkpt><trkpt lat="46.1325067" lon="13.4351533"><ele>190.16666666666669</ele><time>2026-05-02T13:54:57.604Z</time></trkpt><trkpt lat="46.1325717" lon="13.435255"><ele>190.33333333333334</ele><time>2026-05-02T13:54:58.606Z</time></trkpt><trkpt lat="46.1326283" lon="13.43534"><ele>190.5</ele><time>2026-05-02T13:54:59.605Z</time></trkpt><trkpt lat="46.1326833" lon="13.4354067"><ele>190.66666666666666</ele><time>2026-05-02T13:55:00.605Z</time></trkpt><trkpt lat="46.1327533" lon="13.4355167"><ele>190.83333333333331</ele><time>2026-05-02T13:55:02.61Z</time></trkpt><trkpt lat="46.132755" lon="13.4356533"><ele>191.0</ele><time>2026-05-02T13:55:04.606Z</time></trkpt><trkpt lat="46.132705" lon="13.4358017"><ele>191.0</ele><time>2026-05-02T13:55:06.605Z</time></trkpt><trkpt lat="46.1326233" lon="13.4359633"><ele>191.0</ele><time>2026-05-02T13:55:08.608Z</time></trkpt><trkpt lat="46.1325667" lon="13.4360783"><ele>191.0</ele><time>2026-05-02T13:55:09.603Z</time></trkpt><trkpt lat="46.132505" lon="13.4361983"><ele>191.0</ele><time>2026-05-02T13:55:10.605Z</time></trkpt><trkpt lat="46.1324433" lon="13.436325"><ele>191.0</ele><time>2026-05-02T13:55:11.605Z</time></trkpt><trkpt lat="46.1323783" lon="13.4364433"><ele>193.16666666666666</ele><time>2026-05-02T13:55:12.605Z</time></trkpt><trkpt lat="46.1323133" lon="13.436555"><ele>195.33333333333331</ele><time>2026-05-02T13:55:13.604Z</time></trkpt><trkpt lat="46.1322483" lon="13.4366567"><ele>197.5</ele><time>2026-05-02T13:55:14.607Z</time></trkpt><trkpt lat="46.1321917" lon="13.4367417"><ele>199.66666666666666</ele><time>2026-05-02T13:55:15.605Z</time></trkpt><trkpt lat="46.13214" lon="13.4368033"><ele>201.83333333333334</ele><time>2026-05-02T13:55:16.606Z</time></trkpt><trkpt lat="46.1320517" lon="13.4368367"><ele>204.0</ele><time>2026-05-02T13:55:18.606Z</time></trkpt><trkpt lat="46.131935" lon="13.4367967"><ele>204.0</ele><time>2026-05-02T13:55:20.608Z</time></trkpt><trkpt lat="46.1318617" lon="13.4367683"><ele>204.0</ele><time>2026-05-02T13:55:21.605Z</time></trkpt><trkpt lat="46.1317817" lon="13.4367467"><ele>204.0</ele><time>2026-05-02T13:55:22.606Z</time></trkpt><trkpt lat="46.1317033" lon="13.4367417"><ele>204.0</ele><time>2026-05-02T13:55:23.607Z</time></trkpt><trkpt lat="46.131625" lon="13.4367483"><ele>204.0</ele><time>2026-05-02T13:55:24.609Z</time></trkpt><trkpt lat="46.131545" lon="13.4367717"><ele>204.0</ele><time>2026-05-02T13:55:25.606Z</time></trkpt><trkpt lat="46.1314767" lon="13.4367983"><ele>204.5</ele><time>2026-05-02T13:55:26.609Z</time></trkpt><trkpt lat="46.1314133" lon="13.4368367"><ele>205.0</ele><time>2026-05-02T13:55:27.604Z</time></trkpt><trkpt lat="46.1313067" lon="13.43689"><ele>205.5</ele><time>2026-05-02T13:55:29.608Z</time></trkpt><trkpt lat="46.1312417" lon="13.436895"><ele>206.0</ele><time>2026-05-02T13:55:30.603Z</time></trkpt><trkpt lat="46.1311333" lon="13.4368967"><ele>206.5</ele><time>2026-05-02T13:55:32.608Z</time></trkpt><trkpt lat="46.1310767" lon="13.436955"><ele>207.0</ele><time>2026-05-02T13:55:34.607Z</time></trkpt><trkpt lat="46.1311283" lon="13.4370117"><ele>207.0</ele><time>2026-05-02T13:55:35.605Z</time></trkpt><trkpt lat="46.1311883" lon="13.4370467"><ele>207.0</ele><time>2026-05-02T13:55:36.604Z</time></trkpt><trkpt lat="46.13126" lon="13.43708"><ele>207.0</ele><time>2026-05-02T13:55:37.609Z</time></trkpt><trkpt lat="46.1313417" lon="13.4371217"><ele>207.0</ele><time>2026-05-02T13:55:38.608Z</time></trkpt><trkpt lat="46.1314233" lon="13.43716"><ele>207.0</ele><time>2026-05-02T13:55:39.606Z</time></trkpt><trkpt lat="46.1315083" lon="13.4372067"><ele>207.0</ele><time>2026-05-02T13:55:40.607Z</time></trkpt><trkpt lat="46.13158" lon="13.437265"><ele>209.2857142857143</ele><time>2026-05-02T13:55:41.608Z</time></trkpt><trkpt lat="46.1316467" lon="13.43733"><ele>211.57142857142858</ele><time>2026-05-02T13:55:42.61Z</time></trkpt><trkpt lat="46.1317033" lon="13.4374017"><ele>213.85714285714286</ele><time>2026-05-02T13:55:43.607Z</time></trkpt><trkpt lat="46.1317517" lon="13.4374783"><ele>216.14285714285717</ele><time>2026-05-02T13:55:44.608Z</time></trkpt><trkpt lat="46.131795" lon="13.4375633"><ele>218.42857142857142</ele><time>2026-05-02T13:55:45.604Z</time></trkpt><trkpt lat="46.1318383" lon="13.4376517"><ele>220.71428571428572</ele><time>2026-05-02T13:55:46.606Z</time></trkpt><trkpt lat="46.13188" lon="13.4377383"><ele>223.0</ele><time>2026-05-02T13:55:47.608Z</time></trkpt><trkpt lat="46.1319317" lon="13.4378383"><ele>222.99999999999997</ele><time>2026-05-02T13:55:48.607Z</time></trkpt><trkpt lat="46.1319833" lon="13.4379383"><ele>223.0</ele><time>2026-05-02T13:55:49.605Z</time></trkpt><trkpt lat="46.1320333" lon="13.43804"><ele>223.0</ele><time>2026-05-02T13:55:50.61Z</time></trkpt><trkpt lat="46.132075" lon="13.43814"><ele>223.0</ele><time>2026-05-02T13:55:51.609Z</time></trkpt><trkpt lat="46.13211" lon="13.4382483"><ele>222.99999999999997</ele><time>2026-05-02T13:55:52.607Z</time></trkpt><trkpt lat="46.1321467" lon="13.4383583"><ele>223.0</ele><time>2026-05-02T13:55:53.607Z</time></trkpt><trkpt lat="46.132185" lon="13.4384683"><ele>227.2</ele><time>2026-05-02T13:55:54.608Z</time></trkpt><trkpt lat="46.1322283" lon="13.43858"><ele>231.4</ele><time>2026-05-02T13:55:55.608Z</time></trkpt><trkpt lat="46.13228" lon="13.43869"><ele>235.59999999999997</ele><time>2026-05-02T13:55:56.611Z</time></trkpt><trkpt lat="46.1323417" lon="13.4387967"><ele>239.79999999999998</ele><time>2026-05-02T13:55:57.605Z</time></trkpt><trkpt lat="46.1323983" lon="13.4388983"><ele>244.0</ele><time>2026-05-02T13:55:58.608Z</time></trkpt><trkpt lat="46.132465" lon="13.4389933"><ele>245.99999999999997</ele><time>2026-05-02T13:55:59.609Z</time></trkpt><trkpt lat="46.1325333" lon="13.4390733"><ele>248.0</ele><time>2026-05-02T13:56:00.609Z</time></trkpt><trkpt lat="46.1325867" lon="13.4391517"><ele>250.0</ele><time>2026-05-02T13:56:01.604Z</time></trkpt><trkpt lat="46.1326417" lon="13.439235"><ele>252.0</ele><time>2026-05-02T13:56:02.609Z</time></trkpt><trkpt lat="46.132705" lon="13.4393217"><ele>253.99999999999997</ele><time>2026-05-02T13:56:03.611Z</time></trkpt><trkpt lat="46.1327617" lon="13.439405"><ele>256.0</ele><time>2026-05-02T13:56:04.605Z</time></trkpt><trkpt lat="46.1328183" lon="13.4394933"><ele>255.99999999999997</ele><time>2026-05-02T13:56:05.608Z</time></trkpt><trkpt lat="46.1328717" lon="13.4395733"><ele>256.0</ele><time>2026-05-02T13:56:06.609Z</time></trkpt><trkpt lat="46.1329183" lon="13.4396583"><ele>256.0</ele><time>2026-05-02T13:56:07.609Z</time></trkpt><trkpt lat="46.1329683" lon="13.4397383"><ele>256.0</ele><time>2026-05-02T13:56:08.606Z</time></trkpt><trkpt lat="46.13301" lon="13.43981"><ele>255.99999999999997</ele><time>2026-05-02T13:56:09.609Z</time></trkpt><trkpt lat="46.1330567" lon="13.4399167"><ele>256.0</ele><time>2026-05-02T13:56:11.608Z</time></trkpt><trkpt lat="46.13299" lon="13.4399533"><ele>256.0</ele><time>2026-05-02T13:56:14.61Z</time></trkpt><trkpt lat="46.1328767" lon="13.439845"><ele>256.0</ele><time>2026-05-02T13:56:16.606Z</time></trkpt><trkpt lat="46.132795" lon="13.4397683"><ele>256.0</ele><time>2026-05-02T13:56:17.607Z</time></trkpt><trkpt lat="46.13271" lon="13.4396933"><ele>256.0</ele><time>2026-05-02T13:56:18.609Z</time></trkpt><trkpt lat="46.1326133" lon="13.439605"><ele>256.0</ele><time>2026-05-02T13:56:19.608Z</time></trkpt><trkpt lat="46.13252" lon="13.4395283"><ele>256.0</ele><time>2026-05-02T13:56:20.61Z</time></trkpt><trkpt lat="46.1324317" lon="13.4394667"><ele>256.0</ele><time>2026-05-02T13:56:21.608Z</time></trkpt><trkpt lat="46.1323483" lon="13.4394067"><ele>256.0</ele><time>2026-05-02T13:56:22.605Z</time></trkpt><trkpt lat="46.1322583" lon="13.4393617"><ele>256.0</ele><time>2026-05-02T13:56:23.608Z</time></trkpt><trkpt lat="46.1321667" lon="13.4393383"><ele>256.0</ele><time>2026-05-02T13:56:24.608Z</time></trkpt><trkpt lat="46.1320817" lon="13.4393133"><ele>257.66666666666663</ele><time>2026-05-02T13:56:25.608Z</time></trkpt><trkpt lat="46.1320017" lon="13.4392867"><ele>259.3333333333333</ele><time>2026-05-02T13:56:26.606Z</time></trkpt><trkpt lat="46.131925" lon="13.4392617"><ele>261.0</ele><time>2026-05-02T13:56:27.608Z</time></trkpt><trkpt lat="46.1318533" lon="13.439245"><ele>262.6666666666667</ele><time>2026-05-02T13:56:28.609Z</time></trkpt><trkpt lat="46.1317817" lon="13.4392367"><ele>264.33333333333337</ele><time>2026-05-02T13:56:29.61Z</time></trkpt><trkpt lat="46.1317033" lon="13.4392483"><ele>266.0</ele><time>2026-05-02T13:56:30.61Z</time></trkpt><trkpt lat="46.13162" lon="13.4392833"><ele>269.33333333333337</ele><time>2026-05-02T13:56:31.605Z</time></trkpt><trkpt lat="46.1315317" lon="13.4393183"><ele>272.6666666666667</ele><time>2026-05-02T13:56:32.609Z</time></trkpt><trkpt lat="46.1314433" lon="13.43936"><ele>276.0</ele><time>2026-05-02T13:56:33.608Z</time></trkpt><trkpt lat="46.13136" lon="13.4394117"><ele>279.3333333333333</ele><time>2026-05-02T13:56:34.607Z</time></trkpt><trkpt lat="46.131295" lon="13.439465"><ele>282.66666666666663</ele><time>2026-05-02T13:56:35.609Z</time></trkpt><trkpt lat="46.1312567" lon="13.43957"><ele>286.0</ele><time>2026-05-02T13:56:37.608Z</time></trkpt><trkpt lat="46.1313167" lon="13.4396467"><ele>286.0</ele><time>2026-05-02T13:56:39.61Z</time></trkpt><trkpt lat="46.1314" lon="13.4396283"><ele>286.0</ele><time>2026-05-02T13:56:40.61Z</time></trkpt><trkpt lat="46.131505" lon="13.4395917"><ele>286.0</ele><time>2026-05-02T13:56:41.606Z</time></trkpt><trkpt lat="46.1316033" lon="13.4395683"><ele>286.0</ele><time>2026-05-02T13:56:42.61Z</time></trkpt><trkpt lat="46.1316833" lon="13.4395533"><ele>286.0</ele><time>2026-05-02T13:56:43.608Z</time></trkpt><trkpt lat="46.1317717" lon="13.4395583"><ele>286.8</ele><time>2026-05-02T13:56:44.61Z</time></trkpt><trkpt lat="46.131855" lon="13.439595"><ele>287.6</ele><time>2026-05-02T13:56:45.606Z</time></trkpt><trkpt lat="46.1319383" lon="13.4396633"><ele>288.4</ele><time>2026-05-02T13:56:46.609Z</time></trkpt><trkpt lat="46.1320233" lon="13.43975"><ele>289.2</ele><time>2026-05-02T13:56:47.61Z</time></trkpt><trkpt lat="46.1321033" lon="13.4398417"><ele>290.0</ele><time>2026-05-02T13:56:48.609Z</time></trkpt><trkpt lat="46.132175" lon="13.4399333"><ele>290.0</ele><time>2026-05-02T13:56:49.607Z</time></trkpt><trkpt lat="46.1322467" lon="13.44003"><ele>290.0</ele><time>2026-05-02T13:56:50.609Z</time></trkpt><trkpt lat="46.1323117" lon="13.4401367"><ele>290.0</ele><time>2026-05-02T13:56:51.607Z</time></trkpt><trkpt lat="46.1323583" lon="13.440245"><ele>290.0</ele><time>2026-05-02T13:56:52.605Z</time></trkpt><trkpt lat="46.132395" lon="13.440355"><ele>290.0</ele><time>2026-05-02T13:56:53.607Z</time></trkpt><trkpt lat="46.1324317" lon="13.44047"><ele>290.6666666666667</ele><time>2026-05-02T13:56:54.611Z</time></trkpt><trkpt lat="46.1324733" lon="13.4405867"><ele>291.33333333333337</ele><time>2026-05-02T13:56:55.607Z</time></trkpt><trkpt lat="46.1325117" lon="13.440705"><ele>292.0</ele><time>2026-05-02T13:56:56.605Z</time></trkpt><trkpt lat="46.1325367" lon="13.4408233"><ele>292.6666666666667</ele><time>2026-05-02T13:56:57.607Z</time></trkpt><trkpt lat="46.1325533" lon="13.4409367"><ele>293.3333333333333</ele><time>2026-05-02T13:56:58.609Z</time></trkpt><trkpt lat="46.1325517" lon="13.4410417"><ele>294.0</ele><time>2026-05-02T13:56:59.605Z</time></trkpt><trkpt lat="46.1325367" lon="13.4411333"><ele>294.0</ele><time>2026-05-02T13:57:00.608Z</time></trkpt><trkpt lat="46.132485" lon="13.4412833"><ele>294.0</ele><time>2026-05-02T13:57:02.612Z</time></trkpt><trkpt lat="46.1324583" lon="13.4413783"><ele>294.0</ele><time>2026-05-02T13:57:03.607Z</time></trkpt><trkpt lat="46.1324317" lon="13.4414883"><ele>294.0</ele><time>2026-05-02T13:57:04.608Z</time></trkpt><trkpt lat="46.132405" lon="13.4416"><ele>294.0</ele><time>2026-05-02T13:57:05.606Z</time></trkpt><trkpt lat="46.132385" lon="13.4417167"><ele>294.0</ele><time>2026-05-02T13:57:06.605Z</time></trkpt><trkpt lat="46.13236" lon="13.44183"><ele>297.2</ele><time>2026-05-02T13:57:07.608Z</time></trkpt><trkpt lat="46.13234" lon="13.4419383"><ele>300.4</ele><time>2026-05-02T13:57:08.609Z</time></trkpt><trkpt lat="46.13233" lon="13.4420383"><ele>303.6</ele><time>2026-05-02T13:57:09.607Z</time></trkpt><trkpt lat="46.1323367" lon="13.442195"><ele>306.8</ele><time>2026-05-02T13:57:11.609Z</time></trkpt><trkpt lat="46.1324017" lon="13.4423533"><ele>310.0</ele><time>2026-05-02T13:57:13.606Z</time></trkpt><trkpt lat="46.1324433" lon="13.442445"><ele>310.0</ele><time>2026-05-02T13:57:14.61Z</time></trkpt><trkpt lat="46.132485" lon="13.4425533"><ele>310.0</ele><time>2026-05-02T13:57:15.606Z</time></trkpt><trkpt lat="46.1325183" lon="13.4426767"><ele>310.0</ele><time>2026-05-02T13:57:16.606Z</time></trkpt><trkpt lat="46.1325483" lon="13.442805"><ele>310.0</ele><time>2026-05-02T13:57:17.605Z</time></trkpt><trkpt lat="46.1325733" lon="13.4429317"><ele>310.0</ele><time>2026-05-02T13:57:18.609Z</time></trkpt><trkpt lat="46.1325933" lon="13.4430533"><ele>310.0</ele><time>2026-05-02T13:57:19.604Z</time></trkpt><trkpt lat="46.1325967" lon="13.4431633"><ele>311.2857142857143</ele><time>2026-05-02T13:57:20.607Z</time></trkpt><trkpt lat="46.1325883" lon="13.4432667"><ele>312.57142857142856</ele><time>2026-05-02T13:57:21.602Z</time></trkpt><trkpt lat="46.1325717" lon="13.44337"><ele>313.8571428571429</ele><time>2026-05-02T13:57:22.606Z</time></trkpt><trkpt lat="46.1325633" lon="13.4434667"><ele>315.1428571428571</ele><time>2026-05-02T13:57:23.606Z</time></trkpt><trkpt lat="46.1325483" lon="13.4435567"><ele>316.4285714285714</ele><time>2026-05-02T13:57:24.608Z</time></trkpt><trkpt lat="46.1325533" lon="13.4436917"><ele>317.7142857142857</ele><time>2026-05-02T13:57:26.607Z</time></trkpt><trkpt lat="46.132615" lon="13.4437117"><ele>319.0</ele><time>2026-05-02T13:57:28.606Z</time></trkpt><trkpt lat="46.1327117" lon="13.443665"><ele>319.0</ele><time>2026-05-02T13:57:30.607Z</time></trkpt><trkpt lat="46.1327817" lon="13.4436283"><ele>319.0</ele><time>2026-05-02T13:57:31.608Z</time></trkpt><trkpt lat="46.1328567" lon="13.4436033"><ele>319.0</ele><time>2026-05-02T13:57:32.608Z</time></trkpt><trkpt lat="46.1329283" lon="13.4435967"><ele>319.0</ele><time>2026-05-02T13:57:33.609Z</time></trkpt><trkpt lat="46.1329933" lon="13.4436083"><ele>319.0</ele><time>2026-05-02T13:57:34.603Z</time></trkpt><trkpt lat="46.133055" lon="13.44365"><ele>319.0</ele><time>2026-05-02T13:57:35.604Z</time></trkpt><trkpt lat="46.133115" lon="13.443715"><ele>319.0</ele><time>2026-05-02T13:57:36.609Z</time></trkpt><trkpt lat="46.1331733" lon="13.4438033"><ele>318.8</ele><time>2026-05-02T13:57:37.608Z</time></trkpt><trkpt lat="46.133235" lon="13.44392"><ele>318.59999999999997</ele><time>2026-05-02T13:57:38.609Z</time></trkpt><trkpt lat="46.1332933" lon="13.4440433"><ele>318.4</ele><time>2026-05-02T13:57:39.608Z</time></trkpt><trkpt lat="46.133345" lon="13.4441617"><ele>318.2</ele><time>2026-05-02T13:57:40.606Z</time></trkpt><trkpt lat="46.1333883" lon="13.4442817"><ele>318.0</ele><time>2026-05-02T13:57:41.608Z</time></trkpt><trkpt lat="46.1334283" lon="13.4443867"><ele>318.0</ele><time>2026-05-02T13:57:42.603Z</time></trkpt><trkpt lat="46.1334633" lon="13.4444933"><ele>318.0</ele><time>2026-05-02T13:57:43.607Z</time></trkpt><trkpt lat="46.1334983" lon="13.4445783"><ele>318.0</ele><time>2026-05-02T13:57:44.609Z</time></trkpt><trkpt lat="46.1335367" lon="13.4446583"><ele>318.0</ele><time>2026-05-02T13:57:45.607Z</time></trkpt><trkpt lat="46.1335833" lon="13.4447217"><ele>318.0</ele><time>2026-05-02T13:57:46.604Z</time></trkpt><trkpt lat="46.1336483" lon="13.444765"><ele>318.0</ele><time>2026-05-02T13:57:47.606Z</time></trkpt><trkpt lat="46.1337617" lon="13.4447833"><ele>316.2</ele><time>2026-05-02T13:57:49.609Z</time></trkpt><trkpt lat="46.1338383" lon="13.4447583"><ele>314.4</ele><time>2026-05-02T13:57:50.605Z</time></trkpt><trkpt lat="46.13392" lon="13.4447133"><ele>312.59999999999997</ele><time>2026-05-02T13:57:51.61Z</time></trkpt><trkpt lat="46.1340083" lon="13.4446667"><ele>310.8</ele><time>2026-05-02T13:57:52.605Z</time></trkpt><trkpt lat="46.1341067" lon="13.4446133"><ele>309.0</ele><time>2026-05-02T13:57:53.609Z</time></trkpt><trkpt lat="46.1342117" lon="13.4445483"><ele>309.0</ele><time>2026-05-02T13:57:54.61Z</time></trkpt><trkpt lat="46.1343083" lon="13.4444783"><ele>309.0</ele><time>2026-05-02T13:57:55.607Z</time></trkpt><trkpt lat="46.1343983" lon="13.4444017"><ele>309.0</ele><time>2026-05-02T13:57:56.609Z</time></trkpt><trkpt lat="46.134475" lon="13.4443233"><ele>309.0</ele><time>2026-05-02T13:57:57.605Z</time></trkpt><trkpt lat="46.1345433" lon="13.444245"><ele>309.0</ele><time>2026-05-02T13:57:58.606Z</time></trkpt><trkpt lat="46.1345967" lon="13.4441633"><ele>309.0</ele><time>2026-05-02T13:57:59.608Z</time></trkpt><trkpt lat="46.1346267" lon="13.444065"><ele>309.0</ele><time>2026-05-02T13:58:00.609Z</time></trkpt><trkpt lat="46.1346483" lon="13.4439617"><ele>309.0</ele><time>2026-05-02T13:58:01.605Z</time></trkpt><trkpt lat="46.1346633" lon="13.4438483"><ele>309.0</ele><time>2026-05-02T13:58:02.61Z</time></trkpt><trkpt lat="46.13468" lon="13.443735"><ele>309.0</ele><time>2026-05-02T13:58:03.609Z</time></trkpt><trkpt lat="46.1346933" lon="13.443605"><ele>309.0</ele><time>2026-05-02T13:58:04.604Z</time></trkpt><trkpt lat="46.1347033" lon="13.4434683"><ele>308.0</ele><time>2026-05-02T13:58:05.607Z</time></trkpt><trkpt lat="46.1347183" lon="13.443335"><ele>307.0</ele><time>2026-05-02T13:58:06.603Z</time></trkpt><trkpt lat="46.134735" lon="13.443215"><ele>306.0</ele><time>2026-05-02T13:58:07.603Z</time></trkpt><trkpt lat="46.1347533" lon="13.4431217"><ele>305.0</ele><time>2026-05-02T13:58:08.609Z</time></trkpt><trkpt lat="46.1348033" lon="13.442985"><ele>304.0</ele><time>2026-05-02T13:58:10.608Z</time></trkpt><trkpt lat="46.13486" lon="13.4428967"><ele>303.0</ele><time>2026-05-02T13:58:13.607Z</time></trkpt><trkpt lat="46.1349417" lon="13.4429017"><ele>304.0</ele><time>2026-05-02T13:58:16.607Z</time></trkpt><trkpt lat="46.1349983" lon="13.4430117"><ele>305.0</ele><time>2026-05-02T13:58:18.608Z</time></trkpt><trkpt lat="46.1350267" lon="13.4430967"><ele>306.0</ele><time>2026-05-02T13:58:19.608Z</time></trkpt><trkpt lat="46.13505" lon="13.4431917"><ele>307.0</ele><time>2026-05-02T13:58:20.605Z</time></trkpt><trkpt lat="46.135075" lon="13.4433567"><ele>308.0</ele><time>2026-05-02T13:58:22.606Z</time></trkpt><trkpt lat="46.1350717" lon="13.4435233"><ele>308.0</ele><time>2026-05-02T13:58:24.608Z</time></trkpt><trkpt lat="46.1350517" lon="13.4436217"><ele>308.0</ele><time>2026-05-02T13:58:25.609Z</time></trkpt><trkpt lat="46.1350217" lon="13.44372"><ele>308.0</ele><time>2026-05-02T13:58:26.605Z</time></trkpt><trkpt lat="46.1349917" lon="13.4438217"><ele>308.0</ele><time>2026-05-02T13:58:27.606Z</time></trkpt><trkpt lat="46.1349733" lon="13.4439267"><ele>308.0</ele><time>2026-05-02T13:58:28.605Z</time></trkpt><trkpt lat="46.1349717" lon="13.44403"><ele>308.0</ele><time>2026-05-02T13:58:29.608Z</time></trkpt><trkpt lat="46.1349783" lon="13.4441283"><ele>308.0</ele><time>2026-05-02T13:58:30.609Z</time></trkpt><trkpt lat="46.1350017" lon="13.4442267"><ele>309.2</ele><time>2026-05-02T13:58:31.609Z</time></trkpt><trkpt lat="46.1350217" lon="13.4443483"><ele>310.4</ele><time>2026-05-02T13:58:32.608Z</time></trkpt><trkpt lat="46.1350333" lon="13.4444817"><ele>311.59999999999997</ele><time>2026-05-02T13:58:33.608Z</time></trkpt><trkpt lat="46.1350317" lon="13.4446133"><ele>312.8</ele><time>2026-05-02T13:58:34.604Z</time></trkpt><trkpt lat="46.1350233" lon="13.4447483"><ele>314.0</ele><time>2026-05-02T13:58:35.603Z</time></trkpt><trkpt lat="46.13501" lon="13.4448817"><ele>315.4285714285714</ele><time>2026-05-02T13:58:36.605Z</time></trkpt><trkpt lat="46.1349983" lon="13.4449967"><ele>316.85714285714283</ele><time>2026-05-02T13:58:37.605Z</time></trkpt><trkpt lat="46.134995" lon="13.4451133"><ele>318.2857142857143</ele><time>2026-05-02T13:58:38.607Z</time></trkpt><trkpt lat="46.135005" lon="13.4452233"><ele>319.71428571428567</ele><time>2026-05-02T13:58:39.608Z</time></trkpt><trkpt lat="46.1350233" lon="13.4453283"><ele>321.1428571428571</ele><time>2026-05-02T13:58:40.609Z</time></trkpt><trkpt lat="46.135055" lon="13.445415"><ele>322.57142857142856</ele><time>2026-05-02T13:58:41.607Z</time></trkpt><trkpt lat="46.135095" lon="13.4454883"><ele>324.0</ele><time>2026-05-02T13:58:42.609Z</time></trkpt><trkpt lat="46.13519" lon="13.4455467"><ele>327.2</ele><time>2026-05-02T13:58:44.61Z</time></trkpt><trkpt lat="46.135255" lon="13.44557"><ele>330.4</ele><time>2026-05-02T13:58:45.607Z</time></trkpt><trkpt lat="46.135375" lon="13.44563"><ele>333.6</ele><time>2026-05-02T13:58:47.608Z</time></trkpt><trkpt lat="46.1354283" lon="13.4456983"><ele>336.8</ele><time>2026-05-02T13:58:48.608Z</time></trkpt><trkpt lat="46.1354983" lon="13.4457817"><ele>340.0</ele><time>2026-05-02T13:58:49.608Z</time></trkpt><trkpt lat="46.135575" lon="13.4458883"><ele>340.0</ele><time>2026-05-02T13:58:50.609Z</time></trkpt><trkpt lat="46.1356617" lon="13.4460133"><ele>340.0</ele><time>2026-05-02T13:58:51.608Z</time></trkpt><trkpt lat="46.13574" lon="13.4461467"><ele>340.0</ele><time>2026-05-02T13:58:52.606Z</time></trkpt><trkpt lat="46.1358033" lon="13.4462583"><ele>340.0</ele><time>2026-05-02T13:58:53.609Z</time></trkpt><trkpt lat="46.1358633" lon="13.446355"><ele>340.0</ele><time>2026-05-02T13:58:54.608Z</time></trkpt><trkpt lat="46.135905" lon="13.44646"><ele>343.6</ele><time>2026-05-02T13:58:55.608Z</time></trkpt><trkpt lat="46.1359217" lon="13.4465833"><ele>347.2</ele><time>2026-05-02T13:58:56.609Z</time></trkpt><trkpt lat="46.135925" lon="13.4467267"><ele>350.79999999999995</ele><time>2026-05-02T13:58:57.605Z</time></trkpt><trkpt lat="46.1359117" lon="13.4468783"><ele>354.4</ele><time>2026-05-02T13:58:58.606Z</time></trkpt><trkpt lat="46.1358967" lon="13.4469967"><ele>358.0</ele><time>2026-05-02T13:58:59.603Z</time></trkpt><trkpt lat="46.13586" lon="13.4471517"><ele>361.0</ele><time>2026-05-02T13:59:01.607Z</time></trkpt><trkpt lat="46.13585" lon="13.447285"><ele>364.0</ele><time>2026-05-02T13:59:03.609Z</time></trkpt><trkpt lat="46.1358733" lon="13.4473883"><ele>367.0</ele><time>2026-05-02T13:59:05.608Z</time></trkpt><trkpt lat="46.1359383" lon="13.447395"><ele>370.0</ele><time>2026-05-02T13:59:07.608Z</time></trkpt><trkpt lat="46.1360533" lon="13.4473317"><ele>373.0</ele><time>2026-05-02T13:59:09.608Z</time></trkpt><trkpt lat="46.1361333" lon="13.4472617"><ele>373.0</ele><time>2026-05-02T13:59:10.604Z</time></trkpt><trkpt lat="46.1362217" lon="13.44718"><ele>373.0</ele><time>2026-05-02T13:59:11.609Z</time></trkpt><trkpt lat="46.1363067" lon="13.4470967"><ele>373.0</ele><time>2026-05-02T13:59:12.609Z</time></trkpt><trkpt lat="46.1363717" lon="13.4470467"><ele>373.0</ele><time>2026-05-02T13:59:13.606Z</time></trkpt><trkpt lat="46.1364367" lon="13.447035"><ele>373.0</ele><time>2026-05-02T13:59:14.609Z</time></trkpt><trkpt lat="46.1365" lon="13.44707"><ele>373.0</ele><time>2026-05-02T13:59:15.604Z</time></trkpt><trkpt lat="46.1365717" lon="13.447155"><ele>371.16666666666663</ele><time>2026-05-02T13:59:16.606Z</time></trkpt><trkpt lat="46.1366467" lon="13.4472583"><ele>369.3333333333333</ele><time>2026-05-02T13:59:17.604Z</time></trkpt><trkpt lat="46.136705" lon="13.4473633"><ele>367.5</ele><time>2026-05-02T13:59:18.609Z</time></trkpt><trkpt lat="46.1367533" lon="13.447475"><ele>365.6666666666667</ele><time>2026-05-02T13:59:19.608Z</time></trkpt><trkpt lat="46.1367883" lon="13.4475817"><ele>363.83333333333337</ele><time>2026-05-02T13:59:20.609Z</time></trkpt><trkpt lat="46.1368183" lon="13.4476833"><ele>362.0</ele><time>2026-05-02T13:59:21.607Z</time></trkpt><trkpt lat="46.1368383" lon="13.447795"><ele>362.0</ele><time>2026-05-02T13:59:22.604Z</time></trkpt><trkpt lat="46.1368517" lon="13.44792"><ele>362.0</ele><time>2026-05-02T13:59:23.608Z</time></trkpt><trkpt lat="46.1368533" lon="13.4480317"><ele>362.0</ele><time>2026-05-02T13:59:24.609Z</time></trkpt><trkpt lat="46.1368433" lon="13.4481517"><ele>362.0</ele><time>2026-05-02T13:59:25.607Z</time></trkpt><trkpt lat="46.1368467" lon="13.448265"><ele>362.0</ele><time>2026-05-02T13:59:26.605Z</time></trkpt><trkpt lat="46.136855" lon="13.4483733"><ele>362.0</ele><time>2026-05-02T13:59:27.61Z</time></trkpt><trkpt lat="46.1368633" lon="13.4484833"><ele>364.33333333333337</ele><time>2026-05-02T13:59:28.609Z</time></trkpt><trkpt lat="46.13687" lon="13.4485917"><ele>366.6666666666667</ele><time>2026-05-02T13:59:29.608Z</time></trkpt><trkpt lat="46.1368767" lon="13.4487033"><ele>369.0</ele><time>2026-05-02T13:59:30.605Z</time></trkpt><trkpt lat="46.1368833" lon="13.4488133"><ele>371.3333333333333</ele><time>2026-05-02T13:59:31.609Z</time></trkpt><trkpt lat="46.1368817" lon="13.4489267"><ele>373.66666666666663</ele><time>2026-05-02T13:59:32.608Z</time></trkpt><trkpt lat="46.1368667" lon="13.449055"><ele>376.0</ele><time>2026-05-02T13:59:33.607Z</time></trkpt><trkpt lat="46.1368417" lon="13.449175"><ele>378.3333333333333</ele><time>2026-05-02T13:59:34.605Z</time></trkpt><trkpt lat="46.1368167" lon="13.4492767"><ele>380.66666666666663</ele><time>2026-05-02T13:59:35.606Z</time></trkpt><trkpt lat="46.1367833" lon="13.4493733"><ele>383.0</ele><time>2026-05-02T13:59:36.605Z</time></trkpt><trkpt lat="46.1367533" lon="13.4494583"><ele>385.3333333333333</ele><time>2026-05-02T13:59:37.603Z</time></trkpt><trkpt lat="46.1367317" lon="13.44963"><ele>387.6666666666667</ele><time>2026-05-02T13:59:39.603Z</time></trkpt><trkpt lat="46.13675" lon="13.4497567"><ele>390.0</ele><time>2026-05-02T13:59:41.608Z</time></trkpt><trkpt lat="46.1368467" lon="13.4498183"><ele>392.1428571428571</ele><time>2026-05-02T13:59:43.603Z</time></trkpt><trkpt lat="46.1369133" lon="13.44983"><ele>394.2857142857143</ele><time>2026-05-02T13:59:44.608Z</time></trkpt><trkpt lat="46.1369817" lon="13.4498517"><ele>396.42857142857144</ele><time>2026-05-02T13:59:45.609Z</time></trkpt><trkpt lat="46.13705" lon="13.4498983"><ele>398.57142857142856</ele><time>2026-05-02T13:59:46.605Z</time></trkpt><trkpt lat="46.137115" lon="13.4499683"><ele>400.7142857142857</ele><time>2026-05-02T13:59:47.608Z</time></trkpt><trkpt lat="46.1371467" lon="13.45006"><ele>402.85714285714283</ele><time>2026-05-02T13:59:48.608Z</time></trkpt><trkpt lat="46.1371583" lon="13.4501667"><ele>405.0</ele><time>2026-05-02T13:59:49.602Z</time></trkpt><trkpt lat="46.13716" lon="13.45028"><ele>405.0</ele><time>2026-05-02T13:59:50.606Z</time></trkpt><trkpt lat="46.13714" lon="13.4503933"><ele>405.0</ele><time>2026-05-02T13:59:51.606Z</time></trkpt><trkpt lat="46.1371017" lon="13.45051"><ele>405.0</ele><time>2026-05-02T13:59:52.605Z</time></trkpt><trkpt lat="46.1370517" lon="13.45063"><ele>405.0</ele><time>2026-05-02T13:59:53.606Z</time></trkpt><trkpt lat="46.1370017" lon="13.4507417"><ele>405.0</ele><time>2026-05-02T13:59:54.606Z</time></trkpt><trkpt lat="46.1369617" lon="13.45084"><ele>405.0</ele><time>2026-05-02T13:59:55.607Z</time></trkpt><trkpt lat="46.1369333" lon="13.4509333"><ele>407.1428571428571</ele><time>2026-05-02T13:59:56.608Z</time></trkpt><trkpt lat="46.1369217" lon="13.4510267"><ele>409.2857142857143</ele><time>2026-05-02T13:59:57.606Z</time></trkpt><trkpt lat="46.136955" lon="13.451145"><ele>411.42857142857144</ele><time>2026-05-02T13:59:59.609Z</time></trkpt><trkpt lat="46.137015" lon="13.451185"><ele>413.57142857142856</ele><time>2026-05-02T14:00:00.605Z</time></trkpt><trkpt lat="46.137085" lon="13.4512267"><ele>415.7142857142857</ele><time>2026-05-02T14:00:01.604Z</time></trkpt><trkpt lat="46.137155" lon="13.45127"><ele>417.85714285714283</ele><time>2026-05-02T14:00:02.603Z</time></trkpt><trkpt lat="46.1372183" lon="13.451315"><ele>420.0</ele><time>2026-05-02T14:00:03.608Z</time></trkpt><trkpt lat="46.1372617" lon="13.451395"><ele>422.4</ele><time>2026-05-02T14:00:05.607Z</time></trkpt><trkpt lat="46.137195" lon="13.4514633"><ele>424.8</ele><time>2026-05-02T14:00:07.609Z</time></trkpt><trkpt lat="46.1370767" lon="13.45147"><ele>427.20000000000005</ele><time>2026-05-02T14:00:09.608Z</time></trkpt><trkpt lat="46.1369933" lon="13.4514467"><ele>429.6</ele><time>2026-05-02T14:00:10.607Z</time></trkpt><trkpt lat="46.1369233" lon="13.45141"><ele>432.0</ele><time>2026-05-02T14:00:11.605Z</time></trkpt><trkpt lat="46.1368217" lon="13.4513183"><ele>429.6</ele><time>2026-05-02T14:00:13.607Z</time></trkpt><trkpt lat="46.1367683" lon="13.45115"><ele>427.20000000000005</ele><time>2026-05-02T14:00:15.608Z</time></trkpt><trkpt lat="46.1367483" lon="13.4510383"><ele>424.8</ele><time>2026-05-02T14:00:16.608Z</time></trkpt><trkpt lat="46.136725" lon="13.4509183"><ele>422.4</ele><time>2026-05-02T14:00:17.606Z</time></trkpt><trkpt lat="46.1366917" lon="13.4508067"><ele>420.0</ele><time>2026-05-02T14:00:18.609Z</time></trkpt><trkpt lat="46.136645" lon="13.4507033"><ele>420.0</ele><time>2026-05-02T14:00:19.609Z</time></trkpt><trkpt lat="46.1365817" lon="13.4506083"><ele>420.0</ele><time>2026-05-02T14:00:20.61Z</time></trkpt><trkpt lat="46.136505" lon="13.4505083"><ele>420.0</ele><time>2026-05-02T14:00:21.608Z</time></trkpt><trkpt lat="46.13642" lon="13.4504033"><ele>420.0</ele><time>2026-05-02T14:00:22.606Z</time></trkpt><trkpt lat="46.13633" lon="13.4503"><ele>420.0</ele><time>2026-05-02T14:00:23.608Z</time></trkpt><trkpt lat="46.13625" lon="13.450195"><ele>419.0</ele><time>2026-05-02T14:00:24.609Z</time></trkpt><trkpt lat="46.1361817" lon="13.450095"><ele>418.0</ele><time>2026-05-02T14:00:25.607Z</time></trkpt><trkpt lat="46.136125" lon="13.44999"><ele>417.0</ele><time>2026-05-02T14:00:26.61Z</time></trkpt><trkpt lat="46.1360833" lon="13.449885"><ele>416.0</ele><time>2026-05-02T14:00:27.607Z</time></trkpt><trkpt lat="46.1360467" lon="13.449775"><ele>415.0</ele><time>2026-05-02T14:00:28.608Z</time></trkpt><trkpt lat="46.136015" lon="13.4496733"><ele>414.0</ele><time>2026-05-02T14:00:29.608Z</time></trkpt><trkpt lat="46.13598" lon="13.449585"><ele>414.0</ele><time>2026-05-02T14:00:30.608Z</time></trkpt><trkpt lat="46.1359283" lon="13.4495117"><ele>414.0</ele><time>2026-05-02T14:00:31.609Z</time></trkpt><trkpt lat="46.1358667" lon="13.44945"><ele>414.0</ele><time>2026-05-02T14:00:32.608Z</time></trkpt><trkpt lat="46.1358" lon="13.4493917"><ele>414.0</ele><time>2026-05-02T14:00:33.605Z</time></trkpt><trkpt lat="46.135725" lon="13.4493483"><ele>414.0</ele><time>2026-05-02T14:00:34.604Z</time></trkpt><trkpt lat="46.1356367" lon="13.4493133"><ele>414.0</ele><time>2026-05-02T14:00:35.606Z</time></trkpt><trkpt lat="46.1355483" lon="13.449285"><ele>417.8333333333333</ele><time>2026-05-02T14:00:36.608Z</time></trkpt><trkpt lat="46.1354567" lon="13.4492533"><ele>421.66666666666663</ele><time>2026-05-02T14:00:37.609Z</time></trkpt><trkpt lat="46.1353667" lon="13.449235"><ele>425.5</ele><time>2026-05-02T14:00:38.611Z</time></trkpt><trkpt lat="46.13528" lon="13.4492133"><ele>429.3333333333333</ele><time>2026-05-02T14:00:39.608Z</time></trkpt><trkpt lat="46.1352" lon="13.4491983"><ele>433.16666666666663</ele><time>2026-05-02T14:00:40.609Z</time></trkpt><trkpt lat="46.1351333" lon="13.4491783"><ele>437.0</ele><time>2026-05-02T14:00:41.609Z</time></trkpt><trkpt lat="46.135065" lon="13.4491417"><ele>437.0</ele><time>2026-05-02T14:00:42.608Z</time></trkpt><trkpt lat="46.1349667" lon="13.4490083"><ele>437.00000000000006</ele><time>2026-05-02T14:00:44.608Z</time></trkpt><trkpt lat="46.134925" lon="13.448905"><ele>437.00000000000006</ele><time>2026-05-02T14:00:45.607Z</time></trkpt><trkpt lat="46.134875" lon="13.448815"><ele>437.0</ele><time>2026-05-02T14:00:46.608Z</time></trkpt><trkpt lat="46.1348167" lon="13.4487317"><ele>437.0</ele><time>2026-05-02T14:00:47.606Z</time></trkpt><trkpt lat="46.1347483" lon="13.4486567"><ele>437.16666666666663</ele><time>2026-05-02T14:00:48.61Z</time></trkpt><trkpt lat="46.1346733" lon="13.4485783"><ele>437.3333333333333</ele><time>2026-05-02T14:00:49.609Z</time></trkpt><trkpt lat="46.1345983" lon="13.4485267"><ele>437.5</ele><time>2026-05-02T14:00:50.611Z</time></trkpt><trkpt lat="46.134525" lon="13.4484633"><ele>437.66666666666663</ele><time>2026-05-02T14:00:51.609Z</time></trkpt><trkpt lat="46.1344467" lon="13.4484183"><ele>437.8333333333333</ele><time>2026-05-02T14:00:52.607Z</time></trkpt><trkpt lat="46.134355" lon="13.448385"><ele>438.0</ele><time>2026-05-02T14:00:53.608Z</time></trkpt><trkpt lat="46.13425" lon="13.4483533"><ele>438.0</ele><time>2026-05-02T14:00:54.605Z</time></trkpt><trkpt lat="46.134135" lon="13.4483067"><ele>437.99999999999994</ele><time>2026-05-02T14:00:55.609Z</time></trkpt><trkpt lat="46.1340283" lon="13.448265"><ele>437.99999999999994</ele><time>2026-05-02T14:00:56.609Z</time></trkpt><trkpt lat="46.1339233" lon="13.4482317"><ele>438.0</ele><time>2026-05-02T14:00:57.607Z</time></trkpt><trkpt lat="46.1338217" lon="13.4481883"><ele>438.0</ele><time>2026-05-02T14:00:58.607Z</time></trkpt><trkpt lat="46.133725" lon="13.4481583"><ele>439.59999999999997</ele><time>2026-05-02T14:00:59.609Z</time></trkpt><trkpt lat="46.1336333" lon="13.4481167"><ele>441.19999999999993</ele><time>2026-05-02T14:01:00.61Z</time></trkpt><trkpt lat="46.13355" lon="13.44808"><ele>442.8</ele><time>2026-05-02T14:01:01.609Z</time></trkpt><trkpt lat="46.133425" lon="13.4481083"><ele>444.4</ele><time>2026-05-02T14:01:03.609Z</time></trkpt><trkpt lat="46.133365" lon="13.4481533"><ele>446.0</ele><time>2026-05-02T14:01:04.608Z</time></trkpt><trkpt lat="46.1333033" lon="13.44822"><ele>445.99999999999994</ele><time>2026-05-02T14:01:05.606Z</time></trkpt><trkpt lat="46.1332383" lon="13.4483033"><ele>446.0</ele><time>2026-05-02T14:01:06.609Z</time></trkpt><trkpt lat="46.1331733" lon="13.44839"><ele>446.0</ele><time>2026-05-02T14:01:07.609Z</time></trkpt><trkpt lat="46.133105" lon="13.4484717"><ele>446.0</ele><time>2026-05-02T14:01:08.611Z</time></trkpt><trkpt lat="46.133045" lon="13.448545"><ele>445.99999999999994</ele><time>2026-05-02T14:01:09.608Z</time></trkpt><trkpt lat="46.1329883" lon="13.4485883"><ele>446.0</ele><time>2026-05-02T14:01:10.606Z</time></trkpt><trkpt lat="46.132925" lon="13.448605"><ele>447.99999999999994</ele><time>2026-05-02T14:01:11.603Z</time></trkpt><trkpt lat="46.13286" lon="13.4485883"><ele>450.0</ele><time>2026-05-02T14:01:12.605Z</time></trkpt><trkpt lat="46.1327983" lon="13.4485383"><ele>452.0</ele><time>2026-05-02T14:01:13.604Z</time></trkpt><trkpt lat="46.1327483" lon="13.4484583"><ele>454.0</ele><time>2026-05-02T14:01:14.608Z</time></trkpt><trkpt lat="46.1326983" lon="13.44836"><ele>455.99999999999994</ele><time>2026-05-02T14:01:15.604Z</time></trkpt><trkpt lat="46.132645" lon="13.4482483"><ele>458.0</ele><time>2026-05-02T14:01:16.608Z</time></trkpt><trkpt lat="46.1325867" lon="13.448135"><ele>458.0</ele><time>2026-05-02T14:01:17.607Z</time></trkpt><trkpt lat="46.1325267" lon="13.4480233"><ele>457.99999999999994</ele><time>2026-05-02T14:01:18.61Z</time></trkpt><trkpt lat="46.1324617" lon="13.44792"><ele>457.99999999999994</ele><time>2026-05-02T14:01:19.607Z</time></trkpt><trkpt lat="46.1323917" lon="13.4478167"><ele>458.0</ele><time>2026-05-02T14:01:20.61Z</time></trkpt><trkpt lat="46.1323117" lon="13.4477217"><ele>458.0</ele><time>2026-05-02T14:01:21.609Z</time></trkpt><trkpt lat="46.1322267" lon="13.4476317"><ele>457.2</ele><time>2026-05-02T14:01:22.607Z</time></trkpt><trkpt lat="46.132135" lon="13.4475533"><ele>456.4</ele><time>2026-05-02T14:01:23.609Z</time></trkpt><trkpt lat="46.132035" lon="13.44748"><ele>455.59999999999997</ele><time>2026-05-02T14:01:24.605Z</time></trkpt><trkpt lat="46.1319467" lon="13.4474133"><ele>454.79999999999995</ele><time>2026-05-02T14:01:25.609Z</time></trkpt><trkpt lat="46.1318717" lon="13.4473583"><ele>454.0</ele><time>2026-05-02T14:01:26.61Z</time></trkpt><trkpt lat="46.1317983" lon="13.447315"><ele>454.00000000000006</ele><time>2026-05-02T14:01:27.608Z</time></trkpt><trkpt lat="46.1317233" lon="13.4472967"><ele>454.0</ele><time>2026-05-02T14:01:28.605Z</time></trkpt><trkpt lat="46.1316467" lon="13.4473"><ele>454.0</ele><time>2026-05-02T14:01:29.607Z</time></trkpt><trkpt lat="46.13157" lon="13.44731"><ele>454.0</ele><time>2026-05-02T14:01:30.608Z</time></trkpt><trkpt lat="46.1315" lon="13.4473317"><ele>454.00000000000006</ele><time>2026-05-02T14:01:31.607Z</time></trkpt><trkpt lat="46.1314217" lon="13.4473717"><ele>454.0</ele><time>2026-05-02T14:01:32.608Z</time></trkpt><trkpt lat="46.1313433" lon="13.4474217"><ele>454.2</ele><time>2026-05-02T14:01:33.607Z</time></trkpt><trkpt lat="46.1312633" lon="13.4474967"><ele>454.4</ele><time>2026-05-02T14:01:34.605Z</time></trkpt><trkpt lat="46.1311867" lon="13.4475683"><ele>454.6</ele><time>2026-05-02T14:01:35.607Z</time></trkpt><trkpt lat="46.1311167" lon="13.44763"><ele>454.8</ele><time>2026-05-02T14:01:36.605Z</time></trkpt><trkpt lat="46.1310533" lon="13.4476733"><ele>455.0</ele><time>2026-05-02T14:01:37.607Z</time></trkpt><trkpt lat="46.1309317" lon="13.4477217"><ele>455.0</ele><time>2026-05-02T14:01:39.606Z</time></trkpt><trkpt lat="46.1308083" lon="13.4477333"><ele>455.0</ele><time>2026-05-02T14:01:41.605Z</time></trkpt><trkpt lat="46.1306983" lon="13.4477333"><ele>455.0</ele><time>2026-05-02T14:01:43.604Z</time></trkpt><trkpt lat="46.1306133" lon="13.4477"><ele>455.0</ele><time>2026-05-02T14:01:45.607Z</time></trkpt><trkpt lat="46.1305633" lon="13.4476017"><ele>455.0</ele><time>2026-05-02T14:01:47.606Z</time></trkpt><trkpt lat="46.1305467" lon="13.4474617"><ele>456.4</ele><time>2026-05-02T14:01:49.608Z</time></trkpt><trkpt lat="46.13054" lon="13.4473283"><ele>457.8</ele><time>2026-05-02T14:01:51.608Z</time></trkpt><trkpt lat="46.1305367" lon="13.4471683"><ele>459.20000000000005</ele><time>2026-05-02T14:01:53.607Z</time></trkpt><trkpt lat="46.1305383" lon="13.447015"><ele>460.6</ele><time>2026-05-02T14:01:55.608Z</time></trkpt><trkpt lat="46.1305417" lon="13.44685"><ele>462.0</ele><time>2026-05-02T14:01:57.608Z</time></trkpt><trkpt lat="46.1305417" lon="13.4467"><ele>462.0</ele><time>2026-05-02T14:01:59.609Z</time></trkpt><trkpt lat="46.13052" lon="13.4465717"><ele>462.00000000000006</ele><time>2026-05-02T14:02:01.607Z</time></trkpt><trkpt lat="46.1304733" lon="13.4464467"><ele>462.00000000000006</ele><time>2026-05-02T14:02:03.609Z</time></trkpt><trkpt lat="46.1304133" lon="13.4463267"><ele>462.0</ele><time>2026-05-02T14:02:05.606Z</time></trkpt><trkpt lat="46.13033" lon="13.4462183"><ele>462.0</ele><time>2026-05-02T14:02:07.608Z</time></trkpt><trkpt lat="46.1302583" lon="13.4461483"><ele>458.5</ele><time>2026-05-02T14:02:09.609Z</time></trkpt><trkpt lat="46.130175" lon="13.4461033"><ele>455.0</ele><time>2026-05-02T14:02:11.607Z</time></trkpt><trkpt lat="46.130095" lon="13.4460883"><ele>451.5</ele><time>2026-05-02T14:02:13.611Z</time></trkpt><trkpt lat="46.1300033" lon="13.4460583"><ele>448.0</ele><time>2026-05-02T14:02:15.61Z</time></trkpt><trkpt lat="46.1299033" lon="13.4460117"><ele>444.5</ele><time>2026-05-02T14:02:17.605Z</time></trkpt><trkpt lat="46.1298417" lon="13.4459867"><ele>441.0</ele><time>2026-05-02T14:02:18.61Z</time></trkpt><trkpt lat="46.1297267" lon="13.44596"><ele>440.4</ele><time>2026-05-02T14:02:20.608Z</time></trkpt><trkpt lat="46.12966" lon="13.4459517"><ele>439.8</ele><time>2026-05-02T14:02:21.606Z</time></trkpt><trkpt lat="46.1295967" lon="13.4459417"><ele>439.19999999999993</ele><time>2026-05-02T14:02:22.608Z</time></trkpt><trkpt lat="46.12948" lon="13.4459333"><ele>438.59999999999997</ele><time>2026-05-02T14:02:24.607Z</time></trkpt><trkpt lat="46.1293617" lon="13.4459267"><ele>438.0</ele><time>2026-05-02T14:02:26.609Z</time></trkpt><trkpt lat="46.1292467" lon="13.4458983"><ele>438.0</ele><time>2026-05-02T14:02:28.604Z</time></trkpt><trkpt lat="46.1291283" lon="13.44591"><ele>437.99999999999994</ele><time>2026-05-02T14:02:30.609Z</time></trkpt><trkpt lat="46.129" lon="13.4459"><ele>437.99999999999994</ele><time>2026-05-02T14:02:32.609Z</time></trkpt><trkpt lat="46.1289267" lon="13.4458933"><ele>438.0</ele><time>2026-05-02T14:02:33.609Z</time></trkpt><trkpt lat="46.12885" lon="13.4458833"><ele>438.0</ele><time>2026-05-02T14:02:34.608Z</time></trkpt><trkpt lat="46.1287767" lon="13.4458583"><ele>437.8333333333333</ele><time>2026-05-02T14:02:35.605Z</time></trkpt><trkpt lat="46.1287133" lon="13.4458367"><ele>437.66666666666663</ele><time>2026-05-02T14:02:36.608Z</time></trkpt><trkpt lat="46.128595" lon="13.4457933"><ele>437.5</ele><time>2026-05-02T14:02:38.612Z</time></trkpt><trkpt lat="46.1284767" lon="13.4457783"><ele>437.3333333333333</ele><time>2026-05-02T14:02:40.604Z</time></trkpt><trkpt lat="46.12841" lon="13.4457667"><ele>437.16666666666663</ele><time>2026-05-02T14:02:41.61Z</time></trkpt><trkpt lat="46.128345" lon="13.4457683"><ele>437.0</ele><time>2026-05-02T14:02:42.61Z</time></trkpt><trkpt lat="46.12827" lon="13.4457583"><ele>436.99999999999994</ele><time>2026-05-02T14:02:43.608Z</time></trkpt><trkpt lat="46.1282033" lon="13.4457433"><ele>437.0</ele><time>2026-05-02T14:02:44.608Z</time></trkpt><trkpt lat="46.1281433" lon="13.445715"><ele>437.0</ele><time>2026-05-02T14:02:45.606Z</time></trkpt><trkpt lat="46.1280817" lon="13.4456883"><ele>437.0</ele><time>2026-05-02T14:02:46.607Z</time></trkpt><trkpt lat="46.1279767" lon="13.4456167"><ele>436.99999999999994</ele><time>2026-05-02T14:02:48.611Z</time></trkpt><trkpt lat="46.1278817" lon="13.4455267"><ele>437.0</ele><time>2026-05-02T14:02:50.611Z</time></trkpt><trkpt lat="46.1277883" lon="13.445455"><ele>433.20000000000005</ele><time>2026-05-02T14:02:52.607Z</time></trkpt><trkpt lat="46.1276983" lon="13.4454133"><ele>429.40000000000003</ele><time>2026-05-02T14:02:54.609Z</time></trkpt><trkpt lat="46.1275967" lon="13.4453767"><ele>425.6</ele><time>2026-05-02T14:02:56.609Z</time></trkpt><trkpt lat="46.127495" lon="13.4453183"><ele>421.79999999999995</ele><time>2026-05-02T14:02:58.607Z</time></trkpt><trkpt lat="46.1274133" lon="13.445245"><ele>418.0</ele><time>2026-05-02T14:03:00.67Z</time></trkpt><trkpt lat="46.1273367" lon="13.44517"><ele>418.0</ele><time>2026-05-02T14:03:02.608Z</time></trkpt><trkpt lat="46.1272767" lon="13.445105"><ele>418.0</ele><time>2026-05-02T14:03:03.607Z</time></trkpt><trkpt lat="46.1272183" lon="13.4450283"><ele>418.0</ele><time>2026-05-02T14:03:04.608Z</time></trkpt><trkpt lat="46.1271733" lon="13.4449483"><ele>418.0</ele><time>2026-05-02T14:03:05.608Z</time></trkpt><trkpt lat="46.1271333" lon="13.4448533"><ele>418.0</ele><time>2026-05-02T14:03:06.605Z</time></trkpt><trkpt lat="46.1270983" lon="13.444775"><ele>418.0</ele><time>2026-05-02T14:03:07.608Z</time></trkpt><trkpt lat="46.1270617" lon="13.4446967"><ele>418.0</ele><time>2026-05-02T14:03:08.605Z</time></trkpt><trkpt lat="46.1270017" lon="13.4445533"><ele>415.2</ele><time>2026-05-02T14:03:10.606Z</time></trkpt><trkpt lat="46.1269667" lon="13.444475"><ele>412.4</ele><time>2026-05-02T14:03:11.609Z</time></trkpt><trkpt lat="46.1268933" lon="13.44433"><ele>409.59999999999997</ele><time>2026-05-02T14:03:13.608Z</time></trkpt><trkpt lat="46.1268233" lon="13.4442117"><ele>406.79999999999995</ele><time>2026-05-02T14:03:15.607Z</time></trkpt><trkpt lat="46.1267433" lon="13.44414"><ele>404.0</ele><time>2026-05-02T14:03:17.604Z</time></trkpt><trkpt lat="46.12669" lon="13.4440883"><ele>404.0</ele><time>2026-05-02T14:03:18.606Z</time></trkpt><trkpt lat="46.12663" lon="13.4440467"><ele>404.0</ele><time>2026-05-02T14:03:19.61Z</time></trkpt><trkpt lat="46.1265317" lon="13.4439767"><ele>404.0</ele><time>2026-05-02T14:03:21.608Z</time></trkpt><trkpt lat="46.1264367" lon="13.4439133"><ele>404.0</ele><time>2026-05-02T14:03:23.604Z</time></trkpt><trkpt lat="46.1263367" lon="13.4438617"><ele>404.0</ele><time>2026-05-02T14:03:25.608Z</time></trkpt><trkpt lat="46.1262417" lon="13.4437967"><ele>402.6</ele><time>2026-05-02T14:03:27.607Z</time></trkpt><trkpt lat="46.1261567" lon="13.4437167"><ele>401.2</ele><time>2026-05-02T14:03:29.607Z</time></trkpt><trkpt lat="46.1260833" lon="13.4436683"><ele>399.8</ele><time>2026-05-02T14:03:31.607Z</time></trkpt><trkpt lat="46.1260033" lon="13.4435833"><ele>398.40000000000003</ele><time>2026-05-02T14:03:33.609Z</time></trkpt><trkpt lat="46.12592" lon="13.4435033"><ele>397.0</ele><time>2026-05-02T14:03:35.607Z</time></trkpt><trkpt lat="46.1258417" lon="13.4434283"><ele>397.0</ele><time>2026-05-02T14:03:37.609Z</time></trkpt><trkpt lat="46.1257517" lon="13.44331"><ele>397.0</ele><time>2026-05-02T14:03:39.608Z</time></trkpt><trkpt lat="46.12568" lon="13.44317"><ele>397.0</ele><time>2026-05-02T14:03:41.607Z</time></trkpt><trkpt lat="46.1256417" lon="13.44307"><ele>397.0</ele><time>2026-05-02T14:03:42.609Z</time></trkpt><trkpt lat="46.125605" lon="13.4429617"><ele>397.0</ele><time>2026-05-02T14:03:43.608Z</time></trkpt><trkpt lat="46.1255683" lon="13.4428617"><ele>397.83333333333337</ele><time>2026-05-02T14:03:44.609Z</time></trkpt><trkpt lat="46.1255367" lon="13.4427667"><ele>398.6666666666667</ele><time>2026-05-02T14:03:45.607Z</time></trkpt><trkpt lat="46.12551" lon="13.4426633"><ele>399.5</ele><time>2026-05-02T14:03:46.607Z</time></trkpt><trkpt lat="46.12549" lon="13.442565"><ele>400.33333333333337</ele><time>2026-05-02T14:03:47.611Z</time></trkpt><trkpt lat="46.12545" lon="13.4424033"><ele>401.1666666666667</ele><time>2026-05-02T14:03:49.609Z</time></trkpt><trkpt lat="46.1254267" lon="13.4422533"><ele>402.0</ele><time>2026-05-02T14:03:51.609Z</time></trkpt><trkpt lat="46.125415" lon="13.44212"><ele>402.6</ele><time>2026-05-02T14:03:53.608Z</time></trkpt><trkpt lat="46.1253967" lon="13.4419667"><ele>403.20000000000005</ele><time>2026-05-02T14:03:55.608Z</time></trkpt><trkpt lat="46.1253783" lon="13.4418333"><ele>403.8</ele><time>2026-05-02T14:03:57.61Z</time></trkpt><trkpt lat="46.1253483" lon="13.4417067"><ele>404.4</ele><time>2026-05-02T14:03:59.61Z</time></trkpt><trkpt lat="46.12532" lon="13.4415717"><ele>405.0</ele><time>2026-05-02T14:04:01.609Z</time></trkpt><trkpt lat="46.1253067" lon="13.4414517"><ele>405.0</ele><time>2026-05-02T14:04:03.609Z</time></trkpt><trkpt lat="46.12528" lon="13.4413567"><ele>405.0</ele><time>2026-05-02T14:04:05.607Z</time></trkpt><trkpt lat="46.1252483" lon="13.441255"><ele>405.0</ele><time>2026-05-02T14:04:07.606Z</time></trkpt><trkpt lat="46.125225" lon="13.44114"><ele>405.0</ele><time>2026-05-02T14:04:09.607Z</time></trkpt><trkpt lat="46.1252233" lon="13.4409917"><ele>405.0</ele><time>2026-05-02T14:04:11.608Z</time></trkpt><trkpt lat="46.1252483" lon="13.4408367"><ele>405.0</ele><time>2026-05-02T14:04:13.607Z</time></trkpt><trkpt lat="46.1252783" lon="13.4407"><ele>402.8</ele><time>2026-05-02T14:04:15.607Z</time></trkpt><trkpt lat="46.1252967" lon="13.44057"><ele>400.6</ele><time>2026-05-02T14:04:17.608Z</time></trkpt><trkpt lat="46.1253017" lon="13.4404367"><ele>398.4</ele><time>2026-05-02T14:04:19.608Z</time></trkpt><trkpt lat="46.1252967" lon="13.440295"><ele>396.2</ele><time>2026-05-02T14:04:21.609Z</time></trkpt><trkpt lat="46.1252883" lon="13.4401667"><ele>394.0</ele><time>2026-05-02T14:04:23.609Z</time></trkpt><trkpt lat="46.1252883" lon="13.440055"><ele>391.79999999999995</ele><time>2026-05-02T14:04:25.609Z</time></trkpt><trkpt lat="46.1252767" lon="13.439955"><ele>389.59999999999997</ele><time>2026-05-02T14:04:27.607Z</time></trkpt><trkpt lat="46.1252283" lon="13.43985"><ele>387.4</ele><time>2026-05-02T14:04:29.608Z</time></trkpt><trkpt lat="46.1251533" lon="13.439735"><ele>385.2</ele><time>2026-05-02T14:04:31.598Z</time></trkpt><trkpt lat="46.125075" lon="13.439615"><ele>383.0</ele><time>2026-05-02T14:04:33.605Z</time></trkpt><trkpt lat="46.125" lon="13.4395017"><ele>380.0</ele><time>2026-05-02T14:04:35.605Z</time></trkpt><trkpt lat="46.1249317" lon="13.43938"><ele>377.0</ele><time>2026-05-02T14:04:37.61Z</time></trkpt><trkpt lat="46.124885" lon="13.43927"><ele>374.0</ele><time>2026-05-02T14:04:39.605Z</time></trkpt><trkpt lat="46.1248367" lon="13.43917"><ele>371.0</ele><time>2026-05-02T14:04:41.609Z</time></trkpt><trkpt lat="46.124805" lon="13.4390633"><ele>368.0</ele><time>2026-05-02T14:04:43.607Z</time></trkpt><trkpt lat="46.1247833" lon="13.4389317"><ele>367.5</ele><time>2026-05-02T14:04:45.608Z</time></trkpt><trkpt lat="46.1247483" lon="13.438805"><ele>367.0</ele><time>2026-05-02T14:04:47.61Z</time></trkpt><trkpt lat="46.1246733" lon="13.4387083"><ele>366.5</ele><time>2026-05-02T14:04:49.604Z</time></trkpt><trkpt lat="46.1245917" lon="13.438655"><ele>366.0</ele><time>2026-05-02T14:04:51.608Z</time></trkpt><trkpt lat="46.1245283" lon="13.4386367"><ele>365.5</ele><time>2026-05-02T14:04:53.608Z</time></trkpt><trkpt lat="46.1244467" lon="13.4386517"><ele>365.0</ele><time>2026-05-02T14:04:55.607Z</time></trkpt><trkpt lat="46.1243467" lon="13.4386767"><ele>365.0</ele><time>2026-05-02T14:04:57.606Z</time></trkpt><trkpt lat="46.1242517" lon="13.4387033"><ele>365.0</ele><time>2026-05-02T14:04:59.608Z</time></trkpt><trkpt lat="46.1241683" lon="13.4387467"><ele>365.0</ele><time>2026-05-02T14:05:01.608Z</time></trkpt><trkpt lat="46.1241017" lon="13.438805"><ele>365.0</ele><time>2026-05-02T14:05:03.61Z</time></trkpt><trkpt lat="46.1240433" lon="13.4388717"><ele>365.0</ele><time>2026-05-02T14:05:05.608Z</time></trkpt><trkpt lat="46.1239783" lon="13.438935"><ele>365.0</ele><time>2026-05-02T14:05:07.608Z</time></trkpt><trkpt lat="46.1239117" lon="13.4389617"><ele>363.0</ele><time>2026-05-02T14:05:09.61Z</time></trkpt><trkpt lat="46.1238383" lon="13.439"><ele>361.0</ele><time>2026-05-02T14:05:11.609Z</time></trkpt><trkpt lat="46.1237667" lon="13.439025"><ele>359.0</ele><time>2026-05-02T14:05:13.61Z</time></trkpt><trkpt lat="46.123695" lon="13.43904"><ele>357.0</ele><time>2026-05-02T14:05:15.607Z</time></trkpt><trkpt lat="46.123615" lon="13.4390617"><ele>355.0</ele><time>2026-05-02T14:05:17.609Z</time></trkpt><trkpt lat="46.1235267" lon="13.4390617"><ele>353.0</ele><time>2026-05-02T14:05:19.609Z</time></trkpt><trkpt lat="46.1234233" lon="13.4390633"><ele>353.0</ele><time>2026-05-02T14:05:21.609Z</time></trkpt><trkpt lat="46.123325" lon="13.4390383"><ele>353.0</ele><time>2026-05-02T14:05:23.609Z</time></trkpt><trkpt lat="46.12323" lon="13.43904"><ele>353.0</ele><time>2026-05-02T14:05:25.61Z</time></trkpt><trkpt lat="46.1231317" lon="13.43905"><ele>353.0</ele><time>2026-05-02T14:05:27.609Z</time></trkpt><trkpt lat="46.1230633" lon="13.439055"><ele>353.0</ele><time>2026-05-02T14:05:29.608Z</time></trkpt><trkpt lat="46.122985" lon="13.43902"><ele>353.0</ele><time>2026-05-02T14:05:31.608Z</time></trkpt><trkpt lat="46.1228967" lon="13.4390083"><ele>353.4</ele><time>2026-05-02T14:05:33.609Z</time></trkpt><trkpt lat="46.1227983" lon="13.4389883"><ele>353.79999999999995</ele><time>2026-05-02T14:05:35.608Z</time></trkpt><trkpt lat="46.122715" lon="13.43897"><ele>354.2</ele><time>2026-05-02T14:05:37.609Z</time></trkpt><trkpt lat="46.1226233" lon="13.4389433"><ele>354.6</ele><time>2026-05-02T14:05:39.609Z</time></trkpt><trkpt lat="46.1225133" lon="13.4389317"><ele>355.0</ele><time>2026-05-02T14:05:41.608Z</time></trkpt><trkpt lat="46.1224067" lon="13.4389233"><ele>355.2</ele><time>2026-05-02T14:05:43.608Z</time></trkpt><trkpt lat="46.1223017" lon="13.438915"><ele>355.4</ele><time>2026-05-02T14:05:45.606Z</time></trkpt><trkpt lat="46.122215" lon="13.4389017"><ele>355.6</ele><time>2026-05-02T14:05:47.609Z</time></trkpt><trkpt lat="46.1221233" lon="13.4388617"><ele>355.8</ele><time>2026-05-02T14:05:49.609Z</time></trkpt><trkpt lat="46.12206" lon="13.4388467"><ele>356.0</ele><time>2026-05-02T14:05:50.609Z</time></trkpt><trkpt lat="46.12194" lon="13.4388467"><ele>356.0</ele><time>2026-05-02T14:05:52.605Z</time></trkpt><trkpt lat="46.1218467" lon="13.4388717"><ele>356.0</ele><time>2026-05-02T14:05:54.61Z</time></trkpt><trkpt lat="46.1217467" lon="13.438855"><ele>356.0</ele><time>2026-05-02T14:05:56.611Z</time></trkpt><trkpt lat="46.1216567" lon="13.4388133"><ele>356.0</ele><time>2026-05-02T14:05:58.605Z</time></trkpt><trkpt lat="46.1215617" lon="13.438745"><ele>356.0</ele><time>2026-05-02T14:06:00.61Z</time></trkpt><trkpt lat="46.1214767" lon="13.4386767"><ele>352.33333333333337</ele><time>2026-05-02T14:06:02.605Z</time></trkpt><trkpt lat="46.1213917" lon="13.4386433"><ele>348.6666666666667</ele><time>2026-05-02T14:06:04.608Z</time></trkpt><trkpt lat="46.1212933" lon="13.4386333"><ele>345.0</ele><time>2026-05-02T14:06:06.611Z</time></trkpt><trkpt lat="46.121215" lon="13.438615"><ele>341.3333333333333</ele><time>2026-05-02T14:06:08.608Z</time></trkpt><trkpt lat="46.121135" lon="13.4385767"><ele>337.66666666666663</ele><time>2026-05-02T14:06:10.607Z</time></trkpt><trkpt lat="46.1210767" lon="13.4384983"><ele>334.0</ele><time>2026-05-02T14:06:12.61Z</time></trkpt><trkpt lat="46.1210483" lon="13.43841"><ele>334.0</ele><time>2026-05-02T14:06:14.61Z</time></trkpt><trkpt lat="46.1210083" lon="13.4383217"><ele>334.0</ele><time>2026-05-02T14:06:16.61Z</time></trkpt><trkpt lat="46.1209167" lon="13.4382617"><ele>334.0</ele><time>2026-05-02T14:06:19.609Z</time></trkpt><trkpt lat="46.1208367" lon="13.4382367"><ele>334.0</ele><time>2026-05-02T14:06:21.608Z</time></trkpt><trkpt lat="46.12076" lon="13.43822"><ele>334.0</ele><time>2026-05-02T14:06:23.607Z</time></trkpt><trkpt lat="46.1206917" lon="13.4382017"><ele>334.0</ele><time>2026-05-02T14:06:25.608Z</time></trkpt><trkpt lat="46.120615" lon="13.4381567"><ele>334.4</ele><time>2026-05-02T14:06:27.608Z</time></trkpt><trkpt lat="46.1205667" lon="13.4380817"><ele>334.79999999999995</ele><time>2026-05-02T14:06:29.608Z</time></trkpt><trkpt lat="46.1205467" lon="13.437975"><ele>335.20000000000005</ele><time>2026-05-02T14:06:31.608Z</time></trkpt><trkpt lat="46.120525" lon="13.4378283"><ele>335.6</ele><time>2026-05-02T14:06:33.606Z</time></trkpt><trkpt lat="46.12051" lon="13.437675"><ele>336.0</ele><time>2026-05-02T14:06:35.609Z</time></trkpt><trkpt lat="46.1204967" lon="13.437545"><ele>336.0</ele><time>2026-05-02T14:06:37.609Z</time></trkpt><trkpt lat="46.1204917" lon="13.4374167"><ele>336.0</ele><time>2026-05-02T14:06:39.608Z</time></trkpt><trkpt lat="46.1204833" lon="13.4372867"><ele>336.0</ele><time>2026-05-02T14:06:41.609Z</time></trkpt><trkpt lat="46.1204567" lon="13.4371583"><ele>336.0</ele><time>2026-05-02T14:06:43.609Z</time></trkpt><trkpt lat="46.1204083" lon="13.4370433"><ele>336.0</ele><time>2026-05-02T14:06:45.61Z</time></trkpt><trkpt lat="46.1203717" lon="13.4369217"><ele>333.1666666666667</ele><time>2026-05-02T14:06:47.61Z</time></trkpt><trkpt lat="46.12034" lon="13.4368"><ele>330.3333333333333</ele><time>2026-05-02T14:06:49.609Z</time></trkpt><trkpt lat="46.1203217" lon="13.4366817"><ele>327.5</ele><time>2026-05-02T14:06:51.608Z</time></trkpt><trkpt lat="46.1203117" lon="13.436565"><ele>324.66666666666663</ele><time>2026-05-02T14:06:53.608Z</time></trkpt><trkpt lat="46.120295" lon="13.43646"><ele>321.8333333333333</ele><time>2026-05-02T14:06:55.607Z</time></trkpt><trkpt lat="46.1202517" lon="13.436345"><ele>319.0</ele><time>2026-05-02T14:06:57.608Z</time></trkpt><trkpt lat="46.12019" lon="13.4362317"><ele>314.4</ele><time>2026-05-02T14:06:59.608Z</time></trkpt><trkpt lat="46.1201133" lon="13.4361217"><ele>309.79999999999995</ele><time>2026-05-02T14:07:01.606Z</time></trkpt><trkpt lat="46.1200467" lon="13.43605"><ele>305.20000000000005</ele><time>2026-05-02T14:07:03.605Z</time></trkpt><trkpt lat="46.1199533" lon="13.436025"><ele>300.6</ele><time>2026-05-02T14:07:06.608Z</time></trkpt><trkpt lat="46.11987" lon="13.4360317"><ele>296.0</ele><time>2026-05-02T14:07:08.611Z</time></trkpt><trkpt lat="46.1197783" lon="13.436065"><ele>293.8</ele><time>2026-05-02T14:07:10.606Z</time></trkpt><trkpt lat="46.11968" lon="13.43612"><ele>291.6</ele><time>2026-05-02T14:07:12.612Z</time></trkpt><trkpt lat="46.119575" lon="13.43617"><ele>289.4</ele><time>2026-05-02T14:07:14.61Z</time></trkpt><trkpt lat="46.1194783" lon="13.4362217"><ele>287.2</ele><time>2026-05-02T14:07:16.605Z</time></trkpt><trkpt lat="46.1193967" lon="13.4362667"><ele>285.0</ele><time>2026-05-02T14:07:18.612Z</time></trkpt><trkpt lat="46.1193233" lon="13.4362983"><ele>286.1666666666667</ele><time>2026-05-02T14:07:20.609Z</time></trkpt><trkpt lat="46.11926" lon="13.436335"><ele>287.3333333333333</ele><time>2026-05-02T14:07:22.608Z</time></trkpt><trkpt lat="46.11917" lon="13.43637"><ele>288.5</ele><time>2026-05-02T14:07:24.61Z</time></trkpt><trkpt lat="46.1190833" lon="13.4363967"><ele>289.66666666666663</ele><time>2026-05-02T14:07:26.611Z</time></trkpt><trkpt lat="46.118995" lon="13.4364233"><ele>290.8333333333333</ele><time>2026-05-02T14:07:28.607Z</time></trkpt><trkpt lat="46.118915" lon="13.4364383"><ele>292.0</ele><time>2026-05-02T14:07:30.609Z</time></trkpt><trkpt lat="46.1188283" lon="13.4364783"><ele>292.0</ele><time>2026-05-02T14:07:32.61Z</time></trkpt><trkpt lat="46.1187533" lon="13.4365617"><ele>292.0</ele><time>2026-05-02T14:07:34.607Z</time></trkpt><trkpt lat="46.1186667" lon="13.4366283"><ele>292.0</ele><time>2026-05-02T14:07:36.611Z</time></trkpt><trkpt lat="46.11858" lon="13.43666"><ele>292.0</ele><time>2026-05-02T14:07:38.609Z</time></trkpt><trkpt lat="46.118505" lon="13.4366717"><ele>292.0</ele><time>2026-05-02T14:07:40.607Z</time></trkpt><trkpt lat="46.1184167" lon="13.4366667"><ele>292.0</ele><time>2026-05-02T14:07:42.608Z</time></trkpt><trkpt lat="46.1183467" lon="13.4366433"><ele>292.0</ele><time>2026-05-02T14:07:44.608Z</time></trkpt><trkpt lat="46.118285" lon="13.4366033"><ele>292.0</ele><time>2026-05-02T14:07:46.608Z</time></trkpt><trkpt lat="46.1182067" lon="13.4365817"><ele>292.0</ele><time>2026-05-02T14:07:48.605Z</time></trkpt><trkpt lat="46.1181217" lon="13.4365367"><ele>292.0</ele><time>2026-05-02T14:07:50.609Z</time></trkpt><trkpt lat="46.1180417" lon="13.4364833"><ele>292.0</ele><time>2026-05-02T14:07:52.607Z</time></trkpt><trkpt lat="46.1179267" lon="13.436435"><ele>292.0</ele><time>2026-05-02T14:07:54.608Z</time></trkpt><trkpt lat="46.11784" lon="13.436385"><ele>292.0</ele><time>2026-05-02T14:07:56.609Z</time></trkpt><trkpt lat="46.117755" lon="13.4363367"><ele>292.0</ele><time>2026-05-02T14:07:58.607Z</time></trkpt><trkpt lat="46.1176583" lon="13.43634"><ele>292.0</ele><time>2026-05-02T14:08:00.609Z</time></trkpt><trkpt lat="46.1175533" lon="13.4363433"><ele>292.0</ele><time>2026-05-02T14:08:02.611Z</time></trkpt><trkpt lat="46.1174633" lon="13.4363333"><ele>292.0</ele><time>2026-05-02T14:08:04.607Z</time></trkpt><trkpt lat="46.1173833" lon="13.4362933"><ele>292.0</ele><time>2026-05-02T14:08:06.61Z</time></trkpt><trkpt lat="46.1173" lon="13.4362033"><ele>292.0</ele><time>2026-05-02T14:08:08.609Z</time></trkpt><trkpt lat="46.117215" lon="13.43611"><ele>292.0</ele><time>2026-05-02T14:08:10.608Z</time></trkpt><trkpt lat="46.1171333" lon="13.4360033"><ele>292.0</ele><time>2026-05-02T14:08:12.611Z</time></trkpt><trkpt lat="46.11708" lon="13.4358867"><ele>292.0</ele><time>2026-05-02T14:08:14.61Z</time></trkpt><trkpt lat="46.11701" lon="13.435785"><ele>292.0</ele><time>2026-05-02T14:08:16.608Z</time></trkpt><trkpt lat="46.11692" lon="13.4356633"><ele>292.0</ele><time>2026-05-02T14:08:18.611Z</time></trkpt><trkpt lat="46.1168183" lon="13.43555"><ele>292.0</ele><time>2026-05-02T14:08:20.611Z</time></trkpt><trkpt lat="46.1167167" lon="13.43546"><ele>292.0</ele><time>2026-05-02T14:08:22.605Z</time></trkpt><trkpt lat="46.11663" lon="13.4353767"><ele>292.5</ele><time>2026-05-02T14:08:24.611Z</time></trkpt><trkpt lat="46.116555" lon="13.43531"><ele>293.0</ele><time>2026-05-02T14:08:26.611Z</time></trkpt><trkpt lat="46.11647" lon="13.435255"><ele>293.5</ele><time>2026-05-02T14:08:28.608Z</time></trkpt><trkpt lat="46.1163667" lon="13.4351767"><ele>294.0</ele><time>2026-05-02T14:08:30.608Z</time></trkpt><trkpt lat="46.1163083" lon="13.43513"><ele>294.5</ele><time>2026-05-02T14:08:31.61Z</time></trkpt><trkpt lat="46.1162517" lon="13.43509"><ele>295.0</ele><time>2026-05-02T14:08:32.611Z</time></trkpt><trkpt lat="46.116145" lon="13.4350433"><ele>295.0</ele><time>2026-05-02T14:08:34.607Z</time></trkpt><trkpt lat="46.11606" lon="13.4349783"><ele>295.0</ele><time>2026-05-02T14:08:36.612Z</time></trkpt><trkpt lat="46.1160083" lon="13.4349183"><ele>295.0</ele><time>2026-05-02T14:08:37.609Z</time></trkpt><trkpt lat="46.11596" lon="13.4348467"><ele>295.0</ele><time>2026-05-02T14:08:38.611Z</time></trkpt><trkpt lat="46.11592" lon="13.4347733"><ele>295.0</ele><time>2026-05-02T14:08:39.609Z</time></trkpt><trkpt lat="46.1158633" lon="13.4346217"><ele>295.0</ele><time>2026-05-02T14:08:41.607Z</time></trkpt><trkpt lat="46.1158183" lon="13.4344567"><ele>295.4</ele><time>2026-05-02T14:08:43.61Z</time></trkpt><trkpt lat="46.1157833" lon="13.4343017"><ele>295.8</ele><time>2026-05-02T14:08:45.61Z</time></trkpt><trkpt lat="46.1157517" lon="13.43418"><ele>296.2</ele><time>2026-05-02T14:08:47.609Z</time></trkpt><trkpt lat="46.1157133" lon="13.434055"><ele>296.6</ele><time>2026-05-02T14:08:49.611Z</time></trkpt><trkpt lat="46.11567" lon="13.4339167"><ele>297.0</ele><time>2026-05-02T14:08:51.608Z</time></trkpt><trkpt lat="46.1156283" lon="13.4337617"><ele>297.0</ele><time>2026-05-02T14:08:53.608Z</time></trkpt><trkpt lat="46.1155883" lon="13.4336217"><ele>297.0</ele><time>2026-05-02T14:08:55.611Z</time></trkpt><trkpt lat="46.11554" lon="13.433525"><ele>297.0</ele><time>2026-05-02T14:08:57.609Z</time></trkpt><trkpt lat="46.11547" lon="13.4334717"><ele>297.0</ele><time>2026-05-02T14:08:59.61Z</time></trkpt><trkpt lat="46.11538" lon="13.4334217"><ele>297.0</ele><time>2026-05-02T14:09:01.61Z</time></trkpt><trkpt lat="46.1152733" lon="13.43336"><ele>297.0</ele><time>2026-05-02T14:09:03.611Z</time></trkpt><trkpt lat="46.11519" lon="13.433295"><ele>297.0</ele><time>2026-05-02T14:09:05.607Z</time></trkpt><trkpt lat="46.11512" lon="13.4332033"><ele>297.0</ele><time>2026-05-02T14:09:07.61Z</time></trkpt><trkpt lat="46.1150783" lon="13.4330783"><ele>297.0</ele><time>2026-05-02T14:09:09.609Z</time></trkpt><trkpt lat="46.1150633" lon="13.43299"><ele>297.0</ele><time>2026-05-02T14:09:10.609Z</time></trkpt><trkpt lat="46.1150517" lon="13.4328983"><ele>297.0</ele><time>2026-05-02T14:09:11.607Z</time></trkpt><trkpt lat="46.1150367" lon="13.43272"><ele>294.8</ele><time>2026-05-02T14:09:13.609Z</time></trkpt><trkpt lat="46.115015" lon="13.4325583"><ele>292.6</ele><time>2026-05-02T14:09:15.609Z</time></trkpt><trkpt lat="46.1149683" lon="13.43241"><ele>290.40000000000003</ele><time>2026-05-02T14:09:17.61Z</time></trkpt><trkpt lat="46.11492" lon="13.432265"><ele>288.2</ele><time>2026-05-02T14:09:19.608Z</time></trkpt><trkpt lat="46.1148833" lon="13.432115"><ele>286.0</ele><time>2026-05-02T14:09:21.611Z</time></trkpt><trkpt lat="46.1148533" lon="13.4319633"><ele>286.0</ele><time>2026-05-02T14:09:23.611Z</time></trkpt><trkpt lat="46.1148283" lon="13.4318083"><ele>286.0</ele><time>2026-05-02T14:09:25.61Z</time></trkpt><trkpt lat="46.1148267" lon="13.4316533"><ele>286.0</ele><time>2026-05-02T14:09:27.608Z</time></trkpt><trkpt lat="46.1148433" lon="13.431565"><ele>286.0</ele><time>2026-05-02T14:09:28.611Z</time></trkpt><trkpt lat="46.114885" lon="13.4314033"><ele>286.0</ele><time>2026-05-02T14:09:30.607Z</time></trkpt><trkpt lat="46.114905" lon="13.4313117"><ele>282.2</ele><time>2026-05-02T14:09:31.611Z</time></trkpt><trkpt lat="46.1149283" lon="13.4311467"><ele>278.40000000000003</ele><time>2026-05-02T14:09:33.61Z</time></trkpt><trkpt lat="46.1149367" lon="13.4309717"><ele>274.6</ele><time>2026-05-02T14:09:35.61Z</time></trkpt><trkpt lat="46.114945" lon="13.4308683"><ele>270.8</ele><time>2026-05-02T14:09:36.611Z</time></trkpt><trkpt lat="46.1149517" lon="13.4307683"><ele>267.0</ele><time>2026-05-02T14:09:37.606Z</time></trkpt><trkpt lat="46.114965" lon="13.4306133"><ele>266.3333333333333</ele><time>2026-05-02T14:09:39.611Z</time></trkpt><trkpt lat="46.1149667" lon="13.4304733"><ele>265.6666666666667</ele><time>2026-05-02T14:09:41.609Z</time></trkpt><trkpt lat="46.1149367" lon="13.430345"><ele>265.0</ele><time>2026-05-02T14:09:43.609Z</time></trkpt><trkpt lat="46.1148883" lon="13.4302667"><ele>264.33333333333337</ele><time>2026-05-02T14:09:45.608Z</time></trkpt><trkpt lat="46.114825" lon="13.43023"><ele>263.6666666666667</ele><time>2026-05-02T14:09:47.607Z</time></trkpt><trkpt lat="46.1147383" lon="13.430225"><ele>263.0</ele><time>2026-05-02T14:09:49.611Z</time></trkpt><trkpt lat="46.1146317" lon="13.4302567"><ele>263.83333333333337</ele><time>2026-05-02T14:09:51.607Z</time></trkpt><trkpt lat="46.11453" lon="13.4302783"><ele>264.6666666666667</ele><time>2026-05-02T14:09:53.612Z</time></trkpt><trkpt lat="46.114455" lon="13.4303"><ele>265.5</ele><time>2026-05-02T14:09:55.608Z</time></trkpt><trkpt lat="46.1143717" lon="13.4303683"><ele>266.3333333333333</ele><time>2026-05-02T14:09:57.611Z</time></trkpt><trkpt lat="46.114315" lon="13.43044"><ele>267.16666666666663</ele><time>2026-05-02T14:09:59.609Z</time></trkpt><trkpt lat="46.114245" lon="13.43052"><ele>268.0</ele><time>2026-05-02T14:10:01.61Z</time></trkpt><trkpt lat="46.114185" lon="13.4305917"><ele>268.0</ele><time>2026-05-02T14:10:03.609Z</time></trkpt><trkpt lat="46.1141283" lon="13.4306733"><ele>268.0</ele><time>2026-05-02T14:10:05.611Z</time></trkpt><trkpt lat="46.1140917" lon="13.4307617"><ele>268.0</ele><time>2026-05-02T14:10:07.61Z</time></trkpt><trkpt lat="46.1140483" lon="13.4308467"><ele>268.0</ele><time>2026-05-02T14:10:09.611Z</time></trkpt><trkpt lat="46.1139983" lon="13.4309417"><ele>268.0</ele><time>2026-05-02T14:10:11.607Z</time></trkpt><trkpt lat="46.113935" lon="13.4310217"><ele>268.0</ele><time>2026-05-02T14:10:13.61Z</time></trkpt><trkpt lat="46.1138567" lon="13.431095"><ele>265.16666666666663</ele><time>2026-05-02T14:10:16.613Z</time></trkpt><trkpt lat="46.1137867" lon="13.43112"><ele>262.3333333333333</ele><time>2026-05-02T14:10:18.611Z</time></trkpt><trkpt lat="46.1137233" lon="13.431125"><ele>259.5</ele><time>2026-05-02T14:10:20.61Z</time></trkpt><trkpt lat="46.113645" lon="13.431145"><ele>256.6666666666667</ele><time>2026-05-02T14:10:22.606Z</time></trkpt><trkpt lat="46.113565" lon="13.4311933"><ele>253.83333333333334</ele><time>2026-05-02T14:10:24.611Z</time></trkpt><trkpt lat="46.1135" lon="13.4312333"><ele>251.0</ele><time>2026-05-02T14:10:26.61Z</time></trkpt><trkpt lat="46.1134167" lon="13.4312517"><ele>251.00000000000003</ele><time>2026-05-02T14:10:28.607Z</time></trkpt><trkpt lat="46.1133533" lon="13.43124"><ele>251.0</ele><time>2026-05-02T14:10:30.613Z</time></trkpt><trkpt lat="46.1132833" lon="13.431205"><ele>251.0</ele><time>2026-05-02T14:10:32.611Z</time></trkpt><trkpt lat="46.1132083" lon="13.43112"><ele>251.0</ele><time>2026-05-02T14:10:34.61Z</time></trkpt><trkpt lat="46.113125" lon="13.4310267"><ele>251.00000000000003</ele><time>2026-05-02T14:10:36.612Z</time></trkpt><trkpt lat="46.1130317" lon="13.430955"><ele>251.0</ele><time>2026-05-02T14:10:38.61Z</time></trkpt><trkpt lat="46.1129433" lon="13.4309467"><ele>250.83333333333334</ele><time>2026-05-02T14:10:40.61Z</time></trkpt><trkpt lat="46.1128583" lon="13.4309517"><ele>250.66666666666669</ele><time>2026-05-02T14:10:42.61Z</time></trkpt><trkpt lat="46.1127733" lon="13.4309833"><ele>250.5</ele><time>2026-05-02T14:10:44.613Z</time></trkpt><trkpt lat="46.1127017" lon="13.431"><ele>250.33333333333331</ele><time>2026-05-02T14:10:46.611Z</time></trkpt><trkpt lat="46.1126117" lon="13.4309767"><ele>250.16666666666666</ele><time>2026-05-02T14:10:48.612Z</time></trkpt><trkpt lat="46.1125333" lon="13.4309283"><ele>250.0</ele><time>2026-05-02T14:10:50.612Z</time></trkpt><trkpt lat="46.1124517" lon="13.4308533"><ele>248.8</ele><time>2026-05-02T14:10:52.606Z</time></trkpt><trkpt lat="46.112385" lon="13.4307367"><ele>247.6</ele><time>2026-05-02T14:10:54.613Z</time></trkpt><trkpt lat="46.1123417" lon="13.4306233"><ele>246.39999999999998</ele><time>2026-05-02T14:10:56.61Z</time></trkpt><trkpt lat="46.112285" lon="13.43054"><ele>245.2</ele><time>2026-05-02T14:10:58.609Z</time></trkpt><trkpt lat="46.1122" lon="13.43047"><ele>244.0</ele><time>2026-05-02T14:11:00.611Z</time></trkpt><trkpt lat="46.1121183" lon="13.4304017"><ele>244.0</ele><time>2026-05-02T14:11:02.612Z</time></trkpt><trkpt lat="46.11206" lon="13.4303267"><ele>243.99999999999997</ele><time>2026-05-02T14:11:04.61Z</time></trkpt><trkpt lat="46.1119967" lon="13.4302517"><ele>243.99999999999997</ele><time>2026-05-02T14:11:06.611Z</time></trkpt><trkpt lat="46.1119267" lon="13.43016"><ele>244.0</ele><time>2026-05-02T14:11:08.611Z</time></trkpt><trkpt lat="46.11185" lon="13.4300717"><ele>244.0</ele><time>2026-05-02T14:11:10.609Z</time></trkpt><trkpt lat="46.1117783" lon="13.4299633"><ele>244.0</ele><time>2026-05-02T14:11:12.611Z</time></trkpt><trkpt lat="46.1117117" lon="13.429845"><ele>243.99999999999997</ele><time>2026-05-02T14:11:14.612Z</time></trkpt><trkpt lat="46.1116067" lon="13.4297317"><ele>243.99999999999997</ele><time>2026-05-02T14:11:16.607Z</time></trkpt><trkpt lat="46.1115483" lon="13.4296717"><ele>244.0</ele><time>2026-05-02T14:11:17.608Z</time></trkpt><trkpt lat="46.1114583" lon="13.4295783"><ele>244.0</ele><time>2026-05-02T14:11:19.609Z</time></trkpt><trkpt lat="46.1113933" lon="13.4295083"><ele>243.0</ele><time>2026-05-02T14:11:21.606Z</time></trkpt><trkpt lat="46.1113267" lon="13.4294633"><ele>241.99999999999997</ele><time>2026-05-02T14:11:23.607Z</time></trkpt><trkpt lat="46.111235" lon="13.4294133"><ele>240.99999999999997</ele><time>2026-05-02T14:11:26.608Z</time></trkpt><trkpt lat="46.111155" lon="13.4293833"><ele>240.0</ele><time>2026-05-02T14:11:28.608Z</time></trkpt><trkpt lat="46.111055" lon="13.4293233"><ele>239.0</ele><time>2026-05-02T14:11:30.609Z</time></trkpt><trkpt lat="46.1109683" lon="13.4292583"><ele>239.0</ele><time>2026-05-02T14:11:32.611Z</time></trkpt><trkpt lat="46.110885" lon="13.429195"><ele>238.99999999999997</ele><time>2026-05-02T14:11:34.609Z</time></trkpt><trkpt lat="46.110795" lon="13.42913"><ele>238.99999999999997</ele><time>2026-05-02T14:11:36.61Z</time></trkpt><trkpt lat="46.1107217" lon="13.429055"><ele>239.0</ele><time>2026-05-02T14:11:38.61Z</time></trkpt><trkpt lat="46.1106767" lon="13.428955"><ele>239.0</ele><time>2026-05-02T14:11:40.605Z</time></trkpt><trkpt lat="46.1106633" lon="13.4288317"><ele>237.83333333333334</ele><time>2026-05-02T14:11:42.609Z</time></trkpt><trkpt lat="46.1106817" lon="13.4287167"><ele>236.66666666666669</ele><time>2026-05-02T14:11:44.61Z</time></trkpt><trkpt lat="46.110715" lon="13.4286383"><ele>235.5</ele><time>2026-05-02T14:11:46.608Z</time></trkpt><trkpt lat="46.1107783" lon="13.4285567"><ele>234.33333333333331</ele><time>2026-05-02T14:11:48.61Z</time></trkpt><trkpt lat="46.110835" lon="13.4284767"><ele>233.16666666666666</ele><time>2026-05-02T14:11:50.61Z</time></trkpt><trkpt lat="46.1108817" lon="13.4283683"><ele>232.0</ele><time>2026-05-02T14:11:52.607Z</time></trkpt><trkpt lat="46.1108967" lon="13.4282533"><ele>231.83333333333331</ele><time>2026-05-02T14:11:54.609Z</time></trkpt><trkpt lat="46.1108883" lon="13.42814"><ele>231.66666666666666</ele><time>2026-05-02T14:11:56.61Z</time></trkpt><trkpt lat="46.1108433" lon="13.428035"><ele>231.5</ele><time>2026-05-02T14:11:58.607Z</time></trkpt><trkpt lat="46.1107867" lon="13.4278883"><ele>231.33333333333331</ele><time>2026-05-02T14:12:00.61Z</time></trkpt><trkpt lat="46.1107617" lon="13.4277967"><ele>231.16666666666666</ele><time>2026-05-02T14:12:01.606Z</time></trkpt><trkpt lat="46.110735" lon="13.4277083"><ele>231.0</ele><time>2026-05-02T14:12:02.612Z</time></trkpt><trkpt lat="46.1106817" lon="13.4275567"><ele>229.16666666666666</ele><time>2026-05-02T14:12:04.61Z</time></trkpt><trkpt lat="46.1106033" lon="13.4274783"><ele>227.33333333333331</ele><time>2026-05-02T14:12:06.611Z</time></trkpt><trkpt lat="46.1105083" lon="13.4274617"><ele>225.5</ele><time>2026-05-02T14:12:08.609Z</time></trkpt><trkpt lat="46.1104433" lon="13.42747"><ele>223.66666666666666</ele><time>2026-05-02T14:12:09.609Z</time></trkpt><trkpt lat="46.1103783" lon="13.4274767"><ele>221.83333333333331</ele><time>2026-05-02T14:12:10.605Z</time></trkpt><trkpt lat="46.110315" lon="13.4274767"><ele>220.0</ele><time>2026-05-02T14:12:11.609Z</time></trkpt><trkpt lat="46.1102017" lon="13.4274367"><ele>220.0</ele><time>2026-05-02T14:12:13.609Z</time></trkpt><trkpt lat="46.1101183" lon="13.4273883"><ele>220.0</ele><time>2026-05-02T14:12:15.611Z</time></trkpt><trkpt lat="46.1100367" lon="13.4273617"><ele>220.0</ele><time>2026-05-02T14:12:17.609Z</time></trkpt><trkpt lat="46.1099317" lon="13.42734"><ele>220.0</ele><time>2026-05-02T14:12:19.606Z</time></trkpt><trkpt lat="46.1098317" lon="13.4272817"><ele>220.0</ele><time>2026-05-02T14:12:21.606Z</time></trkpt><trkpt lat="46.1097483" lon="13.427195"><ele>220.4</ele><time>2026-05-02T14:12:23.611Z</time></trkpt><trkpt lat="46.1096933" lon="13.427115"><ele>220.8</ele><time>2026-05-02T14:12:25.609Z</time></trkpt><trkpt lat="46.1096233" lon="13.4270433"><ele>221.2</ele><time>2026-05-02T14:12:27.608Z</time></trkpt><trkpt lat="46.109515" lon="13.4269767"><ele>221.6</ele><time>2026-05-02T14:12:29.61Z</time></trkpt><trkpt lat="46.1094117" lon="13.42691"><ele>222.0</ele><time>2026-05-02T14:12:31.605Z</time></trkpt><trkpt lat="46.109355" lon="13.4268633"><ele>222.0</ele><time>2026-05-02T14:12:32.612Z</time></trkpt><trkpt lat="46.1092567" lon="13.4267817"><ele>222.0</ele><time>2026-05-02T14:12:34.609Z</time></trkpt><trkpt lat="46.10918" lon="13.426675"><ele>222.0</ele><time>2026-05-02T14:12:36.612Z</time></trkpt><trkpt lat="46.109125" lon="13.4265367"><ele>222.0</ele><time>2026-05-02T14:12:38.61Z</time></trkpt><trkpt lat="46.1090883" lon="13.4263867"><ele>222.0</ele><time>2026-05-02T14:12:40.612Z</time></trkpt><trkpt lat="46.1090583" lon="13.4262383"><ele>220.83333333333334</ele><time>2026-05-02T14:12:42.609Z</time></trkpt><trkpt lat="46.109045" lon="13.4261083"><ele>219.66666666666669</ele><time>2026-05-02T14:12:44.612Z</time></trkpt><trkpt lat="46.1090067" lon="13.4259933"><ele>218.5</ele><time>2026-05-02T14:12:46.61Z</time></trkpt><trkpt lat="46.1089583" lon="13.425925"><ele>217.33333333333334</ele><time>2026-05-02T14:12:47.61Z</time></trkpt><trkpt lat="46.1089083" lon="13.4258583"><ele>216.16666666666669</ele><time>2026-05-02T14:12:48.612Z</time></trkpt><trkpt lat="46.1088483" lon="13.425795"><ele>215.0</ele><time>2026-05-02T14:12:49.609Z</time></trkpt><trkpt lat="46.1087883" lon="13.425745"><ele>215.0</ele><time>2026-05-02T14:12:50.61Z</time></trkpt><trkpt lat="46.1087367" lon="13.4256917"><ele>215.0</ele><time>2026-05-02T14:12:51.607Z</time></trkpt><trkpt lat="46.1086367" lon="13.425605"><ele>215.0</ele><time>2026-05-02T14:12:53.607Z</time></trkpt><trkpt lat="46.1085267" lon="13.425545"><ele>215.0</ele><time>2026-05-02T14:12:55.609Z</time></trkpt><trkpt lat="46.1083917" lon="13.4255233"><ele>215.0</ele><time>2026-05-02T14:12:57.608Z</time></trkpt><trkpt lat="46.1083167" lon="13.42552"><ele>214.00000000000003</ele><time>2026-05-02T14:12:58.608Z</time></trkpt><trkpt lat="46.10821" lon="13.4255083"><ele>213.0</ele><time>2026-05-02T14:13:00.608Z</time></trkpt><trkpt lat="46.108135" lon="13.4254817"><ele>212.0</ele><time>2026-05-02T14:13:02.612Z</time></trkpt><trkpt lat="46.1080667" lon="13.42542"><ele>211.0</ele><time>2026-05-02T14:13:04.606Z</time></trkpt><trkpt lat="46.1080033" lon="13.42534"><ele>210.00000000000003</ele><time>2026-05-02T14:13:06.612Z</time></trkpt><trkpt lat="46.1079517" lon="13.4252667"><ele>209.0</ele><time>2026-05-02T14:13:08.609Z</time></trkpt><trkpt lat="46.1079017" lon="13.4251633"><ele>209.00000000000003</ele><time>2026-05-02T14:13:10.61Z</time></trkpt><trkpt lat="46.107865" lon="13.4250483"><ele>209.0</ele><time>2026-05-02T14:13:12.61Z</time></trkpt><trkpt lat="46.1078333" lon="13.42494"><ele>209.0</ele><time>2026-05-02T14:13:14.61Z</time></trkpt><trkpt lat="46.1077967" lon="13.4248117"><ele>209.0</ele><time>2026-05-02T14:13:17.608Z</time></trkpt><trkpt lat="46.1077633" lon="13.4247083"><ele>209.00000000000003</ele><time>2026-05-02T14:13:19.609Z</time></trkpt><trkpt lat="46.107725" lon="13.424615"><ele>209.0</ele><time>2026-05-02T14:13:21.609Z</time></trkpt><trkpt lat="46.1076833" lon="13.4244867"><ele>209.6</ele><time>2026-05-02T14:13:23.608Z</time></trkpt><trkpt lat="46.1076217" lon="13.4243667"><ele>210.2</ele><time>2026-05-02T14:13:25.608Z</time></trkpt><trkpt lat="46.107555" lon="13.42425"><ele>210.79999999999998</ele><time>2026-05-02T14:13:27.607Z</time></trkpt><trkpt lat="46.10749" lon="13.4241667"><ele>211.39999999999998</ele><time>2026-05-02T14:13:29.61Z</time></trkpt><trkpt lat="46.1073983" lon="13.424115"><ele>212.0</ele><time>2026-05-02T14:13:31.608Z</time></trkpt><trkpt lat="46.1072833" lon="13.424125"><ele>211.00000000000003</ele><time>2026-05-02T14:13:33.608Z</time></trkpt><trkpt lat="46.1071517" lon="13.4241417"><ele>210.0</ele><time>2026-05-02T14:13:35.609Z</time></trkpt><trkpt lat="46.1070817" lon="13.4241467"><ele>209.0</ele><time>2026-05-02T14:13:36.607Z</time></trkpt><trkpt lat="46.1070183" lon="13.4241517"><ele>208.0</ele><time>2026-05-02T14:13:37.605Z</time></trkpt><trkpt lat="46.106935" lon="13.4241467"><ele>207.00000000000003</ele><time>2026-05-02T14:13:39.605Z</time></trkpt><trkpt lat="46.10685" lon="13.4241333"><ele>206.0</ele><time>2026-05-02T14:13:42.609Z</time></trkpt><trkpt lat="46.1067783" lon="13.424145"><ele>206.00000000000003</ele><time>2026-05-02T14:13:44.609Z</time></trkpt><trkpt lat="46.10671" lon="13.4241533"><ele>206.0</ele><time>2026-05-02T14:13:45.606Z</time></trkpt><trkpt lat="46.10663" lon="13.42417"><ele>206.0</ele><time>2026-05-02T14:13:46.607Z</time></trkpt><trkpt lat="46.1065433" lon="13.4242067"><ele>206.0</ele><time>2026-05-02T14:13:47.606Z</time></trkpt><trkpt lat="46.1064583" lon="13.424265"><ele>206.00000000000003</ele><time>2026-05-02T14:13:48.605Z</time></trkpt><trkpt lat="46.1063783" lon="13.4243383"><ele>206.0</ele><time>2026-05-02T14:13:49.608Z</time></trkpt><trkpt lat="46.1063083" lon="13.4244217"><ele>207.20000000000002</ele><time>2026-05-02T14:13:50.606Z</time></trkpt><trkpt lat="46.1062267" lon="13.4244767"><ele>208.4</ele><time>2026-05-02T14:13:51.609Z</time></trkpt><trkpt lat="46.1061367" lon="13.4245233"><ele>209.6</ele><time>2026-05-02T14:13:52.605Z</time></trkpt><trkpt lat="46.1060417" lon="13.42456"><ele>210.8</ele><time>2026-05-02T14:13:53.609Z</time></trkpt><trkpt lat="46.105935" lon="13.424595"><ele>212.0</ele><time>2026-05-02T14:13:54.607Z</time></trkpt><trkpt lat="46.1058233" lon="13.4246417"><ele>212.2</ele><time>2026-05-02T14:13:55.608Z</time></trkpt><trkpt lat="46.10572" lon="13.4246867"><ele>212.39999999999998</ele><time>2026-05-02T14:13:56.606Z</time></trkpt><trkpt lat="46.10562" lon="13.4247217"><ele>212.60000000000002</ele><time>2026-05-02T14:13:57.605Z</time></trkpt><trkpt lat="46.1055183" lon="13.424735"><ele>212.8</ele><time>2026-05-02T14:13:58.609Z</time></trkpt><trkpt lat="46.1054133" lon="13.424725"><ele>213.0</ele><time>2026-05-02T14:13:59.609Z</time></trkpt><trkpt lat="46.1053183" lon="13.4247017"><ele>213.0</ele><time>2026-05-02T14:14:00.609Z</time></trkpt><trkpt lat="46.105235" lon="13.4246767"><ele>213.0</ele><time>2026-05-02T14:14:01.61Z</time></trkpt><trkpt lat="46.1051467" lon="13.42466"><ele>213.0</ele><time>2026-05-02T14:14:02.612Z</time></trkpt><trkpt lat="46.1050517" lon="13.42465"><ele>213.0</ele><time>2026-05-02T14:14:03.609Z</time></trkpt><trkpt lat="46.1049517" lon="13.4246483"><ele>213.0</ele><time>2026-05-02T14:14:04.607Z</time></trkpt><trkpt lat="46.1048417" lon="13.424645"><ele>208.75</ele><time>2026-05-02T14:14:05.611Z</time></trkpt><trkpt lat="46.104725" lon="13.424635"><ele>204.5</ele><time>2026-05-02T14:14:06.607Z</time></trkpt><trkpt lat="46.104605" lon="13.4246133"><ele>200.25</ele><time>2026-05-02T14:14:07.609Z</time></trkpt><trkpt lat="46.1044883" lon="13.4245783"><ele>196.0</ele><time>2026-05-02T14:14:08.61Z</time></trkpt><trkpt lat="46.104375" lon="13.424545"><ele>196.0</ele><time>2026-05-02T14:14:09.61Z</time></trkpt><trkpt lat="46.1042633" lon="13.4245233"><ele>196.0</ele><time>2026-05-02T14:14:10.61Z</time></trkpt><trkpt lat="46.104165" lon="13.4245117"><ele>196.0</ele><time>2026-05-02T14:14:11.61Z</time></trkpt><trkpt lat="46.1040717" lon="13.4244917"><ele>196.0</ele><time>2026-05-02T14:14:12.607Z</time></trkpt><trkpt lat="46.1039783" lon="13.4244533"><ele>196.0</ele><time>2026-05-02T14:14:13.607Z</time></trkpt><trkpt lat="46.1038883" lon="13.4244067"><ele>194.83333333333331</ele><time>2026-05-02T14:14:14.608Z</time></trkpt><trkpt lat="46.1038" lon="13.4243733"><ele>193.66666666666666</ele><time>2026-05-02T14:14:15.61Z</time></trkpt><trkpt lat="46.1037067" lon="13.42437"><ele>192.5</ele><time>2026-05-02T14:14:16.605Z</time></trkpt><trkpt lat="46.1036167" lon="13.4243883"><ele>191.33333333333331</ele><time>2026-05-02T14:14:17.609Z</time></trkpt><trkpt lat="46.1035333" lon="13.4244167"><ele>190.16666666666666</ele><time>2026-05-02T14:14:18.605Z</time></trkpt><trkpt lat="46.1034583" lon="13.4244367"><ele>189.0</ele><time>2026-05-02T14:14:19.608Z</time></trkpt><trkpt lat="46.103395" lon="13.4244433"><ele>189.0</ele><time>2026-05-02T14:14:20.61Z</time></trkpt><trkpt lat="46.1033317" lon="13.424435"><ele>189.0</ele><time>2026-05-02T14:14:21.609Z</time></trkpt><trkpt lat="46.1032667" lon="13.4244333"><ele>189.0</ele><time>2026-05-02T14:14:22.609Z</time></trkpt><trkpt lat="46.1032" lon="13.4244567"><ele>189.0</ele><time>2026-05-02T14:14:23.606Z</time></trkpt><trkpt lat="46.1031267" lon="13.4244917"><ele>189.0</ele><time>2026-05-02T14:14:24.608Z</time></trkpt><trkpt lat="46.1030483" lon="13.424505"><ele>189.0</ele><time>2026-05-02T14:14:25.608Z</time></trkpt><trkpt lat="46.102965" lon="13.4244867"><ele>189.0</ele><time>2026-05-02T14:14:26.61Z</time></trkpt><trkpt lat="46.1028717" lon="13.42444"><ele>187.83333333333334</ele><time>2026-05-02T14:14:27.605Z</time></trkpt><trkpt lat="46.1027783" lon="13.4243917"><ele>186.66666666666666</ele><time>2026-05-02T14:14:28.608Z</time></trkpt><trkpt lat="46.1026883" lon="13.424345"><ele>185.5</ele><time>2026-05-02T14:14:29.61Z</time></trkpt><trkpt lat="46.102605" lon="13.4243033"><ele>184.33333333333331</ele><time>2026-05-02T14:14:30.609Z</time></trkpt><trkpt lat="46.10253" lon="13.42427"><ele>183.16666666666666</ele><time>2026-05-02T14:14:31.61Z</time></trkpt><trkpt lat="46.1024617" lon="13.4242433"><ele>182.0</ele><time>2026-05-02T14:14:32.611Z</time></trkpt><trkpt lat="46.1023917" lon="13.4242317"><ele>180.85714285714286</ele><time>2026-05-02T14:14:33.61Z</time></trkpt><trkpt lat="46.10232" lon="13.4242317"><ele>179.71428571428572</ele><time>2026-05-02T14:14:34.608Z</time></trkpt><trkpt lat="46.10225" lon="13.42423"><ele>178.57142857142856</ele><time>2026-05-02T14:14:35.61Z</time></trkpt><trkpt lat="46.1021833" lon="13.4241967"><ele>177.42857142857144</ele><time>2026-05-02T14:14:36.61Z</time></trkpt><trkpt lat="46.1021133" lon="13.4241617"><ele>176.28571428571428</ele><time>2026-05-02T14:14:37.608Z</time></trkpt><trkpt lat="46.1020467" lon="13.4241283"><ele>175.14285714285714</ele><time>2026-05-02T14:14:38.611Z</time></trkpt><trkpt lat="46.1019617" lon="13.4241017"><ele>174.0</ele><time>2026-05-02T14:14:40.608Z</time></trkpt><trkpt lat="46.1018833" lon="13.4240383"><ele>174.0</ele><time>2026-05-02T14:14:43.608Z</time></trkpt><trkpt lat="46.1017517" lon="13.4240033"><ele>174.0</ele><time>2026-05-02T14:14:45.609Z</time></trkpt><trkpt lat="46.10167" lon="13.423975"><ele>174.0</ele><time>2026-05-02T14:14:46.604Z</time></trkpt><trkpt lat="46.1015883" lon="13.42393"><ele>174.0</ele><time>2026-05-02T14:14:47.609Z</time></trkpt><trkpt lat="46.1015083" lon="13.423855"><ele>174.0</ele><time>2026-05-02T14:14:48.608Z</time></trkpt><trkpt lat="46.1014217" lon="13.4237583"><ele>172.79999999999998</ele><time>2026-05-02T14:14:49.608Z</time></trkpt><trkpt lat="46.101335" lon="13.423655"><ele>171.6</ele><time>2026-05-02T14:14:50.61Z</time></trkpt><trkpt lat="46.101255" lon="13.4235617"><ele>170.4</ele><time>2026-05-02T14:14:51.608Z</time></trkpt><trkpt lat="46.1011783" lon="13.42348"><ele>169.2</ele><time>2026-05-02T14:14:52.607Z</time></trkpt><trkpt lat="46.1011017" lon="13.423425"><ele>168.0</ele><time>2026-05-02T14:14:53.608Z</time></trkpt><trkpt lat="46.101025" lon="13.4233733"><ele>168.0</ele><time>2026-05-02T14:14:54.61Z</time></trkpt><trkpt lat="46.1009383" lon="13.423355"><ele>168.0</ele><time>2026-05-02T14:14:55.607Z</time></trkpt><trkpt lat="46.100845" lon="13.4233633"><ele>168.0</ele><time>2026-05-02T14:14:56.611Z</time></trkpt><trkpt lat="46.1007417" lon="13.423405"><ele>168.0</ele><time>2026-05-02T14:14:57.608Z</time></trkpt><trkpt lat="46.1006517" lon="13.4234917"><ele>168.0</ele><time>2026-05-02T14:14:58.607Z</time></trkpt><trkpt lat="46.100565" lon="13.423605"><ele>164.0</ele><time>2026-05-02T14:14:59.609Z</time></trkpt><trkpt lat="46.1004867" lon="13.423725"><ele>160.0</ele><time>2026-05-02T14:15:00.609Z</time></trkpt><trkpt lat="46.1004117" lon="13.4238467"><ele>156.0</ele><time>2026-05-02T14:15:01.609Z</time></trkpt><trkpt lat="46.1003383" lon="13.423975"><ele>152.0</ele><time>2026-05-02T14:15:02.611Z</time></trkpt><trkpt lat="46.1002717" lon="13.4241"><ele>152.0</ele><time>2026-05-02T14:15:03.611Z</time></trkpt><trkpt lat="46.1002183" lon="13.4242433"><ele>152.0</ele><time>2026-05-02T14:15:04.607Z</time></trkpt><trkpt lat="46.100175" lon="13.4244067"><ele>152.0</ele><time>2026-05-02T14:15:05.609Z</time></trkpt><trkpt lat="46.1001467" lon="13.4245783"><ele>152.0</ele><time>2026-05-02T14:15:06.607Z</time></trkpt><trkpt lat="46.1001217" lon="13.4247517"><ele>151.25</ele><time>2026-05-02T14:15:07.607Z</time></trkpt><trkpt lat="46.100095" lon="13.42492"><ele>150.5</ele><time>2026-05-02T14:15:08.611Z</time></trkpt><trkpt lat="46.1000717" lon="13.425085"><ele>149.75</ele><time>2026-05-02T14:15:09.611Z</time></trkpt><trkpt lat="46.10006" lon="13.4252517"><ele>149.0</ele><time>2026-05-02T14:15:10.607Z</time></trkpt><trkpt lat="46.1000633" lon="13.4254233"><ele>148.5</ele><time>2026-05-02T14:15:11.608Z</time></trkpt><trkpt lat="46.10009" lon="13.4256033"><ele>148.0</ele><time>2026-05-02T14:15:12.606Z</time></trkpt><trkpt lat="46.1001167" lon="13.425775"><ele>147.5</ele><time>2026-05-02T14:15:13.605Z</time></trkpt><trkpt lat="46.1001317" lon="13.42594"><ele>147.0</ele><time>2026-05-02T14:15:14.61Z</time></trkpt><trkpt lat="46.1001317" lon="13.4260983"><ele>147.0</ele><time>2026-05-02T14:15:15.606Z</time></trkpt><trkpt lat="46.100105" lon="13.426255"><ele>147.0</ele><time>2026-05-02T14:15:16.609Z</time></trkpt><trkpt lat="46.100055" lon="13.4264067"><ele>147.0</ele><time>2026-05-02T14:15:17.605Z</time></trkpt><trkpt lat="46.0999783" lon="13.42655"><ele>147.0</ele><time>2026-05-02T14:15:18.608Z</time></trkpt><trkpt lat="46.0998917" lon="13.4266883"><ele>144.79999999999998</ele><time>2026-05-02T14:15:19.606Z</time></trkpt><trkpt lat="46.09981" lon="13.4268217"><ele>142.6</ele><time>2026-05-02T14:15:20.61Z</time></trkpt><trkpt lat="46.0997333" lon="13.4269417"><ele>140.39999999999998</ele><time>2026-05-02T14:15:21.611Z</time></trkpt><trkpt lat="46.099655" lon="13.42703"><ele>138.2</ele><time>2026-05-02T14:15:22.607Z</time></trkpt><trkpt lat="46.0995717" lon="13.427095"><ele>136.0</ele><time>2026-05-02T14:15:23.609Z</time></trkpt><trkpt lat="46.0994783" lon="13.4271267"><ele>136.0</ele><time>2026-05-02T14:15:24.609Z</time></trkpt><trkpt lat="46.0993833" lon="13.4271417"><ele>136.0</ele><time>2026-05-02T14:15:25.611Z</time></trkpt><trkpt lat="46.09929" lon="13.42713"><ele>136.0</ele><time>2026-05-02T14:15:26.61Z</time></trkpt><trkpt lat="46.099185" lon="13.4270933"><ele>136.0</ele><time>2026-05-02T14:15:27.608Z</time></trkpt><trkpt lat="46.0990617" lon="13.4270433"><ele>136.0</ele><time>2026-05-02T14:15:28.609Z</time></trkpt><trkpt lat="46.09892" lon="13.42699"><ele>135.75</ele><time>2026-05-02T14:15:29.609Z</time></trkpt><trkpt lat="46.0987733" lon="13.4269367"><ele>135.5</ele><time>2026-05-02T14:15:30.598Z</time></trkpt><trkpt lat="46.0986317" lon="13.4268833"><ele>135.25</ele><time>2026-05-02T14:15:31.609Z</time></trkpt><trkpt lat="46.0984967" lon="13.4268267"><ele>135.0</ele><time>2026-05-02T14:15:32.61Z</time></trkpt><trkpt lat="46.0983733" lon="13.4267683"><ele>135.0</ele><time>2026-05-02T14:15:33.61Z</time></trkpt><trkpt lat="46.09826" lon="13.426705"><ele>135.0</ele><time>2026-05-02T14:15:34.608Z</time></trkpt><trkpt lat="46.0981583" lon="13.4266467"><ele>135.0</ele><time>2026-05-02T14:15:35.61Z</time></trkpt><trkpt lat="46.0980667" lon="13.4265867"><ele>135.0</ele><time>2026-05-02T14:15:36.612Z</time></trkpt><trkpt lat="46.0979817" lon="13.42653"><ele>135.0</ele><time>2026-05-02T14:15:37.608Z</time></trkpt><trkpt lat="46.0979067" lon="13.4264817"><ele>135.16666666666666</ele><time>2026-05-02T14:15:38.61Z</time></trkpt><trkpt lat="46.09784" lon="13.4264367"><ele>135.33333333333334</ele><time>2026-05-02T14:15:39.61Z</time></trkpt><trkpt lat="46.0977333" lon="13.4263733"><ele>135.5</ele><time>2026-05-02T14:15:41.606Z</time></trkpt><trkpt lat="46.09767" lon="13.4263333"><ele>135.66666666666669</ele><time>2026-05-02T14:15:44.611Z</time></trkpt><trkpt lat="46.0975967" lon="13.4263917"><ele>135.83333333333334</ele><time>2026-05-02T14:15:49.609Z</time></trkpt><trkpt lat="46.097525" lon="13.42646"><ele>136.0</ele><time>2026-05-02T14:15:50.611Z</time></trkpt><trkpt lat="46.09743" lon="13.4265133"><ele>135.75</ele><time>2026-05-02T14:15:51.61Z</time></trkpt><trkpt lat="46.0973217" lon="13.42656"><ele>135.5</ele><time>2026-05-02T14:15:52.607Z</time></trkpt><trkpt lat="46.097205" lon="13.4266117"><ele>135.25</ele><time>2026-05-02T14:15:53.609Z</time></trkpt><trkpt lat="46.0970833" lon="13.4266667"><ele>135.0</ele><time>2026-05-02T14:15:54.61Z</time></trkpt><trkpt lat="46.09696" lon="13.4267117"><ele>135.0</ele><time>2026-05-02T14:15:55.607Z</time></trkpt><trkpt lat="46.0968383" lon="13.4267633"><ele>135.0</ele><time>2026-05-02T14:15:56.609Z</time></trkpt><trkpt lat="46.09672" lon="13.4268133"><ele>135.0</ele><time>2026-05-02T14:15:57.612Z</time></trkpt><trkpt lat="46.0966067" lon="13.42686"><ele>135.0</ele><time>2026-05-02T14:15:58.61Z</time></trkpt><trkpt lat="46.0964967" lon="13.4269117"><ele>134.8</ele><time>2026-05-02T14:15:59.609Z</time></trkpt><trkpt lat="46.0963883" lon="13.426965"><ele>134.6</ele><time>2026-05-02T14:16:00.611Z</time></trkpt><trkpt lat="46.0962867" lon="13.4270133"><ele>134.4</ele><time>2026-05-02T14:16:01.608Z</time></trkpt><trkpt lat="46.0961967" lon="13.4270583"><ele>134.2</ele><time>2026-05-02T14:16:02.606Z</time></trkpt><trkpt lat="46.0961133" lon="13.4270817"><ele>134.0</ele><time>2026-05-02T14:16:03.611Z</time></trkpt><trkpt lat="46.0960367" lon="13.4270817"><ele>134.0</ele><time>2026-05-02T14:16:04.609Z</time></trkpt><trkpt lat="46.095965" lon="13.4270467"><ele>134.0</ele><time>2026-05-02T14:16:05.611Z</time></trkpt><trkpt lat="46.0959" lon="13.42698"><ele>134.0</ele><time>2026-05-02T14:16:06.61Z</time></trkpt><trkpt lat="46.0958383" lon="13.4268717"><ele>134.0</ele><time>2026-05-02T14:16:07.611Z</time></trkpt><trkpt lat="46.095805" lon="13.426715"><ele>134.0</ele><time>2026-05-02T14:16:08.61Z</time></trkpt><trkpt lat="46.09579" lon="13.4265317"><ele>134.0</ele><time>2026-05-02T14:16:09.61Z</time></trkpt><trkpt lat="46.095785" lon="13.4263383"><ele>134.0</ele><time>2026-05-02T14:16:10.609Z</time></trkpt><trkpt lat="46.095785" lon="13.4261433"><ele>134.0</ele><time>2026-05-02T14:16:11.608Z</time></trkpt><trkpt lat="46.0957883" lon="13.425935"><ele>134.0</ele><time>2026-05-02T14:16:12.608Z</time></trkpt><trkpt lat="46.0957917" lon="13.4257133"><ele>134.0</ele><time>2026-05-02T14:16:13.608Z</time></trkpt><trkpt lat="46.0957917" lon="13.4254983"><ele>134.0</ele><time>2026-05-02T14:16:14.612Z</time></trkpt><trkpt lat="46.0957933" lon="13.4253017"><ele>134.0</ele><time>2026-05-02T14:16:15.604Z</time></trkpt><trkpt lat="46.0958033" lon="13.4251217"><ele>134.0</ele><time>2026-05-02T14:16:16.604Z</time></trkpt><trkpt lat="46.0958233" lon="13.4249617"><ele>134.0</ele><time>2026-05-02T14:16:17.608Z</time></trkpt><trkpt lat="46.0958533" lon="13.42482"><ele>134.0</ele><time>2026-05-02T14:16:18.606Z</time></trkpt><trkpt lat="46.09589" lon="13.4246983"><ele>134.0</ele><time>2026-05-02T14:16:19.612Z</time></trkpt><trkpt lat="46.0959267" lon="13.4245867"><ele>134.0</ele><time>2026-05-02T14:16:20.614Z</time></trkpt><trkpt lat="46.0959517" lon="13.424475"><ele>134.0</ele><time>2026-05-02T14:16:21.61Z</time></trkpt><trkpt lat="46.0959517" lon="13.42437"><ele>134.0</ele><time>2026-05-02T14:16:22.609Z</time></trkpt><trkpt lat="46.0959183" lon="13.4242833"><ele>133.66666666666666</ele><time>2026-05-02T14:16:23.609Z</time></trkpt><trkpt lat="46.0958567" lon="13.4242217"><ele>133.33333333333331</ele><time>2026-05-02T14:16:24.611Z</time></trkpt><trkpt lat="46.0957833" lon="13.4241967"><ele>133.0</ele><time>2026-05-02T14:16:25.611Z</time></trkpt><trkpt lat="46.09569" lon="13.4242233"><ele>132.66666666666666</ele><time>2026-05-02T14:16:26.611Z</time></trkpt><trkpt lat="46.09559" lon="13.4242733"><ele>132.33333333333334</ele><time>2026-05-02T14:16:27.609Z</time></trkpt><trkpt lat="46.0955" lon="13.4243117"><ele>132.0</ele><time>2026-05-02T14:16:28.605Z</time></trkpt><trkpt lat="46.0954233" lon="13.4243317"><ele>132.0</ele><time>2026-05-02T14:16:29.61Z</time></trkpt><trkpt lat="46.0953133" lon="13.4243133"><ele>132.0</ele><time>2026-05-02T14:16:31.61Z</time></trkpt><trkpt lat="46.0952333" lon="13.4242333"><ele>132.0</ele><time>2026-05-02T14:16:33.61Z</time></trkpt><trkpt lat="46.09516" lon="13.4242067"><ele>132.0</ele><time>2026-05-02T14:16:35.608Z</time></trkpt><trkpt lat="46.0950033" lon="13.424305"><ele>132.2</ele><time>2026-05-02T14:17:46.607Z</time></trkpt><trkpt lat="46.0949017" lon="13.42433"><ele>132.39999999999998</ele><time>2026-05-02T14:17:48.611Z</time></trkpt><trkpt lat="46.0948283" lon="13.4243267"><ele>132.60000000000002</ele><time>2026-05-02T14:17:49.607Z</time></trkpt><trkpt lat="46.094745" lon="13.4243467"><ele>132.8</ele><time>2026-05-02T14:17:50.609Z</time></trkpt><trkpt lat="46.0946517" lon="13.4243617"><ele>133.0</ele><time>2026-05-02T14:17:51.603Z</time></trkpt><trkpt lat="46.0945483" lon="13.424375"><ele>133.0</ele><time>2026-05-02T14:17:52.606Z</time></trkpt><trkpt lat="46.0944367" lon="13.4243933"><ele>133.0</ele><time>2026-05-02T14:17:53.605Z</time></trkpt><trkpt lat="46.0943183" lon="13.4244133"><ele>133.0</ele><time>2026-05-02T14:17:54.607Z</time></trkpt><trkpt lat="46.0941933" lon="13.42443"><ele>133.0</ele><time>2026-05-02T14:17:55.607Z</time></trkpt><trkpt lat="46.0940667" lon="13.4244417"><ele>133.0</ele><time>2026-05-02T14:17:56.607Z</time></trkpt><trkpt lat="46.0939333" lon="13.4244533"><ele>133.0</ele><time>2026-05-02T14:17:57.607Z</time></trkpt><trkpt lat="46.0938033" lon="13.4244633"><ele>133.0</ele><time>2026-05-02T14:17:58.607Z</time></trkpt><trkpt lat="46.0936683" lon="13.4244717"><ele>133.0</ele><time>2026-05-02T14:17:59.609Z</time></trkpt><trkpt lat="46.0935367" lon="13.42448"><ele>133.0</ele><time>2026-05-02T14:18:00.606Z</time></trkpt><trkpt lat="46.0934" lon="13.4244917"><ele>133.0</ele><time>2026-05-02T14:18:01.607Z</time></trkpt><trkpt lat="46.0932667" lon="13.424505"><ele>133.0</ele><time>2026-05-02T14:18:02.61Z</time></trkpt><trkpt lat="46.09314" lon="13.4245117"><ele>133.0</ele><time>2026-05-02T14:18:03.608Z</time></trkpt><trkpt lat="46.0930217" lon="13.4245183"><ele>133.4</ele><time>2026-05-02T14:18:04.607Z</time></trkpt><trkpt lat="46.0929083" lon="13.42453"><ele>133.8</ele><time>2026-05-02T14:18:05.605Z</time></trkpt><trkpt lat="46.0928017" lon="13.4245467"><ele>134.2</ele><time>2026-05-02T14:18:06.607Z</time></trkpt><trkpt lat="46.092705" lon="13.424565"><ele>134.6</ele><time>2026-05-02T14:18:07.608Z</time></trkpt><trkpt lat="46.092615" lon="13.4246017"><ele>135.0</ele><time>2026-05-02T14:18:08.61Z</time></trkpt><trkpt lat="46.0925333" lon="13.424655"><ele>135.0</ele><time>2026-05-02T14:18:09.604Z</time></trkpt><trkpt lat="46.0924517" lon="13.4247383"><ele>135.0</ele><time>2026-05-02T14:18:10.606Z</time></trkpt><trkpt lat="46.0923667" lon="13.42485"><ele>135.0</ele><time>2026-05-02T14:18:11.608Z</time></trkpt><trkpt lat="46.0922717" lon="13.4249717"><ele>135.0</ele><time>2026-05-02T14:18:12.606Z</time></trkpt><trkpt lat="46.0921583" lon="13.4250767"><ele>135.33333333333334</ele><time>2026-05-02T14:18:13.607Z</time></trkpt><trkpt lat="46.0920267" lon="13.42517"><ele>135.66666666666669</ele><time>2026-05-02T14:18:14.61Z</time></trkpt><trkpt lat="46.0918817" lon="13.42526"><ele>136.0</ele><time>2026-05-02T14:18:15.607Z</time></trkpt><trkpt lat="46.0917267" lon="13.425355"><ele>134.66666666666669</ele><time>2026-05-02T14:18:16.609Z</time></trkpt><trkpt lat="46.091565" lon="13.4254467"><ele>133.33333333333334</ele><time>2026-05-02T14:18:17.605Z</time></trkpt><trkpt lat="46.0914033" lon="13.42554"><ele>132.0</ele><time>2026-05-02T14:18:18.603Z</time></trkpt><trkpt lat="46.091245" lon="13.4256333"><ele>132.0</ele><time>2026-05-02T14:18:19.603Z</time></trkpt><trkpt lat="46.0910917" lon="13.4257233"><ele>132.0</ele><time>2026-05-02T14:18:20.608Z</time></trkpt><trkpt lat="46.0909333" lon="13.425805"><ele>132.0</ele><time>2026-05-02T14:18:21.607Z</time></trkpt><trkpt lat="46.0907683" lon="13.4258817"><ele>129.33333333333334</ele><time>2026-05-02T14:18:22.604Z</time></trkpt><trkpt lat="46.0905917" lon="13.42595"><ele>126.66666666666667</ele><time>2026-05-02T14:18:23.61Z</time></trkpt><trkpt lat="46.0904133" lon="13.4260167"><ele>124.0</ele><time>2026-05-02T14:18:24.608Z</time></trkpt><trkpt lat="46.0902317" lon="13.426075"><ele>124.0</ele><time>2026-05-02T14:18:25.608Z</time></trkpt><trkpt lat="46.0900483" lon="13.4261217"><ele>124.0</ele><time>2026-05-02T14:18:26.611Z</time></trkpt><trkpt lat="46.0898683" lon="13.4261683"><ele>124.0</ele><time>2026-05-02T14:18:27.609Z</time></trkpt><trkpt lat="46.0896933" lon="13.4262117"><ele>124.33333333333334</ele><time>2026-05-02T14:18:28.607Z</time></trkpt><trkpt lat="46.089525" lon="13.4262567"><ele>124.66666666666666</ele><time>2026-05-02T14:18:29.608Z</time></trkpt><trkpt lat="46.08936" lon="13.4262983"><ele>125.0</ele><time>2026-05-02T14:18:30.608Z</time></trkpt><trkpt lat="46.0892017" lon="13.426335"><ele>125.0</ele><time>2026-05-02T14:18:31.61Z</time></trkpt><trkpt lat="46.08905" lon="13.4263667"><ele>125.0</ele><time>2026-05-02T14:18:32.611Z</time></trkpt><trkpt lat="46.0888983" lon="13.42639"><ele>125.0</ele><time>2026-05-02T14:18:33.611Z</time></trkpt><trkpt lat="46.0887517" lon="13.4264067"><ele>125.0</ele><time>2026-05-02T14:18:34.609Z</time></trkpt><trkpt lat="46.088615" lon="13.4264183"><ele>125.0</ele><time>2026-05-02T14:18:35.607Z</time></trkpt><trkpt lat="46.0884817" lon="13.4264367"><ele>125.0</ele><time>2026-05-02T14:18:36.612Z</time></trkpt><trkpt lat="46.08835" lon="13.4264717"><ele>125.0</ele><time>2026-05-02T14:18:37.61Z</time></trkpt><trkpt lat="46.0882217" lon="13.42653"><ele>125.25</ele><time>2026-05-02T14:18:38.61Z</time></trkpt><trkpt lat="46.0881" lon="13.4266117"><ele>125.5</ele><time>2026-05-02T14:18:39.607Z</time></trkpt><trkpt lat="46.087985" lon="13.4267083"><ele>125.75</ele><time>2026-05-02T14:18:40.607Z</time></trkpt><trkpt lat="46.0878817" lon="13.4268167"><ele>126.0</ele><time>2026-05-02T14:18:41.604Z</time></trkpt><trkpt lat="46.0877933" lon="13.4269383"><ele>126.0</ele><time>2026-05-02T14:18:42.606Z</time></trkpt><trkpt lat="46.087715" lon="13.4270683"><ele>126.0</ele><time>2026-05-02T14:18:43.607Z</time></trkpt><trkpt lat="46.08765" lon="13.4272033"><ele>126.0</ele><time>2026-05-02T14:18:44.61Z</time></trkpt><trkpt lat="46.08759" lon="13.4273417"><ele>126.0</ele><time>2026-05-02T14:18:45.606Z</time></trkpt><trkpt lat="46.0875333" lon="13.4274917"><ele>127.4</ele><time>2026-05-02T14:18:46.603Z</time></trkpt><trkpt lat="46.08748" lon="13.4276283"><ele>128.8</ele><time>2026-05-02T14:18:47.61Z</time></trkpt><trkpt lat="46.0874317" lon="13.4277567"><ele>130.20000000000002</ele><time>2026-05-02T14:18:48.604Z</time></trkpt><trkpt lat="46.08738" lon="13.4278717"><ele>131.6</ele><time>2026-05-02T14:18:49.608Z</time></trkpt><trkpt lat="46.0873317" lon="13.42797"><ele>133.0</ele><time>2026-05-02T14:18:50.605Z</time></trkpt><trkpt lat="46.0872867" lon="13.4280567"><ele>133.0</ele><time>2026-05-02T14:18:51.606Z</time></trkpt><trkpt lat="46.0872417" lon="13.428135"><ele>133.0</ele><time>2026-05-02T14:18:52.607Z</time></trkpt><trkpt lat="46.0871917" lon="13.4282083"><ele>133.0</ele><time>2026-05-02T14:18:53.608Z</time></trkpt><trkpt lat="46.08715" lon="13.4282833"><ele>133.0</ele><time>2026-05-02T14:18:54.61Z</time></trkpt><trkpt lat="46.0871433" lon="13.4284233"><ele>133.0</ele><time>2026-05-02T14:18:56.611Z</time></trkpt><trkpt lat="46.0871783" lon="13.428505"><ele>133.0</ele><time>2026-05-02T14:18:57.608Z</time></trkpt><trkpt lat="46.087235" lon="13.428585"><ele>133.0</ele><time>2026-05-02T14:18:58.608Z</time></trkpt><trkpt lat="46.0873117" lon="13.428675"><ele>133.0</ele><time>2026-05-02T14:18:59.606Z</time></trkpt><trkpt lat="46.0874017" lon="13.42878"><ele>133.0</ele><time>2026-05-02T14:19:00.606Z</time></trkpt><trkpt lat="46.0875017" lon="13.4289"><ele>133.0</ele><time>2026-05-02T14:19:01.609Z</time></trkpt><trkpt lat="46.087605" lon="13.4290333"><ele>132.75</ele><time>2026-05-02T14:19:02.612Z</time></trkpt><trkpt lat="46.0877067" lon="13.4291783"><ele>132.5</ele><time>2026-05-02T14:19:03.608Z</time></trkpt><trkpt lat="46.0878033" lon="13.429335"><ele>132.25</ele><time>2026-05-02T14:19:04.609Z</time></trkpt><trkpt lat="46.087895" lon="13.4294967"><ele>132.0</ele><time>2026-05-02T14:19:05.607Z</time></trkpt><trkpt lat="46.087985" lon="13.4296667"><ele>132.0</ele><time>2026-05-02T14:19:06.607Z</time></trkpt><trkpt lat="46.0880667" lon="13.42984"><ele>132.0</ele><time>2026-05-02T14:19:07.605Z</time></trkpt><trkpt lat="46.088145" lon="13.4300167"><ele>132.0</ele><time>2026-05-02T14:19:08.611Z</time></trkpt><trkpt lat="46.0882217" lon="13.4301917"><ele>132.0</ele><time>2026-05-02T14:19:09.607Z</time></trkpt><trkpt lat="46.0882917" lon="13.4303667"><ele>132.5</ele><time>2026-05-02T14:19:10.607Z</time></trkpt><trkpt lat="46.0883633" lon="13.430545"><ele>133.0</ele><time>2026-05-02T14:19:11.605Z</time></trkpt><trkpt lat="46.0884333" lon="13.4307183"><ele>133.5</ele><time>2026-05-02T14:19:12.607Z</time></trkpt><trkpt lat="46.0884967" lon="13.4308933"><ele>134.0</ele><time>2026-05-02T14:19:13.604Z</time></trkpt><trkpt lat="46.088565" lon="13.4310667"><ele>134.0</ele><time>2026-05-02T14:19:14.61Z</time></trkpt><trkpt lat="46.0886333" lon="13.4312383"><ele>134.0</ele><time>2026-05-02T14:19:15.603Z</time></trkpt><trkpt lat="46.0887" lon="13.4314083"><ele>134.0</ele><time>2026-05-02T14:19:16.606Z</time></trkpt><trkpt lat="46.08877" lon="13.4315767"><ele>134.0</ele><time>2026-05-02T14:19:17.603Z</time></trkpt><trkpt lat="46.0888433" lon="13.4317467"><ele>134.25</ele><time>2026-05-02T14:19:18.603Z</time></trkpt><trkpt lat="46.0889117" lon="13.4319183"><ele>134.5</ele><time>2026-05-02T14:19:19.607Z</time></trkpt><trkpt lat="46.08898" lon="13.43209"><ele>134.75</ele><time>2026-05-02T14:19:20.609Z</time></trkpt><trkpt lat="46.0890483" lon="13.4322617"><ele>135.0</ele><time>2026-05-02T14:19:21.608Z</time></trkpt><trkpt lat="46.089115" lon="13.4324233"><ele>135.0</ele><time>2026-05-02T14:19:22.607Z</time></trkpt><trkpt lat="46.0891733" lon="13.43257"><ele>135.0</ele><time>2026-05-02T14:19:23.609Z</time></trkpt><trkpt lat="46.0892267" lon="13.4327017"><ele>135.0</ele><time>2026-05-02T14:19:24.606Z</time></trkpt><trkpt lat="46.0892767" lon="13.4328233"><ele>135.0</ele><time>2026-05-02T14:19:25.607Z</time></trkpt><trkpt lat="46.0893183" lon="13.43293"><ele>135.0</ele><time>2026-05-02T14:19:26.61Z</time></trkpt><trkpt lat="46.0893483" lon="13.433015"><ele>135.0</ele><time>2026-05-02T14:19:27.607Z</time></trkpt><trkpt lat="46.0894" lon="13.4331367"><ele>135.0</ele><time>2026-05-02T14:19:29.609Z</time></trkpt><trkpt lat="46.08945" lon="13.4332883"><ele>135.0</ele><time>2026-05-02T14:20:49.609Z</time></trkpt><trkpt lat="46.0894633" lon="13.43339"><ele>135.0</ele><time>2026-05-02T14:20:50.609Z</time></trkpt><trkpt lat="46.08947" lon="13.4335083"><ele>135.0</ele><time>2026-05-02T14:20:51.61Z</time></trkpt><trkpt lat="46.08947" lon="13.4336417"><ele>135.0</ele><time>2026-05-02T14:20:52.607Z</time></trkpt><trkpt lat="46.089465" lon="13.433785"><ele>135.0</ele><time>2026-05-02T14:20:53.607Z</time></trkpt><trkpt lat="46.0894517" lon="13.4339533"><ele>135.0</ele><time>2026-05-02T14:20:54.603Z</time></trkpt><trkpt lat="46.0894433" lon="13.4341467"><ele>135.0</ele><time>2026-05-02T14:20:55.609Z</time></trkpt><trkpt lat="46.0894333" lon="13.43438"><ele>135.66666666666666</ele><time>2026-05-02T14:20:56.61Z</time></trkpt><trkpt lat="46.0894233" lon="13.434635"><ele>136.33333333333331</ele><time>2026-05-02T14:20:57.605Z</time></trkpt><trkpt lat="46.0894083" lon="13.4348917"><ele>137.0</ele><time>2026-05-02T14:20:58.604Z</time></trkpt><trkpt lat="46.0893933" lon="13.4351483"><ele>137.33333333333331</ele><time>2026-05-02T14:20:59.605Z</time></trkpt><trkpt lat="46.0893817" lon="13.4354067"><ele>137.66666666666666</ele><time>2026-05-02T14:21:00.607Z</time></trkpt><trkpt lat="46.08937" lon="13.4356517"><ele>138.0</ele><time>2026-05-02T14:21:01.607Z</time></trkpt><trkpt lat="46.089355" lon="13.4358783"><ele>138.0</ele><time>2026-05-02T14:21:02.608Z</time></trkpt><trkpt lat="46.089345" lon="13.436085"><ele>138.0</ele><time>2026-05-02T14:21:03.607Z</time></trkpt><trkpt lat="46.0893383" lon="13.4362933"><ele>138.0</ele><time>2026-05-02T14:21:04.604Z</time></trkpt><trkpt lat="46.08933" lon="13.4365"><ele>138.0</ele><time>2026-05-02T14:21:05.608Z</time></trkpt><trkpt lat="46.089325" lon="13.4366933"><ele>138.0</ele><time>2026-05-02T14:21:06.609Z</time></trkpt><trkpt lat="46.0893217" lon="13.4368667"><ele>138.0</ele><time>2026-05-02T14:21:07.608Z</time></trkpt><trkpt lat="46.0893183" lon="13.43702"><ele>138.0</ele><time>2026-05-02T14:21:08.609Z</time></trkpt><trkpt lat="46.0893117" lon="13.437165"><ele>138.0</ele><time>2026-05-02T14:21:09.607Z</time></trkpt><trkpt lat="46.0892967" lon="13.4373217"><ele>138.0</ele><time>2026-05-02T14:21:10.609Z</time></trkpt><trkpt lat="46.0892817" lon="13.4374967"><ele>138.5</ele><time>2026-05-02T14:21:11.608Z</time></trkpt><trkpt lat="46.0892633" lon="13.4376683"><ele>139.0</ele><time>2026-05-02T14:21:12.608Z</time></trkpt><trkpt lat="46.0892333" lon="13.4378283"><ele>139.5</ele><time>2026-05-02T14:21:13.608Z</time></trkpt><trkpt lat="46.0891867" lon="13.4379767"><ele>140.0</ele><time>2026-05-02T14:21:14.61Z</time></trkpt><trkpt lat="46.0891383" lon="13.438105"><ele>140.0</ele><time>2026-05-02T14:21:15.606Z</time></trkpt><trkpt lat="46.0890967" lon="13.4382183"><ele>140.0</ele><time>2026-05-02T14:21:16.609Z</time></trkpt><trkpt lat="46.0890767" lon="13.4383183"><ele>140.0</ele><time>2026-05-02T14:21:17.609Z</time></trkpt><trkpt lat="46.0890717" lon="13.43841"><ele>140.0</ele><time>2026-05-02T14:21:18.604Z</time></trkpt><trkpt lat="46.0891367" lon="13.43854"><ele>140.0</ele><time>2026-05-02T14:21:20.61Z</time></trkpt><trkpt lat="46.0892183" lon="13.4385767"><ele>140.0</ele><time>2026-05-02T14:21:21.608Z</time></trkpt><trkpt lat="46.0893467" lon="13.4386083"><ele>140.0</ele><time>2026-05-02T14:21:22.606Z</time></trkpt><trkpt lat="46.08948" lon="13.43862"><ele>140.0</ele><time>2026-05-02T14:21:23.606Z</time></trkpt><trkpt lat="46.089605" lon="13.4386067"><ele>140.0</ele><time>2026-05-02T14:21:24.606Z</time></trkpt><trkpt lat="46.08971" lon="13.438575"><ele>140.0</ele><time>2026-05-02T14:21:25.607Z</time></trkpt><trkpt lat="46.0897983" lon="13.438555"><ele>140.0</ele><time>2026-05-02T14:21:26.608Z</time></trkpt><trkpt lat="46.0898767" lon="13.4385633"><ele>140.0</ele><time>2026-05-02T14:21:27.607Z</time></trkpt><trkpt lat="46.0899417" lon="13.4386033"><ele>140.0</ele><time>2026-05-02T14:21:28.604Z</time></trkpt><trkpt lat="46.0899933" lon="13.4386833"><ele>140.0</ele><time>2026-05-02T14:21:29.605Z</time></trkpt><trkpt lat="46.090035" lon="13.438805"><ele>140.0</ele><time>2026-05-02T14:21:30.607Z</time></trkpt><trkpt lat="46.09009" lon="13.4389883"><ele>139.66666666666666</ele><time>2026-05-02T14:21:31.605Z</time></trkpt><trkpt lat="46.0901517" lon="13.4391967"><ele>139.33333333333334</ele><time>2026-05-02T14:21:32.61Z</time></trkpt><trkpt lat="46.0902133" lon="13.4394183"><ele>139.0</ele><time>2026-05-02T14:21:33.605Z</time></trkpt><trkpt lat="46.090275" lon="13.439645"><ele>139.0</ele><time>2026-05-02T14:21:34.607Z</time></trkpt><trkpt lat="46.09034" lon="13.439875"><ele>139.0</ele><time>2026-05-02T14:21:35.608Z</time></trkpt><trkpt lat="46.0904017" lon="13.4401167"><ele>139.0</ele><time>2026-05-02T14:21:36.606Z</time></trkpt><trkpt lat="46.09046" lon="13.4403567"><ele>138.33333333333334</ele><time>2026-05-02T14:21:37.606Z</time></trkpt><trkpt lat="46.0905133" lon="13.4405817"><ele>137.66666666666666</ele><time>2026-05-02T14:21:38.611Z</time></trkpt><trkpt lat="46.0905583" lon="13.4408017"><ele>137.0</ele><time>2026-05-02T14:21:39.609Z</time></trkpt><trkpt lat="46.0906017" lon="13.4410033"><ele>137.0</ele><time>2026-05-02T14:21:40.608Z</time></trkpt><trkpt lat="46.0906417" lon="13.4411967"><ele>137.0</ele><time>2026-05-02T14:21:41.606Z</time></trkpt><trkpt lat="46.0906817" lon="13.44139"><ele>137.0</ele><time>2026-05-02T14:21:42.607Z</time></trkpt><trkpt lat="46.0907217" lon="13.4415817"><ele>137.0</ele><time>2026-05-02T14:21:43.606Z</time></trkpt><trkpt lat="46.0907617" lon="13.4417633"><ele>137.25</ele><time>2026-05-02T14:21:44.608Z</time></trkpt><trkpt lat="46.0907983" lon="13.4419317"><ele>137.5</ele><time>2026-05-02T14:21:45.607Z</time></trkpt><trkpt lat="46.0908317" lon="13.44209"><ele>137.75</ele><time>2026-05-02T14:21:46.607Z</time></trkpt><trkpt lat="46.090865" lon="13.4422417"><ele>138.0</ele><time>2026-05-02T14:21:47.609Z</time></trkpt><trkpt lat="46.0908983" lon="13.44239"><ele>138.0</ele><time>2026-05-02T14:21:48.61Z</time></trkpt><trkpt lat="46.0909333" lon="13.442545"><ele>138.0</ele><time>2026-05-02T14:21:49.608Z</time></trkpt><trkpt lat="46.0909783" lon="13.4427033"><ele>138.0</ele><time>2026-05-02T14:21:50.609Z</time></trkpt><trkpt lat="46.09103" lon="13.4428617"><ele>138.0</ele><time>2026-05-02T14:21:51.607Z</time></trkpt><trkpt lat="46.0910817" lon="13.44302"><ele>138.25</ele><time>2026-05-02T14:21:52.606Z</time></trkpt><trkpt lat="46.09113" lon="13.4431717"><ele>138.5</ele><time>2026-05-02T14:21:53.606Z</time></trkpt><trkpt lat="46.0911767" lon="13.4433267"><ele>138.75</ele><time>2026-05-02T14:21:54.607Z</time></trkpt><trkpt lat="46.0912267" lon="13.44349"><ele>139.0</ele><time>2026-05-02T14:21:55.608Z</time></trkpt><trkpt lat="46.09128" lon="13.4436583"><ele>138.75</ele><time>2026-05-02T14:21:56.609Z</time></trkpt><trkpt lat="46.0913367" lon="13.4438333"><ele>138.5</ele><time>2026-05-02T14:21:57.608Z</time></trkpt><trkpt lat="46.0913883" lon="13.4440167"><ele>138.25</ele><time>2026-05-02T14:21:58.609Z</time></trkpt><trkpt lat="46.0914317" lon="13.444205"><ele>138.0</ele><time>2026-05-02T14:21:59.608Z</time></trkpt><trkpt lat="46.09147" lon="13.4443883"><ele>138.0</ele><time>2026-05-02T14:22:00.606Z</time></trkpt><trkpt lat="46.0915033" lon="13.444565"><ele>138.0</ele><time>2026-05-02T14:22:01.611Z</time></trkpt><trkpt lat="46.09153" lon="13.44474"><ele>138.0</ele><time>2026-05-02T14:22:02.61Z</time></trkpt><trkpt lat="46.0915567" lon="13.4449133"><ele>138.0</ele><time>2026-05-02T14:22:03.61Z</time></trkpt><trkpt lat="46.09158" lon="13.4450817"><ele>138.6</ele><time>2026-05-02T14:22:04.605Z</time></trkpt><trkpt lat="46.0916" lon="13.4452433"><ele>139.20000000000002</ele><time>2026-05-02T14:22:05.609Z</time></trkpt><trkpt lat="46.0916167" lon="13.4454"><ele>139.8</ele><time>2026-05-02T14:22:06.609Z</time></trkpt><trkpt lat="46.091635" lon="13.4455517"><ele>140.4</ele><time>2026-05-02T14:22:07.607Z</time></trkpt><trkpt lat="46.091655" lon="13.4457"><ele>141.0</ele><time>2026-05-02T14:22:08.608Z</time></trkpt><trkpt lat="46.0916783" lon="13.445845"><ele>141.0</ele><time>2026-05-02T14:22:09.606Z</time></trkpt><trkpt lat="46.09171" lon="13.4459933"><ele>141.0</ele><time>2026-05-02T14:22:10.605Z</time></trkpt><trkpt lat="46.0917483" lon="13.44614"><ele>141.0</ele><time>2026-05-02T14:22:11.607Z</time></trkpt><trkpt lat="46.0917883" lon="13.4462917"><ele>141.0</ele><time>2026-05-02T14:22:12.607Z</time></trkpt><trkpt lat="46.0918233" lon="13.4464433"><ele>141.0</ele><time>2026-05-02T14:22:13.605Z</time></trkpt><trkpt lat="46.0918533" lon="13.4466033"><ele>141.25</ele><time>2026-05-02T14:22:14.61Z</time></trkpt><trkpt lat="46.0918783" lon="13.4467717"><ele>141.5</ele><time>2026-05-02T14:22:15.605Z</time></trkpt><trkpt lat="46.0919083" lon="13.446945"><ele>141.75</ele><time>2026-05-02T14:22:16.606Z</time></trkpt><trkpt lat="46.0919517" lon="13.4471283"><ele>142.0</ele><time>2026-05-02T14:22:17.607Z</time></trkpt><trkpt lat="46.0919983" lon="13.4473183"><ele>142.75</ele><time>2026-05-02T14:22:18.607Z</time></trkpt><trkpt lat="46.0920567" lon="13.4475133"><ele>143.5</ele><time>2026-05-02T14:22:19.609Z</time></trkpt><trkpt lat="46.092115" lon="13.4476933"><ele>144.25</ele><time>2026-05-02T14:22:20.609Z</time></trkpt><trkpt lat="46.092165" lon="13.447855"><ele>145.0</ele><time>2026-05-02T14:22:21.605Z</time></trkpt><trkpt lat="46.09221" lon="13.4479967"><ele>146.0</ele><time>2026-05-02T14:22:22.608Z</time></trkpt><trkpt lat="46.092255" lon="13.4481333"><ele>147.0</ele><time>2026-05-02T14:22:23.609Z</time></trkpt><trkpt lat="46.0922933" lon="13.44827"><ele>148.0</ele><time>2026-05-02T14:22:24.606Z</time></trkpt><trkpt lat="46.092305" lon="13.448415"><ele>149.0</ele><time>2026-05-02T14:22:25.608Z</time></trkpt><trkpt lat="46.092295" lon="13.4485583"><ele>150.0</ele><time>2026-05-02T14:22:26.609Z</time></trkpt><trkpt lat="46.0922633" lon="13.4486983"><ele>150.4</ele><time>2026-05-02T14:22:27.604Z</time></trkpt><trkpt lat="46.0922283" lon="13.4488317"><ele>150.8</ele><time>2026-05-02T14:22:28.608Z</time></trkpt><trkpt lat="46.0921967" lon="13.44896"><ele>151.2</ele><time>2026-05-02T14:22:29.604Z</time></trkpt><trkpt lat="46.0921683" lon="13.4491033"><ele>151.6</ele><time>2026-05-02T14:22:30.608Z</time></trkpt><trkpt lat="46.0921417" lon="13.44927"><ele>152.0</ele><time>2026-05-02T14:22:31.609Z</time></trkpt><trkpt lat="46.0921067" lon="13.4494683"><ele>154.0</ele><time>2026-05-02T14:22:32.609Z</time></trkpt><trkpt lat="46.0920667" lon="13.4496783"><ele>156.0</ele><time>2026-05-02T14:22:33.608Z</time></trkpt><trkpt lat="46.0920267" lon="13.4498983"><ele>158.0</ele><time>2026-05-02T14:22:34.608Z</time></trkpt><trkpt lat="46.0919817" lon="13.4501183"><ele>158.0</ele><time>2026-05-02T14:22:35.61Z</time></trkpt><trkpt lat="46.0919433" lon="13.4503417"><ele>158.0</ele><time>2026-05-02T14:22:36.606Z</time></trkpt><trkpt lat="46.0919167" lon="13.4505617"><ele>158.0</ele><time>2026-05-02T14:22:37.607Z</time></trkpt><trkpt lat="46.0918983" lon="13.4507783"><ele>160.0</ele><time>2026-05-02T14:22:38.606Z</time></trkpt><trkpt lat="46.0918767" lon="13.451"><ele>162.0</ele><time>2026-05-02T14:22:39.608Z</time></trkpt><trkpt lat="46.09186" lon="13.4512117"><ele>164.0</ele><time>2026-05-02T14:22:40.607Z</time></trkpt><trkpt lat="46.0918317" lon="13.4514133"><ele>166.0</ele><time>2026-05-02T14:22:41.607Z</time></trkpt><trkpt lat="46.0918017" lon="13.45161"><ele>167.0</ele><time>2026-05-02T14:22:42.608Z</time></trkpt><trkpt lat="46.0917717" lon="13.451795"><ele>168.0</ele><time>2026-05-02T14:22:43.606Z</time></trkpt><trkpt lat="46.0917583" lon="13.4519833"><ele>169.0</ele><time>2026-05-02T14:22:44.609Z</time></trkpt><trkpt lat="46.0917733" lon="13.4521717"><ele>170.0</ele><time>2026-05-02T14:22:45.609Z</time></trkpt><trkpt lat="46.0918267" lon="13.4523583"><ele>170.0</ele><time>2026-05-02T14:22:46.606Z</time></trkpt><trkpt lat="46.091895" lon="13.4525583"><ele>170.0</ele><time>2026-05-02T14:22:47.604Z</time></trkpt><trkpt lat="46.09196" lon="13.4527817"><ele>170.0</ele><time>2026-05-02T14:22:48.606Z</time></trkpt><trkpt lat="46.0920233" lon="13.453015"><ele>169.0</ele><time>2026-05-02T14:22:49.604Z</time></trkpt><trkpt lat="46.0920717" lon="13.4532533"><ele>168.0</ele><time>2026-05-02T14:22:50.609Z</time></trkpt><trkpt lat="46.0921067" lon="13.4534917"><ele>167.0</ele><time>2026-05-02T14:22:51.604Z</time></trkpt><trkpt lat="46.0921217" lon="13.45374"><ele>168.0</ele><time>2026-05-02T14:22:52.604Z</time></trkpt><trkpt lat="46.092125" lon="13.4539917"><ele>169.0</ele><time>2026-05-02T14:22:53.605Z</time></trkpt><trkpt lat="46.092125" lon="13.4542467"><ele>170.0</ele><time>2026-05-02T14:22:54.61Z</time></trkpt><trkpt lat="46.0921217" lon="13.4544967"><ele>172.33333333333331</ele><time>2026-05-02T14:22:55.608Z</time></trkpt><trkpt lat="46.09211" lon="13.4547417"><ele>174.66666666666666</ele><time>2026-05-02T14:22:56.607Z</time></trkpt><trkpt lat="46.0920917" lon="13.45499"><ele>177.0</ele><time>2026-05-02T14:22:57.604Z</time></trkpt><trkpt lat="46.0920683" lon="13.4552333"><ele>180.0</ele><time>2026-05-02T14:22:58.607Z</time></trkpt><trkpt lat="46.0920433" lon="13.4554783"><ele>183.0</ele><time>2026-05-02T14:22:59.607Z</time></trkpt><trkpt lat="46.0920133" lon="13.4557233"><ele>186.0</ele><time>2026-05-02T14:23:00.607Z</time></trkpt><trkpt lat="46.0919833" lon="13.45597"><ele>186.0</ele><time>2026-05-02T14:23:01.607Z</time></trkpt><trkpt lat="46.0919483" lon="13.456215"><ele>186.0</ele><time>2026-05-02T14:23:02.609Z</time></trkpt><trkpt lat="46.0919167" lon="13.4564567"><ele>186.0</ele><time>2026-05-02T14:23:03.609Z</time></trkpt><trkpt lat="46.0918817" lon="13.4567033"><ele>189.0</ele><time>2026-05-02T14:23:04.607Z</time></trkpt><trkpt lat="46.09185" lon="13.4569483"><ele>192.0</ele><time>2026-05-02T14:23:05.605Z</time></trkpt><trkpt lat="46.09183" lon="13.4571967"><ele>195.0</ele><time>2026-05-02T14:23:06.603Z</time></trkpt><trkpt lat="46.0918183" lon="13.457445"><ele>195.66666666666669</ele><time>2026-05-02T14:23:07.609Z</time></trkpt><trkpt lat="46.0918067" lon="13.4577017"><ele>196.33333333333334</ele><time>2026-05-02T14:23:08.608Z</time></trkpt><trkpt lat="46.0917867" lon="13.45796"><ele>197.0</ele><time>2026-05-02T14:23:09.606Z</time></trkpt><trkpt lat="46.0917533" lon="13.4582167"><ele>194.66666666666669</ele><time>2026-05-02T14:23:10.61Z</time></trkpt><trkpt lat="46.0917083" lon="13.4584683"><ele>192.33333333333334</ele><time>2026-05-02T14:23:11.604Z</time></trkpt><trkpt lat="46.0916533" lon="13.4587067"><ele>190.0</ele><time>2026-05-02T14:23:12.609Z</time></trkpt><trkpt lat="46.0915883" lon="13.4589333"><ele>190.0</ele><time>2026-05-02T14:23:13.606Z</time></trkpt><trkpt lat="46.0915167" lon="13.4591383"><ele>190.0</ele><time>2026-05-02T14:23:14.609Z</time></trkpt><trkpt lat="46.0914417" lon="13.459325"><ele>190.0</ele><time>2026-05-02T14:23:15.607Z</time></trkpt><trkpt lat="46.09137" lon="13.4595183"><ele>193.66666666666669</ele><time>2026-05-02T14:23:16.607Z</time></trkpt><trkpt lat="46.0913067" lon="13.4597317"><ele>197.33333333333334</ele><time>2026-05-02T14:23:17.604Z</time></trkpt><trkpt lat="46.0912533" lon="13.45997"><ele>201.0</ele><time>2026-05-02T14:23:18.606Z</time></trkpt><trkpt lat="46.0912033" lon="13.46022"><ele>204.66666666666669</ele><time>2026-05-02T14:23:19.604Z</time></trkpt><trkpt lat="46.0911517" lon="13.4604783"><ele>208.33333333333334</ele><time>2026-05-02T14:23:20.61Z</time></trkpt><trkpt lat="46.0911" lon="13.4607333"><ele>212.0</ele><time>2026-05-02T14:23:21.607Z</time></trkpt><trkpt lat="46.0910517" lon="13.4609733"><ele>212.0</ele><time>2026-05-02T14:23:22.609Z</time></trkpt><trkpt lat="46.091" lon="13.4611933"><ele>212.0</ele><time>2026-05-02T14:23:23.604Z</time></trkpt><trkpt lat="46.0909383" lon="13.4613983"><ele>212.0</ele><time>2026-05-02T14:23:24.605Z</time></trkpt><trkpt lat="46.090865" lon="13.4615983"><ele>214.5</ele><time>2026-05-02T14:23:25.609Z</time></trkpt><trkpt lat="46.0908017" lon="13.4617883"><ele>217.0</ele><time>2026-05-02T14:23:26.609Z</time></trkpt><trkpt lat="46.0907633" lon="13.4619883"><ele>219.5</ele><time>2026-05-02T14:23:27.607Z</time></trkpt><trkpt lat="46.090745" lon="13.4621967"><ele>222.0</ele><time>2026-05-02T14:23:28.607Z</time></trkpt><trkpt lat="46.0907417" lon="13.4623883"><ele>226.66666666666666</ele><time>2026-05-02T14:23:29.606Z</time></trkpt><trkpt lat="46.09074" lon="13.4625483"><ele>231.33333333333331</ele><time>2026-05-02T14:23:30.607Z</time></trkpt><trkpt lat="46.0907317" lon="13.4626683"><ele>236.0</ele><time>2026-05-02T14:23:31.604Z</time></trkpt><trkpt lat="46.0907117" lon="13.4627567"><ele>240.66666666666666</ele><time>2026-05-02T14:23:32.608Z</time></trkpt><trkpt lat="46.090615" lon="13.46273"><ele>245.33333333333331</ele><time>2026-05-02T14:23:34.608Z</time></trkpt><trkpt lat="46.090575" lon="13.4626283"><ele>250.0</ele><time>2026-05-02T14:23:35.609Z</time></trkpt><trkpt lat="46.0905533" lon="13.462495"><ele>250.0</ele><time>2026-05-02T14:23:36.607Z</time></trkpt><trkpt lat="46.09053" lon="13.46234"><ele>250.0</ele><time>2026-05-02T14:23:37.609Z</time></trkpt><trkpt lat="46.09048" lon="13.4621933"><ele>250.0</ele><time>2026-05-02T14:23:38.612Z</time></trkpt><trkpt lat="46.0904167" lon="13.4621"><ele>250.0</ele><time>2026-05-02T14:23:39.604Z</time></trkpt><trkpt lat="46.090345" lon="13.462045"><ele>250.0</ele><time>2026-05-02T14:23:40.608Z</time></trkpt><trkpt lat="46.0902667" lon="13.4621317"><ele>250.0</ele><time>2026-05-02T14:23:42.61Z</time></trkpt><trkpt lat="46.09029" lon="13.46223"><ele>250.0</ele><time>2026-05-02T14:23:43.609Z</time></trkpt><trkpt lat="46.0903383" lon="13.4623417"><ele>250.0</ele><time>2026-05-02T14:23:44.61Z</time></trkpt><trkpt lat="46.0903783" lon="13.4624567"><ele>250.0</ele><time>2026-05-02T14:23:45.608Z</time></trkpt><trkpt lat="46.0903933" lon="13.4625867"><ele>250.0</ele><time>2026-05-02T14:23:46.609Z</time></trkpt><trkpt lat="46.09036" lon="13.4627433"><ele>250.0</ele><time>2026-05-02T14:23:47.604Z</time></trkpt><trkpt lat="46.090305" lon="13.4629133"><ele>250.0</ele><time>2026-05-02T14:23:48.606Z</time></trkpt><trkpt lat="46.090255" lon="13.4631067"><ele>250.0</ele><time>2026-05-02T14:23:49.604Z</time></trkpt><trkpt lat="46.090185" lon="13.4632817"><ele>250.0</ele><time>2026-05-02T14:23:50.611Z</time></trkpt><trkpt lat="46.0901" lon="13.4634233"><ele>251.4</ele><time>2026-05-02T14:23:51.609Z</time></trkpt><trkpt lat="46.0900217" lon="13.4635383"><ele>252.8</ele><time>2026-05-02T14:23:52.606Z</time></trkpt><trkpt lat="46.08996" lon="13.4636483"><ele>254.2</ele><time>2026-05-02T14:23:53.609Z</time></trkpt><trkpt lat="46.0899217" lon="13.463755"><ele>255.6</ele><time>2026-05-02T14:23:54.612Z</time></trkpt><trkpt lat="46.0898917" lon="13.4638483"><ele>257.0</ele><time>2026-05-02T14:23:55.608Z</time></trkpt><trkpt lat="46.0898933" lon="13.4640017"><ele>260.8</ele><time>2026-05-02T14:23:57.609Z</time></trkpt><trkpt lat="46.0899" lon="13.4641367"><ele>264.6</ele><time>2026-05-02T14:23:59.609Z</time></trkpt><trkpt lat="46.089825" lon="13.4641883"><ele>268.40000000000003</ele><time>2026-05-02T14:24:01.609Z</time></trkpt><trkpt lat="46.0897383" lon="13.4640517"><ele>272.2</ele><time>2026-05-02T14:24:03.607Z</time></trkpt><trkpt lat="46.08975" lon="13.4638833"><ele>276.0</ele><time>2026-05-02T14:24:04.607Z</time></trkpt><trkpt lat="46.0897867" lon="13.463705"><ele>276.0</ele><time>2026-05-02T14:24:05.609Z</time></trkpt><trkpt lat="46.0898267" lon="13.46352"><ele>276.0</ele><time>2026-05-02T14:24:06.608Z</time></trkpt><trkpt lat="46.0898267" lon="13.4633433"><ele>276.0</ele><time>2026-05-02T14:24:07.608Z</time></trkpt><trkpt lat="46.0898017" lon="13.463185"><ele>276.0</ele><time>2026-05-02T14:24:08.608Z</time></trkpt><trkpt lat="46.089755" lon="13.4630417"><ele>272.75</ele><time>2026-05-02T14:24:09.607Z</time></trkpt><trkpt lat="46.089675" lon="13.4629283"><ele>269.5</ele><time>2026-05-02T14:24:10.608Z</time></trkpt><trkpt lat="46.08956" lon="13.462835"><ele>266.25</ele><time>2026-05-02T14:24:11.608Z</time></trkpt><trkpt lat="46.0894483" lon="13.46274"><ele>263.0</ele><time>2026-05-02T14:24:12.609Z</time></trkpt><trkpt lat="46.0893417" lon="13.4626617"><ele>263.0</ele><time>2026-05-02T14:24:13.608Z</time></trkpt><trkpt lat="46.0892417" lon="13.46261"><ele>263.0</ele><time>2026-05-02T14:24:14.609Z</time></trkpt><trkpt lat="46.089145" lon="13.4626133"><ele>263.0</ele><time>2026-05-02T14:24:15.609Z</time></trkpt><trkpt lat="46.0890517" lon="13.4626833"><ele>263.0</ele><time>2026-05-02T14:24:16.609Z</time></trkpt><trkpt lat="46.0889717" lon="13.46279"><ele>263.0</ele><time>2026-05-02T14:24:17.608Z</time></trkpt><trkpt lat="46.08891" lon="13.4629017"><ele>265.1666666666667</ele><time>2026-05-02T14:24:18.61Z</time></trkpt><trkpt lat="46.0888783" lon="13.4630133"><ele>267.33333333333337</ele><time>2026-05-02T14:24:19.607Z</time></trkpt><trkpt lat="46.088865" lon="13.4631083"><ele>269.5</ele><time>2026-05-02T14:24:20.608Z</time></trkpt><trkpt lat="46.088895" lon="13.4632"><ele>271.6666666666667</ele><time>2026-05-02T14:24:21.607Z</time></trkpt><trkpt lat="46.0889583" lon="13.4632767"><ele>273.8333333333333</ele><time>2026-05-02T14:24:22.603Z</time></trkpt><trkpt lat="46.0890583" lon="13.4633367"><ele>276.0</ele><time>2026-05-02T14:24:23.609Z</time></trkpt><trkpt lat="46.0891517" lon="13.4634183"><ele>276.0</ele><time>2026-05-02T14:24:24.607Z</time></trkpt><trkpt lat="46.089215" lon="13.46354"><ele>276.0</ele><time>2026-05-02T14:24:25.607Z</time></trkpt><trkpt lat="46.089245" lon="13.46371"><ele>276.0</ele><time>2026-05-02T14:24:26.608Z</time></trkpt><trkpt lat="46.0892517" lon="13.4638983"><ele>276.0</ele><time>2026-05-02T14:24:27.605Z</time></trkpt><trkpt lat="46.08923" lon="13.4640917"><ele>278.5</ele><time>2026-05-02T14:24:28.609Z</time></trkpt><trkpt lat="46.0891833" lon="13.4642817"><ele>281.0</ele><time>2026-05-02T14:24:29.604Z</time></trkpt><trkpt lat="46.0891267" lon="13.4644633"><ele>283.5</ele><time>2026-05-02T14:24:30.609Z</time></trkpt><trkpt lat="46.0890583" lon="13.46464"><ele>286.0</ele><time>2026-05-02T14:24:31.607Z</time></trkpt><trkpt lat="46.0889767" lon="13.464795"><ele>288.40000000000003</ele><time>2026-05-02T14:24:32.608Z</time></trkpt><trkpt lat="46.0888983" lon="13.46491"><ele>290.8</ele><time>2026-05-02T14:24:33.609Z</time></trkpt><trkpt lat="46.0888317" lon="13.4649967"><ele>293.20000000000005</ele><time>2026-05-02T14:24:34.607Z</time></trkpt><trkpt lat="46.0887633" lon="13.4650783"><ele>295.6</ele><time>2026-05-02T14:24:35.609Z</time></trkpt><trkpt lat="46.0886867" lon="13.4651517"><ele>298.0</ele><time>2026-05-02T14:24:36.608Z</time></trkpt><trkpt lat="46.0885917" lon="13.465225"><ele>298.0</ele><time>2026-05-02T14:24:37.61Z</time></trkpt><trkpt lat="46.0884867" lon="13.465295"><ele>298.0</ele><time>2026-05-02T14:24:38.608Z</time></trkpt><trkpt lat="46.0883733" lon="13.4653667"><ele>298.0</ele><time>2026-05-02T14:24:39.605Z</time></trkpt><trkpt lat="46.0882633" lon="13.4654483"><ele>298.0</ele><time>2026-05-02T14:24:40.605Z</time></trkpt><trkpt lat="46.08815" lon="13.4655517"><ele>301.5</ele><time>2026-05-02T14:24:41.604Z</time></trkpt><trkpt lat="46.0880367" lon="13.465675"><ele>305.0</ele><time>2026-05-02T14:24:42.607Z</time></trkpt><trkpt lat="46.08792" lon="13.46581"><ele>308.5</ele><time>2026-05-02T14:24:43.607Z</time></trkpt><trkpt lat="46.0878017" lon="13.4659517"><ele>312.0</ele><time>2026-05-02T14:24:44.606Z</time></trkpt><trkpt lat="46.087685" lon="13.466095"><ele>312.0</ele><time>2026-05-02T14:24:45.606Z</time></trkpt><trkpt lat="46.0875767" lon="13.4662433"><ele>312.0</ele><time>2026-05-02T14:24:46.608Z</time></trkpt><trkpt lat="46.0874817" lon="13.4663967"><ele>312.0</ele><time>2026-05-02T14:24:47.607Z</time></trkpt><trkpt lat="46.0873967" lon="13.4665533"><ele>312.0</ele><time>2026-05-02T14:24:48.604Z</time></trkpt><trkpt lat="46.0873217" lon="13.4666983"><ele>316.4</ele><time>2026-05-02T14:24:49.608Z</time></trkpt><trkpt lat="46.0872533" lon="13.4668283"><ele>320.79999999999995</ele><time>2026-05-02T14:24:50.609Z</time></trkpt><trkpt lat="46.0871983" lon="13.4669433"><ele>325.2</ele><time>2026-05-02T14:24:51.609Z</time></trkpt><trkpt lat="46.0871617" lon="13.46706"><ele>329.59999999999997</ele><time>2026-05-02T14:24:52.606Z</time></trkpt><trkpt lat="46.0871417" lon="13.4671867"><ele>334.0</ele><time>2026-05-02T14:24:53.609Z</time></trkpt><trkpt lat="46.08715" lon="13.4673433"><ele>334.0</ele><time>2026-05-02T14:24:54.61Z</time></trkpt><trkpt lat="46.0871833" lon="13.467495"><ele>334.0</ele><time>2026-05-02T14:24:55.607Z</time></trkpt><trkpt lat="46.0872167" lon="13.467635"><ele>334.0</ele><time>2026-05-02T14:24:56.612Z</time></trkpt><trkpt lat="46.0872483" lon="13.4677733"><ele>334.0</ele><time>2026-05-02T14:24:57.609Z</time></trkpt><trkpt lat="46.0872667" lon="13.4679017"><ele>334.0</ele><time>2026-05-02T14:24:58.609Z</time></trkpt><trkpt lat="46.0873017" lon="13.4679983"><ele>334.0</ele><time>2026-05-02T14:24:59.61Z</time></trkpt><trkpt lat="46.0873767" lon="13.4680533"><ele>334.0</ele><time>2026-05-02T14:25:00.608Z</time></trkpt><trkpt lat="46.0874617" lon="13.468085"><ele>334.0</ele><time>2026-05-02T14:25:01.609Z</time></trkpt><trkpt lat="46.0875733" lon="13.4680817"><ele>334.0</ele><time>2026-05-02T14:25:02.61Z</time></trkpt><trkpt lat="46.0876967" lon="13.4680817"><ele>334.0</ele><time>2026-05-02T14:25:03.605Z</time></trkpt><trkpt lat="46.0878083" lon="13.4681017"><ele>331.0</ele><time>2026-05-02T14:25:04.607Z</time></trkpt><trkpt lat="46.0879233" lon="13.4681567"><ele>328.0</ele><time>2026-05-02T14:25:05.608Z</time></trkpt><trkpt lat="46.0880567" lon="13.4682567"><ele>325.0</ele><time>2026-05-02T14:25:06.609Z</time></trkpt><trkpt lat="46.0882" lon="13.4683933"><ele>322.0</ele><time>2026-05-02T14:25:07.609Z</time></trkpt><trkpt lat="46.0883383" lon="13.4685283"><ele>321.25</ele><time>2026-05-02T14:25:08.612Z</time></trkpt><trkpt lat="46.0884667" lon="13.4686533"><ele>320.5</ele><time>2026-05-02T14:25:09.609Z</time></trkpt><trkpt lat="46.0885883" lon="13.4687733"><ele>319.75</ele><time>2026-05-02T14:25:10.608Z</time></trkpt><trkpt lat="46.0886967" lon="13.4688867"><ele>319.0</ele><time>2026-05-02T14:25:11.605Z</time></trkpt><trkpt lat="46.0887733" lon="13.4689817"><ele>319.0</ele><time>2026-05-02T14:25:12.605Z</time></trkpt><trkpt lat="46.0888267" lon="13.4690767"><ele>319.0</ele><time>2026-05-02T14:25:13.608Z</time></trkpt><trkpt lat="46.0888517" lon="13.4691783"><ele>319.0</ele><time>2026-05-02T14:25:14.608Z</time></trkpt><trkpt lat="46.0888417" lon="13.4692783"><ele>319.0</ele><time>2026-05-02T14:25:15.607Z</time></trkpt><trkpt lat="46.0888017" lon="13.469365"><ele>319.0</ele><time>2026-05-02T14:25:16.607Z</time></trkpt><trkpt lat="46.088715" lon="13.4694233"><ele>319.0</ele><time>2026-05-02T14:25:17.604Z</time></trkpt><trkpt lat="46.0885917" lon="13.4694717"><ele>319.0</ele><time>2026-05-02T14:25:18.609Z</time></trkpt><trkpt lat="46.0884483" lon="13.46951"><ele>319.0</ele><time>2026-05-02T14:25:19.606Z</time></trkpt><trkpt lat="46.0882967" lon="13.4695633"><ele>319.0</ele><time>2026-05-02T14:25:20.608Z</time></trkpt><trkpt lat="46.08815" lon="13.4696383"><ele>315.66666666666663</ele><time>2026-05-02T14:25:21.608Z</time></trkpt><trkpt lat="46.0880017" lon="13.4697267"><ele>312.3333333333333</ele><time>2026-05-02T14:25:22.607Z</time></trkpt><trkpt lat="46.087865" lon="13.4698233"><ele>309.0</ele><time>2026-05-02T14:25:23.61Z</time></trkpt><trkpt lat="46.0877317" lon="13.4699033"><ele>309.0</ele><time>2026-05-02T14:25:24.606Z</time></trkpt><trkpt lat="46.0875983" lon="13.469965"><ele>309.0</ele><time>2026-05-02T14:25:25.608Z</time></trkpt><trkpt lat="46.0874733" lon="13.4700267"><ele>309.0</ele><time>2026-05-02T14:25:26.609Z</time></trkpt><trkpt lat="46.0873583" lon="13.4701083"><ele>309.0</ele><time>2026-05-02T14:25:27.604Z</time></trkpt><trkpt lat="46.08725" lon="13.470215"><ele>308.5</ele><time>2026-05-02T14:25:28.608Z</time></trkpt><trkpt lat="46.08716" lon="13.47034"><ele>308.0</ele><time>2026-05-02T14:25:29.609Z</time></trkpt><trkpt lat="46.0870767" lon="13.47048"><ele>307.5</ele><time>2026-05-02T14:25:30.609Z</time></trkpt><trkpt lat="46.08701" lon="13.4706467"><ele>307.0</ele><time>2026-05-02T14:25:31.61Z</time></trkpt><trkpt lat="46.0869533" lon="13.4708333"><ele>307.0</ele><time>2026-05-02T14:25:32.608Z</time></trkpt><trkpt lat="46.0869083" lon="13.4710383"><ele>307.0</ele><time>2026-05-02T14:25:33.606Z</time></trkpt><trkpt lat="46.0868717" lon="13.471245"><ele>307.0</ele><time>2026-05-02T14:25:34.606Z</time></trkpt><trkpt lat="46.086835" lon="13.4714417"><ele>307.0</ele><time>2026-05-02T14:25:35.606Z</time></trkpt><trkpt lat="46.0867917" lon="13.4716433"><ele>304.0</ele><time>2026-05-02T14:25:36.607Z</time></trkpt><trkpt lat="46.0867433" lon="13.471845"><ele>301.0</ele><time>2026-05-02T14:25:37.605Z</time></trkpt><trkpt lat="46.08669" lon="13.472035"><ele>298.0</ele><time>2026-05-02T14:25:38.609Z</time></trkpt><trkpt lat="46.0866283" lon="13.4722083"><ele>295.0</ele><time>2026-05-02T14:25:39.608Z</time></trkpt><trkpt lat="46.0865533" lon="13.4723667"><ele>291.25</ele><time>2026-05-02T14:25:40.606Z</time></trkpt><trkpt lat="46.0864583" lon="13.4725133"><ele>287.5</ele><time>2026-05-02T14:25:41.603Z</time></trkpt><trkpt lat="46.0863567" lon="13.4726567"><ele>283.75</ele><time>2026-05-02T14:25:42.608Z</time></trkpt><trkpt lat="46.0862483" lon="13.4727967"><ele>280.0</ele><time>2026-05-02T14:25:43.606Z</time></trkpt><trkpt lat="46.08614" lon="13.47294"><ele>278.3333333333333</ele><time>2026-05-02T14:25:44.612Z</time></trkpt><trkpt lat="46.08603" lon="13.4730817"><ele>276.6666666666667</ele><time>2026-05-02T14:25:45.611Z</time></trkpt><trkpt lat="46.085915" lon="13.4732333"><ele>275.0</ele><time>2026-05-02T14:25:46.607Z</time></trkpt><trkpt lat="46.0858" lon="13.4733983"><ele>273.33333333333337</ele><time>2026-05-02T14:25:47.608Z</time></trkpt><trkpt lat="46.0856917" lon="13.47358"><ele>271.6666666666667</ele><time>2026-05-02T14:25:48.606Z</time></trkpt><trkpt lat="46.085595" lon="13.47377"><ele>270.0</ele><time>2026-05-02T14:25:49.607Z</time></trkpt><trkpt lat="46.0855067" lon="13.473955"><ele>270.0</ele><time>2026-05-02T14:25:50.611Z</time></trkpt><trkpt lat="46.085425" lon="13.47413"><ele>270.0</ele><time>2026-05-02T14:25:51.603Z</time></trkpt><trkpt lat="46.0853583" lon="13.474295"><ele>270.0</ele><time>2026-05-02T14:25:52.605Z</time></trkpt><trkpt lat="46.0853183" lon="13.4744533"><ele>270.0</ele><time>2026-05-02T14:25:53.606Z</time></trkpt><trkpt lat="46.0853" lon="13.4746183"><ele>270.5</ele><time>2026-05-02T14:25:54.607Z</time></trkpt><trkpt lat="46.085305" lon="13.4747933"><ele>271.0</ele><time>2026-05-02T14:25:55.608Z</time></trkpt><trkpt lat="46.085335" lon="13.47498"><ele>271.5</ele><time>2026-05-02T14:25:56.61Z</time></trkpt><trkpt lat="46.085385" lon="13.47518"><ele>272.0</ele><time>2026-05-02T14:25:57.606Z</time></trkpt><trkpt lat="46.08544" lon="13.475395"><ele>271.6666666666667</ele><time>2026-05-02T14:25:58.608Z</time></trkpt><trkpt lat="46.08549" lon="13.47562"><ele>271.3333333333333</ele><time>2026-05-02T14:25:59.608Z</time></trkpt><trkpt lat="46.0855383" lon="13.4758517"><ele>271.0</ele><time>2026-05-02T14:26:00.608Z</time></trkpt><trkpt lat="46.085585" lon="13.4760783"><ele>270.66666666666663</ele><time>2026-05-02T14:26:01.608Z</time></trkpt><trkpt lat="46.0856317" lon="13.4763"><ele>270.3333333333333</ele><time>2026-05-02T14:26:02.611Z</time></trkpt><trkpt lat="46.085675" lon="13.4765133"><ele>270.0</ele><time>2026-05-02T14:26:03.609Z</time></trkpt><trkpt lat="46.08571" lon="13.4767367"><ele>270.0</ele><time>2026-05-02T14:26:04.606Z</time></trkpt><trkpt lat="46.08574" lon="13.4769617"><ele>270.0</ele><time>2026-05-02T14:26:05.609Z</time></trkpt><trkpt lat="46.085755" lon="13.4771967"><ele>270.0</ele><time>2026-05-02T14:26:06.611Z</time></trkpt><trkpt lat="46.08576" lon="13.4774433"><ele>269.0</ele><time>2026-05-02T14:26:07.606Z</time></trkpt><trkpt lat="46.0857617" lon="13.477695"><ele>268.0</ele><time>2026-05-02T14:26:08.609Z</time></trkpt><trkpt lat="46.0857783" lon="13.477945"><ele>267.0</ele><time>2026-05-02T14:26:09.609Z</time></trkpt><trkpt lat="46.0858133" lon="13.47818"><ele>275.0</ele><time>2026-05-02T14:26:10.608Z</time></trkpt><trkpt lat="46.0858683" lon="13.4784033"><ele>283.0</ele><time>2026-05-02T14:26:11.607Z</time></trkpt><trkpt lat="46.0859283" lon="13.4786233"><ele>291.0</ele><time>2026-05-02T14:26:12.607Z</time></trkpt><trkpt lat="46.0859917" lon="13.4788417"><ele>292.0</ele><time>2026-05-02T14:26:13.605Z</time></trkpt><trkpt lat="46.086055" lon="13.4790533"><ele>293.0</ele><time>2026-05-02T14:26:14.611Z</time></trkpt><trkpt lat="46.08611" lon="13.479265"><ele>294.0</ele><time>2026-05-02T14:26:15.606Z</time></trkpt><trkpt lat="46.0861617" lon="13.4794717"><ele>294.0</ele><time>2026-05-02T14:26:16.606Z</time></trkpt><trkpt lat="46.086205" lon="13.47968"><ele>294.0</ele><time>2026-05-02T14:26:17.609Z</time></trkpt><trkpt lat="46.0862433" lon="13.4798917"><ele>294.0</ele><time>2026-05-02T14:26:18.609Z</time></trkpt><trkpt lat="46.0862833" lon="13.4801017"><ele>294.0</ele><time>2026-05-02T14:26:19.608Z</time></trkpt><trkpt lat="46.0863217" lon="13.480305"><ele>294.0</ele><time>2026-05-02T14:26:20.61Z</time></trkpt><trkpt lat="46.0863467" lon="13.480495"><ele>294.0</ele><time>2026-05-02T14:26:21.61Z</time></trkpt><trkpt lat="46.0863617" lon="13.4806433"><ele>294.0</ele><time>2026-05-02T14:26:22.607Z</time></trkpt><trkpt lat="46.08636" lon="13.480765"><ele>294.6666666666667</ele><time>2026-05-02T14:26:23.608Z</time></trkpt><trkpt lat="46.0863517" lon="13.48086"><ele>295.3333333333333</ele><time>2026-05-02T14:26:24.606Z</time></trkpt><trkpt lat="46.0863267" lon="13.4809883"><ele>296.0</ele><time>2026-05-02T14:26:26.606Z</time></trkpt><trkpt lat="46.0863683" lon="13.4808867"><ele>296.66666666666663</ele><time>2026-05-02T14:26:35.606Z</time></trkpt><trkpt lat="46.0864" lon="13.48079"><ele>297.3333333333333</ele><time>2026-05-02T14:26:50.605Z</time></trkpt><trkpt lat="46.08634" lon="13.480755"><ele>298.0</ele><time>2026-05-02T14:26:58.607Z</time></trkpt><trkpt lat="46.0863217" lon="13.4809617"><ele>298.0</ele><time>2026-05-02T14:27:00.607Z</time></trkpt><trkpt lat="46.0863133" lon="13.4811283"><ele>298.0</ele><time>2026-05-02T14:27:01.606Z</time></trkpt><trkpt lat="46.0863083" lon="13.4813117"><ele>298.0</ele><time>2026-05-02T14:27:02.608Z</time></trkpt><trkpt lat="46.0863" lon="13.48151"><ele>298.0</ele><time>2026-05-02T14:27:03.605Z</time></trkpt><trkpt lat="46.0862933" lon="13.481685"><ele>299.5</ele><time>2026-05-02T14:27:04.607Z</time></trkpt><trkpt lat="46.0862883" lon="13.4818333"><ele>301.0</ele><time>2026-05-02T14:27:05.606Z</time></trkpt><trkpt lat="46.0862917" lon="13.4819533"><ele>302.5</ele><time>2026-05-02T14:27:06.607Z</time></trkpt><trkpt lat="46.0863083" lon="13.4820633"><ele>304.0</ele><time>2026-05-02T14:27:07.607Z</time></trkpt><trkpt lat="46.08634" lon="13.4821683"><ele>305.5</ele><time>2026-05-02T14:27:08.609Z</time></trkpt><trkpt lat="46.0863767" lon="13.482275"><ele>307.0</ele><time>2026-05-02T14:27:09.608Z</time></trkpt><trkpt lat="46.0864167" lon="13.4823783"><ele>307.3333333333333</ele><time>2026-05-02T14:27:10.607Z</time></trkpt><trkpt lat="46.0864567" lon="13.48248"><ele>307.66666666666663</ele><time>2026-05-02T14:27:11.608Z</time></trkpt><trkpt lat="46.0864967" lon="13.4825767"><ele>308.0</ele><time>2026-05-02T14:27:12.607Z</time></trkpt><trkpt lat="46.0865333" lon="13.4826667"><ele>308.3333333333333</ele><time>2026-05-02T14:27:13.606Z</time></trkpt><trkpt lat="46.08657" lon="13.482755"><ele>308.6666666666667</ele><time>2026-05-02T14:27:14.608Z</time></trkpt><trkpt lat="46.0866133" lon="13.48284"><ele>309.0</ele><time>2026-05-02T14:27:15.606Z</time></trkpt><trkpt lat="46.0866633" lon="13.4829267"><ele>311.6</ele><time>2026-05-02T14:27:16.607Z</time></trkpt><trkpt lat="46.0867133" lon="13.4830217"><ele>314.2</ele><time>2026-05-02T14:27:17.609Z</time></trkpt><trkpt lat="46.08677" lon="13.4831217"><ele>316.8</ele><time>2026-05-02T14:27:18.603Z</time></trkpt><trkpt lat="46.086835" lon="13.4832333"><ele>319.40000000000003</ele><time>2026-05-02T14:27:19.606Z</time></trkpt><trkpt lat="46.08691" lon="13.4833567"><ele>322.0</ele><time>2026-05-02T14:27:20.61Z</time></trkpt><trkpt lat="46.0869867" lon="13.4834867"><ele>322.0</ele><time>2026-05-02T14:27:21.606Z</time></trkpt><trkpt lat="46.0870583" lon="13.4836267"><ele>322.0</ele><time>2026-05-02T14:27:22.608Z</time></trkpt><trkpt lat="46.0871183" lon="13.48378"><ele>322.0</ele><time>2026-05-02T14:27:23.611Z</time></trkpt><trkpt lat="46.0871717" lon="13.4839483"><ele>322.0</ele><time>2026-05-02T14:27:24.611Z</time></trkpt><trkpt lat="46.0872183" lon="13.4841183"><ele>319.75</ele><time>2026-05-02T14:27:25.611Z</time></trkpt><trkpt lat="46.08727" lon="13.4842833"><ele>317.5</ele><time>2026-05-02T14:27:26.611Z</time></trkpt><trkpt lat="46.08733" lon="13.4844467"><ele>315.25</ele><time>2026-05-02T14:27:27.612Z</time></trkpt><trkpt lat="46.087415" lon="13.48458"><ele>313.0</ele><time>2026-05-02T14:27:28.608Z</time></trkpt><trkpt lat="46.0875283" lon="13.4846733"><ele>319.0</ele><time>2026-05-02T14:27:29.611Z</time></trkpt><trkpt lat="46.0876583" lon="13.4847367"><ele>325.0</ele><time>2026-05-02T14:27:30.611Z</time></trkpt><trkpt lat="46.0878017" lon="13.4847867"><ele>331.0</ele><time>2026-05-02T14:27:31.611Z</time></trkpt><trkpt lat="46.0879583" lon="13.484845"><ele>337.0</ele><time>2026-05-02T14:27:32.61Z</time></trkpt><trkpt lat="46.0881133" lon="13.484915"><ele>344.0</ele><time>2026-05-02T14:27:33.607Z</time></trkpt><trkpt lat="46.0882667" lon="13.4849833"><ele>351.0</ele><time>2026-05-02T14:27:34.609Z</time></trkpt><trkpt lat="46.0884217" lon="13.48508"><ele>358.0</ele><time>2026-05-02T14:27:35.605Z</time></trkpt><trkpt lat="46.0885717" lon="13.4851933"><ele>358.0</ele><time>2026-05-02T14:27:36.612Z</time></trkpt><trkpt lat="46.08872" lon="13.4853417"><ele>358.0</ele><time>2026-05-02T14:27:37.605Z</time></trkpt><trkpt lat="46.08886" lon="13.4854783"><ele>358.0</ele><time>2026-05-02T14:27:38.61Z</time></trkpt><trkpt lat="46.0889933" lon="13.4856133"><ele>359.3333333333333</ele><time>2026-05-02T14:27:39.61Z</time></trkpt><trkpt lat="46.08911" lon="13.4857533"><ele>360.6666666666667</ele><time>2026-05-02T14:27:40.605Z</time></trkpt><trkpt lat="46.0892133" lon="13.4859133"><ele>362.0</ele><time>2026-05-02T14:27:41.608Z</time></trkpt><trkpt lat="46.0893" lon="13.48609"><ele>358.0</ele><time>2026-05-02T14:27:42.607Z</time></trkpt><trkpt lat="46.0893733" lon="13.4862817"><ele>354.0</ele><time>2026-05-02T14:27:43.607Z</time></trkpt><trkpt lat="46.08942" lon="13.4864767"><ele>350.0</ele><time>2026-05-02T14:27:44.61Z</time></trkpt><trkpt lat="46.089445" lon="13.4866583"><ele>346.0</ele><time>2026-05-02T14:27:45.61Z</time></trkpt><trkpt lat="46.0894583" lon="13.4868533"><ele>346.0</ele><time>2026-05-02T14:27:46.612Z</time></trkpt><trkpt lat="46.0894833" lon="13.4870567"><ele>346.0</ele><time>2026-05-02T14:27:47.607Z</time></trkpt><trkpt lat="46.08953" lon="13.48726"><ele>346.0</ele><time>2026-05-02T14:27:48.608Z</time></trkpt><trkpt lat="46.0895967" lon="13.4874617"><ele>346.0</ele><time>2026-05-02T14:27:49.609Z</time></trkpt><trkpt lat="46.089685" lon="13.4876617"><ele>348.3333333333333</ele><time>2026-05-02T14:27:50.611Z</time></trkpt><trkpt lat="46.089785" lon="13.48786"><ele>350.6666666666667</ele><time>2026-05-02T14:27:51.608Z</time></trkpt><trkpt lat="46.08989" lon="13.4880433"><ele>353.0</ele><time>2026-05-02T14:27:52.609Z</time></trkpt><trkpt lat="46.089995" lon="13.488215"><ele>353.0</ele><time>2026-05-02T14:27:53.605Z</time></trkpt><trkpt lat="46.0900917" lon="13.488375"><ele>353.0</ele><time>2026-05-02T14:27:54.611Z</time></trkpt><trkpt lat="46.0901683" lon="13.48852"><ele>353.0</ele><time>2026-05-02T14:27:55.616Z</time></trkpt><trkpt lat="46.0902117" lon="13.4886733"><ele>353.0</ele><time>2026-05-02T14:27:56.609Z</time></trkpt><trkpt lat="46.09023" lon="13.4888467"><ele>353.6666666666667</ele><time>2026-05-02T14:27:57.612Z</time></trkpt><trkpt lat="46.0902233" lon="13.4890483"><ele>354.3333333333333</ele><time>2026-05-02T14:27:58.608Z</time></trkpt><trkpt lat="46.0902067" lon="13.4892733"><ele>355.0</ele><time>2026-05-02T14:27:59.61Z</time></trkpt><trkpt lat="46.09019" lon="13.489525"><ele>356.0</ele><time>2026-05-02T14:28:00.607Z</time></trkpt><trkpt lat="46.0901633" lon="13.4897883"><ele>357.0</ele><time>2026-05-02T14:28:01.608Z</time></trkpt><trkpt lat="46.0901267" lon="13.4900533"><ele>358.0</ele><time>2026-05-02T14:28:02.609Z</time></trkpt><trkpt lat="46.0900783" lon="13.4903183"><ele>359.66666666666663</ele><time>2026-05-02T14:28:03.608Z</time></trkpt><trkpt lat="46.0900333" lon="13.4905767"><ele>361.3333333333333</ele><time>2026-05-02T14:28:04.608Z</time></trkpt><trkpt lat="46.0899983" lon="13.4908317"><ele>363.0</ele><time>2026-05-02T14:28:05.607Z</time></trkpt><trkpt lat="46.089975" lon="13.4910883"><ele>365.0</ele><time>2026-05-02T14:28:06.608Z</time></trkpt><trkpt lat="46.08996" lon="13.4913467"><ele>367.0</ele><time>2026-05-02T14:28:07.604Z</time></trkpt><trkpt lat="46.089955" lon="13.4916033"><ele>369.0</ele><time>2026-05-02T14:28:08.609Z</time></trkpt><trkpt lat="46.0899483" lon="13.4918683"><ele>372.3333333333333</ele><time>2026-05-02T14:28:09.608Z</time></trkpt><trkpt lat="46.0899383" lon="13.4921383"><ele>375.66666666666663</ele><time>2026-05-02T14:28:10.607Z</time></trkpt><trkpt lat="46.08993" lon="13.492405"><ele>379.0</ele><time>2026-05-02T14:28:11.608Z</time></trkpt><trkpt lat="46.08992" lon="13.49268"><ele>375.66666666666663</ele><time>2026-05-02T14:28:12.608Z</time></trkpt><trkpt lat="46.0899133" lon="13.4929317"><ele>372.3333333333333</ele><time>2026-05-02T14:28:13.611Z</time></trkpt><trkpt lat="46.0899117" lon="13.49317"><ele>369.0</ele><time>2026-05-02T14:28:14.61Z</time></trkpt><trkpt lat="46.0898983" lon="13.4934017"><ele>369.0</ele><time>2026-05-02T14:28:15.607Z</time></trkpt><trkpt lat="46.0898733" lon="13.493625"><ele>369.0</ele><time>2026-05-02T14:28:16.607Z</time></trkpt><trkpt lat="46.0898317" lon="13.4938433"><ele>369.0</ele><time>2026-05-02T14:28:17.608Z</time></trkpt><trkpt lat="46.0897867" lon="13.4940433"><ele>373.0</ele><time>2026-05-02T14:28:18.607Z</time></trkpt><trkpt lat="46.0897317" lon="13.494205"><ele>377.0</ele><time>2026-05-02T14:28:19.606Z</time></trkpt><trkpt lat="46.089665" lon="13.49432"><ele>381.0</ele><time>2026-05-02T14:28:20.61Z</time></trkpt><trkpt lat="46.0895833" lon="13.494375"><ele>385.0</ele><time>2026-05-02T14:28:21.609Z</time></trkpt><trkpt lat="46.0894917" lon="13.49439"><ele>389.0</ele><time>2026-05-02T14:28:22.607Z</time></trkpt><trkpt lat="46.0894033" lon="13.4944"><ele>388.99999999999994</ele><time>2026-05-02T14:28:23.608Z</time></trkpt><trkpt lat="46.0893283" lon="13.4944317"><ele>389.0</ele><time>2026-05-02T14:28:24.611Z</time></trkpt><trkpt lat="46.0892767" lon="13.49449"><ele>389.0</ele><time>2026-05-02T14:28:25.611Z</time></trkpt><trkpt lat="46.0892483" lon="13.4945883"><ele>389.0</ele><time>2026-05-02T14:28:26.61Z</time></trkpt><trkpt lat="46.08924" lon="13.4947333"><ele>388.99999999999994</ele><time>2026-05-02T14:28:27.611Z</time></trkpt><trkpt lat="46.0892333" lon="13.49487"><ele>389.0</ele><time>2026-05-02T14:28:28.607Z</time></trkpt><trkpt lat="46.0892267" lon="13.4949817"><ele>390.8333333333333</ele><time>2026-05-02T14:28:29.609Z</time></trkpt><trkpt lat="46.0893233" lon="13.49507"><ele>392.66666666666663</ele><time>2026-05-02T14:28:31.606Z</time></trkpt><trkpt lat="46.089385" lon="13.4950483"><ele>394.5</ele><time>2026-05-02T14:28:32.606Z</time></trkpt><trkpt lat="46.0894383" lon="13.494985"><ele>396.33333333333337</ele><time>2026-05-02T14:28:33.609Z</time></trkpt><trkpt lat="46.0894733" lon="13.4948967"><ele>398.1666666666667</ele><time>2026-05-02T14:28:34.61Z</time></trkpt><trkpt lat="46.089515" lon="13.4948117"><ele>400.0</ele><time>2026-05-02T14:28:35.609Z</time></trkpt><trkpt lat="46.0895817" lon="13.494785"><ele>400.0</ele><time>2026-05-02T14:28:36.609Z</time></trkpt><trkpt lat="46.089665" lon="13.4947967"><ele>400.0</ele><time>2026-05-02T14:28:37.606Z</time></trkpt><trkpt lat="46.0897633" lon="13.4948367"><ele>400.0</ele><time>2026-05-02T14:28:38.609Z</time></trkpt><trkpt lat="46.0898683" lon="13.4948883"><ele>400.0</ele><time>2026-05-02T14:28:39.608Z</time></trkpt><trkpt lat="46.0899633" lon="13.49496"><ele>400.0</ele><time>2026-05-02T14:28:40.607Z</time></trkpt><trkpt lat="46.0900333" lon="13.4950717"><ele>403.5</ele><time>2026-05-02T14:28:41.605Z</time></trkpt><trkpt lat="46.0900867" lon="13.4952267"><ele>407.0</ele><time>2026-05-02T14:28:42.605Z</time></trkpt><trkpt lat="46.090125" lon="13.4954133"><ele>410.5</ele><time>2026-05-02T14:28:43.607Z</time></trkpt><trkpt lat="46.0901517" lon="13.4956133"><ele>414.0</ele><time>2026-05-02T14:28:44.607Z</time></trkpt><trkpt lat="46.090175" lon="13.4958233"><ele>415.5</ele><time>2026-05-02T14:28:45.609Z</time></trkpt><trkpt lat="46.09019" lon="13.4960333"><ele>417.0</ele><time>2026-05-02T14:28:46.606Z</time></trkpt><trkpt lat="46.090205" lon="13.4962417"><ele>418.5</ele><time>2026-05-02T14:28:47.605Z</time></trkpt><trkpt lat="46.090225" lon="13.49645"><ele>420.0</ele><time>2026-05-02T14:28:48.608Z</time></trkpt><trkpt lat="46.09025" lon="13.49666"><ele>420.0</ele><time>2026-05-02T14:28:49.608Z</time></trkpt><trkpt lat="46.0902767" lon="13.4968683"><ele>420.0</ele><time>2026-05-02T14:28:50.61Z</time></trkpt><trkpt lat="46.0903117" lon="13.4970717"><ele>420.0</ele><time>2026-05-02T14:28:51.609Z</time></trkpt><trkpt lat="46.090355" lon="13.4972617"><ele>420.0</ele><time>2026-05-02T14:28:52.604Z</time></trkpt><trkpt lat="46.0903983" lon="13.4974483"><ele>420.0</ele><time>2026-05-02T14:28:53.61Z</time></trkpt><trkpt lat="46.0904467" lon="13.497635"><ele>420.0</ele><time>2026-05-02T14:28:54.61Z</time></trkpt><trkpt lat="46.0904917" lon="13.4978267"><ele>420.0</ele><time>2026-05-02T14:28:55.609Z</time></trkpt><trkpt lat="46.0905383" lon="13.498025"><ele>420.0</ele><time>2026-05-02T14:28:56.611Z</time></trkpt><trkpt lat="46.0905833" lon="13.498225"><ele>419.25</ele><time>2026-05-02T14:28:57.609Z</time></trkpt><trkpt lat="46.0906267" lon="13.4984267"><ele>418.5</ele><time>2026-05-02T14:28:58.608Z</time></trkpt><trkpt lat="46.0906667" lon="13.498625"><ele>417.75</ele><time>2026-05-02T14:28:59.608Z</time></trkpt><trkpt lat="46.0907083" lon="13.49881"><ele>417.0</ele><time>2026-05-02T14:29:00.61Z</time></trkpt><trkpt lat="46.0907517" lon="13.4989783"><ele>423.0</ele><time>2026-05-02T14:29:01.609Z</time></trkpt><trkpt lat="46.090785" lon="13.4991583"><ele>429.0</ele><time>2026-05-02T14:29:02.61Z</time></trkpt><trkpt lat="46.09082" lon="13.49934"><ele>435.0</ele><time>2026-05-02T14:29:03.611Z</time></trkpt><trkpt lat="46.0908583" lon="13.4995217"><ele>441.0</ele><time>2026-05-02T14:29:04.609Z</time></trkpt><trkpt lat="46.0909033" lon="13.4997"><ele>441.0</ele><time>2026-05-02T14:29:05.61Z</time></trkpt><trkpt lat="46.0909517" lon="13.49988"><ele>441.0</ele><time>2026-05-02T14:29:06.61Z</time></trkpt><trkpt lat="46.0910017" lon="13.50006"><ele>441.0</ele><time>2026-05-02T14:29:07.606Z</time></trkpt><trkpt lat="46.0910467" lon="13.50025"><ele>441.0</ele><time>2026-05-02T14:29:08.61Z</time></trkpt><trkpt lat="46.0910867" lon="13.5004483"><ele>442.25</ele><time>2026-05-02T14:29:09.61Z</time></trkpt><trkpt lat="46.0911067" lon="13.50066"><ele>443.5</ele><time>2026-05-02T14:29:10.607Z</time></trkpt><trkpt lat="46.0911133" lon="13.50088"><ele>444.75</ele><time>2026-05-02T14:29:11.611Z</time></trkpt><trkpt lat="46.09112" lon="13.50109"><ele>446.0</ele><time>2026-05-02T14:29:12.611Z</time></trkpt><trkpt lat="46.09112" lon="13.5012967"><ele>447.0</ele><time>2026-05-02T14:29:13.608Z</time></trkpt><trkpt lat="46.09112" lon="13.5014967"><ele>448.0</ele><time>2026-05-02T14:29:14.609Z</time></trkpt><trkpt lat="46.0911117" lon="13.501685"><ele>449.0</ele><time>2026-05-02T14:29:15.607Z</time></trkpt><trkpt lat="46.09111" lon="13.5018667"><ele>450.0</ele><time>2026-05-02T14:29:16.605Z</time></trkpt><trkpt lat="46.0911117" lon="13.5020517"><ele>451.0</ele><time>2026-05-02T14:29:17.611Z</time></trkpt><trkpt lat="46.0911133" lon="13.5022367"><ele>452.0</ele><time>2026-05-02T14:29:18.611Z</time></trkpt><trkpt lat="46.09111" lon="13.5024217"><ele>453.0</ele><time>2026-05-02T14:29:19.608Z</time></trkpt><trkpt lat="46.0911117" lon="13.5026067"><ele>454.0</ele><time>2026-05-02T14:29:20.609Z</time></trkpt><trkpt lat="46.0911217" lon="13.502775"><ele>453.25</ele><time>2026-05-02T14:29:21.609Z</time></trkpt><trkpt lat="46.0911483" lon="13.5029417"><ele>452.5</ele><time>2026-05-02T14:29:22.608Z</time></trkpt><trkpt lat="46.0911933" lon="13.5031133"><ele>451.75</ele><time>2026-05-02T14:29:23.608Z</time></trkpt><trkpt lat="46.091265" lon="13.503275"><ele>451.0</ele><time>2026-05-02T14:29:24.611Z</time></trkpt><trkpt lat="46.09135" lon="13.5034367"><ele>451.0</ele><time>2026-05-02T14:29:25.609Z</time></trkpt><trkpt lat="46.091445" lon="13.5036"><ele>451.0</ele><time>2026-05-02T14:29:26.608Z</time></trkpt><trkpt lat="46.0915483" lon="13.503755"><ele>451.0</ele><time>2026-05-02T14:29:27.607Z</time></trkpt><trkpt lat="46.091645" lon="13.5039083"><ele>451.0</ele><time>2026-05-02T14:29:28.607Z</time></trkpt><trkpt lat="46.091735" lon="13.50406"><ele>456.25</ele><time>2026-05-02T14:29:29.611Z</time></trkpt><trkpt lat="46.09182" lon="13.50421"><ele>461.5</ele><time>2026-05-02T14:29:30.608Z</time></trkpt><trkpt lat="46.0919033" lon="13.50436"><ele>466.75</ele><time>2026-05-02T14:29:31.609Z</time></trkpt><trkpt lat="46.0919867" lon="13.5044967"><ele>472.0</ele><time>2026-05-02T14:29:32.609Z</time></trkpt><trkpt lat="46.0920633" lon="13.5046267"><ele>472.0</ele><time>2026-05-02T14:29:33.611Z</time></trkpt><trkpt lat="46.092135" lon="13.5047517"><ele>472.0</ele><time>2026-05-02T14:29:34.607Z</time></trkpt><trkpt lat="46.0922183" lon="13.5048583"><ele>472.0</ele><time>2026-05-02T14:29:35.608Z</time></trkpt><trkpt lat="46.0923133" lon="13.5049317"><ele>472.0</ele><time>2026-05-02T14:29:36.611Z</time></trkpt><trkpt lat="46.09243" lon="13.5049783"><ele>477.0</ele><time>2026-05-02T14:29:37.605Z</time></trkpt><trkpt lat="46.0925483" lon="13.5050333"><ele>482.0</ele><time>2026-05-02T14:29:38.607Z</time></trkpt><trkpt lat="46.0926667" lon="13.5050733"><ele>487.0</ele><time>2026-05-02T14:29:39.606Z</time></trkpt><trkpt lat="46.09278" lon="13.5050933"><ele>492.0</ele><time>2026-05-02T14:29:40.605Z</time></trkpt><trkpt lat="46.092875" lon="13.5050933"><ele>492.0</ele><time>2026-05-02T14:29:41.606Z</time></trkpt><trkpt lat="46.09295" lon="13.50508"><ele>492.0</ele><time>2026-05-02T14:29:42.607Z</time></trkpt><trkpt lat="46.09306" lon="13.5050467"><ele>492.0</ele><time>2026-05-02T14:29:44.609Z</time></trkpt><trkpt lat="46.0931483" lon="13.5050283"><ele>492.0</ele><time>2026-05-02T14:29:46.607Z</time></trkpt><trkpt lat="46.0932083" lon="13.5050917"><ele>492.0</ele><time>2026-05-02T14:29:48.61Z</time></trkpt><trkpt lat="46.0931417" lon="13.505005"><ele>492.0</ele><time>2026-05-02T14:29:55.607Z</time></trkpt><trkpt lat="46.09306" lon="13.5050133"><ele>492.0</ele><time>2026-05-02T14:29:56.609Z</time></trkpt><trkpt lat="46.0929567" lon="13.5050383"><ele>492.0</ele><time>2026-05-02T14:29:57.608Z</time></trkpt><trkpt lat="46.092865" lon="13.5050483"><ele>492.0</ele><time>2026-05-02T14:29:58.606Z</time></trkpt><trkpt lat="46.09278" lon="13.5050483"><ele>492.0</ele><time>2026-05-02T14:29:59.609Z</time></trkpt><trkpt lat="46.0927117" lon="13.5050483"><ele>492.0</ele><time>2026-05-02T14:30:00.608Z</time></trkpt><trkpt lat="46.0926233" lon="13.505005"><ele>492.0</ele><time>2026-05-02T14:30:02.61Z</time></trkpt><trkpt lat="46.0926383" lon="13.5048717"><ele>492.0</ele><time>2026-05-02T14:30:05.606Z</time></trkpt><trkpt lat="46.092695" lon="13.50482"><ele>492.00000000000006</ele><time>2026-05-02T14:30:07.605Z</time></trkpt><trkpt lat="46.0928367" lon="13.504805"><ele>492.00000000000006</ele><time>2026-05-02T14:30:09.605Z</time></trkpt><trkpt lat="46.09293" lon="13.5048"><ele>492.0</ele><time>2026-05-02T14:30:10.608Z</time></trkpt><trkpt lat="46.0930217" lon="13.504795"><ele>492.0</ele><time>2026-05-02T14:30:11.608Z</time></trkpt><trkpt lat="46.0931017" lon="13.504795"><ele>492.0</ele><time>2026-05-02T14:30:12.61Z</time></trkpt><trkpt lat="46.0931717" lon="13.504795"><ele>492.0</ele><time>2026-05-02T14:30:13.608Z</time></trkpt><trkpt lat="46.093285" lon="13.504825"><ele>492.0</ele><time>2026-05-02T14:30:15.609Z</time></trkpt><trkpt lat="46.093345" lon="13.504855"><ele>492.0</ele><time>2026-05-02T14:30:16.605Z</time></trkpt><trkpt lat="46.0934117" lon="13.504905"><ele>492.0</ele><time>2026-05-02T14:30:17.609Z</time></trkpt><trkpt lat="46.093485" lon="13.5049667"><ele>492.0</ele><time>2026-05-02T14:30:18.61Z</time></trkpt><trkpt lat="46.093565" lon="13.50503"><ele>492.8333333333333</ele><time>2026-05-02T14:30:19.609Z</time></trkpt><trkpt lat="46.093645" lon="13.5050933"><ele>493.66666666666663</ele><time>2026-05-02T14:30:20.61Z</time></trkpt><trkpt lat="46.0937167" lon="13.505145"><ele>494.5</ele><time>2026-05-02T14:30:21.609Z</time></trkpt><trkpt lat="46.09379" lon="13.5051967"><ele>495.3333333333333</ele><time>2026-05-02T14:30:22.608Z</time></trkpt><trkpt lat="46.09386" lon="13.505255"><ele>496.16666666666663</ele><time>2026-05-02T14:30:23.61Z</time></trkpt><trkpt lat="46.0939317" lon="13.5053167"><ele>497.0</ele><time>2026-05-02T14:30:24.61Z</time></trkpt><trkpt lat="46.0940017" lon="13.5053733"><ele>497.0</ele><time>2026-05-02T14:30:25.61Z</time></trkpt><trkpt lat="46.094075" lon="13.5054217"><ele>497.00000000000006</ele><time>2026-05-02T14:30:26.612Z</time></trkpt><trkpt lat="46.0941433" lon="13.50546"><ele>497.00000000000006</ele><time>2026-05-02T14:30:27.609Z</time></trkpt><trkpt lat="46.0942067" lon="13.5054917"><ele>497.0</ele><time>2026-05-02T14:30:28.608Z</time></trkpt><trkpt lat="46.09433" lon="13.5055433"><ele>497.0</ele><time>2026-05-02T14:30:30.608Z</time></trkpt><trkpt lat="46.0944483" lon="13.5055667"><ele>496.99999999999994</ele><time>2026-05-02T14:30:32.606Z</time></trkpt><trkpt lat="46.0945717" lon="13.50554"><ele>497.0</ele><time>2026-05-02T14:30:34.609Z</time></trkpt><trkpt lat="46.0946333" lon="13.5055033"><ele>497.0</ele><time>2026-05-02T14:30:35.609Z</time></trkpt><trkpt lat="46.0946917" lon="13.5054583"><ele>497.0</ele><time>2026-05-02T14:30:36.61Z</time></trkpt><trkpt lat="46.0947483" lon="13.5054067"><ele>496.99999999999994</ele><time>2026-05-02T14:30:37.606Z</time></trkpt><trkpt lat="46.0948017" lon="13.5053583"><ele>497.0</ele><time>2026-05-02T14:30:38.611Z</time></trkpt><trkpt lat="46.0948967" lon="13.5052783"><ele>492.16666666666663</ele><time>2026-05-02T14:30:40.605Z</time></trkpt><trkpt lat="46.09501" lon="13.5052567"><ele>487.3333333333333</ele><time>2026-05-02T14:30:42.61Z</time></trkpt><trkpt lat="46.0950867" lon="13.5052567"><ele>482.5</ele><time>2026-05-02T14:30:43.608Z</time></trkpt><trkpt lat="46.0951617" lon="13.50526"><ele>477.66666666666663</ele><time>2026-05-02T14:30:44.612Z</time></trkpt><trkpt lat="46.09524" lon="13.5052633"><ele>472.8333333333333</ele><time>2026-05-02T14:30:45.609Z</time></trkpt><trkpt lat="46.0953083" lon="13.505255"><ele>468.0</ele><time>2026-05-02T14:30:46.605Z</time></trkpt><trkpt lat="46.0953767" lon="13.5052433"><ele>468.0</ele><time>2026-05-02T14:30:47.61Z</time></trkpt><trkpt lat="46.0955017" lon="13.5051833"><ele>467.99999999999994</ele><time>2026-05-02T14:30:49.606Z</time></trkpt><trkpt lat="46.0955683" lon="13.505125"><ele>467.99999999999994</ele><time>2026-05-02T14:30:50.612Z</time></trkpt><trkpt lat="46.0956283" lon="13.5050417"><ele>468.0</ele><time>2026-05-02T14:30:51.611Z</time></trkpt><trkpt lat="46.095685" lon="13.5049433"><ele>468.0</ele><time>2026-05-02T14:30:52.608Z</time></trkpt><trkpt lat="46.09573" lon="13.50483"><ele>466.5</ele><time>2026-05-02T14:30:53.611Z</time></trkpt><trkpt lat="46.095755" lon="13.5047333"><ele>465.0</ele><time>2026-05-02T14:30:54.612Z</time></trkpt><trkpt lat="46.095815" lon="13.5046367"><ele>463.5</ele><time>2026-05-02T14:30:55.611Z</time></trkpt><trkpt lat="46.095875" lon="13.5045483"><ele>462.0</ele><time>2026-05-02T14:30:56.609Z</time></trkpt><trkpt lat="46.0959383" lon="13.50446"><ele>460.5</ele><time>2026-05-02T14:30:57.611Z</time></trkpt><trkpt lat="46.096005" lon="13.5043833"><ele>459.0</ele><time>2026-05-02T14:30:58.607Z</time></trkpt><trkpt lat="46.0960767" lon="13.504315"><ele>458.0</ele><time>2026-05-02T14:30:59.607Z</time></trkpt><trkpt lat="46.0961467" lon="13.5042483"><ele>457.0</ele><time>2026-05-02T14:31:00.609Z</time></trkpt><trkpt lat="46.0962183" lon="13.5041783"><ele>456.0</ele><time>2026-05-02T14:31:01.61Z</time></trkpt><trkpt lat="46.0962933" lon="13.5041017"><ele>455.0</ele><time>2026-05-02T14:31:02.604Z</time></trkpt><trkpt lat="46.0963783" lon="13.5040233"><ele>454.0</ele><time>2026-05-02T14:31:03.612Z</time></trkpt><trkpt lat="46.0964483" lon="13.5039483"><ele>454.00000000000006</ele><time>2026-05-02T14:31:04.609Z</time></trkpt><trkpt lat="46.0965167" lon="13.50388"><ele>454.0</ele><time>2026-05-02T14:31:05.608Z</time></trkpt><trkpt lat="46.0965817" lon="13.503815"><ele>454.0</ele><time>2026-05-02T14:31:06.611Z</time></trkpt><trkpt lat="46.096645" lon="13.5037467"><ele>454.0</ele><time>2026-05-02T14:31:07.609Z</time></trkpt><trkpt lat="46.0967067" lon="13.5036783"><ele>454.00000000000006</ele><time>2026-05-02T14:31:08.611Z</time></trkpt><trkpt lat="46.0967767" lon="13.5036033"><ele>454.0</ele><time>2026-05-02T14:31:09.609Z</time></trkpt><trkpt lat="46.0968517" lon="13.503535"><ele>452.79999999999995</ele><time>2026-05-02T14:31:10.608Z</time></trkpt><trkpt lat="46.0969333" lon="13.5034783"><ele>451.59999999999997</ele><time>2026-05-02T14:31:11.611Z</time></trkpt><trkpt lat="46.0970233" lon="13.5034283"><ele>450.4</ele><time>2026-05-02T14:31:12.61Z</time></trkpt><trkpt lat="46.0971217" lon="13.5033783"><ele>449.2</ele><time>2026-05-02T14:31:13.611Z</time></trkpt><trkpt lat="46.0972283" lon="13.5033233"><ele>448.0</ele><time>2026-05-02T14:31:14.611Z</time></trkpt><trkpt lat="46.0973317" lon="13.5032733"><ele>446.0</ele><time>2026-05-02T14:31:15.609Z</time></trkpt><trkpt lat="46.0974333" lon="13.5032183"><ele>443.99999999999994</ele><time>2026-05-02T14:31:16.608Z</time></trkpt><trkpt lat="46.0975383" lon="13.5031633"><ele>441.99999999999994</ele><time>2026-05-02T14:31:17.609Z</time></trkpt><trkpt lat="46.09764" lon="13.5031083"><ele>440.0</ele><time>2026-05-02T14:31:18.606Z</time></trkpt><trkpt lat="46.0977367" lon="13.5030517"><ele>438.0</ele><time>2026-05-02T14:31:19.611Z</time></trkpt><trkpt lat="46.097835" lon="13.5029933"><ele>438.0</ele><time>2026-05-02T14:31:20.606Z</time></trkpt><trkpt lat="46.0979233" lon="13.5029383"><ele>438.0</ele><time>2026-05-02T14:31:21.606Z</time></trkpt><trkpt lat="46.098015" lon="13.502895"><ele>438.0</ele><time>2026-05-02T14:31:22.609Z</time></trkpt><trkpt lat="46.098095" lon="13.5028517"><ele>438.0</ele><time>2026-05-02T14:31:23.607Z</time></trkpt><trkpt lat="46.09816" lon="13.5028183"><ele>438.0</ele><time>2026-05-02T14:31:24.612Z</time></trkpt><trkpt lat="46.09822" lon="13.502775"><ele>438.0</ele><time>2026-05-02T14:31:25.605Z</time></trkpt><trkpt lat="46.0982733" lon="13.5027183"><ele>437.2</ele><time>2026-05-02T14:31:26.611Z</time></trkpt><trkpt lat="46.0983283" lon="13.5026433"><ele>436.4</ele><time>2026-05-02T14:31:27.608Z</time></trkpt><trkpt lat="46.0983883" lon="13.50255"><ele>435.59999999999997</ele><time>2026-05-02T14:31:28.608Z</time></trkpt><trkpt lat="46.0984567" lon="13.5024433"><ele>434.79999999999995</ele><time>2026-05-02T14:31:29.606Z</time></trkpt><trkpt lat="46.09853" lon="13.5023267"><ele>434.0</ele><time>2026-05-02T14:31:30.612Z</time></trkpt><trkpt lat="46.098605" lon="13.5022033"><ele>432.25</ele><time>2026-05-02T14:31:31.61Z</time></trkpt><trkpt lat="46.0986817" lon="13.502075"><ele>430.5</ele><time>2026-05-02T14:31:32.614Z</time></trkpt><trkpt lat="46.09876" lon="13.50195"><ele>428.75</ele><time>2026-05-02T14:31:33.608Z</time></trkpt><trkpt lat="46.0988433" lon="13.5018333"><ele>427.0</ele><time>2026-05-02T14:31:34.609Z</time></trkpt><trkpt lat="46.09893" lon="13.5017283"><ele>427.0</ele><time>2026-05-02T14:31:35.609Z</time></trkpt><trkpt lat="46.09902" lon="13.5016267"><ele>427.00000000000006</ele><time>2026-05-02T14:31:36.609Z</time></trkpt><trkpt lat="46.0991017" lon="13.501525"><ele>427.00000000000006</ele><time>2026-05-02T14:31:37.608Z</time></trkpt><trkpt lat="46.0991733" lon="13.5014217"><ele>427.0</ele><time>2026-05-02T14:31:38.61Z</time></trkpt><trkpt lat="46.0992333" lon="13.5013067"><ele>427.0</ele><time>2026-05-02T14:31:39.61Z</time></trkpt><trkpt lat="46.099285" lon="13.5011833"><ele>425.6</ele><time>2026-05-02T14:31:40.604Z</time></trkpt><trkpt lat="46.099325" lon="13.5010483"><ele>424.20000000000005</ele><time>2026-05-02T14:31:41.61Z</time></trkpt><trkpt lat="46.0993617" lon="13.5009067"><ele>422.8</ele><time>2026-05-02T14:31:42.611Z</time></trkpt><trkpt lat="46.0993933" lon="13.500775"><ele>421.4</ele><time>2026-05-02T14:31:43.611Z</time></trkpt><trkpt lat="46.09942" lon="13.5006517"><ele>420.0</ele><time>2026-05-02T14:31:44.61Z</time></trkpt><trkpt lat="46.0994417" lon="13.5005417"><ele>420.0</ele><time>2026-05-02T14:31:45.608Z</time></trkpt><trkpt lat="46.099455" lon="13.5004367"><ele>420.0</ele><time>2026-05-02T14:31:46.609Z</time></trkpt><trkpt lat="46.0994717" lon="13.500335"><ele>420.0</ele><time>2026-05-02T14:31:47.61Z</time></trkpt><trkpt lat="46.0994917" lon="13.5002333"><ele>420.0</ele><time>2026-05-02T14:31:48.609Z</time></trkpt><trkpt lat="46.0995033" lon="13.50013"><ele>420.0</ele><time>2026-05-02T14:31:49.605Z</time></trkpt><trkpt lat="46.09951" lon="13.5000217"><ele>420.0</ele><time>2026-05-02T14:31:50.613Z</time></trkpt><trkpt lat="46.099515" lon="13.49991"><ele>420.0</ele><time>2026-05-02T14:31:51.606Z</time></trkpt><trkpt lat="46.0995267" lon="13.4997817"><ele>418.6</ele><time>2026-05-02T14:31:52.61Z</time></trkpt><trkpt lat="46.099545" lon="13.49964"><ele>417.2</ele><time>2026-05-02T14:31:53.606Z</time></trkpt><trkpt lat="46.099565" lon="13.4995033"><ele>415.79999999999995</ele><time>2026-05-02T14:31:54.611Z</time></trkpt><trkpt lat="46.0995917" lon="13.4993717"><ele>414.4</ele><time>2026-05-02T14:31:55.611Z</time></trkpt><trkpt lat="46.09963" lon="13.4992333"><ele>413.0</ele><time>2026-05-02T14:31:56.609Z</time></trkpt><trkpt lat="46.09968" lon="13.499085"><ele>411.25</ele><time>2026-05-02T14:31:57.61Z</time></trkpt><trkpt lat="46.0997367" lon="13.498935"><ele>409.5</ele><time>2026-05-02T14:31:58.608Z</time></trkpt><trkpt lat="46.0997933" lon="13.4987817"><ele>407.75</ele><time>2026-05-02T14:31:59.704Z</time></trkpt><trkpt lat="46.0998533" lon="13.4986283"><ele>406.0</ele><time>2026-05-02T14:32:00.612Z</time></trkpt><trkpt lat="46.0999117" lon="13.49847"><ele>408.5</ele><time>2026-05-02T14:32:01.607Z</time></trkpt><trkpt lat="46.099965" lon="13.4983067"><ele>411.0</ele><time>2026-05-02T14:32:02.611Z</time></trkpt><trkpt lat="46.1000183" lon="13.4981483"><ele>413.5</ele><time>2026-05-02T14:32:03.607Z</time></trkpt><trkpt lat="46.1000667" lon="13.498"><ele>416.0</ele><time>2026-05-02T14:32:04.607Z</time></trkpt><trkpt lat="46.1001167" lon="13.4978433"><ele>416.0</ele><time>2026-05-02T14:32:05.608Z</time></trkpt><trkpt lat="46.1001667" lon="13.4976767"><ele>416.0</ele><time>2026-05-02T14:32:06.609Z</time></trkpt><trkpt lat="46.100215" lon="13.497495"><ele>416.0</ele><time>2026-05-02T14:32:07.609Z</time></trkpt><trkpt lat="46.1002583" lon="13.4973117"><ele>416.0</ele><time>2026-05-02T14:32:08.611Z</time></trkpt><trkpt lat="46.1003017" lon="13.4971317"><ele>414.0</ele><time>2026-05-02T14:32:09.609Z</time></trkpt><trkpt lat="46.100335" lon="13.4969583"><ele>412.0</ele><time>2026-05-02T14:32:10.607Z</time></trkpt><trkpt lat="46.1003667" lon="13.496795"><ele>410.0</ele><time>2026-05-02T14:32:11.609Z</time></trkpt><trkpt lat="46.1003833" lon="13.4966433"><ele>408.0</ele><time>2026-05-02T14:32:12.61Z</time></trkpt><trkpt lat="46.1004083" lon="13.496495"><ele>408.0</ele><time>2026-05-02T14:32:13.61Z</time></trkpt><trkpt lat="46.1004333" lon="13.4963567"><ele>408.0</ele><time>2026-05-02T14:32:14.61Z</time></trkpt><trkpt lat="46.1004633" lon="13.496225"><ele>408.0</ele><time>2026-05-02T14:32:15.607Z</time></trkpt><trkpt lat="46.100495" lon="13.4961117"><ele>408.0</ele><time>2026-05-02T14:32:16.605Z</time></trkpt><trkpt lat="46.10053" lon="13.4959983"><ele>408.0</ele><time>2026-05-02T14:32:17.609Z</time></trkpt><trkpt lat="46.1005583" lon="13.4958733"><ele>409.4</ele><time>2026-05-02T14:32:18.61Z</time></trkpt><trkpt lat="46.1005983" lon="13.4957483"><ele>410.79999999999995</ele><time>2026-05-02T14:32:19.611Z</time></trkpt><trkpt lat="46.1006467" lon="13.495625"><ele>412.2</ele><time>2026-05-02T14:32:20.609Z</time></trkpt><trkpt lat="46.1007" lon="13.4954917"><ele>413.6</ele><time>2026-05-02T14:32:21.609Z</time></trkpt><trkpt lat="46.10076" lon="13.4953633"><ele>415.0</ele><time>2026-05-02T14:32:22.608Z</time></trkpt><trkpt lat="46.100815" lon="13.4952417"><ele>415.0</ele><time>2026-05-02T14:32:23.61Z</time></trkpt><trkpt lat="46.100875" lon="13.4951217"><ele>415.0</ele><time>2026-05-02T14:32:24.612Z</time></trkpt><trkpt lat="46.100935" lon="13.4949967"><ele>415.0</ele><time>2026-05-02T14:32:25.611Z</time></trkpt><trkpt lat="46.1009883" lon="13.49487"><ele>415.0</ele><time>2026-05-02T14:32:26.609Z</time></trkpt><trkpt lat="46.1010417" lon="13.4947483"><ele>415.0</ele><time>2026-05-02T14:32:27.607Z</time></trkpt><trkpt lat="46.1011" lon="13.494625"><ele>412.4</ele><time>2026-05-02T14:32:28.608Z</time></trkpt><trkpt lat="46.10116" lon="13.4945033"><ele>409.8</ele><time>2026-05-02T14:32:29.611Z</time></trkpt><trkpt lat="46.10122" lon="13.4943883"><ele>407.20000000000005</ele><time>2026-05-02T14:32:30.611Z</time></trkpt><trkpt lat="46.1012817" lon="13.49427"><ele>404.6</ele><time>2026-05-02T14:32:31.605Z</time></trkpt><trkpt lat="46.101335" lon="13.4941567"><ele>402.0</ele><time>2026-05-02T14:32:32.605Z</time></trkpt><trkpt lat="46.1013833" lon="13.494055"><ele>402.0</ele><time>2026-05-02T14:32:33.608Z</time></trkpt><trkpt lat="46.1014283" lon="13.4939583"><ele>402.0</ele><time>2026-05-02T14:32:34.607Z</time></trkpt><trkpt lat="46.1014767" lon="13.4938583"><ele>402.0</ele><time>2026-05-02T14:32:35.609Z</time></trkpt><trkpt lat="46.10153" lon="13.49376"><ele>402.0</ele><time>2026-05-02T14:32:36.606Z</time></trkpt><trkpt lat="46.1015733" lon="13.4936717"><ele>402.0</ele><time>2026-05-02T14:32:37.61Z</time></trkpt><trkpt lat="46.1016333" lon="13.49359"><ele>402.0</ele><time>2026-05-02T14:32:38.606Z</time></trkpt><trkpt lat="46.1017033" lon="13.4935033"><ele>402.0</ele><time>2026-05-02T14:32:39.61Z</time></trkpt><trkpt lat="46.10178" lon="13.49342"><ele>402.0</ele><time>2026-05-02T14:32:40.611Z</time></trkpt><trkpt lat="46.101855" lon="13.4933383"><ele>402.0</ele><time>2026-05-02T14:32:41.607Z</time></trkpt><trkpt lat="46.1019233" lon="13.493245"><ele>402.0</ele><time>2026-05-02T14:32:42.605Z</time></trkpt><trkpt lat="46.1019833" lon="13.4931333"><ele>402.0</ele><time>2026-05-02T14:32:43.607Z</time></trkpt><trkpt lat="46.1020333" lon="13.4930017"><ele>399.25</ele><time>2026-05-02T14:32:44.608Z</time></trkpt><trkpt lat="46.102095" lon="13.4928483"><ele>396.5</ele><time>2026-05-02T14:32:45.607Z</time></trkpt><trkpt lat="46.1021633" lon="13.49268"><ele>393.75</ele><time>2026-05-02T14:32:46.604Z</time></trkpt><trkpt lat="46.10223" lon="13.492505"><ele>391.0</ele><time>2026-05-02T14:32:47.609Z</time></trkpt><trkpt lat="46.102295" lon="13.4923333"><ele>391.0</ele><time>2026-05-02T14:32:48.606Z</time></trkpt><trkpt lat="46.1023617" lon="13.4921667"><ele>391.0</ele><time>2026-05-02T14:32:49.608Z</time></trkpt><trkpt lat="46.10242" lon="13.4920167"><ele>391.0</ele><time>2026-05-02T14:32:50.611Z</time></trkpt><trkpt lat="46.10247" lon="13.491885"><ele>391.0</ele><time>2026-05-02T14:32:51.61Z</time></trkpt><trkpt lat="46.1025167" lon="13.4917667"><ele>391.6666666666667</ele><time>2026-05-02T14:32:52.608Z</time></trkpt><trkpt lat="46.1025567" lon="13.4916517"><ele>392.33333333333337</ele><time>2026-05-02T14:32:53.607Z</time></trkpt><trkpt lat="46.1025917" lon="13.49154"><ele>393.0</ele><time>2026-05-02T14:32:54.609Z</time></trkpt><trkpt lat="46.1026217" lon="13.4914267"><ele>393.66666666666663</ele><time>2026-05-02T14:32:55.61Z</time></trkpt><trkpt lat="46.10265" lon="13.491325"><ele>394.3333333333333</ele><time>2026-05-02T14:32:56.611Z</time></trkpt><trkpt lat="46.1026783" lon="13.491235"><ele>395.0</ele><time>2026-05-02T14:32:57.609Z</time></trkpt><trkpt lat="46.1027583" lon="13.4910933"><ele>395.0</ele><time>2026-05-02T14:32:59.608Z</time></trkpt><trkpt lat="46.1028117" lon="13.491045"><ele>395.0</ele><time>2026-05-02T14:33:00.608Z</time></trkpt><trkpt lat="46.1028733" lon="13.49102"><ele>395.0</ele><time>2026-05-02T14:33:01.609Z</time></trkpt><trkpt lat="46.1029967" lon="13.4910017"><ele>395.0</ele><time>2026-05-02T14:33:03.611Z</time></trkpt><trkpt lat="46.1030783" lon="13.4909267"><ele>395.0</ele><time>2026-05-02T14:33:05.61Z</time></trkpt><trkpt lat="46.1030133" lon="13.4907567"><ele>395.0</ele><time>2026-05-02T14:33:07.607Z</time></trkpt><trkpt lat="46.102945" lon="13.4906367"><ele>395.0</ele><time>2026-05-02T14:33:08.606Z</time></trkpt><trkpt lat="46.1028717" lon="13.4905033"><ele>395.0</ele><time>2026-05-02T14:33:09.609Z</time></trkpt><trkpt lat="46.102805" lon="13.4903917"><ele>395.0</ele><time>2026-05-02T14:33:10.605Z</time></trkpt><trkpt lat="46.10275" lon="13.4903017"><ele>395.0</ele><time>2026-05-02T14:33:11.608Z</time></trkpt><trkpt lat="46.102715" lon="13.4901733"><ele>392.3333333333333</ele><time>2026-05-02T14:33:13.608Z</time></trkpt><trkpt lat="46.1027933" lon="13.49013"><ele>389.66666666666663</ele><time>2026-05-02T14:33:15.608Z</time></trkpt><trkpt lat="46.1028783" lon="13.4901317"><ele>387.0</ele><time>2026-05-02T14:33:16.607Z</time></trkpt><trkpt lat="46.102955" lon="13.4901"><ele>384.3333333333333</ele><time>2026-05-02T14:33:17.608Z</time></trkpt><trkpt lat="46.10302" lon="13.4900383"><ele>381.66666666666663</ele><time>2026-05-02T14:33:18.605Z</time></trkpt><trkpt lat="46.1030683" lon="13.4899483"><ele>379.0</ele><time>2026-05-02T14:33:19.609Z</time></trkpt><trkpt lat="46.1030833" lon="13.4898167"><ele>379.0</ele><time>2026-05-02T14:33:20.609Z</time></trkpt><trkpt lat="46.103095" lon="13.4896667"><ele>379.0</ele><time>2026-05-02T14:33:21.609Z</time></trkpt><trkpt lat="46.1030983" lon="13.48951"><ele>379.0</ele><time>2026-05-02T14:33:22.606Z</time></trkpt><trkpt lat="46.103095" lon="13.4893417"><ele>379.0</ele><time>2026-05-02T14:33:23.609Z</time></trkpt><trkpt lat="46.103085" lon="13.4891667"><ele>375.2</ele><time>2026-05-02T14:33:24.612Z</time></trkpt><trkpt lat="46.10308" lon="13.4889883"><ele>371.4</ele><time>2026-05-02T14:33:25.606Z</time></trkpt><trkpt lat="46.10308" lon="13.488825"><ele>367.6</ele><time>2026-05-02T14:33:26.608Z</time></trkpt><trkpt lat="46.1030833" lon="13.48867"><ele>363.8</ele><time>2026-05-02T14:33:27.607Z</time></trkpt><trkpt lat="46.1030883" lon="13.4885217"><ele>360.0</ele><time>2026-05-02T14:33:28.607Z</time></trkpt><trkpt lat="46.1030967" lon="13.4883933"><ele>358.6666666666667</ele><time>2026-05-02T14:33:29.605Z</time></trkpt><trkpt lat="46.1031083" lon="13.488275"><ele>357.3333333333333</ele><time>2026-05-02T14:33:30.611Z</time></trkpt><trkpt lat="46.1031133" lon="13.4881667"><ele>356.0</ele><time>2026-05-02T14:33:31.609Z</time></trkpt><trkpt lat="46.1031183" lon="13.4880683"><ele>354.66666666666663</ele><time>2026-05-02T14:33:32.609Z</time></trkpt><trkpt lat="46.1031" lon="13.4878867"><ele>353.3333333333333</ele><time>2026-05-02T14:33:34.607Z</time></trkpt><trkpt lat="46.1030817" lon="13.487785"><ele>352.0</ele><time>2026-05-02T14:33:35.61Z</time></trkpt><trkpt lat="46.10306" lon="13.4876917"><ele>351.42857142857144</ele><time>2026-05-02T14:33:36.611Z</time></trkpt><trkpt lat="46.1030417" lon="13.4875983"><ele>350.85714285714283</ele><time>2026-05-02T14:33:37.597Z</time></trkpt><trkpt lat="46.103035" lon="13.4875033"><ele>350.2857142857143</ele><time>2026-05-02T14:33:38.609Z</time></trkpt><trkpt lat="46.1030417" lon="13.4874117"><ele>349.7142857142857</ele><time>2026-05-02T14:33:39.607Z</time></trkpt><trkpt lat="46.103055" lon="13.4873167"><ele>349.14285714285717</ele><time>2026-05-02T14:33:40.608Z</time></trkpt><trkpt lat="46.1030767" lon="13.487205"><ele>348.57142857142856</ele><time>2026-05-02T14:33:41.606Z</time></trkpt><trkpt lat="46.103105" lon="13.48709"><ele>348.0</ele><time>2026-05-02T14:33:42.612Z</time></trkpt><trkpt lat="46.1031383" lon="13.486985"><ele>346.5</ele><time>2026-05-02T14:33:43.608Z</time></trkpt><trkpt lat="46.103165" lon="13.4868717"><ele>345.0</ele><time>2026-05-02T14:33:44.61Z</time></trkpt><trkpt lat="46.103185" lon="13.4867533"><ele>343.5</ele><time>2026-05-02T14:33:45.609Z</time></trkpt><trkpt lat="46.1031983" lon="13.4866367"><ele>342.0</ele><time>2026-05-02T14:33:46.606Z</time></trkpt><trkpt lat="46.103205" lon="13.48652"><ele>340.5</ele><time>2026-05-02T14:33:47.605Z</time></trkpt><trkpt lat="46.10321" lon="13.4864083"><ele>339.0</ele><time>2026-05-02T14:33:48.607Z</time></trkpt><trkpt lat="46.1032117" lon="13.4863"><ele>337.5</ele><time>2026-05-02T14:33:49.606Z</time></trkpt><trkpt lat="46.103205" lon="13.486185"><ele>336.0</ele><time>2026-05-02T14:33:50.609Z</time></trkpt><trkpt lat="46.1031967" lon="13.4860617"><ele>334.5</ele><time>2026-05-02T14:33:51.608Z</time></trkpt><trkpt lat="46.1031883" lon="13.4859267"><ele>333.0</ele><time>2026-05-02T14:33:52.606Z</time></trkpt><trkpt lat="46.1031767" lon="13.4857917"><ele>331.5</ele><time>2026-05-02T14:33:53.608Z</time></trkpt><trkpt lat="46.103165" lon="13.4856633"><ele>330.0</ele><time>2026-05-02T14:33:54.607Z</time></trkpt><trkpt lat="46.10316" lon="13.48552"><ele>329.2</ele><time>2026-05-02T14:33:55.609Z</time></trkpt><trkpt lat="46.1031533" lon="13.48538"><ele>328.4</ele><time>2026-05-02T14:33:56.609Z</time></trkpt><trkpt lat="46.1031567" lon="13.4852383"><ele>327.6</ele><time>2026-05-02T14:33:57.608Z</time></trkpt><trkpt lat="46.1031483" lon="13.4850967"><ele>326.8</ele><time>2026-05-02T14:33:58.61Z</time></trkpt><trkpt lat="46.1031383" lon="13.4849733"><ele>326.0</ele><time>2026-05-02T14:33:59.606Z</time></trkpt><trkpt lat="46.1031533" lon="13.48487"><ele>326.0</ele><time>2026-05-02T14:34:00.609Z</time></trkpt><trkpt lat="46.10316" lon="13.4847317"><ele>326.0</ele><time>2026-05-02T14:34:01.608Z</time></trkpt><trkpt lat="46.1031683" lon="13.48458"><ele>326.0</ele><time>2026-05-02T14:34:02.609Z</time></trkpt><trkpt lat="46.1031867" lon="13.4844233"><ele>326.0</ele><time>2026-05-02T14:34:03.608Z</time></trkpt><trkpt lat="46.1032117" lon="13.4842817"><ele>326.0</ele><time>2026-05-02T14:34:04.609Z</time></trkpt><trkpt lat="46.1032383" lon="13.4841533"><ele>327.8</ele><time>2026-05-02T14:34:05.608Z</time></trkpt><trkpt lat="46.1032583" lon="13.484015"><ele>329.6</ele><time>2026-05-02T14:34:06.611Z</time></trkpt><trkpt lat="46.1032683" lon="13.48388"><ele>331.4</ele><time>2026-05-02T14:34:07.609Z</time></trkpt><trkpt lat="46.1032833" lon="13.483735"><ele>333.2</ele><time>2026-05-02T14:34:08.61Z</time></trkpt><trkpt lat="46.1033017" lon="13.4836017"><ele>335.0</ele><time>2026-05-02T14:34:09.61Z</time></trkpt><trkpt lat="46.1033233" lon="13.4834783"><ele>335.0</ele><time>2026-05-02T14:34:10.609Z</time></trkpt><trkpt lat="46.1033433" lon="13.48336"><ele>335.0</ele><time>2026-05-02T14:34:11.609Z</time></trkpt><trkpt lat="46.1033733" lon="13.4832483"><ele>335.0</ele><time>2026-05-02T14:34:12.612Z</time></trkpt><trkpt lat="46.1034117" lon="13.4831367"><ele>335.0</ele><time>2026-05-02T14:34:13.608Z</time></trkpt><trkpt lat="46.1034483" lon="13.4830433"><ele>335.0</ele><time>2026-05-02T14:34:14.61Z</time></trkpt><trkpt lat="46.1035" lon="13.48297"><ele>335.0</ele><time>2026-05-02T14:34:15.608Z</time></trkpt><trkpt lat="46.1035517" lon="13.4829083"><ele>332.6666666666667</ele><time>2026-05-02T14:34:16.608Z</time></trkpt><trkpt lat="46.103615" lon="13.4828833"><ele>330.33333333333337</ele><time>2026-05-02T14:34:17.61Z</time></trkpt><trkpt lat="46.1036783" lon="13.482865"><ele>328.0</ele><time>2026-05-02T14:34:18.611Z</time></trkpt><trkpt lat="46.10374" lon="13.4828417"><ele>325.6666666666667</ele><time>2026-05-02T14:34:19.612Z</time></trkpt><trkpt lat="46.10385" lon="13.4827983"><ele>323.3333333333333</ele><time>2026-05-02T14:34:21.607Z</time></trkpt><trkpt lat="46.10395" lon="13.4827633"><ele>321.0</ele><time>2026-05-02T14:34:23.61Z</time></trkpt><trkpt lat="46.1040233" lon="13.4826667"><ele>321.0</ele><time>2026-05-02T14:34:25.609Z</time></trkpt><trkpt lat="46.1040533" lon="13.482585"><ele>321.0</ele><time>2026-05-02T14:34:26.609Z</time></trkpt><trkpt lat="46.1040867" lon="13.48248"><ele>321.0</ele><time>2026-05-02T14:34:27.606Z</time></trkpt><trkpt lat="46.1041217" lon="13.4823483"><ele>321.0</ele><time>2026-05-02T14:34:28.606Z</time></trkpt><trkpt lat="46.1041617" lon="13.4822133"><ele>321.0</ele><time>2026-05-02T14:34:29.61Z</time></trkpt><trkpt lat="46.1041967" lon="13.4820917"><ele>321.0</ele><time>2026-05-02T14:34:30.611Z</time></trkpt><trkpt lat="46.1042367" lon="13.4819833"><ele>320.6666666666667</ele><time>2026-05-02T14:34:31.608Z</time></trkpt><trkpt lat="46.1042783" lon="13.4818817"><ele>320.3333333333333</ele><time>2026-05-02T14:34:32.609Z</time></trkpt><trkpt lat="46.1043183" lon="13.4817917"><ele>320.0</ele><time>2026-05-02T14:34:33.607Z</time></trkpt><trkpt lat="46.1043683" lon="13.4817067"><ele>319.66666666666663</ele><time>2026-05-02T14:34:34.607Z</time></trkpt><trkpt lat="46.1044267" lon="13.4816333"><ele>319.3333333333333</ele><time>2026-05-02T14:34:35.609Z</time></trkpt><trkpt lat="46.1044983" lon="13.48157"><ele>319.0</ele><time>2026-05-02T14:34:36.606Z</time></trkpt><trkpt lat="46.1045767" lon="13.48152"><ele>319.0</ele><time>2026-05-02T14:34:37.605Z</time></trkpt><trkpt lat="46.1046517" lon="13.4814817"><ele>319.0</ele><time>2026-05-02T14:34:38.608Z</time></trkpt><trkpt lat="46.1047283" lon="13.4814583"><ele>319.0</ele><time>2026-05-02T14:34:39.609Z</time></trkpt><trkpt lat="46.1047933" lon="13.4814483"><ele>319.0</ele><time>2026-05-02T14:34:40.607Z</time></trkpt><trkpt lat="46.1049017" lon="13.4815033"><ele>319.0</ele><time>2026-05-02T14:34:42.609Z</time></trkpt><trkpt lat="46.1049533" lon="13.48157"><ele>319.0</ele><time>2026-05-02T14:34:43.61Z</time></trkpt><trkpt lat="46.105015" lon="13.4816467"><ele>319.8333333333333</ele><time>2026-05-02T14:34:44.608Z</time></trkpt><trkpt lat="46.1050833" lon="13.4817283"><ele>320.66666666666663</ele><time>2026-05-02T14:34:45.609Z</time></trkpt><trkpt lat="46.1051517" lon="13.4818133"><ele>321.5</ele><time>2026-05-02T14:34:46.608Z</time></trkpt><trkpt lat="46.1052133" lon="13.4818933"><ele>322.3333333333333</ele><time>2026-05-02T14:34:47.609Z</time></trkpt><trkpt lat="46.1052733" lon="13.481965"><ele>323.1666666666667</ele><time>2026-05-02T14:34:48.61Z</time></trkpt><trkpt lat="46.105365" lon="13.4820517"><ele>324.0</ele><time>2026-05-02T14:34:50.61Z</time></trkpt><trkpt lat="46.1054417" lon="13.48204"><ele>324.0</ele><time>2026-05-02T14:34:52.604Z</time></trkpt><trkpt lat="46.1055233" lon="13.4819183"><ele>324.0</ele><time>2026-05-02T14:34:54.604Z</time></trkpt><trkpt lat="46.105575" lon="13.481815"><ele>324.0</ele><time>2026-05-02T14:34:55.608Z</time></trkpt><trkpt lat="46.1056333" lon="13.4817067"><ele>324.0</ele><time>2026-05-02T14:34:56.607Z</time></trkpt><trkpt lat="46.1057017" lon="13.481595"><ele>324.0</ele><time>2026-05-02T14:34:57.607Z</time></trkpt><trkpt lat="46.1057817" lon="13.48148"><ele>324.2</ele><time>2026-05-02T14:34:58.607Z</time></trkpt><trkpt lat="46.1058633" lon="13.4813583"><ele>324.4</ele><time>2026-05-02T14:34:59.607Z</time></trkpt><trkpt lat="46.1059433" lon="13.48124"><ele>324.6</ele><time>2026-05-02T14:35:00.605Z</time></trkpt><trkpt lat="46.1060217" lon="13.4811267"><ele>324.8</ele><time>2026-05-02T14:35:01.608Z</time></trkpt><trkpt lat="46.1060933" lon="13.48102"><ele>325.0</ele><time>2026-05-02T14:35:02.609Z</time></trkpt><trkpt lat="46.106165" lon="13.4809133"><ele>320.5</ele><time>2026-05-02T14:35:03.604Z</time></trkpt><trkpt lat="46.1062333" lon="13.480815"><ele>316.0</ele><time>2026-05-02T14:35:04.608Z</time></trkpt><trkpt lat="46.1062933" lon="13.4807167"><ele>311.5</ele><time>2026-05-02T14:35:05.608Z</time></trkpt><trkpt lat="46.10635" lon="13.4806333"><ele>307.0</ele><time>2026-05-02T14:35:06.61Z</time></trkpt><trkpt lat="46.106405" lon="13.48055"><ele>302.5</ele><time>2026-05-02T14:35:07.606Z</time></trkpt><trkpt lat="46.1064567" lon="13.48047"><ele>298.0</ele><time>2026-05-02T14:35:08.605Z</time></trkpt><trkpt lat="46.10651" lon="13.4803983"><ele>296.3333333333333</ele><time>2026-05-02T14:35:09.609Z</time></trkpt><trkpt lat="46.1065717" lon="13.48033"><ele>294.66666666666663</ele><time>2026-05-02T14:35:10.607Z</time></trkpt><trkpt lat="46.1066433" lon="13.4802667"><ele>293.0</ele><time>2026-05-02T14:35:11.607Z</time></trkpt><trkpt lat="46.1067267" lon="13.48021"><ele>291.3333333333333</ele><time>2026-05-02T14:35:12.607Z</time></trkpt><trkpt lat="46.1068033" lon="13.4801683"><ele>289.6666666666667</ele><time>2026-05-02T14:35:13.607Z</time></trkpt><trkpt lat="46.1068717" lon="13.4801283"><ele>288.0</ele><time>2026-05-02T14:35:14.609Z</time></trkpt><trkpt lat="46.106935" lon="13.4800983"><ele>288.0</ele><time>2026-05-02T14:35:15.608Z</time></trkpt><trkpt lat="46.1070533" lon="13.48009"><ele>288.0</ele><time>2026-05-02T14:35:17.609Z</time></trkpt><trkpt lat="46.1071517" lon="13.4801233"><ele>288.0</ele><time>2026-05-02T14:35:19.608Z</time></trkpt><trkpt lat="46.1072367" lon="13.4800883"><ele>288.0</ele><time>2026-05-02T14:35:22.606Z</time></trkpt><trkpt lat="46.10731" lon="13.4801"><ele>288.0</ele><time>2026-05-02T14:35:46.607Z</time></trkpt><trkpt lat="46.1073467" lon="13.48025"><ele>288.0</ele><time>2026-05-02T14:35:49.609Z</time></trkpt><trkpt lat="46.1073583" lon="13.4803517"><ele>288.0</ele><time>2026-05-02T14:35:50.609Z</time></trkpt><trkpt lat="46.1073683" lon="13.4804717"><ele>288.0</ele><time>2026-05-02T14:35:51.605Z</time></trkpt><trkpt lat="46.10738" lon="13.4806067"><ele>288.0</ele><time>2026-05-02T14:35:52.606Z</time></trkpt><trkpt lat="46.107405" lon="13.4807517"><ele>288.0</ele><time>2026-05-02T14:35:53.607Z</time></trkpt><trkpt lat="46.1074433" lon="13.4808983"><ele>290.2</ele><time>2026-05-02T14:35:54.61Z</time></trkpt><trkpt lat="46.1074733" lon="13.481055"><ele>292.4</ele><time>2026-05-02T14:35:55.608Z</time></trkpt><trkpt lat="46.1075083" lon="13.4812067"><ele>294.59999999999997</ele><time>2026-05-02T14:35:56.61Z</time></trkpt><trkpt lat="46.107545" lon="13.4813383"><ele>296.8</ele><time>2026-05-02T14:35:57.607Z</time></trkpt><trkpt lat="46.1075883" lon="13.4814633"><ele>299.0</ele><time>2026-05-02T14:35:58.608Z</time></trkpt><trkpt lat="46.1076517" lon="13.4815767"><ele>303.0</ele><time>2026-05-02T14:35:59.608Z</time></trkpt><trkpt lat="46.1077133" lon="13.4816817"><ele>307.0</ele><time>2026-05-02T14:36:00.609Z</time></trkpt><trkpt lat="46.1077833" lon="13.4817883"><ele>311.0</ele><time>2026-05-02T14:36:01.609Z</time></trkpt><trkpt lat="46.10785" lon="13.4818817"><ele>315.0</ele><time>2026-05-02T14:36:02.609Z</time></trkpt><trkpt lat="46.1079067" lon="13.4819767"><ele>319.0</ele><time>2026-05-02T14:36:03.607Z</time></trkpt><trkpt lat="46.10797" lon="13.482075"><ele>322.0</ele><time>2026-05-02T14:36:04.607Z</time></trkpt><trkpt lat="46.108025" lon="13.4821717"><ele>325.0</ele><time>2026-05-02T14:36:05.609Z</time></trkpt><trkpt lat="46.1080567" lon="13.48226"><ele>328.0</ele><time>2026-05-02T14:36:06.608Z</time></trkpt><trkpt lat="46.10809" lon="13.4824217"><ele>331.0</ele><time>2026-05-02T14:36:08.609Z</time></trkpt><trkpt lat="46.1080967" lon="13.4825217"><ele>334.0</ele><time>2026-05-02T14:36:09.609Z</time></trkpt><trkpt lat="46.1080983" lon="13.48263"><ele>337.0</ele><time>2026-05-02T14:36:10.607Z</time></trkpt><trkpt lat="46.1081" lon="13.482745"><ele>337.0</ele><time>2026-05-02T14:36:11.594Z</time></trkpt><trkpt lat="46.1081067" lon="13.4828717"><ele>337.0</ele><time>2026-05-02T14:36:12.606Z</time></trkpt><trkpt lat="46.1081067" lon="13.483"><ele>337.0</ele><time>2026-05-02T14:36:13.606Z</time></trkpt><trkpt lat="46.1081" lon="13.4831233"><ele>337.0</ele><time>2026-05-02T14:36:14.61Z</time></trkpt><trkpt lat="46.108085" lon="13.483245"><ele>337.0</ele><time>2026-05-02T14:36:15.605Z</time></trkpt><trkpt lat="46.1080583" lon="13.4833617"><ele>337.0</ele><time>2026-05-02T14:36:16.606Z</time></trkpt><trkpt lat="46.1080217" lon="13.48348"><ele>337.0</ele><time>2026-05-02T14:36:17.605Z</time></trkpt><trkpt lat="46.1079833" lon="13.4835933"><ele>337.0</ele><time>2026-05-02T14:36:18.606Z</time></trkpt><trkpt lat="46.1079517" lon="13.4837017"><ele>337.0</ele><time>2026-05-02T14:36:19.608Z</time></trkpt><trkpt lat="46.1079183" lon="13.4838017"><ele>337.0</ele><time>2026-05-02T14:36:20.609Z</time></trkpt><trkpt lat="46.1078917" lon="13.4839017"><ele>337.0</ele><time>2026-05-02T14:36:21.608Z</time></trkpt><trkpt lat="46.10788" lon="13.48401"><ele>337.0</ele><time>2026-05-02T14:36:22.607Z</time></trkpt><trkpt lat="46.107865" lon="13.484115"><ele>337.0</ele><time>2026-05-02T14:36:23.61Z</time></trkpt><trkpt lat="46.107855" lon="13.4842183"><ele>337.0</ele><time>2026-05-02T14:36:24.609Z</time></trkpt><trkpt lat="46.1078483" lon="13.4843217"><ele>337.0</ele><time>2026-05-02T14:36:25.607Z</time></trkpt><trkpt lat="46.1078467" lon="13.4844367"><ele>337.0</ele><time>2026-05-02T14:36:26.609Z</time></trkpt><trkpt lat="46.1078567" lon="13.4845517"><ele>337.0</ele><time>2026-05-02T14:36:27.608Z</time></trkpt><trkpt lat="46.107865" lon="13.4846617"><ele>337.0</ele><time>2026-05-02T14:36:28.605Z</time></trkpt><trkpt lat="46.1078817" lon="13.484765"><ele>336.00000000000006</ele><time>2026-05-02T14:36:29.609Z</time></trkpt><trkpt lat="46.107905" lon="13.4848717"><ele>335.0</ele><time>2026-05-02T14:36:30.61Z</time></trkpt><trkpt lat="46.1079317" lon="13.4849733"><ele>334.0</ele><time>2026-05-02T14:36:31.609Z</time></trkpt><trkpt lat="46.1079683" lon="13.4850767"><ele>333.0</ele><time>2026-05-02T14:36:32.597Z</time></trkpt><trkpt lat="46.107995" lon="13.485165"><ele>332.0</ele><time>2026-05-02T14:36:33.597Z</time></trkpt><trkpt lat="46.108025" lon="13.48525"><ele>331.00000000000006</ele><time>2026-05-02T14:36:34.597Z</time></trkpt><trkpt lat="46.1080517" lon="13.485335"><ele>330.0</ele><time>2026-05-02T14:36:35.597Z</time></trkpt><trkpt lat="46.1080817" lon="13.48543"><ele>330.0</ele><time>2026-05-02T14:36:36.597Z</time></trkpt><trkpt lat="46.1081117" lon="13.4855333"><ele>330.0</ele><time>2026-05-02T14:36:37.597Z</time></trkpt><trkpt lat="46.1081467" lon="13.4856383"><ele>330.0</ele><time>2026-05-02T14:36:38.597Z</time></trkpt><trkpt lat="46.1081817" lon="13.4857433"><ele>330.0</ele><time>2026-05-02T14:36:39.597Z</time></trkpt><trkpt lat="46.108215" lon="13.4858533"><ele>330.0</ele><time>2026-05-02T14:36:40.596Z</time></trkpt><trkpt lat="46.108245" lon="13.485975"><ele>330.0</ele><time>2026-05-02T14:36:41.596Z</time></trkpt><trkpt lat="46.1082717" lon="13.486105"><ele>323.0</ele><time>2026-05-02T14:36:42.61Z</time></trkpt><trkpt lat="46.10829" lon="13.4862333"><ele>316.0</ele><time>2026-05-02T14:36:43.609Z</time></trkpt><trkpt lat="46.1083017" lon="13.4863617"><ele>309.0</ele><time>2026-05-02T14:36:44.609Z</time></trkpt><trkpt lat="46.1083083" lon="13.4864917"><ele>302.0</ele><time>2026-05-02T14:36:45.608Z</time></trkpt><trkpt lat="46.10832" lon="13.4866333"><ele>295.0</ele><time>2026-05-02T14:36:46.608Z</time></trkpt><trkpt lat="46.1083317" lon="13.4867733"><ele>295.0</ele><time>2026-05-02T14:36:47.608Z</time></trkpt><trkpt lat="46.1083467" lon="13.486915"><ele>295.0</ele><time>2026-05-02T14:36:48.609Z</time></trkpt><trkpt lat="46.1083583" lon="13.4870533"><ele>295.0</ele><time>2026-05-02T14:36:49.607Z</time></trkpt><trkpt lat="46.108365" lon="13.4871867"><ele>295.0</ele><time>2026-05-02T14:36:50.61Z</time></trkpt><trkpt lat="46.108365" lon="13.487315"><ele>295.0</ele><time>2026-05-02T14:36:51.608Z</time></trkpt><trkpt lat="46.1083683" lon="13.4874417"><ele>295.8</ele><time>2026-05-02T14:36:52.61Z</time></trkpt><trkpt lat="46.10837" lon="13.4875783"><ele>296.6</ele><time>2026-05-02T14:36:53.61Z</time></trkpt><trkpt lat="46.1083617" lon="13.4877133"><ele>297.4</ele><time>2026-05-02T14:36:54.609Z</time></trkpt><trkpt lat="46.108355" lon="13.4878567"><ele>298.2</ele><time>2026-05-02T14:36:55.609Z</time></trkpt><trkpt lat="46.1083467" lon="13.4879967"><ele>299.0</ele><time>2026-05-02T14:36:56.61Z</time></trkpt><trkpt lat="46.10834" lon="13.488135"><ele>299.0</ele><time>2026-05-02T14:36:57.608Z</time></trkpt><trkpt lat="46.108325" lon="13.4882633"><ele>299.0</ele><time>2026-05-02T14:36:58.607Z</time></trkpt><trkpt lat="46.1083133" lon="13.4883883"><ele>299.0</ele><time>2026-05-02T14:36:59.607Z</time></trkpt><trkpt lat="46.108295" lon="13.48851"><ele>299.0</ele><time>2026-05-02T14:37:00.608Z</time></trkpt><trkpt lat="46.1082733" lon="13.488635"><ele>299.0</ele><time>2026-05-02T14:37:01.609Z</time></trkpt><trkpt lat="46.10826" lon="13.4887583"><ele>299.0</ele><time>2026-05-02T14:37:02.609Z</time></trkpt><trkpt lat="46.1082533" lon="13.4888783"><ele>300.1666666666667</ele><time>2026-05-02T14:37:03.609Z</time></trkpt><trkpt lat="46.1082583" lon="13.48898"><ele>301.33333333333337</ele><time>2026-05-02T14:37:04.609Z</time></trkpt><trkpt lat="46.1083117" lon="13.4891333"><ele>302.5</ele><time>2026-05-02T14:37:06.609Z</time></trkpt><trkpt lat="46.1083617" lon="13.4891967"><ele>303.6666666666667</ele><time>2026-05-02T14:37:07.609Z</time></trkpt><trkpt lat="46.1084267" lon="13.489255"><ele>304.8333333333333</ele><time>2026-05-02T14:37:08.609Z</time></trkpt><trkpt lat="46.1085167" lon="13.4893083"><ele>306.0</ele><time>2026-05-02T14:37:09.61Z</time></trkpt><trkpt lat="46.10861" lon="13.4893717"><ele>306.0</ele><time>2026-05-02T14:37:10.61Z</time></trkpt><trkpt lat="46.1087" lon="13.489435"><ele>306.0</ele><time>2026-05-02T14:37:11.61Z</time></trkpt><trkpt lat="46.1087667" lon="13.489495"><ele>306.0</ele><time>2026-05-02T14:37:12.609Z</time></trkpt><trkpt lat="46.1088233" lon="13.4895567"><ele>306.0</ele><time>2026-05-02T14:37:13.605Z</time></trkpt><trkpt lat="46.1088767" lon="13.4896317"><ele>306.0</ele><time>2026-05-02T14:37:14.608Z</time></trkpt><trkpt lat="46.10892" lon="13.48972"><ele>306.0</ele><time>2026-05-02T14:37:15.608Z</time></trkpt><trkpt lat="46.1089583" lon="13.4898217"><ele>307.1666666666667</ele><time>2026-05-02T14:37:16.605Z</time></trkpt><trkpt lat="46.1089933" lon="13.4899317"><ele>308.3333333333333</ele><time>2026-05-02T14:37:17.607Z</time></trkpt><trkpt lat="46.1090133" lon="13.4900483"><ele>309.5</ele><time>2026-05-02T14:37:18.608Z</time></trkpt><trkpt lat="46.1090317" lon="13.4901717"><ele>310.66666666666663</ele><time>2026-05-02T14:37:19.607Z</time></trkpt><trkpt lat="46.1090533" lon="13.4903067"><ele>311.8333333333333</ele><time>2026-05-02T14:37:20.61Z</time></trkpt><trkpt lat="46.1090717" lon="13.4904367"><ele>313.0</ele><time>2026-05-02T14:37:21.609Z</time></trkpt><trkpt lat="46.1090883" lon="13.4905683"><ele>313.0</ele><time>2026-05-02T14:37:22.608Z</time></trkpt><trkpt lat="46.109105" lon="13.4907"><ele>313.0</ele><time>2026-05-02T14:37:23.608Z</time></trkpt><trkpt lat="46.1091217" lon="13.4908217"><ele>313.0</ele><time>2026-05-02T14:37:24.608Z</time></trkpt><trkpt lat="46.1091483" lon="13.49092"><ele>313.0</ele><time>2026-05-02T14:37:25.608Z</time></trkpt><trkpt lat="46.1091817" lon="13.4910133"><ele>313.0</ele><time>2026-05-02T14:37:26.61Z</time></trkpt><trkpt lat="46.109225" lon="13.4910917"><ele>313.0</ele><time>2026-05-02T14:37:27.608Z</time></trkpt><trkpt lat="46.1092867" lon="13.491155"><ele>313.0</ele><time>2026-05-02T14:37:28.606Z</time></trkpt><trkpt lat="46.1093567" lon="13.4912017"><ele>313.0</ele><time>2026-05-02T14:37:29.606Z</time></trkpt><trkpt lat="46.1094183" lon="13.4912467"><ele>313.0</ele><time>2026-05-02T14:37:30.609Z</time></trkpt><trkpt lat="46.10948" lon="13.4912867"><ele>313.0</ele><time>2026-05-02T14:37:31.607Z</time></trkpt><trkpt lat="46.1095467" lon="13.49132"><ele>313.0</ele><time>2026-05-02T14:37:32.609Z</time></trkpt><trkpt lat="46.10961" lon="13.4913467"><ele>313.0</ele><time>2026-05-02T14:37:33.607Z</time></trkpt><trkpt lat="46.1097067" lon="13.4913883"><ele>312.8333333333333</ele><time>2026-05-02T14:37:35.607Z</time></trkpt><trkpt lat="46.10978" lon="13.49148"><ele>312.66666666666663</ele><time>2026-05-02T14:37:37.606Z</time></trkpt><trkpt lat="46.1098333" lon="13.4916233"><ele>312.5</ele><time>2026-05-02T14:37:39.608Z</time></trkpt><trkpt lat="46.10986" lon="13.4917083"><ele>312.3333333333333</ele><time>2026-05-02T14:37:40.607Z</time></trkpt><trkpt lat="46.1098883" lon="13.4918133"><ele>312.1666666666667</ele><time>2026-05-02T14:37:41.608Z</time></trkpt><trkpt lat="46.1099117" lon="13.4919167"><ele>312.0</ele><time>2026-05-02T14:37:42.608Z</time></trkpt><trkpt lat="46.109925" lon="13.492015"><ele>309.8333333333333</ele><time>2026-05-02T14:37:43.605Z</time></trkpt><trkpt lat="46.109935" lon="13.4921117"><ele>307.6666666666667</ele><time>2026-05-02T14:37:44.608Z</time></trkpt><trkpt lat="46.1099367" lon="13.4922183"><ele>305.5</ele><time>2026-05-02T14:37:45.604Z</time></trkpt><trkpt lat="46.1099283" lon="13.49234"><ele>303.33333333333337</ele><time>2026-05-02T14:37:46.607Z</time></trkpt><trkpt lat="46.109915" lon="13.4924633"><ele>301.1666666666667</ele><time>2026-05-02T14:37:47.605Z</time></trkpt><trkpt lat="46.1099017" lon="13.4925767"><ele>299.0</ele><time>2026-05-02T14:37:48.604Z</time></trkpt><trkpt lat="46.1098867" lon="13.49268"><ele>299.0</ele><time>2026-05-02T14:37:49.607Z</time></trkpt><trkpt lat="46.1098717" lon="13.492775"><ele>299.0</ele><time>2026-05-02T14:37:50.608Z</time></trkpt><trkpt lat="46.1098483" lon="13.4928617"><ele>299.0</ele><time>2026-05-02T14:37:51.604Z</time></trkpt><trkpt lat="46.1097883" lon="13.493025"><ele>299.0</ele><time>2026-05-02T14:37:53.606Z</time></trkpt><trkpt lat="46.1097367" lon="13.4931033"><ele>299.0</ele><time>2026-05-02T14:37:54.608Z</time></trkpt><trkpt lat="46.1096817" lon="13.49318"><ele>299.0</ele><time>2026-05-02T14:37:55.606Z</time></trkpt><trkpt lat="46.1096283" lon="13.4932517"><ele>296.83333333333337</ele><time>2026-05-02T14:37:56.609Z</time></trkpt><trkpt lat="46.1095717" lon="13.4933"><ele>294.6666666666667</ele><time>2026-05-02T14:37:57.606Z</time></trkpt><trkpt lat="46.10951" lon="13.49334"><ele>292.5</ele><time>2026-05-02T14:37:58.605Z</time></trkpt><trkpt lat="46.109395" lon="13.4933867"><ele>290.3333333333333</ele><time>2026-05-02T14:38:00.61Z</time></trkpt><trkpt lat="46.1092833" lon="13.4934283"><ele>288.16666666666663</ele><time>2026-05-02T14:38:02.609Z</time></trkpt><trkpt lat="46.109215" lon="13.493435"><ele>286.0</ele><time>2026-05-02T14:38:03.608Z</time></trkpt><trkpt lat="46.1091467" lon="13.4934417"><ele>283.16666666666663</ele><time>2026-05-02T14:38:04.606Z</time></trkpt><trkpt lat="46.1090283" lon="13.4934133"><ele>280.3333333333333</ele><time>2026-05-02T14:38:06.609Z</time></trkpt><trkpt lat="46.1089167" lon="13.49336"><ele>277.5</ele><time>2026-05-02T14:38:08.608Z</time></trkpt><trkpt lat="46.108855" lon="13.4933317"><ele>274.6666666666667</ele><time>2026-05-02T14:38:09.604Z</time></trkpt><trkpt lat="46.108795" lon="13.4932967"><ele>271.83333333333337</ele><time>2026-05-02T14:38:10.606Z</time></trkpt><trkpt lat="46.1087367" lon="13.4932533"><ele>269.0</ele><time>2026-05-02T14:38:11.607Z</time></trkpt><trkpt lat="46.1086767" lon="13.4932133"><ele>269.0</ele><time>2026-05-02T14:38:12.609Z</time></trkpt><trkpt lat="46.108615" lon="13.493165"><ele>269.0</ele><time>2026-05-02T14:38:13.607Z</time></trkpt><trkpt lat="46.108555" lon="13.49312"><ele>269.0</ele><time>2026-05-02T14:38:14.608Z</time></trkpt><trkpt lat="46.1085" lon="13.4930683"><ele>269.0</ele><time>2026-05-02T14:38:15.604Z</time></trkpt><trkpt lat="46.1083983" lon="13.4929717"><ele>269.0</ele><time>2026-05-02T14:38:17.605Z</time></trkpt><trkpt lat="46.1082833" lon="13.49293"><ele>269.0</ele><time>2026-05-02T14:38:19.608Z</time></trkpt><trkpt lat="46.1081683" lon="13.4929817"><ele>266.83333333333337</ele><time>2026-05-02T14:38:21.608Z</time></trkpt><trkpt lat="46.1081117" lon="13.493045"><ele>264.6666666666667</ele><time>2026-05-02T14:38:22.606Z</time></trkpt><trkpt lat="46.1080567" lon="13.4931217"><ele>262.5</ele><time>2026-05-02T14:38:23.609Z</time></trkpt><trkpt lat="46.108005" lon="13.4931883"><ele>260.3333333333333</ele><time>2026-05-02T14:38:24.607Z</time></trkpt><trkpt lat="46.1079033" lon="13.4932983"><ele>258.16666666666663</ele><time>2026-05-02T14:38:26.608Z</time></trkpt><trkpt lat="46.107845" lon="13.49335"><ele>256.0</ele><time>2026-05-02T14:38:27.606Z</time></trkpt><trkpt lat="46.10778" lon="13.493385"><ele>255.99999999999997</ele><time>2026-05-02T14:38:28.606Z</time></trkpt><trkpt lat="46.10771" lon="13.49341"><ele>256.0</ele><time>2026-05-02T14:38:29.604Z</time></trkpt><trkpt lat="46.1076433" lon="13.4934217"><ele>256.0</ele><time>2026-05-02T14:38:30.611Z</time></trkpt><trkpt lat="46.107535" lon="13.49342"><ele>256.0</ele><time>2026-05-02T14:38:32.609Z</time></trkpt><trkpt lat="46.10743" lon="13.4933783"><ele>255.99999999999997</ele><time>2026-05-02T14:38:34.607Z</time></trkpt><trkpt lat="46.1073733" lon="13.49333"><ele>256.0</ele><time>2026-05-02T14:38:35.604Z</time></trkpt><trkpt lat="46.107315" lon="13.49326"><ele>254.60000000000002</ele><time>2026-05-02T14:38:36.607Z</time></trkpt><trkpt lat="46.1072633" lon="13.4932017"><ele>253.20000000000002</ele><time>2026-05-02T14:38:37.608Z</time></trkpt><trkpt lat="46.1071633" lon="13.493125"><ele>251.79999999999998</ele><time>2026-05-02T14:38:39.608Z</time></trkpt><trkpt lat="46.107045" lon="13.4930917"><ele>250.39999999999998</ele><time>2026-05-02T14:38:41.605Z</time></trkpt><trkpt lat="46.1069817" lon="13.49307"><ele>249.0</ele><time>2026-05-02T14:38:42.609Z</time></trkpt><trkpt lat="46.1068733" lon="13.493045"><ele>249.0</ele><time>2026-05-02T14:38:44.608Z</time></trkpt><trkpt lat="46.1067817" lon="13.493115"><ele>249.0</ele><time>2026-05-02T14:38:46.606Z</time></trkpt><trkpt lat="46.1067233" lon="13.4931733"><ele>249.0</ele><time>2026-05-02T14:38:47.606Z</time></trkpt><trkpt lat="46.1066633" lon="13.4932483"><ele>249.0</ele><time>2026-05-02T14:38:48.607Z</time></trkpt><trkpt lat="46.106595" lon="13.4933183"><ele>249.0</ele><time>2026-05-02T14:38:49.608Z</time></trkpt><trkpt lat="46.1065267" lon="13.4934017"><ele>249.0</ele><time>2026-05-02T14:38:50.609Z</time></trkpt><trkpt lat="46.10647" lon="13.4934633"><ele>250.6</ele><time>2026-05-02T14:38:51.609Z</time></trkpt><trkpt lat="46.106365" lon="13.493515"><ele>252.2</ele><time>2026-05-02T14:38:53.604Z</time></trkpt><trkpt lat="46.1062717" lon="13.4934867"><ele>253.79999999999998</ele><time>2026-05-02T14:38:55.606Z</time></trkpt><trkpt lat="46.1061633" lon="13.4933983"><ele>255.39999999999998</ele><time>2026-05-02T14:38:57.604Z</time></trkpt><trkpt lat="46.10611" lon="13.4933333"><ele>257.0</ele><time>2026-05-02T14:38:58.606Z</time></trkpt><trkpt lat="46.106055" lon="13.49326"><ele>257.0</ele><time>2026-05-02T14:38:59.609Z</time></trkpt><trkpt lat="46.1059917" lon="13.4931983"><ele>257.0</ele><time>2026-05-02T14:39:00.61Z</time></trkpt><trkpt lat="46.1059267" lon="13.4931283"><ele>257.0</ele><time>2026-05-02T14:39:01.608Z</time></trkpt><trkpt lat="46.1058467" lon="13.493055"><ele>257.0</ele><time>2026-05-02T14:39:02.605Z</time></trkpt><trkpt lat="46.105765" lon="13.4929883"><ele>257.0</ele><time>2026-05-02T14:39:03.606Z</time></trkpt><trkpt lat="46.1056833" lon="13.4929483"><ele>257.0</ele><time>2026-05-02T14:39:04.602Z</time></trkpt><trkpt lat="46.1056133" lon="13.4929333"><ele>264.1666666666667</ele><time>2026-05-02T14:39:05.606Z</time></trkpt><trkpt lat="46.1055167" lon="13.4929733"><ele>271.33333333333337</ele><time>2026-05-02T14:39:07.606Z</time></trkpt><trkpt lat="46.1055117" lon="13.4931083"><ele>278.5</ele><time>2026-05-02T14:39:09.609Z</time></trkpt><trkpt lat="46.105535" lon="13.4932083"><ele>285.6666666666667</ele><time>2026-05-02T14:39:10.608Z</time></trkpt><trkpt lat="46.105565" lon="13.49332"><ele>292.8333333333333</ele><time>2026-05-02T14:39:11.607Z</time></trkpt><trkpt lat="46.1055967" lon="13.4934433"><ele>300.0</ele><time>2026-05-02T14:39:12.605Z</time></trkpt><trkpt lat="46.105615" lon="13.4935783"><ele>300.0</ele><time>2026-05-02T14:39:13.606Z</time></trkpt><trkpt lat="46.10562" lon="13.4937133"><ele>300.0</ele><time>2026-05-02T14:39:14.609Z</time></trkpt><trkpt lat="46.1056233" lon="13.49384"><ele>300.0</ele><time>2026-05-02T14:39:15.607Z</time></trkpt><trkpt lat="46.10561" lon="13.493965"><ele>300.0</ele><time>2026-05-02T14:39:16.608Z</time></trkpt><trkpt lat="46.10558" lon="13.4940867"><ele>300.0</ele><time>2026-05-02T14:39:17.608Z</time></trkpt><trkpt lat="46.1055533" lon="13.4942117"><ele>300.6</ele><time>2026-05-02T14:39:18.604Z</time></trkpt><trkpt lat="46.1055267" lon="13.4943367"><ele>301.2</ele><time>2026-05-02T14:39:19.609Z</time></trkpt><trkpt lat="46.1055017" lon="13.494475"><ele>301.8</ele><time>2026-05-02T14:39:20.609Z</time></trkpt><trkpt lat="46.1054917" lon="13.4946117"><ele>302.4</ele><time>2026-05-02T14:39:21.604Z</time></trkpt><trkpt lat="46.1055" lon="13.4947383"><ele>303.0</ele><time>2026-05-02T14:39:22.606Z</time></trkpt><trkpt lat="46.1055017" lon="13.4948517"><ele>299.6666666666667</ele><time>2026-05-02T14:39:23.607Z</time></trkpt><trkpt lat="46.1055" lon="13.4949617"><ele>296.3333333333333</ele><time>2026-05-02T14:39:24.611Z</time></trkpt><trkpt lat="46.1054967" lon="13.49506"><ele>293.0</ele><time>2026-05-02T14:39:25.608Z</time></trkpt><trkpt lat="46.10546" lon="13.4952267"><ele>289.66666666666663</ele><time>2026-05-02T14:39:27.608Z</time></trkpt><trkpt lat="46.1054233" lon="13.4953083"><ele>286.3333333333333</ele><time>2026-05-02T14:39:28.603Z</time></trkpt><trkpt lat="46.105375" lon="13.495385"><ele>283.0</ele><time>2026-05-02T14:39:29.607Z</time></trkpt><trkpt lat="46.10532" lon="13.495475"><ele>279.2</ele><time>2026-05-02T14:39:30.608Z</time></trkpt><trkpt lat="46.1052567" lon="13.4955817"><ele>275.4</ele><time>2026-05-02T14:39:31.606Z</time></trkpt><trkpt lat="46.1051883" lon="13.4957"><ele>271.59999999999997</ele><time>2026-05-02T14:39:32.608Z</time></trkpt><trkpt lat="46.1051217" lon="13.4958183"><ele>267.8</ele><time>2026-05-02T14:39:33.61Z</time></trkpt><trkpt lat="46.1050467" lon="13.4959267"><ele>264.0</ele><time>2026-05-02T14:39:34.606Z</time></trkpt><trkpt lat="46.1049717" lon="13.4960283"><ele>264.0</ele><time>2026-05-02T14:39:35.61Z</time></trkpt><trkpt lat="46.104915" lon="13.49612"><ele>264.0</ele><time>2026-05-02T14:39:36.608Z</time></trkpt><trkpt lat="46.1048667" lon="13.4962167"><ele>264.0</ele><time>2026-05-02T14:39:37.609Z</time></trkpt><trkpt lat="46.104825" lon="13.496325"><ele>264.0</ele><time>2026-05-02T14:39:38.609Z</time></trkpt><trkpt lat="46.1047883" lon="13.4964417"><ele>264.0</ele><time>2026-05-02T14:39:39.609Z</time></trkpt><trkpt lat="46.1047567" lon="13.49655"><ele>264.0</ele><time>2026-05-02T14:39:40.603Z</time></trkpt><trkpt lat="46.1047117" lon="13.4966567"><ele>270.1666666666667</ele><time>2026-05-02T14:39:41.607Z</time></trkpt><trkpt lat="46.1046667" lon="13.4967433"><ele>276.3333333333333</ele><time>2026-05-02T14:39:42.608Z</time></trkpt><trkpt lat="46.104615" lon="13.49686"><ele>282.5</ele><time>2026-05-02T14:39:43.608Z</time></trkpt><trkpt lat="46.1045733" lon="13.49696"><ele>288.66666666666663</ele><time>2026-05-02T14:39:44.605Z</time></trkpt><trkpt lat="46.1045417" lon="13.4970567"><ele>294.8333333333333</ele><time>2026-05-02T14:39:45.608Z</time></trkpt><trkpt lat="46.104525" lon="13.4971517"><ele>301.0</ele><time>2026-05-02T14:39:46.607Z</time></trkpt><trkpt lat="46.10457" lon="13.4972867"><ele>302.3333333333333</ele><time>2026-05-02T14:39:48.611Z</time></trkpt><trkpt lat="46.104665" lon="13.4973967"><ele>303.66666666666663</ele><time>2026-05-02T14:39:50.608Z</time></trkpt><trkpt lat="46.1047283" lon="13.4974417"><ele>305.0</ele><time>2026-05-02T14:39:51.607Z</time></trkpt><trkpt lat="46.1047917" lon="13.4974733"><ele>306.3333333333333</ele><time>2026-05-02T14:39:52.607Z</time></trkpt><trkpt lat="46.104855" lon="13.4974967"><ele>307.6666666666667</ele><time>2026-05-02T14:39:53.607Z</time></trkpt><trkpt lat="46.1049533" lon="13.4975733"><ele>309.0</ele><time>2026-05-02T14:39:55.609Z</time></trkpt><trkpt lat="46.1050083" lon="13.4976433"><ele>305.5</ele><time>2026-05-02T14:39:56.61Z</time></trkpt><trkpt lat="46.1050617" lon="13.497725"><ele>302.0</ele><time>2026-05-02T14:39:57.61Z</time></trkpt><trkpt lat="46.1051217" lon="13.4978067"><ele>298.5</ele><time>2026-05-02T14:39:58.608Z</time></trkpt><trkpt lat="46.1051783" lon="13.4978783"><ele>295.0</ele><time>2026-05-02T14:39:59.611Z</time></trkpt><trkpt lat="46.1052417" lon="13.4979617"><ele>291.5</ele><time>2026-05-02T14:40:00.61Z</time></trkpt><trkpt lat="46.1053067" lon="13.498055"><ele>288.0</ele><time>2026-05-02T14:40:01.608Z</time></trkpt><trkpt lat="46.1053717" lon="13.4981517"><ele>288.0</ele><time>2026-05-02T14:40:02.611Z</time></trkpt><trkpt lat="46.1054283" lon="13.498265"><ele>288.0</ele><time>2026-05-02T14:40:03.607Z</time></trkpt><trkpt lat="46.1054733" lon="13.498385"><ele>288.0</ele><time>2026-05-02T14:40:04.608Z</time></trkpt><trkpt lat="46.1055183" lon="13.498495"><ele>288.0</ele><time>2026-05-02T14:40:05.608Z</time></trkpt><trkpt lat="46.1055633" lon="13.4986033"><ele>288.0</ele><time>2026-05-02T14:40:06.61Z</time></trkpt><trkpt lat="46.1056167" lon="13.4987"><ele>286.0</ele><time>2026-05-02T14:40:07.607Z</time></trkpt><trkpt lat="46.1056767" lon="13.4987883"><ele>284.0</ele><time>2026-05-02T14:40:08.608Z</time></trkpt><trkpt lat="46.10574" lon="13.4988683"><ele>282.0</ele><time>2026-05-02T14:40:09.609Z</time></trkpt><trkpt lat="46.1058117" lon="13.4989433"><ele>280.0</ele><time>2026-05-02T14:40:10.604Z</time></trkpt><trkpt lat="46.105885" lon="13.4990083"><ele>278.0</ele><time>2026-05-02T14:40:11.607Z</time></trkpt><trkpt lat="46.1059517" lon="13.499055"><ele>276.0</ele><time>2026-05-02T14:40:12.608Z</time></trkpt><trkpt lat="46.10601" lon="13.49909"><ele>276.0</ele><time>2026-05-02T14:40:13.608Z</time></trkpt><trkpt lat="46.106115" lon="13.49914"><ele>276.0</ele><time>2026-05-02T14:40:15.606Z</time></trkpt><trkpt lat="46.1062183" lon="13.4991317"><ele>276.0</ele><time>2026-05-02T14:40:17.608Z</time></trkpt><trkpt lat="46.10629" lon="13.4990983"><ele>276.0</ele><time>2026-05-02T14:40:18.609Z</time></trkpt><trkpt lat="46.106355" lon="13.4990517"><ele>276.0</ele><time>2026-05-02T14:40:19.609Z</time></trkpt><trkpt lat="46.106415" lon="13.4990083"><ele>276.0</ele><time>2026-05-02T14:40:20.609Z</time></trkpt><trkpt lat="46.106515" lon="13.4989433"><ele>271.8333333333333</ele><time>2026-05-02T14:40:22.608Z</time></trkpt><trkpt lat="46.1066083" lon="13.4989083"><ele>267.6666666666667</ele><time>2026-05-02T14:40:24.607Z</time></trkpt><trkpt lat="46.1067283" lon="13.4989167"><ele>263.5</ele><time>2026-05-02T14:40:26.609Z</time></trkpt><trkpt lat="46.106795" lon="13.4989367"><ele>259.33333333333337</ele><time>2026-05-02T14:40:27.608Z</time></trkpt><trkpt lat="46.10687" lon="13.4989483"><ele>255.16666666666669</ele><time>2026-05-02T14:40:28.603Z</time></trkpt><trkpt lat="46.1069417" lon="13.49895"><ele>251.0</ele><time>2026-05-02T14:40:29.605Z</time></trkpt><trkpt lat="46.1070167" lon="13.4989483"><ele>251.00000000000003</ele><time>2026-05-02T14:40:30.608Z</time></trkpt><trkpt lat="46.1070883" lon="13.49895"><ele>251.0</ele><time>2026-05-02T14:40:31.608Z</time></trkpt><trkpt lat="46.1071583" lon="13.4989567"><ele>251.0</ele><time>2026-05-02T14:40:32.607Z</time></trkpt><trkpt lat="46.1072217" lon="13.4989617"><ele>251.0</ele><time>2026-05-02T14:40:33.609Z</time></trkpt><trkpt lat="46.1073217" lon="13.49898"><ele>251.00000000000003</ele><time>2026-05-02T14:40:35.609Z</time></trkpt><trkpt lat="46.10744" lon="13.498985"><ele>251.0</ele><time>2026-05-02T14:40:37.608Z</time></trkpt><trkpt lat="46.107535" lon="13.4989967"><ele>248.50000000000003</ele><time>2026-05-02T14:40:39.605Z</time></trkpt><trkpt lat="46.1076183" lon="13.4990167"><ele>246.0</ele><time>2026-05-02T14:40:42.608Z</time></trkpt><trkpt lat="46.1076883" lon="13.499045"><ele>243.5</ele><time>2026-05-02T14:40:46.604Z</time></trkpt><trkpt lat="46.1077683" lon="13.4990883"><ele>241.0</ele><time>2026-05-02T14:40:49.608Z</time></trkpt><trkpt lat="46.10785" lon="13.4991317"><ele>238.50000000000003</ele><time>2026-05-02T14:40:51.605Z</time></trkpt><trkpt lat="46.1079333" lon="13.499205"><ele>236.0</ele><time>2026-05-02T14:40:53.609Z</time></trkpt><trkpt lat="46.1080067" lon="13.499315"><ele>236.00000000000003</ele><time>2026-05-02T14:40:55.608Z</time></trkpt><trkpt lat="46.1080633" lon="13.49946"><ele>236.0</ele><time>2026-05-02T14:40:57.608Z</time></trkpt><trkpt lat="46.1080967" lon="13.49955"><ele>236.0</ele><time>2026-05-02T14:40:58.606Z</time></trkpt><trkpt lat="46.10812" lon="13.4996483"><ele>236.0</ele><time>2026-05-02T14:40:59.606Z</time></trkpt><trkpt lat="46.1081383" lon="13.4997583"><ele>236.00000000000003</ele><time>2026-05-02T14:41:00.608Z</time></trkpt><trkpt lat="46.10815" lon="13.4998617"><ele>236.0</ele><time>2026-05-02T14:41:01.607Z</time></trkpt><trkpt lat="46.1081617" lon="13.4999683"><ele>237.0</ele><time>2026-05-02T14:41:02.609Z</time></trkpt><trkpt lat="46.10817" lon="13.50006"><ele>238.00000000000003</ele><time>2026-05-02T14:41:03.609Z</time></trkpt><trkpt lat="46.1081883" lon="13.500235"><ele>239.00000000000003</ele><time>2026-05-02T14:41:05.606Z</time></trkpt><trkpt lat="46.108245" lon="13.5003767"><ele>240.0</ele><time>2026-05-02T14:41:07.607Z</time></trkpt><trkpt lat="46.1083417" lon="13.5004483"><ele>241.0</ele><time>2026-05-02T14:41:09.608Z</time></trkpt><trkpt lat="46.1084683" lon="13.5004533"><ele>237.0</ele><time>2026-05-02T14:41:11.608Z</time></trkpt><trkpt lat="46.1085383" lon="13.50046"><ele>233.00000000000003</ele><time>2026-05-02T14:41:12.606Z</time></trkpt><trkpt lat="46.108615" lon="13.500465"><ele>229.0</ele><time>2026-05-02T14:41:13.61Z</time></trkpt><trkpt lat="46.10869" lon="13.5004633"><ele>225.0</ele><time>2026-05-02T14:41:14.609Z</time></trkpt><trkpt lat="46.1087617" lon="13.5004583"><ele>221.0</ele><time>2026-05-02T14:41:15.609Z</time></trkpt><trkpt lat="46.1088367" lon="13.500445"><ele>217.0</ele><time>2026-05-02T14:41:16.605Z</time></trkpt><trkpt lat="46.1089133" lon="13.50042"><ele>213.0</ele><time>2026-05-02T14:41:17.608Z</time></trkpt><trkpt lat="46.10898" lon="13.5003967"><ele>212.99999999999997</ele><time>2026-05-02T14:41:18.607Z</time></trkpt><trkpt lat="46.1090533" lon="13.5003617"><ele>213.0</ele><time>2026-05-02T14:41:19.608Z</time></trkpt><trkpt lat="46.109125" lon="13.5003317"><ele>213.0</ele><time>2026-05-02T14:41:20.605Z</time></trkpt><trkpt lat="46.1091917" lon="13.5003067"><ele>213.0</ele><time>2026-05-02T14:41:21.604Z</time></trkpt><trkpt lat="46.1092567" lon="13.50029"><ele>213.0</ele><time>2026-05-02T14:41:22.605Z</time></trkpt><trkpt lat="46.1093217" lon="13.50029"><ele>212.99999999999997</ele><time>2026-05-02T14:41:23.608Z</time></trkpt><trkpt lat="46.1093933" lon="13.5002967"><ele>213.0</ele><time>2026-05-02T14:41:24.608Z</time></trkpt><trkpt lat="46.1094733" lon="13.500305"><ele>209.2</ele><time>2026-05-02T14:41:25.607Z</time></trkpt><trkpt lat="46.1095433" lon="13.5003133"><ele>205.4</ele><time>2026-05-02T14:41:26.61Z</time></trkpt><trkpt lat="46.10961" lon="13.5003217"><ele>201.6</ele><time>2026-05-02T14:41:27.61Z</time></trkpt><trkpt lat="46.109725" lon="13.50036"><ele>197.79999999999998</ele><time>2026-05-02T14:41:29.603Z</time></trkpt><trkpt lat="46.10983" lon="13.5004583"><ele>194.0</ele><time>2026-05-02T14:41:31.607Z</time></trkpt><trkpt lat="46.1098883" lon="13.50053"><ele>191.6</ele><time>2026-05-02T14:41:32.609Z</time></trkpt><trkpt lat="46.10996" lon="13.5006083"><ele>189.2</ele><time>2026-05-02T14:41:33.609Z</time></trkpt><trkpt lat="46.1100333" lon="13.5006833"><ele>186.79999999999998</ele><time>2026-05-02T14:41:34.608Z</time></trkpt><trkpt lat="46.11011" lon="13.5007617"><ele>184.39999999999998</ele><time>2026-05-02T14:41:35.609Z</time></trkpt><trkpt lat="46.11018" lon="13.500845"><ele>182.0</ele><time>2026-05-02T14:41:36.606Z</time></trkpt><trkpt lat="46.110255" lon="13.5009267"><ele>182.0</ele><time>2026-05-02T14:41:37.608Z</time></trkpt><trkpt lat="46.110325" lon="13.5010067"><ele>182.0</ele><time>2026-05-02T14:41:38.609Z</time></trkpt><trkpt lat="46.1103883" lon="13.5010867"><ele>182.0</ele><time>2026-05-02T14:41:39.606Z</time></trkpt><trkpt lat="46.1104417" lon="13.50117"><ele>182.0</ele><time>2026-05-02T14:41:40.607Z</time></trkpt><trkpt lat="46.11049" lon="13.5012517"><ele>182.0</ele><time>2026-05-02T14:41:41.609Z</time></trkpt><trkpt lat="46.1105283" lon="13.501335"><ele>182.0</ele><time>2026-05-02T14:41:42.612Z</time></trkpt><trkpt lat="46.11056" lon="13.501415"><ele>180.2</ele><time>2026-05-02T14:41:43.608Z</time></trkpt><trkpt lat="46.1105883" lon="13.5014967"><ele>178.39999999999998</ele><time>2026-05-02T14:41:44.609Z</time></trkpt><trkpt lat="46.110625" lon="13.5016683"><ele>176.60000000000002</ele><time>2026-05-02T14:41:46.603Z</time></trkpt><trkpt lat="46.110665" lon="13.5018267"><ele>174.8</ele><time>2026-05-02T14:41:48.609Z</time></trkpt><trkpt lat="46.1107217" lon="13.5019633"><ele>173.0</ele><time>2026-05-02T14:41:50.61Z</time></trkpt><trkpt lat="46.1107617" lon="13.502035"><ele>171.0</ele><time>2026-05-02T14:41:51.607Z</time></trkpt><trkpt lat="46.110815" lon="13.5021117"><ele>169.0</ele><time>2026-05-02T14:41:52.606Z</time></trkpt><trkpt lat="46.1108633" lon="13.5021967"><ele>167.0</ele><time>2026-05-02T14:41:53.604Z</time></trkpt><trkpt lat="46.1109083" lon="13.5022633"><ele>165.0</ele><time>2026-05-02T14:41:54.609Z</time></trkpt><trkpt lat="46.1109517" lon="13.5023383"><ele>163.0</ele><time>2026-05-02T14:41:55.608Z</time></trkpt><trkpt lat="46.1110567" lon="13.5024533"><ele>161.0</ele><time>2026-05-02T14:41:57.607Z</time></trkpt><trkpt lat="46.1111217" lon="13.5025117"><ele>161.0</ele><time>2026-05-02T14:41:58.606Z</time></trkpt><trkpt lat="46.1111917" lon="13.50257"><ele>161.0</ele><time>2026-05-02T14:41:59.606Z</time></trkpt><trkpt lat="46.11126" lon="13.502625"><ele>161.0</ele><time>2026-05-02T14:42:00.604Z</time></trkpt><trkpt lat="46.111335" lon="13.5026883"><ele>161.0</ele><time>2026-05-02T14:42:01.606Z</time></trkpt><trkpt lat="46.1114133" lon="13.5027433"><ele>161.0</ele><time>2026-05-02T14:42:02.605Z</time></trkpt><trkpt lat="46.11149" lon="13.5027867"><ele>161.0</ele><time>2026-05-02T14:42:03.61Z</time></trkpt><trkpt lat="46.1115633" lon="13.502835"><ele>161.60000000000002</ele><time>2026-05-02T14:42:04.607Z</time></trkpt><trkpt lat="46.1116517" lon="13.50287"><ele>162.2</ele><time>2026-05-02T14:42:05.608Z</time></trkpt><trkpt lat="46.111755" lon="13.5029083"><ele>162.8</ele><time>2026-05-02T14:42:06.606Z</time></trkpt><trkpt lat="46.1118667" lon="13.5029367"><ele>163.39999999999998</ele><time>2026-05-02T14:42:07.603Z</time></trkpt><trkpt lat="46.111975" lon="13.50296"><ele>164.0</ele><time>2026-05-02T14:42:08.605Z</time></trkpt><trkpt lat="46.1120683" lon="13.5029917"><ele>161.6</ele><time>2026-05-02T14:42:09.607Z</time></trkpt><trkpt lat="46.112145" lon="13.5030233"><ele>159.2</ele><time>2026-05-02T14:42:10.606Z</time></trkpt><trkpt lat="46.11221" lon="13.50307"><ele>156.79999999999998</ele><time>2026-05-02T14:42:11.607Z</time></trkpt><trkpt lat="46.1122667" lon="13.5032283"><ele>154.39999999999998</ele><time>2026-05-02T14:42:13.61Z</time></trkpt><trkpt lat="46.1122617" lon="13.5033483"><ele>152.0</ele><time>2026-05-02T14:42:14.608Z</time></trkpt><trkpt lat="46.11225" lon="13.503485"><ele>152.0</ele><time>2026-05-02T14:42:15.604Z</time></trkpt><trkpt lat="46.11223" lon="13.5036333"><ele>152.0</ele><time>2026-05-02T14:42:16.605Z</time></trkpt><trkpt lat="46.11219" lon="13.5038"><ele>152.0</ele><time>2026-05-02T14:42:17.607Z</time></trkpt><trkpt lat="46.11214" lon="13.5039667"><ele>152.0</ele><time>2026-05-02T14:42:18.608Z</time></trkpt><trkpt lat="46.1120817" lon="13.504145"><ele>151.5</ele><time>2026-05-02T14:42:19.608Z</time></trkpt><trkpt lat="46.1120217" lon="13.5043267"><ele>151.0</ele><time>2026-05-02T14:42:20.608Z</time></trkpt><trkpt lat="46.1119583" lon="13.5045117"><ele>150.5</ele><time>2026-05-02T14:42:21.606Z</time></trkpt><trkpt lat="46.1118983" lon="13.5046867"><ele>150.0</ele><time>2026-05-02T14:42:22.606Z</time></trkpt><trkpt lat="46.111855" lon="13.5048367"><ele>150.0</ele><time>2026-05-02T14:42:23.607Z</time></trkpt><trkpt lat="46.1118233" lon="13.5049767"><ele>150.0</ele><time>2026-05-02T14:42:24.607Z</time></trkpt><trkpt lat="46.1118117" lon="13.5051133"><ele>150.0</ele><time>2026-05-02T14:42:25.608Z</time></trkpt><trkpt lat="46.111825" lon="13.50524"><ele>150.0</ele><time>2026-05-02T14:42:26.608Z</time></trkpt><trkpt lat="46.1118583" lon="13.5053583"><ele>150.0</ele><time>2026-05-02T14:42:27.603Z</time></trkpt><trkpt lat="46.1119183" lon="13.50548"><ele>153.25</ele><time>2026-05-02T14:42:28.605Z</time></trkpt><trkpt lat="46.112" lon="13.5056133"><ele>156.5</ele><time>2026-05-02T14:42:29.608Z</time></trkpt><trkpt lat="46.1120883" lon="13.50575"><ele>159.75</ele><time>2026-05-02T14:42:30.606Z</time></trkpt><trkpt lat="46.1121767" lon="13.5058867"><ele>163.0</ele><time>2026-05-02T14:42:31.608Z</time></trkpt><trkpt lat="46.1122633" lon="13.5060183"><ele>163.0</ele><time>2026-05-02T14:42:32.61Z</time></trkpt><trkpt lat="46.1123433" lon="13.5061317"><ele>163.0</ele><time>2026-05-02T14:42:33.607Z</time></trkpt><trkpt lat="46.1124133" lon="13.5062367"><ele>163.0</ele><time>2026-05-02T14:42:34.608Z</time></trkpt><trkpt lat="46.1124733" lon="13.5063383"><ele>163.0</ele><time>2026-05-02T14:42:35.607Z</time></trkpt><trkpt lat="46.11254" lon="13.5064383"><ele>163.0</ele><time>2026-05-02T14:42:36.61Z</time></trkpt><trkpt lat="46.1126083" lon="13.50654"><ele>165.4</ele><time>2026-05-02T14:42:37.608Z</time></trkpt><trkpt lat="46.11268" lon="13.5066333"><ele>167.8</ele><time>2026-05-02T14:42:38.609Z</time></trkpt><trkpt lat="46.1127567" lon="13.5067167"><ele>170.2</ele><time>2026-05-02T14:42:39.609Z</time></trkpt><trkpt lat="46.1128317" lon="13.50679"><ele>172.6</ele><time>2026-05-02T14:42:40.609Z</time></trkpt><trkpt lat="46.1129" lon="13.5068717"><ele>175.0</ele><time>2026-05-02T14:42:41.61Z</time></trkpt><trkpt lat="46.1129683" lon="13.5069717"><ele>177.0</ele><time>2026-05-02T14:42:42.609Z</time></trkpt><trkpt lat="46.1130417" lon="13.5070983"><ele>179.0</ele><time>2026-05-02T14:42:43.608Z</time></trkpt><trkpt lat="46.1131083" lon="13.507235"><ele>181.0</ele><time>2026-05-02T14:42:44.609Z</time></trkpt><trkpt lat="46.1131683" lon="13.5073767"><ele>183.0</ele><time>2026-05-02T14:42:45.608Z</time></trkpt><trkpt lat="46.11322" lon="13.50751"><ele>177.4</ele><time>2026-05-02T14:42:46.606Z</time></trkpt><trkpt lat="46.113265" lon="13.5076333"><ele>171.8</ele><time>2026-05-02T14:42:47.608Z</time></trkpt><trkpt lat="46.1133067" lon="13.5077583"><ele>166.2</ele><time>2026-05-02T14:42:48.609Z</time></trkpt><trkpt lat="46.1133467" lon="13.5078983"><ele>160.6</ele><time>2026-05-02T14:42:49.604Z</time></trkpt><trkpt lat="46.1133867" lon="13.5080467"><ele>155.0</ele><time>2026-05-02T14:42:50.609Z</time></trkpt><trkpt lat="46.1134433" lon="13.5082"><ele>155.0</ele><time>2026-05-02T14:42:51.607Z</time></trkpt><trkpt lat="46.1135183" lon="13.508345"><ele>155.0</ele><time>2026-05-02T14:42:52.606Z</time></trkpt><trkpt lat="46.1135967" lon="13.5084817"><ele>155.0</ele><time>2026-05-02T14:42:53.607Z</time></trkpt><trkpt lat="46.1136733" lon="13.5086083"><ele>155.0</ele><time>2026-05-02T14:42:54.603Z</time></trkpt><trkpt lat="46.1137467" lon="13.5087283"><ele>155.6</ele><time>2026-05-02T14:42:55.607Z</time></trkpt><trkpt lat="46.1138167" lon="13.5088467"><ele>156.2</ele><time>2026-05-02T14:42:56.609Z</time></trkpt><trkpt lat="46.1138767" lon="13.5089583"><ele>156.8</ele><time>2026-05-02T14:42:57.602Z</time></trkpt><trkpt lat="46.1139167" lon="13.5090533"><ele>157.4</ele><time>2026-05-02T14:42:58.604Z</time></trkpt><trkpt lat="46.1139367" lon="13.5091917"><ele>158.0</ele><time>2026-05-02T14:43:00.61Z</time></trkpt><trkpt lat="46.1138667" lon="13.509295"><ele>158.0</ele><time>2026-05-02T14:43:02.609Z</time></trkpt><trkpt lat="46.113775" lon="13.50939"><ele>158.0</ele><time>2026-05-02T14:43:04.609Z</time></trkpt><trkpt lat="46.1137183" lon="13.5095217"><ele>158.0</ele><time>2026-05-02T14:43:06.607Z</time></trkpt><trkpt lat="46.113725" lon="13.5096317"><ele>158.0</ele><time>2026-05-02T14:43:07.61Z</time></trkpt><trkpt lat="46.1137417" lon="13.5097717"><ele>158.0</ele><time>2026-05-02T14:43:08.61Z</time></trkpt><trkpt lat="46.113755" lon="13.5099367"><ele>159.0</ele><time>2026-05-02T14:43:09.609Z</time></trkpt><trkpt lat="46.1137667" lon="13.51011"><ele>160.0</ele><time>2026-05-02T14:43:10.605Z</time></trkpt><trkpt lat="46.11378" lon="13.51029"><ele>161.0</ele><time>2026-05-02T14:43:11.608Z</time></trkpt><trkpt lat="46.113795" lon="13.51047"><ele>162.0</ele><time>2026-05-02T14:43:12.606Z</time></trkpt><trkpt lat="46.1138133" lon="13.510645"><ele>162.0</ele><time>2026-05-02T14:43:13.604Z</time></trkpt><trkpt lat="46.1138267" lon="13.51082"><ele>162.0</ele><time>2026-05-02T14:43:14.607Z</time></trkpt><trkpt lat="46.113835" lon="13.5109983"><ele>162.0</ele><time>2026-05-02T14:43:15.609Z</time></trkpt><trkpt lat="46.11384" lon="13.5111717"><ele>162.0</ele><time>2026-05-02T14:43:16.604Z</time></trkpt><trkpt lat="46.11384" lon="13.51134"><ele>162.2</ele><time>2026-05-02T14:43:17.603Z</time></trkpt><trkpt lat="46.1138367" lon="13.5114917"><ele>162.39999999999998</ele><time>2026-05-02T14:43:18.605Z</time></trkpt><trkpt lat="46.1138367" lon="13.5116283"><ele>162.60000000000002</ele><time>2026-05-02T14:43:19.608Z</time></trkpt><trkpt lat="46.1138383" lon="13.5117533"><ele>162.8</ele><time>2026-05-02T14:43:20.606Z</time></trkpt><trkpt lat="46.1138567" lon="13.5118767"><ele>163.0</ele><time>2026-05-02T14:43:21.604Z</time></trkpt><trkpt lat="46.113885" lon="13.51202"><ele>165.60000000000002</ele><time>2026-05-02T14:43:22.605Z</time></trkpt><trkpt lat="46.1139167" lon="13.5121683"><ele>168.20000000000002</ele><time>2026-05-02T14:43:23.605Z</time></trkpt><trkpt lat="46.1139517" lon="13.51231"><ele>170.8</ele><time>2026-05-02T14:43:24.609Z</time></trkpt><trkpt lat="46.113985" lon="13.512435"><ele>173.4</ele><time>2026-05-02T14:43:25.607Z</time></trkpt><trkpt lat="46.1140117" lon="13.512555"><ele>176.0</ele><time>2026-05-02T14:43:26.608Z</time></trkpt><trkpt lat="46.1140333" lon="13.5126733"><ele>176.0</ele><time>2026-05-02T14:43:27.604Z</time></trkpt><trkpt lat="46.1140417" lon="13.5128017"><ele>176.0</ele><time>2026-05-02T14:43:28.603Z</time></trkpt><trkpt lat="46.1140517" lon="13.5129317"><ele>176.0</ele><time>2026-05-02T14:43:29.607Z</time></trkpt><trkpt lat="46.1140667" lon="13.513065"><ele>176.0</ele><time>2026-05-02T14:43:30.608Z</time></trkpt><trkpt lat="46.1140883" lon="13.5131967"><ele>176.0</ele><time>2026-05-02T14:43:31.608Z</time></trkpt><trkpt lat="46.1141233" lon="13.51333"><ele>174.16666666666666</ele><time>2026-05-02T14:43:32.609Z</time></trkpt><trkpt lat="46.1141567" lon="13.51346"><ele>172.33333333333331</ele><time>2026-05-02T14:43:33.608Z</time></trkpt><trkpt lat="46.1141917" lon="13.5135783"><ele>170.5</ele><time>2026-05-02T14:43:34.606Z</time></trkpt><trkpt lat="46.1142283" lon="13.5136883"><ele>168.66666666666666</ele><time>2026-05-02T14:43:35.61Z</time></trkpt><trkpt lat="46.1142617" lon="13.5137917"><ele>166.83333333333334</ele><time>2026-05-02T14:43:36.607Z</time></trkpt><trkpt lat="46.114295" lon="13.5138983"><ele>165.0</ele><time>2026-05-02T14:43:37.611Z</time></trkpt><trkpt lat="46.1143183" lon="13.5140067"><ele>165.0</ele><time>2026-05-02T14:43:38.608Z</time></trkpt><trkpt lat="46.11434" lon="13.514115"><ele>165.0</ele><time>2026-05-02T14:43:39.608Z</time></trkpt><trkpt lat="46.1143583" lon="13.514245"><ele>165.0</ele><time>2026-05-02T14:43:40.608Z</time></trkpt><trkpt lat="46.1143817" lon="13.51439"><ele>165.0</ele><time>2026-05-02T14:43:41.608Z</time></trkpt><trkpt lat="46.1144017" lon="13.5145467"><ele>165.0</ele><time>2026-05-02T14:43:42.611Z</time></trkpt><trkpt lat="46.114415" lon="13.5147033"><ele>165.8</ele><time>2026-05-02T14:43:43.607Z</time></trkpt><trkpt lat="46.1144267" lon="13.5148583"><ele>166.6</ele><time>2026-05-02T14:43:44.609Z</time></trkpt><trkpt lat="46.1144317" lon="13.5150117"><ele>167.39999999999998</ele><time>2026-05-02T14:43:45.609Z</time></trkpt><trkpt lat="46.1144367" lon="13.5151567"><ele>168.2</ele><time>2026-05-02T14:43:46.605Z</time></trkpt><trkpt lat="46.11444" lon="13.5152883"><ele>169.0</ele><time>2026-05-02T14:43:47.607Z</time></trkpt><trkpt lat="46.1144417" lon="13.515425"><ele>169.5</ele><time>2026-05-02T14:43:48.607Z</time></trkpt><trkpt lat="46.11444" lon="13.5155483"><ele>170.0</ele><time>2026-05-02T14:43:49.608Z</time></trkpt><trkpt lat="46.1144333" lon="13.51566"><ele>170.5</ele><time>2026-05-02T14:43:50.606Z</time></trkpt><trkpt lat="46.1144333" lon="13.5157583"><ele>171.0</ele><time>2026-05-02T14:43:51.609Z</time></trkpt><trkpt lat="46.1144417" lon="13.5158617"><ele>171.5</ele><time>2026-05-02T14:43:52.607Z</time></trkpt><trkpt lat="46.1144617" lon="13.5159633"><ele>172.0</ele><time>2026-05-02T14:43:53.608Z</time></trkpt><trkpt lat="46.1144917" lon="13.51606"><ele>172.0</ele><time>2026-05-02T14:43:54.609Z</time></trkpt><trkpt lat="46.1145183" lon="13.5161633"><ele>172.0</ele><time>2026-05-02T14:43:55.608Z</time></trkpt><trkpt lat="46.1145517" lon="13.5162733"><ele>172.0</ele><time>2026-05-02T14:43:56.605Z</time></trkpt><trkpt lat="46.1145933" lon="13.5163833"><ele>172.0</ele><time>2026-05-02T14:43:57.608Z</time></trkpt><trkpt lat="46.114635" lon="13.51649"><ele>172.0</ele><time>2026-05-02T14:43:58.606Z</time></trkpt><trkpt lat="46.1146883" lon="13.5166017"><ele>172.0</ele><time>2026-05-02T14:43:59.608Z</time></trkpt><trkpt lat="46.1147467" lon="13.516725"><ele>172.0</ele><time>2026-05-02T14:44:00.609Z</time></trkpt><trkpt lat="46.1148083" lon="13.51684"><ele>172.0</ele><time>2026-05-02T14:44:01.611Z</time></trkpt><trkpt lat="46.1148717" lon="13.51696"><ele>172.0</ele><time>2026-05-02T14:44:02.609Z</time></trkpt><trkpt lat="46.114935" lon="13.5170683"><ele>172.0</ele><time>2026-05-02T14:44:03.607Z</time></trkpt><trkpt lat="46.1150067" lon="13.5171767"><ele>172.0</ele><time>2026-05-02T14:44:04.61Z</time></trkpt><trkpt lat="46.115075" lon="13.5172717"><ele>168.0</ele><time>2026-05-02T14:44:05.605Z</time></trkpt><trkpt lat="46.1151533" lon="13.5173867"><ele>164.0</ele><time>2026-05-02T14:44:06.607Z</time></trkpt><trkpt lat="46.1152367" lon="13.5175167"><ele>160.0</ele><time>2026-05-02T14:44:07.605Z</time></trkpt><trkpt lat="46.1153117" lon="13.5176317"><ele>156.0</ele><time>2026-05-02T14:44:08.605Z</time></trkpt><trkpt lat="46.1153833" lon="13.51774"><ele>152.0</ele><time>2026-05-02T14:44:09.607Z</time></trkpt><trkpt lat="46.1154533" lon="13.5178433"><ele>151.79999999999998</ele><time>2026-05-02T14:44:10.604Z</time></trkpt><trkpt lat="46.11552" lon="13.5179433"><ele>151.6</ele><time>2026-05-02T14:44:11.609Z</time></trkpt><trkpt lat="46.115585" lon="13.5180367"><ele>151.39999999999998</ele><time>2026-05-02T14:44:12.609Z</time></trkpt><trkpt lat="46.1156483" lon="13.5181367"><ele>151.2</ele><time>2026-05-02T14:44:13.607Z</time></trkpt><trkpt lat="46.1157283" lon="13.5182217"><ele>151.0</ele><time>2026-05-02T14:44:14.608Z</time></trkpt><trkpt lat="46.11582" lon="13.5183183"><ele>151.0</ele><time>2026-05-02T14:44:15.603Z</time></trkpt><trkpt lat="46.1159267" lon="13.5184017"><ele>151.0</ele><time>2026-05-02T14:44:16.603Z</time></trkpt><trkpt lat="46.1160417" lon="13.5184667"><ele>151.0</ele><time>2026-05-02T14:44:17.605Z</time></trkpt><trkpt lat="46.11613" lon="13.518515"><ele>151.0</ele><time>2026-05-02T14:44:18.603Z</time></trkpt><trkpt lat="46.1162183" lon="13.5186067"><ele>151.0</ele><time>2026-05-02T14:44:19.604Z</time></trkpt><trkpt lat="46.1163033" lon="13.5187133"><ele>151.0</ele><time>2026-05-02T14:44:20.61Z</time></trkpt><trkpt lat="46.1163917" lon="13.5188117"><ele>151.0</ele><time>2026-05-02T14:44:21.608Z</time></trkpt><trkpt lat="46.1164817" lon="13.518905"><ele>151.0</ele><time>2026-05-02T14:44:22.607Z</time></trkpt><trkpt lat="46.1165767" lon="13.5189867"><ele>151.0</ele><time>2026-05-02T14:44:23.603Z</time></trkpt><trkpt lat="46.1166783" lon="13.5190683"><ele>151.0</ele><time>2026-05-02T14:44:24.61Z</time></trkpt><trkpt lat="46.116775" lon="13.5191467"><ele>151.2</ele><time>2026-05-02T14:44:25.609Z</time></trkpt><trkpt lat="46.1168717" lon="13.519235"><ele>151.39999999999998</ele><time>2026-05-02T14:44:26.607Z</time></trkpt><trkpt lat="46.1169633" lon="13.5193233"><ele>151.6</ele><time>2026-05-02T14:44:27.603Z</time></trkpt><trkpt lat="46.117045" lon="13.51941"><ele>151.79999999999998</ele><time>2026-05-02T14:44:28.609Z</time></trkpt><trkpt lat="46.1171233" lon="13.5194967"><ele>152.0</ele><time>2026-05-02T14:44:29.605Z</time></trkpt><trkpt lat="46.1171917" lon="13.519575"><ele>152.0</ele><time>2026-05-02T14:44:30.602Z</time></trkpt><trkpt lat="46.117255" lon="13.51965"><ele>152.0</ele><time>2026-05-02T14:44:31.604Z</time></trkpt><trkpt lat="46.1173083" lon="13.519725"><ele>152.0</ele><time>2026-05-02T14:44:32.61Z</time></trkpt><trkpt lat="46.1173417" lon="13.5198067"><ele>152.0</ele><time>2026-05-02T14:44:33.608Z</time></trkpt><trkpt lat="46.117375" lon="13.5198933"><ele>152.0</ele><time>2026-05-02T14:44:34.606Z</time></trkpt><trkpt lat="46.1174117" lon="13.519995"><ele>152.0</ele><time>2026-05-02T14:44:35.609Z</time></trkpt><trkpt lat="46.1174417" lon="13.52011"><ele>152.0</ele><time>2026-05-02T14:44:36.608Z</time></trkpt><trkpt lat="46.11747" lon="13.5202333"><ele>152.0</ele><time>2026-05-02T14:44:37.61Z</time></trkpt><trkpt lat="46.11751" lon="13.52035"><ele>152.0</ele><time>2026-05-02T14:44:38.608Z</time></trkpt><trkpt lat="46.11756" lon="13.52046"><ele>152.0</ele><time>2026-05-02T14:44:39.607Z</time></trkpt><trkpt lat="46.117625" lon="13.5205683"><ele>152.0</ele><time>2026-05-02T14:44:40.607Z</time></trkpt><trkpt lat="46.117695" lon="13.5206667"><ele>152.16666666666666</ele><time>2026-05-02T14:44:41.61Z</time></trkpt><trkpt lat="46.11777" lon="13.5207567"><ele>152.33333333333331</ele><time>2026-05-02T14:44:42.608Z</time></trkpt><trkpt lat="46.11784" lon="13.5208317"><ele>152.5</ele><time>2026-05-02T14:44:43.604Z</time></trkpt><trkpt lat="46.117915" lon="13.5208967"><ele>152.66666666666666</ele><time>2026-05-02T14:44:44.605Z</time></trkpt><trkpt lat="46.1179883" lon="13.520955"><ele>152.83333333333334</ele><time>2026-05-02T14:44:45.607Z</time></trkpt><trkpt lat="46.1180517" lon="13.5210117"><ele>153.0</ele><time>2026-05-02T14:44:46.607Z</time></trkpt><trkpt lat="46.1181033" lon="13.521065"><ele>153.0</ele><time>2026-05-02T14:44:47.608Z</time></trkpt><trkpt lat="46.1181683" lon="13.52118"><ele>153.0</ele><time>2026-05-02T14:44:49.604Z</time></trkpt><trkpt lat="46.1181767" lon="13.521345"><ele>153.0</ele><time>2026-05-02T14:44:51.604Z</time></trkpt><trkpt lat="46.1181583" lon="13.521445"><ele>153.0</ele><time>2026-05-02T14:44:52.607Z</time></trkpt><trkpt lat="46.11814" lon="13.5215533"><ele>153.0</ele><time>2026-05-02T14:44:53.605Z</time></trkpt><trkpt lat="46.1181217" lon="13.5216533"><ele>153.0</ele><time>2026-05-02T14:44:54.609Z</time></trkpt><trkpt lat="46.11811" lon="13.5217983"><ele>153.0</ele><time>2026-05-02T14:44:56.608Z</time></trkpt><trkpt lat="46.118175" lon="13.521875"><ele>153.0</ele><time>2026-05-02T14:44:58.606Z</time></trkpt><trkpt lat="46.11825" lon="13.521885"><ele>153.0</ele><time>2026-05-02T14:44:59.605Z</time></trkpt><trkpt lat="46.1183517" lon="13.5218917"><ele>153.0</ele><time>2026-05-02T14:45:00.61Z</time></trkpt><trkpt lat="46.1184683" lon="13.521925"><ele>153.0</ele><time>2026-05-02T14:45:01.606Z</time></trkpt><trkpt lat="46.1185867" lon="13.5219883"><ele>153.0</ele><time>2026-05-02T14:45:02.613Z</time></trkpt><trkpt lat="46.1187117" lon="13.522055"><ele>153.0</ele><time>2026-05-02T14:45:03.609Z</time></trkpt><trkpt lat="46.1188383" lon="13.5221183"><ele>153.0</ele><time>2026-05-02T14:45:04.605Z</time></trkpt><trkpt lat="46.1189717" lon="13.5221767"><ele>153.0</ele><time>2026-05-02T14:45:05.608Z</time></trkpt><trkpt lat="46.1191017" lon="13.5222267"><ele>153.4</ele><time>2026-05-02T14:45:06.61Z</time></trkpt><trkpt lat="46.1192217" lon="13.5222583"><ele>153.8</ele><time>2026-05-02T14:45:07.609Z</time></trkpt><trkpt lat="46.11934" lon="13.5222667"><ele>154.2</ele><time>2026-05-02T14:45:08.61Z</time></trkpt><trkpt lat="46.1194483" lon="13.52227"><ele>154.6</ele><time>2026-05-02T14:45:09.61Z</time></trkpt><trkpt lat="46.1195383" lon="13.5222933"><ele>155.0</ele><time>2026-05-02T14:45:10.607Z</time></trkpt><trkpt lat="46.1196167" lon="13.522355"><ele>155.0</ele><time>2026-05-02T14:45:11.61Z</time></trkpt><trkpt lat="46.11969" lon="13.5224533"><ele>155.0</ele><time>2026-05-02T14:45:12.608Z</time></trkpt><trkpt lat="46.1197767" lon="13.5225867"><ele>155.0</ele><time>2026-05-02T14:45:13.606Z</time></trkpt><trkpt lat="46.11995" lon="13.5228833"><ele>155.0</ele><time>2026-05-02T14:45:15.603Z</time></trkpt><trkpt lat="46.1200217" lon="13.5230233"><ele>155.0</ele><time>2026-05-02T14:45:16.603Z</time></trkpt><trkpt lat="46.12008" lon="13.523145"><ele>155.0</ele><time>2026-05-02T14:45:17.606Z</time></trkpt><trkpt lat="46.120135" lon="13.52326"><ele>155.0</ele><time>2026-05-02T14:45:18.606Z</time></trkpt><trkpt lat="46.1201867" lon="13.5233683"><ele>155.0</ele><time>2026-05-02T14:45:19.605Z</time></trkpt><trkpt lat="46.12023" lon="13.5234633"><ele>155.0</ele><time>2026-05-02T14:45:20.61Z</time></trkpt><trkpt lat="46.1202667" lon="13.5236167"><ele>155.0</ele><time>2026-05-02T14:45:22.606Z</time></trkpt><trkpt lat="46.1202283" lon="13.5237567"><ele>155.0</ele><time>2026-05-02T14:45:24.605Z</time></trkpt><trkpt lat="46.12017" lon="13.5238333"><ele>155.0</ele><time>2026-05-02T14:45:25.606Z</time></trkpt><trkpt lat="46.120105" lon="13.5239133"><ele>155.0</ele><time>2026-05-02T14:45:26.609Z</time></trkpt><trkpt lat="46.1200483" lon="13.5240033"><ele>155.0</ele><time>2026-05-02T14:45:27.609Z</time></trkpt><trkpt lat="46.120005" lon="13.5240883"><ele>155.0</ele><time>2026-05-02T14:45:28.606Z</time></trkpt><trkpt lat="46.1199633" lon="13.5241567"><ele>155.0</ele><time>2026-05-02T14:45:29.608Z</time></trkpt><trkpt lat="46.1198633" lon="13.5242417"><ele>155.0</ele><time>2026-05-02T14:45:31.609Z</time></trkpt><trkpt lat="46.119785" lon="13.5242717"><ele>155.0</ele><time>2026-05-02T14:45:33.608Z</time></trkpt><trkpt lat="46.1198517" lon="13.52426"><ele>155.0</ele><time>2026-05-02T14:48:35.605Z</time></trkpt></trkseg></trk></gpx>